<?xml version="1.0" encoding="UTF-8" standalone="no" ?>
<gpx xmlns="http://www.topografix.com/GPX/1/1" xmlns:xsi="http://www.w3.org/2001/XMLSchema-instance" xsi:schemaLocation="http://www.topografix.com/GPX/1/1 http://www.topografix.com/GPX/1/1/gpx.xsd" version="1.1" creator="VisuGPX - https://www.visugpx.com">
  <metadata>
    <name>Montpellier Cournonterral 28022021</name>
  </metadata>
  <trk>
    <name><![CDATA[Montpellier Cournonterral 28022021_1]]></name>
    <trkseg>
      <trkpt lat="43.60977" lon="3.86381">
        <ele>40</ele>
        <time>2021-02-28T11:24:02Z</time>
      </trkpt>
      <trkpt lat="43.60979" lon="3.86371">
        <ele>40</ele>
        <time>2021-02-28T11:24:03Z</time>
      </trkpt>
      <trkpt lat="43.6098" lon="3.86365">
        <ele>40</ele>
        <time>2021-02-28T11:24:04Z</time>
      </trkpt>
      <trkpt lat="43.60981" lon="3.8636">
        <ele>40</ele>
        <time>2021-02-28T11:24:05Z</time>
      </trkpt>
      <trkpt lat="43.60982" lon="3.86354">
        <ele>40.3</ele>
        <time>2021-02-28T11:24:06Z</time>
      </trkpt>
      <trkpt lat="43.60982" lon="3.86349">
        <ele>40.4</ele>
        <time>2021-02-28T11:24:07Z</time>
      </trkpt>
      <trkpt lat="43.60983" lon="3.86343">
        <ele>40.7</ele>
        <time>2021-02-28T11:24:08Z</time>
      </trkpt>
      <trkpt lat="43.60984" lon="3.86338">
        <ele>40.8</ele>
        <time>2021-02-28T11:24:09Z</time>
      </trkpt>
      <trkpt lat="43.60985" lon="3.86332">
        <ele>41.1</ele>
        <time>2021-02-28T11:24:10Z</time>
      </trkpt>
      <trkpt lat="43.60986" lon="3.86327">
        <ele>47</ele>
        <time>2021-02-28T11:24:11Z</time>
      </trkpt>
      <trkpt lat="43.60987" lon="3.86322">
        <ele>47</ele>
        <time>2021-02-28T11:24:12Z</time>
      </trkpt>
      <trkpt lat="43.60987" lon="3.86317">
        <ele>47</ele>
        <time>2021-02-28T11:24:13Z</time>
      </trkpt>
      <trkpt lat="43.60988" lon="3.86313">
        <ele>47</ele>
        <time>2021-02-28T11:24:14Z</time>
      </trkpt>
      <trkpt lat="43.60988" lon="3.86309">
        <ele>47</ele>
        <time>2021-02-28T11:24:15Z</time>
      </trkpt>
      <trkpt lat="43.60989" lon="3.86304">
        <ele>47</ele>
        <time>2021-02-28T11:24:16Z</time>
      </trkpt>
      <trkpt lat="43.60989" lon="3.863">
        <ele>47</ele>
        <time>2021-02-28T11:24:17Z</time>
      </trkpt>
      <trkpt lat="43.60989" lon="3.86296">
        <ele>47</ele>
        <time>2021-02-28T11:24:18Z</time>
      </trkpt>
      <trkpt lat="43.6099" lon="3.86292">
        <ele>47</ele>
        <time>2021-02-28T11:24:19Z</time>
      </trkpt>
      <trkpt lat="43.6099" lon="3.86288">
        <ele>47</ele>
        <time>2021-02-28T11:24:20Z</time>
      </trkpt>
      <trkpt lat="43.60991" lon="3.86284">
        <ele>46</ele>
        <time>2021-02-28T11:24:21Z</time>
      </trkpt>
      <trkpt lat="43.60991" lon="3.8628">
        <ele>46</ele>
        <time>2021-02-28T11:24:22Z</time>
      </trkpt>
      <trkpt lat="43.60991" lon="3.86276">
        <ele>46</ele>
        <time>2021-02-28T11:24:23Z</time>
      </trkpt>
      <trkpt lat="43.60991" lon="3.86272">
        <ele>46</ele>
        <time>2021-02-28T11:24:24Z</time>
      </trkpt>
      <trkpt lat="43.60991" lon="3.86268">
        <ele>46</ele>
        <time>2021-02-28T11:24:25Z</time>
      </trkpt>
      <trkpt lat="43.60992" lon="3.86264">
        <ele>46</ele>
        <time>2021-02-28T11:24:26Z</time>
      </trkpt>
      <trkpt lat="43.60992" lon="3.86261">
        <ele>46</ele>
        <time>2021-02-28T11:24:27Z</time>
      </trkpt>
      <trkpt lat="43.60993" lon="3.86257">
        <ele>46</ele>
        <time>2021-02-28T11:24:28Z</time>
      </trkpt>
      <trkpt lat="43.60994" lon="3.86253">
        <ele>46</ele>
        <time>2021-02-28T11:24:29Z</time>
      </trkpt>
      <trkpt lat="43.60994" lon="3.86249">
        <ele>46</ele>
        <time>2021-02-28T11:24:30Z</time>
      </trkpt>
      <trkpt lat="43.60995" lon="3.86245">
        <ele>45</ele>
        <time>2021-02-28T11:24:31Z</time>
      </trkpt>
      <trkpt lat="43.60996" lon="3.86241">
        <ele>45</ele>
        <time>2021-02-28T11:24:32Z</time>
      </trkpt>
      <trkpt lat="43.60996" lon="3.86237">
        <ele>45</ele>
        <time>2021-02-28T11:24:33Z</time>
      </trkpt>
      <trkpt lat="43.60997" lon="3.86233">
        <ele>45</ele>
        <time>2021-02-28T11:24:34Z</time>
      </trkpt>
      <trkpt lat="43.60997" lon="3.86229">
        <ele>45</ele>
        <time>2021-02-28T11:24:35Z</time>
      </trkpt>
      <trkpt lat="43.60998" lon="3.86225">
        <ele>45</ele>
        <time>2021-02-28T11:24:36Z</time>
      </trkpt>
      <trkpt lat="43.60998" lon="3.86222">
        <ele>45</ele>
        <time>2021-02-28T11:24:37Z</time>
      </trkpt>
      <trkpt lat="43.60999" lon="3.86218">
        <ele>45</ele>
        <time>2021-02-28T11:24:38Z</time>
      </trkpt>
      <trkpt lat="43.60999" lon="3.86214">
        <ele>45</ele>
        <time>2021-02-28T11:24:39Z</time>
      </trkpt>
      <trkpt lat="43.61" lon="3.86211">
        <ele>45</ele>
        <time>2021-02-28T11:24:40Z</time>
      </trkpt>
      <trkpt lat="43.61" lon="3.86207">
        <ele>45</ele>
        <time>2021-02-28T11:24:41Z</time>
      </trkpt>
      <trkpt lat="43.61001" lon="3.86203">
        <ele>45</ele>
        <time>2021-02-28T11:24:42Z</time>
      </trkpt>
      <trkpt lat="43.61001" lon="3.86199">
        <ele>45</ele>
        <time>2021-02-28T11:24:43Z</time>
      </trkpt>
      <trkpt lat="43.61001" lon="3.86196">
        <ele>45</ele>
        <time>2021-02-28T11:24:44Z</time>
      </trkpt>
      <trkpt lat="43.61001" lon="3.86193">
        <ele>45</ele>
        <time>2021-02-28T11:24:45Z</time>
      </trkpt>
      <trkpt lat="43.61001" lon="3.86187">
        <ele>45</ele>
        <time>2021-02-28T11:24:46Z</time>
      </trkpt>
      <trkpt lat="43.61001" lon="3.86183">
        <ele>45</ele>
        <time>2021-02-28T11:24:47Z</time>
      </trkpt>
      <trkpt lat="43.61002" lon="3.86178">
        <ele>45</ele>
        <time>2021-02-28T11:24:48Z</time>
      </trkpt>
      <trkpt lat="43.61002" lon="3.86174">
        <ele>45</ele>
        <time>2021-02-28T11:24:49Z</time>
      </trkpt>
      <trkpt lat="43.61003" lon="3.8617">
        <ele>45</ele>
        <time>2021-02-28T11:24:50Z</time>
      </trkpt>
      <trkpt lat="43.61003" lon="3.86166">
        <ele>47</ele>
        <time>2021-02-28T11:24:51Z</time>
      </trkpt>
      <trkpt lat="43.61004" lon="3.86162">
        <ele>47</ele>
        <time>2021-02-28T11:24:52Z</time>
      </trkpt>
      <trkpt lat="43.61005" lon="3.86157">
        <ele>47</ele>
        <time>2021-02-28T11:24:53Z</time>
      </trkpt>
      <trkpt lat="43.61005" lon="3.86153">
        <ele>47</ele>
        <time>2021-02-28T11:24:54Z</time>
      </trkpt>
      <trkpt lat="43.61005" lon="3.86149">
        <ele>47</ele>
        <time>2021-02-28T11:24:55Z</time>
      </trkpt>
      <trkpt lat="43.61005" lon="3.86145">
        <ele>47</ele>
        <time>2021-02-28T11:24:56Z</time>
      </trkpt>
      <trkpt lat="43.61006" lon="3.86141">
        <ele>47</ele>
        <time>2021-02-28T11:24:57Z</time>
      </trkpt>
      <trkpt lat="43.61006" lon="3.86137">
        <ele>47</ele>
        <time>2021-02-28T11:24:58Z</time>
      </trkpt>
      <trkpt lat="43.61007" lon="3.86133">
        <ele>47</ele>
        <time>2021-02-28T11:24:59Z</time>
      </trkpt>
      <trkpt lat="43.61008" lon="3.86129">
        <ele>47</ele>
        <time>2021-02-28T11:25:00Z</time>
      </trkpt>
      <trkpt lat="43.61009" lon="3.86124">
        <ele>51</ele>
        <time>2021-02-28T11:25:01Z</time>
      </trkpt>
      <trkpt lat="43.61009" lon="3.8612">
        <ele>51</ele>
        <time>2021-02-28T11:25:02Z</time>
      </trkpt>
      <trkpt lat="43.6101" lon="3.86117">
        <ele>51</ele>
        <time>2021-02-28T11:25:03Z</time>
      </trkpt>
      <trkpt lat="43.61011" lon="3.86113">
        <ele>51</ele>
        <time>2021-02-28T11:25:04Z</time>
      </trkpt>
      <trkpt lat="43.61012" lon="3.86109">
        <ele>51</ele>
        <time>2021-02-28T11:25:05Z</time>
      </trkpt>
      <trkpt lat="43.61012" lon="3.86105">
        <ele>51</ele>
        <time>2021-02-28T11:25:06Z</time>
      </trkpt>
      <trkpt lat="43.61012" lon="3.86101">
        <ele>51</ele>
        <time>2021-02-28T11:25:07Z</time>
      </trkpt>
      <trkpt lat="43.61013" lon="3.86097">
        <ele>51</ele>
        <time>2021-02-28T11:25:08Z</time>
      </trkpt>
      <trkpt lat="43.61013" lon="3.86093">
        <ele>51</ele>
        <time>2021-02-28T11:25:09Z</time>
      </trkpt>
      <trkpt lat="43.61014" lon="3.86089">
        <ele>51</ele>
        <time>2021-02-28T11:25:10Z</time>
      </trkpt>
      <trkpt lat="43.61014" lon="3.86084">
        <ele>52</ele>
        <time>2021-02-28T11:25:11Z</time>
      </trkpt>
      <trkpt lat="43.61014" lon="3.8608">
        <ele>52</ele>
        <time>2021-02-28T11:25:12Z</time>
      </trkpt>
      <trkpt lat="43.61014" lon="3.86076">
        <ele>52</ele>
        <time>2021-02-28T11:25:13Z</time>
      </trkpt>
      <trkpt lat="43.61014" lon="3.86072">
        <ele>52</ele>
        <time>2021-02-28T11:25:14Z</time>
      </trkpt>
      <trkpt lat="43.61015" lon="3.86068">
        <ele>52</ele>
        <time>2021-02-28T11:25:15Z</time>
      </trkpt>
      <trkpt lat="43.61015" lon="3.86064">
        <ele>52</ele>
        <time>2021-02-28T11:25:16Z</time>
      </trkpt>
      <trkpt lat="43.61016" lon="3.8606">
        <ele>52</ele>
        <time>2021-02-28T11:25:17Z</time>
      </trkpt>
      <trkpt lat="43.61016" lon="3.86056">
        <ele>52</ele>
        <time>2021-02-28T11:25:18Z</time>
      </trkpt>
      <trkpt lat="43.61016" lon="3.86052">
        <ele>52</ele>
        <time>2021-02-28T11:25:19Z</time>
      </trkpt>
      <trkpt lat="43.61016" lon="3.86048">
        <ele>52</ele>
        <time>2021-02-28T11:25:20Z</time>
      </trkpt>
      <trkpt lat="43.61017" lon="3.86044">
        <ele>53</ele>
        <time>2021-02-28T11:25:21Z</time>
      </trkpt>
      <trkpt lat="43.61017" lon="3.86039">
        <ele>53</ele>
        <time>2021-02-28T11:25:22Z</time>
      </trkpt>
      <trkpt lat="43.61017" lon="3.86035">
        <ele>53</ele>
        <time>2021-02-28T11:25:23Z</time>
      </trkpt>
      <trkpt lat="43.61017" lon="3.8603">
        <ele>53</ele>
        <time>2021-02-28T11:25:24Z</time>
      </trkpt>
      <trkpt lat="43.61018" lon="3.86026">
        <ele>53</ele>
        <time>2021-02-28T11:25:25Z</time>
      </trkpt>
      <trkpt lat="43.61018" lon="3.86022">
        <ele>53</ele>
        <time>2021-02-28T11:25:26Z</time>
      </trkpt>
      <trkpt lat="43.61018" lon="3.86018">
        <ele>53</ele>
        <time>2021-02-28T11:25:27Z</time>
      </trkpt>
      <trkpt lat="43.61019" lon="3.86015">
        <ele>53</ele>
        <time>2021-02-28T11:25:28Z</time>
      </trkpt>
      <trkpt lat="43.6102" lon="3.86011">
        <ele>53</ele>
        <time>2021-02-28T11:25:29Z</time>
      </trkpt>
      <trkpt lat="43.6102" lon="3.86007">
        <ele>53</ele>
        <time>2021-02-28T11:25:30Z</time>
      </trkpt>
      <trkpt lat="43.61021" lon="3.86003">
        <ele>55</ele>
        <time>2021-02-28T11:25:31Z</time>
      </trkpt>
      <trkpt lat="43.61022" lon="3.85999">
        <ele>55</ele>
        <time>2021-02-28T11:25:32Z</time>
      </trkpt>
      <trkpt lat="43.61023" lon="3.85995">
        <ele>55</ele>
        <time>2021-02-28T11:25:33Z</time>
      </trkpt>
      <trkpt lat="43.61024" lon="3.85991">
        <ele>55</ele>
        <time>2021-02-28T11:25:34Z</time>
      </trkpt>
      <trkpt lat="43.61025" lon="3.85987">
        <ele>55</ele>
        <time>2021-02-28T11:25:35Z</time>
      </trkpt>
      <trkpt lat="43.61025" lon="3.85983">
        <ele>55</ele>
        <time>2021-02-28T11:25:36Z</time>
      </trkpt>
      <trkpt lat="43.61026" lon="3.85979">
        <ele>55</ele>
        <time>2021-02-28T11:25:37Z</time>
      </trkpt>
      <trkpt lat="43.61027" lon="3.85975">
        <ele>55</ele>
        <time>2021-02-28T11:25:38Z</time>
      </trkpt>
      <trkpt lat="43.61027" lon="3.8597">
        <ele>55</ele>
        <time>2021-02-28T11:25:39Z</time>
      </trkpt>
      <trkpt lat="43.61028" lon="3.85966">
        <ele>55</ele>
        <time>2021-02-28T11:25:40Z</time>
      </trkpt>
      <trkpt lat="43.61029" lon="3.85962">
        <ele>56</ele>
        <time>2021-02-28T11:25:41Z</time>
      </trkpt>
      <trkpt lat="43.61029" lon="3.85958">
        <ele>56</ele>
        <time>2021-02-28T11:25:42Z</time>
      </trkpt>
      <trkpt lat="43.6103" lon="3.85954">
        <ele>56</ele>
        <time>2021-02-28T11:25:43Z</time>
      </trkpt>
      <trkpt lat="43.61031" lon="3.8595">
        <ele>56</ele>
        <time>2021-02-28T11:25:44Z</time>
      </trkpt>
      <trkpt lat="43.61032" lon="3.85946">
        <ele>56</ele>
        <time>2021-02-28T11:25:45Z</time>
      </trkpt>
      <trkpt lat="43.61033" lon="3.85942">
        <ele>56</ele>
        <time>2021-02-28T11:25:46Z</time>
      </trkpt>
      <trkpt lat="43.61034" lon="3.85938">
        <ele>56</ele>
        <time>2021-02-28T11:25:47Z</time>
      </trkpt>
      <trkpt lat="43.61034" lon="3.85934">
        <ele>56</ele>
        <time>2021-02-28T11:25:48Z</time>
      </trkpt>
      <trkpt lat="43.61035" lon="3.8593">
        <ele>56</ele>
        <time>2021-02-28T11:25:49Z</time>
      </trkpt>
      <trkpt lat="43.61035" lon="3.85925">
        <ele>56</ele>
        <time>2021-02-28T11:25:50Z</time>
      </trkpt>
      <trkpt lat="43.61036" lon="3.85921">
        <ele>57</ele>
        <time>2021-02-28T11:25:51Z</time>
      </trkpt>
      <trkpt lat="43.61037" lon="3.85917">
        <ele>57</ele>
        <time>2021-02-28T11:25:52Z</time>
      </trkpt>
      <trkpt lat="43.61038" lon="3.85912">
        <ele>57</ele>
        <time>2021-02-28T11:25:53Z</time>
      </trkpt>
      <trkpt lat="43.61039" lon="3.85908">
        <ele>57</ele>
        <time>2021-02-28T11:25:54Z</time>
      </trkpt>
      <trkpt lat="43.6104" lon="3.85904">
        <ele>57</ele>
        <time>2021-02-28T11:25:55Z</time>
      </trkpt>
      <trkpt lat="43.6104" lon="3.859">
        <ele>57</ele>
        <time>2021-02-28T11:25:56Z</time>
      </trkpt>
      <trkpt lat="43.61041" lon="3.85896">
        <ele>57</ele>
        <time>2021-02-28T11:25:57Z</time>
      </trkpt>
      <trkpt lat="43.61042" lon="3.85893">
        <ele>57</ele>
        <time>2021-02-28T11:25:58Z</time>
      </trkpt>
      <trkpt lat="43.61043" lon="3.85889">
        <ele>57</ele>
        <time>2021-02-28T11:25:59Z</time>
      </trkpt>
      <trkpt lat="43.61044" lon="3.85885">
        <ele>57</ele>
        <time>2021-02-28T11:26:00Z</time>
      </trkpt>
      <trkpt lat="43.61045" lon="3.85881">
        <ele>58</ele>
        <time>2021-02-28T11:26:01Z</time>
      </trkpt>
      <trkpt lat="43.61046" lon="3.85877">
        <ele>58</ele>
        <time>2021-02-28T11:26:02Z</time>
      </trkpt>
      <trkpt lat="43.61047" lon="3.85873">
        <ele>58</ele>
        <time>2021-02-28T11:26:03Z</time>
      </trkpt>
      <trkpt lat="43.61047" lon="3.85869">
        <ele>58</ele>
        <time>2021-02-28T11:26:04Z</time>
      </trkpt>
      <trkpt lat="43.61048" lon="3.85865">
        <ele>58</ele>
        <time>2021-02-28T11:26:05Z</time>
      </trkpt>
      <trkpt lat="43.61049" lon="3.8586">
        <ele>58</ele>
        <time>2021-02-28T11:26:06Z</time>
      </trkpt>
      <trkpt lat="43.6105" lon="3.85856">
        <ele>58</ele>
        <time>2021-02-28T11:26:07Z</time>
      </trkpt>
      <trkpt lat="43.6105" lon="3.85852">
        <ele>58</ele>
        <time>2021-02-28T11:26:08Z</time>
      </trkpt>
      <trkpt lat="43.6105" lon="3.85847">
        <ele>58</ele>
        <time>2021-02-28T11:26:09Z</time>
      </trkpt>
      <trkpt lat="43.6105" lon="3.85843">
        <ele>58</ele>
        <time>2021-02-28T11:26:10Z</time>
      </trkpt>
      <trkpt lat="43.61049" lon="3.85838">
        <ele>58</ele>
        <time>2021-02-28T11:26:11Z</time>
      </trkpt>
      <trkpt lat="43.61048" lon="3.85833">
        <ele>59</ele>
        <time>2021-02-28T11:26:12Z</time>
      </trkpt>
      <trkpt lat="43.61047" lon="3.85828">
        <ele>59</ele>
        <time>2021-02-28T11:26:13Z</time>
      </trkpt>
      <trkpt lat="43.61047" lon="3.85823">
        <ele>59</ele>
        <time>2021-02-28T11:26:14Z</time>
      </trkpt>
      <trkpt lat="43.61047" lon="3.85818">
        <ele>59</ele>
        <time>2021-02-28T11:26:15Z</time>
      </trkpt>
      <trkpt lat="43.61048" lon="3.85813">
        <ele>59</ele>
        <time>2021-02-28T11:26:16Z</time>
      </trkpt>
      <trkpt lat="43.61049" lon="3.85808">
        <ele>59</ele>
        <time>2021-02-28T11:26:17Z</time>
      </trkpt>
      <trkpt lat="43.61049" lon="3.85802">
        <ele>59</ele>
        <time>2021-02-28T11:26:18Z</time>
      </trkpt>
      <trkpt lat="43.6105" lon="3.85797">
        <ele>59</ele>
        <time>2021-02-28T11:26:19Z</time>
      </trkpt>
      <trkpt lat="43.61051" lon="3.85791">
        <ele>59</ele>
        <time>2021-02-28T11:26:20Z</time>
      </trkpt>
      <trkpt lat="43.61051" lon="3.85786">
        <ele>61</ele>
        <time>2021-02-28T11:26:21Z</time>
      </trkpt>
      <trkpt lat="43.61052" lon="3.8578">
        <ele>61</ele>
        <time>2021-02-28T11:26:22Z</time>
      </trkpt>
      <trkpt lat="43.61052" lon="3.85774">
        <ele>61</ele>
        <time>2021-02-28T11:26:23Z</time>
      </trkpt>
      <trkpt lat="43.61052" lon="3.85768">
        <ele>61</ele>
        <time>2021-02-28T11:26:24Z</time>
      </trkpt>
      <trkpt lat="43.61052" lon="3.85762">
        <ele>61</ele>
        <time>2021-02-28T11:26:25Z</time>
      </trkpt>
      <trkpt lat="43.61051" lon="3.85755">
        <ele>61</ele>
        <time>2021-02-28T11:26:26Z</time>
      </trkpt>
      <trkpt lat="43.61051" lon="3.85749">
        <ele>61</ele>
        <time>2021-02-28T11:26:27Z</time>
      </trkpt>
      <trkpt lat="43.61051" lon="3.85742">
        <ele>61</ele>
        <time>2021-02-28T11:26:28Z</time>
      </trkpt>
      <trkpt lat="43.6105" lon="3.85735">
        <ele>61</ele>
        <time>2021-02-28T11:26:29Z</time>
      </trkpt>
      <trkpt lat="43.61048" lon="3.85728">
        <ele>61</ele>
        <time>2021-02-28T11:26:30Z</time>
      </trkpt>
      <trkpt lat="43.61047" lon="3.85721">
        <ele>62</ele>
        <time>2021-02-28T11:26:31Z</time>
      </trkpt>
      <trkpt lat="43.61046" lon="3.85714">
        <ele>62</ele>
        <time>2021-02-28T11:26:32Z</time>
      </trkpt>
      <trkpt lat="43.61044" lon="3.85707">
        <ele>62</ele>
        <time>2021-02-28T11:26:33Z</time>
      </trkpt>
      <trkpt lat="43.61043" lon="3.857">
        <ele>62</ele>
        <time>2021-02-28T11:26:34Z</time>
      </trkpt>
      <trkpt lat="43.61042" lon="3.85692">
        <ele>62</ele>
        <time>2021-02-28T11:26:35Z</time>
      </trkpt>
      <trkpt lat="43.61042" lon="3.85684">
        <ele>62</ele>
        <time>2021-02-28T11:26:36Z</time>
      </trkpt>
      <trkpt lat="43.61041" lon="3.85677">
        <ele>62</ele>
        <time>2021-02-28T11:26:37Z</time>
      </trkpt>
      <trkpt lat="43.61041" lon="3.85669">
        <ele>62</ele>
        <time>2021-02-28T11:26:38Z</time>
      </trkpt>
      <trkpt lat="43.6104" lon="3.85662">
        <ele>62</ele>
        <time>2021-02-28T11:26:39Z</time>
      </trkpt>
      <trkpt lat="43.61039" lon="3.85654">
        <ele>62</ele>
        <time>2021-02-28T11:26:40Z</time>
      </trkpt>
      <trkpt lat="43.61038" lon="3.85646">
        <ele>62</ele>
        <time>2021-02-28T11:26:41Z</time>
      </trkpt>
      <trkpt lat="43.61037" lon="3.85639">
        <ele>62</ele>
        <time>2021-02-28T11:26:42Z</time>
      </trkpt>
      <trkpt lat="43.61036" lon="3.85631">
        <ele>62</ele>
        <time>2021-02-28T11:26:43Z</time>
      </trkpt>
      <trkpt lat="43.61035" lon="3.85624">
        <ele>62</ele>
        <time>2021-02-28T11:26:44Z</time>
      </trkpt>
      <trkpt lat="43.61034" lon="3.85617">
        <ele>62</ele>
        <time>2021-02-28T11:26:45Z</time>
      </trkpt>
      <trkpt lat="43.61034" lon="3.85609">
        <ele>62</ele>
        <time>2021-02-28T11:26:46Z</time>
      </trkpt>
      <trkpt lat="43.61033" lon="3.85603">
        <ele>62</ele>
        <time>2021-02-28T11:26:47Z</time>
      </trkpt>
      <trkpt lat="43.61032" lon="3.85596">
        <ele>62</ele>
        <time>2021-02-28T11:26:48Z</time>
      </trkpt>
      <trkpt lat="43.61032" lon="3.85589">
        <ele>62</ele>
        <time>2021-02-28T11:26:49Z</time>
      </trkpt>
      <trkpt lat="43.61031" lon="3.85581">
        <ele>62</ele>
        <time>2021-02-28T11:26:50Z</time>
      </trkpt>
      <trkpt lat="43.61031" lon="3.85574">
        <ele>63</ele>
        <time>2021-02-28T11:26:51Z</time>
      </trkpt>
      <trkpt lat="43.6103" lon="3.85567">
        <ele>63</ele>
        <time>2021-02-28T11:26:52Z</time>
      </trkpt>
      <trkpt lat="43.61029" lon="3.8556">
        <ele>63</ele>
        <time>2021-02-28T11:26:53Z</time>
      </trkpt>
      <trkpt lat="43.61028" lon="3.85554">
        <ele>63</ele>
        <time>2021-02-28T11:26:54Z</time>
      </trkpt>
      <trkpt lat="43.61027" lon="3.85547">
        <ele>63</ele>
        <time>2021-02-28T11:26:55Z</time>
      </trkpt>
      <trkpt lat="43.61026" lon="3.8554">
        <ele>63</ele>
        <time>2021-02-28T11:26:56Z</time>
      </trkpt>
      <trkpt lat="43.61025" lon="3.85534">
        <ele>63</ele>
        <time>2021-02-28T11:26:57Z</time>
      </trkpt>
      <trkpt lat="43.61025" lon="3.85527">
        <ele>63</ele>
        <time>2021-02-28T11:26:58Z</time>
      </trkpt>
      <trkpt lat="43.61024" lon="3.85521">
        <ele>63</ele>
        <time>2021-02-28T11:26:59Z</time>
      </trkpt>
      <trkpt lat="43.61023" lon="3.85515">
        <ele>63</ele>
        <time>2021-02-28T11:27:00Z</time>
      </trkpt>
      <trkpt lat="43.61023" lon="3.85508">
        <ele>64</ele>
        <time>2021-02-28T11:27:01Z</time>
      </trkpt>
      <trkpt lat="43.61023" lon="3.85502">
        <ele>64</ele>
        <time>2021-02-28T11:27:02Z</time>
      </trkpt>
      <trkpt lat="43.61022" lon="3.85496">
        <ele>64</ele>
        <time>2021-02-28T11:27:03Z</time>
      </trkpt>
      <trkpt lat="43.61021" lon="3.8549">
        <ele>64</ele>
        <time>2021-02-28T11:27:04Z</time>
      </trkpt>
      <trkpt lat="43.6102" lon="3.85483">
        <ele>64</ele>
        <time>2021-02-28T11:27:05Z</time>
      </trkpt>
      <trkpt lat="43.6102" lon="3.85477">
        <ele>64</ele>
        <time>2021-02-28T11:27:06Z</time>
      </trkpt>
      <trkpt lat="43.61019" lon="3.8547">
        <ele>64</ele>
        <time>2021-02-28T11:27:07Z</time>
      </trkpt>
      <trkpt lat="43.61018" lon="3.85464">
        <ele>64</ele>
        <time>2021-02-28T11:27:08Z</time>
      </trkpt>
      <trkpt lat="43.61017" lon="3.85457">
        <ele>64</ele>
        <time>2021-02-28T11:27:09Z</time>
      </trkpt>
      <trkpt lat="43.61016" lon="3.85451">
        <ele>64</ele>
        <time>2021-02-28T11:27:10Z</time>
      </trkpt>
      <trkpt lat="43.61016" lon="3.85445">
        <ele>65</ele>
        <time>2021-02-28T11:27:11Z</time>
      </trkpt>
      <trkpt lat="43.61015" lon="3.85438">
        <ele>65</ele>
        <time>2021-02-28T11:27:12Z</time>
      </trkpt>
      <trkpt lat="43.61015" lon="3.85432">
        <ele>65</ele>
        <time>2021-02-28T11:27:13Z</time>
      </trkpt>
      <trkpt lat="43.61014" lon="3.85426">
        <ele>65</ele>
        <time>2021-02-28T11:27:14Z</time>
      </trkpt>
      <trkpt lat="43.61014" lon="3.8542">
        <ele>65</ele>
        <time>2021-02-28T11:27:15Z</time>
      </trkpt>
      <trkpt lat="43.61013" lon="3.85414">
        <ele>65</ele>
        <time>2021-02-28T11:27:16Z</time>
      </trkpt>
      <trkpt lat="43.61013" lon="3.85407">
        <ele>65</ele>
        <time>2021-02-28T11:27:17Z</time>
      </trkpt>
      <trkpt lat="43.61013" lon="3.85401">
        <ele>65</ele>
        <time>2021-02-28T11:27:18Z</time>
      </trkpt>
      <trkpt lat="43.61012" lon="3.85394">
        <ele>65</ele>
        <time>2021-02-28T11:27:19Z</time>
      </trkpt>
      <trkpt lat="43.61012" lon="3.85388">
        <ele>65</ele>
        <time>2021-02-28T11:27:20Z</time>
      </trkpt>
      <trkpt lat="43.61013" lon="3.85382">
        <ele>66</ele>
        <time>2021-02-28T11:27:21Z</time>
      </trkpt>
      <trkpt lat="43.61013" lon="3.85376">
        <ele>66</ele>
        <time>2021-02-28T11:27:22Z</time>
      </trkpt>
      <trkpt lat="43.61014" lon="3.85369">
        <ele>66</ele>
        <time>2021-02-28T11:27:23Z</time>
      </trkpt>
      <trkpt lat="43.61014" lon="3.85363">
        <ele>66</ele>
        <time>2021-02-28T11:27:24Z</time>
      </trkpt>
      <trkpt lat="43.61014" lon="3.85357">
        <ele>66</ele>
        <time>2021-02-28T11:27:25Z</time>
      </trkpt>
      <trkpt lat="43.61014" lon="3.85351">
        <ele>66</ele>
        <time>2021-02-28T11:27:26Z</time>
      </trkpt>
      <trkpt lat="43.61015" lon="3.85344">
        <ele>66</ele>
        <time>2021-02-28T11:27:27Z</time>
      </trkpt>
      <trkpt lat="43.61015" lon="3.85338">
        <ele>66</ele>
        <time>2021-02-28T11:27:28Z</time>
      </trkpt>
      <trkpt lat="43.61015" lon="3.85332">
        <ele>66</ele>
        <time>2021-02-28T11:27:29Z</time>
      </trkpt>
      <trkpt lat="43.61014" lon="3.85326">
        <ele>66</ele>
        <time>2021-02-28T11:27:30Z</time>
      </trkpt>
      <trkpt lat="43.61013" lon="3.85319">
        <ele>66</ele>
        <time>2021-02-28T11:27:31Z</time>
      </trkpt>
      <trkpt lat="43.61013" lon="3.85313">
        <ele>66</ele>
        <time>2021-02-28T11:27:32Z</time>
      </trkpt>
      <trkpt lat="43.61013" lon="3.85306">
        <ele>66</ele>
        <time>2021-02-28T11:27:33Z</time>
      </trkpt>
      <trkpt lat="43.61013" lon="3.85299">
        <ele>66</ele>
        <time>2021-02-28T11:27:34Z</time>
      </trkpt>
      <trkpt lat="43.61012" lon="3.85293">
        <ele>66</ele>
        <time>2021-02-28T11:27:35Z</time>
      </trkpt>
      <trkpt lat="43.61012" lon="3.85287">
        <ele>66</ele>
        <time>2021-02-28T11:27:36Z</time>
      </trkpt>
      <trkpt lat="43.61012" lon="3.8528">
        <ele>66</ele>
        <time>2021-02-28T11:27:37Z</time>
      </trkpt>
      <trkpt lat="43.61012" lon="3.85274">
        <ele>66</ele>
        <time>2021-02-28T11:27:38Z</time>
      </trkpt>
      <trkpt lat="43.61012" lon="3.85268">
        <ele>66</ele>
        <time>2021-02-28T11:27:39Z</time>
      </trkpt>
      <trkpt lat="43.61012" lon="3.85261">
        <ele>66</ele>
        <time>2021-02-28T11:27:40Z</time>
      </trkpt>
      <trkpt lat="43.61013" lon="3.85255">
        <ele>67</ele>
        <time>2021-02-28T11:27:41Z</time>
      </trkpt>
      <trkpt lat="43.61013" lon="3.85249">
        <ele>67</ele>
        <time>2021-02-28T11:27:42Z</time>
      </trkpt>
      <trkpt lat="43.61014" lon="3.85243">
        <ele>67</ele>
        <time>2021-02-28T11:27:43Z</time>
      </trkpt>
      <trkpt lat="43.61015" lon="3.85236">
        <ele>67</ele>
        <time>2021-02-28T11:27:44Z</time>
      </trkpt>
      <trkpt lat="43.61016" lon="3.8523">
        <ele>67</ele>
        <time>2021-02-28T11:27:45Z</time>
      </trkpt>
      <trkpt lat="43.61016" lon="3.85224">
        <ele>67</ele>
        <time>2021-02-28T11:27:46Z</time>
      </trkpt>
      <trkpt lat="43.61017" lon="3.85218">
        <ele>67</ele>
        <time>2021-02-28T11:27:47Z</time>
      </trkpt>
      <trkpt lat="43.61019" lon="3.85212">
        <ele>67</ele>
        <time>2021-02-28T11:27:48Z</time>
      </trkpt>
      <trkpt lat="43.61019" lon="3.85205">
        <ele>67</ele>
        <time>2021-02-28T11:27:49Z</time>
      </trkpt>
      <trkpt lat="43.6102" lon="3.85199">
        <ele>67</ele>
        <time>2021-02-28T11:27:50Z</time>
      </trkpt>
      <trkpt lat="43.61021" lon="3.85192">
        <ele>69</ele>
        <time>2021-02-28T11:27:51Z</time>
      </trkpt>
      <trkpt lat="43.61021" lon="3.85186">
        <ele>69</ele>
        <time>2021-02-28T11:27:52Z</time>
      </trkpt>
      <trkpt lat="43.61023" lon="3.8518">
        <ele>69</ele>
        <time>2021-02-28T11:27:53Z</time>
      </trkpt>
      <trkpt lat="43.61024" lon="3.85174">
        <ele>69</ele>
        <time>2021-02-28T11:27:54Z</time>
      </trkpt>
      <trkpt lat="43.61026" lon="3.85168">
        <ele>69</ele>
        <time>2021-02-28T11:27:55Z</time>
      </trkpt>
      <trkpt lat="43.61027" lon="3.85162">
        <ele>69</ele>
        <time>2021-02-28T11:27:56Z</time>
      </trkpt>
      <trkpt lat="43.61028" lon="3.85157">
        <ele>69</ele>
        <time>2021-02-28T11:27:57Z</time>
      </trkpt>
      <trkpt lat="43.61028" lon="3.85152">
        <ele>69</ele>
        <time>2021-02-28T11:27:58Z</time>
      </trkpt>
      <trkpt lat="43.61029" lon="3.85145">
        <ele>69</ele>
        <time>2021-02-28T11:27:59Z</time>
      </trkpt>
      <trkpt lat="43.61029" lon="3.85139">
        <ele>69</ele>
        <time>2021-02-28T11:28:00Z</time>
      </trkpt>
      <trkpt lat="43.61029" lon="3.85133">
        <ele>69</ele>
        <time>2021-02-28T11:28:01Z</time>
      </trkpt>
      <trkpt lat="43.61029" lon="3.85126">
        <ele>69</ele>
        <time>2021-02-28T11:28:02Z</time>
      </trkpt>
      <trkpt lat="43.6103" lon="3.8512">
        <ele>69</ele>
        <time>2021-02-28T11:28:03Z</time>
      </trkpt>
      <trkpt lat="43.6103" lon="3.85113">
        <ele>69</ele>
        <time>2021-02-28T11:28:04Z</time>
      </trkpt>
      <trkpt lat="43.61031" lon="3.85108">
        <ele>69</ele>
        <time>2021-02-28T11:28:05Z</time>
      </trkpt>
      <trkpt lat="43.61031" lon="3.85103">
        <ele>69</ele>
        <time>2021-02-28T11:28:06Z</time>
      </trkpt>
      <trkpt lat="43.61031" lon="3.851">
        <ele>69</ele>
        <time>2021-02-28T11:28:07Z</time>
      </trkpt>
      <trkpt lat="43.61031" lon="3.85097">
        <ele>69</ele>
        <time>2021-02-28T11:28:08Z</time>
      </trkpt>
      <trkpt lat="43.61031" lon="3.85092">
        <ele>69</ele>
        <time>2021-02-28T11:28:09Z</time>
      </trkpt>
      <trkpt lat="43.61032" lon="3.85088">
        <ele>69</ele>
        <time>2021-02-28T11:28:10Z</time>
      </trkpt>
      <trkpt lat="43.61032" lon="3.85083">
        <ele>69</ele>
        <time>2021-02-28T11:28:11Z</time>
      </trkpt>
      <trkpt lat="43.61033" lon="3.85077">
        <ele>69</ele>
        <time>2021-02-28T11:28:12Z</time>
      </trkpt>
      <trkpt lat="43.61034" lon="3.85071">
        <ele>69</ele>
        <time>2021-02-28T11:28:13Z</time>
      </trkpt>
      <trkpt lat="43.61035" lon="3.85065">
        <ele>69</ele>
        <time>2021-02-28T11:28:14Z</time>
      </trkpt>
      <trkpt lat="43.61035" lon="3.85058">
        <ele>69</ele>
        <time>2021-02-28T11:28:15Z</time>
      </trkpt>
      <trkpt lat="43.61036" lon="3.85052">
        <ele>69</ele>
        <time>2021-02-28T11:28:16Z</time>
      </trkpt>
      <trkpt lat="43.61036" lon="3.85046">
        <ele>69</ele>
        <time>2021-02-28T11:28:17Z</time>
      </trkpt>
      <trkpt lat="43.61037" lon="3.8504">
        <ele>69</ele>
        <time>2021-02-28T11:28:18Z</time>
      </trkpt>
      <trkpt lat="43.61037" lon="3.85034">
        <ele>69</ele>
        <time>2021-02-28T11:28:19Z</time>
      </trkpt>
      <trkpt lat="43.61038" lon="3.85028">
        <ele>69</ele>
        <time>2021-02-28T11:28:20Z</time>
      </trkpt>
      <trkpt lat="43.61039" lon="3.85021">
        <ele>69</ele>
        <time>2021-02-28T11:28:21Z</time>
      </trkpt>
      <trkpt lat="43.6104" lon="3.85015">
        <ele>69</ele>
        <time>2021-02-28T11:28:22Z</time>
      </trkpt>
      <trkpt lat="43.61041" lon="3.85009">
        <ele>69</ele>
        <time>2021-02-28T11:28:23Z</time>
      </trkpt>
      <trkpt lat="43.61042" lon="3.85003">
        <ele>69</ele>
        <time>2021-02-28T11:28:24Z</time>
      </trkpt>
      <trkpt lat="43.61043" lon="3.84997">
        <ele>69</ele>
        <time>2021-02-28T11:28:25Z</time>
      </trkpt>
      <trkpt lat="43.61044" lon="3.84991">
        <ele>69</ele>
        <time>2021-02-28T11:28:26Z</time>
      </trkpt>
      <trkpt lat="43.61044" lon="3.84986">
        <ele>69</ele>
        <time>2021-02-28T11:28:27Z</time>
      </trkpt>
      <trkpt lat="43.61043" lon="3.84981">
        <ele>69</ele>
        <time>2021-02-28T11:28:28Z</time>
      </trkpt>
      <trkpt lat="43.61041" lon="3.84978">
        <ele>69</ele>
        <time>2021-02-28T11:28:29Z</time>
      </trkpt>
      <trkpt lat="43.61038" lon="3.84975">
        <ele>69</ele>
        <time>2021-02-28T11:28:30Z</time>
      </trkpt>
      <trkpt lat="43.61035" lon="3.84973">
        <ele>70</ele>
        <time>2021-02-28T11:28:31Z</time>
      </trkpt>
      <trkpt lat="43.61031" lon="3.84971">
        <ele>70</ele>
        <time>2021-02-28T11:28:32Z</time>
      </trkpt>
      <trkpt lat="43.61027" lon="3.84968">
        <ele>70</ele>
        <time>2021-02-28T11:28:33Z</time>
      </trkpt>
      <trkpt lat="43.61023" lon="3.84966">
        <ele>70</ele>
        <time>2021-02-28T11:28:34Z</time>
      </trkpt>
      <trkpt lat="43.61018" lon="3.84962">
        <ele>70</ele>
        <time>2021-02-28T11:28:35Z</time>
      </trkpt>
      <trkpt lat="43.61014" lon="3.84959">
        <ele>70</ele>
        <time>2021-02-28T11:28:36Z</time>
      </trkpt>
      <trkpt lat="43.61009" lon="3.84956">
        <ele>70</ele>
        <time>2021-02-28T11:28:37Z</time>
      </trkpt>
      <trkpt lat="43.61005" lon="3.84953">
        <ele>70</ele>
        <time>2021-02-28T11:28:38Z</time>
      </trkpt>
      <trkpt lat="43.61002" lon="3.8495">
        <ele>70</ele>
        <time>2021-02-28T11:28:39Z</time>
      </trkpt>
      <trkpt lat="43.60998" lon="3.84947">
        <ele>70</ele>
        <time>2021-02-28T11:28:40Z</time>
      </trkpt>
      <trkpt lat="43.60995" lon="3.84944">
        <ele>69</ele>
        <time>2021-02-28T11:28:41Z</time>
      </trkpt>
      <trkpt lat="43.6099" lon="3.84941">
        <ele>69</ele>
        <time>2021-02-28T11:28:42Z</time>
      </trkpt>
      <trkpt lat="43.60986" lon="3.84938">
        <ele>69</ele>
        <time>2021-02-28T11:28:43Z</time>
      </trkpt>
      <trkpt lat="43.60982" lon="3.84935">
        <ele>69</ele>
        <time>2021-02-28T11:28:44Z</time>
      </trkpt>
      <trkpt lat="43.60979" lon="3.84932">
        <ele>69</ele>
        <time>2021-02-28T11:28:45Z</time>
      </trkpt>
      <trkpt lat="43.60975" lon="3.84928">
        <ele>69</ele>
        <time>2021-02-28T11:28:46Z</time>
      </trkpt>
      <trkpt lat="43.60972" lon="3.84923">
        <ele>69</ele>
        <time>2021-02-28T11:28:47Z</time>
      </trkpt>
      <trkpt lat="43.60968" lon="3.84918">
        <ele>69</ele>
        <time>2021-02-28T11:28:48Z</time>
      </trkpt>
      <trkpt lat="43.60965" lon="3.84913">
        <ele>69</ele>
        <time>2021-02-28T11:28:49Z</time>
      </trkpt>
      <trkpt lat="43.60962" lon="3.84907">
        <ele>69</ele>
        <time>2021-02-28T11:28:50Z</time>
      </trkpt>
      <trkpt lat="43.60959" lon="3.849">
        <ele>69</ele>
        <time>2021-02-28T11:28:51Z</time>
      </trkpt>
      <trkpt lat="43.60956" lon="3.84893">
        <ele>69</ele>
        <time>2021-02-28T11:28:52Z</time>
      </trkpt>
      <trkpt lat="43.60953" lon="3.84887">
        <ele>69</ele>
        <time>2021-02-28T11:28:53Z</time>
      </trkpt>
      <trkpt lat="43.6095" lon="3.8488">
        <ele>69</ele>
        <time>2021-02-28T11:28:54Z</time>
      </trkpt>
      <trkpt lat="43.60947" lon="3.84874">
        <ele>69</ele>
        <time>2021-02-28T11:28:55Z</time>
      </trkpt>
      <trkpt lat="43.60945" lon="3.84868">
        <ele>69</ele>
        <time>2021-02-28T11:28:56Z</time>
      </trkpt>
      <trkpt lat="43.60942" lon="3.84861">
        <ele>69</ele>
        <time>2021-02-28T11:28:57Z</time>
      </trkpt>
      <trkpt lat="43.60939" lon="3.84855">
        <ele>69</ele>
        <time>2021-02-28T11:28:58Z</time>
      </trkpt>
      <trkpt lat="43.60936" lon="3.84849">
        <ele>69</ele>
        <time>2021-02-28T11:28:59Z</time>
      </trkpt>
      <trkpt lat="43.60933" lon="3.84843">
        <ele>69</ele>
        <time>2021-02-28T11:29:00Z</time>
      </trkpt>
      <trkpt lat="43.6093" lon="3.84836">
        <ele>72</ele>
        <time>2021-02-28T11:29:01Z</time>
      </trkpt>
      <trkpt lat="43.60926" lon="3.84831">
        <ele>72</ele>
        <time>2021-02-28T11:29:02Z</time>
      </trkpt>
      <trkpt lat="43.60922" lon="3.84825">
        <ele>72</ele>
        <time>2021-02-28T11:29:03Z</time>
      </trkpt>
      <trkpt lat="43.60918" lon="3.8482">
        <ele>72</ele>
        <time>2021-02-28T11:29:04Z</time>
      </trkpt>
      <trkpt lat="43.60914" lon="3.84815">
        <ele>72</ele>
        <time>2021-02-28T11:29:05Z</time>
      </trkpt>
      <trkpt lat="43.60911" lon="3.8481">
        <ele>72</ele>
        <time>2021-02-28T11:29:06Z</time>
      </trkpt>
      <trkpt lat="43.60907" lon="3.84805">
        <ele>72</ele>
        <time>2021-02-28T11:29:07Z</time>
      </trkpt>
      <trkpt lat="43.60903" lon="3.848">
        <ele>72</ele>
        <time>2021-02-28T11:29:08Z</time>
      </trkpt>
      <trkpt lat="43.609" lon="3.84794">
        <ele>72</ele>
        <time>2021-02-28T11:29:09Z</time>
      </trkpt>
      <trkpt lat="43.60897" lon="3.84788">
        <ele>72</ele>
        <time>2021-02-28T11:29:10Z</time>
      </trkpt>
      <trkpt lat="43.60895" lon="3.84782">
        <ele>72</ele>
        <time>2021-02-28T11:29:11Z</time>
      </trkpt>
      <trkpt lat="43.60894" lon="3.84775">
        <ele>72</ele>
        <time>2021-02-28T11:29:12Z</time>
      </trkpt>
      <trkpt lat="43.60893" lon="3.84769">
        <ele>72</ele>
        <time>2021-02-28T11:29:13Z</time>
      </trkpt>
      <trkpt lat="43.60891" lon="3.84763">
        <ele>72</ele>
        <time>2021-02-28T11:29:14Z</time>
      </trkpt>
      <trkpt lat="43.60889" lon="3.84758">
        <ele>72</ele>
        <time>2021-02-28T11:29:15Z</time>
      </trkpt>
      <trkpt lat="43.60887" lon="3.84753">
        <ele>72</ele>
        <time>2021-02-28T11:29:16Z</time>
      </trkpt>
      <trkpt lat="43.60886" lon="3.84748">
        <ele>72</ele>
        <time>2021-02-28T11:29:17Z</time>
      </trkpt>
      <trkpt lat="43.60886" lon="3.84741">
        <ele>72</ele>
        <time>2021-02-28T11:29:18Z</time>
      </trkpt>
      <trkpt lat="43.60886" lon="3.84734">
        <ele>72</ele>
        <time>2021-02-28T11:29:19Z</time>
      </trkpt>
      <trkpt lat="43.60886" lon="3.84727">
        <ele>72</ele>
        <time>2021-02-28T11:29:20Z</time>
      </trkpt>
      <trkpt lat="43.60886" lon="3.84719">
        <ele>72</ele>
        <time>2021-02-28T11:29:21Z</time>
      </trkpt>
      <trkpt lat="43.60887" lon="3.84712">
        <ele>72</ele>
        <time>2021-02-28T11:29:22Z</time>
      </trkpt>
      <trkpt lat="43.60887" lon="3.84704">
        <ele>72</ele>
        <time>2021-02-28T11:29:23Z</time>
      </trkpt>
      <trkpt lat="43.60887" lon="3.84697">
        <ele>72</ele>
        <time>2021-02-28T11:29:24Z</time>
      </trkpt>
      <trkpt lat="43.60888" lon="3.84689">
        <ele>72</ele>
        <time>2021-02-28T11:29:25Z</time>
      </trkpt>
      <trkpt lat="43.60888" lon="3.8468">
        <ele>72</ele>
        <time>2021-02-28T11:29:26Z</time>
      </trkpt>
      <trkpt lat="43.60888" lon="3.84672">
        <ele>72</ele>
        <time>2021-02-28T11:29:27Z</time>
      </trkpt>
      <trkpt lat="43.60889" lon="3.84664">
        <ele>72</ele>
        <time>2021-02-28T11:29:28Z</time>
      </trkpt>
      <trkpt lat="43.60889" lon="3.84655">
        <ele>72</ele>
        <time>2021-02-28T11:29:29Z</time>
      </trkpt>
      <trkpt lat="43.60889" lon="3.84646">
        <ele>72</ele>
        <time>2021-02-28T11:29:30Z</time>
      </trkpt>
      <trkpt lat="43.60889" lon="3.84637">
        <ele>72</ele>
        <time>2021-02-28T11:29:31Z</time>
      </trkpt>
      <trkpt lat="43.6089" lon="3.84628">
        <ele>70</ele>
        <time>2021-02-28T11:29:32Z</time>
      </trkpt>
      <trkpt lat="43.60891" lon="3.84619">
        <ele>70</ele>
        <time>2021-02-28T11:29:33Z</time>
      </trkpt>
      <trkpt lat="43.60892" lon="3.8461">
        <ele>70</ele>
        <time>2021-02-28T11:29:34Z</time>
      </trkpt>
      <trkpt lat="43.60894" lon="3.84601">
        <ele>70</ele>
        <time>2021-02-28T11:29:35Z</time>
      </trkpt>
      <trkpt lat="43.60896" lon="3.84592">
        <ele>70</ele>
        <time>2021-02-28T11:29:36Z</time>
      </trkpt>
      <trkpt lat="43.60897" lon="3.84583">
        <ele>70</ele>
        <time>2021-02-28T11:29:37Z</time>
      </trkpt>
      <trkpt lat="43.60897" lon="3.84574">
        <ele>70</ele>
        <time>2021-02-28T11:29:38Z</time>
      </trkpt>
      <trkpt lat="43.60897" lon="3.84564">
        <ele>70</ele>
        <time>2021-02-28T11:29:39Z</time>
      </trkpt>
      <trkpt lat="43.60897" lon="3.84555">
        <ele>70</ele>
        <time>2021-02-28T11:29:40Z</time>
      </trkpt>
      <trkpt lat="43.60897" lon="3.84545">
        <ele>68</ele>
        <time>2021-02-28T11:29:41Z</time>
      </trkpt>
      <trkpt lat="43.60896" lon="3.84535">
        <ele>68</ele>
        <time>2021-02-28T11:29:42Z</time>
      </trkpt>
      <trkpt lat="43.60896" lon="3.84525">
        <ele>68</ele>
        <time>2021-02-28T11:29:43Z</time>
      </trkpt>
      <trkpt lat="43.60895" lon="3.84515">
        <ele>68</ele>
        <time>2021-02-28T11:29:44Z</time>
      </trkpt>
      <trkpt lat="43.60895" lon="3.84505">
        <ele>68</ele>
        <time>2021-02-28T11:29:45Z</time>
      </trkpt>
      <trkpt lat="43.60894" lon="3.84494">
        <ele>68</ele>
        <time>2021-02-28T11:29:46Z</time>
      </trkpt>
      <trkpt lat="43.60893" lon="3.84483">
        <ele>68</ele>
        <time>2021-02-28T11:29:47Z</time>
      </trkpt>
      <trkpt lat="43.60894" lon="3.84472">
        <ele>68</ele>
        <time>2021-02-28T11:29:48Z</time>
      </trkpt>
      <trkpt lat="43.60894" lon="3.84462">
        <ele>68</ele>
        <time>2021-02-28T11:29:49Z</time>
      </trkpt>
      <trkpt lat="43.60895" lon="3.84451">
        <ele>68</ele>
        <time>2021-02-28T11:29:50Z</time>
      </trkpt>
      <trkpt lat="43.60896" lon="3.8444">
        <ele>66</ele>
        <time>2021-02-28T11:29:51Z</time>
      </trkpt>
      <trkpt lat="43.60897" lon="3.84429">
        <ele>66</ele>
        <time>2021-02-28T11:29:52Z</time>
      </trkpt>
      <trkpt lat="43.60898" lon="3.84418">
        <ele>66</ele>
        <time>2021-02-28T11:29:53Z</time>
      </trkpt>
      <trkpt lat="43.60898" lon="3.84406">
        <ele>66</ele>
        <time>2021-02-28T11:29:54Z</time>
      </trkpt>
      <trkpt lat="43.60898" lon="3.84395">
        <ele>66</ele>
        <time>2021-02-28T11:29:55Z</time>
      </trkpt>
      <trkpt lat="43.60898" lon="3.84383">
        <ele>66</ele>
        <time>2021-02-28T11:29:56Z</time>
      </trkpt>
      <trkpt lat="43.60897" lon="3.84372">
        <ele>66</ele>
        <time>2021-02-28T11:29:57Z</time>
      </trkpt>
      <trkpt lat="43.60897" lon="3.8436">
        <ele>66</ele>
        <time>2021-02-28T11:29:58Z</time>
      </trkpt>
      <trkpt lat="43.60897" lon="3.84348">
        <ele>66</ele>
        <time>2021-02-28T11:29:59Z</time>
      </trkpt>
      <trkpt lat="43.60897" lon="3.84337">
        <ele>66</ele>
        <time>2021-02-28T11:30:00Z</time>
      </trkpt>
      <trkpt lat="43.60899" lon="3.84326">
        <ele>63</ele>
        <time>2021-02-28T11:30:01Z</time>
      </trkpt>
      <trkpt lat="43.609" lon="3.84315">
        <ele>63</ele>
        <time>2021-02-28T11:30:02Z</time>
      </trkpt>
      <trkpt lat="43.60901" lon="3.84304">
        <ele>63</ele>
        <time>2021-02-28T11:30:03Z</time>
      </trkpt>
      <trkpt lat="43.60902" lon="3.84294">
        <ele>63</ele>
        <time>2021-02-28T11:30:04Z</time>
      </trkpt>
      <trkpt lat="43.60902" lon="3.84283">
        <ele>63</ele>
        <time>2021-02-28T11:30:05Z</time>
      </trkpt>
      <trkpt lat="43.60902" lon="3.84272">
        <ele>63</ele>
        <time>2021-02-28T11:30:06Z</time>
      </trkpt>
      <trkpt lat="43.60902" lon="3.84262">
        <ele>63</ele>
        <time>2021-02-28T11:30:07Z</time>
      </trkpt>
      <trkpt lat="43.60902" lon="3.84251">
        <ele>63</ele>
        <time>2021-02-28T11:30:08Z</time>
      </trkpt>
      <trkpt lat="43.60901" lon="3.8424">
        <ele>63</ele>
        <time>2021-02-28T11:30:09Z</time>
      </trkpt>
      <trkpt lat="43.609" lon="3.8423">
        <ele>63</ele>
        <time>2021-02-28T11:30:10Z</time>
      </trkpt>
      <trkpt lat="43.609" lon="3.84219">
        <ele>62</ele>
        <time>2021-02-28T11:30:11Z</time>
      </trkpt>
      <trkpt lat="43.609" lon="3.84209">
        <ele>62</ele>
        <time>2021-02-28T11:30:12Z</time>
      </trkpt>
      <trkpt lat="43.60899" lon="3.84199">
        <ele>62</ele>
        <time>2021-02-28T11:30:13Z</time>
      </trkpt>
      <trkpt lat="43.60899" lon="3.84189">
        <ele>62</ele>
        <time>2021-02-28T11:30:14Z</time>
      </trkpt>
      <trkpt lat="43.60899" lon="3.84179">
        <ele>62</ele>
        <time>2021-02-28T11:30:15Z</time>
      </trkpt>
      <trkpt lat="43.60899" lon="3.84169">
        <ele>62</ele>
        <time>2021-02-28T11:30:16Z</time>
      </trkpt>
      <trkpt lat="43.60899" lon="3.84159">
        <ele>62</ele>
        <time>2021-02-28T11:30:17Z</time>
      </trkpt>
      <trkpt lat="43.60901" lon="3.84149">
        <ele>62</ele>
        <time>2021-02-28T11:30:18Z</time>
      </trkpt>
      <trkpt lat="43.60903" lon="3.8414">
        <ele>62</ele>
        <time>2021-02-28T11:30:19Z</time>
      </trkpt>
      <trkpt lat="43.60905" lon="3.8413">
        <ele>62</ele>
        <time>2021-02-28T11:30:20Z</time>
      </trkpt>
      <trkpt lat="43.60907" lon="3.84121">
        <ele>61</ele>
        <time>2021-02-28T11:30:21Z</time>
      </trkpt>
      <trkpt lat="43.6091" lon="3.84112">
        <ele>61</ele>
        <time>2021-02-28T11:30:22Z</time>
      </trkpt>
      <trkpt lat="43.60912" lon="3.84103">
        <ele>61</ele>
        <time>2021-02-28T11:30:23Z</time>
      </trkpt>
      <trkpt lat="43.60914" lon="3.84094">
        <ele>61</ele>
        <time>2021-02-28T11:30:24Z</time>
      </trkpt>
      <trkpt lat="43.60917" lon="3.84084">
        <ele>61</ele>
        <time>2021-02-28T11:30:25Z</time>
      </trkpt>
      <trkpt lat="43.60919" lon="3.84075">
        <ele>61</ele>
        <time>2021-02-28T11:30:26Z</time>
      </trkpt>
      <trkpt lat="43.60921" lon="3.84066">
        <ele>61</ele>
        <time>2021-02-28T11:30:27Z</time>
      </trkpt>
      <trkpt lat="43.60923" lon="3.84057">
        <ele>61</ele>
        <time>2021-02-28T11:30:28Z</time>
      </trkpt>
      <trkpt lat="43.60926" lon="3.84048">
        <ele>61</ele>
        <time>2021-02-28T11:30:29Z</time>
      </trkpt>
      <trkpt lat="43.60929" lon="3.8404">
        <ele>61</ele>
        <time>2021-02-28T11:30:30Z</time>
      </trkpt>
      <trkpt lat="43.60932" lon="3.84034">
        <ele>60</ele>
        <time>2021-02-28T11:30:31Z</time>
      </trkpt>
      <trkpt lat="43.60935" lon="3.84029">
        <ele>60</ele>
        <time>2021-02-28T11:30:32Z</time>
      </trkpt>
      <trkpt lat="43.60936" lon="3.84027">
        <ele>60</ele>
        <time>2021-02-28T11:30:33Z</time>
      </trkpt>
      <trkpt lat="43.60937" lon="3.84024">
        <ele>60</ele>
        <time>2021-02-28T11:30:34Z</time>
      </trkpt>
      <trkpt lat="43.60937" lon="3.84022">
        <ele>60</ele>
        <time>2021-02-28T11:30:35Z</time>
      </trkpt>
      <trkpt lat="43.60936" lon="3.84018">
        <ele>60</ele>
        <time>2021-02-28T11:30:36Z</time>
      </trkpt>
      <trkpt lat="43.60936" lon="3.84014">
        <ele>60</ele>
        <time>2021-02-28T11:30:37Z</time>
      </trkpt>
      <trkpt lat="43.60936" lon="3.8401">
        <ele>60</ele>
        <time>2021-02-28T11:30:38Z</time>
      </trkpt>
      <trkpt lat="43.60936" lon="3.84004">
        <ele>60</ele>
        <time>2021-02-28T11:30:39Z</time>
      </trkpt>
      <trkpt lat="43.60936" lon="3.83999">
        <ele>60</ele>
        <time>2021-02-28T11:30:40Z</time>
      </trkpt>
      <trkpt lat="43.60936" lon="3.83993">
        <ele>60</ele>
        <time>2021-02-28T11:30:41Z</time>
      </trkpt>
      <trkpt lat="43.60936" lon="3.83987">
        <ele>60</ele>
        <time>2021-02-28T11:30:42Z</time>
      </trkpt>
      <trkpt lat="43.60936" lon="3.83981">
        <ele>60</ele>
        <time>2021-02-28T11:30:43Z</time>
      </trkpt>
      <trkpt lat="43.60938" lon="3.83975">
        <ele>60</ele>
        <time>2021-02-28T11:30:44Z</time>
      </trkpt>
      <trkpt lat="43.60939" lon="3.83969">
        <ele>60</ele>
        <time>2021-02-28T11:30:45Z</time>
      </trkpt>
      <trkpt lat="43.6094" lon="3.83962">
        <ele>60</ele>
        <time>2021-02-28T11:30:46Z</time>
      </trkpt>
      <trkpt lat="43.60941" lon="3.83956">
        <ele>60</ele>
        <time>2021-02-28T11:30:47Z</time>
      </trkpt>
      <trkpt lat="43.60941" lon="3.83949">
        <ele>60</ele>
        <time>2021-02-28T11:30:48Z</time>
      </trkpt>
      <trkpt lat="43.60942" lon="3.83942">
        <ele>60</ele>
        <time>2021-02-28T11:30:49Z</time>
      </trkpt>
      <trkpt lat="43.60943" lon="3.83936">
        <ele>60</ele>
        <time>2021-02-28T11:30:50Z</time>
      </trkpt>
      <trkpt lat="43.60945" lon="3.8393">
        <ele>60</ele>
        <time>2021-02-28T11:30:51Z</time>
      </trkpt>
      <trkpt lat="43.60946" lon="3.83923">
        <ele>60</ele>
        <time>2021-02-28T11:30:52Z</time>
      </trkpt>
      <trkpt lat="43.60947" lon="3.83917">
        <ele>60</ele>
        <time>2021-02-28T11:30:53Z</time>
      </trkpt>
      <trkpt lat="43.60949" lon="3.8391">
        <ele>60</ele>
        <time>2021-02-28T11:30:54Z</time>
      </trkpt>
      <trkpt lat="43.6095" lon="3.83904">
        <ele>60</ele>
        <time>2021-02-28T11:30:55Z</time>
      </trkpt>
      <trkpt lat="43.60952" lon="3.83897">
        <ele>60</ele>
        <time>2021-02-28T11:30:56Z</time>
      </trkpt>
      <trkpt lat="43.60953" lon="3.83891">
        <ele>60</ele>
        <time>2021-02-28T11:30:57Z</time>
      </trkpt>
      <trkpt lat="43.60955" lon="3.83885">
        <ele>60</ele>
        <time>2021-02-28T11:30:58Z</time>
      </trkpt>
      <trkpt lat="43.60957" lon="3.83879">
        <ele>60</ele>
        <time>2021-02-28T11:30:59Z</time>
      </trkpt>
      <trkpt lat="43.60958" lon="3.83873">
        <ele>60</ele>
        <time>2021-02-28T11:31:00Z</time>
      </trkpt>
      <trkpt lat="43.6096" lon="3.83866">
        <ele>59</ele>
        <time>2021-02-28T11:31:01Z</time>
      </trkpt>
      <trkpt lat="43.60961" lon="3.8386">
        <ele>59</ele>
        <time>2021-02-28T11:31:02Z</time>
      </trkpt>
      <trkpt lat="43.60962" lon="3.83852">
        <ele>59</ele>
        <time>2021-02-28T11:31:03Z</time>
      </trkpt>
      <trkpt lat="43.60964" lon="3.83845">
        <ele>59</ele>
        <time>2021-02-28T11:31:04Z</time>
      </trkpt>
      <trkpt lat="43.60965" lon="3.83838">
        <ele>59</ele>
        <time>2021-02-28T11:31:05Z</time>
      </trkpt>
      <trkpt lat="43.60966" lon="3.83831">
        <ele>59</ele>
        <time>2021-02-28T11:31:06Z</time>
      </trkpt>
      <trkpt lat="43.60967" lon="3.83824">
        <ele>59</ele>
        <time>2021-02-28T11:31:07Z</time>
      </trkpt>
      <trkpt lat="43.60969" lon="3.83817">
        <ele>59</ele>
        <time>2021-02-28T11:31:08Z</time>
      </trkpt>
      <trkpt lat="43.6097" lon="3.8381">
        <ele>59</ele>
        <time>2021-02-28T11:31:09Z</time>
      </trkpt>
      <trkpt lat="43.60971" lon="3.83803">
        <ele>59</ele>
        <time>2021-02-28T11:31:10Z</time>
      </trkpt>
      <trkpt lat="43.60972" lon="3.83795">
        <ele>60</ele>
        <time>2021-02-28T11:31:11Z</time>
      </trkpt>
      <trkpt lat="43.60974" lon="3.83788">
        <ele>60</ele>
        <time>2021-02-28T11:31:12Z</time>
      </trkpt>
      <trkpt lat="43.60975" lon="3.83781">
        <ele>60</ele>
        <time>2021-02-28T11:31:13Z</time>
      </trkpt>
      <trkpt lat="43.60975" lon="3.83774">
        <ele>60</ele>
        <time>2021-02-28T11:31:14Z</time>
      </trkpt>
      <trkpt lat="43.60975" lon="3.83767">
        <ele>60</ele>
        <time>2021-02-28T11:31:15Z</time>
      </trkpt>
      <trkpt lat="43.60975" lon="3.8376">
        <ele>60</ele>
        <time>2021-02-28T11:31:16Z</time>
      </trkpt>
      <trkpt lat="43.60976" lon="3.83753">
        <ele>60</ele>
        <time>2021-02-28T11:31:17Z</time>
      </trkpt>
      <trkpt lat="43.60977" lon="3.83747">
        <ele>60</ele>
        <time>2021-02-28T11:31:18Z</time>
      </trkpt>
      <trkpt lat="43.60979" lon="3.8374">
        <ele>60</ele>
        <time>2021-02-28T11:31:19Z</time>
      </trkpt>
      <trkpt lat="43.6098" lon="3.83733">
        <ele>60</ele>
        <time>2021-02-28T11:31:20Z</time>
      </trkpt>
      <trkpt lat="43.60982" lon="3.83726">
        <ele>60</ele>
        <time>2021-02-28T11:31:21Z</time>
      </trkpt>
      <trkpt lat="43.60984" lon="3.8372">
        <ele>60</ele>
        <time>2021-02-28T11:31:22Z</time>
      </trkpt>
      <trkpt lat="43.60986" lon="3.83713">
        <ele>60</ele>
        <time>2021-02-28T11:31:23Z</time>
      </trkpt>
      <trkpt lat="43.60987" lon="3.83706">
        <ele>60</ele>
        <time>2021-02-28T11:31:24Z</time>
      </trkpt>
      <trkpt lat="43.60989" lon="3.83699">
        <ele>60</ele>
        <time>2021-02-28T11:31:25Z</time>
      </trkpt>
      <trkpt lat="43.60991" lon="3.83693">
        <ele>60</ele>
        <time>2021-02-28T11:31:26Z</time>
      </trkpt>
      <trkpt lat="43.60993" lon="3.83686">
        <ele>60</ele>
        <time>2021-02-28T11:31:27Z</time>
      </trkpt>
      <trkpt lat="43.60994" lon="3.83679">
        <ele>60</ele>
        <time>2021-02-28T11:31:28Z</time>
      </trkpt>
      <trkpt lat="43.60996" lon="3.83672">
        <ele>60</ele>
        <time>2021-02-28T11:31:29Z</time>
      </trkpt>
      <trkpt lat="43.60997" lon="3.83665">
        <ele>60</ele>
        <time>2021-02-28T11:31:30Z</time>
      </trkpt>
      <trkpt lat="43.60999" lon="3.83658">
        <ele>60</ele>
        <time>2021-02-28T11:31:31Z</time>
      </trkpt>
      <trkpt lat="43.61" lon="3.83652">
        <ele>60</ele>
        <time>2021-02-28T11:31:32Z</time>
      </trkpt>
      <trkpt lat="43.61002" lon="3.83645">
        <ele>60</ele>
        <time>2021-02-28T11:31:33Z</time>
      </trkpt>
      <trkpt lat="43.61003" lon="3.83639">
        <ele>60</ele>
        <time>2021-02-28T11:31:34Z</time>
      </trkpt>
      <trkpt lat="43.61005" lon="3.83632">
        <ele>60</ele>
        <time>2021-02-28T11:31:35Z</time>
      </trkpt>
      <trkpt lat="43.61007" lon="3.83625">
        <ele>60</ele>
        <time>2021-02-28T11:31:36Z</time>
      </trkpt>
      <trkpt lat="43.61008" lon="3.83618">
        <ele>60</ele>
        <time>2021-02-28T11:31:37Z</time>
      </trkpt>
      <trkpt lat="43.6101" lon="3.83612">
        <ele>60</ele>
        <time>2021-02-28T11:31:38Z</time>
      </trkpt>
      <trkpt lat="43.61011" lon="3.83605">
        <ele>60</ele>
        <time>2021-02-28T11:31:39Z</time>
      </trkpt>
      <trkpt lat="43.61013" lon="3.83598">
        <ele>60</ele>
        <time>2021-02-28T11:31:40Z</time>
      </trkpt>
      <trkpt lat="43.61014" lon="3.83591">
        <ele>60</ele>
        <time>2021-02-28T11:31:41Z</time>
      </trkpt>
      <trkpt lat="43.61016" lon="3.83584">
        <ele>60</ele>
        <time>2021-02-28T11:31:42Z</time>
      </trkpt>
      <trkpt lat="43.61017" lon="3.83576">
        <ele>60</ele>
        <time>2021-02-28T11:31:43Z</time>
      </trkpt>
      <trkpt lat="43.61018" lon="3.83569">
        <ele>60</ele>
        <time>2021-02-28T11:31:44Z</time>
      </trkpt>
      <trkpt lat="43.61019" lon="3.83562">
        <ele>60</ele>
        <time>2021-02-28T11:31:45Z</time>
      </trkpt>
      <trkpt lat="43.6102" lon="3.83555">
        <ele>60</ele>
        <time>2021-02-28T11:31:46Z</time>
      </trkpt>
      <trkpt lat="43.61022" lon="3.83548">
        <ele>60</ele>
        <time>2021-02-28T11:31:47Z</time>
      </trkpt>
      <trkpt lat="43.61023" lon="3.8354">
        <ele>60</ele>
        <time>2021-02-28T11:31:48Z</time>
      </trkpt>
      <trkpt lat="43.61024" lon="3.83533">
        <ele>60</ele>
        <time>2021-02-28T11:31:49Z</time>
      </trkpt>
      <trkpt lat="43.61025" lon="3.83525">
        <ele>60</ele>
        <time>2021-02-28T11:31:50Z</time>
      </trkpt>
      <trkpt lat="43.61027" lon="3.83518">
        <ele>60</ele>
        <time>2021-02-28T11:31:51Z</time>
      </trkpt>
      <trkpt lat="43.61028" lon="3.83511">
        <ele>60</ele>
        <time>2021-02-28T11:31:52Z</time>
      </trkpt>
      <trkpt lat="43.6103" lon="3.83504">
        <ele>60</ele>
        <time>2021-02-28T11:31:53Z</time>
      </trkpt>
      <trkpt lat="43.61032" lon="3.83497">
        <ele>60</ele>
        <time>2021-02-28T11:31:54Z</time>
      </trkpt>
      <trkpt lat="43.61033" lon="3.8349">
        <ele>60</ele>
        <time>2021-02-28T11:31:55Z</time>
      </trkpt>
      <trkpt lat="43.61035" lon="3.83483">
        <ele>60</ele>
        <time>2021-02-28T11:31:56Z</time>
      </trkpt>
      <trkpt lat="43.61036" lon="3.83476">
        <ele>60</ele>
        <time>2021-02-28T11:31:57Z</time>
      </trkpt>
      <trkpt lat="43.61037" lon="3.83469">
        <ele>60</ele>
        <time>2021-02-28T11:31:58Z</time>
      </trkpt>
      <trkpt lat="43.61038" lon="3.83462">
        <ele>60</ele>
        <time>2021-02-28T11:31:59Z</time>
      </trkpt>
      <trkpt lat="43.6104" lon="3.83457">
        <ele>60</ele>
        <time>2021-02-28T11:32:00Z</time>
      </trkpt>
      <trkpt lat="43.61045" lon="3.83454">
        <ele>60</ele>
        <time>2021-02-28T11:32:01Z</time>
      </trkpt>
      <trkpt lat="43.61049" lon="3.83452">
        <ele>60</ele>
        <time>2021-02-28T11:32:02Z</time>
      </trkpt>
      <trkpt lat="43.61053" lon="3.83448">
        <ele>60</ele>
        <time>2021-02-28T11:32:03Z</time>
      </trkpt>
      <trkpt lat="43.61056" lon="3.83444">
        <ele>60</ele>
        <time>2021-02-28T11:32:04Z</time>
      </trkpt>
      <trkpt lat="43.61058" lon="3.83438">
        <ele>60</ele>
        <time>2021-02-28T11:32:05Z</time>
      </trkpt>
      <trkpt lat="43.6106" lon="3.83432">
        <ele>60</ele>
        <time>2021-02-28T11:32:06Z</time>
      </trkpt>
      <trkpt lat="43.61061" lon="3.83426">
        <ele>60</ele>
        <time>2021-02-28T11:32:07Z</time>
      </trkpt>
      <trkpt lat="43.61063" lon="3.8342">
        <ele>60</ele>
        <time>2021-02-28T11:32:08Z</time>
      </trkpt>
      <trkpt lat="43.61065" lon="3.83413">
        <ele>60</ele>
        <time>2021-02-28T11:32:09Z</time>
      </trkpt>
      <trkpt lat="43.61067" lon="3.83407">
        <ele>60</ele>
        <time>2021-02-28T11:32:10Z</time>
      </trkpt>
      <trkpt lat="43.61068" lon="3.834">
        <ele>61</ele>
        <time>2021-02-28T11:32:11Z</time>
      </trkpt>
      <trkpt lat="43.6107" lon="3.83394">
        <ele>61</ele>
        <time>2021-02-28T11:32:12Z</time>
      </trkpt>
      <trkpt lat="43.61072" lon="3.83389">
        <ele>61</ele>
        <time>2021-02-28T11:32:13Z</time>
      </trkpt>
      <trkpt lat="43.61074" lon="3.83383">
        <ele>61</ele>
        <time>2021-02-28T11:32:14Z</time>
      </trkpt>
      <trkpt lat="43.61076" lon="3.83377">
        <ele>61</ele>
        <time>2021-02-28T11:32:15Z</time>
      </trkpt>
      <trkpt lat="43.61078" lon="3.8337">
        <ele>61</ele>
        <time>2021-02-28T11:32:16Z</time>
      </trkpt>
      <trkpt lat="43.61079" lon="3.83363">
        <ele>61</ele>
        <time>2021-02-28T11:32:17Z</time>
      </trkpt>
      <trkpt lat="43.61081" lon="3.83357">
        <ele>61</ele>
        <time>2021-02-28T11:32:18Z</time>
      </trkpt>
      <trkpt lat="43.61082" lon="3.83351">
        <ele>61</ele>
        <time>2021-02-28T11:32:19Z</time>
      </trkpt>
      <trkpt lat="43.61084" lon="3.83345">
        <ele>61</ele>
        <time>2021-02-28T11:32:20Z</time>
      </trkpt>
      <trkpt lat="43.61086" lon="3.83339">
        <ele>62</ele>
        <time>2021-02-28T11:32:21Z</time>
      </trkpt>
      <trkpt lat="43.61087" lon="3.83333">
        <ele>62</ele>
        <time>2021-02-28T11:32:22Z</time>
      </trkpt>
      <trkpt lat="43.61089" lon="3.83327">
        <ele>62</ele>
        <time>2021-02-28T11:32:23Z</time>
      </trkpt>
      <trkpt lat="43.61091" lon="3.8332">
        <ele>62</ele>
        <time>2021-02-28T11:32:24Z</time>
      </trkpt>
      <trkpt lat="43.61093" lon="3.83314">
        <ele>62</ele>
        <time>2021-02-28T11:32:25Z</time>
      </trkpt>
      <trkpt lat="43.61095" lon="3.83308">
        <ele>62</ele>
        <time>2021-02-28T11:32:26Z</time>
      </trkpt>
      <trkpt lat="43.61098" lon="3.83301">
        <ele>62</ele>
        <time>2021-02-28T11:32:27Z</time>
      </trkpt>
      <trkpt lat="43.611" lon="3.83295">
        <ele>62</ele>
        <time>2021-02-28T11:32:28Z</time>
      </trkpt>
      <trkpt lat="43.61101" lon="3.83288">
        <ele>62</ele>
        <time>2021-02-28T11:32:29Z</time>
      </trkpt>
      <trkpt lat="43.61104" lon="3.83281">
        <ele>62</ele>
        <time>2021-02-28T11:32:30Z</time>
      </trkpt>
      <trkpt lat="43.61107" lon="3.83273">
        <ele>63</ele>
        <time>2021-02-28T11:32:31Z</time>
      </trkpt>
      <trkpt lat="43.6111" lon="3.83266">
        <ele>63</ele>
        <time>2021-02-28T11:32:32Z</time>
      </trkpt>
      <trkpt lat="43.61112" lon="3.83258">
        <ele>63</ele>
        <time>2021-02-28T11:32:33Z</time>
      </trkpt>
      <trkpt lat="43.61114" lon="3.83251">
        <ele>63</ele>
        <time>2021-02-28T11:32:34Z</time>
      </trkpt>
      <trkpt lat="43.61117" lon="3.83243">
        <ele>63</ele>
        <time>2021-02-28T11:32:35Z</time>
      </trkpt>
      <trkpt lat="43.61119" lon="3.83235">
        <ele>63</ele>
        <time>2021-02-28T11:32:36Z</time>
      </trkpt>
      <trkpt lat="43.61121" lon="3.83227">
        <ele>63</ele>
        <time>2021-02-28T11:32:37Z</time>
      </trkpt>
      <trkpt lat="43.61123" lon="3.83219">
        <ele>63</ele>
        <time>2021-02-28T11:32:38Z</time>
      </trkpt>
      <trkpt lat="43.61125" lon="3.8321">
        <ele>63</ele>
        <time>2021-02-28T11:32:39Z</time>
      </trkpt>
      <trkpt lat="43.61127" lon="3.83201">
        <ele>63</ele>
        <time>2021-02-28T11:32:40Z</time>
      </trkpt>
      <trkpt lat="43.61129" lon="3.83193">
        <ele>63</ele>
        <time>2021-02-28T11:32:41Z</time>
      </trkpt>
      <trkpt lat="43.61132" lon="3.83184">
        <ele>63</ele>
        <time>2021-02-28T11:32:42Z</time>
      </trkpt>
      <trkpt lat="43.61134" lon="3.83175">
        <ele>63</ele>
        <time>2021-02-28T11:32:43Z</time>
      </trkpt>
      <trkpt lat="43.61136" lon="3.83166">
        <ele>63</ele>
        <time>2021-02-28T11:32:44Z</time>
      </trkpt>
      <trkpt lat="43.61138" lon="3.83157">
        <ele>63</ele>
        <time>2021-02-28T11:32:45Z</time>
      </trkpt>
      <trkpt lat="43.6114" lon="3.83148">
        <ele>63</ele>
        <time>2021-02-28T11:32:46Z</time>
      </trkpt>
      <trkpt lat="43.61142" lon="3.83139">
        <ele>63</ele>
        <time>2021-02-28T11:32:47Z</time>
      </trkpt>
      <trkpt lat="43.61144" lon="3.83131">
        <ele>63</ele>
        <time>2021-02-28T11:32:48Z</time>
      </trkpt>
      <trkpt lat="43.61146" lon="3.83122">
        <ele>63</ele>
        <time>2021-02-28T11:32:49Z</time>
      </trkpt>
      <trkpt lat="43.61148" lon="3.83115">
        <ele>63</ele>
        <time>2021-02-28T11:32:50Z</time>
      </trkpt>
      <trkpt lat="43.6115" lon="3.83107">
        <ele>62</ele>
        <time>2021-02-28T11:32:51Z</time>
      </trkpt>
      <trkpt lat="43.61152" lon="3.831">
        <ele>62</ele>
        <time>2021-02-28T11:32:52Z</time>
      </trkpt>
      <trkpt lat="43.61154" lon="3.83092">
        <ele>62</ele>
        <time>2021-02-28T11:32:53Z</time>
      </trkpt>
      <trkpt lat="43.61156" lon="3.83085">
        <ele>62</ele>
        <time>2021-02-28T11:32:54Z</time>
      </trkpt>
      <trkpt lat="43.61158" lon="3.83078">
        <ele>62</ele>
        <time>2021-02-28T11:32:55Z</time>
      </trkpt>
      <trkpt lat="43.6116" lon="3.83071">
        <ele>62</ele>
        <time>2021-02-28T11:32:56Z</time>
      </trkpt>
      <trkpt lat="43.61162" lon="3.83064">
        <ele>62</ele>
        <time>2021-02-28T11:32:57Z</time>
      </trkpt>
      <trkpt lat="43.61164" lon="3.83056">
        <ele>62</ele>
        <time>2021-02-28T11:32:58Z</time>
      </trkpt>
      <trkpt lat="43.61166" lon="3.83049">
        <ele>62</ele>
        <time>2021-02-28T11:32:59Z</time>
      </trkpt>
      <trkpt lat="43.61169" lon="3.83042">
        <ele>62</ele>
        <time>2021-02-28T11:33:00Z</time>
      </trkpt>
      <trkpt lat="43.61171" lon="3.83035">
        <ele>62</ele>
        <time>2021-02-28T11:33:01Z</time>
      </trkpt>
      <trkpt lat="43.61173" lon="3.83028">
        <ele>62</ele>
        <time>2021-02-28T11:33:02Z</time>
      </trkpt>
      <trkpt lat="43.61176" lon="3.83021">
        <ele>62</ele>
        <time>2021-02-28T11:33:03Z</time>
      </trkpt>
      <trkpt lat="43.61178" lon="3.83013">
        <ele>62</ele>
        <time>2021-02-28T11:33:04Z</time>
      </trkpt>
      <trkpt lat="43.6118" lon="3.83006">
        <ele>62</ele>
        <time>2021-02-28T11:33:05Z</time>
      </trkpt>
      <trkpt lat="43.61183" lon="3.83">
        <ele>62</ele>
        <time>2021-02-28T11:33:06Z</time>
      </trkpt>
      <trkpt lat="43.61185" lon="3.82995">
        <ele>62</ele>
        <time>2021-02-28T11:33:07Z</time>
      </trkpt>
      <trkpt lat="43.61189" lon="3.82988">
        <ele>62</ele>
        <time>2021-02-28T11:33:08Z</time>
      </trkpt>
      <trkpt lat="43.61193" lon="3.82973">
        <ele>62</ele>
        <time>2021-02-28T11:33:10Z</time>
      </trkpt>
      <trkpt lat="43.61192" lon="3.82965">
        <ele>61</ele>
        <time>2021-02-28T11:33:11Z</time>
      </trkpt>
      <trkpt lat="43.6119" lon="3.82957">
        <ele>61</ele>
        <time>2021-02-28T11:33:12Z</time>
      </trkpt>
      <trkpt lat="43.61189" lon="3.82948">
        <ele>61</ele>
        <time>2021-02-28T11:33:13Z</time>
      </trkpt>
      <trkpt lat="43.61187" lon="3.82939">
        <ele>61</ele>
        <time>2021-02-28T11:33:14Z</time>
      </trkpt>
      <trkpt lat="43.61186" lon="3.82931">
        <ele>61</ele>
        <time>2021-02-28T11:33:15Z</time>
      </trkpt>
      <trkpt lat="43.61184" lon="3.82923">
        <ele>61</ele>
        <time>2021-02-28T11:33:16Z</time>
      </trkpt>
      <trkpt lat="43.61182" lon="3.82914">
        <ele>61</ele>
        <time>2021-02-28T11:33:17Z</time>
      </trkpt>
      <trkpt lat="43.6118" lon="3.82906">
        <ele>61</ele>
        <time>2021-02-28T11:33:18Z</time>
      </trkpt>
      <trkpt lat="43.61178" lon="3.82898">
        <ele>61</ele>
        <time>2021-02-28T11:33:19Z</time>
      </trkpt>
      <trkpt lat="43.61176" lon="3.8289">
        <ele>61</ele>
        <time>2021-02-28T11:33:20Z</time>
      </trkpt>
      <trkpt lat="43.61174" lon="3.82882">
        <ele>61</ele>
        <time>2021-02-28T11:33:21Z</time>
      </trkpt>
      <trkpt lat="43.61173" lon="3.82873">
        <ele>61</ele>
        <time>2021-02-28T11:33:22Z</time>
      </trkpt>
      <trkpt lat="43.61171" lon="3.82865">
        <ele>61</ele>
        <time>2021-02-28T11:33:23Z</time>
      </trkpt>
      <trkpt lat="43.61169" lon="3.82857">
        <ele>61</ele>
        <time>2021-02-28T11:33:24Z</time>
      </trkpt>
      <trkpt lat="43.61167" lon="3.82849">
        <ele>61</ele>
        <time>2021-02-28T11:33:25Z</time>
      </trkpt>
      <trkpt lat="43.61166" lon="3.82841">
        <ele>61</ele>
        <time>2021-02-28T11:33:26Z</time>
      </trkpt>
      <trkpt lat="43.61163" lon="3.82833">
        <ele>61</ele>
        <time>2021-02-28T11:33:27Z</time>
      </trkpt>
      <trkpt lat="43.61161" lon="3.82825">
        <ele>61</ele>
        <time>2021-02-28T11:33:28Z</time>
      </trkpt>
      <trkpt lat="43.6116" lon="3.82816">
        <ele>61</ele>
        <time>2021-02-28T11:33:29Z</time>
      </trkpt>
      <trkpt lat="43.6116" lon="3.82807">
        <ele>61</ele>
        <time>2021-02-28T11:33:30Z</time>
      </trkpt>
      <trkpt lat="43.61162" lon="3.82798">
        <ele>59</ele>
        <time>2021-02-28T11:33:31Z</time>
      </trkpt>
      <trkpt lat="43.61163" lon="3.8279">
        <ele>59</ele>
        <time>2021-02-28T11:33:32Z</time>
      </trkpt>
      <trkpt lat="43.61164" lon="3.82782">
        <ele>59</ele>
        <time>2021-02-28T11:33:33Z</time>
      </trkpt>
      <trkpt lat="43.61165" lon="3.82773">
        <ele>59</ele>
        <time>2021-02-28T11:33:34Z</time>
      </trkpt>
      <trkpt lat="43.61166" lon="3.82766">
        <ele>59</ele>
        <time>2021-02-28T11:33:35Z</time>
      </trkpt>
      <trkpt lat="43.61167" lon="3.82759">
        <ele>59</ele>
        <time>2021-02-28T11:33:36Z</time>
      </trkpt>
      <trkpt lat="43.61168" lon="3.82753">
        <ele>59</ele>
        <time>2021-02-28T11:33:37Z</time>
      </trkpt>
      <trkpt lat="43.61168" lon="3.82749">
        <ele>59</ele>
        <time>2021-02-28T11:33:38Z</time>
      </trkpt>
      <trkpt lat="43.61173" lon="3.82737">
        <ele>59</ele>
        <time>2021-02-28T11:37:15Z</time>
      </trkpt>
      <trkpt lat="43.61174" lon="3.82727">
        <ele>59</ele>
        <time>2021-02-28T11:37:16Z</time>
      </trkpt>
      <trkpt lat="43.61175" lon="3.82723">
        <ele>59</ele>
        <time>2021-02-28T11:37:17Z</time>
      </trkpt>
      <trkpt lat="43.61176" lon="3.82718">
        <ele>59</ele>
        <time>2021-02-28T11:37:18Z</time>
      </trkpt>
      <trkpt lat="43.61176" lon="3.82714">
        <ele>59</ele>
        <time>2021-02-28T11:37:19Z</time>
      </trkpt>
      <trkpt lat="43.61177" lon="3.8271">
        <ele>59</ele>
        <time>2021-02-28T11:37:20Z</time>
      </trkpt>
      <trkpt lat="43.61178" lon="3.82706">
        <ele>59</ele>
        <time>2021-02-28T11:37:21Z</time>
      </trkpt>
      <trkpt lat="43.61178" lon="3.82702">
        <ele>59</ele>
        <time>2021-02-28T11:37:22Z</time>
      </trkpt>
      <trkpt lat="43.61179" lon="3.82698">
        <ele>59</ele>
        <time>2021-02-28T11:37:23Z</time>
      </trkpt>
      <trkpt lat="43.61179" lon="3.82695">
        <ele>59</ele>
        <time>2021-02-28T11:37:24Z</time>
      </trkpt>
      <trkpt lat="43.6118" lon="3.82692">
        <ele>59</ele>
        <time>2021-02-28T11:37:25Z</time>
      </trkpt>
      <trkpt lat="43.6118" lon="3.82688">
        <ele>59</ele>
        <time>2021-02-28T11:37:26Z</time>
      </trkpt>
      <trkpt lat="43.6118" lon="3.82685">
        <ele>59</ele>
        <time>2021-02-28T11:37:27Z</time>
      </trkpt>
      <trkpt lat="43.61181" lon="3.82682">
        <ele>59</ele>
        <time>2021-02-28T11:37:28Z</time>
      </trkpt>
      <trkpt lat="43.61182" lon="3.82678">
        <ele>59</ele>
        <time>2021-02-28T11:37:29Z</time>
      </trkpt>
      <trkpt lat="43.61182" lon="3.82675">
        <ele>59</ele>
        <time>2021-02-28T11:37:30Z</time>
      </trkpt>
      <trkpt lat="43.61183" lon="3.82671">
        <ele>59</ele>
        <time>2021-02-28T11:37:31Z</time>
      </trkpt>
      <trkpt lat="43.61183" lon="3.82668">
        <ele>59</ele>
        <time>2021-02-28T11:37:32Z</time>
      </trkpt>
      <trkpt lat="43.61184" lon="3.82664">
        <ele>59</ele>
        <time>2021-02-28T11:37:33Z</time>
      </trkpt>
      <trkpt lat="43.61184" lon="3.8266">
        <ele>59</ele>
        <time>2021-02-28T11:37:34Z</time>
      </trkpt>
      <trkpt lat="43.61185" lon="3.82656">
        <ele>59</ele>
        <time>2021-02-28T11:37:35Z</time>
      </trkpt>
      <trkpt lat="43.61186" lon="3.82652">
        <ele>59</ele>
        <time>2021-02-28T11:37:36Z</time>
      </trkpt>
      <trkpt lat="43.61186" lon="3.82648">
        <ele>59</ele>
        <time>2021-02-28T11:37:37Z</time>
      </trkpt>
      <trkpt lat="43.61186" lon="3.82644">
        <ele>59</ele>
        <time>2021-02-28T11:37:38Z</time>
      </trkpt>
      <trkpt lat="43.61187" lon="3.8264">
        <ele>59</ele>
        <time>2021-02-28T11:37:39Z</time>
      </trkpt>
      <trkpt lat="43.61188" lon="3.82636">
        <ele>59</ele>
        <time>2021-02-28T11:37:40Z</time>
      </trkpt>
      <trkpt lat="43.61188" lon="3.82632">
        <ele>59</ele>
        <time>2021-02-28T11:37:41Z</time>
      </trkpt>
      <trkpt lat="43.61188" lon="3.82627">
        <ele>59</ele>
        <time>2021-02-28T11:37:42Z</time>
      </trkpt>
      <trkpt lat="43.61189" lon="3.82623">
        <ele>59</ele>
        <time>2021-02-28T11:37:43Z</time>
      </trkpt>
      <trkpt lat="43.6119" lon="3.82618">
        <ele>59</ele>
        <time>2021-02-28T11:37:44Z</time>
      </trkpt>
      <trkpt lat="43.6119" lon="3.82614">
        <ele>59</ele>
        <time>2021-02-28T11:37:45Z</time>
      </trkpt>
      <trkpt lat="43.61191" lon="3.82609">
        <ele>59</ele>
        <time>2021-02-28T11:37:46Z</time>
      </trkpt>
      <trkpt lat="43.61191" lon="3.82604">
        <ele>59</ele>
        <time>2021-02-28T11:37:47Z</time>
      </trkpt>
      <trkpt lat="43.61192" lon="3.82599">
        <ele>59</ele>
        <time>2021-02-28T11:37:48Z</time>
      </trkpt>
      <trkpt lat="43.61193" lon="3.82594">
        <ele>59</ele>
        <time>2021-02-28T11:37:49Z</time>
      </trkpt>
      <trkpt lat="43.61193" lon="3.82589">
        <ele>59</ele>
        <time>2021-02-28T11:37:50Z</time>
      </trkpt>
      <trkpt lat="43.61194" lon="3.82584">
        <ele>59</ele>
        <time>2021-02-28T11:37:51Z</time>
      </trkpt>
      <trkpt lat="43.61195" lon="3.82579">
        <ele>59</ele>
        <time>2021-02-28T11:37:52Z</time>
      </trkpt>
      <trkpt lat="43.61196" lon="3.8257">
        <ele>59</ele>
        <time>2021-02-28T11:37:54Z</time>
      </trkpt>
      <trkpt lat="43.61197" lon="3.82566">
        <ele>59</ele>
        <time>2021-02-28T11:37:55Z</time>
      </trkpt>
      <trkpt lat="43.61198" lon="3.82562">
        <ele>59</ele>
        <time>2021-02-28T11:37:56Z</time>
      </trkpt>
      <trkpt lat="43.61199" lon="3.82558">
        <ele>59</ele>
        <time>2021-02-28T11:37:57Z</time>
      </trkpt>
      <trkpt lat="43.612" lon="3.82555">
        <ele>59</ele>
        <time>2021-02-28T11:37:58Z</time>
      </trkpt>
      <trkpt lat="43.61201" lon="3.82551">
        <ele>59</ele>
        <time>2021-02-28T11:37:59Z</time>
      </trkpt>
      <trkpt lat="43.61203" lon="3.82548">
        <ele>59</ele>
        <time>2021-02-28T11:38:00Z</time>
      </trkpt>
      <trkpt lat="43.61204" lon="3.82546">
        <ele>59</ele>
        <time>2021-02-28T11:38:01Z</time>
      </trkpt>
      <trkpt lat="43.61206" lon="3.82544">
        <ele>59</ele>
        <time>2021-02-28T11:38:02Z</time>
      </trkpt>
      <trkpt lat="43.61208" lon="3.82543">
        <ele>59</ele>
        <time>2021-02-28T11:38:03Z</time>
      </trkpt>
      <trkpt lat="43.6121" lon="3.82542">
        <ele>59</ele>
        <time>2021-02-28T11:38:04Z</time>
      </trkpt>
      <trkpt lat="43.61212" lon="3.82541">
        <ele>59</ele>
        <time>2021-02-28T11:38:05Z</time>
      </trkpt>
      <trkpt lat="43.61214" lon="3.82539">
        <ele>59</ele>
        <time>2021-02-28T11:38:06Z</time>
      </trkpt>
      <trkpt lat="43.61216" lon="3.82536">
        <ele>59</ele>
        <time>2021-02-28T11:38:07Z</time>
      </trkpt>
      <trkpt lat="43.61218" lon="3.82534">
        <ele>59</ele>
        <time>2021-02-28T11:38:08Z</time>
      </trkpt>
      <trkpt lat="43.61221" lon="3.82532">
        <ele>59</ele>
        <time>2021-02-28T11:38:09Z</time>
      </trkpt>
      <trkpt lat="43.61223" lon="3.82529">
        <ele>59</ele>
        <time>2021-02-28T11:38:10Z</time>
      </trkpt>
      <trkpt lat="43.61227" lon="3.82527">
        <ele>59</ele>
        <time>2021-02-28T11:38:11Z</time>
      </trkpt>
      <trkpt lat="43.6123" lon="3.82525">
        <ele>59</ele>
        <time>2021-02-28T11:38:12Z</time>
      </trkpt>
      <trkpt lat="43.61233" lon="3.82524">
        <ele>59</ele>
        <time>2021-02-28T11:38:13Z</time>
      </trkpt>
      <trkpt lat="43.61237" lon="3.82523">
        <ele>58</ele>
        <time>2021-02-28T11:38:14Z</time>
      </trkpt>
      <trkpt lat="43.61241" lon="3.82523">
        <ele>58</ele>
        <time>2021-02-28T11:38:15Z</time>
      </trkpt>
      <trkpt lat="43.61245" lon="3.82521">
        <ele>58</ele>
        <time>2021-02-28T11:38:16Z</time>
      </trkpt>
      <trkpt lat="43.61248" lon="3.8252">
        <ele>58</ele>
        <time>2021-02-28T11:38:17Z</time>
      </trkpt>
      <trkpt lat="43.61252" lon="3.82518">
        <ele>58</ele>
        <time>2021-02-28T11:38:18Z</time>
      </trkpt>
      <trkpt lat="43.61255" lon="3.82516">
        <ele>58</ele>
        <time>2021-02-28T11:38:19Z</time>
      </trkpt>
      <trkpt lat="43.61259" lon="3.82513">
        <ele>58</ele>
        <time>2021-02-28T11:38:20Z</time>
      </trkpt>
      <trkpt lat="43.61263" lon="3.8251">
        <ele>58</ele>
        <time>2021-02-28T11:38:21Z</time>
      </trkpt>
      <trkpt lat="43.61268" lon="3.82507">
        <ele>58</ele>
        <time>2021-02-28T11:38:22Z</time>
      </trkpt>
      <trkpt lat="43.61271" lon="3.82504">
        <ele>58</ele>
        <time>2021-02-28T11:38:23Z</time>
      </trkpt>
      <trkpt lat="43.61275" lon="3.82501">
        <ele>57</ele>
        <time>2021-02-28T11:38:24Z</time>
      </trkpt>
      <trkpt lat="43.61279" lon="3.82497">
        <ele>57</ele>
        <time>2021-02-28T11:38:25Z</time>
      </trkpt>
      <trkpt lat="43.61283" lon="3.82493">
        <ele>57</ele>
        <time>2021-02-28T11:38:26Z</time>
      </trkpt>
      <trkpt lat="43.61287" lon="3.82489">
        <ele>57</ele>
        <time>2021-02-28T11:38:27Z</time>
      </trkpt>
      <trkpt lat="43.61291" lon="3.82484">
        <ele>57</ele>
        <time>2021-02-28T11:38:28Z</time>
      </trkpt>
      <trkpt lat="43.61294" lon="3.82479">
        <ele>57</ele>
        <time>2021-02-28T11:38:29Z</time>
      </trkpt>
      <trkpt lat="43.61296" lon="3.82474">
        <ele>57</ele>
        <time>2021-02-28T11:38:30Z</time>
      </trkpt>
      <trkpt lat="43.61299" lon="3.82469">
        <ele>57</ele>
        <time>2021-02-28T11:38:31Z</time>
      </trkpt>
      <trkpt lat="43.61301" lon="3.82465">
        <ele>57</ele>
        <time>2021-02-28T11:38:32Z</time>
      </trkpt>
      <trkpt lat="43.61303" lon="3.8246">
        <ele>57</ele>
        <time>2021-02-28T11:38:33Z</time>
      </trkpt>
      <trkpt lat="43.61305" lon="3.82455">
        <ele>56</ele>
        <time>2021-02-28T11:38:34Z</time>
      </trkpt>
      <trkpt lat="43.61306" lon="3.8245">
        <ele>56</ele>
        <time>2021-02-28T11:38:35Z</time>
      </trkpt>
      <trkpt lat="43.61308" lon="3.82445">
        <ele>56</ele>
        <time>2021-02-28T11:38:36Z</time>
      </trkpt>
      <trkpt lat="43.61309" lon="3.8244">
        <ele>56</ele>
        <time>2021-02-28T11:38:37Z</time>
      </trkpt>
      <trkpt lat="43.6131" lon="3.82435">
        <ele>56</ele>
        <time>2021-02-28T11:38:38Z</time>
      </trkpt>
      <trkpt lat="43.6131" lon="3.8243">
        <ele>56</ele>
        <time>2021-02-28T11:38:39Z</time>
      </trkpt>
      <trkpt lat="43.61311" lon="3.82425">
        <ele>56</ele>
        <time>2021-02-28T11:38:40Z</time>
      </trkpt>
      <trkpt lat="43.61311" lon="3.8242">
        <ele>56</ele>
        <time>2021-02-28T11:38:41Z</time>
      </trkpt>
      <trkpt lat="43.61312" lon="3.82415">
        <ele>56</ele>
        <time>2021-02-28T11:38:42Z</time>
      </trkpt>
      <trkpt lat="43.61312" lon="3.8241">
        <ele>56</ele>
        <time>2021-02-28T11:38:43Z</time>
      </trkpt>
      <trkpt lat="43.61313" lon="3.82405">
        <ele>55</ele>
        <time>2021-02-28T11:38:44Z</time>
      </trkpt>
      <trkpt lat="43.61314" lon="3.82399">
        <ele>55</ele>
        <time>2021-02-28T11:38:45Z</time>
      </trkpt>
      <trkpt lat="43.61313" lon="3.82393">
        <ele>55</ele>
        <time>2021-02-28T11:38:46Z</time>
      </trkpt>
      <trkpt lat="43.61312" lon="3.82386">
        <ele>55</ele>
        <time>2021-02-28T11:38:47Z</time>
      </trkpt>
      <trkpt lat="43.6131" lon="3.8238">
        <ele>55</ele>
        <time>2021-02-28T11:38:48Z</time>
      </trkpt>
      <trkpt lat="43.61309" lon="3.82373">
        <ele>55</ele>
        <time>2021-02-28T11:38:49Z</time>
      </trkpt>
      <trkpt lat="43.61307" lon="3.82367">
        <ele>55</ele>
        <time>2021-02-28T11:38:50Z</time>
      </trkpt>
      <trkpt lat="43.61307" lon="3.82361">
        <ele>55</ele>
        <time>2021-02-28T11:38:51Z</time>
      </trkpt>
      <trkpt lat="43.61306" lon="3.82355">
        <ele>55</ele>
        <time>2021-02-28T11:38:52Z</time>
      </trkpt>
      <trkpt lat="43.61305" lon="3.82349">
        <ele>55</ele>
        <time>2021-02-28T11:38:53Z</time>
      </trkpt>
      <trkpt lat="43.61305" lon="3.82345">
        <ele>55</ele>
        <time>2021-02-28T11:38:54Z</time>
      </trkpt>
      <trkpt lat="43.61305" lon="3.8234">
        <ele>55</ele>
        <time>2021-02-28T11:38:55Z</time>
      </trkpt>
      <trkpt lat="43.61305" lon="3.82335">
        <ele>55</ele>
        <time>2021-02-28T11:38:56Z</time>
      </trkpt>
      <trkpt lat="43.61306" lon="3.8233">
        <ele>55</ele>
        <time>2021-02-28T11:38:57Z</time>
      </trkpt>
      <trkpt lat="43.61308" lon="3.82324">
        <ele>55</ele>
        <time>2021-02-28T11:38:58Z</time>
      </trkpt>
      <trkpt lat="43.61313" lon="3.82314">
        <ele>55</ele>
        <time>2021-02-28T11:39:00Z</time>
      </trkpt>
      <trkpt lat="43.61316" lon="3.8231">
        <ele>55</ele>
        <time>2021-02-28T11:39:01Z</time>
      </trkpt>
      <trkpt lat="43.6132" lon="3.82307">
        <ele>55</ele>
        <time>2021-02-28T11:39:02Z</time>
      </trkpt>
      <trkpt lat="43.61323" lon="3.82304">
        <ele>55</ele>
        <time>2021-02-28T11:39:03Z</time>
      </trkpt>
      <trkpt lat="43.61325" lon="3.82302">
        <ele>55</ele>
        <time>2021-02-28T11:39:04Z</time>
      </trkpt>
      <trkpt lat="43.61328" lon="3.823">
        <ele>55</ele>
        <time>2021-02-28T11:39:05Z</time>
      </trkpt>
      <trkpt lat="43.61331" lon="3.82298">
        <ele>55</ele>
        <time>2021-02-28T11:39:06Z</time>
      </trkpt>
      <trkpt lat="43.61333" lon="3.82296">
        <ele>55</ele>
        <time>2021-02-28T11:39:07Z</time>
      </trkpt>
      <trkpt lat="43.61336" lon="3.82293">
        <ele>55</ele>
        <time>2021-02-28T11:39:08Z</time>
      </trkpt>
      <trkpt lat="43.61339" lon="3.8229">
        <ele>55</ele>
        <time>2021-02-28T11:39:09Z</time>
      </trkpt>
      <trkpt lat="43.61343" lon="3.82287">
        <ele>55</ele>
        <time>2021-02-28T11:39:10Z</time>
      </trkpt>
      <trkpt lat="43.61347" lon="3.82282">
        <ele>55</ele>
        <time>2021-02-28T11:39:11Z</time>
      </trkpt>
      <trkpt lat="43.61352" lon="3.82278">
        <ele>55</ele>
        <time>2021-02-28T11:39:12Z</time>
      </trkpt>
      <trkpt lat="43.61356" lon="3.82275">
        <ele>55</ele>
        <time>2021-02-28T11:39:13Z</time>
      </trkpt>
      <trkpt lat="43.61361" lon="3.82272">
        <ele>54</ele>
        <time>2021-02-28T11:39:14Z</time>
      </trkpt>
      <trkpt lat="43.61365" lon="3.8227">
        <ele>54</ele>
        <time>2021-02-28T11:39:15Z</time>
      </trkpt>
      <trkpt lat="43.61369" lon="3.82267">
        <ele>54</ele>
        <time>2021-02-28T11:39:16Z</time>
      </trkpt>
      <trkpt lat="43.61374" lon="3.82265">
        <ele>54</ele>
        <time>2021-02-28T11:39:17Z</time>
      </trkpt>
      <trkpt lat="43.61379" lon="3.82264">
        <ele>54</ele>
        <time>2021-02-28T11:39:18Z</time>
      </trkpt>
      <trkpt lat="43.61384" lon="3.82262">
        <ele>54</ele>
        <time>2021-02-28T11:39:19Z</time>
      </trkpt>
      <trkpt lat="43.61388" lon="3.82261">
        <ele>54</ele>
        <time>2021-02-28T11:39:20Z</time>
      </trkpt>
      <trkpt lat="43.61393" lon="3.8226">
        <ele>54</ele>
        <time>2021-02-28T11:39:21Z</time>
      </trkpt>
      <trkpt lat="43.61397" lon="3.82256">
        <ele>54</ele>
        <time>2021-02-28T11:39:22Z</time>
      </trkpt>
      <trkpt lat="43.61401" lon="3.82251">
        <ele>54</ele>
        <time>2021-02-28T11:39:23Z</time>
      </trkpt>
      <trkpt lat="43.61405" lon="3.82248">
        <ele>52</ele>
        <time>2021-02-28T11:39:24Z</time>
      </trkpt>
      <trkpt lat="43.6141" lon="3.82244">
        <ele>52</ele>
        <time>2021-02-28T11:39:25Z</time>
      </trkpt>
      <trkpt lat="43.61414" lon="3.82241">
        <ele>52</ele>
        <time>2021-02-28T11:39:26Z</time>
      </trkpt>
      <trkpt lat="43.61419" lon="3.82237">
        <ele>52</ele>
        <time>2021-02-28T11:39:27Z</time>
      </trkpt>
      <trkpt lat="43.61423" lon="3.82235">
        <ele>52</ele>
        <time>2021-02-28T11:39:28Z</time>
      </trkpt>
      <trkpt lat="43.61427" lon="3.82232">
        <ele>52</ele>
        <time>2021-02-28T11:39:29Z</time>
      </trkpt>
      <trkpt lat="43.61431" lon="3.8223">
        <ele>52</ele>
        <time>2021-02-28T11:39:30Z</time>
      </trkpt>
      <trkpt lat="43.61435" lon="3.82227">
        <ele>52</ele>
        <time>2021-02-28T11:39:31Z</time>
      </trkpt>
      <trkpt lat="43.6144" lon="3.82224">
        <ele>52</ele>
        <time>2021-02-28T11:39:32Z</time>
      </trkpt>
      <trkpt lat="43.61446" lon="3.82221">
        <ele>52</ele>
        <time>2021-02-28T11:39:33Z</time>
      </trkpt>
      <trkpt lat="43.61452" lon="3.82217">
        <ele>50</ele>
        <time>2021-02-28T11:39:34Z</time>
      </trkpt>
      <trkpt lat="43.61458" lon="3.82214">
        <ele>50</ele>
        <time>2021-02-28T11:39:35Z</time>
      </trkpt>
      <trkpt lat="43.61462" lon="3.82212">
        <ele>50</ele>
        <time>2021-02-28T11:39:36Z</time>
      </trkpt>
      <trkpt lat="43.61466" lon="3.82211">
        <ele>50</ele>
        <time>2021-02-28T11:39:37Z</time>
      </trkpt>
      <trkpt lat="43.6147" lon="3.8221">
        <ele>50</ele>
        <time>2021-02-28T11:39:38Z</time>
      </trkpt>
      <trkpt lat="43.61473" lon="3.82209">
        <ele>50</ele>
        <time>2021-02-28T11:39:39Z</time>
      </trkpt>
      <trkpt lat="43.61477" lon="3.82209">
        <ele>50</ele>
        <time>2021-02-28T11:39:40Z</time>
      </trkpt>
      <trkpt lat="43.61481" lon="3.82208">
        <ele>50</ele>
        <time>2021-02-28T11:39:41Z</time>
      </trkpt>
      <trkpt lat="43.61484" lon="3.82207">
        <ele>50</ele>
        <time>2021-02-28T11:39:42Z</time>
      </trkpt>
      <trkpt lat="43.61487" lon="3.82206">
        <ele>50</ele>
        <time>2021-02-28T11:39:43Z</time>
      </trkpt>
      <trkpt lat="43.6149" lon="3.82206">
        <ele>49</ele>
        <time>2021-02-28T11:39:44Z</time>
      </trkpt>
      <trkpt lat="43.61494" lon="3.82206">
        <ele>49</ele>
        <time>2021-02-28T11:39:45Z</time>
      </trkpt>
      <trkpt lat="43.61497" lon="3.82206">
        <ele>49</ele>
        <time>2021-02-28T11:39:46Z</time>
      </trkpt>
      <trkpt lat="43.615" lon="3.82206">
        <ele>49</ele>
        <time>2021-02-28T11:39:47Z</time>
      </trkpt>
      <trkpt lat="43.61504" lon="3.82207">
        <ele>49</ele>
        <time>2021-02-28T11:39:48Z</time>
      </trkpt>
      <trkpt lat="43.61507" lon="3.82206">
        <ele>49</ele>
        <time>2021-02-28T11:39:49Z</time>
      </trkpt>
      <trkpt lat="43.6151" lon="3.82205">
        <ele>49</ele>
        <time>2021-02-28T11:39:50Z</time>
      </trkpt>
      <trkpt lat="43.61513" lon="3.82203">
        <ele>49</ele>
        <time>2021-02-28T11:39:51Z</time>
      </trkpt>
      <trkpt lat="43.61515" lon="3.82199">
        <ele>49</ele>
        <time>2021-02-28T11:39:52Z</time>
      </trkpt>
      <trkpt lat="43.61517" lon="3.82196">
        <ele>49</ele>
        <time>2021-02-28T11:39:53Z</time>
      </trkpt>
      <trkpt lat="43.61518" lon="3.82192">
        <ele>49</ele>
        <time>2021-02-28T11:39:54Z</time>
      </trkpt>
      <trkpt lat="43.61518" lon="3.82188">
        <ele>49</ele>
        <time>2021-02-28T11:39:55Z</time>
      </trkpt>
      <trkpt lat="43.61519" lon="3.82183">
        <ele>49</ele>
        <time>2021-02-28T11:39:56Z</time>
      </trkpt>
      <trkpt lat="43.61519" lon="3.82178">
        <ele>49</ele>
        <time>2021-02-28T11:39:57Z</time>
      </trkpt>
      <trkpt lat="43.61519" lon="3.82173">
        <ele>49</ele>
        <time>2021-02-28T11:39:58Z</time>
      </trkpt>
      <trkpt lat="43.61519" lon="3.82167">
        <ele>49</ele>
        <time>2021-02-28T11:39:59Z</time>
      </trkpt>
      <trkpt lat="43.6152" lon="3.82162">
        <ele>49</ele>
        <time>2021-02-28T11:40:00Z</time>
      </trkpt>
      <trkpt lat="43.6152" lon="3.82156">
        <ele>49</ele>
        <time>2021-02-28T11:40:01Z</time>
      </trkpt>
      <trkpt lat="43.6152" lon="3.8215">
        <ele>49</ele>
        <time>2021-02-28T11:40:02Z</time>
      </trkpt>
      <trkpt lat="43.61521" lon="3.82144">
        <ele>49</ele>
        <time>2021-02-28T11:40:03Z</time>
      </trkpt>
      <trkpt lat="43.61522" lon="3.82138">
        <ele>48</ele>
        <time>2021-02-28T11:40:04Z</time>
      </trkpt>
      <trkpt lat="43.61522" lon="3.82132">
        <ele>48</ele>
        <time>2021-02-28T11:40:05Z</time>
      </trkpt>
      <trkpt lat="43.61523" lon="3.82126">
        <ele>48</ele>
        <time>2021-02-28T11:40:06Z</time>
      </trkpt>
      <trkpt lat="43.61524" lon="3.82121">
        <ele>48</ele>
        <time>2021-02-28T11:40:07Z</time>
      </trkpt>
      <trkpt lat="43.61524" lon="3.82115">
        <ele>48</ele>
        <time>2021-02-28T11:40:08Z</time>
      </trkpt>
      <trkpt lat="43.61525" lon="3.82109">
        <ele>48</ele>
        <time>2021-02-28T11:40:09Z</time>
      </trkpt>
      <trkpt lat="43.61526" lon="3.82102">
        <ele>48</ele>
        <time>2021-02-28T11:40:10Z</time>
      </trkpt>
      <trkpt lat="43.61527" lon="3.82096">
        <ele>48</ele>
        <time>2021-02-28T11:40:11Z</time>
      </trkpt>
      <trkpt lat="43.61528" lon="3.82089">
        <ele>48</ele>
        <time>2021-02-28T11:40:12Z</time>
      </trkpt>
      <trkpt lat="43.61528" lon="3.82082">
        <ele>48</ele>
        <time>2021-02-28T11:40:13Z</time>
      </trkpt>
      <trkpt lat="43.61529" lon="3.82076">
        <ele>47</ele>
        <time>2021-02-28T11:40:14Z</time>
      </trkpt>
      <trkpt lat="43.61529" lon="3.82069">
        <ele>47</ele>
        <time>2021-02-28T11:40:15Z</time>
      </trkpt>
      <trkpt lat="43.61529" lon="3.82063">
        <ele>47</ele>
        <time>2021-02-28T11:40:16Z</time>
      </trkpt>
      <trkpt lat="43.61529" lon="3.82057">
        <ele>47</ele>
        <time>2021-02-28T11:40:17Z</time>
      </trkpt>
      <trkpt lat="43.6153" lon="3.8205">
        <ele>47</ele>
        <time>2021-02-28T11:40:18Z</time>
      </trkpt>
      <trkpt lat="43.6153" lon="3.82045">
        <ele>47</ele>
        <time>2021-02-28T11:40:19Z</time>
      </trkpt>
      <trkpt lat="43.61531" lon="3.82039">
        <ele>47</ele>
        <time>2021-02-28T11:40:20Z</time>
      </trkpt>
      <trkpt lat="43.61531" lon="3.82035">
        <ele>47</ele>
        <time>2021-02-28T11:40:21Z</time>
      </trkpt>
      <trkpt lat="43.61531" lon="3.82027">
        <ele>47</ele>
        <time>2021-02-28T11:40:23Z</time>
      </trkpt>
      <trkpt lat="43.61531" lon="3.82023">
        <ele>45</ele>
        <time>2021-02-28T11:40:24Z</time>
      </trkpt>
      <trkpt lat="43.61531" lon="3.82018">
        <ele>45</ele>
        <time>2021-02-28T11:40:25Z</time>
      </trkpt>
      <trkpt lat="43.61532" lon="3.82013">
        <ele>45</ele>
        <time>2021-02-28T11:40:26Z</time>
      </trkpt>
      <trkpt lat="43.61534" lon="3.82009">
        <ele>45</ele>
        <time>2021-02-28T11:40:27Z</time>
      </trkpt>
      <trkpt lat="43.61535" lon="3.82005">
        <ele>45</ele>
        <time>2021-02-28T11:40:28Z</time>
      </trkpt>
      <trkpt lat="43.61536" lon="3.82001">
        <ele>45</ele>
        <time>2021-02-28T11:40:29Z</time>
      </trkpt>
      <trkpt lat="43.61536" lon="3.81996">
        <ele>45</ele>
        <time>2021-02-28T11:40:30Z</time>
      </trkpt>
      <trkpt lat="43.61537" lon="3.81991">
        <ele>45</ele>
        <time>2021-02-28T11:40:31Z</time>
      </trkpt>
      <trkpt lat="43.61538" lon="3.81987">
        <ele>45</ele>
        <time>2021-02-28T11:40:32Z</time>
      </trkpt>
      <trkpt lat="43.61539" lon="3.81982">
        <ele>45</ele>
        <time>2021-02-28T11:40:33Z</time>
      </trkpt>
      <trkpt lat="43.61539" lon="3.81977">
        <ele>44</ele>
        <time>2021-02-28T11:40:34Z</time>
      </trkpt>
      <trkpt lat="43.6154" lon="3.81973">
        <ele>44</ele>
        <time>2021-02-28T11:40:35Z</time>
      </trkpt>
      <trkpt lat="43.6154" lon="3.81968">
        <ele>44</ele>
        <time>2021-02-28T11:40:36Z</time>
      </trkpt>
      <trkpt lat="43.61541" lon="3.81963">
        <ele>44</ele>
        <time>2021-02-28T11:40:37Z</time>
      </trkpt>
      <trkpt lat="43.61542" lon="3.81958">
        <ele>44</ele>
        <time>2021-02-28T11:40:38Z</time>
      </trkpt>
      <trkpt lat="43.61543" lon="3.81953">
        <ele>44</ele>
        <time>2021-02-28T11:40:39Z</time>
      </trkpt>
      <trkpt lat="43.61545" lon="3.81948">
        <ele>44</ele>
        <time>2021-02-28T11:40:40Z</time>
      </trkpt>
      <trkpt lat="43.61546" lon="3.81943">
        <ele>44</ele>
        <time>2021-02-28T11:40:41Z</time>
      </trkpt>
      <trkpt lat="43.61547" lon="3.81937">
        <ele>44</ele>
        <time>2021-02-28T11:40:42Z</time>
      </trkpt>
      <trkpt lat="43.61548" lon="3.81932">
        <ele>44</ele>
        <time>2021-02-28T11:40:43Z</time>
      </trkpt>
      <trkpt lat="43.61549" lon="3.81926">
        <ele>42</ele>
        <time>2021-02-28T11:40:44Z</time>
      </trkpt>
      <trkpt lat="43.6155" lon="3.81921">
        <ele>42</ele>
        <time>2021-02-28T11:40:45Z</time>
      </trkpt>
      <trkpt lat="43.6155" lon="3.81916">
        <ele>42</ele>
        <time>2021-02-28T11:40:46Z</time>
      </trkpt>
      <trkpt lat="43.61551" lon="3.81911">
        <ele>42</ele>
        <time>2021-02-28T11:40:47Z</time>
      </trkpt>
      <trkpt lat="43.61551" lon="3.81905">
        <ele>42</ele>
        <time>2021-02-28T11:40:48Z</time>
      </trkpt>
      <trkpt lat="43.61552" lon="3.819">
        <ele>42</ele>
        <time>2021-02-28T11:40:49Z</time>
      </trkpt>
      <trkpt lat="43.61552" lon="3.81895">
        <ele>42</ele>
        <time>2021-02-28T11:40:50Z</time>
      </trkpt>
      <trkpt lat="43.61553" lon="3.8189">
        <ele>42</ele>
        <time>2021-02-28T11:40:51Z</time>
      </trkpt>
      <trkpt lat="43.61553" lon="3.81885">
        <ele>42</ele>
        <time>2021-02-28T11:40:52Z</time>
      </trkpt>
      <trkpt lat="43.61553" lon="3.8188">
        <ele>42</ele>
        <time>2021-02-28T11:40:53Z</time>
      </trkpt>
      <trkpt lat="43.61552" lon="3.81874">
        <ele>42</ele>
        <time>2021-02-28T11:40:54Z</time>
      </trkpt>
      <trkpt lat="43.61552" lon="3.81869">
        <ele>42</ele>
        <time>2021-02-28T11:40:55Z</time>
      </trkpt>
      <trkpt lat="43.61551" lon="3.81863">
        <ele>42</ele>
        <time>2021-02-28T11:40:56Z</time>
      </trkpt>
      <trkpt lat="43.6155" lon="3.81857">
        <ele>42</ele>
        <time>2021-02-28T11:40:57Z</time>
      </trkpt>
      <trkpt lat="43.61549" lon="3.81851">
        <ele>42</ele>
        <time>2021-02-28T11:40:58Z</time>
      </trkpt>
      <trkpt lat="43.61547" lon="3.81846">
        <ele>42</ele>
        <time>2021-02-28T11:40:59Z</time>
      </trkpt>
      <trkpt lat="43.61546" lon="3.81841">
        <ele>42</ele>
        <time>2021-02-28T11:41:00Z</time>
      </trkpt>
      <trkpt lat="43.61545" lon="3.81835">
        <ele>42</ele>
        <time>2021-02-28T11:41:01Z</time>
      </trkpt>
      <trkpt lat="43.61543" lon="3.8183">
        <ele>42</ele>
        <time>2021-02-28T11:41:02Z</time>
      </trkpt>
      <trkpt lat="43.61541" lon="3.81824">
        <ele>42</ele>
        <time>2021-02-28T11:41:03Z</time>
      </trkpt>
      <trkpt lat="43.6154" lon="3.81819">
        <ele>41</ele>
        <time>2021-02-28T11:41:04Z</time>
      </trkpt>
      <trkpt lat="43.61539" lon="3.81813">
        <ele>41</ele>
        <time>2021-02-28T11:41:05Z</time>
      </trkpt>
      <trkpt lat="43.61537" lon="3.81807">
        <ele>41</ele>
        <time>2021-02-28T11:41:06Z</time>
      </trkpt>
      <trkpt lat="43.61536" lon="3.81802">
        <ele>41</ele>
        <time>2021-02-28T11:41:07Z</time>
      </trkpt>
      <trkpt lat="43.61534" lon="3.81796">
        <ele>41</ele>
        <time>2021-02-28T11:41:08Z</time>
      </trkpt>
      <trkpt lat="43.61533" lon="3.81791">
        <ele>41</ele>
        <time>2021-02-28T11:41:09Z</time>
      </trkpt>
      <trkpt lat="43.61531" lon="3.81786">
        <ele>41</ele>
        <time>2021-02-28T11:41:10Z</time>
      </trkpt>
      <trkpt lat="43.6153" lon="3.8178">
        <ele>41</ele>
        <time>2021-02-28T11:41:11Z</time>
      </trkpt>
      <trkpt lat="43.61528" lon="3.81775">
        <ele>41</ele>
        <time>2021-02-28T11:41:12Z</time>
      </trkpt>
      <trkpt lat="43.61527" lon="3.8177">
        <ele>41</ele>
        <time>2021-02-28T11:41:13Z</time>
      </trkpt>
      <trkpt lat="43.61525" lon="3.81765">
        <ele>41</ele>
        <time>2021-02-28T11:41:14Z</time>
      </trkpt>
      <trkpt lat="43.61524" lon="3.8176">
        <ele>41</ele>
        <time>2021-02-28T11:41:15Z</time>
      </trkpt>
      <trkpt lat="43.61523" lon="3.81755">
        <ele>41</ele>
        <time>2021-02-28T11:41:16Z</time>
      </trkpt>
      <trkpt lat="43.61522" lon="3.81751">
        <ele>41</ele>
        <time>2021-02-28T11:41:17Z</time>
      </trkpt>
      <trkpt lat="43.6152" lon="3.81746">
        <ele>41</ele>
        <time>2021-02-28T11:41:18Z</time>
      </trkpt>
      <trkpt lat="43.61519" lon="3.81741">
        <ele>41</ele>
        <time>2021-02-28T11:41:19Z</time>
      </trkpt>
      <trkpt lat="43.61518" lon="3.81736">
        <ele>41</ele>
        <time>2021-02-28T11:41:20Z</time>
      </trkpt>
      <trkpt lat="43.61516" lon="3.81731">
        <ele>41</ele>
        <time>2021-02-28T11:41:21Z</time>
      </trkpt>
      <trkpt lat="43.61515" lon="3.81726">
        <ele>41</ele>
        <time>2021-02-28T11:41:22Z</time>
      </trkpt>
      <trkpt lat="43.61514" lon="3.81722">
        <ele>41</ele>
        <time>2021-02-28T11:41:23Z</time>
      </trkpt>
      <trkpt lat="43.61513" lon="3.81717">
        <ele>41</ele>
        <time>2021-02-28T11:41:24Z</time>
      </trkpt>
      <trkpt lat="43.61511" lon="3.81713">
        <ele>41</ele>
        <time>2021-02-28T11:41:25Z</time>
      </trkpt>
      <trkpt lat="43.6151" lon="3.81708">
        <ele>41</ele>
        <time>2021-02-28T11:41:26Z</time>
      </trkpt>
      <trkpt lat="43.61509" lon="3.81703">
        <ele>41</ele>
        <time>2021-02-28T11:41:27Z</time>
      </trkpt>
      <trkpt lat="43.61508" lon="3.81698">
        <ele>41</ele>
        <time>2021-02-28T11:41:28Z</time>
      </trkpt>
      <trkpt lat="43.61506" lon="3.81692">
        <ele>41</ele>
        <time>2021-02-28T11:41:29Z</time>
      </trkpt>
      <trkpt lat="43.61505" lon="3.81687">
        <ele>41</ele>
        <time>2021-02-28T11:41:30Z</time>
      </trkpt>
      <trkpt lat="43.61503" lon="3.81682">
        <ele>41</ele>
        <time>2021-02-28T11:41:31Z</time>
      </trkpt>
      <trkpt lat="43.61502" lon="3.81677">
        <ele>41</ele>
        <time>2021-02-28T11:41:32Z</time>
      </trkpt>
      <trkpt lat="43.615" lon="3.81672">
        <ele>41</ele>
        <time>2021-02-28T11:41:33Z</time>
      </trkpt>
      <trkpt lat="43.61499" lon="3.81667">
        <ele>42</ele>
        <time>2021-02-28T11:41:34Z</time>
      </trkpt>
      <trkpt lat="43.61498" lon="3.81662">
        <ele>42</ele>
        <time>2021-02-28T11:41:35Z</time>
      </trkpt>
      <trkpt lat="43.61496" lon="3.81657">
        <ele>42</ele>
        <time>2021-02-28T11:41:36Z</time>
      </trkpt>
      <trkpt lat="43.61495" lon="3.81652">
        <ele>42</ele>
        <time>2021-02-28T11:41:37Z</time>
      </trkpt>
      <trkpt lat="43.61493" lon="3.81647">
        <ele>42</ele>
        <time>2021-02-28T11:41:38Z</time>
      </trkpt>
      <trkpt lat="43.61492" lon="3.81642">
        <ele>42</ele>
        <time>2021-02-28T11:41:39Z</time>
      </trkpt>
      <trkpt lat="43.61491" lon="3.81638">
        <ele>42</ele>
        <time>2021-02-28T11:41:40Z</time>
      </trkpt>
      <trkpt lat="43.6149" lon="3.81634">
        <ele>42</ele>
        <time>2021-02-28T11:41:41Z</time>
      </trkpt>
      <trkpt lat="43.61488" lon="3.8163">
        <ele>42</ele>
        <time>2021-02-28T11:41:42Z</time>
      </trkpt>
      <trkpt lat="43.61486" lon="3.81625">
        <ele>42</ele>
        <time>2021-02-28T11:41:43Z</time>
      </trkpt>
      <trkpt lat="43.61485" lon="3.8162">
        <ele>42</ele>
        <time>2021-02-28T11:41:44Z</time>
      </trkpt>
      <trkpt lat="43.61483" lon="3.81615">
        <ele>42</ele>
        <time>2021-02-28T11:41:45Z</time>
      </trkpt>
      <trkpt lat="43.61482" lon="3.81611">
        <ele>42</ele>
        <time>2021-02-28T11:41:46Z</time>
      </trkpt>
      <trkpt lat="43.61481" lon="3.81606">
        <ele>42</ele>
        <time>2021-02-28T11:41:47Z</time>
      </trkpt>
      <trkpt lat="43.6148" lon="3.81602">
        <ele>42</ele>
        <time>2021-02-28T11:41:48Z</time>
      </trkpt>
      <trkpt lat="43.61478" lon="3.81597">
        <ele>42</ele>
        <time>2021-02-28T11:41:49Z</time>
      </trkpt>
      <trkpt lat="43.61477" lon="3.81593">
        <ele>42</ele>
        <time>2021-02-28T11:41:50Z</time>
      </trkpt>
      <trkpt lat="43.61476" lon="3.81588">
        <ele>42</ele>
        <time>2021-02-28T11:41:51Z</time>
      </trkpt>
      <trkpt lat="43.61475" lon="3.81584">
        <ele>42</ele>
        <time>2021-02-28T11:41:52Z</time>
      </trkpt>
      <trkpt lat="43.61474" lon="3.8158">
        <ele>42</ele>
        <time>2021-02-28T11:41:53Z</time>
      </trkpt>
      <trkpt lat="43.61473" lon="3.81576">
        <ele>43</ele>
        <time>2021-02-28T11:41:54Z</time>
      </trkpt>
      <trkpt lat="43.61472" lon="3.81572">
        <ele>43</ele>
        <time>2021-02-28T11:41:55Z</time>
      </trkpt>
      <trkpt lat="43.61471" lon="3.81568">
        <ele>43</ele>
        <time>2021-02-28T11:41:56Z</time>
      </trkpt>
      <trkpt lat="43.6147" lon="3.81566">
        <ele>43</ele>
        <time>2021-02-28T11:41:57Z</time>
      </trkpt>
      <trkpt lat="43.61469" lon="3.81564">
        <ele>43</ele>
        <time>2021-02-28T11:41:58Z</time>
      </trkpt>
      <trkpt lat="43.61466" lon="3.81564">
        <ele>43</ele>
        <time>2021-02-28T11:41:59Z</time>
      </trkpt>
      <trkpt lat="43.61464" lon="3.81565">
        <ele>43</ele>
        <time>2021-02-28T11:42:00Z</time>
      </trkpt>
      <trkpt lat="43.61462" lon="3.81567">
        <ele>43</ele>
        <time>2021-02-28T11:42:01Z</time>
      </trkpt>
      <trkpt lat="43.61462" lon="3.81569">
        <ele>43</ele>
        <time>2021-02-28T11:42:02Z</time>
      </trkpt>
      <trkpt lat="43.61462" lon="3.81573">
        <ele>43</ele>
        <time>2021-02-28T11:42:03Z</time>
      </trkpt>
      <trkpt lat="43.61461" lon="3.81578">
        <ele>42</ele>
        <time>2021-02-28T11:42:04Z</time>
      </trkpt>
      <trkpt lat="43.61461" lon="3.81583">
        <ele>42</ele>
        <time>2021-02-28T11:42:05Z</time>
      </trkpt>
      <trkpt lat="43.6146" lon="3.81588">
        <ele>42</ele>
        <time>2021-02-28T11:42:06Z</time>
      </trkpt>
      <trkpt lat="43.61459" lon="3.81593">
        <ele>42</ele>
        <time>2021-02-28T11:42:07Z</time>
      </trkpt>
      <trkpt lat="43.61459" lon="3.81598">
        <ele>42</ele>
        <time>2021-02-28T11:42:08Z</time>
      </trkpt>
      <trkpt lat="43.61458" lon="3.81602">
        <ele>42</ele>
        <time>2021-02-28T11:42:09Z</time>
      </trkpt>
      <trkpt lat="43.61458" lon="3.81606">
        <ele>42</ele>
        <time>2021-02-28T11:42:10Z</time>
      </trkpt>
      <trkpt lat="43.61457" lon="3.81612">
        <ele>42</ele>
        <time>2021-02-28T11:42:11Z</time>
      </trkpt>
      <trkpt lat="43.61457" lon="3.81618">
        <ele>42</ele>
        <time>2021-02-28T11:42:12Z</time>
      </trkpt>
      <trkpt lat="43.61456" lon="3.81624">
        <ele>42</ele>
        <time>2021-02-28T11:42:13Z</time>
      </trkpt>
      <trkpt lat="43.61455" lon="3.81629">
        <ele>42</ele>
        <time>2021-02-28T11:42:14Z</time>
      </trkpt>
      <trkpt lat="43.61455" lon="3.81634">
        <ele>42</ele>
        <time>2021-02-28T11:42:15Z</time>
      </trkpt>
      <trkpt lat="43.61454" lon="3.81641">
        <ele>42</ele>
        <time>2021-02-28T11:42:16Z</time>
      </trkpt>
      <trkpt lat="43.61454" lon="3.81647">
        <ele>42</ele>
        <time>2021-02-28T11:42:17Z</time>
      </trkpt>
      <trkpt lat="43.61454" lon="3.81654">
        <ele>42</ele>
        <time>2021-02-28T11:42:18Z</time>
      </trkpt>
      <trkpt lat="43.61455" lon="3.81658">
        <ele>42</ele>
        <time>2021-02-28T11:42:19Z</time>
      </trkpt>
      <trkpt lat="43.61456" lon="3.81663">
        <ele>42</ele>
        <time>2021-02-28T11:42:20Z</time>
      </trkpt>
      <trkpt lat="43.61457" lon="3.81669">
        <ele>42</ele>
        <time>2021-02-28T11:42:21Z</time>
      </trkpt>
      <trkpt lat="43.61456" lon="3.81674">
        <ele>42</ele>
        <time>2021-02-28T11:42:22Z</time>
      </trkpt>
      <trkpt lat="43.61454" lon="3.8168">
        <ele>42</ele>
        <time>2021-02-28T11:42:23Z</time>
      </trkpt>
      <trkpt lat="43.61451" lon="3.81685">
        <ele>41</ele>
        <time>2021-02-28T11:42:24Z</time>
      </trkpt>
      <trkpt lat="43.61447" lon="3.81689">
        <ele>41</ele>
        <time>2021-02-28T11:42:25Z</time>
      </trkpt>
      <trkpt lat="43.61443" lon="3.81693">
        <ele>41</ele>
        <time>2021-02-28T11:42:26Z</time>
      </trkpt>
      <trkpt lat="43.61439" lon="3.81695">
        <ele>41</ele>
        <time>2021-02-28T11:42:27Z</time>
      </trkpt>
      <trkpt lat="43.61436" lon="3.81697">
        <ele>41</ele>
        <time>2021-02-28T11:42:28Z</time>
      </trkpt>
      <trkpt lat="43.61431" lon="3.81699">
        <ele>41</ele>
        <time>2021-02-28T11:42:29Z</time>
      </trkpt>
      <trkpt lat="43.61427" lon="3.81701">
        <ele>41</ele>
        <time>2021-02-28T11:42:30Z</time>
      </trkpt>
      <trkpt lat="43.61424" lon="3.81702">
        <ele>41</ele>
        <time>2021-02-28T11:42:31Z</time>
      </trkpt>
      <trkpt lat="43.61421" lon="3.81704">
        <ele>41</ele>
        <time>2021-02-28T11:42:32Z</time>
      </trkpt>
      <trkpt lat="43.61418" lon="3.81705">
        <ele>41</ele>
        <time>2021-02-28T11:42:33Z</time>
      </trkpt>
      <trkpt lat="43.61417" lon="3.81707">
        <ele>41</ele>
        <time>2021-02-28T11:42:34Z</time>
      </trkpt>
      <trkpt lat="43.61418" lon="3.81713">
        <ele>41</ele>
        <time>2021-02-28T11:42:36Z</time>
      </trkpt>
      <trkpt lat="43.61418" lon="3.81718">
        <ele>41</ele>
        <time>2021-02-28T11:42:37Z</time>
      </trkpt>
      <trkpt lat="43.61415" lon="3.81722">
        <ele>41</ele>
        <time>2021-02-28T11:42:38Z</time>
      </trkpt>
      <trkpt lat="43.61412" lon="3.81726">
        <ele>41</ele>
        <time>2021-02-28T11:42:39Z</time>
      </trkpt>
      <trkpt lat="43.61409" lon="3.8173">
        <ele>41</ele>
        <time>2021-02-28T11:42:40Z</time>
      </trkpt>
      <trkpt lat="43.61406" lon="3.81734">
        <ele>41</ele>
        <time>2021-02-28T11:42:41Z</time>
      </trkpt>
      <trkpt lat="43.61403" lon="3.81736">
        <ele>41</ele>
        <time>2021-02-28T11:42:42Z</time>
      </trkpt>
      <trkpt lat="43.614" lon="3.81738">
        <ele>41</ele>
        <time>2021-02-28T11:42:43Z</time>
      </trkpt>
      <trkpt lat="43.61397" lon="3.8174">
        <ele>40</ele>
        <time>2021-02-28T11:42:44Z</time>
      </trkpt>
      <trkpt lat="43.61394" lon="3.81741">
        <ele>40</ele>
        <time>2021-02-28T11:42:45Z</time>
      </trkpt>
      <trkpt lat="43.6139" lon="3.81744">
        <ele>40</ele>
        <time>2021-02-28T11:42:46Z</time>
      </trkpt>
      <trkpt lat="43.61385" lon="3.81746">
        <ele>40</ele>
        <time>2021-02-28T11:42:47Z</time>
      </trkpt>
      <trkpt lat="43.61381" lon="3.81748">
        <ele>40</ele>
        <time>2021-02-28T11:42:48Z</time>
      </trkpt>
      <trkpt lat="43.61377" lon="3.8175">
        <ele>40</ele>
        <time>2021-02-28T11:42:49Z</time>
      </trkpt>
      <trkpt lat="43.61372" lon="3.81752">
        <ele>40</ele>
        <time>2021-02-28T11:42:50Z</time>
      </trkpt>
      <trkpt lat="43.61368" lon="3.81753">
        <ele>40</ele>
        <time>2021-02-28T11:42:51Z</time>
      </trkpt>
      <trkpt lat="43.61364" lon="3.81754">
        <ele>40</ele>
        <time>2021-02-28T11:42:52Z</time>
      </trkpt>
      <trkpt lat="43.6136" lon="3.81755">
        <ele>40</ele>
        <time>2021-02-28T11:42:53Z</time>
      </trkpt>
      <trkpt lat="43.61356" lon="3.81756">
        <ele>40</ele>
        <time>2021-02-28T11:42:54Z</time>
      </trkpt>
      <trkpt lat="43.61352" lon="3.81757">
        <ele>40</ele>
        <time>2021-02-28T11:42:55Z</time>
      </trkpt>
      <trkpt lat="43.61348" lon="3.81758">
        <ele>40</ele>
        <time>2021-02-28T11:42:56Z</time>
      </trkpt>
      <trkpt lat="43.61345" lon="3.81759">
        <ele>40</ele>
        <time>2021-02-28T11:42:57Z</time>
      </trkpt>
      <trkpt lat="43.61341" lon="3.81759">
        <ele>40</ele>
        <time>2021-02-28T11:42:58Z</time>
      </trkpt>
      <trkpt lat="43.61338" lon="3.8176">
        <ele>40</ele>
        <time>2021-02-28T11:42:59Z</time>
      </trkpt>
      <trkpt lat="43.61334" lon="3.81761">
        <ele>40</ele>
        <time>2021-02-28T11:43:00Z</time>
      </trkpt>
      <trkpt lat="43.61331" lon="3.81761">
        <ele>40</ele>
        <time>2021-02-28T11:43:01Z</time>
      </trkpt>
      <trkpt lat="43.61328" lon="3.81762">
        <ele>40</ele>
        <time>2021-02-28T11:43:02Z</time>
      </trkpt>
      <trkpt lat="43.61325" lon="3.81762">
        <ele>40</ele>
        <time>2021-02-28T11:43:03Z</time>
      </trkpt>
      <trkpt lat="43.61321" lon="3.81761">
        <ele>42</ele>
        <time>2021-02-28T11:43:04Z</time>
      </trkpt>
      <trkpt lat="43.61317" lon="3.81762">
        <ele>42</ele>
        <time>2021-02-28T11:43:05Z</time>
      </trkpt>
      <trkpt lat="43.61314" lon="3.81762">
        <ele>42</ele>
        <time>2021-02-28T11:43:06Z</time>
      </trkpt>
      <trkpt lat="43.6131" lon="3.81762">
        <ele>42</ele>
        <time>2021-02-28T11:43:07Z</time>
      </trkpt>
      <trkpt lat="43.61306" lon="3.81763">
        <ele>42</ele>
        <time>2021-02-28T11:43:08Z</time>
      </trkpt>
      <trkpt lat="43.61302" lon="3.81764">
        <ele>42</ele>
        <time>2021-02-28T11:43:09Z</time>
      </trkpt>
      <trkpt lat="43.61298" lon="3.81764">
        <ele>42</ele>
        <time>2021-02-28T11:43:10Z</time>
      </trkpt>
      <trkpt lat="43.61294" lon="3.81765">
        <ele>42</ele>
        <time>2021-02-28T11:43:11Z</time>
      </trkpt>
      <trkpt lat="43.6129" lon="3.81765">
        <ele>42</ele>
        <time>2021-02-28T11:43:12Z</time>
      </trkpt>
      <trkpt lat="43.61286" lon="3.81766">
        <ele>42</ele>
        <time>2021-02-28T11:43:13Z</time>
      </trkpt>
      <trkpt lat="43.61282" lon="3.81767">
        <ele>43</ele>
        <time>2021-02-28T11:43:14Z</time>
      </trkpt>
      <trkpt lat="43.61278" lon="3.81767">
        <ele>43</ele>
        <time>2021-02-28T11:43:15Z</time>
      </trkpt>
      <trkpt lat="43.61275" lon="3.81768">
        <ele>43</ele>
        <time>2021-02-28T11:43:16Z</time>
      </trkpt>
      <trkpt lat="43.61272" lon="3.81769">
        <ele>43</ele>
        <time>2021-02-28T11:43:17Z</time>
      </trkpt>
      <trkpt lat="43.61269" lon="3.8177">
        <ele>43</ele>
        <time>2021-02-28T11:43:18Z</time>
      </trkpt>
      <trkpt lat="43.61265" lon="3.81771">
        <ele>43</ele>
        <time>2021-02-28T11:43:19Z</time>
      </trkpt>
      <trkpt lat="43.61262" lon="3.81773">
        <ele>43</ele>
        <time>2021-02-28T11:43:20Z</time>
      </trkpt>
      <trkpt lat="43.61258" lon="3.81774">
        <ele>43</ele>
        <time>2021-02-28T11:43:21Z</time>
      </trkpt>
      <trkpt lat="43.61254" lon="3.81776">
        <ele>43</ele>
        <time>2021-02-28T11:43:22Z</time>
      </trkpt>
      <trkpt lat="43.6125" lon="3.81778">
        <ele>43</ele>
        <time>2021-02-28T11:43:23Z</time>
      </trkpt>
      <trkpt lat="43.61247" lon="3.8178">
        <ele>44</ele>
        <time>2021-02-28T11:43:24Z</time>
      </trkpt>
      <trkpt lat="43.61243" lon="3.81782">
        <ele>44</ele>
        <time>2021-02-28T11:43:25Z</time>
      </trkpt>
      <trkpt lat="43.61239" lon="3.81785">
        <ele>44</ele>
        <time>2021-02-28T11:43:26Z</time>
      </trkpt>
      <trkpt lat="43.61235" lon="3.81787">
        <ele>44</ele>
        <time>2021-02-28T11:43:27Z</time>
      </trkpt>
      <trkpt lat="43.61231" lon="3.81788">
        <ele>44</ele>
        <time>2021-02-28T11:43:28Z</time>
      </trkpt>
      <trkpt lat="43.61227" lon="3.81791">
        <ele>44</ele>
        <time>2021-02-28T11:43:29Z</time>
      </trkpt>
      <trkpt lat="43.61224" lon="3.81794">
        <ele>44</ele>
        <time>2021-02-28T11:43:30Z</time>
      </trkpt>
      <trkpt lat="43.6122" lon="3.81796">
        <ele>44</ele>
        <time>2021-02-28T11:43:31Z</time>
      </trkpt>
      <trkpt lat="43.61216" lon="3.818">
        <ele>44</ele>
        <time>2021-02-28T11:43:32Z</time>
      </trkpt>
      <trkpt lat="43.61213" lon="3.81803">
        <ele>44</ele>
        <time>2021-02-28T11:43:33Z</time>
      </trkpt>
      <trkpt lat="43.61209" lon="3.81806">
        <ele>44</ele>
        <time>2021-02-28T11:43:34Z</time>
      </trkpt>
      <trkpt lat="43.61205" lon="3.81809">
        <ele>44</ele>
        <time>2021-02-28T11:43:35Z</time>
      </trkpt>
      <trkpt lat="43.61202" lon="3.81811">
        <ele>44</ele>
        <time>2021-02-28T11:43:36Z</time>
      </trkpt>
      <trkpt lat="43.61198" lon="3.81813">
        <ele>44</ele>
        <time>2021-02-28T11:43:37Z</time>
      </trkpt>
      <trkpt lat="43.61195" lon="3.81815">
        <ele>44</ele>
        <time>2021-02-28T11:43:38Z</time>
      </trkpt>
      <trkpt lat="43.61191" lon="3.81818">
        <ele>44</ele>
        <time>2021-02-28T11:43:39Z</time>
      </trkpt>
      <trkpt lat="43.61187" lon="3.81821">
        <ele>44</ele>
        <time>2021-02-28T11:43:40Z</time>
      </trkpt>
      <trkpt lat="43.61184" lon="3.81823">
        <ele>44</ele>
        <time>2021-02-28T11:43:41Z</time>
      </trkpt>
      <trkpt lat="43.6118" lon="3.81826">
        <ele>44</ele>
        <time>2021-02-28T11:43:42Z</time>
      </trkpt>
      <trkpt lat="43.61177" lon="3.81828">
        <ele>44</ele>
        <time>2021-02-28T11:43:43Z</time>
      </trkpt>
      <trkpt lat="43.61174" lon="3.81831">
        <ele>42</ele>
        <time>2021-02-28T11:43:44Z</time>
      </trkpt>
      <trkpt lat="43.61171" lon="3.81834">
        <ele>42</ele>
        <time>2021-02-28T11:43:45Z</time>
      </trkpt>
      <trkpt lat="43.61167" lon="3.81837">
        <ele>42</ele>
        <time>2021-02-28T11:43:46Z</time>
      </trkpt>
      <trkpt lat="43.61164" lon="3.8184">
        <ele>42</ele>
        <time>2021-02-28T11:43:47Z</time>
      </trkpt>
      <trkpt lat="43.6116" lon="3.81842">
        <ele>42</ele>
        <time>2021-02-28T11:43:48Z</time>
      </trkpt>
      <trkpt lat="43.61156" lon="3.81845">
        <ele>42</ele>
        <time>2021-02-28T11:43:49Z</time>
      </trkpt>
      <trkpt lat="43.61153" lon="3.81847">
        <ele>42</ele>
        <time>2021-02-28T11:43:50Z</time>
      </trkpt>
      <trkpt lat="43.6115" lon="3.8185">
        <ele>42</ele>
        <time>2021-02-28T11:43:51Z</time>
      </trkpt>
      <trkpt lat="43.61146" lon="3.81852">
        <ele>42</ele>
        <time>2021-02-28T11:43:52Z</time>
      </trkpt>
      <trkpt lat="43.61143" lon="3.81854">
        <ele>42</ele>
        <time>2021-02-28T11:43:53Z</time>
      </trkpt>
      <trkpt lat="43.61139" lon="3.81856">
        <ele>40</ele>
        <time>2021-02-28T11:43:54Z</time>
      </trkpt>
      <trkpt lat="43.61136" lon="3.81858">
        <ele>40</ele>
        <time>2021-02-28T11:43:55Z</time>
      </trkpt>
      <trkpt lat="43.61132" lon="3.81861">
        <ele>40</ele>
        <time>2021-02-28T11:43:56Z</time>
      </trkpt>
      <trkpt lat="43.61129" lon="3.81863">
        <ele>40</ele>
        <time>2021-02-28T11:43:57Z</time>
      </trkpt>
      <trkpt lat="43.61126" lon="3.81865">
        <ele>40</ele>
        <time>2021-02-28T11:43:58Z</time>
      </trkpt>
      <trkpt lat="43.61123" lon="3.81868">
        <ele>40</ele>
        <time>2021-02-28T11:43:59Z</time>
      </trkpt>
      <trkpt lat="43.61119" lon="3.8187">
        <ele>40</ele>
        <time>2021-02-28T11:44:00Z</time>
      </trkpt>
      <trkpt lat="43.61116" lon="3.81871">
        <ele>40</ele>
        <time>2021-02-28T11:44:01Z</time>
      </trkpt>
      <trkpt lat="43.61112" lon="3.81871">
        <ele>40</ele>
        <time>2021-02-28T11:44:02Z</time>
      </trkpt>
      <trkpt lat="43.61108" lon="3.81872">
        <ele>40</ele>
        <time>2021-02-28T11:44:03Z</time>
      </trkpt>
      <trkpt lat="43.61105" lon="3.81874">
        <ele>40</ele>
        <time>2021-02-28T11:44:04Z</time>
      </trkpt>
      <trkpt lat="43.61101" lon="3.81876">
        <ele>40</ele>
        <time>2021-02-28T11:44:05Z</time>
      </trkpt>
      <trkpt lat="43.61097" lon="3.81877">
        <ele>40</ele>
        <time>2021-02-28T11:44:06Z</time>
      </trkpt>
      <trkpt lat="43.61094" lon="3.81879">
        <ele>40</ele>
        <time>2021-02-28T11:44:07Z</time>
      </trkpt>
      <trkpt lat="43.6109" lon="3.81881">
        <ele>40</ele>
        <time>2021-02-28T11:44:08Z</time>
      </trkpt>
      <trkpt lat="43.61087" lon="3.81883">
        <ele>40</ele>
        <time>2021-02-28T11:44:09Z</time>
      </trkpt>
      <trkpt lat="43.61083" lon="3.81884">
        <ele>40</ele>
        <time>2021-02-28T11:44:10Z</time>
      </trkpt>
      <trkpt lat="43.6108" lon="3.81885">
        <ele>40</ele>
        <time>2021-02-28T11:44:11Z</time>
      </trkpt>
      <trkpt lat="43.61077" lon="3.81886">
        <ele>40</ele>
        <time>2021-02-28T11:44:12Z</time>
      </trkpt>
      <trkpt lat="43.61074" lon="3.81887">
        <ele>40</ele>
        <time>2021-02-28T11:44:13Z</time>
      </trkpt>
      <trkpt lat="43.6107" lon="3.81888">
        <ele>40</ele>
        <time>2021-02-28T11:44:14Z</time>
      </trkpt>
      <trkpt lat="43.61068" lon="3.81888">
        <ele>40</ele>
        <time>2021-02-28T11:44:15Z</time>
      </trkpt>
      <trkpt lat="43.61064" lon="3.81889">
        <ele>40</ele>
        <time>2021-02-28T11:44:16Z</time>
      </trkpt>
      <trkpt lat="43.61061" lon="3.81891">
        <ele>40</ele>
        <time>2021-02-28T11:44:17Z</time>
      </trkpt>
      <trkpt lat="43.61058" lon="3.81892">
        <ele>40</ele>
        <time>2021-02-28T11:44:18Z</time>
      </trkpt>
      <trkpt lat="43.61055" lon="3.81894">
        <ele>40</ele>
        <time>2021-02-28T11:44:19Z</time>
      </trkpt>
      <trkpt lat="43.61052" lon="3.81895">
        <ele>40</ele>
        <time>2021-02-28T11:44:20Z</time>
      </trkpt>
      <trkpt lat="43.61048" lon="3.81897">
        <ele>40</ele>
        <time>2021-02-28T11:44:21Z</time>
      </trkpt>
      <trkpt lat="43.61045" lon="3.81898">
        <ele>40</ele>
        <time>2021-02-28T11:44:22Z</time>
      </trkpt>
      <trkpt lat="43.61041" lon="3.81899">
        <ele>40</ele>
        <time>2021-02-28T11:44:23Z</time>
      </trkpt>
      <trkpt lat="43.61038" lon="3.81901">
        <ele>38</ele>
        <time>2021-02-28T11:44:24Z</time>
      </trkpt>
      <trkpt lat="43.61035" lon="3.81902">
        <ele>38</ele>
        <time>2021-02-28T11:44:25Z</time>
      </trkpt>
      <trkpt lat="43.61032" lon="3.81904">
        <ele>38</ele>
        <time>2021-02-28T11:44:26Z</time>
      </trkpt>
      <trkpt lat="43.61029" lon="3.81906">
        <ele>38</ele>
        <time>2021-02-28T11:44:27Z</time>
      </trkpt>
      <trkpt lat="43.61026" lon="3.81908">
        <ele>38</ele>
        <time>2021-02-28T11:44:28Z</time>
      </trkpt>
      <trkpt lat="43.61023" lon="3.8191">
        <ele>38</ele>
        <time>2021-02-28T11:44:29Z</time>
      </trkpt>
      <trkpt lat="43.61019" lon="3.81912">
        <ele>38</ele>
        <time>2021-02-28T11:44:30Z</time>
      </trkpt>
      <trkpt lat="43.61015" lon="3.81914">
        <ele>38</ele>
        <time>2021-02-28T11:44:31Z</time>
      </trkpt>
      <trkpt lat="43.61011" lon="3.81916">
        <ele>38</ele>
        <time>2021-02-28T11:44:32Z</time>
      </trkpt>
      <trkpt lat="43.61008" lon="3.81917">
        <ele>38</ele>
        <time>2021-02-28T11:44:33Z</time>
      </trkpt>
      <trkpt lat="43.61005" lon="3.81918">
        <ele>38</ele>
        <time>2021-02-28T11:44:34Z</time>
      </trkpt>
      <trkpt lat="43.61002" lon="3.8192">
        <ele>38</ele>
        <time>2021-02-28T11:44:35Z</time>
      </trkpt>
      <trkpt lat="43.61" lon="3.81921">
        <ele>38</ele>
        <time>2021-02-28T11:44:36Z</time>
      </trkpt>
      <trkpt lat="43.60998" lon="3.81923">
        <ele>38</ele>
        <time>2021-02-28T11:44:38Z</time>
      </trkpt>
      <trkpt lat="43.60998" lon="3.81926">
        <ele>38</ele>
        <time>2021-02-28T11:44:39Z</time>
      </trkpt>
      <trkpt lat="43.60996" lon="3.81929">
        <ele>38</ele>
        <time>2021-02-28T11:44:40Z</time>
      </trkpt>
      <trkpt lat="43.60994" lon="3.8193">
        <ele>38</ele>
        <time>2021-02-28T11:44:41Z</time>
      </trkpt>
      <trkpt lat="43.60991" lon="3.81931">
        <ele>38</ele>
        <time>2021-02-28T11:44:42Z</time>
      </trkpt>
      <trkpt lat="43.60988" lon="3.81933">
        <ele>38</ele>
        <time>2021-02-28T11:44:43Z</time>
      </trkpt>
      <trkpt lat="43.60986" lon="3.81933">
        <ele>38</ele>
        <time>2021-02-28T11:44:44Z</time>
      </trkpt>
      <trkpt lat="43.60983" lon="3.81933">
        <ele>38</ele>
        <time>2021-02-28T11:44:45Z</time>
      </trkpt>
      <trkpt lat="43.6098" lon="3.81933">
        <ele>38</ele>
        <time>2021-02-28T11:44:46Z</time>
      </trkpt>
      <trkpt lat="43.60978" lon="3.81933">
        <ele>38</ele>
        <time>2021-02-28T11:44:47Z</time>
      </trkpt>
      <trkpt lat="43.60976" lon="3.81933">
        <ele>38</ele>
        <time>2021-02-28T11:44:48Z</time>
      </trkpt>
      <trkpt lat="43.60973" lon="3.81934">
        <ele>38</ele>
        <time>2021-02-28T11:44:49Z</time>
      </trkpt>
      <trkpt lat="43.6097" lon="3.81934">
        <ele>38</ele>
        <time>2021-02-28T11:44:50Z</time>
      </trkpt>
      <trkpt lat="43.60967" lon="3.81936">
        <ele>38</ele>
        <time>2021-02-28T11:44:51Z</time>
      </trkpt>
      <trkpt lat="43.60964" lon="3.81936">
        <ele>38</ele>
        <time>2021-02-28T11:44:52Z</time>
      </trkpt>
      <trkpt lat="43.60961" lon="3.81937">
        <ele>38</ele>
        <time>2021-02-28T11:44:53Z</time>
      </trkpt>
      <trkpt lat="43.60958" lon="3.81938">
        <ele>39</ele>
        <time>2021-02-28T11:44:54Z</time>
      </trkpt>
      <trkpt lat="43.60956" lon="3.81938">
        <ele>39</ele>
        <time>2021-02-28T11:44:55Z</time>
      </trkpt>
      <trkpt lat="43.60953" lon="3.81938">
        <ele>39</ele>
        <time>2021-02-28T11:44:56Z</time>
      </trkpt>
      <trkpt lat="43.6095" lon="3.81938">
        <ele>39</ele>
        <time>2021-02-28T11:44:57Z</time>
      </trkpt>
      <trkpt lat="43.60947" lon="3.81939">
        <ele>39</ele>
        <time>2021-02-28T11:44:58Z</time>
      </trkpt>
      <trkpt lat="43.60944" lon="3.8194">
        <ele>39</ele>
        <time>2021-02-28T11:44:59Z</time>
      </trkpt>
      <trkpt lat="43.60941" lon="3.81941">
        <ele>39</ele>
        <time>2021-02-28T11:45:00Z</time>
      </trkpt>
      <trkpt lat="43.6094" lon="3.81943">
        <ele>39</ele>
        <time>2021-02-28T11:45:01Z</time>
      </trkpt>
      <trkpt lat="43.60937" lon="3.81945">
        <ele>39</ele>
        <time>2021-02-28T11:45:02Z</time>
      </trkpt>
      <trkpt lat="43.60934" lon="3.81946">
        <ele>39</ele>
        <time>2021-02-28T11:45:03Z</time>
      </trkpt>
      <trkpt lat="43.60931" lon="3.81947">
        <ele>38</ele>
        <time>2021-02-28T11:45:04Z</time>
      </trkpt>
      <trkpt lat="43.60928" lon="3.81948">
        <ele>38</ele>
        <time>2021-02-28T11:45:05Z</time>
      </trkpt>
      <trkpt lat="43.60925" lon="3.81949">
        <ele>38</ele>
        <time>2021-02-28T11:45:06Z</time>
      </trkpt>
      <trkpt lat="43.60922" lon="3.81949">
        <ele>38</ele>
        <time>2021-02-28T11:45:07Z</time>
      </trkpt>
      <trkpt lat="43.60919" lon="3.81949">
        <ele>38</ele>
        <time>2021-02-28T11:45:08Z</time>
      </trkpt>
      <trkpt lat="43.60917" lon="3.8195">
        <ele>38</ele>
        <time>2021-02-28T11:45:09Z</time>
      </trkpt>
      <trkpt lat="43.60914" lon="3.81951">
        <ele>38</ele>
        <time>2021-02-28T11:45:10Z</time>
      </trkpt>
      <trkpt lat="43.60911" lon="3.81952">
        <ele>38</ele>
        <time>2021-02-28T11:45:11Z</time>
      </trkpt>
      <trkpt lat="43.60908" lon="3.81953">
        <ele>38</ele>
        <time>2021-02-28T11:45:12Z</time>
      </trkpt>
      <trkpt lat="43.60904" lon="3.81955">
        <ele>38</ele>
        <time>2021-02-28T11:45:13Z</time>
      </trkpt>
      <trkpt lat="43.60901" lon="3.81956">
        <ele>37</ele>
        <time>2021-02-28T11:45:14Z</time>
      </trkpt>
      <trkpt lat="43.60898" lon="3.81957">
        <ele>37</ele>
        <time>2021-02-28T11:45:15Z</time>
      </trkpt>
      <trkpt lat="43.60895" lon="3.81958">
        <ele>37</ele>
        <time>2021-02-28T11:45:16Z</time>
      </trkpt>
      <trkpt lat="43.60892" lon="3.81959">
        <ele>37</ele>
        <time>2021-02-28T11:45:17Z</time>
      </trkpt>
      <trkpt lat="43.60889" lon="3.8196">
        <ele>37</ele>
        <time>2021-02-28T11:45:18Z</time>
      </trkpt>
      <trkpt lat="43.60887" lon="3.8196">
        <ele>37</ele>
        <time>2021-02-28T11:45:19Z</time>
      </trkpt>
      <trkpt lat="43.60884" lon="3.8196">
        <ele>37</ele>
        <time>2021-02-28T11:45:20Z</time>
      </trkpt>
      <trkpt lat="43.60881" lon="3.8196">
        <ele>37</ele>
        <time>2021-02-28T11:45:21Z</time>
      </trkpt>
      <trkpt lat="43.60879" lon="3.8196">
        <ele>37</ele>
        <time>2021-02-28T11:45:22Z</time>
      </trkpt>
      <trkpt lat="43.60877" lon="3.81962">
        <ele>36</ele>
        <time>2021-02-28T11:45:24Z</time>
      </trkpt>
      <trkpt lat="43.60875" lon="3.81965">
        <ele>36</ele>
        <time>2021-02-28T11:45:26Z</time>
      </trkpt>
      <trkpt lat="43.60872" lon="3.81966">
        <ele>36</ele>
        <time>2021-02-28T11:45:28Z</time>
      </trkpt>
      <trkpt lat="43.6087" lon="3.81965">
        <ele>36</ele>
        <time>2021-02-28T11:45:30Z</time>
      </trkpt>
      <trkpt lat="43.60868" lon="3.81965">
        <ele>36</ele>
        <time>2021-02-28T11:45:32Z</time>
      </trkpt>
      <trkpt lat="43.60867" lon="3.81965">
        <ele>36</ele>
        <time>2021-02-28T11:45:33Z</time>
      </trkpt>
      <trkpt lat="43.60864" lon="3.81966">
        <ele>36</ele>
        <time>2021-02-28T11:45:34Z</time>
      </trkpt>
      <trkpt lat="43.60862" lon="3.81966">
        <ele>36</ele>
        <time>2021-02-28T11:45:35Z</time>
      </trkpt>
      <trkpt lat="43.60859" lon="3.81967">
        <ele>36</ele>
        <time>2021-02-28T11:45:36Z</time>
      </trkpt>
      <trkpt lat="43.60856" lon="3.81969">
        <ele>36</ele>
        <time>2021-02-28T11:45:38Z</time>
      </trkpt>
      <trkpt lat="43.60854" lon="3.81968">
        <ele>36</ele>
        <time>2021-02-28T11:45:39Z</time>
      </trkpt>
      <trkpt lat="43.60852" lon="3.81967">
        <ele>36</ele>
        <time>2021-02-28T11:45:40Z</time>
      </trkpt>
      <trkpt lat="43.60849" lon="3.81966">
        <ele>36</ele>
        <time>2021-02-28T11:45:41Z</time>
      </trkpt>
      <trkpt lat="43.60848" lon="3.81966">
        <ele>36</ele>
        <time>2021-02-28T11:45:42Z</time>
      </trkpt>
      <trkpt lat="43.60845" lon="3.81967">
        <ele>36</ele>
        <time>2021-02-28T11:45:45Z</time>
      </trkpt>
      <trkpt lat="43.60842" lon="3.81967">
        <ele>36</ele>
        <time>2021-02-28T11:45:46Z</time>
      </trkpt>
      <trkpt lat="43.60839" lon="3.81968">
        <ele>36</ele>
        <time>2021-02-28T11:45:47Z</time>
      </trkpt>
      <trkpt lat="43.60836" lon="3.81968">
        <ele>36</ele>
        <time>2021-02-28T11:45:48Z</time>
      </trkpt>
      <trkpt lat="43.60831" lon="3.81967">
        <ele>36</ele>
        <time>2021-02-28T11:45:49Z</time>
      </trkpt>
      <trkpt lat="43.60828" lon="3.81966">
        <ele>36</ele>
        <time>2021-02-28T11:45:50Z</time>
      </trkpt>
      <trkpt lat="43.60825" lon="3.81965">
        <ele>36</ele>
        <time>2021-02-28T11:45:51Z</time>
      </trkpt>
      <trkpt lat="43.60822" lon="3.81966">
        <ele>36</ele>
        <time>2021-02-28T11:45:53Z</time>
      </trkpt>
      <trkpt lat="43.60819" lon="3.81963">
        <ele>36</ele>
        <time>2021-02-28T11:45:55Z</time>
      </trkpt>
      <trkpt lat="43.60818" lon="3.81961">
        <ele>35</ele>
        <time>2021-02-28T11:46:03Z</time>
      </trkpt>
      <trkpt lat="43.60812" lon="3.81955">
        <ele>34</ele>
        <time>2021-02-28T11:46:35Z</time>
      </trkpt>
      <trkpt lat="43.60808" lon="3.81956">
        <ele>34</ele>
        <time>2021-02-28T11:46:36Z</time>
      </trkpt>
      <trkpt lat="43.60806" lon="3.81955">
        <ele>34</ele>
        <time>2021-02-28T11:46:37Z</time>
      </trkpt>
      <trkpt lat="43.60805" lon="3.81954">
        <ele>34</ele>
        <time>2021-02-28T11:46:38Z</time>
      </trkpt>
      <trkpt lat="43.60804" lon="3.8195">
        <ele>34</ele>
        <time>2021-02-28T11:46:40Z</time>
      </trkpt>
      <trkpt lat="43.60804" lon="3.81947">
        <ele>34</ele>
        <time>2021-02-28T11:46:43Z</time>
      </trkpt>
      <trkpt lat="43.60804" lon="3.81943">
        <ele>34</ele>
        <time>2021-02-28T11:46:45Z</time>
      </trkpt>
      <trkpt lat="43.60803" lon="3.81939">
        <ele>34</ele>
        <time>2021-02-28T11:46:46Z</time>
      </trkpt>
      <trkpt lat="43.608" lon="3.81935">
        <ele>34</ele>
        <time>2021-02-28T11:46:47Z</time>
      </trkpt>
      <trkpt lat="43.60797" lon="3.81933">
        <ele>34</ele>
        <time>2021-02-28T11:46:48Z</time>
      </trkpt>
      <trkpt lat="43.60793" lon="3.81931">
        <ele>34</ele>
        <time>2021-02-28T11:46:49Z</time>
      </trkpt>
      <trkpt lat="43.6079" lon="3.81929">
        <ele>34</ele>
        <time>2021-02-28T11:46:50Z</time>
      </trkpt>
      <trkpt lat="43.60787" lon="3.81927">
        <ele>34</ele>
        <time>2021-02-28T11:46:51Z</time>
      </trkpt>
      <trkpt lat="43.60784" lon="3.81924">
        <ele>34</ele>
        <time>2021-02-28T11:46:52Z</time>
      </trkpt>
      <trkpt lat="43.60782" lon="3.81922">
        <ele>34</ele>
        <time>2021-02-28T11:46:53Z</time>
      </trkpt>
      <trkpt lat="43.60778" lon="3.8192">
        <ele>33</ele>
        <time>2021-02-28T11:46:54Z</time>
      </trkpt>
      <trkpt lat="43.60775" lon="3.81917">
        <ele>33</ele>
        <time>2021-02-28T11:46:55Z</time>
      </trkpt>
      <trkpt lat="43.60772" lon="3.81915">
        <ele>33</ele>
        <time>2021-02-28T11:46:56Z</time>
      </trkpt>
      <trkpt lat="43.60769" lon="3.81912">
        <ele>33</ele>
        <time>2021-02-28T11:46:57Z</time>
      </trkpt>
      <trkpt lat="43.60766" lon="3.8191">
        <ele>33</ele>
        <time>2021-02-28T11:46:58Z</time>
      </trkpt>
      <trkpt lat="43.60763" lon="3.81907">
        <ele>33</ele>
        <time>2021-02-28T11:46:59Z</time>
      </trkpt>
      <trkpt lat="43.6076" lon="3.81904">
        <ele>33</ele>
        <time>2021-02-28T11:47:00Z</time>
      </trkpt>
      <trkpt lat="43.60757" lon="3.81901">
        <ele>33</ele>
        <time>2021-02-28T11:47:01Z</time>
      </trkpt>
      <trkpt lat="43.60754" lon="3.81898">
        <ele>33</ele>
        <time>2021-02-28T11:47:02Z</time>
      </trkpt>
      <trkpt lat="43.60752" lon="3.81896">
        <ele>33</ele>
        <time>2021-02-28T11:47:03Z</time>
      </trkpt>
      <trkpt lat="43.60749" lon="3.81893">
        <ele>33</ele>
        <time>2021-02-28T11:47:04Z</time>
      </trkpt>
      <trkpt lat="43.60747" lon="3.81889">
        <ele>33</ele>
        <time>2021-02-28T11:47:05Z</time>
      </trkpt>
      <trkpt lat="43.60745" lon="3.81886">
        <ele>33</ele>
        <time>2021-02-28T11:47:06Z</time>
      </trkpt>
      <trkpt lat="43.60743" lon="3.81884">
        <ele>33</ele>
        <time>2021-02-28T11:47:07Z</time>
      </trkpt>
      <trkpt lat="43.60741" lon="3.81881">
        <ele>33</ele>
        <time>2021-02-28T11:47:08Z</time>
      </trkpt>
      <trkpt lat="43.60739" lon="3.81878">
        <ele>33</ele>
        <time>2021-02-28T11:47:09Z</time>
      </trkpt>
      <trkpt lat="43.60738" lon="3.81874">
        <ele>33</ele>
        <time>2021-02-28T11:47:10Z</time>
      </trkpt>
      <trkpt lat="43.60736" lon="3.81871">
        <ele>33</ele>
        <time>2021-02-28T11:47:11Z</time>
      </trkpt>
      <trkpt lat="43.60734" lon="3.81867">
        <ele>33</ele>
        <time>2021-02-28T11:47:12Z</time>
      </trkpt>
      <trkpt lat="43.60732" lon="3.81864">
        <ele>33</ele>
        <time>2021-02-28T11:47:13Z</time>
      </trkpt>
      <trkpt lat="43.6073" lon="3.8186">
        <ele>33</ele>
        <time>2021-02-28T11:47:14Z</time>
      </trkpt>
      <trkpt lat="43.60729" lon="3.81857">
        <ele>33</ele>
        <time>2021-02-28T11:47:15Z</time>
      </trkpt>
      <trkpt lat="43.60727" lon="3.81854">
        <ele>33</ele>
        <time>2021-02-28T11:47:16Z</time>
      </trkpt>
      <trkpt lat="43.60725" lon="3.81851">
        <ele>33</ele>
        <time>2021-02-28T11:47:17Z</time>
      </trkpt>
      <trkpt lat="43.60723" lon="3.81848">
        <ele>33</ele>
        <time>2021-02-28T11:47:18Z</time>
      </trkpt>
      <trkpt lat="43.60721" lon="3.81844">
        <ele>33</ele>
        <time>2021-02-28T11:47:19Z</time>
      </trkpt>
      <trkpt lat="43.60719" lon="3.81842">
        <ele>33</ele>
        <time>2021-02-28T11:47:20Z</time>
      </trkpt>
      <trkpt lat="43.60718" lon="3.81839">
        <ele>33</ele>
        <time>2021-02-28T11:47:21Z</time>
      </trkpt>
      <trkpt lat="43.60716" lon="3.81836">
        <ele>33</ele>
        <time>2021-02-28T11:47:22Z</time>
      </trkpt>
      <trkpt lat="43.60714" lon="3.81834">
        <ele>33</ele>
        <time>2021-02-28T11:47:23Z</time>
      </trkpt>
      <trkpt lat="43.60712" lon="3.81831">
        <ele>33</ele>
        <time>2021-02-28T11:47:24Z</time>
      </trkpt>
      <trkpt lat="43.60711" lon="3.81829">
        <ele>33</ele>
        <time>2021-02-28T11:47:25Z</time>
      </trkpt>
      <trkpt lat="43.60709" lon="3.81826">
        <ele>33</ele>
        <time>2021-02-28T11:47:26Z</time>
      </trkpt>
      <trkpt lat="43.60707" lon="3.81823">
        <ele>33</ele>
        <time>2021-02-28T11:47:27Z</time>
      </trkpt>
      <trkpt lat="43.60706" lon="3.8182">
        <ele>33</ele>
        <time>2021-02-28T11:47:28Z</time>
      </trkpt>
      <trkpt lat="43.60704" lon="3.81818">
        <ele>33</ele>
        <time>2021-02-28T11:47:29Z</time>
      </trkpt>
      <trkpt lat="43.60703" lon="3.81815">
        <ele>33</ele>
        <time>2021-02-28T11:47:30Z</time>
      </trkpt>
      <trkpt lat="43.60701" lon="3.81812">
        <ele>33</ele>
        <time>2021-02-28T11:47:31Z</time>
      </trkpt>
      <trkpt lat="43.60699" lon="3.8181">
        <ele>33</ele>
        <time>2021-02-28T11:47:32Z</time>
      </trkpt>
      <trkpt lat="43.60698" lon="3.81807">
        <ele>33</ele>
        <time>2021-02-28T11:47:33Z</time>
      </trkpt>
      <trkpt lat="43.60696" lon="3.81804">
        <ele>33</ele>
        <time>2021-02-28T11:47:34Z</time>
      </trkpt>
      <trkpt lat="43.60695" lon="3.81801">
        <ele>33</ele>
        <time>2021-02-28T11:47:35Z</time>
      </trkpt>
      <trkpt lat="43.60693" lon="3.81798">
        <ele>33</ele>
        <time>2021-02-28T11:47:36Z</time>
      </trkpt>
      <trkpt lat="43.60692" lon="3.81796">
        <ele>33</ele>
        <time>2021-02-28T11:47:37Z</time>
      </trkpt>
      <trkpt lat="43.60691" lon="3.81794">
        <ele>33</ele>
        <time>2021-02-28T11:47:38Z</time>
      </trkpt>
      <trkpt lat="43.60689" lon="3.81791">
        <ele>33</ele>
        <time>2021-02-28T11:47:39Z</time>
      </trkpt>
      <trkpt lat="43.60687" lon="3.81789">
        <ele>33</ele>
        <time>2021-02-28T11:47:40Z</time>
      </trkpt>
      <trkpt lat="43.60686" lon="3.81787">
        <ele>33</ele>
        <time>2021-02-28T11:47:41Z</time>
      </trkpt>
      <trkpt lat="43.60683" lon="3.81785">
        <ele>33</ele>
        <time>2021-02-28T11:47:42Z</time>
      </trkpt>
      <trkpt lat="43.6068" lon="3.81786">
        <ele>33</ele>
        <time>2021-02-28T11:47:43Z</time>
      </trkpt>
      <trkpt lat="43.60677" lon="3.81787">
        <ele>33</ele>
        <time>2021-02-28T11:47:44Z</time>
      </trkpt>
      <trkpt lat="43.60676" lon="3.8179">
        <ele>33</ele>
        <time>2021-02-28T11:47:45Z</time>
      </trkpt>
      <trkpt lat="43.60674" lon="3.81791">
        <ele>33</ele>
        <time>2021-02-28T11:47:46Z</time>
      </trkpt>
      <trkpt lat="43.60672" lon="3.81794">
        <ele>33</ele>
        <time>2021-02-28T11:47:47Z</time>
      </trkpt>
      <trkpt lat="43.6067" lon="3.81796">
        <ele>33</ele>
        <time>2021-02-28T11:47:48Z</time>
      </trkpt>
      <trkpt lat="43.60669" lon="3.81798">
        <ele>33</ele>
        <time>2021-02-28T11:47:49Z</time>
      </trkpt>
      <trkpt lat="43.60667" lon="3.81799">
        <ele>33</ele>
        <time>2021-02-28T11:47:50Z</time>
      </trkpt>
      <trkpt lat="43.60666" lon="3.81804">
        <ele>33</ele>
        <time>2021-02-28T11:47:52Z</time>
      </trkpt>
      <trkpt lat="43.6066" lon="3.81819">
        <ele>33</ele>
        <time>2021-02-28T11:47:58Z</time>
      </trkpt>
      <trkpt lat="43.6065" lon="3.81829">
        <ele>33</ele>
        <time>2021-02-28T11:47:59Z</time>
      </trkpt>
      <trkpt lat="43.60642" lon="3.81836">
        <ele>33</ele>
        <time>2021-02-28T11:48:02Z</time>
      </trkpt>
      <trkpt lat="43.6064" lon="3.81851">
        <ele>33</ele>
        <time>2021-02-28T11:48:04Z</time>
      </trkpt>
      <trkpt lat="43.60636" lon="3.81861">
        <ele>33</ele>
        <time>2021-02-28T11:48:07Z</time>
      </trkpt>
      <trkpt lat="43.60634" lon="3.81862">
        <ele>33</ele>
        <time>2021-02-28T11:48:10Z</time>
      </trkpt>
      <trkpt lat="43.60631" lon="3.81862">
        <ele>33</ele>
        <time>2021-02-28T11:48:12Z</time>
      </trkpt>
      <trkpt lat="43.60629" lon="3.81863">
        <ele>33</ele>
        <time>2021-02-28T11:48:13Z</time>
      </trkpt>
      <trkpt lat="43.60627" lon="3.81866">
        <ele>36</ele>
        <time>2021-02-28T11:48:14Z</time>
      </trkpt>
      <trkpt lat="43.60624" lon="3.8187">
        <ele>36</ele>
        <time>2021-02-28T11:48:15Z</time>
      </trkpt>
      <trkpt lat="43.60622" lon="3.81874">
        <ele>36</ele>
        <time>2021-02-28T11:48:16Z</time>
      </trkpt>
      <trkpt lat="43.6062" lon="3.81878">
        <ele>36</ele>
        <time>2021-02-28T11:48:17Z</time>
      </trkpt>
      <trkpt lat="43.60617" lon="3.81883">
        <ele>36</ele>
        <time>2021-02-28T11:48:18Z</time>
      </trkpt>
      <trkpt lat="43.60615" lon="3.81887">
        <ele>36</ele>
        <time>2021-02-28T11:48:19Z</time>
      </trkpt>
      <trkpt lat="43.60612" lon="3.81892">
        <ele>36</ele>
        <time>2021-02-28T11:48:20Z</time>
      </trkpt>
      <trkpt lat="43.6061" lon="3.81897">
        <ele>36</ele>
        <time>2021-02-28T11:48:21Z</time>
      </trkpt>
      <trkpt lat="43.60607" lon="3.81902">
        <ele>36</ele>
        <time>2021-02-28T11:48:22Z</time>
      </trkpt>
      <trkpt lat="43.60605" lon="3.81907">
        <ele>36</ele>
        <time>2021-02-28T11:48:23Z</time>
      </trkpt>
      <trkpt lat="43.60602" lon="3.81912">
        <ele>35</ele>
        <time>2021-02-28T11:48:24Z</time>
      </trkpt>
      <trkpt lat="43.60599" lon="3.81916">
        <ele>35</ele>
        <time>2021-02-28T11:48:25Z</time>
      </trkpt>
      <trkpt lat="43.60597" lon="3.8192">
        <ele>35</ele>
        <time>2021-02-28T11:48:26Z</time>
      </trkpt>
      <trkpt lat="43.60594" lon="3.81925">
        <ele>35</ele>
        <time>2021-02-28T11:48:27Z</time>
      </trkpt>
      <trkpt lat="43.60592" lon="3.81928">
        <ele>35</ele>
        <time>2021-02-28T11:48:28Z</time>
      </trkpt>
      <trkpt lat="43.60589" lon="3.81931">
        <ele>35</ele>
        <time>2021-02-28T11:48:29Z</time>
      </trkpt>
      <trkpt lat="43.60587" lon="3.81934">
        <ele>35</ele>
        <time>2021-02-28T11:48:30Z</time>
      </trkpt>
      <trkpt lat="43.60584" lon="3.81935">
        <ele>35</ele>
        <time>2021-02-28T11:48:31Z</time>
      </trkpt>
      <trkpt lat="43.60581" lon="3.81936">
        <ele>35</ele>
        <time>2021-02-28T11:48:32Z</time>
      </trkpt>
      <trkpt lat="43.60578" lon="3.81936">
        <ele>35</ele>
        <time>2021-02-28T11:48:33Z</time>
      </trkpt>
      <trkpt lat="43.60575" lon="3.81935">
        <ele>34</ele>
        <time>2021-02-28T11:48:34Z</time>
      </trkpt>
      <trkpt lat="43.60572" lon="3.81934">
        <ele>34</ele>
        <time>2021-02-28T11:48:35Z</time>
      </trkpt>
      <trkpt lat="43.6057" lon="3.81932">
        <ele>34</ele>
        <time>2021-02-28T11:48:36Z</time>
      </trkpt>
      <trkpt lat="43.60567" lon="3.8193">
        <ele>34</ele>
        <time>2021-02-28T11:48:37Z</time>
      </trkpt>
      <trkpt lat="43.60564" lon="3.81927">
        <ele>34</ele>
        <time>2021-02-28T11:48:38Z</time>
      </trkpt>
      <trkpt lat="43.60562" lon="3.81925">
        <ele>34</ele>
        <time>2021-02-28T11:48:39Z</time>
      </trkpt>
      <trkpt lat="43.60559" lon="3.81923">
        <ele>34</ele>
        <time>2021-02-28T11:48:40Z</time>
      </trkpt>
      <trkpt lat="43.60556" lon="3.8192">
        <ele>34</ele>
        <time>2021-02-28T11:48:41Z</time>
      </trkpt>
      <trkpt lat="43.60554" lon="3.81916">
        <ele>34</ele>
        <time>2021-02-28T11:48:42Z</time>
      </trkpt>
      <trkpt lat="43.60552" lon="3.81913">
        <ele>34</ele>
        <time>2021-02-28T11:48:43Z</time>
      </trkpt>
      <trkpt lat="43.60549" lon="3.8191">
        <ele>33</ele>
        <time>2021-02-28T11:48:44Z</time>
      </trkpt>
      <trkpt lat="43.60547" lon="3.81907">
        <ele>33</ele>
        <time>2021-02-28T11:48:45Z</time>
      </trkpt>
      <trkpt lat="43.60545" lon="3.81904">
        <ele>33</ele>
        <time>2021-02-28T11:48:46Z</time>
      </trkpt>
      <trkpt lat="43.60543" lon="3.81901">
        <ele>33</ele>
        <time>2021-02-28T11:48:47Z</time>
      </trkpt>
      <trkpt lat="43.6054" lon="3.81898">
        <ele>33</ele>
        <time>2021-02-28T11:48:48Z</time>
      </trkpt>
      <trkpt lat="43.60538" lon="3.81895">
        <ele>33</ele>
        <time>2021-02-28T11:48:49Z</time>
      </trkpt>
      <trkpt lat="43.60536" lon="3.81892">
        <ele>33</ele>
        <time>2021-02-28T11:48:50Z</time>
      </trkpt>
      <trkpt lat="43.60533" lon="3.8189">
        <ele>33</ele>
        <time>2021-02-28T11:48:51Z</time>
      </trkpt>
      <trkpt lat="43.60531" lon="3.81887">
        <ele>33</ele>
        <time>2021-02-28T11:48:52Z</time>
      </trkpt>
      <trkpt lat="43.60528" lon="3.81886">
        <ele>33</ele>
        <time>2021-02-28T11:48:53Z</time>
      </trkpt>
      <trkpt lat="43.60526" lon="3.81884">
        <ele>33</ele>
        <time>2021-02-28T11:48:54Z</time>
      </trkpt>
      <trkpt lat="43.60523" lon="3.81881">
        <ele>33</ele>
        <time>2021-02-28T11:48:55Z</time>
      </trkpt>
      <trkpt lat="43.60521" lon="3.81878">
        <ele>33</ele>
        <time>2021-02-28T11:48:56Z</time>
      </trkpt>
      <trkpt lat="43.60518" lon="3.81875">
        <ele>33</ele>
        <time>2021-02-28T11:48:57Z</time>
      </trkpt>
      <trkpt lat="43.60516" lon="3.81872">
        <ele>33</ele>
        <time>2021-02-28T11:48:58Z</time>
      </trkpt>
      <trkpt lat="43.60513" lon="3.81869">
        <ele>33</ele>
        <time>2021-02-28T11:48:59Z</time>
      </trkpt>
      <trkpt lat="43.6051" lon="3.81866">
        <ele>33</ele>
        <time>2021-02-28T11:49:00Z</time>
      </trkpt>
      <trkpt lat="43.60508" lon="3.81863">
        <ele>33</ele>
        <time>2021-02-28T11:49:01Z</time>
      </trkpt>
      <trkpt lat="43.60505" lon="3.81861">
        <ele>33</ele>
        <time>2021-02-28T11:49:02Z</time>
      </trkpt>
      <trkpt lat="43.60503" lon="3.81859">
        <ele>33</ele>
        <time>2021-02-28T11:49:03Z</time>
      </trkpt>
      <trkpt lat="43.605" lon="3.81857">
        <ele>33</ele>
        <time>2021-02-28T11:49:04Z</time>
      </trkpt>
      <trkpt lat="43.60497" lon="3.81856">
        <ele>33</ele>
        <time>2021-02-28T11:49:05Z</time>
      </trkpt>
      <trkpt lat="43.60494" lon="3.81855">
        <ele>33</ele>
        <time>2021-02-28T11:49:06Z</time>
      </trkpt>
      <trkpt lat="43.6049" lon="3.81854">
        <ele>33</ele>
        <time>2021-02-28T11:49:07Z</time>
      </trkpt>
      <trkpt lat="43.60487" lon="3.81853">
        <ele>33</ele>
        <time>2021-02-28T11:49:08Z</time>
      </trkpt>
      <trkpt lat="43.60484" lon="3.81852">
        <ele>33</ele>
        <time>2021-02-28T11:49:09Z</time>
      </trkpt>
      <trkpt lat="43.6048" lon="3.81852">
        <ele>33</ele>
        <time>2021-02-28T11:49:10Z</time>
      </trkpt>
      <trkpt lat="43.60477" lon="3.81851">
        <ele>33</ele>
        <time>2021-02-28T11:49:11Z</time>
      </trkpt>
      <trkpt lat="43.60473" lon="3.8185">
        <ele>33</ele>
        <time>2021-02-28T11:49:12Z</time>
      </trkpt>
      <trkpt lat="43.6047" lon="3.81849">
        <ele>33</ele>
        <time>2021-02-28T11:49:13Z</time>
      </trkpt>
      <trkpt lat="43.60467" lon="3.81847">
        <ele>32</ele>
        <time>2021-02-28T11:49:14Z</time>
      </trkpt>
      <trkpt lat="43.60464" lon="3.81846">
        <ele>32</ele>
        <time>2021-02-28T11:49:15Z</time>
      </trkpt>
      <trkpt lat="43.60461" lon="3.81844">
        <ele>32</ele>
        <time>2021-02-28T11:49:16Z</time>
      </trkpt>
      <trkpt lat="43.60457" lon="3.81843">
        <ele>32</ele>
        <time>2021-02-28T11:49:17Z</time>
      </trkpt>
      <trkpt lat="43.60454" lon="3.81842">
        <ele>32</ele>
        <time>2021-02-28T11:49:18Z</time>
      </trkpt>
      <trkpt lat="43.60451" lon="3.8184">
        <ele>32</ele>
        <time>2021-02-28T11:49:19Z</time>
      </trkpt>
      <trkpt lat="43.60447" lon="3.81839">
        <ele>32</ele>
        <time>2021-02-28T11:49:20Z</time>
      </trkpt>
      <trkpt lat="43.60444" lon="3.81837">
        <ele>32</ele>
        <time>2021-02-28T11:49:21Z</time>
      </trkpt>
      <trkpt lat="43.60441" lon="3.81836">
        <ele>32</ele>
        <time>2021-02-28T11:49:22Z</time>
      </trkpt>
      <trkpt lat="43.60437" lon="3.81834">
        <ele>32</ele>
        <time>2021-02-28T11:49:23Z</time>
      </trkpt>
      <trkpt lat="43.60434" lon="3.81833">
        <ele>32</ele>
        <time>2021-02-28T11:49:24Z</time>
      </trkpt>
      <trkpt lat="43.60431" lon="3.81832">
        <ele>32</ele>
        <time>2021-02-28T11:49:25Z</time>
      </trkpt>
      <trkpt lat="43.60427" lon="3.81831">
        <ele>32</ele>
        <time>2021-02-28T11:49:26Z</time>
      </trkpt>
      <trkpt lat="43.60424" lon="3.8183">
        <ele>32</ele>
        <time>2021-02-28T11:49:27Z</time>
      </trkpt>
      <trkpt lat="43.60421" lon="3.8183">
        <ele>32</ele>
        <time>2021-02-28T11:49:28Z</time>
      </trkpt>
      <trkpt lat="43.60418" lon="3.81829">
        <ele>32</ele>
        <time>2021-02-28T11:49:29Z</time>
      </trkpt>
      <trkpt lat="43.60415" lon="3.81828">
        <ele>32</ele>
        <time>2021-02-28T11:49:30Z</time>
      </trkpt>
      <trkpt lat="43.60413" lon="3.81827">
        <ele>32</ele>
        <time>2021-02-28T11:49:31Z</time>
      </trkpt>
      <trkpt lat="43.60409" lon="3.81827">
        <ele>32</ele>
        <time>2021-02-28T11:49:32Z</time>
      </trkpt>
      <trkpt lat="43.60406" lon="3.81826">
        <ele>32</ele>
        <time>2021-02-28T11:49:33Z</time>
      </trkpt>
      <trkpt lat="43.60403" lon="3.81825">
        <ele>32</ele>
        <time>2021-02-28T11:49:34Z</time>
      </trkpt>
      <trkpt lat="43.604" lon="3.81824">
        <ele>32</ele>
        <time>2021-02-28T11:49:35Z</time>
      </trkpt>
      <trkpt lat="43.60397" lon="3.81823">
        <ele>32</ele>
        <time>2021-02-28T11:49:36Z</time>
      </trkpt>
      <trkpt lat="43.60394" lon="3.81822">
        <ele>32</ele>
        <time>2021-02-28T11:49:37Z</time>
      </trkpt>
      <trkpt lat="43.60391" lon="3.81822">
        <ele>32</ele>
        <time>2021-02-28T11:49:38Z</time>
      </trkpt>
      <trkpt lat="43.60388" lon="3.81821">
        <ele>32</ele>
        <time>2021-02-28T11:49:39Z</time>
      </trkpt>
      <trkpt lat="43.60385" lon="3.8182">
        <ele>32</ele>
        <time>2021-02-28T11:49:40Z</time>
      </trkpt>
      <trkpt lat="43.60382" lon="3.81819">
        <ele>32</ele>
        <time>2021-02-28T11:49:41Z</time>
      </trkpt>
      <trkpt lat="43.6038" lon="3.81818">
        <ele>32</ele>
        <time>2021-02-28T11:49:42Z</time>
      </trkpt>
      <trkpt lat="43.60377" lon="3.81817">
        <ele>32</ele>
        <time>2021-02-28T11:49:43Z</time>
      </trkpt>
      <trkpt lat="43.60374" lon="3.81815">
        <ele>32</ele>
        <time>2021-02-28T11:49:44Z</time>
      </trkpt>
      <trkpt lat="43.60371" lon="3.81813">
        <ele>32</ele>
        <time>2021-02-28T11:49:45Z</time>
      </trkpt>
      <trkpt lat="43.60368" lon="3.8181">
        <ele>32</ele>
        <time>2021-02-28T11:49:46Z</time>
      </trkpt>
      <trkpt lat="43.60366" lon="3.81808">
        <ele>32</ele>
        <time>2021-02-28T11:49:47Z</time>
      </trkpt>
      <trkpt lat="43.60363" lon="3.81805">
        <ele>32</ele>
        <time>2021-02-28T11:49:48Z</time>
      </trkpt>
      <trkpt lat="43.60361" lon="3.81802">
        <ele>32</ele>
        <time>2021-02-28T11:49:49Z</time>
      </trkpt>
      <trkpt lat="43.60358" lon="3.81799">
        <ele>32</ele>
        <time>2021-02-28T11:49:50Z</time>
      </trkpt>
      <trkpt lat="43.60356" lon="3.81796">
        <ele>32</ele>
        <time>2021-02-28T11:49:51Z</time>
      </trkpt>
      <trkpt lat="43.60353" lon="3.81792">
        <ele>32</ele>
        <time>2021-02-28T11:49:52Z</time>
      </trkpt>
      <trkpt lat="43.60351" lon="3.81789">
        <ele>32</ele>
        <time>2021-02-28T11:49:53Z</time>
      </trkpt>
      <trkpt lat="43.60348" lon="3.81786">
        <ele>32</ele>
        <time>2021-02-28T11:49:54Z</time>
      </trkpt>
      <trkpt lat="43.60346" lon="3.81783">
        <ele>32</ele>
        <time>2021-02-28T11:49:55Z</time>
      </trkpt>
      <trkpt lat="43.60343" lon="3.8178">
        <ele>32</ele>
        <time>2021-02-28T11:49:56Z</time>
      </trkpt>
      <trkpt lat="43.60341" lon="3.81776">
        <ele>32</ele>
        <time>2021-02-28T11:49:57Z</time>
      </trkpt>
      <trkpt lat="43.60338" lon="3.81774">
        <ele>32</ele>
        <time>2021-02-28T11:49:58Z</time>
      </trkpt>
      <trkpt lat="43.60336" lon="3.81772">
        <ele>32</ele>
        <time>2021-02-28T11:49:59Z</time>
      </trkpt>
      <trkpt lat="43.60334" lon="3.81769">
        <ele>32</ele>
        <time>2021-02-28T11:50:00Z</time>
      </trkpt>
      <trkpt lat="43.60332" lon="3.81767">
        <ele>32</ele>
        <time>2021-02-28T11:50:01Z</time>
      </trkpt>
      <trkpt lat="43.60329" lon="3.81764">
        <ele>32</ele>
        <time>2021-02-28T11:50:02Z</time>
      </trkpt>
      <trkpt lat="43.60327" lon="3.81762">
        <ele>32</ele>
        <time>2021-02-28T11:50:03Z</time>
      </trkpt>
      <trkpt lat="43.60325" lon="3.8176">
        <ele>32</ele>
        <time>2021-02-28T11:50:04Z</time>
      </trkpt>
      <trkpt lat="43.60323" lon="3.81759">
        <ele>32</ele>
        <time>2021-02-28T11:50:05Z</time>
      </trkpt>
      <trkpt lat="43.60322" lon="3.81755">
        <ele>32</ele>
        <time>2021-02-28T11:50:06Z</time>
      </trkpt>
      <trkpt lat="43.6032" lon="3.8175">
        <ele>32</ele>
        <time>2021-02-28T11:50:07Z</time>
      </trkpt>
      <trkpt lat="43.60319" lon="3.81746">
        <ele>32</ele>
        <time>2021-02-28T11:50:08Z</time>
      </trkpt>
      <trkpt lat="43.60319" lon="3.81741">
        <ele>32</ele>
        <time>2021-02-28T11:50:09Z</time>
      </trkpt>
      <trkpt lat="43.60319" lon="3.81737">
        <ele>32</ele>
        <time>2021-02-28T11:50:10Z</time>
      </trkpt>
      <trkpt lat="43.60319" lon="3.81732">
        <ele>32</ele>
        <time>2021-02-28T11:50:11Z</time>
      </trkpt>
      <trkpt lat="43.60319" lon="3.81728">
        <ele>32</ele>
        <time>2021-02-28T11:50:12Z</time>
      </trkpt>
      <trkpt lat="43.60319" lon="3.81724">
        <ele>32</ele>
        <time>2021-02-28T11:50:13Z</time>
      </trkpt>
      <trkpt lat="43.6032" lon="3.81721">
        <ele>32</ele>
        <time>2021-02-28T11:50:14Z</time>
      </trkpt>
      <trkpt lat="43.6032" lon="3.81717">
        <ele>32</ele>
        <time>2021-02-28T11:50:15Z</time>
      </trkpt>
      <trkpt lat="43.6032" lon="3.81714">
        <ele>32</ele>
        <time>2021-02-28T11:50:16Z</time>
      </trkpt>
      <trkpt lat="43.60321" lon="3.8171">
        <ele>32</ele>
        <time>2021-02-28T11:50:17Z</time>
      </trkpt>
      <trkpt lat="43.60322" lon="3.81705">
        <ele>32</ele>
        <time>2021-02-28T11:50:18Z</time>
      </trkpt>
      <trkpt lat="43.60322" lon="3.81701">
        <ele>32</ele>
        <time>2021-02-28T11:50:19Z</time>
      </trkpt>
      <trkpt lat="43.60323" lon="3.81697">
        <ele>32</ele>
        <time>2021-02-28T11:50:20Z</time>
      </trkpt>
      <trkpt lat="43.60323" lon="3.81693">
        <ele>32</ele>
        <time>2021-02-28T11:50:21Z</time>
      </trkpt>
      <trkpt lat="43.60322" lon="3.81689">
        <ele>32</ele>
        <time>2021-02-28T11:50:22Z</time>
      </trkpt>
      <trkpt lat="43.60322" lon="3.81685">
        <ele>32</ele>
        <time>2021-02-28T11:50:23Z</time>
      </trkpt>
      <trkpt lat="43.60321" lon="3.81681">
        <ele>32</ele>
        <time>2021-02-28T11:50:24Z</time>
      </trkpt>
      <trkpt lat="43.6032" lon="3.81677">
        <ele>33</ele>
        <time>2021-02-28T11:50:25Z</time>
      </trkpt>
      <trkpt lat="43.6032" lon="3.81673">
        <ele>33</ele>
        <time>2021-02-28T11:50:26Z</time>
      </trkpt>
      <trkpt lat="43.60319" lon="3.81668">
        <ele>33</ele>
        <time>2021-02-28T11:50:27Z</time>
      </trkpt>
      <trkpt lat="43.60319" lon="3.81665">
        <ele>33</ele>
        <time>2021-02-28T11:50:28Z</time>
      </trkpt>
      <trkpt lat="43.60318" lon="3.81661">
        <ele>33</ele>
        <time>2021-02-28T11:50:29Z</time>
      </trkpt>
      <trkpt lat="43.60316" lon="3.81658">
        <ele>33</ele>
        <time>2021-02-28T11:50:30Z</time>
      </trkpt>
      <trkpt lat="43.60314" lon="3.81654">
        <ele>33</ele>
        <time>2021-02-28T11:50:31Z</time>
      </trkpt>
      <trkpt lat="43.60312" lon="3.81651">
        <ele>33</ele>
        <time>2021-02-28T11:50:32Z</time>
      </trkpt>
      <trkpt lat="43.6031" lon="3.81647">
        <ele>33</ele>
        <time>2021-02-28T11:50:33Z</time>
      </trkpt>
      <trkpt lat="43.60307" lon="3.81644">
        <ele>33</ele>
        <time>2021-02-28T11:50:34Z</time>
      </trkpt>
      <trkpt lat="43.60305" lon="3.81642">
        <ele>33</ele>
        <time>2021-02-28T11:50:35Z</time>
      </trkpt>
      <trkpt lat="43.60302" lon="3.8164">
        <ele>33</ele>
        <time>2021-02-28T11:50:36Z</time>
      </trkpt>
      <trkpt lat="43.603" lon="3.81638">
        <ele>33</ele>
        <time>2021-02-28T11:50:37Z</time>
      </trkpt>
      <trkpt lat="43.60297" lon="3.81638">
        <ele>33</ele>
        <time>2021-02-28T11:50:38Z</time>
      </trkpt>
      <trkpt lat="43.60295" lon="3.81637">
        <ele>33</ele>
        <time>2021-02-28T11:50:39Z</time>
      </trkpt>
      <trkpt lat="43.60292" lon="3.81636">
        <ele>33</ele>
        <time>2021-02-28T11:50:40Z</time>
      </trkpt>
      <trkpt lat="43.60289" lon="3.81635">
        <ele>33</ele>
        <time>2021-02-28T11:50:41Z</time>
      </trkpt>
      <trkpt lat="43.60286" lon="3.81635">
        <ele>33</ele>
        <time>2021-02-28T11:50:42Z</time>
      </trkpt>
      <trkpt lat="43.60279" lon="3.81635">
        <ele>34</ele>
        <time>2021-02-28T11:50:44Z</time>
      </trkpt>
      <trkpt lat="43.60275" lon="3.81634">
        <ele>34</ele>
        <time>2021-02-28T11:50:45Z</time>
      </trkpt>
      <trkpt lat="43.60273" lon="3.81633">
        <ele>34</ele>
        <time>2021-02-28T11:50:46Z</time>
      </trkpt>
      <trkpt lat="43.6027" lon="3.81632">
        <ele>34</ele>
        <time>2021-02-28T11:50:47Z</time>
      </trkpt>
      <trkpt lat="43.60267" lon="3.81629">
        <ele>34</ele>
        <time>2021-02-28T11:50:48Z</time>
      </trkpt>
      <trkpt lat="43.60264" lon="3.81626">
        <ele>34</ele>
        <time>2021-02-28T11:50:49Z</time>
      </trkpt>
      <trkpt lat="43.60262" lon="3.81621">
        <ele>34</ele>
        <time>2021-02-28T11:50:50Z</time>
      </trkpt>
      <trkpt lat="43.60261" lon="3.81615">
        <ele>34</ele>
        <time>2021-02-28T11:50:51Z</time>
      </trkpt>
      <trkpt lat="43.6026" lon="3.81607">
        <ele>34</ele>
        <time>2021-02-28T11:50:53Z</time>
      </trkpt>
      <trkpt lat="43.6026" lon="3.81603">
        <ele>34</ele>
        <time>2021-02-28T11:50:54Z</time>
      </trkpt>
      <trkpt lat="43.60261" lon="3.81598">
        <ele>34</ele>
        <time>2021-02-28T11:50:55Z</time>
      </trkpt>
      <trkpt lat="43.60263" lon="3.81592">
        <ele>34</ele>
        <time>2021-02-28T11:50:56Z</time>
      </trkpt>
      <trkpt lat="43.60264" lon="3.81588">
        <ele>34</ele>
        <time>2021-02-28T11:50:57Z</time>
      </trkpt>
      <trkpt lat="43.60265" lon="3.81583">
        <ele>34</ele>
        <time>2021-02-28T11:50:58Z</time>
      </trkpt>
      <trkpt lat="43.60266" lon="3.81578">
        <ele>34</ele>
        <time>2021-02-28T11:50:59Z</time>
      </trkpt>
      <trkpt lat="43.60268" lon="3.81574">
        <ele>34</ele>
        <time>2021-02-28T11:51:00Z</time>
      </trkpt>
      <trkpt lat="43.60269" lon="3.81569">
        <ele>34</ele>
        <time>2021-02-28T11:51:01Z</time>
      </trkpt>
      <trkpt lat="43.60271" lon="3.81565">
        <ele>34</ele>
        <time>2021-02-28T11:51:02Z</time>
      </trkpt>
      <trkpt lat="43.60271" lon="3.8156">
        <ele>34</ele>
        <time>2021-02-28T11:51:03Z</time>
      </trkpt>
      <trkpt lat="43.60272" lon="3.81556">
        <ele>34</ele>
        <time>2021-02-28T11:51:04Z</time>
      </trkpt>
      <trkpt lat="43.60273" lon="3.81551">
        <ele>34</ele>
        <time>2021-02-28T11:51:05Z</time>
      </trkpt>
      <trkpt lat="43.60274" lon="3.81547">
        <ele>34</ele>
        <time>2021-02-28T11:51:06Z</time>
      </trkpt>
      <trkpt lat="43.60276" lon="3.81543">
        <ele>34</ele>
        <time>2021-02-28T11:51:07Z</time>
      </trkpt>
      <trkpt lat="43.60278" lon="3.8154">
        <ele>34</ele>
        <time>2021-02-28T11:51:08Z</time>
      </trkpt>
      <trkpt lat="43.60281" lon="3.81538">
        <ele>34</ele>
        <time>2021-02-28T11:51:09Z</time>
      </trkpt>
      <trkpt lat="43.60284" lon="3.81536">
        <ele>34</ele>
        <time>2021-02-28T11:51:10Z</time>
      </trkpt>
      <trkpt lat="43.60287" lon="3.81534">
        <ele>34</ele>
        <time>2021-02-28T11:51:11Z</time>
      </trkpt>
      <trkpt lat="43.6029" lon="3.81532">
        <ele>34</ele>
        <time>2021-02-28T11:51:12Z</time>
      </trkpt>
      <trkpt lat="43.60292" lon="3.8153">
        <ele>34</ele>
        <time>2021-02-28T11:51:13Z</time>
      </trkpt>
      <trkpt lat="43.60293" lon="3.81527">
        <ele>34</ele>
        <time>2021-02-28T11:51:14Z</time>
      </trkpt>
      <trkpt lat="43.60293" lon="3.81524">
        <ele>34</ele>
        <time>2021-02-28T11:51:15Z</time>
      </trkpt>
      <trkpt lat="43.60291" lon="3.81522">
        <ele>34</ele>
        <time>2021-02-28T11:51:16Z</time>
      </trkpt>
      <trkpt lat="43.60289" lon="3.81521">
        <ele>34</ele>
        <time>2021-02-28T11:51:17Z</time>
      </trkpt>
      <trkpt lat="43.60286" lon="3.81521">
        <ele>34</ele>
        <time>2021-02-28T11:51:18Z</time>
      </trkpt>
      <trkpt lat="43.60283" lon="3.81519">
        <ele>34</ele>
        <time>2021-02-28T11:51:19Z</time>
      </trkpt>
      <trkpt lat="43.6028" lon="3.81518">
        <ele>34</ele>
        <time>2021-02-28T11:51:20Z</time>
      </trkpt>
      <trkpt lat="43.60277" lon="3.81516">
        <ele>34</ele>
        <time>2021-02-28T11:51:21Z</time>
      </trkpt>
      <trkpt lat="43.60274" lon="3.81515">
        <ele>34</ele>
        <time>2021-02-28T11:51:22Z</time>
      </trkpt>
      <trkpt lat="43.60271" lon="3.81514">
        <ele>34</ele>
        <time>2021-02-28T11:51:23Z</time>
      </trkpt>
      <trkpt lat="43.60268" lon="3.81513">
        <ele>33</ele>
        <time>2021-02-28T11:51:24Z</time>
      </trkpt>
      <trkpt lat="43.60266" lon="3.81512">
        <ele>33</ele>
        <time>2021-02-28T11:51:25Z</time>
      </trkpt>
      <trkpt lat="43.60263" lon="3.8151">
        <ele>33</ele>
        <time>2021-02-28T11:51:26Z</time>
      </trkpt>
      <trkpt lat="43.6026" lon="3.81508">
        <ele>33</ele>
        <time>2021-02-28T11:51:27Z</time>
      </trkpt>
      <trkpt lat="43.60257" lon="3.81506">
        <ele>33</ele>
        <time>2021-02-28T11:51:28Z</time>
      </trkpt>
      <trkpt lat="43.60255" lon="3.81504">
        <ele>33</ele>
        <time>2021-02-28T11:51:29Z</time>
      </trkpt>
      <trkpt lat="43.60252" lon="3.81502">
        <ele>33</ele>
        <time>2021-02-28T11:51:30Z</time>
      </trkpt>
      <trkpt lat="43.6025" lon="3.815">
        <ele>33</ele>
        <time>2021-02-28T11:51:31Z</time>
      </trkpt>
      <trkpt lat="43.60247" lon="3.81499">
        <ele>33</ele>
        <time>2021-02-28T11:51:32Z</time>
      </trkpt>
      <trkpt lat="43.60244" lon="3.81497">
        <ele>33</ele>
        <time>2021-02-28T11:51:33Z</time>
      </trkpt>
      <trkpt lat="43.60241" lon="3.81496">
        <ele>33</ele>
        <time>2021-02-28T11:51:34Z</time>
      </trkpt>
      <trkpt lat="43.60238" lon="3.81494">
        <ele>33</ele>
        <time>2021-02-28T11:51:35Z</time>
      </trkpt>
      <trkpt lat="43.60236" lon="3.81493">
        <ele>33</ele>
        <time>2021-02-28T11:51:36Z</time>
      </trkpt>
      <trkpt lat="43.60233" lon="3.81491">
        <ele>33</ele>
        <time>2021-02-28T11:51:37Z</time>
      </trkpt>
      <trkpt lat="43.6023" lon="3.81489">
        <ele>33</ele>
        <time>2021-02-28T11:51:38Z</time>
      </trkpt>
      <trkpt lat="43.60227" lon="3.81488">
        <ele>33</ele>
        <time>2021-02-28T11:51:39Z</time>
      </trkpt>
      <trkpt lat="43.60224" lon="3.81486">
        <ele>33</ele>
        <time>2021-02-28T11:51:40Z</time>
      </trkpt>
      <trkpt lat="43.60221" lon="3.81484">
        <ele>33</ele>
        <time>2021-02-28T11:51:41Z</time>
      </trkpt>
      <trkpt lat="43.60218" lon="3.81482">
        <ele>33</ele>
        <time>2021-02-28T11:51:42Z</time>
      </trkpt>
      <trkpt lat="43.60216" lon="3.8148">
        <ele>33</ele>
        <time>2021-02-28T11:51:43Z</time>
      </trkpt>
      <trkpt lat="43.60213" lon="3.81478">
        <ele>33</ele>
        <time>2021-02-28T11:51:45Z</time>
      </trkpt>
      <trkpt lat="43.60211" lon="3.81478">
        <ele>33</ele>
        <time>2021-02-28T11:51:47Z</time>
      </trkpt>
      <trkpt lat="43.60208" lon="3.81481">
        <ele>33</ele>
        <time>2021-02-28T11:51:49Z</time>
      </trkpt>
      <trkpt lat="43.60206" lon="3.81483">
        <ele>33</ele>
        <time>2021-02-28T11:51:50Z</time>
      </trkpt>
      <trkpt lat="43.60204" lon="3.81485">
        <ele>33</ele>
        <time>2021-02-28T11:51:51Z</time>
      </trkpt>
      <trkpt lat="43.60202" lon="3.81488">
        <ele>33</ele>
        <time>2021-02-28T11:51:52Z</time>
      </trkpt>
      <trkpt lat="43.602" lon="3.81491">
        <ele>33</ele>
        <time>2021-02-28T11:51:53Z</time>
      </trkpt>
      <trkpt lat="43.60197" lon="3.81494">
        <ele>33</ele>
        <time>2021-02-28T11:51:54Z</time>
      </trkpt>
      <trkpt lat="43.60194" lon="3.81496">
        <ele>33</ele>
        <time>2021-02-28T11:51:55Z</time>
      </trkpt>
      <trkpt lat="43.6019" lon="3.81498">
        <ele>33</ele>
        <time>2021-02-28T11:51:56Z</time>
      </trkpt>
      <trkpt lat="43.60185" lon="3.81499">
        <ele>33</ele>
        <time>2021-02-28T11:51:57Z</time>
      </trkpt>
      <trkpt lat="43.6018" lon="3.815">
        <ele>33</ele>
        <time>2021-02-28T11:51:58Z</time>
      </trkpt>
      <trkpt lat="43.60175" lon="3.815">
        <ele>33</ele>
        <time>2021-02-28T11:51:59Z</time>
      </trkpt>
      <trkpt lat="43.60171" lon="3.81501">
        <ele>33</ele>
        <time>2021-02-28T11:52:00Z</time>
      </trkpt>
      <trkpt lat="43.60166" lon="3.81502">
        <ele>33</ele>
        <time>2021-02-28T11:52:01Z</time>
      </trkpt>
      <trkpt lat="43.60162" lon="3.81502">
        <ele>33</ele>
        <time>2021-02-28T11:52:02Z</time>
      </trkpt>
      <trkpt lat="43.60158" lon="3.81503">
        <ele>33</ele>
        <time>2021-02-28T11:52:03Z</time>
      </trkpt>
      <trkpt lat="43.60154" lon="3.81503">
        <ele>32</ele>
        <time>2021-02-28T11:52:04Z</time>
      </trkpt>
      <trkpt lat="43.6015" lon="3.81504">
        <ele>32</ele>
        <time>2021-02-28T11:52:05Z</time>
      </trkpt>
      <trkpt lat="43.60146" lon="3.81504">
        <ele>32</ele>
        <time>2021-02-28T11:52:06Z</time>
      </trkpt>
      <trkpt lat="43.60143" lon="3.81505">
        <ele>32</ele>
        <time>2021-02-28T11:52:07Z</time>
      </trkpt>
      <trkpt lat="43.60139" lon="3.81506">
        <ele>32</ele>
        <time>2021-02-28T11:52:08Z</time>
      </trkpt>
      <trkpt lat="43.60135" lon="3.81506">
        <ele>32</ele>
        <time>2021-02-28T11:52:09Z</time>
      </trkpt>
      <trkpt lat="43.6013" lon="3.81507">
        <ele>32</ele>
        <time>2021-02-28T11:52:10Z</time>
      </trkpt>
      <trkpt lat="43.60126" lon="3.81507">
        <ele>32</ele>
        <time>2021-02-28T11:52:11Z</time>
      </trkpt>
      <trkpt lat="43.60121" lon="3.81506">
        <ele>32</ele>
        <time>2021-02-28T11:52:12Z</time>
      </trkpt>
      <trkpt lat="43.60117" lon="3.81505">
        <ele>32</ele>
        <time>2021-02-28T11:52:13Z</time>
      </trkpt>
      <trkpt lat="43.60113" lon="3.81505">
        <ele>31</ele>
        <time>2021-02-28T11:52:14Z</time>
      </trkpt>
      <trkpt lat="43.60108" lon="3.81504">
        <ele>31</ele>
        <time>2021-02-28T11:52:15Z</time>
      </trkpt>
      <trkpt lat="43.60104" lon="3.81503">
        <ele>31</ele>
        <time>2021-02-28T11:52:16Z</time>
      </trkpt>
      <trkpt lat="43.601" lon="3.81503">
        <ele>31</ele>
        <time>2021-02-28T11:52:17Z</time>
      </trkpt>
      <trkpt lat="43.60095" lon="3.81502">
        <ele>31</ele>
        <time>2021-02-28T11:52:18Z</time>
      </trkpt>
      <trkpt lat="43.60091" lon="3.81502">
        <ele>31</ele>
        <time>2021-02-28T11:52:19Z</time>
      </trkpt>
      <trkpt lat="43.60087" lon="3.81501">
        <ele>31</ele>
        <time>2021-02-28T11:52:20Z</time>
      </trkpt>
      <trkpt lat="43.60083" lon="3.81501">
        <ele>31</ele>
        <time>2021-02-28T11:52:21Z</time>
      </trkpt>
      <trkpt lat="43.60079" lon="3.815">
        <ele>31</ele>
        <time>2021-02-28T11:52:22Z</time>
      </trkpt>
      <trkpt lat="43.60075" lon="3.815">
        <ele>31</ele>
        <time>2021-02-28T11:52:23Z</time>
      </trkpt>
      <trkpt lat="43.60071" lon="3.815">
        <ele>30</ele>
        <time>2021-02-28T11:52:24Z</time>
      </trkpt>
      <trkpt lat="43.60066" lon="3.815">
        <ele>30</ele>
        <time>2021-02-28T11:52:25Z</time>
      </trkpt>
      <trkpt lat="43.60062" lon="3.81501">
        <ele>30</ele>
        <time>2021-02-28T11:52:26Z</time>
      </trkpt>
      <trkpt lat="43.60058" lon="3.81501">
        <ele>30</ele>
        <time>2021-02-28T11:52:27Z</time>
      </trkpt>
      <trkpt lat="43.60054" lon="3.81502">
        <ele>30</ele>
        <time>2021-02-28T11:52:28Z</time>
      </trkpt>
      <trkpt lat="43.60049" lon="3.81502">
        <ele>30</ele>
        <time>2021-02-28T11:52:29Z</time>
      </trkpt>
      <trkpt lat="43.60045" lon="3.81503">
        <ele>30</ele>
        <time>2021-02-28T11:52:30Z</time>
      </trkpt>
      <trkpt lat="43.60041" lon="3.81503">
        <ele>30</ele>
        <time>2021-02-28T11:52:31Z</time>
      </trkpt>
      <trkpt lat="43.60037" lon="3.81504">
        <ele>30</ele>
        <time>2021-02-28T11:52:32Z</time>
      </trkpt>
      <trkpt lat="43.60033" lon="3.81504">
        <ele>30</ele>
        <time>2021-02-28T11:52:33Z</time>
      </trkpt>
      <trkpt lat="43.60029" lon="3.81505">
        <ele>30</ele>
        <time>2021-02-28T11:52:34Z</time>
      </trkpt>
      <trkpt lat="43.60026" lon="3.81505">
        <ele>30</ele>
        <time>2021-02-28T11:52:35Z</time>
      </trkpt>
      <trkpt lat="43.60022" lon="3.81505">
        <ele>30</ele>
        <time>2021-02-28T11:52:36Z</time>
      </trkpt>
      <trkpt lat="43.60019" lon="3.81504">
        <ele>30</ele>
        <time>2021-02-28T11:52:37Z</time>
      </trkpt>
      <trkpt lat="43.60015" lon="3.81502">
        <ele>30</ele>
        <time>2021-02-28T11:52:38Z</time>
      </trkpt>
      <trkpt lat="43.60012" lon="3.81499">
        <ele>30</ele>
        <time>2021-02-28T11:52:39Z</time>
      </trkpt>
      <trkpt lat="43.6001" lon="3.81496">
        <ele>30</ele>
        <time>2021-02-28T11:52:40Z</time>
      </trkpt>
      <trkpt lat="43.60007" lon="3.81493">
        <ele>30</ele>
        <time>2021-02-28T11:52:41Z</time>
      </trkpt>
      <trkpt lat="43.60005" lon="3.81489">
        <ele>30</ele>
        <time>2021-02-28T11:52:42Z</time>
      </trkpt>
      <trkpt lat="43.60005" lon="3.81485">
        <ele>30</ele>
        <time>2021-02-28T11:52:43Z</time>
      </trkpt>
      <trkpt lat="43.60006" lon="3.81481">
        <ele>30</ele>
        <time>2021-02-28T11:52:44Z</time>
      </trkpt>
      <trkpt lat="43.60008" lon="3.81479">
        <ele>30</ele>
        <time>2021-02-28T11:52:45Z</time>
      </trkpt>
      <trkpt lat="43.6001" lon="3.81475">
        <ele>30</ele>
        <time>2021-02-28T11:52:46Z</time>
      </trkpt>
      <trkpt lat="43.60011" lon="3.81471">
        <ele>30</ele>
        <time>2021-02-28T11:52:47Z</time>
      </trkpt>
      <trkpt lat="43.60012" lon="3.81467">
        <ele>30</ele>
        <time>2021-02-28T11:52:48Z</time>
      </trkpt>
      <trkpt lat="43.60013" lon="3.81464">
        <ele>30</ele>
        <time>2021-02-28T11:52:49Z</time>
      </trkpt>
      <trkpt lat="43.60015" lon="3.81461">
        <ele>30</ele>
        <time>2021-02-28T11:52:50Z</time>
      </trkpt>
      <trkpt lat="43.60016" lon="3.81457">
        <ele>30</ele>
        <time>2021-02-28T11:52:51Z</time>
      </trkpt>
      <trkpt lat="43.60017" lon="3.81452">
        <ele>30</ele>
        <time>2021-02-28T11:52:52Z</time>
      </trkpt>
      <trkpt lat="43.60018" lon="3.81448">
        <ele>30</ele>
        <time>2021-02-28T11:52:53Z</time>
      </trkpt>
      <trkpt lat="43.60019" lon="3.81444">
        <ele>30</ele>
        <time>2021-02-28T11:52:54Z</time>
      </trkpt>
      <trkpt lat="43.6002" lon="3.81439">
        <ele>30</ele>
        <time>2021-02-28T11:52:55Z</time>
      </trkpt>
      <trkpt lat="43.60022" lon="3.81434">
        <ele>30</ele>
        <time>2021-02-28T11:52:56Z</time>
      </trkpt>
      <trkpt lat="43.60023" lon="3.81429">
        <ele>30</ele>
        <time>2021-02-28T11:52:57Z</time>
      </trkpt>
      <trkpt lat="43.60025" lon="3.81425">
        <ele>30</ele>
        <time>2021-02-28T11:52:58Z</time>
      </trkpt>
      <trkpt lat="43.60027" lon="3.8142">
        <ele>30</ele>
        <time>2021-02-28T11:52:59Z</time>
      </trkpt>
      <trkpt lat="43.60028" lon="3.81415">
        <ele>30</ele>
        <time>2021-02-28T11:53:00Z</time>
      </trkpt>
      <trkpt lat="43.6003" lon="3.8141">
        <ele>30</ele>
        <time>2021-02-28T11:53:01Z</time>
      </trkpt>
      <trkpt lat="43.60031" lon="3.81405">
        <ele>30</ele>
        <time>2021-02-28T11:53:02Z</time>
      </trkpt>
      <trkpt lat="43.60032" lon="3.814">
        <ele>30</ele>
        <time>2021-02-28T11:53:03Z</time>
      </trkpt>
      <trkpt lat="43.60033" lon="3.81395">
        <ele>31</ele>
        <time>2021-02-28T11:53:04Z</time>
      </trkpt>
      <trkpt lat="43.60034" lon="3.8139">
        <ele>31</ele>
        <time>2021-02-28T11:53:05Z</time>
      </trkpt>
      <trkpt lat="43.60034" lon="3.81385">
        <ele>31</ele>
        <time>2021-02-28T11:53:06Z</time>
      </trkpt>
      <trkpt lat="43.60034" lon="3.81381">
        <ele>31</ele>
        <time>2021-02-28T11:53:07Z</time>
      </trkpt>
      <trkpt lat="43.60033" lon="3.81378">
        <ele>31</ele>
        <time>2021-02-28T11:53:08Z</time>
      </trkpt>
      <trkpt lat="43.60031" lon="3.81376">
        <ele>31</ele>
        <time>2021-02-28T11:53:09Z</time>
      </trkpt>
      <trkpt lat="43.60029" lon="3.81374">
        <ele>31</ele>
        <time>2021-02-28T11:53:10Z</time>
      </trkpt>
      <trkpt lat="43.60027" lon="3.81372">
        <ele>31</ele>
        <time>2021-02-28T11:53:11Z</time>
      </trkpt>
      <trkpt lat="43.60024" lon="3.81369">
        <ele>31</ele>
        <time>2021-02-28T11:53:12Z</time>
      </trkpt>
      <trkpt lat="43.60022" lon="3.81366">
        <ele>31</ele>
        <time>2021-02-28T11:53:13Z</time>
      </trkpt>
      <trkpt lat="43.6002" lon="3.81362">
        <ele>31</ele>
        <time>2021-02-28T11:53:14Z</time>
      </trkpt>
      <trkpt lat="43.60018" lon="3.81359">
        <ele>31</ele>
        <time>2021-02-28T11:53:15Z</time>
      </trkpt>
      <trkpt lat="43.60016" lon="3.81355">
        <ele>31</ele>
        <time>2021-02-28T11:53:16Z</time>
      </trkpt>
      <trkpt lat="43.60014" lon="3.81352">
        <ele>31</ele>
        <time>2021-02-28T11:53:17Z</time>
      </trkpt>
      <trkpt lat="43.60013" lon="3.8135">
        <ele>31</ele>
        <time>2021-02-28T11:53:18Z</time>
      </trkpt>
      <trkpt lat="43.60011" lon="3.81347">
        <ele>31</ele>
        <time>2021-02-28T11:53:19Z</time>
      </trkpt>
      <trkpt lat="43.60009" lon="3.81344">
        <ele>31</ele>
        <time>2021-02-28T11:53:20Z</time>
      </trkpt>
      <trkpt lat="43.60007" lon="3.81342">
        <ele>31</ele>
        <time>2021-02-28T11:53:21Z</time>
      </trkpt>
      <trkpt lat="43.60005" lon="3.81339">
        <ele>31</ele>
        <time>2021-02-28T11:53:22Z</time>
      </trkpt>
      <trkpt lat="43.60003" lon="3.81336">
        <ele>31</ele>
        <time>2021-02-28T11:53:23Z</time>
      </trkpt>
      <trkpt lat="43.60001" lon="3.81334">
        <ele>31</ele>
        <time>2021-02-28T11:53:24Z</time>
      </trkpt>
      <trkpt lat="43.59999" lon="3.81331">
        <ele>31</ele>
        <time>2021-02-28T11:53:25Z</time>
      </trkpt>
      <trkpt lat="43.59997" lon="3.81328">
        <ele>31</ele>
        <time>2021-02-28T11:53:26Z</time>
      </trkpt>
      <trkpt lat="43.59995" lon="3.81325">
        <ele>31</ele>
        <time>2021-02-28T11:53:27Z</time>
      </trkpt>
      <trkpt lat="43.59993" lon="3.81322">
        <ele>31</ele>
        <time>2021-02-28T11:53:28Z</time>
      </trkpt>
      <trkpt lat="43.59991" lon="3.81319">
        <ele>31</ele>
        <time>2021-02-28T11:53:29Z</time>
      </trkpt>
      <trkpt lat="43.59989" lon="3.81316">
        <ele>31</ele>
        <time>2021-02-28T11:53:30Z</time>
      </trkpt>
      <trkpt lat="43.59987" lon="3.81313">
        <ele>31</ele>
        <time>2021-02-28T11:53:31Z</time>
      </trkpt>
      <trkpt lat="43.59985" lon="3.8131">
        <ele>31</ele>
        <time>2021-02-28T11:53:32Z</time>
      </trkpt>
      <trkpt lat="43.59983" lon="3.81308">
        <ele>31</ele>
        <time>2021-02-28T11:53:33Z</time>
      </trkpt>
      <trkpt lat="43.59981" lon="3.81305">
        <ele>32</ele>
        <time>2021-02-28T11:53:34Z</time>
      </trkpt>
      <trkpt lat="43.59978" lon="3.81302">
        <ele>32</ele>
        <time>2021-02-28T11:53:35Z</time>
      </trkpt>
      <trkpt lat="43.59976" lon="3.813">
        <ele>32</ele>
        <time>2021-02-28T11:53:36Z</time>
      </trkpt>
      <trkpt lat="43.59974" lon="3.81297">
        <ele>32</ele>
        <time>2021-02-28T11:53:37Z</time>
      </trkpt>
      <trkpt lat="43.59972" lon="3.81295">
        <ele>32</ele>
        <time>2021-02-28T11:53:38Z</time>
      </trkpt>
      <trkpt lat="43.5997" lon="3.81292">
        <ele>32</ele>
        <time>2021-02-28T11:53:39Z</time>
      </trkpt>
      <trkpt lat="43.59968" lon="3.8129">
        <ele>32</ele>
        <time>2021-02-28T11:53:40Z</time>
      </trkpt>
      <trkpt lat="43.59967" lon="3.81287">
        <ele>32</ele>
        <time>2021-02-28T11:53:41Z</time>
      </trkpt>
      <trkpt lat="43.59964" lon="3.81284">
        <ele>32</ele>
        <time>2021-02-28T11:53:42Z</time>
      </trkpt>
      <trkpt lat="43.59963" lon="3.81282">
        <ele>32</ele>
        <time>2021-02-28T11:53:43Z</time>
      </trkpt>
      <trkpt lat="43.59961" lon="3.81279">
        <ele>33</ele>
        <time>2021-02-28T11:53:44Z</time>
      </trkpt>
      <trkpt lat="43.59958" lon="3.81277">
        <ele>33</ele>
        <time>2021-02-28T11:53:45Z</time>
      </trkpt>
      <trkpt lat="43.59956" lon="3.81275">
        <ele>33</ele>
        <time>2021-02-28T11:53:46Z</time>
      </trkpt>
      <trkpt lat="43.59954" lon="3.81272">
        <ele>33</ele>
        <time>2021-02-28T11:53:47Z</time>
      </trkpt>
      <trkpt lat="43.59952" lon="3.8127">
        <ele>33</ele>
        <time>2021-02-28T11:53:48Z</time>
      </trkpt>
      <trkpt lat="43.5995" lon="3.81268">
        <ele>33</ele>
        <time>2021-02-28T11:53:49Z</time>
      </trkpt>
      <trkpt lat="43.59948" lon="3.81266">
        <ele>33</ele>
        <time>2021-02-28T11:53:50Z</time>
      </trkpt>
      <trkpt lat="43.59946" lon="3.81264">
        <ele>33</ele>
        <time>2021-02-28T11:53:51Z</time>
      </trkpt>
      <trkpt lat="43.59944" lon="3.81262">
        <ele>33</ele>
        <time>2021-02-28T11:53:52Z</time>
      </trkpt>
      <trkpt lat="43.59942" lon="3.8126">
        <ele>33</ele>
        <time>2021-02-28T11:53:53Z</time>
      </trkpt>
      <trkpt lat="43.5994" lon="3.81259">
        <ele>35</ele>
        <time>2021-02-28T11:53:54Z</time>
      </trkpt>
      <trkpt lat="43.59938" lon="3.81257">
        <ele>35</ele>
        <time>2021-02-28T11:53:55Z</time>
      </trkpt>
      <trkpt lat="43.59936" lon="3.81255">
        <ele>35</ele>
        <time>2021-02-28T11:53:56Z</time>
      </trkpt>
      <trkpt lat="43.59934" lon="3.81254">
        <ele>35</ele>
        <time>2021-02-28T11:53:57Z</time>
      </trkpt>
      <trkpt lat="43.59932" lon="3.81252">
        <ele>35</ele>
        <time>2021-02-28T11:53:58Z</time>
      </trkpt>
      <trkpt lat="43.5993" lon="3.8125">
        <ele>35</ele>
        <time>2021-02-28T11:53:59Z</time>
      </trkpt>
      <trkpt lat="43.59928" lon="3.81249">
        <ele>35</ele>
        <time>2021-02-28T11:54:00Z</time>
      </trkpt>
      <trkpt lat="43.59926" lon="3.81248">
        <ele>35</ele>
        <time>2021-02-28T11:54:01Z</time>
      </trkpt>
      <trkpt lat="43.59924" lon="3.81247">
        <ele>35</ele>
        <time>2021-02-28T11:54:02Z</time>
      </trkpt>
      <trkpt lat="43.59923" lon="3.81245">
        <ele>35</ele>
        <time>2021-02-28T11:54:03Z</time>
      </trkpt>
      <trkpt lat="43.59921" lon="3.81244">
        <ele>36</ele>
        <time>2021-02-28T11:54:04Z</time>
      </trkpt>
      <trkpt lat="43.59919" lon="3.81243">
        <ele>36</ele>
        <time>2021-02-28T11:54:05Z</time>
      </trkpt>
      <trkpt lat="43.59917" lon="3.81241">
        <ele>36</ele>
        <time>2021-02-28T11:54:06Z</time>
      </trkpt>
      <trkpt lat="43.59916" lon="3.8124">
        <ele>36</ele>
        <time>2021-02-28T11:54:07Z</time>
      </trkpt>
      <trkpt lat="43.59914" lon="3.81238">
        <ele>36</ele>
        <time>2021-02-28T11:54:08Z</time>
      </trkpt>
      <trkpt lat="43.59912" lon="3.81237">
        <ele>36</ele>
        <time>2021-02-28T11:54:09Z</time>
      </trkpt>
      <trkpt lat="43.5991" lon="3.81235">
        <ele>36</ele>
        <time>2021-02-28T11:54:10Z</time>
      </trkpt>
      <trkpt lat="43.59909" lon="3.81234">
        <ele>36</ele>
        <time>2021-02-28T11:54:11Z</time>
      </trkpt>
      <trkpt lat="43.59907" lon="3.81232">
        <ele>36</ele>
        <time>2021-02-28T11:54:12Z</time>
      </trkpt>
      <trkpt lat="43.59905" lon="3.8123">
        <ele>36</ele>
        <time>2021-02-28T11:54:13Z</time>
      </trkpt>
      <trkpt lat="43.59903" lon="3.81229">
        <ele>38</ele>
        <time>2021-02-28T11:54:14Z</time>
      </trkpt>
      <trkpt lat="43.59901" lon="3.81227">
        <ele>38</ele>
        <time>2021-02-28T11:54:15Z</time>
      </trkpt>
      <trkpt lat="43.59899" lon="3.81225">
        <ele>38</ele>
        <time>2021-02-28T11:54:16Z</time>
      </trkpt>
      <trkpt lat="43.59897" lon="3.81224">
        <ele>38</ele>
        <time>2021-02-28T11:54:17Z</time>
      </trkpt>
      <trkpt lat="43.59895" lon="3.81222">
        <ele>38</ele>
        <time>2021-02-28T11:54:18Z</time>
      </trkpt>
      <trkpt lat="43.59894" lon="3.81221">
        <ele>38</ele>
        <time>2021-02-28T11:54:19Z</time>
      </trkpt>
      <trkpt lat="43.59892" lon="3.81219">
        <ele>38</ele>
        <time>2021-02-28T11:54:20Z</time>
      </trkpt>
      <trkpt lat="43.5989" lon="3.81218">
        <ele>38</ele>
        <time>2021-02-28T11:54:21Z</time>
      </trkpt>
      <trkpt lat="43.59888" lon="3.81216">
        <ele>38</ele>
        <time>2021-02-28T11:54:22Z</time>
      </trkpt>
      <trkpt lat="43.59886" lon="3.81215">
        <ele>38</ele>
        <time>2021-02-28T11:54:23Z</time>
      </trkpt>
      <trkpt lat="43.59884" lon="3.81213">
        <ele>40</ele>
        <time>2021-02-28T11:54:24Z</time>
      </trkpt>
      <trkpt lat="43.59882" lon="3.81211">
        <ele>40</ele>
        <time>2021-02-28T11:54:25Z</time>
      </trkpt>
      <trkpt lat="43.5988" lon="3.81209">
        <ele>40</ele>
        <time>2021-02-28T11:54:26Z</time>
      </trkpt>
      <trkpt lat="43.59879" lon="3.81208">
        <ele>40</ele>
        <time>2021-02-28T11:54:27Z</time>
      </trkpt>
      <trkpt lat="43.59877" lon="3.81206">
        <ele>40</ele>
        <time>2021-02-28T11:54:28Z</time>
      </trkpt>
      <trkpt lat="43.59875" lon="3.81204">
        <ele>40</ele>
        <time>2021-02-28T11:54:29Z</time>
      </trkpt>
      <trkpt lat="43.59872" lon="3.81201">
        <ele>40</ele>
        <time>2021-02-28T11:54:31Z</time>
      </trkpt>
      <trkpt lat="43.5987" lon="3.81199">
        <ele>40</ele>
        <time>2021-02-28T11:54:32Z</time>
      </trkpt>
      <trkpt lat="43.59869" lon="3.81197">
        <ele>40</ele>
        <time>2021-02-28T11:54:33Z</time>
      </trkpt>
      <trkpt lat="43.59867" lon="3.81195">
        <ele>41</ele>
        <time>2021-02-28T11:54:34Z</time>
      </trkpt>
      <trkpt lat="43.59865" lon="3.81193">
        <ele>41</ele>
        <time>2021-02-28T11:54:35Z</time>
      </trkpt>
      <trkpt lat="43.59864" lon="3.81191">
        <ele>41</ele>
        <time>2021-02-28T11:54:36Z</time>
      </trkpt>
      <trkpt lat="43.59862" lon="3.81189">
        <ele>41</ele>
        <time>2021-02-28T11:54:37Z</time>
      </trkpt>
      <trkpt lat="43.5986" lon="3.81187">
        <ele>41</ele>
        <time>2021-02-28T11:54:38Z</time>
      </trkpt>
      <trkpt lat="43.59858" lon="3.81185">
        <ele>41</ele>
        <time>2021-02-28T11:54:39Z</time>
      </trkpt>
      <trkpt lat="43.59857" lon="3.81182">
        <ele>41</ele>
        <time>2021-02-28T11:54:40Z</time>
      </trkpt>
      <trkpt lat="43.59855" lon="3.8118">
        <ele>41</ele>
        <time>2021-02-28T11:54:41Z</time>
      </trkpt>
      <trkpt lat="43.59854" lon="3.81178">
        <ele>41</ele>
        <time>2021-02-28T11:54:42Z</time>
      </trkpt>
      <trkpt lat="43.59852" lon="3.81176">
        <ele>41</ele>
        <time>2021-02-28T11:54:43Z</time>
      </trkpt>
      <trkpt lat="43.59851" lon="3.81173">
        <ele>42</ele>
        <time>2021-02-28T11:54:44Z</time>
      </trkpt>
      <trkpt lat="43.59849" lon="3.81171">
        <ele>42</ele>
        <time>2021-02-28T11:54:45Z</time>
      </trkpt>
      <trkpt lat="43.59848" lon="3.81169">
        <ele>42</ele>
        <time>2021-02-28T11:54:46Z</time>
      </trkpt>
      <trkpt lat="43.59846" lon="3.81166">
        <ele>42</ele>
        <time>2021-02-28T11:54:47Z</time>
      </trkpt>
      <trkpt lat="43.59845" lon="3.81164">
        <ele>42</ele>
        <time>2021-02-28T11:54:48Z</time>
      </trkpt>
      <trkpt lat="43.59843" lon="3.81161">
        <ele>42</ele>
        <time>2021-02-28T11:54:49Z</time>
      </trkpt>
      <trkpt lat="43.59842" lon="3.81159">
        <ele>42</ele>
        <time>2021-02-28T11:54:50Z</time>
      </trkpt>
      <trkpt lat="43.5984" lon="3.81156">
        <ele>42</ele>
        <time>2021-02-28T11:54:51Z</time>
      </trkpt>
      <trkpt lat="43.59839" lon="3.81154">
        <ele>42</ele>
        <time>2021-02-28T11:54:52Z</time>
      </trkpt>
      <trkpt lat="43.59838" lon="3.81151">
        <ele>42</ele>
        <time>2021-02-28T11:54:53Z</time>
      </trkpt>
      <trkpt lat="43.59837" lon="3.81148">
        <ele>44</ele>
        <time>2021-02-28T11:54:54Z</time>
      </trkpt>
      <trkpt lat="43.59835" lon="3.81146">
        <ele>44</ele>
        <time>2021-02-28T11:54:55Z</time>
      </trkpt>
      <trkpt lat="43.59834" lon="3.81143">
        <ele>44</ele>
        <time>2021-02-28T11:54:56Z</time>
      </trkpt>
      <trkpt lat="43.59833" lon="3.81141">
        <ele>44</ele>
        <time>2021-02-28T11:54:57Z</time>
      </trkpt>
      <trkpt lat="43.59831" lon="3.81138">
        <ele>44</ele>
        <time>2021-02-28T11:54:58Z</time>
      </trkpt>
      <trkpt lat="43.5983" lon="3.81135">
        <ele>44</ele>
        <time>2021-02-28T11:54:59Z</time>
      </trkpt>
      <trkpt lat="43.59829" lon="3.81132">
        <ele>44</ele>
        <time>2021-02-28T11:55:00Z</time>
      </trkpt>
      <trkpt lat="43.59828" lon="3.81129">
        <ele>44</ele>
        <time>2021-02-28T11:55:01Z</time>
      </trkpt>
      <trkpt lat="43.59827" lon="3.81126">
        <ele>44</ele>
        <time>2021-02-28T11:55:02Z</time>
      </trkpt>
      <trkpt lat="43.59826" lon="3.81122">
        <ele>44</ele>
        <time>2021-02-28T11:55:03Z</time>
      </trkpt>
      <trkpt lat="43.59825" lon="3.81119">
        <ele>44</ele>
        <time>2021-02-28T11:55:04Z</time>
      </trkpt>
      <trkpt lat="43.59824" lon="3.81116">
        <ele>44</ele>
        <time>2021-02-28T11:55:05Z</time>
      </trkpt>
      <trkpt lat="43.59823" lon="3.81114">
        <ele>44</ele>
        <time>2021-02-28T11:55:06Z</time>
      </trkpt>
      <trkpt lat="43.59822" lon="3.81111">
        <ele>44</ele>
        <time>2021-02-28T11:55:07Z</time>
      </trkpt>
      <trkpt lat="43.59821" lon="3.81108">
        <ele>44</ele>
        <time>2021-02-28T11:55:08Z</time>
      </trkpt>
      <trkpt lat="43.59819" lon="3.81105">
        <ele>44</ele>
        <time>2021-02-28T11:55:09Z</time>
      </trkpt>
      <trkpt lat="43.59818" lon="3.81102">
        <ele>44</ele>
        <time>2021-02-28T11:55:10Z</time>
      </trkpt>
      <trkpt lat="43.59816" lon="3.811">
        <ele>44</ele>
        <time>2021-02-28T11:55:11Z</time>
      </trkpt>
      <trkpt lat="43.59815" lon="3.81097">
        <ele>44</ele>
        <time>2021-02-28T11:55:12Z</time>
      </trkpt>
      <trkpt lat="43.59813" lon="3.81094">
        <ele>44</ele>
        <time>2021-02-28T11:55:13Z</time>
      </trkpt>
      <trkpt lat="43.59812" lon="3.81091">
        <ele>45</ele>
        <time>2021-02-28T11:55:14Z</time>
      </trkpt>
      <trkpt lat="43.59811" lon="3.81088">
        <ele>45</ele>
        <time>2021-02-28T11:55:15Z</time>
      </trkpt>
      <trkpt lat="43.5981" lon="3.81086">
        <ele>45</ele>
        <time>2021-02-28T11:55:16Z</time>
      </trkpt>
      <trkpt lat="43.59809" lon="3.81083">
        <ele>45</ele>
        <time>2021-02-28T11:55:17Z</time>
      </trkpt>
      <trkpt lat="43.59807" lon="3.8108">
        <ele>45</ele>
        <time>2021-02-28T11:55:18Z</time>
      </trkpt>
      <trkpt lat="43.59806" lon="3.81077">
        <ele>45</ele>
        <time>2021-02-28T11:55:19Z</time>
      </trkpt>
      <trkpt lat="43.59805" lon="3.81075">
        <ele>45</ele>
        <time>2021-02-28T11:55:20Z</time>
      </trkpt>
      <trkpt lat="43.59804" lon="3.81072">
        <ele>45</ele>
        <time>2021-02-28T11:55:21Z</time>
      </trkpt>
      <trkpt lat="43.59802" lon="3.81069">
        <ele>45</ele>
        <time>2021-02-28T11:55:22Z</time>
      </trkpt>
      <trkpt lat="43.59801" lon="3.81066">
        <ele>45</ele>
        <time>2021-02-28T11:55:23Z</time>
      </trkpt>
      <trkpt lat="43.598" lon="3.81064">
        <ele>46</ele>
        <time>2021-02-28T11:55:24Z</time>
      </trkpt>
      <trkpt lat="43.59799" lon="3.81061">
        <ele>46</ele>
        <time>2021-02-28T11:55:25Z</time>
      </trkpt>
      <trkpt lat="43.59797" lon="3.81058">
        <ele>46</ele>
        <time>2021-02-28T11:55:26Z</time>
      </trkpt>
      <trkpt lat="43.59796" lon="3.81056">
        <ele>46</ele>
        <time>2021-02-28T11:55:27Z</time>
      </trkpt>
      <trkpt lat="43.59795" lon="3.81053">
        <ele>46</ele>
        <time>2021-02-28T11:55:28Z</time>
      </trkpt>
      <trkpt lat="43.59794" lon="3.81051">
        <ele>46</ele>
        <time>2021-02-28T11:55:29Z</time>
      </trkpt>
      <trkpt lat="43.59793" lon="3.81048">
        <ele>46</ele>
        <time>2021-02-28T11:55:30Z</time>
      </trkpt>
      <trkpt lat="43.59792" lon="3.81045">
        <ele>46</ele>
        <time>2021-02-28T11:55:31Z</time>
      </trkpt>
      <trkpt lat="43.5979" lon="3.81042">
        <ele>46</ele>
        <time>2021-02-28T11:55:32Z</time>
      </trkpt>
      <trkpt lat="43.59789" lon="3.81039">
        <ele>46</ele>
        <time>2021-02-28T11:55:33Z</time>
      </trkpt>
      <trkpt lat="43.59788" lon="3.81037">
        <ele>47</ele>
        <time>2021-02-28T11:55:34Z</time>
      </trkpt>
      <trkpt lat="43.59787" lon="3.81034">
        <ele>47</ele>
        <time>2021-02-28T11:55:35Z</time>
      </trkpt>
      <trkpt lat="43.59785" lon="3.81031">
        <ele>47</ele>
        <time>2021-02-28T11:55:36Z</time>
      </trkpt>
      <trkpt lat="43.59784" lon="3.81028">
        <ele>47</ele>
        <time>2021-02-28T11:55:37Z</time>
      </trkpt>
      <trkpt lat="43.59783" lon="3.81026">
        <ele>47</ele>
        <time>2021-02-28T11:55:38Z</time>
      </trkpt>
      <trkpt lat="43.59781" lon="3.81023">
        <ele>47</ele>
        <time>2021-02-28T11:55:39Z</time>
      </trkpt>
      <trkpt lat="43.5978" lon="3.8102">
        <ele>47</ele>
        <time>2021-02-28T11:55:40Z</time>
      </trkpt>
      <trkpt lat="43.59778" lon="3.81017">
        <ele>47</ele>
        <time>2021-02-28T11:55:41Z</time>
      </trkpt>
      <trkpt lat="43.59777" lon="3.81015">
        <ele>47</ele>
        <time>2021-02-28T11:55:42Z</time>
      </trkpt>
      <trkpt lat="43.59776" lon="3.81012">
        <ele>47</ele>
        <time>2021-02-28T11:55:43Z</time>
      </trkpt>
      <trkpt lat="43.59774" lon="3.81009">
        <ele>47</ele>
        <time>2021-02-28T11:55:44Z</time>
      </trkpt>
      <trkpt lat="43.59773" lon="3.81006">
        <ele>47</ele>
        <time>2021-02-28T11:55:45Z</time>
      </trkpt>
      <trkpt lat="43.59772" lon="3.81004">
        <ele>47</ele>
        <time>2021-02-28T11:55:46Z</time>
      </trkpt>
      <trkpt lat="43.59771" lon="3.81001">
        <ele>47</ele>
        <time>2021-02-28T11:55:47Z</time>
      </trkpt>
      <trkpt lat="43.59769" lon="3.80998">
        <ele>47</ele>
        <time>2021-02-28T11:55:48Z</time>
      </trkpt>
      <trkpt lat="43.59768" lon="3.80996">
        <ele>47</ele>
        <time>2021-02-28T11:55:49Z</time>
      </trkpt>
      <trkpt lat="43.59767" lon="3.80993">
        <ele>47</ele>
        <time>2021-02-28T11:55:50Z</time>
      </trkpt>
      <trkpt lat="43.59766" lon="3.8099">
        <ele>47</ele>
        <time>2021-02-28T11:55:51Z</time>
      </trkpt>
      <trkpt lat="43.59765" lon="3.80988">
        <ele>47</ele>
        <time>2021-02-28T11:55:52Z</time>
      </trkpt>
      <trkpt lat="43.59763" lon="3.80985">
        <ele>47</ele>
        <time>2021-02-28T11:55:53Z</time>
      </trkpt>
      <trkpt lat="43.59762" lon="3.80982">
        <ele>49</ele>
        <time>2021-02-28T11:55:54Z</time>
      </trkpt>
      <trkpt lat="43.59761" lon="3.8098">
        <ele>49</ele>
        <time>2021-02-28T11:55:55Z</time>
      </trkpt>
      <trkpt lat="43.5976" lon="3.80977">
        <ele>49</ele>
        <time>2021-02-28T11:55:56Z</time>
      </trkpt>
      <trkpt lat="43.59759" lon="3.80975">
        <ele>49</ele>
        <time>2021-02-28T11:55:57Z</time>
      </trkpt>
      <trkpt lat="43.59757" lon="3.80972">
        <ele>49</ele>
        <time>2021-02-28T11:55:58Z</time>
      </trkpt>
      <trkpt lat="43.59756" lon="3.8097">
        <ele>49</ele>
        <time>2021-02-28T11:55:59Z</time>
      </trkpt>
      <trkpt lat="43.59755" lon="3.80967">
        <ele>49</ele>
        <time>2021-02-28T11:56:00Z</time>
      </trkpt>
      <trkpt lat="43.59753" lon="3.80964">
        <ele>49</ele>
        <time>2021-02-28T11:56:01Z</time>
      </trkpt>
      <trkpt lat="43.59752" lon="3.80961">
        <ele>49</ele>
        <time>2021-02-28T11:56:02Z</time>
      </trkpt>
      <trkpt lat="43.59751" lon="3.80958">
        <ele>49</ele>
        <time>2021-02-28T11:56:03Z</time>
      </trkpt>
      <trkpt lat="43.59749" lon="3.80955">
        <ele>50</ele>
        <time>2021-02-28T11:56:04Z</time>
      </trkpt>
      <trkpt lat="43.59748" lon="3.80952">
        <ele>50</ele>
        <time>2021-02-28T11:56:05Z</time>
      </trkpt>
      <trkpt lat="43.59747" lon="3.8095">
        <ele>50</ele>
        <time>2021-02-28T11:56:06Z</time>
      </trkpt>
      <trkpt lat="43.59746" lon="3.80947">
        <ele>50</ele>
        <time>2021-02-28T11:56:07Z</time>
      </trkpt>
      <trkpt lat="43.59744" lon="3.80944">
        <ele>50</ele>
        <time>2021-02-28T11:56:08Z</time>
      </trkpt>
      <trkpt lat="43.59743" lon="3.80941">
        <ele>50</ele>
        <time>2021-02-28T11:56:09Z</time>
      </trkpt>
      <trkpt lat="43.59742" lon="3.80938">
        <ele>50</ele>
        <time>2021-02-28T11:56:10Z</time>
      </trkpt>
      <trkpt lat="43.59741" lon="3.80935">
        <ele>50</ele>
        <time>2021-02-28T11:56:11Z</time>
      </trkpt>
      <trkpt lat="43.5974" lon="3.80931">
        <ele>50</ele>
        <time>2021-02-28T11:56:12Z</time>
      </trkpt>
      <trkpt lat="43.5974" lon="3.80928">
        <ele>50</ele>
        <time>2021-02-28T11:56:13Z</time>
      </trkpt>
      <trkpt lat="43.59739" lon="3.80925">
        <ele>50</ele>
        <time>2021-02-28T11:56:14Z</time>
      </trkpt>
      <trkpt lat="43.59738" lon="3.80921">
        <ele>50</ele>
        <time>2021-02-28T11:56:15Z</time>
      </trkpt>
      <trkpt lat="43.59737" lon="3.80918">
        <ele>50</ele>
        <time>2021-02-28T11:56:16Z</time>
      </trkpt>
      <trkpt lat="43.59737" lon="3.80914">
        <ele>50</ele>
        <time>2021-02-28T11:56:17Z</time>
      </trkpt>
      <trkpt lat="43.59736" lon="3.8091">
        <ele>50</ele>
        <time>2021-02-28T11:56:18Z</time>
      </trkpt>
      <trkpt lat="43.59735" lon="3.80907">
        <ele>50</ele>
        <time>2021-02-28T11:56:19Z</time>
      </trkpt>
      <trkpt lat="43.59734" lon="3.80903">
        <ele>50</ele>
        <time>2021-02-28T11:56:20Z</time>
      </trkpt>
      <trkpt lat="43.59733" lon="3.80899">
        <ele>50</ele>
        <time>2021-02-28T11:56:21Z</time>
      </trkpt>
      <trkpt lat="43.59733" lon="3.80896">
        <ele>50</ele>
        <time>2021-02-28T11:56:22Z</time>
      </trkpt>
      <trkpt lat="43.59732" lon="3.80892">
        <ele>50</ele>
        <time>2021-02-28T11:56:23Z</time>
      </trkpt>
      <trkpt lat="43.59731" lon="3.80888">
        <ele>51</ele>
        <time>2021-02-28T11:56:24Z</time>
      </trkpt>
      <trkpt lat="43.5973" lon="3.80884">
        <ele>51</ele>
        <time>2021-02-28T11:56:25Z</time>
      </trkpt>
      <trkpt lat="43.5973" lon="3.8088">
        <ele>51</ele>
        <time>2021-02-28T11:56:26Z</time>
      </trkpt>
      <trkpt lat="43.59729" lon="3.80876">
        <ele>51</ele>
        <time>2021-02-28T11:56:27Z</time>
      </trkpt>
      <trkpt lat="43.59728" lon="3.80873">
        <ele>51</ele>
        <time>2021-02-28T11:56:28Z</time>
      </trkpt>
      <trkpt lat="43.59728" lon="3.80869">
        <ele>51</ele>
        <time>2021-02-28T11:56:29Z</time>
      </trkpt>
      <trkpt lat="43.59727" lon="3.80865">
        <ele>51</ele>
        <time>2021-02-28T11:56:30Z</time>
      </trkpt>
      <trkpt lat="43.59726" lon="3.80861">
        <ele>51</ele>
        <time>2021-02-28T11:56:31Z</time>
      </trkpt>
      <trkpt lat="43.59726" lon="3.80857">
        <ele>51</ele>
        <time>2021-02-28T11:56:32Z</time>
      </trkpt>
      <trkpt lat="43.59725" lon="3.80853">
        <ele>51</ele>
        <time>2021-02-28T11:56:33Z</time>
      </trkpt>
      <trkpt lat="43.59724" lon="3.80849">
        <ele>51</ele>
        <time>2021-02-28T11:56:34Z</time>
      </trkpt>
      <trkpt lat="43.59724" lon="3.80845">
        <ele>51</ele>
        <time>2021-02-28T11:56:35Z</time>
      </trkpt>
      <trkpt lat="43.59723" lon="3.80841">
        <ele>51</ele>
        <time>2021-02-28T11:56:36Z</time>
      </trkpt>
      <trkpt lat="43.59722" lon="3.80838">
        <ele>51</ele>
        <time>2021-02-28T11:56:37Z</time>
      </trkpt>
      <trkpt lat="43.59721" lon="3.80834">
        <ele>51</ele>
        <time>2021-02-28T11:56:38Z</time>
      </trkpt>
      <trkpt lat="43.5972" lon="3.8083">
        <ele>51</ele>
        <time>2021-02-28T11:56:39Z</time>
      </trkpt>
      <trkpt lat="43.59719" lon="3.80827">
        <ele>51</ele>
        <time>2021-02-28T11:56:40Z</time>
      </trkpt>
      <trkpt lat="43.59718" lon="3.80823">
        <ele>51</ele>
        <time>2021-02-28T11:56:41Z</time>
      </trkpt>
      <trkpt lat="43.59717" lon="3.80819">
        <ele>51</ele>
        <time>2021-02-28T11:56:42Z</time>
      </trkpt>
      <trkpt lat="43.59716" lon="3.80815">
        <ele>51</ele>
        <time>2021-02-28T11:56:43Z</time>
      </trkpt>
      <trkpt lat="43.59715" lon="3.80811">
        <ele>52</ele>
        <time>2021-02-28T11:56:44Z</time>
      </trkpt>
      <trkpt lat="43.59714" lon="3.80807">
        <ele>52</ele>
        <time>2021-02-28T11:56:45Z</time>
      </trkpt>
      <trkpt lat="43.59713" lon="3.80803">
        <ele>52</ele>
        <time>2021-02-28T11:56:46Z</time>
      </trkpt>
      <trkpt lat="43.59712" lon="3.80799">
        <ele>52</ele>
        <time>2021-02-28T11:56:47Z</time>
      </trkpt>
      <trkpt lat="43.59711" lon="3.80795">
        <ele>52</ele>
        <time>2021-02-28T11:56:48Z</time>
      </trkpt>
      <trkpt lat="43.5971" lon="3.80791">
        <ele>52</ele>
        <time>2021-02-28T11:56:49Z</time>
      </trkpt>
      <trkpt lat="43.59709" lon="3.80787">
        <ele>52</ele>
        <time>2021-02-28T11:56:50Z</time>
      </trkpt>
      <trkpt lat="43.59708" lon="3.80783">
        <ele>52</ele>
        <time>2021-02-28T11:56:51Z</time>
      </trkpt>
      <trkpt lat="43.59707" lon="3.80779">
        <ele>52</ele>
        <time>2021-02-28T11:56:52Z</time>
      </trkpt>
      <trkpt lat="43.59706" lon="3.80776">
        <ele>52</ele>
        <time>2021-02-28T11:56:53Z</time>
      </trkpt>
      <trkpt lat="43.59705" lon="3.80772">
        <ele>52</ele>
        <time>2021-02-28T11:56:54Z</time>
      </trkpt>
      <trkpt lat="43.59704" lon="3.80768">
        <ele>52</ele>
        <time>2021-02-28T11:56:55Z</time>
      </trkpt>
      <trkpt lat="43.59703" lon="3.80765">
        <ele>52</ele>
        <time>2021-02-28T11:56:56Z</time>
      </trkpt>
      <trkpt lat="43.59702" lon="3.80761">
        <ele>52</ele>
        <time>2021-02-28T11:56:57Z</time>
      </trkpt>
      <trkpt lat="43.59701" lon="3.80757">
        <ele>52</ele>
        <time>2021-02-28T11:56:58Z</time>
      </trkpt>
      <trkpt lat="43.597" lon="3.80753">
        <ele>52</ele>
        <time>2021-02-28T11:56:59Z</time>
      </trkpt>
      <trkpt lat="43.597" lon="3.80748">
        <ele>52</ele>
        <time>2021-02-28T11:57:00Z</time>
      </trkpt>
      <trkpt lat="43.59699" lon="3.80744">
        <ele>52</ele>
        <time>2021-02-28T11:57:01Z</time>
      </trkpt>
      <trkpt lat="43.59698" lon="3.8074">
        <ele>52</ele>
        <time>2021-02-28T11:57:02Z</time>
      </trkpt>
      <trkpt lat="43.59697" lon="3.80736">
        <ele>52</ele>
        <time>2021-02-28T11:57:03Z</time>
      </trkpt>
      <trkpt lat="43.59697" lon="3.80732">
        <ele>53</ele>
        <time>2021-02-28T11:57:04Z</time>
      </trkpt>
      <trkpt lat="43.59696" lon="3.80728">
        <ele>53</ele>
        <time>2021-02-28T11:57:05Z</time>
      </trkpt>
      <trkpt lat="43.59695" lon="3.80724">
        <ele>53</ele>
        <time>2021-02-28T11:57:06Z</time>
      </trkpt>
      <trkpt lat="43.59695" lon="3.8072">
        <ele>53</ele>
        <time>2021-02-28T11:57:07Z</time>
      </trkpt>
      <trkpt lat="43.59694" lon="3.80716">
        <ele>53</ele>
        <time>2021-02-28T11:57:08Z</time>
      </trkpt>
      <trkpt lat="43.59693" lon="3.80713">
        <ele>53</ele>
        <time>2021-02-28T11:57:09Z</time>
      </trkpt>
      <trkpt lat="43.59693" lon="3.80709">
        <ele>53</ele>
        <time>2021-02-28T11:57:10Z</time>
      </trkpt>
      <trkpt lat="43.59692" lon="3.80705">
        <ele>53</ele>
        <time>2021-02-28T11:57:11Z</time>
      </trkpt>
      <trkpt lat="43.59692" lon="3.80701">
        <ele>53</ele>
        <time>2021-02-28T11:57:12Z</time>
      </trkpt>
      <trkpt lat="43.59691" lon="3.80697">
        <ele>53</ele>
        <time>2021-02-28T11:57:13Z</time>
      </trkpt>
      <trkpt lat="43.59691" lon="3.80693">
        <ele>54</ele>
        <time>2021-02-28T11:57:14Z</time>
      </trkpt>
      <trkpt lat="43.59691" lon="3.80689">
        <ele>54</ele>
        <time>2021-02-28T11:57:15Z</time>
      </trkpt>
      <trkpt lat="43.5969" lon="3.80686">
        <ele>54</ele>
        <time>2021-02-28T11:57:16Z</time>
      </trkpt>
      <trkpt lat="43.5969" lon="3.80682">
        <ele>54</ele>
        <time>2021-02-28T11:57:17Z</time>
      </trkpt>
      <trkpt lat="43.5969" lon="3.80679">
        <ele>54</ele>
        <time>2021-02-28T11:57:18Z</time>
      </trkpt>
      <trkpt lat="43.5969" lon="3.80676">
        <ele>54</ele>
        <time>2021-02-28T11:57:19Z</time>
      </trkpt>
      <trkpt lat="43.59689" lon="3.80672">
        <ele>54</ele>
        <time>2021-02-28T11:57:20Z</time>
      </trkpt>
      <trkpt lat="43.59688" lon="3.80668">
        <ele>54</ele>
        <time>2021-02-28T11:57:21Z</time>
      </trkpt>
      <trkpt lat="43.59687" lon="3.80664">
        <ele>54</ele>
        <time>2021-02-28T11:57:22Z</time>
      </trkpt>
      <trkpt lat="43.59687" lon="3.8066">
        <ele>54</ele>
        <time>2021-02-28T11:57:23Z</time>
      </trkpt>
      <trkpt lat="43.59686" lon="3.80656">
        <ele>54</ele>
        <time>2021-02-28T11:57:24Z</time>
      </trkpt>
      <trkpt lat="43.59686" lon="3.80653">
        <ele>54</ele>
        <time>2021-02-28T11:57:25Z</time>
      </trkpt>
      <trkpt lat="43.59686" lon="3.80651">
        <ele>54</ele>
        <time>2021-02-28T11:57:30Z</time>
      </trkpt>
      <trkpt lat="43.59686" lon="3.80648">
        <ele>54</ele>
        <time>2021-02-28T11:57:31Z</time>
      </trkpt>
      <trkpt lat="43.59686" lon="3.80648">
        <ele>54</ele>
        <time>2021-02-28T11:57:32Z</time>
      </trkpt>
      <trkpt lat="43.59686" lon="3.80631">
        <ele>54</ele>
        <time>2021-02-28T11:57:35Z</time>
      </trkpt>
      <trkpt lat="43.59684" lon="3.80626">
        <ele>54</ele>
        <time>2021-02-28T11:57:36Z</time>
      </trkpt>
      <trkpt lat="43.59683" lon="3.80622">
        <ele>54</ele>
        <time>2021-02-28T11:57:37Z</time>
      </trkpt>
      <trkpt lat="43.59682" lon="3.80617">
        <ele>54</ele>
        <time>2021-02-28T11:57:38Z</time>
      </trkpt>
      <trkpt lat="43.59681" lon="3.80613">
        <ele>54</ele>
        <time>2021-02-28T11:57:39Z</time>
      </trkpt>
      <trkpt lat="43.5968" lon="3.80609">
        <ele>54</ele>
        <time>2021-02-28T11:57:40Z</time>
      </trkpt>
      <trkpt lat="43.59679" lon="3.80605">
        <ele>54</ele>
        <time>2021-02-28T11:57:41Z</time>
      </trkpt>
      <trkpt lat="43.59679" lon="3.80602">
        <ele>54</ele>
        <time>2021-02-28T11:57:42Z</time>
      </trkpt>
      <trkpt lat="43.59679" lon="3.80598">
        <ele>54</ele>
        <time>2021-02-28T11:57:43Z</time>
      </trkpt>
      <trkpt lat="43.59679" lon="3.80595">
        <ele>54</ele>
        <time>2021-02-28T11:57:44Z</time>
      </trkpt>
      <trkpt lat="43.59679" lon="3.80591">
        <ele>54</ele>
        <time>2021-02-28T11:57:45Z</time>
      </trkpt>
      <trkpt lat="43.59679" lon="3.80588">
        <ele>54</ele>
        <time>2021-02-28T11:57:46Z</time>
      </trkpt>
      <trkpt lat="43.59678" lon="3.80584">
        <ele>54</ele>
        <time>2021-02-28T11:57:47Z</time>
      </trkpt>
      <trkpt lat="43.59678" lon="3.80581">
        <ele>54</ele>
        <time>2021-02-28T11:57:48Z</time>
      </trkpt>
      <trkpt lat="43.59678" lon="3.80577">
        <ele>54</ele>
        <time>2021-02-28T11:57:49Z</time>
      </trkpt>
      <trkpt lat="43.59678" lon="3.80574">
        <ele>54</ele>
        <time>2021-02-28T11:57:50Z</time>
      </trkpt>
      <trkpt lat="43.59678" lon="3.8057">
        <ele>54</ele>
        <time>2021-02-28T11:57:51Z</time>
      </trkpt>
      <trkpt lat="43.59678" lon="3.80566">
        <ele>54</ele>
        <time>2021-02-28T11:57:52Z</time>
      </trkpt>
      <trkpt lat="43.59678" lon="3.80562">
        <ele>54</ele>
        <time>2021-02-28T11:57:53Z</time>
      </trkpt>
      <trkpt lat="43.59677" lon="3.80554">
        <ele>54</ele>
        <time>2021-02-28T11:57:55Z</time>
      </trkpt>
      <trkpt lat="43.59676" lon="3.8055">
        <ele>54</ele>
        <time>2021-02-28T11:57:56Z</time>
      </trkpt>
      <trkpt lat="43.59675" lon="3.80546">
        <ele>54</ele>
        <time>2021-02-28T11:57:57Z</time>
      </trkpt>
      <trkpt lat="43.59674" lon="3.80543">
        <ele>54</ele>
        <time>2021-02-28T11:57:58Z</time>
      </trkpt>
      <trkpt lat="43.59673" lon="3.8054">
        <ele>54</ele>
        <time>2021-02-28T11:57:59Z</time>
      </trkpt>
      <trkpt lat="43.59672" lon="3.80536">
        <ele>54</ele>
        <time>2021-02-28T11:58:00Z</time>
      </trkpt>
      <trkpt lat="43.5967" lon="3.80533">
        <ele>54</ele>
        <time>2021-02-28T11:58:01Z</time>
      </trkpt>
      <trkpt lat="43.59669" lon="3.8053">
        <ele>54</ele>
        <time>2021-02-28T11:58:02Z</time>
      </trkpt>
      <trkpt lat="43.59668" lon="3.80526">
        <ele>54</ele>
        <time>2021-02-28T11:58:03Z</time>
      </trkpt>
      <trkpt lat="43.59667" lon="3.80522">
        <ele>54</ele>
        <time>2021-02-28T11:58:04Z</time>
      </trkpt>
      <trkpt lat="43.59665" lon="3.80519">
        <ele>54</ele>
        <time>2021-02-28T11:58:05Z</time>
      </trkpt>
      <trkpt lat="43.59664" lon="3.80515">
        <ele>54</ele>
        <time>2021-02-28T11:58:06Z</time>
      </trkpt>
      <trkpt lat="43.59663" lon="3.80511">
        <ele>54</ele>
        <time>2021-02-28T11:58:07Z</time>
      </trkpt>
      <trkpt lat="43.59661" lon="3.80508">
        <ele>54</ele>
        <time>2021-02-28T11:58:08Z</time>
      </trkpt>
      <trkpt lat="43.5966" lon="3.80504">
        <ele>54</ele>
        <time>2021-02-28T11:58:09Z</time>
      </trkpt>
      <trkpt lat="43.59659" lon="3.805">
        <ele>54</ele>
        <time>2021-02-28T11:58:10Z</time>
      </trkpt>
      <trkpt lat="43.59657" lon="3.80496">
        <ele>54</ele>
        <time>2021-02-28T11:58:11Z</time>
      </trkpt>
      <trkpt lat="43.59656" lon="3.80492">
        <ele>54</ele>
        <time>2021-02-28T11:58:12Z</time>
      </trkpt>
      <trkpt lat="43.59655" lon="3.80488">
        <ele>54</ele>
        <time>2021-02-28T11:58:13Z</time>
      </trkpt>
      <trkpt lat="43.59653" lon="3.80484">
        <ele>55</ele>
        <time>2021-02-28T11:58:14Z</time>
      </trkpt>
      <trkpt lat="43.59652" lon="3.8048">
        <ele>55</ele>
        <time>2021-02-28T11:58:15Z</time>
      </trkpt>
      <trkpt lat="43.5965" lon="3.80475">
        <ele>55</ele>
        <time>2021-02-28T11:58:16Z</time>
      </trkpt>
      <trkpt lat="43.59649" lon="3.80471">
        <ele>55</ele>
        <time>2021-02-28T11:58:17Z</time>
      </trkpt>
      <trkpt lat="43.59648" lon="3.80467">
        <ele>55</ele>
        <time>2021-02-28T11:58:18Z</time>
      </trkpt>
      <trkpt lat="43.59646" lon="3.80463">
        <ele>55</ele>
        <time>2021-02-28T11:58:19Z</time>
      </trkpt>
      <trkpt lat="43.59645" lon="3.80459">
        <ele>55</ele>
        <time>2021-02-28T11:58:20Z</time>
      </trkpt>
      <trkpt lat="43.59643" lon="3.80454">
        <ele>55</ele>
        <time>2021-02-28T11:58:21Z</time>
      </trkpt>
      <trkpt lat="43.59642" lon="3.8045">
        <ele>55</ele>
        <time>2021-02-28T11:58:22Z</time>
      </trkpt>
      <trkpt lat="43.59641" lon="3.80445">
        <ele>55</ele>
        <time>2021-02-28T11:58:23Z</time>
      </trkpt>
      <trkpt lat="43.5964" lon="3.80441">
        <ele>55</ele>
        <time>2021-02-28T11:58:24Z</time>
      </trkpt>
      <trkpt lat="43.5964" lon="3.80437">
        <ele>55</ele>
        <time>2021-02-28T11:58:25Z</time>
      </trkpt>
      <trkpt lat="43.59639" lon="3.80432">
        <ele>55</ele>
        <time>2021-02-28T11:58:26Z</time>
      </trkpt>
      <trkpt lat="43.59638" lon="3.80428">
        <ele>55</ele>
        <time>2021-02-28T11:58:27Z</time>
      </trkpt>
      <trkpt lat="43.59638" lon="3.80423">
        <ele>55</ele>
        <time>2021-02-28T11:58:28Z</time>
      </trkpt>
      <trkpt lat="43.59637" lon="3.80419">
        <ele>55</ele>
        <time>2021-02-28T11:58:29Z</time>
      </trkpt>
      <trkpt lat="43.59636" lon="3.80415">
        <ele>55</ele>
        <time>2021-02-28T11:58:30Z</time>
      </trkpt>
      <trkpt lat="43.59636" lon="3.8041">
        <ele>55</ele>
        <time>2021-02-28T11:58:31Z</time>
      </trkpt>
      <trkpt lat="43.59635" lon="3.80406">
        <ele>55</ele>
        <time>2021-02-28T11:58:32Z</time>
      </trkpt>
      <trkpt lat="43.59633" lon="3.80402">
        <ele>55</ele>
        <time>2021-02-28T11:58:33Z</time>
      </trkpt>
      <trkpt lat="43.59631" lon="3.80398">
        <ele>55</ele>
        <time>2021-02-28T11:58:34Z</time>
      </trkpt>
      <trkpt lat="43.59629" lon="3.80395">
        <ele>55</ele>
        <time>2021-02-28T11:58:35Z</time>
      </trkpt>
      <trkpt lat="43.59627" lon="3.80391">
        <ele>55</ele>
        <time>2021-02-28T11:58:36Z</time>
      </trkpt>
      <trkpt lat="43.59625" lon="3.80387">
        <ele>55</ele>
        <time>2021-02-28T11:58:37Z</time>
      </trkpt>
      <trkpt lat="43.59623" lon="3.80383">
        <ele>55</ele>
        <time>2021-02-28T11:58:38Z</time>
      </trkpt>
      <trkpt lat="43.59621" lon="3.80379">
        <ele>55</ele>
        <time>2021-02-28T11:58:39Z</time>
      </trkpt>
      <trkpt lat="43.5962" lon="3.80375">
        <ele>55</ele>
        <time>2021-02-28T11:58:40Z</time>
      </trkpt>
      <trkpt lat="43.59618" lon="3.80371">
        <ele>55</ele>
        <time>2021-02-28T11:58:41Z</time>
      </trkpt>
      <trkpt lat="43.59616" lon="3.80368">
        <ele>55</ele>
        <time>2021-02-28T11:58:42Z</time>
      </trkpt>
      <trkpt lat="43.59613" lon="3.80366">
        <ele>55</ele>
        <time>2021-02-28T11:58:43Z</time>
      </trkpt>
      <trkpt lat="43.5961" lon="3.80362">
        <ele>55</ele>
        <time>2021-02-28T11:58:44Z</time>
      </trkpt>
      <trkpt lat="43.59608" lon="3.80359">
        <ele>55</ele>
        <time>2021-02-28T11:58:45Z</time>
      </trkpt>
      <trkpt lat="43.59606" lon="3.80354">
        <ele>55</ele>
        <time>2021-02-28T11:58:46Z</time>
      </trkpt>
      <trkpt lat="43.59604" lon="3.80351">
        <ele>55</ele>
        <time>2021-02-28T11:58:47Z</time>
      </trkpt>
      <trkpt lat="43.59601" lon="3.80347">
        <ele>55</ele>
        <time>2021-02-28T11:58:48Z</time>
      </trkpt>
      <trkpt lat="43.59598" lon="3.80344">
        <ele>55</ele>
        <time>2021-02-28T11:58:49Z</time>
      </trkpt>
      <trkpt lat="43.59595" lon="3.8034">
        <ele>55</ele>
        <time>2021-02-28T11:58:50Z</time>
      </trkpt>
      <trkpt lat="43.59593" lon="3.80336">
        <ele>55</ele>
        <time>2021-02-28T11:58:51Z</time>
      </trkpt>
      <trkpt lat="43.59591" lon="3.80332">
        <ele>55</ele>
        <time>2021-02-28T11:58:52Z</time>
      </trkpt>
      <trkpt lat="43.59588" lon="3.80329">
        <ele>55</ele>
        <time>2021-02-28T11:58:53Z</time>
      </trkpt>
      <trkpt lat="43.59585" lon="3.80325">
        <ele>55</ele>
        <time>2021-02-28T11:58:54Z</time>
      </trkpt>
      <trkpt lat="43.59583" lon="3.80322">
        <ele>55</ele>
        <time>2021-02-28T11:58:55Z</time>
      </trkpt>
      <trkpt lat="43.5958" lon="3.80319">
        <ele>55</ele>
        <time>2021-02-28T11:58:56Z</time>
      </trkpt>
      <trkpt lat="43.59578" lon="3.80315">
        <ele>55</ele>
        <time>2021-02-28T11:58:57Z</time>
      </trkpt>
      <trkpt lat="43.59575" lon="3.80312">
        <ele>55</ele>
        <time>2021-02-28T11:58:58Z</time>
      </trkpt>
      <trkpt lat="43.59573" lon="3.80308">
        <ele>55</ele>
        <time>2021-02-28T11:58:59Z</time>
      </trkpt>
      <trkpt lat="43.5957" lon="3.80305">
        <ele>55</ele>
        <time>2021-02-28T11:59:00Z</time>
      </trkpt>
      <trkpt lat="43.59567" lon="3.80302">
        <ele>55</ele>
        <time>2021-02-28T11:59:01Z</time>
      </trkpt>
      <trkpt lat="43.59564" lon="3.80299">
        <ele>55</ele>
        <time>2021-02-28T11:59:02Z</time>
      </trkpt>
      <trkpt lat="43.59562" lon="3.80296">
        <ele>55</ele>
        <time>2021-02-28T11:59:03Z</time>
      </trkpt>
      <trkpt lat="43.59559" lon="3.80292">
        <ele>56</ele>
        <time>2021-02-28T11:59:04Z</time>
      </trkpt>
      <trkpt lat="43.59556" lon="3.80288">
        <ele>56</ele>
        <time>2021-02-28T11:59:05Z</time>
      </trkpt>
      <trkpt lat="43.59554" lon="3.80285">
        <ele>56</ele>
        <time>2021-02-28T11:59:06Z</time>
      </trkpt>
      <trkpt lat="43.59552" lon="3.80281">
        <ele>56</ele>
        <time>2021-02-28T11:59:07Z</time>
      </trkpt>
      <trkpt lat="43.5955" lon="3.80277">
        <ele>56</ele>
        <time>2021-02-28T11:59:08Z</time>
      </trkpt>
      <trkpt lat="43.59547" lon="3.80273">
        <ele>56</ele>
        <time>2021-02-28T11:59:09Z</time>
      </trkpt>
      <trkpt lat="43.59545" lon="3.80269">
        <ele>56</ele>
        <time>2021-02-28T11:59:10Z</time>
      </trkpt>
      <trkpt lat="43.59543" lon="3.80266">
        <ele>56</ele>
        <time>2021-02-28T11:59:11Z</time>
      </trkpt>
      <trkpt lat="43.5954" lon="3.80262">
        <ele>56</ele>
        <time>2021-02-28T11:59:12Z</time>
      </trkpt>
      <trkpt lat="43.59538" lon="3.80258">
        <ele>56</ele>
        <time>2021-02-28T11:59:13Z</time>
      </trkpt>
      <trkpt lat="43.59536" lon="3.80254">
        <ele>56</ele>
        <time>2021-02-28T11:59:14Z</time>
      </trkpt>
      <trkpt lat="43.59534" lon="3.80251">
        <ele>56</ele>
        <time>2021-02-28T11:59:15Z</time>
      </trkpt>
      <trkpt lat="43.59531" lon="3.80247">
        <ele>56</ele>
        <time>2021-02-28T11:59:16Z</time>
      </trkpt>
      <trkpt lat="43.59529" lon="3.80243">
        <ele>56</ele>
        <time>2021-02-28T11:59:17Z</time>
      </trkpt>
      <trkpt lat="43.59527" lon="3.80239">
        <ele>56</ele>
        <time>2021-02-28T11:59:18Z</time>
      </trkpt>
      <trkpt lat="43.59525" lon="3.80235">
        <ele>56</ele>
        <time>2021-02-28T11:59:19Z</time>
      </trkpt>
      <trkpt lat="43.59523" lon="3.80231">
        <ele>56</ele>
        <time>2021-02-28T11:59:20Z</time>
      </trkpt>
      <trkpt lat="43.59522" lon="3.80228">
        <ele>56</ele>
        <time>2021-02-28T11:59:21Z</time>
      </trkpt>
      <trkpt lat="43.5952" lon="3.80224">
        <ele>56</ele>
        <time>2021-02-28T11:59:22Z</time>
      </trkpt>
      <trkpt lat="43.59518" lon="3.80221">
        <ele>56</ele>
        <time>2021-02-28T11:59:23Z</time>
      </trkpt>
      <trkpt lat="43.59517" lon="3.80217">
        <ele>56</ele>
        <time>2021-02-28T11:59:24Z</time>
      </trkpt>
      <trkpt lat="43.59515" lon="3.80213">
        <ele>56</ele>
        <time>2021-02-28T11:59:25Z</time>
      </trkpt>
      <trkpt lat="43.59514" lon="3.8021">
        <ele>56</ele>
        <time>2021-02-28T11:59:26Z</time>
      </trkpt>
      <trkpt lat="43.59511" lon="3.80206">
        <ele>56</ele>
        <time>2021-02-28T11:59:27Z</time>
      </trkpt>
      <trkpt lat="43.59509" lon="3.80203">
        <ele>56</ele>
        <time>2021-02-28T11:59:28Z</time>
      </trkpt>
      <trkpt lat="43.59508" lon="3.80198">
        <ele>56</ele>
        <time>2021-02-28T11:59:29Z</time>
      </trkpt>
      <trkpt lat="43.59507" lon="3.80193">
        <ele>56</ele>
        <time>2021-02-28T11:59:30Z</time>
      </trkpt>
      <trkpt lat="43.59505" lon="3.80188">
        <ele>56</ele>
        <time>2021-02-28T11:59:31Z</time>
      </trkpt>
      <trkpt lat="43.59504" lon="3.80183">
        <ele>56</ele>
        <time>2021-02-28T11:59:32Z</time>
      </trkpt>
      <trkpt lat="43.59503" lon="3.80179">
        <ele>56</ele>
        <time>2021-02-28T11:59:33Z</time>
      </trkpt>
      <trkpt lat="43.59501" lon="3.80174">
        <ele>56</ele>
        <time>2021-02-28T11:59:34Z</time>
      </trkpt>
      <trkpt lat="43.595" lon="3.80169">
        <ele>56</ele>
        <time>2021-02-28T11:59:35Z</time>
      </trkpt>
      <trkpt lat="43.59498" lon="3.80164">
        <ele>56</ele>
        <time>2021-02-28T11:59:36Z</time>
      </trkpt>
      <trkpt lat="43.59497" lon="3.80159">
        <ele>56</ele>
        <time>2021-02-28T11:59:37Z</time>
      </trkpt>
      <trkpt lat="43.59495" lon="3.80154">
        <ele>56</ele>
        <time>2021-02-28T11:59:38Z</time>
      </trkpt>
      <trkpt lat="43.59494" lon="3.80149">
        <ele>56</ele>
        <time>2021-02-28T11:59:39Z</time>
      </trkpt>
      <trkpt lat="43.59493" lon="3.80144">
        <ele>56</ele>
        <time>2021-02-28T11:59:40Z</time>
      </trkpt>
      <trkpt lat="43.59492" lon="3.80141">
        <ele>56</ele>
        <time>2021-02-28T11:59:41Z</time>
      </trkpt>
      <trkpt lat="43.5949" lon="3.80138">
        <ele>56</ele>
        <time>2021-02-28T11:59:42Z</time>
      </trkpt>
      <trkpt lat="43.59486" lon="3.80136">
        <ele>56</ele>
        <time>2021-02-28T11:59:43Z</time>
      </trkpt>
      <trkpt lat="43.59482" lon="3.80135">
        <ele>56</ele>
        <time>2021-02-28T11:59:44Z</time>
      </trkpt>
      <trkpt lat="43.59479" lon="3.80135">
        <ele>56</ele>
        <time>2021-02-28T11:59:45Z</time>
      </trkpt>
      <trkpt lat="43.59475" lon="3.80136">
        <ele>56</ele>
        <time>2021-02-28T11:59:46Z</time>
      </trkpt>
      <trkpt lat="43.59471" lon="3.80136">
        <ele>56</ele>
        <time>2021-02-28T11:59:47Z</time>
      </trkpt>
      <trkpt lat="43.59468" lon="3.80137">
        <ele>56</ele>
        <time>2021-02-28T11:59:48Z</time>
      </trkpt>
      <trkpt lat="43.59464" lon="3.80137">
        <ele>56</ele>
        <time>2021-02-28T11:59:49Z</time>
      </trkpt>
      <trkpt lat="43.59461" lon="3.80137">
        <ele>56</ele>
        <time>2021-02-28T11:59:50Z</time>
      </trkpt>
      <trkpt lat="43.59458" lon="3.80136">
        <ele>56</ele>
        <time>2021-02-28T11:59:51Z</time>
      </trkpt>
      <trkpt lat="43.59455" lon="3.80136">
        <ele>56</ele>
        <time>2021-02-28T11:59:52Z</time>
      </trkpt>
      <trkpt lat="43.59452" lon="3.80136">
        <ele>56</ele>
        <time>2021-02-28T11:59:53Z</time>
      </trkpt>
      <trkpt lat="43.59449" lon="3.80135">
        <ele>55</ele>
        <time>2021-02-28T11:59:54Z</time>
      </trkpt>
      <trkpt lat="43.59446" lon="3.80134">
        <ele>55</ele>
        <time>2021-02-28T11:59:55Z</time>
      </trkpt>
      <trkpt lat="43.59442" lon="3.80132">
        <ele>55</ele>
        <time>2021-02-28T11:59:56Z</time>
      </trkpt>
      <trkpt lat="43.59439" lon="3.80131">
        <ele>55</ele>
        <time>2021-02-28T11:59:57Z</time>
      </trkpt>
      <trkpt lat="43.59435" lon="3.80129">
        <ele>55</ele>
        <time>2021-02-28T11:59:58Z</time>
      </trkpt>
      <trkpt lat="43.59431" lon="3.80127">
        <ele>55</ele>
        <time>2021-02-28T11:59:59Z</time>
      </trkpt>
      <trkpt lat="43.59427" lon="3.80125">
        <ele>55</ele>
        <time>2021-02-28T12:00:00Z</time>
      </trkpt>
      <trkpt lat="43.59423" lon="3.80123">
        <ele>55</ele>
        <time>2021-02-28T12:00:01Z</time>
      </trkpt>
      <trkpt lat="43.59419" lon="3.80122">
        <ele>55</ele>
        <time>2021-02-28T12:00:02Z</time>
      </trkpt>
      <trkpt lat="43.59414" lon="3.8012">
        <ele>55</ele>
        <time>2021-02-28T12:00:03Z</time>
      </trkpt>
      <trkpt lat="43.5941" lon="3.80118">
        <ele>54</ele>
        <time>2021-02-28T12:00:04Z</time>
      </trkpt>
      <trkpt lat="43.59405" lon="3.80116">
        <ele>54</ele>
        <time>2021-02-28T12:00:05Z</time>
      </trkpt>
      <trkpt lat="43.594" lon="3.80114">
        <ele>54</ele>
        <time>2021-02-28T12:00:06Z</time>
      </trkpt>
      <trkpt lat="43.59395" lon="3.80112">
        <ele>54</ele>
        <time>2021-02-28T12:00:07Z</time>
      </trkpt>
      <trkpt lat="43.5939" lon="3.8011">
        <ele>54</ele>
        <time>2021-02-28T12:00:08Z</time>
      </trkpt>
      <trkpt lat="43.59385" lon="3.80108">
        <ele>54</ele>
        <time>2021-02-28T12:00:09Z</time>
      </trkpt>
      <trkpt lat="43.59379" lon="3.80105">
        <ele>54</ele>
        <time>2021-02-28T12:00:10Z</time>
      </trkpt>
      <trkpt lat="43.59374" lon="3.80103">
        <ele>54</ele>
        <time>2021-02-28T12:00:11Z</time>
      </trkpt>
      <trkpt lat="43.59368" lon="3.80101">
        <ele>54</ele>
        <time>2021-02-28T12:00:12Z</time>
      </trkpt>
      <trkpt lat="43.59363" lon="3.80099">
        <ele>54</ele>
        <time>2021-02-28T12:00:13Z</time>
      </trkpt>
      <trkpt lat="43.59358" lon="3.80097">
        <ele>53</ele>
        <time>2021-02-28T12:00:14Z</time>
      </trkpt>
      <trkpt lat="43.59352" lon="3.80095">
        <ele>53</ele>
        <time>2021-02-28T12:00:15Z</time>
      </trkpt>
      <trkpt lat="43.59347" lon="3.80093">
        <ele>53</ele>
        <time>2021-02-28T12:00:16Z</time>
      </trkpt>
      <trkpt lat="43.59342" lon="3.80091">
        <ele>53</ele>
        <time>2021-02-28T12:00:17Z</time>
      </trkpt>
      <trkpt lat="43.59338" lon="3.80088">
        <ele>53</ele>
        <time>2021-02-28T12:00:18Z</time>
      </trkpt>
      <trkpt lat="43.59333" lon="3.80085">
        <ele>53</ele>
        <time>2021-02-28T12:00:19Z</time>
      </trkpt>
      <trkpt lat="43.59328" lon="3.80082">
        <ele>53</ele>
        <time>2021-02-28T12:00:20Z</time>
      </trkpt>
      <trkpt lat="43.59323" lon="3.80078">
        <ele>53</ele>
        <time>2021-02-28T12:00:21Z</time>
      </trkpt>
      <trkpt lat="43.59319" lon="3.80076">
        <ele>53</ele>
        <time>2021-02-28T12:00:22Z</time>
      </trkpt>
      <trkpt lat="43.59314" lon="3.80073">
        <ele>53</ele>
        <time>2021-02-28T12:00:23Z</time>
      </trkpt>
      <trkpt lat="43.5931" lon="3.80071">
        <ele>52</ele>
        <time>2021-02-28T12:00:24Z</time>
      </trkpt>
      <trkpt lat="43.59305" lon="3.80069">
        <ele>52</ele>
        <time>2021-02-28T12:00:25Z</time>
      </trkpt>
      <trkpt lat="43.593" lon="3.80069">
        <ele>52</ele>
        <time>2021-02-28T12:00:26Z</time>
      </trkpt>
      <trkpt lat="43.59295" lon="3.8007">
        <ele>52</ele>
        <time>2021-02-28T12:00:27Z</time>
      </trkpt>
      <trkpt lat="43.5929" lon="3.80072">
        <ele>52</ele>
        <time>2021-02-28T12:00:28Z</time>
      </trkpt>
      <trkpt lat="43.59286" lon="3.80075">
        <ele>52</ele>
        <time>2021-02-28T12:00:29Z</time>
      </trkpt>
      <trkpt lat="43.59282" lon="3.80079">
        <ele>52</ele>
        <time>2021-02-28T12:00:30Z</time>
      </trkpt>
      <trkpt lat="43.59278" lon="3.80083">
        <ele>52</ele>
        <time>2021-02-28T12:00:31Z</time>
      </trkpt>
      <trkpt lat="43.59274" lon="3.80087">
        <ele>52</ele>
        <time>2021-02-28T12:00:32Z</time>
      </trkpt>
      <trkpt lat="43.5927" lon="3.8009">
        <ele>52</ele>
        <time>2021-02-28T12:00:33Z</time>
      </trkpt>
      <trkpt lat="43.59267" lon="3.80094">
        <ele>51</ele>
        <time>2021-02-28T12:00:34Z</time>
      </trkpt>
      <trkpt lat="43.59263" lon="3.80098">
        <ele>51</ele>
        <time>2021-02-28T12:00:35Z</time>
      </trkpt>
      <trkpt lat="43.59259" lon="3.80101">
        <ele>51</ele>
        <time>2021-02-28T12:00:36Z</time>
      </trkpt>
      <trkpt lat="43.59255" lon="3.80103">
        <ele>51</ele>
        <time>2021-02-28T12:00:37Z</time>
      </trkpt>
      <trkpt lat="43.59251" lon="3.80104">
        <ele>51</ele>
        <time>2021-02-28T12:00:38Z</time>
      </trkpt>
      <trkpt lat="43.59246" lon="3.80103">
        <ele>51</ele>
        <time>2021-02-28T12:00:39Z</time>
      </trkpt>
      <trkpt lat="43.59242" lon="3.80099">
        <ele>51</ele>
        <time>2021-02-28T12:00:40Z</time>
      </trkpt>
      <trkpt lat="43.59239" lon="3.80094">
        <ele>51</ele>
        <time>2021-02-28T12:00:41Z</time>
      </trkpt>
      <trkpt lat="43.59236" lon="3.80089">
        <ele>51</ele>
        <time>2021-02-28T12:00:42Z</time>
      </trkpt>
      <trkpt lat="43.59233" lon="3.80083">
        <ele>51</ele>
        <time>2021-02-28T12:00:43Z</time>
      </trkpt>
      <trkpt lat="43.5923" lon="3.80077">
        <ele>50</ele>
        <time>2021-02-28T12:00:44Z</time>
      </trkpt>
      <trkpt lat="43.59226" lon="3.80071">
        <ele>50</ele>
        <time>2021-02-28T12:00:45Z</time>
      </trkpt>
      <trkpt lat="43.59223" lon="3.80064">
        <ele>50</ele>
        <time>2021-02-28T12:00:46Z</time>
      </trkpt>
      <trkpt lat="43.59219" lon="3.80058">
        <ele>50</ele>
        <time>2021-02-28T12:00:47Z</time>
      </trkpt>
      <trkpt lat="43.59215" lon="3.80051">
        <ele>50</ele>
        <time>2021-02-28T12:00:48Z</time>
      </trkpt>
      <trkpt lat="43.59211" lon="3.80045">
        <ele>50</ele>
        <time>2021-02-28T12:00:49Z</time>
      </trkpt>
      <trkpt lat="43.59208" lon="3.80038">
        <ele>50</ele>
        <time>2021-02-28T12:00:50Z</time>
      </trkpt>
      <trkpt lat="43.59204" lon="3.80031">
        <ele>50</ele>
        <time>2021-02-28T12:00:51Z</time>
      </trkpt>
      <trkpt lat="43.592" lon="3.80024">
        <ele>50</ele>
        <time>2021-02-28T12:00:52Z</time>
      </trkpt>
      <trkpt lat="43.59196" lon="3.80018">
        <ele>50</ele>
        <time>2021-02-28T12:00:53Z</time>
      </trkpt>
      <trkpt lat="43.59192" lon="3.80011">
        <ele>49</ele>
        <time>2021-02-28T12:00:54Z</time>
      </trkpt>
      <trkpt lat="43.59188" lon="3.80004">
        <ele>49</ele>
        <time>2021-02-28T12:00:55Z</time>
      </trkpt>
      <trkpt lat="43.59184" lon="3.79997">
        <ele>49</ele>
        <time>2021-02-28T12:00:56Z</time>
      </trkpt>
      <trkpt lat="43.5918" lon="3.7999">
        <ele>49</ele>
        <time>2021-02-28T12:00:57Z</time>
      </trkpt>
      <trkpt lat="43.59177" lon="3.79984">
        <ele>49</ele>
        <time>2021-02-28T12:00:58Z</time>
      </trkpt>
      <trkpt lat="43.59174" lon="3.79979">
        <ele>49</ele>
        <time>2021-02-28T12:00:59Z</time>
      </trkpt>
      <trkpt lat="43.59172" lon="3.79974">
        <ele>49</ele>
        <time>2021-02-28T12:01:00Z</time>
      </trkpt>
      <trkpt lat="43.59172" lon="3.79968">
        <ele>49</ele>
        <time>2021-02-28T12:01:01Z</time>
      </trkpt>
      <trkpt lat="43.59173" lon="3.79964">
        <ele>49</ele>
        <time>2021-02-28T12:01:02Z</time>
      </trkpt>
      <trkpt lat="43.59175" lon="3.79961">
        <ele>49</ele>
        <time>2021-02-28T12:01:03Z</time>
      </trkpt>
      <trkpt lat="43.59178" lon="3.79958">
        <ele>47</ele>
        <time>2021-02-28T12:01:04Z</time>
      </trkpt>
      <trkpt lat="43.59181" lon="3.79955">
        <ele>47</ele>
        <time>2021-02-28T12:01:05Z</time>
      </trkpt>
      <trkpt lat="43.59184" lon="3.79952">
        <ele>47</ele>
        <time>2021-02-28T12:01:06Z</time>
      </trkpt>
      <trkpt lat="43.59187" lon="3.79949">
        <ele>47</ele>
        <time>2021-02-28T12:01:07Z</time>
      </trkpt>
      <trkpt lat="43.59191" lon="3.79946">
        <ele>47</ele>
        <time>2021-02-28T12:01:08Z</time>
      </trkpt>
      <trkpt lat="43.59195" lon="3.79943">
        <ele>47</ele>
        <time>2021-02-28T12:01:09Z</time>
      </trkpt>
      <trkpt lat="43.59198" lon="3.7994">
        <ele>47</ele>
        <time>2021-02-28T12:01:10Z</time>
      </trkpt>
      <trkpt lat="43.59202" lon="3.79937">
        <ele>47</ele>
        <time>2021-02-28T12:01:11Z</time>
      </trkpt>
      <trkpt lat="43.59205" lon="3.79933">
        <ele>47</ele>
        <time>2021-02-28T12:01:12Z</time>
      </trkpt>
      <trkpt lat="43.59209" lon="3.7993">
        <ele>47</ele>
        <time>2021-02-28T12:01:13Z</time>
      </trkpt>
      <trkpt lat="43.59212" lon="3.79926">
        <ele>48</ele>
        <time>2021-02-28T12:01:14Z</time>
      </trkpt>
      <trkpt lat="43.59216" lon="3.79923">
        <ele>48</ele>
        <time>2021-02-28T12:01:15Z</time>
      </trkpt>
      <trkpt lat="43.59219" lon="3.79919">
        <ele>48</ele>
        <time>2021-02-28T12:01:16Z</time>
      </trkpt>
      <trkpt lat="43.59223" lon="3.79916">
        <ele>48</ele>
        <time>2021-02-28T12:01:17Z</time>
      </trkpt>
      <trkpt lat="43.59226" lon="3.79913">
        <ele>48</ele>
        <time>2021-02-28T12:01:18Z</time>
      </trkpt>
      <trkpt lat="43.5923" lon="3.7991">
        <ele>48</ele>
        <time>2021-02-28T12:01:19Z</time>
      </trkpt>
      <trkpt lat="43.59234" lon="3.79907">
        <ele>48</ele>
        <time>2021-02-28T12:01:20Z</time>
      </trkpt>
      <trkpt lat="43.59237" lon="3.79903">
        <ele>48</ele>
        <time>2021-02-28T12:01:21Z</time>
      </trkpt>
      <trkpt lat="43.5924" lon="3.799">
        <ele>48</ele>
        <time>2021-02-28T12:01:22Z</time>
      </trkpt>
      <trkpt lat="43.59244" lon="3.79896">
        <ele>48</ele>
        <time>2021-02-28T12:01:23Z</time>
      </trkpt>
      <trkpt lat="43.59248" lon="3.79893">
        <ele>49</ele>
        <time>2021-02-28T12:01:24Z</time>
      </trkpt>
      <trkpt lat="43.59251" lon="3.79889">
        <ele>49</ele>
        <time>2021-02-28T12:01:25Z</time>
      </trkpt>
      <trkpt lat="43.59255" lon="3.79886">
        <ele>49</ele>
        <time>2021-02-28T12:01:26Z</time>
      </trkpt>
      <trkpt lat="43.59258" lon="3.79882">
        <ele>49</ele>
        <time>2021-02-28T12:01:27Z</time>
      </trkpt>
      <trkpt lat="43.59261" lon="3.79878">
        <ele>49</ele>
        <time>2021-02-28T12:01:28Z</time>
      </trkpt>
      <trkpt lat="43.59264" lon="3.79875">
        <ele>49</ele>
        <time>2021-02-28T12:01:29Z</time>
      </trkpt>
      <trkpt lat="43.59268" lon="3.79871">
        <ele>49</ele>
        <time>2021-02-28T12:01:30Z</time>
      </trkpt>
      <trkpt lat="43.59271" lon="3.79867">
        <ele>49</ele>
        <time>2021-02-28T12:01:31Z</time>
      </trkpt>
      <trkpt lat="43.59275" lon="3.79864">
        <ele>49</ele>
        <time>2021-02-28T12:01:32Z</time>
      </trkpt>
      <trkpt lat="43.59278" lon="3.7986">
        <ele>49</ele>
        <time>2021-02-28T12:01:33Z</time>
      </trkpt>
      <trkpt lat="43.59282" lon="3.79856">
        <ele>50</ele>
        <time>2021-02-28T12:01:34Z</time>
      </trkpt>
      <trkpt lat="43.59285" lon="3.79852">
        <ele>50</ele>
        <time>2021-02-28T12:01:35Z</time>
      </trkpt>
      <trkpt lat="43.59288" lon="3.79849">
        <ele>50</ele>
        <time>2021-02-28T12:01:36Z</time>
      </trkpt>
      <trkpt lat="43.59292" lon="3.79845">
        <ele>50</ele>
        <time>2021-02-28T12:01:37Z</time>
      </trkpt>
      <trkpt lat="43.59295" lon="3.79842">
        <ele>50</ele>
        <time>2021-02-28T12:01:38Z</time>
      </trkpt>
      <trkpt lat="43.59298" lon="3.79838">
        <ele>50</ele>
        <time>2021-02-28T12:01:39Z</time>
      </trkpt>
      <trkpt lat="43.59301" lon="3.79835">
        <ele>50</ele>
        <time>2021-02-28T12:01:40Z</time>
      </trkpt>
      <trkpt lat="43.59305" lon="3.79831">
        <ele>50</ele>
        <time>2021-02-28T12:01:41Z</time>
      </trkpt>
      <trkpt lat="43.59308" lon="3.79828">
        <ele>50</ele>
        <time>2021-02-28T12:01:42Z</time>
      </trkpt>
      <trkpt lat="43.59311" lon="3.79824">
        <ele>50</ele>
        <time>2021-02-28T12:01:43Z</time>
      </trkpt>
      <trkpt lat="43.59314" lon="3.79821">
        <ele>50</ele>
        <time>2021-02-28T12:01:44Z</time>
      </trkpt>
      <trkpt lat="43.59318" lon="3.79817">
        <ele>50</ele>
        <time>2021-02-28T12:01:45Z</time>
      </trkpt>
      <trkpt lat="43.5932" lon="3.79813">
        <ele>50</ele>
        <time>2021-02-28T12:01:46Z</time>
      </trkpt>
      <trkpt lat="43.59323" lon="3.79809">
        <ele>50</ele>
        <time>2021-02-28T12:01:47Z</time>
      </trkpt>
      <trkpt lat="43.59326" lon="3.79805">
        <ele>50</ele>
        <time>2021-02-28T12:01:48Z</time>
      </trkpt>
      <trkpt lat="43.59329" lon="3.79802">
        <ele>50</ele>
        <time>2021-02-28T12:01:49Z</time>
      </trkpt>
      <trkpt lat="43.59332" lon="3.79798">
        <ele>50</ele>
        <time>2021-02-28T12:01:50Z</time>
      </trkpt>
      <trkpt lat="43.59335" lon="3.79794">
        <ele>50</ele>
        <time>2021-02-28T12:01:51Z</time>
      </trkpt>
      <trkpt lat="43.59337" lon="3.79791">
        <ele>50</ele>
        <time>2021-02-28T12:01:52Z</time>
      </trkpt>
      <trkpt lat="43.5934" lon="3.79787">
        <ele>50</ele>
        <time>2021-02-28T12:01:53Z</time>
      </trkpt>
      <trkpt lat="43.59342" lon="3.79782">
        <ele>51</ele>
        <time>2021-02-28T12:01:54Z</time>
      </trkpt>
      <trkpt lat="43.59344" lon="3.79778">
        <ele>51</ele>
        <time>2021-02-28T12:01:55Z</time>
      </trkpt>
      <trkpt lat="43.59344" lon="3.79773">
        <ele>51</ele>
        <time>2021-02-28T12:01:56Z</time>
      </trkpt>
      <trkpt lat="43.59345" lon="3.79767">
        <ele>51</ele>
        <time>2021-02-28T12:01:57Z</time>
      </trkpt>
      <trkpt lat="43.59345" lon="3.79762">
        <ele>51</ele>
        <time>2021-02-28T12:01:58Z</time>
      </trkpt>
      <trkpt lat="43.59345" lon="3.79756">
        <ele>51</ele>
        <time>2021-02-28T12:01:59Z</time>
      </trkpt>
      <trkpt lat="43.59343" lon="3.7975">
        <ele>51</ele>
        <time>2021-02-28T12:02:00Z</time>
      </trkpt>
      <trkpt lat="43.59342" lon="3.79744">
        <ele>51</ele>
        <time>2021-02-28T12:02:01Z</time>
      </trkpt>
      <trkpt lat="43.5934" lon="3.79738">
        <ele>51</ele>
        <time>2021-02-28T12:02:02Z</time>
      </trkpt>
      <trkpt lat="43.59337" lon="3.79733">
        <ele>51</ele>
        <time>2021-02-28T12:02:03Z</time>
      </trkpt>
      <trkpt lat="43.59335" lon="3.79727">
        <ele>50</ele>
        <time>2021-02-28T12:02:04Z</time>
      </trkpt>
      <trkpt lat="43.59333" lon="3.79722">
        <ele>50</ele>
        <time>2021-02-28T12:02:05Z</time>
      </trkpt>
      <trkpt lat="43.59331" lon="3.79717">
        <ele>50</ele>
        <time>2021-02-28T12:02:06Z</time>
      </trkpt>
      <trkpt lat="43.59329" lon="3.79711">
        <ele>50</ele>
        <time>2021-02-28T12:02:07Z</time>
      </trkpt>
      <trkpt lat="43.59328" lon="3.79706">
        <ele>50</ele>
        <time>2021-02-28T12:02:08Z</time>
      </trkpt>
      <trkpt lat="43.59326" lon="3.79701">
        <ele>50</ele>
        <time>2021-02-28T12:02:09Z</time>
      </trkpt>
      <trkpt lat="43.59324" lon="3.79696">
        <ele>50</ele>
        <time>2021-02-28T12:02:10Z</time>
      </trkpt>
      <trkpt lat="43.59322" lon="3.79691">
        <ele>50</ele>
        <time>2021-02-28T12:02:11Z</time>
      </trkpt>
      <trkpt lat="43.5932" lon="3.79686">
        <ele>50</ele>
        <time>2021-02-28T12:02:12Z</time>
      </trkpt>
      <trkpt lat="43.59318" lon="3.79681">
        <ele>50</ele>
        <time>2021-02-28T12:02:13Z</time>
      </trkpt>
      <trkpt lat="43.59316" lon="3.79677">
        <ele>51</ele>
        <time>2021-02-28T12:02:14Z</time>
      </trkpt>
      <trkpt lat="43.59315" lon="3.79672">
        <ele>51</ele>
        <time>2021-02-28T12:02:15Z</time>
      </trkpt>
      <trkpt lat="43.59313" lon="3.79667">
        <ele>51</ele>
        <time>2021-02-28T12:02:16Z</time>
      </trkpt>
      <trkpt lat="43.59312" lon="3.79662">
        <ele>51</ele>
        <time>2021-02-28T12:02:17Z</time>
      </trkpt>
      <trkpt lat="43.5931" lon="3.79658">
        <ele>51</ele>
        <time>2021-02-28T12:02:18Z</time>
      </trkpt>
      <trkpt lat="43.59308" lon="3.79654">
        <ele>51</ele>
        <time>2021-02-28T12:02:19Z</time>
      </trkpt>
      <trkpt lat="43.59305" lon="3.79646">
        <ele>51</ele>
        <time>2021-02-28T12:02:21Z</time>
      </trkpt>
      <trkpt lat="43.59304" lon="3.79642">
        <ele>51</ele>
        <time>2021-02-28T12:02:22Z</time>
      </trkpt>
      <trkpt lat="43.59302" lon="3.79638">
        <ele>51</ele>
        <time>2021-02-28T12:02:23Z</time>
      </trkpt>
      <trkpt lat="43.59301" lon="3.79634">
        <ele>52</ele>
        <time>2021-02-28T12:02:24Z</time>
      </trkpt>
      <trkpt lat="43.59299" lon="3.7963">
        <ele>52</ele>
        <time>2021-02-28T12:02:25Z</time>
      </trkpt>
      <trkpt lat="43.59298" lon="3.79626">
        <ele>52</ele>
        <time>2021-02-28T12:02:26Z</time>
      </trkpt>
      <trkpt lat="43.59296" lon="3.79622">
        <ele>52</ele>
        <time>2021-02-28T12:02:27Z</time>
      </trkpt>
      <trkpt lat="43.59295" lon="3.79618">
        <ele>52</ele>
        <time>2021-02-28T12:02:28Z</time>
      </trkpt>
      <trkpt lat="43.59293" lon="3.79614">
        <ele>52</ele>
        <time>2021-02-28T12:02:29Z</time>
      </trkpt>
      <trkpt lat="43.59291" lon="3.79611">
        <ele>52</ele>
        <time>2021-02-28T12:02:30Z</time>
      </trkpt>
      <trkpt lat="43.5929" lon="3.79607">
        <ele>52</ele>
        <time>2021-02-28T12:02:31Z</time>
      </trkpt>
      <trkpt lat="43.59288" lon="3.79603">
        <ele>52</ele>
        <time>2021-02-28T12:02:32Z</time>
      </trkpt>
      <trkpt lat="43.59286" lon="3.79599">
        <ele>52</ele>
        <time>2021-02-28T12:02:33Z</time>
      </trkpt>
      <trkpt lat="43.59284" lon="3.79596">
        <ele>53</ele>
        <time>2021-02-28T12:02:34Z</time>
      </trkpt>
      <trkpt lat="43.59281" lon="3.79591">
        <ele>53</ele>
        <time>2021-02-28T12:02:35Z</time>
      </trkpt>
      <trkpt lat="43.59279" lon="3.79585">
        <ele>53</ele>
        <time>2021-02-28T12:02:36Z</time>
      </trkpt>
      <trkpt lat="43.59276" lon="3.79578">
        <ele>53</ele>
        <time>2021-02-28T12:02:37Z</time>
      </trkpt>
      <trkpt lat="43.59274" lon="3.79571">
        <ele>53</ele>
        <time>2021-02-28T12:02:38Z</time>
      </trkpt>
      <trkpt lat="43.59272" lon="3.79563">
        <ele>53</ele>
        <time>2021-02-28T12:02:39Z</time>
      </trkpt>
      <trkpt lat="43.5927" lon="3.79554">
        <ele>53</ele>
        <time>2021-02-28T12:02:40Z</time>
      </trkpt>
      <trkpt lat="43.59269" lon="3.79545">
        <ele>53</ele>
        <time>2021-02-28T12:02:41Z</time>
      </trkpt>
      <trkpt lat="43.59267" lon="3.79536">
        <ele>53</ele>
        <time>2021-02-28T12:02:42Z</time>
      </trkpt>
      <trkpt lat="43.59267" lon="3.79527">
        <ele>53</ele>
        <time>2021-02-28T12:02:43Z</time>
      </trkpt>
      <trkpt lat="43.59267" lon="3.79517">
        <ele>50</ele>
        <time>2021-02-28T12:02:44Z</time>
      </trkpt>
      <trkpt lat="43.59267" lon="3.79508">
        <ele>50</ele>
        <time>2021-02-28T12:02:45Z</time>
      </trkpt>
      <trkpt lat="43.59266" lon="3.79498">
        <ele>50</ele>
        <time>2021-02-28T12:02:46Z</time>
      </trkpt>
      <trkpt lat="43.59266" lon="3.79489">
        <ele>50</ele>
        <time>2021-02-28T12:02:47Z</time>
      </trkpt>
      <trkpt lat="43.59266" lon="3.79479">
        <ele>50</ele>
        <time>2021-02-28T12:02:48Z</time>
      </trkpt>
      <trkpt lat="43.59265" lon="3.7947">
        <ele>50</ele>
        <time>2021-02-28T12:02:49Z</time>
      </trkpt>
      <trkpt lat="43.59265" lon="3.7946">
        <ele>50</ele>
        <time>2021-02-28T12:02:50Z</time>
      </trkpt>
      <trkpt lat="43.59264" lon="3.7945">
        <ele>50</ele>
        <time>2021-02-28T12:02:51Z</time>
      </trkpt>
      <trkpt lat="43.59264" lon="3.7944">
        <ele>50</ele>
        <time>2021-02-28T12:02:52Z</time>
      </trkpt>
      <trkpt lat="43.59263" lon="3.7943">
        <ele>50</ele>
        <time>2021-02-28T12:02:53Z</time>
      </trkpt>
      <trkpt lat="43.59262" lon="3.7942">
        <ele>48</ele>
        <time>2021-02-28T12:02:54Z</time>
      </trkpt>
      <trkpt lat="43.59261" lon="3.7941">
        <ele>48</ele>
        <time>2021-02-28T12:02:55Z</time>
      </trkpt>
      <trkpt lat="43.5926" lon="3.79401">
        <ele>48</ele>
        <time>2021-02-28T12:02:56Z</time>
      </trkpt>
      <trkpt lat="43.5926" lon="3.79392">
        <ele>48</ele>
        <time>2021-02-28T12:02:57Z</time>
      </trkpt>
      <trkpt lat="43.5926" lon="3.79383">
        <ele>48</ele>
        <time>2021-02-28T12:02:58Z</time>
      </trkpt>
      <trkpt lat="43.5926" lon="3.79375">
        <ele>48</ele>
        <time>2021-02-28T12:02:59Z</time>
      </trkpt>
      <trkpt lat="43.59259" lon="3.79368">
        <ele>48</ele>
        <time>2021-02-28T12:03:00Z</time>
      </trkpt>
      <trkpt lat="43.59256" lon="3.79363">
        <ele>48</ele>
        <time>2021-02-28T12:03:01Z</time>
      </trkpt>
      <trkpt lat="43.59252" lon="3.7936">
        <ele>48</ele>
        <time>2021-02-28T12:03:02Z</time>
      </trkpt>
      <trkpt lat="43.59247" lon="3.79359">
        <ele>48</ele>
        <time>2021-02-28T12:03:03Z</time>
      </trkpt>
      <trkpt lat="43.59241" lon="3.79361">
        <ele>44</ele>
        <time>2021-02-28T12:03:04Z</time>
      </trkpt>
      <trkpt lat="43.59236" lon="3.79363">
        <ele>44</ele>
        <time>2021-02-28T12:03:05Z</time>
      </trkpt>
      <trkpt lat="43.59231" lon="3.79366">
        <ele>44</ele>
        <time>2021-02-28T12:03:06Z</time>
      </trkpt>
      <trkpt lat="43.59226" lon="3.79369">
        <ele>44</ele>
        <time>2021-02-28T12:03:07Z</time>
      </trkpt>
      <trkpt lat="43.59222" lon="3.79373">
        <ele>44</ele>
        <time>2021-02-28T12:03:08Z</time>
      </trkpt>
      <trkpt lat="43.59218" lon="3.79379">
        <ele>44</ele>
        <time>2021-02-28T12:03:09Z</time>
      </trkpt>
      <trkpt lat="43.59215" lon="3.79385">
        <ele>44</ele>
        <time>2021-02-28T12:03:10Z</time>
      </trkpt>
      <trkpt lat="43.59213" lon="3.79392">
        <ele>44</ele>
        <time>2021-02-28T12:03:11Z</time>
      </trkpt>
      <trkpt lat="43.5921" lon="3.79399">
        <ele>44</ele>
        <time>2021-02-28T12:03:12Z</time>
      </trkpt>
      <trkpt lat="43.59208" lon="3.79406">
        <ele>44</ele>
        <time>2021-02-28T12:03:13Z</time>
      </trkpt>
      <trkpt lat="43.59206" lon="3.79413">
        <ele>42</ele>
        <time>2021-02-28T12:03:14Z</time>
      </trkpt>
      <trkpt lat="43.59204" lon="3.7942">
        <ele>42</ele>
        <time>2021-02-28T12:03:15Z</time>
      </trkpt>
      <trkpt lat="43.59202" lon="3.79427">
        <ele>42</ele>
        <time>2021-02-28T12:03:16Z</time>
      </trkpt>
      <trkpt lat="43.59199" lon="3.79435">
        <ele>42</ele>
        <time>2021-02-28T12:03:17Z</time>
      </trkpt>
      <trkpt lat="43.59197" lon="3.79442">
        <ele>42</ele>
        <time>2021-02-28T12:03:18Z</time>
      </trkpt>
      <trkpt lat="43.59195" lon="3.79449">
        <ele>42</ele>
        <time>2021-02-28T12:03:19Z</time>
      </trkpt>
      <trkpt lat="43.59193" lon="3.79456">
        <ele>42</ele>
        <time>2021-02-28T12:03:20Z</time>
      </trkpt>
      <trkpt lat="43.59191" lon="3.79462">
        <ele>42</ele>
        <time>2021-02-28T12:03:21Z</time>
      </trkpt>
      <trkpt lat="43.59189" lon="3.79469">
        <ele>42</ele>
        <time>2021-02-28T12:03:22Z</time>
      </trkpt>
      <trkpt lat="43.59187" lon="3.79474">
        <ele>42</ele>
        <time>2021-02-28T12:03:23Z</time>
      </trkpt>
      <trkpt lat="43.59185" lon="3.7948">
        <ele>42</ele>
        <time>2021-02-28T12:03:24Z</time>
      </trkpt>
      <trkpt lat="43.59182" lon="3.79485">
        <ele>42</ele>
        <time>2021-02-28T12:03:25Z</time>
      </trkpt>
      <trkpt lat="43.5918" lon="3.7949">
        <ele>42</ele>
        <time>2021-02-28T12:03:26Z</time>
      </trkpt>
      <trkpt lat="43.59177" lon="3.79496">
        <ele>42</ele>
        <time>2021-02-28T12:03:27Z</time>
      </trkpt>
      <trkpt lat="43.59175" lon="3.79501">
        <ele>42</ele>
        <time>2021-02-28T12:03:28Z</time>
      </trkpt>
      <trkpt lat="43.59172" lon="3.79506">
        <ele>42</ele>
        <time>2021-02-28T12:03:29Z</time>
      </trkpt>
      <trkpt lat="43.59169" lon="3.79511">
        <ele>42</ele>
        <time>2021-02-28T12:03:30Z</time>
      </trkpt>
      <trkpt lat="43.59167" lon="3.79516">
        <ele>42</ele>
        <time>2021-02-28T12:03:31Z</time>
      </trkpt>
      <trkpt lat="43.59165" lon="3.79521">
        <ele>42</ele>
        <time>2021-02-28T12:03:32Z</time>
      </trkpt>
      <trkpt lat="43.59163" lon="3.79526">
        <ele>42</ele>
        <time>2021-02-28T12:03:33Z</time>
      </trkpt>
      <trkpt lat="43.5916" lon="3.79531">
        <ele>42</ele>
        <time>2021-02-28T12:03:34Z</time>
      </trkpt>
      <trkpt lat="43.59158" lon="3.79537">
        <ele>42</ele>
        <time>2021-02-28T12:03:35Z</time>
      </trkpt>
      <trkpt lat="43.59156" lon="3.79542">
        <ele>42</ele>
        <time>2021-02-28T12:03:36Z</time>
      </trkpt>
      <trkpt lat="43.59154" lon="3.79547">
        <ele>42</ele>
        <time>2021-02-28T12:03:37Z</time>
      </trkpt>
      <trkpt lat="43.59152" lon="3.79552">
        <ele>42</ele>
        <time>2021-02-28T12:03:38Z</time>
      </trkpt>
      <trkpt lat="43.59149" lon="3.79557">
        <ele>42</ele>
        <time>2021-02-28T12:03:39Z</time>
      </trkpt>
      <trkpt lat="43.59147" lon="3.79562">
        <ele>42</ele>
        <time>2021-02-28T12:03:40Z</time>
      </trkpt>
      <trkpt lat="43.59145" lon="3.79566">
        <ele>42</ele>
        <time>2021-02-28T12:03:41Z</time>
      </trkpt>
      <trkpt lat="43.59143" lon="3.7957">
        <ele>42</ele>
        <time>2021-02-28T12:03:42Z</time>
      </trkpt>
      <trkpt lat="43.59141" lon="3.79574">
        <ele>42</ele>
        <time>2021-02-28T12:03:43Z</time>
      </trkpt>
      <trkpt lat="43.59138" lon="3.79578">
        <ele>42</ele>
        <time>2021-02-28T12:03:44Z</time>
      </trkpt>
      <trkpt lat="43.59136" lon="3.79582">
        <ele>42</ele>
        <time>2021-02-28T12:03:45Z</time>
      </trkpt>
      <trkpt lat="43.59131" lon="3.7959">
        <ele>42</ele>
        <time>2021-02-28T12:03:47Z</time>
      </trkpt>
      <trkpt lat="43.59128" lon="3.79595">
        <ele>42</ele>
        <time>2021-02-28T12:03:48Z</time>
      </trkpt>
      <trkpt lat="43.59125" lon="3.79599">
        <ele>42</ele>
        <time>2021-02-28T12:03:49Z</time>
      </trkpt>
      <trkpt lat="43.59123" lon="3.79604">
        <ele>42</ele>
        <time>2021-02-28T12:03:50Z</time>
      </trkpt>
      <trkpt lat="43.5912" lon="3.79609">
        <ele>42</ele>
        <time>2021-02-28T12:03:51Z</time>
      </trkpt>
      <trkpt lat="43.59117" lon="3.79614">
        <ele>42</ele>
        <time>2021-02-28T12:03:52Z</time>
      </trkpt>
      <trkpt lat="43.59115" lon="3.79619">
        <ele>42</ele>
        <time>2021-02-28T12:03:53Z</time>
      </trkpt>
      <trkpt lat="43.59112" lon="3.79624">
        <ele>42</ele>
        <time>2021-02-28T12:03:54Z</time>
      </trkpt>
      <trkpt lat="43.59109" lon="3.79628">
        <ele>42</ele>
        <time>2021-02-28T12:03:55Z</time>
      </trkpt>
      <trkpt lat="43.59105" lon="3.79632">
        <ele>42</ele>
        <time>2021-02-28T12:03:56Z</time>
      </trkpt>
      <trkpt lat="43.59101" lon="3.79636">
        <ele>42</ele>
        <time>2021-02-28T12:03:57Z</time>
      </trkpt>
      <trkpt lat="43.59097" lon="3.79639">
        <ele>42</ele>
        <time>2021-02-28T12:03:58Z</time>
      </trkpt>
      <trkpt lat="43.59089" lon="3.79645">
        <ele>42</ele>
        <time>2021-02-28T12:04:00Z</time>
      </trkpt>
      <trkpt lat="43.59085" lon="3.79648">
        <ele>42</ele>
        <time>2021-02-28T12:04:01Z</time>
      </trkpt>
      <trkpt lat="43.59081" lon="3.79651">
        <ele>42</ele>
        <time>2021-02-28T12:04:02Z</time>
      </trkpt>
      <trkpt lat="43.59078" lon="3.79654">
        <ele>42</ele>
        <time>2021-02-28T12:04:03Z</time>
      </trkpt>
      <trkpt lat="43.59074" lon="3.79657">
        <ele>42</ele>
        <time>2021-02-28T12:04:04Z</time>
      </trkpt>
      <trkpt lat="43.5907" lon="3.7966">
        <ele>42</ele>
        <time>2021-02-28T12:04:05Z</time>
      </trkpt>
      <trkpt lat="43.59066" lon="3.79663">
        <ele>42</ele>
        <time>2021-02-28T12:04:06Z</time>
      </trkpt>
      <trkpt lat="43.59062" lon="3.79665">
        <ele>42</ele>
        <time>2021-02-28T12:04:07Z</time>
      </trkpt>
      <trkpt lat="43.59058" lon="3.79668">
        <ele>42</ele>
        <time>2021-02-28T12:04:08Z</time>
      </trkpt>
      <trkpt lat="43.59054" lon="3.79671">
        <ele>42</ele>
        <time>2021-02-28T12:04:09Z</time>
      </trkpt>
      <trkpt lat="43.5905" lon="3.79673">
        <ele>42</ele>
        <time>2021-02-28T12:04:10Z</time>
      </trkpt>
      <trkpt lat="43.59046" lon="3.79676">
        <ele>42</ele>
        <time>2021-02-28T12:04:11Z</time>
      </trkpt>
      <trkpt lat="43.59042" lon="3.79679">
        <ele>42</ele>
        <time>2021-02-28T12:04:12Z</time>
      </trkpt>
      <trkpt lat="43.59038" lon="3.79682">
        <ele>42</ele>
        <time>2021-02-28T12:04:13Z</time>
      </trkpt>
      <trkpt lat="43.59034" lon="3.79684">
        <ele>42</ele>
        <time>2021-02-28T12:04:14Z</time>
      </trkpt>
      <trkpt lat="43.5903" lon="3.79686">
        <ele>42</ele>
        <time>2021-02-28T12:04:15Z</time>
      </trkpt>
      <trkpt lat="43.59026" lon="3.79689">
        <ele>42</ele>
        <time>2021-02-28T12:04:16Z</time>
      </trkpt>
      <trkpt lat="43.59022" lon="3.79692">
        <ele>42</ele>
        <time>2021-02-28T12:04:17Z</time>
      </trkpt>
      <trkpt lat="43.59018" lon="3.79695">
        <ele>42</ele>
        <time>2021-02-28T12:04:18Z</time>
      </trkpt>
      <trkpt lat="43.59014" lon="3.79697">
        <ele>42</ele>
        <time>2021-02-28T12:04:19Z</time>
      </trkpt>
      <trkpt lat="43.5901" lon="3.79699">
        <ele>42</ele>
        <time>2021-02-28T12:04:20Z</time>
      </trkpt>
      <trkpt lat="43.59007" lon="3.79702">
        <ele>42</ele>
        <time>2021-02-28T12:04:21Z</time>
      </trkpt>
      <trkpt lat="43.59003" lon="3.79704">
        <ele>42</ele>
        <time>2021-02-28T12:04:22Z</time>
      </trkpt>
      <trkpt lat="43.58999" lon="3.79705">
        <ele>42</ele>
        <time>2021-02-28T12:04:23Z</time>
      </trkpt>
      <trkpt lat="43.58995" lon="3.79705">
        <ele>43</ele>
        <time>2021-02-28T12:04:24Z</time>
      </trkpt>
      <trkpt lat="43.58991" lon="3.79703">
        <ele>43</ele>
        <time>2021-02-28T12:04:25Z</time>
      </trkpt>
      <trkpt lat="43.58987" lon="3.79699">
        <ele>43</ele>
        <time>2021-02-28T12:04:26Z</time>
      </trkpt>
      <trkpt lat="43.58984" lon="3.79694">
        <ele>43</ele>
        <time>2021-02-28T12:04:27Z</time>
      </trkpt>
      <trkpt lat="43.58981" lon="3.79689">
        <ele>43</ele>
        <time>2021-02-28T12:04:28Z</time>
      </trkpt>
      <trkpt lat="43.58978" lon="3.79683">
        <ele>43</ele>
        <time>2021-02-28T12:04:29Z</time>
      </trkpt>
      <trkpt lat="43.58975" lon="3.79677">
        <ele>43</ele>
        <time>2021-02-28T12:04:30Z</time>
      </trkpt>
      <trkpt lat="43.58974" lon="3.7967">
        <ele>43</ele>
        <time>2021-02-28T12:04:31Z</time>
      </trkpt>
      <trkpt lat="43.58973" lon="3.79663">
        <ele>43</ele>
        <time>2021-02-28T12:04:32Z</time>
      </trkpt>
      <trkpt lat="43.58974" lon="3.79656">
        <ele>43</ele>
        <time>2021-02-28T12:04:33Z</time>
      </trkpt>
      <trkpt lat="43.58976" lon="3.79649">
        <ele>41</ele>
        <time>2021-02-28T12:04:34Z</time>
      </trkpt>
      <trkpt lat="43.58979" lon="3.79644">
        <ele>41</ele>
        <time>2021-02-28T12:04:35Z</time>
      </trkpt>
      <trkpt lat="43.58983" lon="3.79639">
        <ele>41</ele>
        <time>2021-02-28T12:04:36Z</time>
      </trkpt>
      <trkpt lat="43.58987" lon="3.79635">
        <ele>41</ele>
        <time>2021-02-28T12:04:37Z</time>
      </trkpt>
      <trkpt lat="43.58992" lon="3.7963">
        <ele>41</ele>
        <time>2021-02-28T12:04:38Z</time>
      </trkpt>
      <trkpt lat="43.58996" lon="3.79625">
        <ele>41</ele>
        <time>2021-02-28T12:04:39Z</time>
      </trkpt>
      <trkpt lat="43.59001" lon="3.7962">
        <ele>41</ele>
        <time>2021-02-28T12:04:40Z</time>
      </trkpt>
      <trkpt lat="43.59006" lon="3.79616">
        <ele>41</ele>
        <time>2021-02-28T12:04:41Z</time>
      </trkpt>
      <trkpt lat="43.59011" lon="3.79612">
        <ele>41</ele>
        <time>2021-02-28T12:04:42Z</time>
      </trkpt>
      <trkpt lat="43.59016" lon="3.79607">
        <ele>41</ele>
        <time>2021-02-28T12:04:43Z</time>
      </trkpt>
      <trkpt lat="43.5902" lon="3.79602">
        <ele>40</ele>
        <time>2021-02-28T12:04:44Z</time>
      </trkpt>
      <trkpt lat="43.59025" lon="3.79598">
        <ele>40</ele>
        <time>2021-02-28T12:04:45Z</time>
      </trkpt>
      <trkpt lat="43.5903" lon="3.79593">
        <ele>40</ele>
        <time>2021-02-28T12:04:46Z</time>
      </trkpt>
      <trkpt lat="43.59034" lon="3.79588">
        <ele>40</ele>
        <time>2021-02-28T12:04:47Z</time>
      </trkpt>
      <trkpt lat="43.59038" lon="3.79583">
        <ele>40</ele>
        <time>2021-02-28T12:04:48Z</time>
      </trkpt>
      <trkpt lat="43.59042" lon="3.79577">
        <ele>40</ele>
        <time>2021-02-28T12:04:49Z</time>
      </trkpt>
      <trkpt lat="43.59045" lon="3.79572">
        <ele>40</ele>
        <time>2021-02-28T12:04:50Z</time>
      </trkpt>
      <trkpt lat="43.59049" lon="3.79566">
        <ele>40</ele>
        <time>2021-02-28T12:04:51Z</time>
      </trkpt>
      <trkpt lat="43.59052" lon="3.79559">
        <ele>40</ele>
        <time>2021-02-28T12:04:52Z</time>
      </trkpt>
      <trkpt lat="43.59055" lon="3.79553">
        <ele>40</ele>
        <time>2021-02-28T12:04:53Z</time>
      </trkpt>
      <trkpt lat="43.59058" lon="3.79546">
        <ele>38</ele>
        <time>2021-02-28T12:04:54Z</time>
      </trkpt>
      <trkpt lat="43.59061" lon="3.79539">
        <ele>38</ele>
        <time>2021-02-28T12:04:55Z</time>
      </trkpt>
      <trkpt lat="43.59064" lon="3.79533">
        <ele>38</ele>
        <time>2021-02-28T12:04:56Z</time>
      </trkpt>
      <trkpt lat="43.59066" lon="3.79526">
        <ele>38</ele>
        <time>2021-02-28T12:04:57Z</time>
      </trkpt>
      <trkpt lat="43.59069" lon="3.7952">
        <ele>38</ele>
        <time>2021-02-28T12:04:58Z</time>
      </trkpt>
      <trkpt lat="43.59072" lon="3.79513">
        <ele>38</ele>
        <time>2021-02-28T12:04:59Z</time>
      </trkpt>
      <trkpt lat="43.59074" lon="3.79507">
        <ele>38</ele>
        <time>2021-02-28T12:05:00Z</time>
      </trkpt>
      <trkpt lat="43.59077" lon="3.79501">
        <ele>38</ele>
        <time>2021-02-28T12:05:01Z</time>
      </trkpt>
      <trkpt lat="43.59079" lon="3.79494">
        <ele>38</ele>
        <time>2021-02-28T12:05:02Z</time>
      </trkpt>
      <trkpt lat="43.59081" lon="3.79488">
        <ele>38</ele>
        <time>2021-02-28T12:05:03Z</time>
      </trkpt>
      <trkpt lat="43.59084" lon="3.79481">
        <ele>38</ele>
        <time>2021-02-28T12:05:04Z</time>
      </trkpt>
      <trkpt lat="43.59086" lon="3.79475">
        <ele>38</ele>
        <time>2021-02-28T12:05:05Z</time>
      </trkpt>
      <trkpt lat="43.59088" lon="3.79468">
        <ele>38</ele>
        <time>2021-02-28T12:05:06Z</time>
      </trkpt>
      <trkpt lat="43.5909" lon="3.79461">
        <ele>38</ele>
        <time>2021-02-28T12:05:07Z</time>
      </trkpt>
      <trkpt lat="43.59092" lon="3.79454">
        <ele>38</ele>
        <time>2021-02-28T12:05:08Z</time>
      </trkpt>
      <trkpt lat="43.59094" lon="3.79448">
        <ele>38</ele>
        <time>2021-02-28T12:05:09Z</time>
      </trkpt>
      <trkpt lat="43.59096" lon="3.79442">
        <ele>38</ele>
        <time>2021-02-28T12:05:10Z</time>
      </trkpt>
      <trkpt lat="43.59097" lon="3.79435">
        <ele>38</ele>
        <time>2021-02-28T12:05:11Z</time>
      </trkpt>
      <trkpt lat="43.59099" lon="3.79429">
        <ele>38</ele>
        <time>2021-02-28T12:05:12Z</time>
      </trkpt>
      <trkpt lat="43.59101" lon="3.79424">
        <ele>38</ele>
        <time>2021-02-28T12:05:13Z</time>
      </trkpt>
      <trkpt lat="43.59102" lon="3.79418">
        <ele>37</ele>
        <time>2021-02-28T12:05:14Z</time>
      </trkpt>
      <trkpt lat="43.59103" lon="3.79412">
        <ele>37</ele>
        <time>2021-02-28T12:05:15Z</time>
      </trkpt>
      <trkpt lat="43.59104" lon="3.79406">
        <ele>37</ele>
        <time>2021-02-28T12:05:16Z</time>
      </trkpt>
      <trkpt lat="43.59105" lon="3.794">
        <ele>37</ele>
        <time>2021-02-28T12:05:17Z</time>
      </trkpt>
      <trkpt lat="43.59106" lon="3.79394">
        <ele>37</ele>
        <time>2021-02-28T12:05:18Z</time>
      </trkpt>
      <trkpt lat="43.59107" lon="3.79387">
        <ele>37</ele>
        <time>2021-02-28T12:05:19Z</time>
      </trkpt>
      <trkpt lat="43.59108" lon="3.79381">
        <ele>37</ele>
        <time>2021-02-28T12:05:20Z</time>
      </trkpt>
      <trkpt lat="43.59108" lon="3.79373">
        <ele>37</ele>
        <time>2021-02-28T12:05:21Z</time>
      </trkpt>
      <trkpt lat="43.59108" lon="3.79366">
        <ele>37</ele>
        <time>2021-02-28T12:05:22Z</time>
      </trkpt>
      <trkpt lat="43.59108" lon="3.79359">
        <ele>37</ele>
        <time>2021-02-28T12:05:23Z</time>
      </trkpt>
      <trkpt lat="43.59108" lon="3.79352">
        <ele>36</ele>
        <time>2021-02-28T12:05:24Z</time>
      </trkpt>
      <trkpt lat="43.59109" lon="3.79347">
        <ele>36</ele>
        <time>2021-02-28T12:05:25Z</time>
      </trkpt>
      <trkpt lat="43.59109" lon="3.79343">
        <ele>36</ele>
        <time>2021-02-28T12:05:26Z</time>
      </trkpt>
      <trkpt lat="43.59109" lon="3.7934">
        <ele>36</ele>
        <time>2021-02-28T12:05:27Z</time>
      </trkpt>
      <trkpt lat="43.59109" lon="3.79337">
        <ele>36</ele>
        <time>2021-02-28T12:05:28Z</time>
      </trkpt>
      <trkpt lat="43.59109" lon="3.79335">
        <ele>36</ele>
        <time>2021-02-28T12:05:29Z</time>
      </trkpt>
      <trkpt lat="43.59109" lon="3.79332">
        <ele>36</ele>
        <time>2021-02-28T12:05:30Z</time>
      </trkpt>
      <trkpt lat="43.59109" lon="3.79328">
        <ele>36</ele>
        <time>2021-02-28T12:05:32Z</time>
      </trkpt>
      <trkpt lat="43.59111" lon="3.79326">
        <ele>36</ele>
        <time>2021-02-28T12:05:33Z</time>
      </trkpt>
      <trkpt lat="43.59113" lon="3.79324">
        <ele>36</ele>
        <time>2021-02-28T12:05:34Z</time>
      </trkpt>
      <trkpt lat="43.59115" lon="3.79323">
        <ele>36</ele>
        <time>2021-02-28T12:05:35Z</time>
      </trkpt>
      <trkpt lat="43.59118" lon="3.79321">
        <ele>36</ele>
        <time>2021-02-28T12:05:36Z</time>
      </trkpt>
      <trkpt lat="43.59121" lon="3.79317">
        <ele>36</ele>
        <time>2021-02-28T12:05:37Z</time>
      </trkpt>
      <trkpt lat="43.59124" lon="3.79314">
        <ele>36</ele>
        <time>2021-02-28T12:05:38Z</time>
      </trkpt>
      <trkpt lat="43.59127" lon="3.7931">
        <ele>36</ele>
        <time>2021-02-28T12:05:39Z</time>
      </trkpt>
      <trkpt lat="43.59129" lon="3.79305">
        <ele>36</ele>
        <time>2021-02-28T12:05:40Z</time>
      </trkpt>
      <trkpt lat="43.59131" lon="3.793">
        <ele>36</ele>
        <time>2021-02-28T12:05:41Z</time>
      </trkpt>
      <trkpt lat="43.59132" lon="3.79295">
        <ele>36</ele>
        <time>2021-02-28T12:05:42Z</time>
      </trkpt>
      <trkpt lat="43.59134" lon="3.7929">
        <ele>36</ele>
        <time>2021-02-28T12:05:43Z</time>
      </trkpt>
      <trkpt lat="43.59135" lon="3.79286">
        <ele>37</ele>
        <time>2021-02-28T12:05:44Z</time>
      </trkpt>
      <trkpt lat="43.59136" lon="3.79281">
        <ele>37</ele>
        <time>2021-02-28T12:05:45Z</time>
      </trkpt>
      <trkpt lat="43.59138" lon="3.79277">
        <ele>37</ele>
        <time>2021-02-28T12:05:46Z</time>
      </trkpt>
      <trkpt lat="43.59139" lon="3.79273">
        <ele>37</ele>
        <time>2021-02-28T12:05:47Z</time>
      </trkpt>
      <trkpt lat="43.59141" lon="3.79269">
        <ele>37</ele>
        <time>2021-02-28T12:05:48Z</time>
      </trkpt>
      <trkpt lat="43.59142" lon="3.79265">
        <ele>37</ele>
        <time>2021-02-28T12:05:49Z</time>
      </trkpt>
      <trkpt lat="43.59144" lon="3.79261">
        <ele>37</ele>
        <time>2021-02-28T12:05:50Z</time>
      </trkpt>
      <trkpt lat="43.59145" lon="3.79258">
        <ele>37</ele>
        <time>2021-02-28T12:05:51Z</time>
      </trkpt>
      <trkpt lat="43.59147" lon="3.79254">
        <ele>37</ele>
        <time>2021-02-28T12:05:52Z</time>
      </trkpt>
      <trkpt lat="43.59148" lon="3.7925">
        <ele>37</ele>
        <time>2021-02-28T12:05:53Z</time>
      </trkpt>
      <trkpt lat="43.5915" lon="3.79246">
        <ele>38</ele>
        <time>2021-02-28T12:05:54Z</time>
      </trkpt>
      <trkpt lat="43.59151" lon="3.79242">
        <ele>38</ele>
        <time>2021-02-28T12:05:55Z</time>
      </trkpt>
      <trkpt lat="43.59153" lon="3.79238">
        <ele>38</ele>
        <time>2021-02-28T12:05:56Z</time>
      </trkpt>
      <trkpt lat="43.59154" lon="3.79235">
        <ele>38</ele>
        <time>2021-02-28T12:05:57Z</time>
      </trkpt>
      <trkpt lat="43.59155" lon="3.79231">
        <ele>38</ele>
        <time>2021-02-28T12:05:58Z</time>
      </trkpt>
      <trkpt lat="43.59156" lon="3.79228">
        <ele>38</ele>
        <time>2021-02-28T12:05:59Z</time>
      </trkpt>
      <trkpt lat="43.59157" lon="3.79225">
        <ele>38</ele>
        <time>2021-02-28T12:06:00Z</time>
      </trkpt>
      <trkpt lat="43.59159" lon="3.79222">
        <ele>38</ele>
        <time>2021-02-28T12:06:01Z</time>
      </trkpt>
      <trkpt lat="43.5916" lon="3.79218">
        <ele>38</ele>
        <time>2021-02-28T12:06:02Z</time>
      </trkpt>
      <trkpt lat="43.59161" lon="3.79215">
        <ele>38</ele>
        <time>2021-02-28T12:06:03Z</time>
      </trkpt>
      <trkpt lat="43.59161" lon="3.79212">
        <ele>38</ele>
        <time>2021-02-28T12:06:04Z</time>
      </trkpt>
      <trkpt lat="43.59162" lon="3.79209">
        <ele>38</ele>
        <time>2021-02-28T12:06:05Z</time>
      </trkpt>
      <trkpt lat="43.59162" lon="3.79206">
        <ele>38</ele>
        <time>2021-02-28T12:06:06Z</time>
      </trkpt>
      <trkpt lat="43.59162" lon="3.79202">
        <ele>38</ele>
        <time>2021-02-28T12:06:07Z</time>
      </trkpt>
      <trkpt lat="43.59163" lon="3.79199">
        <ele>38</ele>
        <time>2021-02-28T12:06:08Z</time>
      </trkpt>
      <trkpt lat="43.59163" lon="3.79196">
        <ele>38</ele>
        <time>2021-02-28T12:06:09Z</time>
      </trkpt>
      <trkpt lat="43.59163" lon="3.79193">
        <ele>38</ele>
        <time>2021-02-28T12:06:10Z</time>
      </trkpt>
      <trkpt lat="43.59163" lon="3.7919">
        <ele>38</ele>
        <time>2021-02-28T12:06:11Z</time>
      </trkpt>
      <trkpt lat="43.59163" lon="3.79186">
        <ele>38</ele>
        <time>2021-02-28T12:06:12Z</time>
      </trkpt>
      <trkpt lat="43.59163" lon="3.79183">
        <ele>38</ele>
        <time>2021-02-28T12:06:13Z</time>
      </trkpt>
      <trkpt lat="43.59162" lon="3.79181">
        <ele>40</ele>
        <time>2021-02-28T12:06:14Z</time>
      </trkpt>
      <trkpt lat="43.59162" lon="3.79177">
        <ele>40</ele>
        <time>2021-02-28T12:06:15Z</time>
      </trkpt>
      <trkpt lat="43.59161" lon="3.79174">
        <ele>40</ele>
        <time>2021-02-28T12:06:16Z</time>
      </trkpt>
      <trkpt lat="43.59161" lon="3.79172">
        <ele>40</ele>
        <time>2021-02-28T12:06:17Z</time>
      </trkpt>
      <trkpt lat="43.5916" lon="3.79169">
        <ele>40</ele>
        <time>2021-02-28T12:06:18Z</time>
      </trkpt>
      <trkpt lat="43.5916" lon="3.79166">
        <ele>40</ele>
        <time>2021-02-28T12:06:19Z</time>
      </trkpt>
      <trkpt lat="43.5916" lon="3.79163">
        <ele>40</ele>
        <time>2021-02-28T12:06:20Z</time>
      </trkpt>
      <trkpt lat="43.5916" lon="3.79159">
        <ele>40</ele>
        <time>2021-02-28T12:06:21Z</time>
      </trkpt>
      <trkpt lat="43.5916" lon="3.79156">
        <ele>40</ele>
        <time>2021-02-28T12:06:22Z</time>
      </trkpt>
      <trkpt lat="43.5916" lon="3.79153">
        <ele>40</ele>
        <time>2021-02-28T12:06:23Z</time>
      </trkpt>
      <trkpt lat="43.5916" lon="3.7915">
        <ele>42</ele>
        <time>2021-02-28T12:06:24Z</time>
      </trkpt>
      <trkpt lat="43.59161" lon="3.79147">
        <ele>42</ele>
        <time>2021-02-28T12:06:25Z</time>
      </trkpt>
      <trkpt lat="43.59161" lon="3.79144">
        <ele>42</ele>
        <time>2021-02-28T12:06:26Z</time>
      </trkpt>
      <trkpt lat="43.59162" lon="3.7914">
        <ele>42</ele>
        <time>2021-02-28T12:06:27Z</time>
      </trkpt>
      <trkpt lat="43.59162" lon="3.79137">
        <ele>42</ele>
        <time>2021-02-28T12:06:28Z</time>
      </trkpt>
      <trkpt lat="43.59163" lon="3.79134">
        <ele>42</ele>
        <time>2021-02-28T12:06:29Z</time>
      </trkpt>
      <trkpt lat="43.59163" lon="3.79131">
        <ele>42</ele>
        <time>2021-02-28T12:06:30Z</time>
      </trkpt>
      <trkpt lat="43.59163" lon="3.79127">
        <ele>42</ele>
        <time>2021-02-28T12:06:31Z</time>
      </trkpt>
      <trkpt lat="43.59164" lon="3.79123">
        <ele>42</ele>
        <time>2021-02-28T12:06:32Z</time>
      </trkpt>
      <trkpt lat="43.59165" lon="3.79119">
        <ele>42</ele>
        <time>2021-02-28T12:06:33Z</time>
      </trkpt>
      <trkpt lat="43.59166" lon="3.79115">
        <ele>43</ele>
        <time>2021-02-28T12:06:34Z</time>
      </trkpt>
      <trkpt lat="43.59166" lon="3.79112">
        <ele>43</ele>
        <time>2021-02-28T12:06:35Z</time>
      </trkpt>
      <trkpt lat="43.59167" lon="3.79108">
        <ele>43</ele>
        <time>2021-02-28T12:06:36Z</time>
      </trkpt>
      <trkpt lat="43.59167" lon="3.79103">
        <ele>43</ele>
        <time>2021-02-28T12:06:37Z</time>
      </trkpt>
      <trkpt lat="43.59168" lon="3.79099">
        <ele>43</ele>
        <time>2021-02-28T12:06:38Z</time>
      </trkpt>
      <trkpt lat="43.59168" lon="3.79095">
        <ele>43</ele>
        <time>2021-02-28T12:06:39Z</time>
      </trkpt>
      <trkpt lat="43.59169" lon="3.79091">
        <ele>43</ele>
        <time>2021-02-28T12:06:40Z</time>
      </trkpt>
      <trkpt lat="43.59169" lon="3.79087">
        <ele>43</ele>
        <time>2021-02-28T12:06:41Z</time>
      </trkpt>
      <trkpt lat="43.5917" lon="3.79082">
        <ele>43</ele>
        <time>2021-02-28T12:06:42Z</time>
      </trkpt>
      <trkpt lat="43.59171" lon="3.79079">
        <ele>43</ele>
        <time>2021-02-28T12:06:43Z</time>
      </trkpt>
      <trkpt lat="43.59172" lon="3.79075">
        <ele>44</ele>
        <time>2021-02-28T12:06:44Z</time>
      </trkpt>
      <trkpt lat="43.59173" lon="3.79071">
        <ele>44</ele>
        <time>2021-02-28T12:06:45Z</time>
      </trkpt>
      <trkpt lat="43.59174" lon="3.79067">
        <ele>44</ele>
        <time>2021-02-28T12:06:46Z</time>
      </trkpt>
      <trkpt lat="43.59175" lon="3.79064">
        <ele>44</ele>
        <time>2021-02-28T12:06:47Z</time>
      </trkpt>
      <trkpt lat="43.59175" lon="3.7906">
        <ele>44</ele>
        <time>2021-02-28T12:06:48Z</time>
      </trkpt>
      <trkpt lat="43.59176" lon="3.79057">
        <ele>44</ele>
        <time>2021-02-28T12:06:49Z</time>
      </trkpt>
      <trkpt lat="43.59177" lon="3.79054">
        <ele>44</ele>
        <time>2021-02-28T12:06:50Z</time>
      </trkpt>
      <trkpt lat="43.59178" lon="3.7905">
        <ele>44</ele>
        <time>2021-02-28T12:06:51Z</time>
      </trkpt>
      <trkpt lat="43.59178" lon="3.79047">
        <ele>44</ele>
        <time>2021-02-28T12:06:52Z</time>
      </trkpt>
      <trkpt lat="43.59179" lon="3.79043">
        <ele>44</ele>
        <time>2021-02-28T12:06:53Z</time>
      </trkpt>
      <trkpt lat="43.5918" lon="3.79039">
        <ele>45</ele>
        <time>2021-02-28T12:06:54Z</time>
      </trkpt>
      <trkpt lat="43.59181" lon="3.79035">
        <ele>45</ele>
        <time>2021-02-28T12:06:55Z</time>
      </trkpt>
      <trkpt lat="43.59182" lon="3.79032">
        <ele>45</ele>
        <time>2021-02-28T12:06:56Z</time>
      </trkpt>
      <trkpt lat="43.59183" lon="3.79028">
        <ele>45</ele>
        <time>2021-02-28T12:06:57Z</time>
      </trkpt>
      <trkpt lat="43.59184" lon="3.79024">
        <ele>45</ele>
        <time>2021-02-28T12:06:58Z</time>
      </trkpt>
      <trkpt lat="43.59185" lon="3.7902">
        <ele>45</ele>
        <time>2021-02-28T12:06:59Z</time>
      </trkpt>
      <trkpt lat="43.59185" lon="3.79016">
        <ele>45</ele>
        <time>2021-02-28T12:07:00Z</time>
      </trkpt>
      <trkpt lat="43.59183" lon="3.79013">
        <ele>45</ele>
        <time>2021-02-28T12:07:01Z</time>
      </trkpt>
      <trkpt lat="43.59181" lon="3.7901">
        <ele>45</ele>
        <time>2021-02-28T12:07:02Z</time>
      </trkpt>
      <trkpt lat="43.5918" lon="3.79006">
        <ele>45</ele>
        <time>2021-02-28T12:07:03Z</time>
      </trkpt>
      <trkpt lat="43.59178" lon="3.79002">
        <ele>45</ele>
        <time>2021-02-28T12:07:04Z</time>
      </trkpt>
      <trkpt lat="43.59176" lon="3.78998">
        <ele>45</ele>
        <time>2021-02-28T12:07:05Z</time>
      </trkpt>
      <trkpt lat="43.59174" lon="3.78994">
        <ele>45</ele>
        <time>2021-02-28T12:07:06Z</time>
      </trkpt>
      <trkpt lat="43.59172" lon="3.78989">
        <ele>45</ele>
        <time>2021-02-28T12:07:07Z</time>
      </trkpt>
      <trkpt lat="43.5917" lon="3.78985">
        <ele>45</ele>
        <time>2021-02-28T12:07:08Z</time>
      </trkpt>
      <trkpt lat="43.59168" lon="3.7898">
        <ele>45</ele>
        <time>2021-02-28T12:07:09Z</time>
      </trkpt>
      <trkpt lat="43.59166" lon="3.78976">
        <ele>45</ele>
        <time>2021-02-28T12:07:10Z</time>
      </trkpt>
      <trkpt lat="43.59163" lon="3.78971">
        <ele>45</ele>
        <time>2021-02-28T12:07:11Z</time>
      </trkpt>
      <trkpt lat="43.59161" lon="3.78967">
        <ele>45</ele>
        <time>2021-02-28T12:07:12Z</time>
      </trkpt>
      <trkpt lat="43.59159" lon="3.78963">
        <ele>45</ele>
        <time>2021-02-28T12:07:13Z</time>
      </trkpt>
      <trkpt lat="43.59157" lon="3.78958">
        <ele>44</ele>
        <time>2021-02-28T12:07:14Z</time>
      </trkpt>
      <trkpt lat="43.59155" lon="3.78954">
        <ele>44</ele>
        <time>2021-02-28T12:07:15Z</time>
      </trkpt>
      <trkpt lat="43.59154" lon="3.78949">
        <ele>44</ele>
        <time>2021-02-28T12:07:16Z</time>
      </trkpt>
      <trkpt lat="43.59152" lon="3.78945">
        <ele>44</ele>
        <time>2021-02-28T12:07:17Z</time>
      </trkpt>
      <trkpt lat="43.5915" lon="3.78941">
        <ele>44</ele>
        <time>2021-02-28T12:07:18Z</time>
      </trkpt>
      <trkpt lat="43.59149" lon="3.78937">
        <ele>44</ele>
        <time>2021-02-28T12:07:19Z</time>
      </trkpt>
      <trkpt lat="43.59147" lon="3.78933">
        <ele>44</ele>
        <time>2021-02-28T12:07:20Z</time>
      </trkpt>
      <trkpt lat="43.59145" lon="3.7893">
        <ele>44</ele>
        <time>2021-02-28T12:07:21Z</time>
      </trkpt>
      <trkpt lat="43.59143" lon="3.78926">
        <ele>44</ele>
        <time>2021-02-28T12:07:22Z</time>
      </trkpt>
      <trkpt lat="43.59141" lon="3.78922">
        <ele>44</ele>
        <time>2021-02-28T12:07:23Z</time>
      </trkpt>
      <trkpt lat="43.59139" lon="3.78919">
        <ele>44</ele>
        <time>2021-02-28T12:07:24Z</time>
      </trkpt>
      <trkpt lat="43.59137" lon="3.78915">
        <ele>44</ele>
        <time>2021-02-28T12:07:25Z</time>
      </trkpt>
      <trkpt lat="43.59136" lon="3.78912">
        <ele>44</ele>
        <time>2021-02-28T12:07:26Z</time>
      </trkpt>
      <trkpt lat="43.59135" lon="3.78907">
        <ele>44</ele>
        <time>2021-02-28T12:07:27Z</time>
      </trkpt>
      <trkpt lat="43.59133" lon="3.78902">
        <ele>44</ele>
        <time>2021-02-28T12:07:28Z</time>
      </trkpt>
      <trkpt lat="43.59131" lon="3.78898">
        <ele>44</ele>
        <time>2021-02-28T12:07:29Z</time>
      </trkpt>
      <trkpt lat="43.59129" lon="3.78895">
        <ele>44</ele>
        <time>2021-02-28T12:07:30Z</time>
      </trkpt>
      <trkpt lat="43.59127" lon="3.78892">
        <ele>44</ele>
        <time>2021-02-28T12:07:31Z</time>
      </trkpt>
      <trkpt lat="43.59126" lon="3.78889">
        <ele>44</ele>
        <time>2021-02-28T12:07:32Z</time>
      </trkpt>
      <trkpt lat="43.59127" lon="3.78886">
        <ele>44</ele>
        <time>2021-02-28T12:07:33Z</time>
      </trkpt>
      <trkpt lat="43.59128" lon="3.78884">
        <ele>43</ele>
        <time>2021-02-28T12:07:34Z</time>
      </trkpt>
      <trkpt lat="43.59129" lon="3.7888">
        <ele>43</ele>
        <time>2021-02-28T12:07:35Z</time>
      </trkpt>
      <trkpt lat="43.5913" lon="3.78877">
        <ele>43</ele>
        <time>2021-02-28T12:07:36Z</time>
      </trkpt>
      <trkpt lat="43.5913" lon="3.78873">
        <ele>43</ele>
        <time>2021-02-28T12:07:37Z</time>
      </trkpt>
      <trkpt lat="43.59131" lon="3.78869">
        <ele>43</ele>
        <time>2021-02-28T12:07:38Z</time>
      </trkpt>
      <trkpt lat="43.59132" lon="3.78865">
        <ele>43</ele>
        <time>2021-02-28T12:07:39Z</time>
      </trkpt>
      <trkpt lat="43.59134" lon="3.78862">
        <ele>43</ele>
        <time>2021-02-28T12:07:40Z</time>
      </trkpt>
      <trkpt lat="43.59135" lon="3.78859">
        <ele>43</ele>
        <time>2021-02-28T12:07:41Z</time>
      </trkpt>
      <trkpt lat="43.59135" lon="3.78856">
        <ele>43</ele>
        <time>2021-02-28T12:07:42Z</time>
      </trkpt>
      <trkpt lat="43.59136" lon="3.78854">
        <ele>43</ele>
        <time>2021-02-28T12:07:43Z</time>
      </trkpt>
      <trkpt lat="43.59142" lon="3.78834">
        <ele>43</ele>
        <time>2021-02-28T12:10:05Z</time>
      </trkpt>
      <trkpt lat="43.59143" lon="3.78831">
        <ele>43</ele>
        <time>2021-02-28T12:10:06Z</time>
      </trkpt>
      <trkpt lat="43.59144" lon="3.78827">
        <ele>43</ele>
        <time>2021-02-28T12:10:07Z</time>
      </trkpt>
      <trkpt lat="43.59146" lon="3.78824">
        <ele>43</ele>
        <time>2021-02-28T12:10:08Z</time>
      </trkpt>
      <trkpt lat="43.59147" lon="3.78821">
        <ele>43</ele>
        <time>2021-02-28T12:10:09Z</time>
      </trkpt>
      <trkpt lat="43.59148" lon="3.78818">
        <ele>43</ele>
        <time>2021-02-28T12:10:10Z</time>
      </trkpt>
      <trkpt lat="43.59148" lon="3.78815">
        <ele>43</ele>
        <time>2021-02-28T12:10:11Z</time>
      </trkpt>
      <trkpt lat="43.59149" lon="3.78812">
        <ele>43</ele>
        <time>2021-02-28T12:10:12Z</time>
      </trkpt>
      <trkpt lat="43.5915" lon="3.78809">
        <ele>43</ele>
        <time>2021-02-28T12:10:13Z</time>
      </trkpt>
      <trkpt lat="43.59151" lon="3.78805">
        <ele>43</ele>
        <time>2021-02-28T12:10:14Z</time>
      </trkpt>
      <trkpt lat="43.59152" lon="3.78802">
        <ele>43</ele>
        <time>2021-02-28T12:10:15Z</time>
      </trkpt>
      <trkpt lat="43.59153" lon="3.78799">
        <ele>43</ele>
        <time>2021-02-28T12:10:16Z</time>
      </trkpt>
      <trkpt lat="43.59154" lon="3.78795">
        <ele>43</ele>
        <time>2021-02-28T12:10:17Z</time>
      </trkpt>
      <trkpt lat="43.59155" lon="3.78791">
        <ele>43</ele>
        <time>2021-02-28T12:10:18Z</time>
      </trkpt>
      <trkpt lat="43.59157" lon="3.78786">
        <ele>43</ele>
        <time>2021-02-28T12:10:19Z</time>
      </trkpt>
      <trkpt lat="43.59158" lon="3.78782">
        <ele>43</ele>
        <time>2021-02-28T12:10:20Z</time>
      </trkpt>
      <trkpt lat="43.59159" lon="3.78777">
        <ele>43</ele>
        <time>2021-02-28T12:10:21Z</time>
      </trkpt>
      <trkpt lat="43.5916" lon="3.78772">
        <ele>43</ele>
        <time>2021-02-28T12:10:22Z</time>
      </trkpt>
      <trkpt lat="43.59161" lon="3.78767">
        <ele>43</ele>
        <time>2021-02-28T12:10:23Z</time>
      </trkpt>
      <trkpt lat="43.59162" lon="3.78762">
        <ele>43</ele>
        <time>2021-02-28T12:10:24Z</time>
      </trkpt>
      <trkpt lat="43.59162" lon="3.78757">
        <ele>44</ele>
        <time>2021-02-28T12:10:25Z</time>
      </trkpt>
      <trkpt lat="43.59162" lon="3.78751">
        <ele>44</ele>
        <time>2021-02-28T12:10:26Z</time>
      </trkpt>
      <trkpt lat="43.59163" lon="3.78747">
        <ele>44</ele>
        <time>2021-02-28T12:10:27Z</time>
      </trkpt>
      <trkpt lat="43.59164" lon="3.78742">
        <ele>44</ele>
        <time>2021-02-28T12:10:28Z</time>
      </trkpt>
      <trkpt lat="43.59164" lon="3.78738">
        <ele>44</ele>
        <time>2021-02-28T12:10:29Z</time>
      </trkpt>
      <trkpt lat="43.59165" lon="3.78733">
        <ele>44</ele>
        <time>2021-02-28T12:10:30Z</time>
      </trkpt>
      <trkpt lat="43.59165" lon="3.78728">
        <ele>44</ele>
        <time>2021-02-28T12:10:31Z</time>
      </trkpt>
      <trkpt lat="43.59166" lon="3.78724">
        <ele>44</ele>
        <time>2021-02-28T12:10:32Z</time>
      </trkpt>
      <trkpt lat="43.59167" lon="3.78719">
        <ele>44</ele>
        <time>2021-02-28T12:10:33Z</time>
      </trkpt>
      <trkpt lat="43.59168" lon="3.78715">
        <ele>44</ele>
        <time>2021-02-28T12:10:34Z</time>
      </trkpt>
      <trkpt lat="43.59169" lon="3.7871">
        <ele>44</ele>
        <time>2021-02-28T12:10:35Z</time>
      </trkpt>
      <trkpt lat="43.5917" lon="3.78705">
        <ele>44</ele>
        <time>2021-02-28T12:10:36Z</time>
      </trkpt>
      <trkpt lat="43.59171" lon="3.78701">
        <ele>44</ele>
        <time>2021-02-28T12:10:37Z</time>
      </trkpt>
      <trkpt lat="43.59172" lon="3.78696">
        <ele>44</ele>
        <time>2021-02-28T12:10:38Z</time>
      </trkpt>
      <trkpt lat="43.59173" lon="3.78691">
        <ele>44</ele>
        <time>2021-02-28T12:10:39Z</time>
      </trkpt>
      <trkpt lat="43.59175" lon="3.78687">
        <ele>44</ele>
        <time>2021-02-28T12:10:40Z</time>
      </trkpt>
      <trkpt lat="43.59176" lon="3.78682">
        <ele>44</ele>
        <time>2021-02-28T12:10:41Z</time>
      </trkpt>
      <trkpt lat="43.59177" lon="3.78677">
        <ele>44</ele>
        <time>2021-02-28T12:10:42Z</time>
      </trkpt>
      <trkpt lat="43.59179" lon="3.78673">
        <ele>44</ele>
        <time>2021-02-28T12:10:43Z</time>
      </trkpt>
      <trkpt lat="43.5918" lon="3.78668">
        <ele>44</ele>
        <time>2021-02-28T12:10:44Z</time>
      </trkpt>
      <trkpt lat="43.59182" lon="3.78663">
        <ele>45</ele>
        <time>2021-02-28T12:10:45Z</time>
      </trkpt>
      <trkpt lat="43.59183" lon="3.78658">
        <ele>45</ele>
        <time>2021-02-28T12:10:46Z</time>
      </trkpt>
      <trkpt lat="43.59185" lon="3.78654">
        <ele>45</ele>
        <time>2021-02-28T12:10:47Z</time>
      </trkpt>
      <trkpt lat="43.59187" lon="3.78649">
        <ele>45</ele>
        <time>2021-02-28T12:10:48Z</time>
      </trkpt>
      <trkpt lat="43.59188" lon="3.78644">
        <ele>45</ele>
        <time>2021-02-28T12:10:49Z</time>
      </trkpt>
      <trkpt lat="43.5919" lon="3.78639">
        <ele>45</ele>
        <time>2021-02-28T12:10:50Z</time>
      </trkpt>
      <trkpt lat="43.59192" lon="3.78634">
        <ele>45</ele>
        <time>2021-02-28T12:10:51Z</time>
      </trkpt>
      <trkpt lat="43.59195" lon="3.78625">
        <ele>45</ele>
        <time>2021-02-28T12:10:53Z</time>
      </trkpt>
      <trkpt lat="43.59197" lon="3.7862">
        <ele>45</ele>
        <time>2021-02-28T12:10:54Z</time>
      </trkpt>
      <trkpt lat="43.59198" lon="3.78615">
        <ele>45</ele>
        <time>2021-02-28T12:10:55Z</time>
      </trkpt>
      <trkpt lat="43.59201" lon="3.78605">
        <ele>45</ele>
        <time>2021-02-28T12:10:57Z</time>
      </trkpt>
      <trkpt lat="43.59203" lon="3.786">
        <ele>45</ele>
        <time>2021-02-28T12:10:58Z</time>
      </trkpt>
      <trkpt lat="43.59204" lon="3.78595">
        <ele>45</ele>
        <time>2021-02-28T12:10:59Z</time>
      </trkpt>
      <trkpt lat="43.59206" lon="3.7859">
        <ele>45</ele>
        <time>2021-02-28T12:11:00Z</time>
      </trkpt>
      <trkpt lat="43.59207" lon="3.78585">
        <ele>45</ele>
        <time>2021-02-28T12:11:01Z</time>
      </trkpt>
      <trkpt lat="43.59209" lon="3.7858">
        <ele>45</ele>
        <time>2021-02-28T12:11:02Z</time>
      </trkpt>
      <trkpt lat="43.5921" lon="3.78575">
        <ele>45</ele>
        <time>2021-02-28T12:11:03Z</time>
      </trkpt>
      <trkpt lat="43.59212" lon="3.78569">
        <ele>45</ele>
        <time>2021-02-28T12:11:04Z</time>
      </trkpt>
      <trkpt lat="43.59213" lon="3.78564">
        <ele>45</ele>
        <time>2021-02-28T12:11:05Z</time>
      </trkpt>
      <trkpt lat="43.59214" lon="3.78559">
        <ele>45</ele>
        <time>2021-02-28T12:11:06Z</time>
      </trkpt>
      <trkpt lat="43.59216" lon="3.78554">
        <ele>45</ele>
        <time>2021-02-28T12:11:07Z</time>
      </trkpt>
      <trkpt lat="43.59217" lon="3.78549">
        <ele>45</ele>
        <time>2021-02-28T12:11:08Z</time>
      </trkpt>
      <trkpt lat="43.59218" lon="3.78544">
        <ele>45</ele>
        <time>2021-02-28T12:11:09Z</time>
      </trkpt>
      <trkpt lat="43.59219" lon="3.78538">
        <ele>45</ele>
        <time>2021-02-28T12:11:10Z</time>
      </trkpt>
      <trkpt lat="43.5922" lon="3.78533">
        <ele>45</ele>
        <time>2021-02-28T12:11:11Z</time>
      </trkpt>
      <trkpt lat="43.5922" lon="3.78528">
        <ele>45</ele>
        <time>2021-02-28T12:11:12Z</time>
      </trkpt>
      <trkpt lat="43.59221" lon="3.78523">
        <ele>45</ele>
        <time>2021-02-28T12:11:13Z</time>
      </trkpt>
      <trkpt lat="43.59221" lon="3.78518">
        <ele>45</ele>
        <time>2021-02-28T12:11:14Z</time>
      </trkpt>
      <trkpt lat="43.59221" lon="3.78513">
        <ele>46</ele>
        <time>2021-02-28T12:11:15Z</time>
      </trkpt>
      <trkpt lat="43.59222" lon="3.78508">
        <ele>46</ele>
        <time>2021-02-28T12:11:16Z</time>
      </trkpt>
      <trkpt lat="43.59222" lon="3.78503">
        <ele>46</ele>
        <time>2021-02-28T12:11:17Z</time>
      </trkpt>
      <trkpt lat="43.59222" lon="3.78497">
        <ele>46</ele>
        <time>2021-02-28T12:11:18Z</time>
      </trkpt>
      <trkpt lat="43.59222" lon="3.78492">
        <ele>46</ele>
        <time>2021-02-28T12:11:19Z</time>
      </trkpt>
      <trkpt lat="43.59223" lon="3.78487">
        <ele>46</ele>
        <time>2021-02-28T12:11:20Z</time>
      </trkpt>
      <trkpt lat="43.59223" lon="3.78482">
        <ele>46</ele>
        <time>2021-02-28T12:11:21Z</time>
      </trkpt>
      <trkpt lat="43.59223" lon="3.78477">
        <ele>46</ele>
        <time>2021-02-28T12:11:22Z</time>
      </trkpt>
      <trkpt lat="43.59224" lon="3.78472">
        <ele>46</ele>
        <time>2021-02-28T12:11:23Z</time>
      </trkpt>
      <trkpt lat="43.59224" lon="3.78467">
        <ele>46</ele>
        <time>2021-02-28T12:11:24Z</time>
      </trkpt>
      <trkpt lat="43.59225" lon="3.78462">
        <ele>46</ele>
        <time>2021-02-28T12:11:25Z</time>
      </trkpt>
      <trkpt lat="43.59225" lon="3.78457">
        <ele>46</ele>
        <time>2021-02-28T12:11:26Z</time>
      </trkpt>
      <trkpt lat="43.59226" lon="3.78448">
        <ele>46</ele>
        <time>2021-02-28T12:11:28Z</time>
      </trkpt>
      <trkpt lat="43.59227" lon="3.78443">
        <ele>46</ele>
        <time>2021-02-28T12:11:29Z</time>
      </trkpt>
      <trkpt lat="43.59228" lon="3.78438">
        <ele>46</ele>
        <time>2021-02-28T12:11:30Z</time>
      </trkpt>
      <trkpt lat="43.59229" lon="3.78433">
        <ele>46</ele>
        <time>2021-02-28T12:11:31Z</time>
      </trkpt>
      <trkpt lat="43.5923" lon="3.78428">
        <ele>46</ele>
        <time>2021-02-28T12:11:32Z</time>
      </trkpt>
      <trkpt lat="43.59231" lon="3.78424">
        <ele>46</ele>
        <time>2021-02-28T12:11:33Z</time>
      </trkpt>
      <trkpt lat="43.59232" lon="3.78419">
        <ele>46</ele>
        <time>2021-02-28T12:11:34Z</time>
      </trkpt>
      <trkpt lat="43.59233" lon="3.78414">
        <ele>47</ele>
        <time>2021-02-28T12:11:35Z</time>
      </trkpt>
      <trkpt lat="43.59233" lon="3.78409">
        <ele>47</ele>
        <time>2021-02-28T12:11:36Z</time>
      </trkpt>
      <trkpt lat="43.59234" lon="3.78404">
        <ele>47</ele>
        <time>2021-02-28T12:11:37Z</time>
      </trkpt>
      <trkpt lat="43.59235" lon="3.78399">
        <ele>47</ele>
        <time>2021-02-28T12:11:38Z</time>
      </trkpt>
      <trkpt lat="43.59236" lon="3.78394">
        <ele>47</ele>
        <time>2021-02-28T12:11:39Z</time>
      </trkpt>
      <trkpt lat="43.59237" lon="3.7839">
        <ele>47</ele>
        <time>2021-02-28T12:11:40Z</time>
      </trkpt>
      <trkpt lat="43.59238" lon="3.78385">
        <ele>47</ele>
        <time>2021-02-28T12:11:41Z</time>
      </trkpt>
      <trkpt lat="43.59239" lon="3.7838">
        <ele>47</ele>
        <time>2021-02-28T12:11:42Z</time>
      </trkpt>
      <trkpt lat="43.5924" lon="3.78375">
        <ele>47</ele>
        <time>2021-02-28T12:11:43Z</time>
      </trkpt>
      <trkpt lat="43.59241" lon="3.7837">
        <ele>47</ele>
        <time>2021-02-28T12:11:44Z</time>
      </trkpt>
      <trkpt lat="43.59241" lon="3.78365">
        <ele>47</ele>
        <time>2021-02-28T12:11:45Z</time>
      </trkpt>
      <trkpt lat="43.59242" lon="3.7836">
        <ele>47</ele>
        <time>2021-02-28T12:11:46Z</time>
      </trkpt>
      <trkpt lat="43.59243" lon="3.78355">
        <ele>47</ele>
        <time>2021-02-28T12:11:47Z</time>
      </trkpt>
      <trkpt lat="43.59243" lon="3.7835">
        <ele>47</ele>
        <time>2021-02-28T12:11:48Z</time>
      </trkpt>
      <trkpt lat="43.59244" lon="3.78345">
        <ele>47</ele>
        <time>2021-02-28T12:11:49Z</time>
      </trkpt>
      <trkpt lat="43.59245" lon="3.7834">
        <ele>47</ele>
        <time>2021-02-28T12:11:50Z</time>
      </trkpt>
      <trkpt lat="43.59245" lon="3.78335">
        <ele>47</ele>
        <time>2021-02-28T12:11:51Z</time>
      </trkpt>
      <trkpt lat="43.59246" lon="3.7833">
        <ele>47</ele>
        <time>2021-02-28T12:11:52Z</time>
      </trkpt>
      <trkpt lat="43.59246" lon="3.78325">
        <ele>47</ele>
        <time>2021-02-28T12:11:53Z</time>
      </trkpt>
      <trkpt lat="43.59246" lon="3.7832">
        <ele>47</ele>
        <time>2021-02-28T12:11:54Z</time>
      </trkpt>
      <trkpt lat="43.59247" lon="3.78315">
        <ele>47</ele>
        <time>2021-02-28T12:11:55Z</time>
      </trkpt>
      <trkpt lat="43.59247" lon="3.78309">
        <ele>47</ele>
        <time>2021-02-28T12:11:56Z</time>
      </trkpt>
      <trkpt lat="43.59247" lon="3.78304">
        <ele>47</ele>
        <time>2021-02-28T12:11:57Z</time>
      </trkpt>
      <trkpt lat="43.59248" lon="3.78299">
        <ele>47</ele>
        <time>2021-02-28T12:11:58Z</time>
      </trkpt>
      <trkpt lat="43.59248" lon="3.78294">
        <ele>47</ele>
        <time>2021-02-28T12:11:59Z</time>
      </trkpt>
      <trkpt lat="43.59249" lon="3.78289">
        <ele>47</ele>
        <time>2021-02-28T12:12:00Z</time>
      </trkpt>
      <trkpt lat="43.59249" lon="3.78284">
        <ele>47</ele>
        <time>2021-02-28T12:12:01Z</time>
      </trkpt>
      <trkpt lat="43.5925" lon="3.78279">
        <ele>47</ele>
        <time>2021-02-28T12:12:02Z</time>
      </trkpt>
      <trkpt lat="43.5925" lon="3.78274">
        <ele>47</ele>
        <time>2021-02-28T12:12:03Z</time>
      </trkpt>
      <trkpt lat="43.59251" lon="3.78269">
        <ele>47</ele>
        <time>2021-02-28T12:12:04Z</time>
      </trkpt>
      <trkpt lat="43.59251" lon="3.78264">
        <ele>48</ele>
        <time>2021-02-28T12:12:05Z</time>
      </trkpt>
      <trkpt lat="43.59252" lon="3.78259">
        <ele>48</ele>
        <time>2021-02-28T12:12:06Z</time>
      </trkpt>
      <trkpt lat="43.59252" lon="3.78254">
        <ele>48</ele>
        <time>2021-02-28T12:12:07Z</time>
      </trkpt>
      <trkpt lat="43.59253" lon="3.78249">
        <ele>48</ele>
        <time>2021-02-28T12:12:08Z</time>
      </trkpt>
      <trkpt lat="43.59254" lon="3.78245">
        <ele>48</ele>
        <time>2021-02-28T12:12:09Z</time>
      </trkpt>
      <trkpt lat="43.59254" lon="3.7824">
        <ele>48</ele>
        <time>2021-02-28T12:12:10Z</time>
      </trkpt>
      <trkpt lat="43.59255" lon="3.78235">
        <ele>48</ele>
        <time>2021-02-28T12:12:11Z</time>
      </trkpt>
      <trkpt lat="43.59256" lon="3.7823">
        <ele>48</ele>
        <time>2021-02-28T12:12:12Z</time>
      </trkpt>
      <trkpt lat="43.59257" lon="3.78225">
        <ele>48</ele>
        <time>2021-02-28T12:12:13Z</time>
      </trkpt>
      <trkpt lat="43.59258" lon="3.78221">
        <ele>48</ele>
        <time>2021-02-28T12:12:14Z</time>
      </trkpt>
      <trkpt lat="43.59259" lon="3.78216">
        <ele>48</ele>
        <time>2021-02-28T12:12:15Z</time>
      </trkpt>
      <trkpt lat="43.5926" lon="3.78212">
        <ele>48</ele>
        <time>2021-02-28T12:12:16Z</time>
      </trkpt>
      <trkpt lat="43.59262" lon="3.78207">
        <ele>48</ele>
        <time>2021-02-28T12:12:17Z</time>
      </trkpt>
      <trkpt lat="43.59263" lon="3.78203">
        <ele>48</ele>
        <time>2021-02-28T12:12:18Z</time>
      </trkpt>
      <trkpt lat="43.59264" lon="3.78198">
        <ele>48</ele>
        <time>2021-02-28T12:12:19Z</time>
      </trkpt>
      <trkpt lat="43.59265" lon="3.78194">
        <ele>48</ele>
        <time>2021-02-28T12:12:20Z</time>
      </trkpt>
      <trkpt lat="43.59267" lon="3.7819">
        <ele>48</ele>
        <time>2021-02-28T12:12:21Z</time>
      </trkpt>
      <trkpt lat="43.59268" lon="3.78185">
        <ele>48</ele>
        <time>2021-02-28T12:12:22Z</time>
      </trkpt>
      <trkpt lat="43.5927" lon="3.78181">
        <ele>48</ele>
        <time>2021-02-28T12:12:23Z</time>
      </trkpt>
      <trkpt lat="43.59271" lon="3.78177">
        <ele>48</ele>
        <time>2021-02-28T12:12:24Z</time>
      </trkpt>
      <trkpt lat="43.59272" lon="3.78173">
        <ele>48</ele>
        <time>2021-02-28T12:12:25Z</time>
      </trkpt>
      <trkpt lat="43.59274" lon="3.78169">
        <ele>48</ele>
        <time>2021-02-28T12:12:26Z</time>
      </trkpt>
      <trkpt lat="43.59275" lon="3.78165">
        <ele>48</ele>
        <time>2021-02-28T12:12:27Z</time>
      </trkpt>
      <trkpt lat="43.59277" lon="3.78161">
        <ele>48</ele>
        <time>2021-02-28T12:12:28Z</time>
      </trkpt>
      <trkpt lat="43.5928" lon="3.78159">
        <ele>48</ele>
        <time>2021-02-28T12:12:29Z</time>
      </trkpt>
      <trkpt lat="43.59283" lon="3.78158">
        <ele>48</ele>
        <time>2021-02-28T12:12:30Z</time>
      </trkpt>
      <trkpt lat="43.59287" lon="3.78159">
        <ele>48</ele>
        <time>2021-02-28T12:12:31Z</time>
      </trkpt>
      <trkpt lat="43.5929" lon="3.78161">
        <ele>48</ele>
        <time>2021-02-28T12:12:32Z</time>
      </trkpt>
      <trkpt lat="43.59294" lon="3.78164">
        <ele>48</ele>
        <time>2021-02-28T12:12:33Z</time>
      </trkpt>
      <trkpt lat="43.59297" lon="3.78167">
        <ele>48</ele>
        <time>2021-02-28T12:12:34Z</time>
      </trkpt>
      <trkpt lat="43.593" lon="3.7817">
        <ele>48</ele>
        <time>2021-02-28T12:12:35Z</time>
      </trkpt>
      <trkpt lat="43.59303" lon="3.78172">
        <ele>48</ele>
        <time>2021-02-28T12:12:36Z</time>
      </trkpt>
      <trkpt lat="43.59306" lon="3.78173">
        <ele>48</ele>
        <time>2021-02-28T12:12:37Z</time>
      </trkpt>
      <trkpt lat="43.5931" lon="3.78175">
        <ele>48</ele>
        <time>2021-02-28T12:12:38Z</time>
      </trkpt>
      <trkpt lat="43.59313" lon="3.78175">
        <ele>48</ele>
        <time>2021-02-28T12:12:39Z</time>
      </trkpt>
      <trkpt lat="43.59316" lon="3.78174">
        <ele>48</ele>
        <time>2021-02-28T12:12:40Z</time>
      </trkpt>
      <trkpt lat="43.59319" lon="3.78171">
        <ele>48</ele>
        <time>2021-02-28T12:12:41Z</time>
      </trkpt>
      <trkpt lat="43.5932" lon="3.78166">
        <ele>48</ele>
        <time>2021-02-28T12:12:42Z</time>
      </trkpt>
      <trkpt lat="43.59322" lon="3.78161">
        <ele>48</ele>
        <time>2021-02-28T12:12:43Z</time>
      </trkpt>
      <trkpt lat="43.59323" lon="3.78157">
        <ele>48</ele>
        <time>2021-02-28T12:12:44Z</time>
      </trkpt>
      <trkpt lat="43.59324" lon="3.78152">
        <ele>48</ele>
        <time>2021-02-28T12:12:45Z</time>
      </trkpt>
      <trkpt lat="43.59325" lon="3.78147">
        <ele>48</ele>
        <time>2021-02-28T12:12:46Z</time>
      </trkpt>
      <trkpt lat="43.59327" lon="3.78142">
        <ele>48</ele>
        <time>2021-02-28T12:12:47Z</time>
      </trkpt>
      <trkpt lat="43.59328" lon="3.78137">
        <ele>48</ele>
        <time>2021-02-28T12:12:48Z</time>
      </trkpt>
      <trkpt lat="43.59329" lon="3.78132">
        <ele>48</ele>
        <time>2021-02-28T12:12:49Z</time>
      </trkpt>
      <trkpt lat="43.59331" lon="3.78127">
        <ele>48</ele>
        <time>2021-02-28T12:12:50Z</time>
      </trkpt>
      <trkpt lat="43.59332" lon="3.78123">
        <ele>48</ele>
        <time>2021-02-28T12:12:51Z</time>
      </trkpt>
      <trkpt lat="43.59333" lon="3.78118">
        <ele>48</ele>
        <time>2021-02-28T12:12:52Z</time>
      </trkpt>
      <trkpt lat="43.59334" lon="3.78113">
        <ele>48</ele>
        <time>2021-02-28T12:12:53Z</time>
      </trkpt>
      <trkpt lat="43.59335" lon="3.78108">
        <ele>48</ele>
        <time>2021-02-28T12:12:54Z</time>
      </trkpt>
      <trkpt lat="43.59336" lon="3.78104">
        <ele>49</ele>
        <time>2021-02-28T12:12:55Z</time>
      </trkpt>
      <trkpt lat="43.59337" lon="3.78099">
        <ele>49</ele>
        <time>2021-02-28T12:12:56Z</time>
      </trkpt>
      <trkpt lat="43.59337" lon="3.78093">
        <ele>49</ele>
        <time>2021-02-28T12:12:57Z</time>
      </trkpt>
      <trkpt lat="43.59337" lon="3.78088">
        <ele>49</ele>
        <time>2021-02-28T12:12:58Z</time>
      </trkpt>
      <trkpt lat="43.59337" lon="3.78084">
        <ele>49</ele>
        <time>2021-02-28T12:12:59Z</time>
      </trkpt>
      <trkpt lat="43.59337" lon="3.78079">
        <ele>49</ele>
        <time>2021-02-28T12:13:00Z</time>
      </trkpt>
      <trkpt lat="43.59336" lon="3.78074">
        <ele>49</ele>
        <time>2021-02-28T12:13:01Z</time>
      </trkpt>
      <trkpt lat="43.59336" lon="3.78069">
        <ele>49</ele>
        <time>2021-02-28T12:13:02Z</time>
      </trkpt>
      <trkpt lat="43.59335" lon="3.78064">
        <ele>49</ele>
        <time>2021-02-28T12:13:03Z</time>
      </trkpt>
      <trkpt lat="43.59335" lon="3.78059">
        <ele>49</ele>
        <time>2021-02-28T12:13:04Z</time>
      </trkpt>
      <trkpt lat="43.59334" lon="3.78053">
        <ele>50</ele>
        <time>2021-02-28T12:13:05Z</time>
      </trkpt>
      <trkpt lat="43.59334" lon="3.78048">
        <ele>50</ele>
        <time>2021-02-28T12:13:06Z</time>
      </trkpt>
      <trkpt lat="43.59334" lon="3.78043">
        <ele>50</ele>
        <time>2021-02-28T12:13:07Z</time>
      </trkpt>
      <trkpt lat="43.59333" lon="3.78038">
        <ele>50</ele>
        <time>2021-02-28T12:13:08Z</time>
      </trkpt>
      <trkpt lat="43.59333" lon="3.78032">
        <ele>50</ele>
        <time>2021-02-28T12:13:09Z</time>
      </trkpt>
      <trkpt lat="43.59333" lon="3.78027">
        <ele>50</ele>
        <time>2021-02-28T12:13:10Z</time>
      </trkpt>
      <trkpt lat="43.59332" lon="3.78022">
        <ele>50</ele>
        <time>2021-02-28T12:13:11Z</time>
      </trkpt>
      <trkpt lat="43.59332" lon="3.78017">
        <ele>50</ele>
        <time>2021-02-28T12:13:12Z</time>
      </trkpt>
      <trkpt lat="43.59332" lon="3.78012">
        <ele>50</ele>
        <time>2021-02-28T12:13:13Z</time>
      </trkpt>
      <trkpt lat="43.59332" lon="3.78006">
        <ele>50</ele>
        <time>2021-02-28T12:13:14Z</time>
      </trkpt>
      <trkpt lat="43.59332" lon="3.78001">
        <ele>51</ele>
        <time>2021-02-28T12:13:15Z</time>
      </trkpt>
      <trkpt lat="43.59331" lon="3.77996">
        <ele>51</ele>
        <time>2021-02-28T12:13:16Z</time>
      </trkpt>
      <trkpt lat="43.59331" lon="3.77991">
        <ele>51</ele>
        <time>2021-02-28T12:13:17Z</time>
      </trkpt>
      <trkpt lat="43.59331" lon="3.77986">
        <ele>51</ele>
        <time>2021-02-28T12:13:18Z</time>
      </trkpt>
      <trkpt lat="43.59331" lon="3.7798">
        <ele>51</ele>
        <time>2021-02-28T12:13:19Z</time>
      </trkpt>
      <trkpt lat="43.59331" lon="3.77975">
        <ele>51</ele>
        <time>2021-02-28T12:13:20Z</time>
      </trkpt>
      <trkpt lat="43.59331" lon="3.7797">
        <ele>51</ele>
        <time>2021-02-28T12:13:21Z</time>
      </trkpt>
      <trkpt lat="43.59332" lon="3.77965">
        <ele>51</ele>
        <time>2021-02-28T12:13:22Z</time>
      </trkpt>
      <trkpt lat="43.59332" lon="3.77959">
        <ele>51</ele>
        <time>2021-02-28T12:13:23Z</time>
      </trkpt>
      <trkpt lat="43.59332" lon="3.77954">
        <ele>51</ele>
        <time>2021-02-28T12:13:24Z</time>
      </trkpt>
      <trkpt lat="43.59333" lon="3.77949">
        <ele>51</ele>
        <time>2021-02-28T12:13:25Z</time>
      </trkpt>
      <trkpt lat="43.59333" lon="3.77944">
        <ele>51</ele>
        <time>2021-02-28T12:13:26Z</time>
      </trkpt>
      <trkpt lat="43.59334" lon="3.77939">
        <ele>51</ele>
        <time>2021-02-28T12:13:27Z</time>
      </trkpt>
      <trkpt lat="43.59334" lon="3.77934">
        <ele>51</ele>
        <time>2021-02-28T12:13:28Z</time>
      </trkpt>
      <trkpt lat="43.59335" lon="3.7793">
        <ele>51</ele>
        <time>2021-02-28T12:13:29Z</time>
      </trkpt>
      <trkpt lat="43.59335" lon="3.77925">
        <ele>51</ele>
        <time>2021-02-28T12:13:30Z</time>
      </trkpt>
      <trkpt lat="43.59336" lon="3.7792">
        <ele>51</ele>
        <time>2021-02-28T12:13:31Z</time>
      </trkpt>
      <trkpt lat="43.59336" lon="3.77915">
        <ele>51</ele>
        <time>2021-02-28T12:13:32Z</time>
      </trkpt>
      <trkpt lat="43.59337" lon="3.7791">
        <ele>51</ele>
        <time>2021-02-28T12:13:33Z</time>
      </trkpt>
      <trkpt lat="43.59337" lon="3.77904">
        <ele>51</ele>
        <time>2021-02-28T12:13:34Z</time>
      </trkpt>
      <trkpt lat="43.59338" lon="3.77899">
        <ele>52</ele>
        <time>2021-02-28T12:13:35Z</time>
      </trkpt>
      <trkpt lat="43.59339" lon="3.77894">
        <ele>52</ele>
        <time>2021-02-28T12:13:36Z</time>
      </trkpt>
      <trkpt lat="43.5934" lon="3.77889">
        <ele>52</ele>
        <time>2021-02-28T12:13:37Z</time>
      </trkpt>
      <trkpt lat="43.5934" lon="3.77884">
        <ele>52</ele>
        <time>2021-02-28T12:13:38Z</time>
      </trkpt>
      <trkpt lat="43.59341" lon="3.77879">
        <ele>52</ele>
        <time>2021-02-28T12:13:39Z</time>
      </trkpt>
      <trkpt lat="43.59342" lon="3.77874">
        <ele>52</ele>
        <time>2021-02-28T12:13:40Z</time>
      </trkpt>
      <trkpt lat="43.59342" lon="3.77868">
        <ele>52</ele>
        <time>2021-02-28T12:13:41Z</time>
      </trkpt>
      <trkpt lat="43.59343" lon="3.77863">
        <ele>52</ele>
        <time>2021-02-28T12:13:42Z</time>
      </trkpt>
      <trkpt lat="43.59343" lon="3.77858">
        <ele>52</ele>
        <time>2021-02-28T12:13:43Z</time>
      </trkpt>
      <trkpt lat="43.59344" lon="3.77852">
        <ele>52</ele>
        <time>2021-02-28T12:13:44Z</time>
      </trkpt>
      <trkpt lat="43.59345" lon="3.77847">
        <ele>52</ele>
        <time>2021-02-28T12:13:45Z</time>
      </trkpt>
      <trkpt lat="43.59346" lon="3.77842">
        <ele>52</ele>
        <time>2021-02-28T12:13:46Z</time>
      </trkpt>
      <trkpt lat="43.59346" lon="3.77837">
        <ele>52</ele>
        <time>2021-02-28T12:13:47Z</time>
      </trkpt>
      <trkpt lat="43.59347" lon="3.77831">
        <ele>52</ele>
        <time>2021-02-28T12:13:48Z</time>
      </trkpt>
      <trkpt lat="43.59348" lon="3.77826">
        <ele>52</ele>
        <time>2021-02-28T12:13:49Z</time>
      </trkpt>
      <trkpt lat="43.5935" lon="3.77821">
        <ele>52</ele>
        <time>2021-02-28T12:13:50Z</time>
      </trkpt>
      <trkpt lat="43.59351" lon="3.77816">
        <ele>52</ele>
        <time>2021-02-28T12:13:51Z</time>
      </trkpt>
      <trkpt lat="43.59354" lon="3.77807">
        <ele>52</ele>
        <time>2021-02-28T12:13:53Z</time>
      </trkpt>
      <trkpt lat="43.59356" lon="3.77802">
        <ele>52</ele>
        <time>2021-02-28T12:13:54Z</time>
      </trkpt>
      <trkpt lat="43.59358" lon="3.77798">
        <ele>53</ele>
        <time>2021-02-28T12:13:55Z</time>
      </trkpt>
      <trkpt lat="43.59361" lon="3.77793">
        <ele>53</ele>
        <time>2021-02-28T12:13:56Z</time>
      </trkpt>
      <trkpt lat="43.59364" lon="3.77789">
        <ele>53</ele>
        <time>2021-02-28T12:13:57Z</time>
      </trkpt>
      <trkpt lat="43.59366" lon="3.77785">
        <ele>53</ele>
        <time>2021-02-28T12:13:58Z</time>
      </trkpt>
      <trkpt lat="43.59369" lon="3.77781">
        <ele>53</ele>
        <time>2021-02-28T12:13:59Z</time>
      </trkpt>
      <trkpt lat="43.59371" lon="3.77777">
        <ele>53</ele>
        <time>2021-02-28T12:14:00Z</time>
      </trkpt>
      <trkpt lat="43.59377" lon="3.77769">
        <ele>53</ele>
        <time>2021-02-28T12:14:02Z</time>
      </trkpt>
      <trkpt lat="43.59379" lon="3.77766">
        <ele>53</ele>
        <time>2021-02-28T12:14:03Z</time>
      </trkpt>
      <trkpt lat="43.59382" lon="3.77762">
        <ele>53</ele>
        <time>2021-02-28T12:14:04Z</time>
      </trkpt>
      <trkpt lat="43.59388" lon="3.77755">
        <ele>53</ele>
        <time>2021-02-28T12:14:06Z</time>
      </trkpt>
      <trkpt lat="43.5939" lon="3.77751">
        <ele>53</ele>
        <time>2021-02-28T12:14:07Z</time>
      </trkpt>
      <trkpt lat="43.59393" lon="3.77747">
        <ele>53</ele>
        <time>2021-02-28T12:14:08Z</time>
      </trkpt>
      <trkpt lat="43.59396" lon="3.77743">
        <ele>53</ele>
        <time>2021-02-28T12:14:09Z</time>
      </trkpt>
      <trkpt lat="43.59398" lon="3.7774">
        <ele>53</ele>
        <time>2021-02-28T12:14:10Z</time>
      </trkpt>
      <trkpt lat="43.59401" lon="3.77736">
        <ele>53</ele>
        <time>2021-02-28T12:14:11Z</time>
      </trkpt>
      <trkpt lat="43.59404" lon="3.77733">
        <ele>53</ele>
        <time>2021-02-28T12:14:12Z</time>
      </trkpt>
      <trkpt lat="43.59406" lon="3.77729">
        <ele>53</ele>
        <time>2021-02-28T12:14:13Z</time>
      </trkpt>
      <trkpt lat="43.59409" lon="3.77726">
        <ele>53</ele>
        <time>2021-02-28T12:14:14Z</time>
      </trkpt>
      <trkpt lat="43.59412" lon="3.77723">
        <ele>53</ele>
        <time>2021-02-28T12:14:15Z</time>
      </trkpt>
      <trkpt lat="43.59414" lon="3.77719">
        <ele>53</ele>
        <time>2021-02-28T12:14:16Z</time>
      </trkpt>
      <trkpt lat="43.59417" lon="3.77716">
        <ele>53</ele>
        <time>2021-02-28T12:14:17Z</time>
      </trkpt>
      <trkpt lat="43.59419" lon="3.77713">
        <ele>53</ele>
        <time>2021-02-28T12:14:18Z</time>
      </trkpt>
      <trkpt lat="43.59421" lon="3.7771">
        <ele>53</ele>
        <time>2021-02-28T12:14:19Z</time>
      </trkpt>
      <trkpt lat="43.59423" lon="3.77708">
        <ele>53</ele>
        <time>2021-02-28T12:14:20Z</time>
      </trkpt>
      <trkpt lat="43.59425" lon="3.77706">
        <ele>53</ele>
        <time>2021-02-28T12:14:21Z</time>
      </trkpt>
      <trkpt lat="43.59425" lon="3.77703">
        <ele>53</ele>
        <time>2021-02-28T12:14:25Z</time>
      </trkpt>
      <trkpt lat="43.59431" lon="3.77694">
        <ele>55</ele>
        <time>2021-02-28T12:17:43Z</time>
      </trkpt>
      <trkpt lat="43.5943" lon="3.7769">
        <ele>55</ele>
        <time>2021-02-28T12:17:44Z</time>
      </trkpt>
      <trkpt lat="43.59428" lon="3.77685">
        <ele>55</ele>
        <time>2021-02-28T12:17:45Z</time>
      </trkpt>
      <trkpt lat="43.59426" lon="3.7768">
        <ele>55</ele>
        <time>2021-02-28T12:17:46Z</time>
      </trkpt>
      <trkpt lat="43.59424" lon="3.77676">
        <ele>55</ele>
        <time>2021-02-28T12:17:47Z</time>
      </trkpt>
      <trkpt lat="43.59422" lon="3.77671">
        <ele>55</ele>
        <time>2021-02-28T12:17:48Z</time>
      </trkpt>
      <trkpt lat="43.59419" lon="3.77666">
        <ele>55</ele>
        <time>2021-02-28T12:17:49Z</time>
      </trkpt>
      <trkpt lat="43.59417" lon="3.77662">
        <ele>55</ele>
        <time>2021-02-28T12:17:50Z</time>
      </trkpt>
      <trkpt lat="43.59416" lon="3.77657">
        <ele>55</ele>
        <time>2021-02-28T12:17:51Z</time>
      </trkpt>
      <trkpt lat="43.59414" lon="3.77653">
        <ele>55</ele>
        <time>2021-02-28T12:17:52Z</time>
      </trkpt>
      <trkpt lat="43.59413" lon="3.77648">
        <ele>55</ele>
        <time>2021-02-28T12:17:53Z</time>
      </trkpt>
      <trkpt lat="43.59412" lon="3.77644">
        <ele>55</ele>
        <time>2021-02-28T12:17:54Z</time>
      </trkpt>
      <trkpt lat="43.59411" lon="3.77639">
        <ele>55</ele>
        <time>2021-02-28T12:17:55Z</time>
      </trkpt>
      <trkpt lat="43.5941" lon="3.77635">
        <ele>55</ele>
        <time>2021-02-28T12:17:56Z</time>
      </trkpt>
      <trkpt lat="43.59408" lon="3.77631">
        <ele>55</ele>
        <time>2021-02-28T12:17:57Z</time>
      </trkpt>
      <trkpt lat="43.59407" lon="3.77626">
        <ele>55</ele>
        <time>2021-02-28T12:17:58Z</time>
      </trkpt>
      <trkpt lat="43.59406" lon="3.77622">
        <ele>55</ele>
        <time>2021-02-28T12:17:59Z</time>
      </trkpt>
      <trkpt lat="43.59405" lon="3.77617">
        <ele>55</ele>
        <time>2021-02-28T12:18:00Z</time>
      </trkpt>
      <trkpt lat="43.59405" lon="3.77612">
        <ele>55</ele>
        <time>2021-02-28T12:18:01Z</time>
      </trkpt>
      <trkpt lat="43.59404" lon="3.77607">
        <ele>55</ele>
        <time>2021-02-28T12:18:02Z</time>
      </trkpt>
      <trkpt lat="43.59402" lon="3.77603">
        <ele>55</ele>
        <time>2021-02-28T12:18:03Z</time>
      </trkpt>
      <trkpt lat="43.59401" lon="3.77598">
        <ele>55</ele>
        <time>2021-02-28T12:18:04Z</time>
      </trkpt>
      <trkpt lat="43.594" lon="3.77594">
        <ele>55</ele>
        <time>2021-02-28T12:18:05Z</time>
      </trkpt>
      <trkpt lat="43.59399" lon="3.77588">
        <ele>55</ele>
        <time>2021-02-28T12:18:06Z</time>
      </trkpt>
      <trkpt lat="43.59399" lon="3.77583">
        <ele>55</ele>
        <time>2021-02-28T12:18:07Z</time>
      </trkpt>
      <trkpt lat="43.594" lon="3.77578">
        <ele>55</ele>
        <time>2021-02-28T12:18:08Z</time>
      </trkpt>
      <trkpt lat="43.59401" lon="3.77574">
        <ele>55</ele>
        <time>2021-02-28T12:18:09Z</time>
      </trkpt>
      <trkpt lat="43.59403" lon="3.7757">
        <ele>55</ele>
        <time>2021-02-28T12:18:10Z</time>
      </trkpt>
      <trkpt lat="43.59406" lon="3.77566">
        <ele>55</ele>
        <time>2021-02-28T12:18:11Z</time>
      </trkpt>
      <trkpt lat="43.59408" lon="3.77562">
        <ele>55</ele>
        <time>2021-02-28T12:18:12Z</time>
      </trkpt>
      <trkpt lat="43.59411" lon="3.77558">
        <ele>56</ele>
        <time>2021-02-28T12:18:13Z</time>
      </trkpt>
      <trkpt lat="43.59414" lon="3.77555">
        <ele>56</ele>
        <time>2021-02-28T12:18:14Z</time>
      </trkpt>
      <trkpt lat="43.59417" lon="3.77551">
        <ele>56</ele>
        <time>2021-02-28T12:18:15Z</time>
      </trkpt>
      <trkpt lat="43.5942" lon="3.77548">
        <ele>56</ele>
        <time>2021-02-28T12:18:16Z</time>
      </trkpt>
      <trkpt lat="43.59423" lon="3.77544">
        <ele>56</ele>
        <time>2021-02-28T12:18:17Z</time>
      </trkpt>
      <trkpt lat="43.59426" lon="3.77541">
        <ele>56</ele>
        <time>2021-02-28T12:18:18Z</time>
      </trkpt>
      <trkpt lat="43.59429" lon="3.77538">
        <ele>56</ele>
        <time>2021-02-28T12:18:19Z</time>
      </trkpt>
      <trkpt lat="43.59432" lon="3.77535">
        <ele>56</ele>
        <time>2021-02-28T12:18:20Z</time>
      </trkpt>
      <trkpt lat="43.59434" lon="3.77533">
        <ele>56</ele>
        <time>2021-02-28T12:18:21Z</time>
      </trkpt>
      <trkpt lat="43.59437" lon="3.7753">
        <ele>56</ele>
        <time>2021-02-28T12:18:22Z</time>
      </trkpt>
      <trkpt lat="43.59439" lon="3.77526">
        <ele>56</ele>
        <time>2021-02-28T12:18:23Z</time>
      </trkpt>
      <trkpt lat="43.59442" lon="3.77523">
        <ele>56</ele>
        <time>2021-02-28T12:18:24Z</time>
      </trkpt>
      <trkpt lat="43.59445" lon="3.7752">
        <ele>56</ele>
        <time>2021-02-28T12:18:25Z</time>
      </trkpt>
      <trkpt lat="43.59447" lon="3.77517">
        <ele>56</ele>
        <time>2021-02-28T12:18:26Z</time>
      </trkpt>
      <trkpt lat="43.5945" lon="3.77513">
        <ele>56</ele>
        <time>2021-02-28T12:18:27Z</time>
      </trkpt>
      <trkpt lat="43.59453" lon="3.7751">
        <ele>56</ele>
        <time>2021-02-28T12:18:28Z</time>
      </trkpt>
      <trkpt lat="43.59455" lon="3.77507">
        <ele>56</ele>
        <time>2021-02-28T12:18:29Z</time>
      </trkpt>
      <trkpt lat="43.59458" lon="3.77504">
        <ele>56</ele>
        <time>2021-02-28T12:18:30Z</time>
      </trkpt>
      <trkpt lat="43.5946" lon="3.77501">
        <ele>56</ele>
        <time>2021-02-28T12:18:31Z</time>
      </trkpt>
      <trkpt lat="43.59461" lon="3.77497">
        <ele>56</ele>
        <time>2021-02-28T12:18:32Z</time>
      </trkpt>
      <trkpt lat="43.59463" lon="3.77493">
        <ele>56</ele>
        <time>2021-02-28T12:18:33Z</time>
      </trkpt>
      <trkpt lat="43.59464" lon="3.77489">
        <ele>56</ele>
        <time>2021-02-28T12:18:34Z</time>
      </trkpt>
      <trkpt lat="43.59465" lon="3.77484">
        <ele>56</ele>
        <time>2021-02-28T12:18:35Z</time>
      </trkpt>
      <trkpt lat="43.59466" lon="3.7748">
        <ele>56</ele>
        <time>2021-02-28T12:18:36Z</time>
      </trkpt>
      <trkpt lat="43.59466" lon="3.77476">
        <ele>56</ele>
        <time>2021-02-28T12:18:37Z</time>
      </trkpt>
      <trkpt lat="43.59466" lon="3.77471">
        <ele>56</ele>
        <time>2021-02-28T12:18:38Z</time>
      </trkpt>
      <trkpt lat="43.59466" lon="3.77467">
        <ele>56</ele>
        <time>2021-02-28T12:18:39Z</time>
      </trkpt>
      <trkpt lat="43.59465" lon="3.77462">
        <ele>56</ele>
        <time>2021-02-28T12:18:40Z</time>
      </trkpt>
      <trkpt lat="43.59465" lon="3.77458">
        <ele>56</ele>
        <time>2021-02-28T12:18:41Z</time>
      </trkpt>
      <trkpt lat="43.59464" lon="3.77453">
        <ele>56</ele>
        <time>2021-02-28T12:18:42Z</time>
      </trkpt>
      <trkpt lat="43.59463" lon="3.77449">
        <ele>57</ele>
        <time>2021-02-28T12:18:43Z</time>
      </trkpt>
      <trkpt lat="43.59463" lon="3.77445">
        <ele>57</ele>
        <time>2021-02-28T12:18:44Z</time>
      </trkpt>
      <trkpt lat="43.59462" lon="3.7744">
        <ele>57</ele>
        <time>2021-02-28T12:18:45Z</time>
      </trkpt>
      <trkpt lat="43.59462" lon="3.77436">
        <ele>57</ele>
        <time>2021-02-28T12:18:46Z</time>
      </trkpt>
      <trkpt lat="43.59462" lon="3.77432">
        <ele>57</ele>
        <time>2021-02-28T12:18:47Z</time>
      </trkpt>
      <trkpt lat="43.59463" lon="3.77428">
        <ele>57</ele>
        <time>2021-02-28T12:18:48Z</time>
      </trkpt>
      <trkpt lat="43.59463" lon="3.77423">
        <ele>57</ele>
        <time>2021-02-28T12:18:49Z</time>
      </trkpt>
      <trkpt lat="43.59465" lon="3.7742">
        <ele>57</ele>
        <time>2021-02-28T12:18:50Z</time>
      </trkpt>
      <trkpt lat="43.59466" lon="3.77416">
        <ele>57</ele>
        <time>2021-02-28T12:18:51Z</time>
      </trkpt>
      <trkpt lat="43.59468" lon="3.77413">
        <ele>57</ele>
        <time>2021-02-28T12:18:52Z</time>
      </trkpt>
      <trkpt lat="43.5947" lon="3.7741">
        <ele>58</ele>
        <time>2021-02-28T12:18:53Z</time>
      </trkpt>
      <trkpt lat="43.59472" lon="3.77407">
        <ele>58</ele>
        <time>2021-02-28T12:18:54Z</time>
      </trkpt>
      <trkpt lat="43.59474" lon="3.77404">
        <ele>58</ele>
        <time>2021-02-28T12:18:55Z</time>
      </trkpt>
      <trkpt lat="43.59476" lon="3.77401">
        <ele>58</ele>
        <time>2021-02-28T12:18:56Z</time>
      </trkpt>
      <trkpt lat="43.59478" lon="3.77398">
        <ele>58</ele>
        <time>2021-02-28T12:18:57Z</time>
      </trkpt>
      <trkpt lat="43.5948" lon="3.77395">
        <ele>58</ele>
        <time>2021-02-28T12:18:58Z</time>
      </trkpt>
      <trkpt lat="43.59481" lon="3.77391">
        <ele>58</ele>
        <time>2021-02-28T12:18:59Z</time>
      </trkpt>
      <trkpt lat="43.59483" lon="3.77388">
        <ele>58</ele>
        <time>2021-02-28T12:19:00Z</time>
      </trkpt>
      <trkpt lat="43.59485" lon="3.77385">
        <ele>58</ele>
        <time>2021-02-28T12:19:01Z</time>
      </trkpt>
      <trkpt lat="43.59487" lon="3.77382">
        <ele>58</ele>
        <time>2021-02-28T12:19:02Z</time>
      </trkpt>
      <trkpt lat="43.59489" lon="3.77378">
        <ele>59</ele>
        <time>2021-02-28T12:19:03Z</time>
      </trkpt>
      <trkpt lat="43.59491" lon="3.77375">
        <ele>59</ele>
        <time>2021-02-28T12:19:04Z</time>
      </trkpt>
      <trkpt lat="43.59493" lon="3.77372">
        <ele>59</ele>
        <time>2021-02-28T12:19:05Z</time>
      </trkpt>
      <trkpt lat="43.59495" lon="3.77368">
        <ele>59</ele>
        <time>2021-02-28T12:19:06Z</time>
      </trkpt>
      <trkpt lat="43.59497" lon="3.77365">
        <ele>59</ele>
        <time>2021-02-28T12:19:07Z</time>
      </trkpt>
      <trkpt lat="43.59499" lon="3.77362">
        <ele>59</ele>
        <time>2021-02-28T12:19:08Z</time>
      </trkpt>
      <trkpt lat="43.59501" lon="3.7736">
        <ele>59</ele>
        <time>2021-02-28T12:19:09Z</time>
      </trkpt>
      <trkpt lat="43.59504" lon="3.77357">
        <ele>59</ele>
        <time>2021-02-28T12:19:10Z</time>
      </trkpt>
      <trkpt lat="43.59507" lon="3.77355">
        <ele>59</ele>
        <time>2021-02-28T12:19:11Z</time>
      </trkpt>
      <trkpt lat="43.5951" lon="3.77353">
        <ele>59</ele>
        <time>2021-02-28T12:19:12Z</time>
      </trkpt>
      <trkpt lat="43.59513" lon="3.77351">
        <ele>59</ele>
        <time>2021-02-28T12:19:13Z</time>
      </trkpt>
      <trkpt lat="43.59517" lon="3.7735">
        <ele>59</ele>
        <time>2021-02-28T12:19:14Z</time>
      </trkpt>
      <trkpt lat="43.59521" lon="3.77348">
        <ele>59</ele>
        <time>2021-02-28T12:19:15Z</time>
      </trkpt>
      <trkpt lat="43.59524" lon="3.77347">
        <ele>59</ele>
        <time>2021-02-28T12:19:16Z</time>
      </trkpt>
      <trkpt lat="43.59528" lon="3.77345">
        <ele>59</ele>
        <time>2021-02-28T12:19:17Z</time>
      </trkpt>
      <trkpt lat="43.59531" lon="3.77343">
        <ele>59</ele>
        <time>2021-02-28T12:19:18Z</time>
      </trkpt>
      <trkpt lat="43.59538" lon="3.7734">
        <ele>59</ele>
        <time>2021-02-28T12:19:20Z</time>
      </trkpt>
      <trkpt lat="43.59541" lon="3.77338">
        <ele>59</ele>
        <time>2021-02-28T12:19:21Z</time>
      </trkpt>
      <trkpt lat="43.59545" lon="3.77335">
        <ele>59</ele>
        <time>2021-02-28T12:19:22Z</time>
      </trkpt>
      <trkpt lat="43.59548" lon="3.77333">
        <ele>60</ele>
        <time>2021-02-28T12:19:23Z</time>
      </trkpt>
      <trkpt lat="43.59551" lon="3.7733">
        <ele>60</ele>
        <time>2021-02-28T12:19:24Z</time>
      </trkpt>
      <trkpt lat="43.59554" lon="3.77326">
        <ele>60</ele>
        <time>2021-02-28T12:19:25Z</time>
      </trkpt>
      <trkpt lat="43.59557" lon="3.77323">
        <ele>60</ele>
        <time>2021-02-28T12:19:26Z</time>
      </trkpt>
      <trkpt lat="43.5956" lon="3.7732">
        <ele>60</ele>
        <time>2021-02-28T12:19:27Z</time>
      </trkpt>
      <trkpt lat="43.59563" lon="3.77317">
        <ele>60</ele>
        <time>2021-02-28T12:19:28Z</time>
      </trkpt>
      <trkpt lat="43.59566" lon="3.77314">
        <ele>60</ele>
        <time>2021-02-28T12:19:29Z</time>
      </trkpt>
      <trkpt lat="43.59569" lon="3.77311">
        <ele>60</ele>
        <time>2021-02-28T12:19:30Z</time>
      </trkpt>
      <trkpt lat="43.59572" lon="3.77308">
        <ele>60</ele>
        <time>2021-02-28T12:19:31Z</time>
      </trkpt>
      <trkpt lat="43.59575" lon="3.77304">
        <ele>60</ele>
        <time>2021-02-28T12:19:32Z</time>
      </trkpt>
      <trkpt lat="43.59578" lon="3.77301">
        <ele>60</ele>
        <time>2021-02-28T12:19:33Z</time>
      </trkpt>
      <trkpt lat="43.59581" lon="3.77298">
        <ele>60</ele>
        <time>2021-02-28T12:19:34Z</time>
      </trkpt>
      <trkpt lat="43.59584" lon="3.77295">
        <ele>60</ele>
        <time>2021-02-28T12:19:35Z</time>
      </trkpt>
      <trkpt lat="43.59587" lon="3.77292">
        <ele>60</ele>
        <time>2021-02-28T12:19:36Z</time>
      </trkpt>
      <trkpt lat="43.59591" lon="3.77289">
        <ele>60</ele>
        <time>2021-02-28T12:19:37Z</time>
      </trkpt>
      <trkpt lat="43.59594" lon="3.77286">
        <ele>60</ele>
        <time>2021-02-28T12:19:38Z</time>
      </trkpt>
      <trkpt lat="43.59597" lon="3.77283">
        <ele>60</ele>
        <time>2021-02-28T12:19:39Z</time>
      </trkpt>
      <trkpt lat="43.596" lon="3.77281">
        <ele>60</ele>
        <time>2021-02-28T12:19:40Z</time>
      </trkpt>
      <trkpt lat="43.59604" lon="3.77278">
        <ele>60</ele>
        <time>2021-02-28T12:19:41Z</time>
      </trkpt>
      <trkpt lat="43.59607" lon="3.77275">
        <ele>60</ele>
        <time>2021-02-28T12:19:42Z</time>
      </trkpt>
      <trkpt lat="43.5961" lon="3.77273">
        <ele>60</ele>
        <time>2021-02-28T12:19:43Z</time>
      </trkpt>
      <trkpt lat="43.59614" lon="3.7727">
        <ele>60</ele>
        <time>2021-02-28T12:19:44Z</time>
      </trkpt>
      <trkpt lat="43.59617" lon="3.77267">
        <ele>60</ele>
        <time>2021-02-28T12:19:45Z</time>
      </trkpt>
      <trkpt lat="43.5962" lon="3.77265">
        <ele>60</ele>
        <time>2021-02-28T12:19:46Z</time>
      </trkpt>
      <trkpt lat="43.59623" lon="3.77262">
        <ele>60</ele>
        <time>2021-02-28T12:19:47Z</time>
      </trkpt>
      <trkpt lat="43.59627" lon="3.7726">
        <ele>60</ele>
        <time>2021-02-28T12:19:48Z</time>
      </trkpt>
      <trkpt lat="43.5963" lon="3.77257">
        <ele>60</ele>
        <time>2021-02-28T12:19:49Z</time>
      </trkpt>
      <trkpt lat="43.59633" lon="3.77255">
        <ele>60</ele>
        <time>2021-02-28T12:19:50Z</time>
      </trkpt>
      <trkpt lat="43.59636" lon="3.77252">
        <ele>60</ele>
        <time>2021-02-28T12:19:51Z</time>
      </trkpt>
      <trkpt lat="43.5964" lon="3.7725">
        <ele>60</ele>
        <time>2021-02-28T12:19:52Z</time>
      </trkpt>
      <trkpt lat="43.59643" lon="3.77248">
        <ele>61</ele>
        <time>2021-02-28T12:19:53Z</time>
      </trkpt>
      <trkpt lat="43.59646" lon="3.77246">
        <ele>61</ele>
        <time>2021-02-28T12:19:54Z</time>
      </trkpt>
      <trkpt lat="43.5965" lon="3.77244">
        <ele>61</ele>
        <time>2021-02-28T12:19:55Z</time>
      </trkpt>
      <trkpt lat="43.59653" lon="3.77242">
        <ele>61</ele>
        <time>2021-02-28T12:19:56Z</time>
      </trkpt>
      <trkpt lat="43.59656" lon="3.7724">
        <ele>61</ele>
        <time>2021-02-28T12:19:57Z</time>
      </trkpt>
      <trkpt lat="43.59659" lon="3.77238">
        <ele>61</ele>
        <time>2021-02-28T12:19:58Z</time>
      </trkpt>
      <trkpt lat="43.59662" lon="3.77236">
        <ele>61</ele>
        <time>2021-02-28T12:19:59Z</time>
      </trkpt>
      <trkpt lat="43.59665" lon="3.77233">
        <ele>61</ele>
        <time>2021-02-28T12:20:00Z</time>
      </trkpt>
      <trkpt lat="43.59668" lon="3.77231">
        <ele>61</ele>
        <time>2021-02-28T12:20:01Z</time>
      </trkpt>
      <trkpt lat="43.59671" lon="3.77229">
        <ele>61</ele>
        <time>2021-02-28T12:20:02Z</time>
      </trkpt>
      <trkpt lat="43.59674" lon="3.77227">
        <ele>61</ele>
        <time>2021-02-28T12:20:03Z</time>
      </trkpt>
      <trkpt lat="43.59677" lon="3.77224">
        <ele>61</ele>
        <time>2021-02-28T12:20:04Z</time>
      </trkpt>
      <trkpt lat="43.59679" lon="3.77222">
        <ele>61</ele>
        <time>2021-02-28T12:20:05Z</time>
      </trkpt>
      <trkpt lat="43.59682" lon="3.77219">
        <ele>61</ele>
        <time>2021-02-28T12:20:06Z</time>
      </trkpt>
      <trkpt lat="43.59685" lon="3.77217">
        <ele>61</ele>
        <time>2021-02-28T12:20:07Z</time>
      </trkpt>
      <trkpt lat="43.59687" lon="3.77214">
        <ele>61</ele>
        <time>2021-02-28T12:20:08Z</time>
      </trkpt>
      <trkpt lat="43.5969" lon="3.77211">
        <ele>61</ele>
        <time>2021-02-28T12:20:09Z</time>
      </trkpt>
      <trkpt lat="43.59692" lon="3.77209">
        <ele>61</ele>
        <time>2021-02-28T12:20:10Z</time>
      </trkpt>
      <trkpt lat="43.59695" lon="3.77206">
        <ele>61</ele>
        <time>2021-02-28T12:20:11Z</time>
      </trkpt>
      <trkpt lat="43.59698" lon="3.77203">
        <ele>61</ele>
        <time>2021-02-28T12:20:12Z</time>
      </trkpt>
      <trkpt lat="43.59701" lon="3.77201">
        <ele>62</ele>
        <time>2021-02-28T12:20:13Z</time>
      </trkpt>
      <trkpt lat="43.59704" lon="3.77198">
        <ele>62</ele>
        <time>2021-02-28T12:20:14Z</time>
      </trkpt>
      <trkpt lat="43.59706" lon="3.77196">
        <ele>62</ele>
        <time>2021-02-28T12:20:15Z</time>
      </trkpt>
      <trkpt lat="43.59709" lon="3.77193">
        <ele>62</ele>
        <time>2021-02-28T12:20:16Z</time>
      </trkpt>
      <trkpt lat="43.59712" lon="3.77191">
        <ele>62</ele>
        <time>2021-02-28T12:20:17Z</time>
      </trkpt>
      <trkpt lat="43.59714" lon="3.77188">
        <ele>62</ele>
        <time>2021-02-28T12:20:18Z</time>
      </trkpt>
      <trkpt lat="43.59716" lon="3.77185">
        <ele>62</ele>
        <time>2021-02-28T12:20:19Z</time>
      </trkpt>
      <trkpt lat="43.59718" lon="3.77183">
        <ele>62</ele>
        <time>2021-02-28T12:20:20Z</time>
      </trkpt>
      <trkpt lat="43.5972" lon="3.77181">
        <ele>62</ele>
        <time>2021-02-28T12:20:21Z</time>
      </trkpt>
      <trkpt lat="43.59721" lon="3.77179">
        <ele>62</ele>
        <time>2021-02-28T12:20:22Z</time>
      </trkpt>
      <trkpt lat="43.59722" lon="3.77174">
        <ele>62</ele>
        <time>2021-02-28T12:20:24Z</time>
      </trkpt>
      <trkpt lat="43.59722" lon="3.77171">
        <ele>62</ele>
        <time>2021-02-28T12:20:26Z</time>
      </trkpt>
      <trkpt lat="43.5972" lon="3.77169">
        <ele>62</ele>
        <time>2021-02-28T12:20:28Z</time>
      </trkpt>
      <trkpt lat="43.5972" lon="3.77169">
        <ele>63</ele>
        <time>2021-02-28T12:20:34Z</time>
      </trkpt>
      <trkpt lat="43.59714" lon="3.77165">
        <ele>62</ele>
        <time>2021-02-28T12:49:04Z</time>
      </trkpt>
      <trkpt lat="43.5971" lon="3.77163">
        <ele>62</ele>
        <time>2021-02-28T12:49:05Z</time>
      </trkpt>
      <trkpt lat="43.59708" lon="3.77162">
        <ele>62</ele>
        <time>2021-02-28T12:49:06Z</time>
      </trkpt>
      <trkpt lat="43.59706" lon="3.77161">
        <ele>62</ele>
        <time>2021-02-28T12:49:07Z</time>
      </trkpt>
      <trkpt lat="43.59704" lon="3.7716">
        <ele>62</ele>
        <time>2021-02-28T12:49:08Z</time>
      </trkpt>
      <trkpt lat="43.59701" lon="3.77158">
        <ele>62</ele>
        <time>2021-02-28T12:49:09Z</time>
      </trkpt>
      <trkpt lat="43.59699" lon="3.77157">
        <ele>62</ele>
        <time>2021-02-28T12:49:10Z</time>
      </trkpt>
      <trkpt lat="43.59696" lon="3.77156">
        <ele>62</ele>
        <time>2021-02-28T12:49:11Z</time>
      </trkpt>
      <trkpt lat="43.59694" lon="3.77154">
        <ele>62</ele>
        <time>2021-02-28T12:49:12Z</time>
      </trkpt>
      <trkpt lat="43.59691" lon="3.77152">
        <ele>63</ele>
        <time>2021-02-28T12:49:13Z</time>
      </trkpt>
      <trkpt lat="43.59689" lon="3.7715">
        <ele>63</ele>
        <time>2021-02-28T12:49:14Z</time>
      </trkpt>
      <trkpt lat="43.59686" lon="3.77149">
        <ele>63</ele>
        <time>2021-02-28T12:49:15Z</time>
      </trkpt>
      <trkpt lat="43.59684" lon="3.77148">
        <ele>63</ele>
        <time>2021-02-28T12:49:16Z</time>
      </trkpt>
      <trkpt lat="43.59681" lon="3.77146">
        <ele>63</ele>
        <time>2021-02-28T12:49:17Z</time>
      </trkpt>
      <trkpt lat="43.59679" lon="3.77145">
        <ele>63</ele>
        <time>2021-02-28T12:49:18Z</time>
      </trkpt>
      <trkpt lat="43.59676" lon="3.77143">
        <ele>63</ele>
        <time>2021-02-28T12:49:19Z</time>
      </trkpt>
      <trkpt lat="43.59673" lon="3.77142">
        <ele>63</ele>
        <time>2021-02-28T12:49:20Z</time>
      </trkpt>
      <trkpt lat="43.5967" lon="3.7714">
        <ele>63</ele>
        <time>2021-02-28T12:49:21Z</time>
      </trkpt>
      <trkpt lat="43.59667" lon="3.77138">
        <ele>63</ele>
        <time>2021-02-28T12:49:22Z</time>
      </trkpt>
      <trkpt lat="43.59664" lon="3.77137">
        <ele>64</ele>
        <time>2021-02-28T12:49:23Z</time>
      </trkpt>
      <trkpt lat="43.59662" lon="3.77136">
        <ele>64</ele>
        <time>2021-02-28T12:49:24Z</time>
      </trkpt>
      <trkpt lat="43.59659" lon="3.77134">
        <ele>64</ele>
        <time>2021-02-28T12:49:25Z</time>
      </trkpt>
      <trkpt lat="43.59656" lon="3.77133">
        <ele>64</ele>
        <time>2021-02-28T12:49:26Z</time>
      </trkpt>
      <trkpt lat="43.59653" lon="3.77131">
        <ele>64</ele>
        <time>2021-02-28T12:49:27Z</time>
      </trkpt>
      <trkpt lat="43.59651" lon="3.77129">
        <ele>64</ele>
        <time>2021-02-28T12:49:28Z</time>
      </trkpt>
      <trkpt lat="43.59648" lon="3.77128">
        <ele>64</ele>
        <time>2021-02-28T12:49:29Z</time>
      </trkpt>
      <trkpt lat="43.59646" lon="3.77126">
        <ele>64</ele>
        <time>2021-02-28T12:49:30Z</time>
      </trkpt>
      <trkpt lat="43.59643" lon="3.77125">
        <ele>64</ele>
        <time>2021-02-28T12:49:31Z</time>
      </trkpt>
      <trkpt lat="43.5964" lon="3.77123">
        <ele>64</ele>
        <time>2021-02-28T12:49:32Z</time>
      </trkpt>
      <trkpt lat="43.59638" lon="3.77122">
        <ele>65</ele>
        <time>2021-02-28T12:49:33Z</time>
      </trkpt>
      <trkpt lat="43.59635" lon="3.7712">
        <ele>65</ele>
        <time>2021-02-28T12:49:34Z</time>
      </trkpt>
      <trkpt lat="43.59632" lon="3.77118">
        <ele>65</ele>
        <time>2021-02-28T12:49:35Z</time>
      </trkpt>
      <trkpt lat="43.59629" lon="3.77117">
        <ele>65</ele>
        <time>2021-02-28T12:49:36Z</time>
      </trkpt>
      <trkpt lat="43.59627" lon="3.77116">
        <ele>65</ele>
        <time>2021-02-28T12:49:37Z</time>
      </trkpt>
      <trkpt lat="43.59624" lon="3.77114">
        <ele>65</ele>
        <time>2021-02-28T12:49:38Z</time>
      </trkpt>
      <trkpt lat="43.59621" lon="3.77113">
        <ele>65</ele>
        <time>2021-02-28T12:49:39Z</time>
      </trkpt>
      <trkpt lat="43.59618" lon="3.77111">
        <ele>65</ele>
        <time>2021-02-28T12:49:40Z</time>
      </trkpt>
      <trkpt lat="43.59615" lon="3.7711">
        <ele>65</ele>
        <time>2021-02-28T12:49:41Z</time>
      </trkpt>
      <trkpt lat="43.59612" lon="3.77108">
        <ele>65</ele>
        <time>2021-02-28T12:49:42Z</time>
      </trkpt>
      <trkpt lat="43.59609" lon="3.77106">
        <ele>65</ele>
        <time>2021-02-28T12:49:43Z</time>
      </trkpt>
      <trkpt lat="43.59606" lon="3.77105">
        <ele>65</ele>
        <time>2021-02-28T12:49:44Z</time>
      </trkpt>
      <trkpt lat="43.59603" lon="3.77103">
        <ele>65</ele>
        <time>2021-02-28T12:49:45Z</time>
      </trkpt>
      <trkpt lat="43.596" lon="3.77101">
        <ele>65</ele>
        <time>2021-02-28T12:49:46Z</time>
      </trkpt>
      <trkpt lat="43.59597" lon="3.77099">
        <ele>65</ele>
        <time>2021-02-28T12:49:47Z</time>
      </trkpt>
      <trkpt lat="43.59594" lon="3.77098">
        <ele>65</ele>
        <time>2021-02-28T12:49:48Z</time>
      </trkpt>
      <trkpt lat="43.59591" lon="3.77096">
        <ele>65</ele>
        <time>2021-02-28T12:49:49Z</time>
      </trkpt>
      <trkpt lat="43.59587" lon="3.77094">
        <ele>65</ele>
        <time>2021-02-28T12:49:50Z</time>
      </trkpt>
      <trkpt lat="43.59584" lon="3.77092">
        <ele>65</ele>
        <time>2021-02-28T12:49:51Z</time>
      </trkpt>
      <trkpt lat="43.59581" lon="3.77091">
        <ele>65</ele>
        <time>2021-02-28T12:49:52Z</time>
      </trkpt>
      <trkpt lat="43.59578" lon="3.77089">
        <ele>66</ele>
        <time>2021-02-28T12:49:53Z</time>
      </trkpt>
      <trkpt lat="43.59575" lon="3.77088">
        <ele>66</ele>
        <time>2021-02-28T12:49:54Z</time>
      </trkpt>
      <trkpt lat="43.59572" lon="3.77086">
        <ele>66</ele>
        <time>2021-02-28T12:49:55Z</time>
      </trkpt>
      <trkpt lat="43.59569" lon="3.77085">
        <ele>66</ele>
        <time>2021-02-28T12:49:56Z</time>
      </trkpt>
      <trkpt lat="43.59565" lon="3.77083">
        <ele>66</ele>
        <time>2021-02-28T12:49:57Z</time>
      </trkpt>
      <trkpt lat="43.59562" lon="3.77082">
        <ele>66</ele>
        <time>2021-02-28T12:49:58Z</time>
      </trkpt>
      <trkpt lat="43.59559" lon="3.7708">
        <ele>66</ele>
        <time>2021-02-28T12:49:59Z</time>
      </trkpt>
      <trkpt lat="43.59556" lon="3.77078">
        <ele>66</ele>
        <time>2021-02-28T12:50:00Z</time>
      </trkpt>
      <trkpt lat="43.59553" lon="3.77077">
        <ele>66</ele>
        <time>2021-02-28T12:50:01Z</time>
      </trkpt>
      <trkpt lat="43.59547" lon="3.77074">
        <ele>66</ele>
        <time>2021-02-28T12:50:03Z</time>
      </trkpt>
      <trkpt lat="43.59544" lon="3.77073">
        <ele>66</ele>
        <time>2021-02-28T12:50:04Z</time>
      </trkpt>
      <trkpt lat="43.59541" lon="3.77071">
        <ele>66</ele>
        <time>2021-02-28T12:50:05Z</time>
      </trkpt>
      <trkpt lat="43.59538" lon="3.7707">
        <ele>66</ele>
        <time>2021-02-28T12:50:06Z</time>
      </trkpt>
      <trkpt lat="43.59535" lon="3.77068">
        <ele>66</ele>
        <time>2021-02-28T12:50:07Z</time>
      </trkpt>
      <trkpt lat="43.59532" lon="3.77067">
        <ele>66</ele>
        <time>2021-02-28T12:50:08Z</time>
      </trkpt>
      <trkpt lat="43.59529" lon="3.77066">
        <ele>66</ele>
        <time>2021-02-28T12:50:09Z</time>
      </trkpt>
      <trkpt lat="43.59526" lon="3.77065">
        <ele>66</ele>
        <time>2021-02-28T12:50:10Z</time>
      </trkpt>
      <trkpt lat="43.59523" lon="3.77064">
        <ele>66</ele>
        <time>2021-02-28T12:50:11Z</time>
      </trkpt>
      <trkpt lat="43.5952" lon="3.77062">
        <ele>66</ele>
        <time>2021-02-28T12:50:12Z</time>
      </trkpt>
      <trkpt lat="43.59517" lon="3.77061">
        <ele>67</ele>
        <time>2021-02-28T12:50:13Z</time>
      </trkpt>
      <trkpt lat="43.59514" lon="3.7706">
        <ele>67</ele>
        <time>2021-02-28T12:50:14Z</time>
      </trkpt>
      <trkpt lat="43.59511" lon="3.77059">
        <ele>67</ele>
        <time>2021-02-28T12:50:15Z</time>
      </trkpt>
      <trkpt lat="43.59508" lon="3.77058">
        <ele>67</ele>
        <time>2021-02-28T12:50:16Z</time>
      </trkpt>
      <trkpt lat="43.59505" lon="3.77057">
        <ele>67</ele>
        <time>2021-02-28T12:50:17Z</time>
      </trkpt>
      <trkpt lat="43.59502" lon="3.77055">
        <ele>67</ele>
        <time>2021-02-28T12:50:18Z</time>
      </trkpt>
      <trkpt lat="43.595" lon="3.77054">
        <ele>67</ele>
        <time>2021-02-28T12:50:19Z</time>
      </trkpt>
      <trkpt lat="43.59497" lon="3.77053">
        <ele>67</ele>
        <time>2021-02-28T12:50:20Z</time>
      </trkpt>
      <trkpt lat="43.59494" lon="3.77052">
        <ele>67</ele>
        <time>2021-02-28T12:50:21Z</time>
      </trkpt>
      <trkpt lat="43.59491" lon="3.7705">
        <ele>67</ele>
        <time>2021-02-28T12:50:22Z</time>
      </trkpt>
      <trkpt lat="43.59488" lon="3.77048">
        <ele>67</ele>
        <time>2021-02-28T12:50:23Z</time>
      </trkpt>
      <trkpt lat="43.59486" lon="3.77047">
        <ele>67</ele>
        <time>2021-02-28T12:50:24Z</time>
      </trkpt>
      <trkpt lat="43.59483" lon="3.77045">
        <ele>67</ele>
        <time>2021-02-28T12:50:25Z</time>
      </trkpt>
      <trkpt lat="43.5948" lon="3.77043">
        <ele>67</ele>
        <time>2021-02-28T12:50:26Z</time>
      </trkpt>
      <trkpt lat="43.59478" lon="3.77041">
        <ele>67</ele>
        <time>2021-02-28T12:50:27Z</time>
      </trkpt>
      <trkpt lat="43.59475" lon="3.77039">
        <ele>67</ele>
        <time>2021-02-28T12:50:28Z</time>
      </trkpt>
      <trkpt lat="43.59472" lon="3.77037">
        <ele>67</ele>
        <time>2021-02-28T12:50:29Z</time>
      </trkpt>
      <trkpt lat="43.5947" lon="3.77035">
        <ele>67</ele>
        <time>2021-02-28T12:50:30Z</time>
      </trkpt>
      <trkpt lat="43.59468" lon="3.77033">
        <ele>67</ele>
        <time>2021-02-28T12:50:31Z</time>
      </trkpt>
      <trkpt lat="43.59465" lon="3.77031">
        <ele>67</ele>
        <time>2021-02-28T12:50:32Z</time>
      </trkpt>
      <trkpt lat="43.59462" lon="3.77029">
        <ele>68</ele>
        <time>2021-02-28T12:50:33Z</time>
      </trkpt>
      <trkpt lat="43.5946" lon="3.77027">
        <ele>68</ele>
        <time>2021-02-28T12:50:34Z</time>
      </trkpt>
      <trkpt lat="43.59458" lon="3.77025">
        <ele>68</ele>
        <time>2021-02-28T12:50:35Z</time>
      </trkpt>
      <trkpt lat="43.59455" lon="3.77024">
        <ele>68</ele>
        <time>2021-02-28T12:50:36Z</time>
      </trkpt>
      <trkpt lat="43.59452" lon="3.77022">
        <ele>68</ele>
        <time>2021-02-28T12:50:37Z</time>
      </trkpt>
      <trkpt lat="43.5945" lon="3.7702">
        <ele>68</ele>
        <time>2021-02-28T12:50:38Z</time>
      </trkpt>
      <trkpt lat="43.59447" lon="3.77018">
        <ele>68</ele>
        <time>2021-02-28T12:50:39Z</time>
      </trkpt>
      <trkpt lat="43.59445" lon="3.77016">
        <ele>68</ele>
        <time>2021-02-28T12:50:40Z</time>
      </trkpt>
      <trkpt lat="43.59442" lon="3.77014">
        <ele>68</ele>
        <time>2021-02-28T12:50:41Z</time>
      </trkpt>
      <trkpt lat="43.59439" lon="3.77012">
        <ele>68</ele>
        <time>2021-02-28T12:50:42Z</time>
      </trkpt>
      <trkpt lat="43.59437" lon="3.77011">
        <ele>69</ele>
        <time>2021-02-28T12:50:43Z</time>
      </trkpt>
      <trkpt lat="43.59434" lon="3.77009">
        <ele>69</ele>
        <time>2021-02-28T12:50:44Z</time>
      </trkpt>
      <trkpt lat="43.59431" lon="3.77008">
        <ele>69</ele>
        <time>2021-02-28T12:50:45Z</time>
      </trkpt>
      <trkpt lat="43.59428" lon="3.77006">
        <ele>69</ele>
        <time>2021-02-28T12:50:46Z</time>
      </trkpt>
      <trkpt lat="43.59425" lon="3.77005">
        <ele>69</ele>
        <time>2021-02-28T12:50:47Z</time>
      </trkpt>
      <trkpt lat="43.59422" lon="3.77003">
        <ele>69</ele>
        <time>2021-02-28T12:50:48Z</time>
      </trkpt>
      <trkpt lat="43.59419" lon="3.77002">
        <ele>69</ele>
        <time>2021-02-28T12:50:49Z</time>
      </trkpt>
      <trkpt lat="43.59416" lon="3.77">
        <ele>69</ele>
        <time>2021-02-28T12:50:50Z</time>
      </trkpt>
      <trkpt lat="43.59412" lon="3.76999">
        <ele>69</ele>
        <time>2021-02-28T12:50:51Z</time>
      </trkpt>
      <trkpt lat="43.59409" lon="3.76998">
        <ele>69</ele>
        <time>2021-02-28T12:50:52Z</time>
      </trkpt>
      <trkpt lat="43.59406" lon="3.76996">
        <ele>69</ele>
        <time>2021-02-28T12:50:53Z</time>
      </trkpt>
      <trkpt lat="43.59402" lon="3.76995">
        <ele>69</ele>
        <time>2021-02-28T12:50:54Z</time>
      </trkpt>
      <trkpt lat="43.59399" lon="3.76993">
        <ele>69</ele>
        <time>2021-02-28T12:50:55Z</time>
      </trkpt>
      <trkpt lat="43.59396" lon="3.76991">
        <ele>69</ele>
        <time>2021-02-28T12:50:56Z</time>
      </trkpt>
      <trkpt lat="43.59392" lon="3.7699">
        <ele>69</ele>
        <time>2021-02-28T12:50:57Z</time>
      </trkpt>
      <trkpt lat="43.59388" lon="3.76988">
        <ele>69</ele>
        <time>2021-02-28T12:50:58Z</time>
      </trkpt>
      <trkpt lat="43.59384" lon="3.76986">
        <ele>69</ele>
        <time>2021-02-28T12:50:59Z</time>
      </trkpt>
      <trkpt lat="43.59381" lon="3.76984">
        <ele>69</ele>
        <time>2021-02-28T12:51:00Z</time>
      </trkpt>
      <trkpt lat="43.59377" lon="3.76982">
        <ele>69</ele>
        <time>2021-02-28T12:51:01Z</time>
      </trkpt>
      <trkpt lat="43.59374" lon="3.7698">
        <ele>69</ele>
        <time>2021-02-28T12:51:02Z</time>
      </trkpt>
      <trkpt lat="43.5937" lon="3.76977">
        <ele>69</ele>
        <time>2021-02-28T12:51:03Z</time>
      </trkpt>
      <trkpt lat="43.59366" lon="3.76975">
        <ele>69</ele>
        <time>2021-02-28T12:51:04Z</time>
      </trkpt>
      <trkpt lat="43.59363" lon="3.76973">
        <ele>69</ele>
        <time>2021-02-28T12:51:05Z</time>
      </trkpt>
      <trkpt lat="43.5936" lon="3.7697">
        <ele>69</ele>
        <time>2021-02-28T12:51:06Z</time>
      </trkpt>
      <trkpt lat="43.59357" lon="3.76967">
        <ele>69</ele>
        <time>2021-02-28T12:51:07Z</time>
      </trkpt>
      <trkpt lat="43.59354" lon="3.76965">
        <ele>69</ele>
        <time>2021-02-28T12:51:08Z</time>
      </trkpt>
      <trkpt lat="43.59351" lon="3.76962">
        <ele>69</ele>
        <time>2021-02-28T12:51:09Z</time>
      </trkpt>
      <trkpt lat="43.59348" lon="3.76959">
        <ele>69</ele>
        <time>2021-02-28T12:51:10Z</time>
      </trkpt>
      <trkpt lat="43.59345" lon="3.76955">
        <ele>69</ele>
        <time>2021-02-28T12:51:11Z</time>
      </trkpt>
      <trkpt lat="43.59342" lon="3.76952">
        <ele>69</ele>
        <time>2021-02-28T12:51:12Z</time>
      </trkpt>
      <trkpt lat="43.59339" lon="3.76949">
        <ele>69</ele>
        <time>2021-02-28T12:51:13Z</time>
      </trkpt>
      <trkpt lat="43.59336" lon="3.76945">
        <ele>69</ele>
        <time>2021-02-28T12:51:14Z</time>
      </trkpt>
      <trkpt lat="43.59332" lon="3.76942">
        <ele>69</ele>
        <time>2021-02-28T12:51:15Z</time>
      </trkpt>
      <trkpt lat="43.59329" lon="3.76938">
        <ele>69</ele>
        <time>2021-02-28T12:51:16Z</time>
      </trkpt>
      <trkpt lat="43.59325" lon="3.76935">
        <ele>69</ele>
        <time>2021-02-28T12:51:17Z</time>
      </trkpt>
      <trkpt lat="43.59322" lon="3.76932">
        <ele>69</ele>
        <time>2021-02-28T12:51:18Z</time>
      </trkpt>
      <trkpt lat="43.59319" lon="3.76929">
        <ele>69</ele>
        <time>2021-02-28T12:51:19Z</time>
      </trkpt>
      <trkpt lat="43.59315" lon="3.76925">
        <ele>69</ele>
        <time>2021-02-28T12:51:20Z</time>
      </trkpt>
      <trkpt lat="43.59312" lon="3.76922">
        <ele>69</ele>
        <time>2021-02-28T12:51:21Z</time>
      </trkpt>
      <trkpt lat="43.59308" lon="3.7692">
        <ele>69</ele>
        <time>2021-02-28T12:51:22Z</time>
      </trkpt>
      <trkpt lat="43.59305" lon="3.76918">
        <ele>68</ele>
        <time>2021-02-28T12:51:23Z</time>
      </trkpt>
      <trkpt lat="43.59301" lon="3.76916">
        <ele>68</ele>
        <time>2021-02-28T12:51:24Z</time>
      </trkpt>
      <trkpt lat="43.59297" lon="3.76914">
        <ele>68</ele>
        <time>2021-02-28T12:51:25Z</time>
      </trkpt>
      <trkpt lat="43.59292" lon="3.76913">
        <ele>68</ele>
        <time>2021-02-28T12:51:26Z</time>
      </trkpt>
      <trkpt lat="43.59288" lon="3.76912">
        <ele>68</ele>
        <time>2021-02-28T12:51:27Z</time>
      </trkpt>
      <trkpt lat="43.59284" lon="3.7691">
        <ele>68</ele>
        <time>2021-02-28T12:51:28Z</time>
      </trkpt>
      <trkpt lat="43.5928" lon="3.76909">
        <ele>68</ele>
        <time>2021-02-28T12:51:29Z</time>
      </trkpt>
      <trkpt lat="43.59275" lon="3.76907">
        <ele>68</ele>
        <time>2021-02-28T12:51:30Z</time>
      </trkpt>
      <trkpt lat="43.59271" lon="3.76906">
        <ele>68</ele>
        <time>2021-02-28T12:51:31Z</time>
      </trkpt>
      <trkpt lat="43.59266" lon="3.76904">
        <ele>68</ele>
        <time>2021-02-28T12:51:32Z</time>
      </trkpt>
      <trkpt lat="43.59261" lon="3.76901">
        <ele>66</ele>
        <time>2021-02-28T12:51:33Z</time>
      </trkpt>
      <trkpt lat="43.59256" lon="3.76898">
        <ele>66</ele>
        <time>2021-02-28T12:51:34Z</time>
      </trkpt>
      <trkpt lat="43.59252" lon="3.76896">
        <ele>66</ele>
        <time>2021-02-28T12:51:35Z</time>
      </trkpt>
      <trkpt lat="43.59247" lon="3.76892">
        <ele>66</ele>
        <time>2021-02-28T12:51:36Z</time>
      </trkpt>
      <trkpt lat="43.59243" lon="3.76889">
        <ele>66</ele>
        <time>2021-02-28T12:51:37Z</time>
      </trkpt>
      <trkpt lat="43.59238" lon="3.76886">
        <ele>66</ele>
        <time>2021-02-28T12:51:38Z</time>
      </trkpt>
      <trkpt lat="43.59233" lon="3.76884">
        <ele>66</ele>
        <time>2021-02-28T12:51:39Z</time>
      </trkpt>
      <trkpt lat="43.59229" lon="3.76882">
        <ele>66</ele>
        <time>2021-02-28T12:51:40Z</time>
      </trkpt>
      <trkpt lat="43.59224" lon="3.7688">
        <ele>66</ele>
        <time>2021-02-28T12:51:41Z</time>
      </trkpt>
      <trkpt lat="43.59219" lon="3.76878">
        <ele>66</ele>
        <time>2021-02-28T12:51:42Z</time>
      </trkpt>
      <trkpt lat="43.59214" lon="3.76876">
        <ele>65</ele>
        <time>2021-02-28T12:51:43Z</time>
      </trkpt>
      <trkpt lat="43.59209" lon="3.76873">
        <ele>65</ele>
        <time>2021-02-28T12:51:44Z</time>
      </trkpt>
      <trkpt lat="43.59205" lon="3.76869">
        <ele>65</ele>
        <time>2021-02-28T12:51:45Z</time>
      </trkpt>
      <trkpt lat="43.592" lon="3.76865">
        <ele>65</ele>
        <time>2021-02-28T12:51:46Z</time>
      </trkpt>
      <trkpt lat="43.59196" lon="3.76861">
        <ele>65</ele>
        <time>2021-02-28T12:51:47Z</time>
      </trkpt>
      <trkpt lat="43.59192" lon="3.76855">
        <ele>65</ele>
        <time>2021-02-28T12:51:48Z</time>
      </trkpt>
      <trkpt lat="43.59189" lon="3.76848">
        <ele>65</ele>
        <time>2021-02-28T12:51:49Z</time>
      </trkpt>
      <trkpt lat="43.59187" lon="3.76841">
        <ele>65</ele>
        <time>2021-02-28T12:51:50Z</time>
      </trkpt>
      <trkpt lat="43.59185" lon="3.76835">
        <ele>65</ele>
        <time>2021-02-28T12:51:51Z</time>
      </trkpt>
      <trkpt lat="43.59183" lon="3.7683">
        <ele>65</ele>
        <time>2021-02-28T12:51:52Z</time>
      </trkpt>
      <trkpt lat="43.59182" lon="3.76826">
        <ele>63</ele>
        <time>2021-02-28T12:51:53Z</time>
      </trkpt>
      <trkpt lat="43.5918" lon="3.76823">
        <ele>63</ele>
        <time>2021-02-28T12:51:54Z</time>
      </trkpt>
      <trkpt lat="43.5918" lon="3.76819">
        <ele>63</ele>
        <time>2021-02-28T12:51:55Z</time>
      </trkpt>
      <trkpt lat="43.59179" lon="3.76816">
        <ele>63</ele>
        <time>2021-02-28T12:51:56Z</time>
      </trkpt>
      <trkpt lat="43.59179" lon="3.76812">
        <ele>63</ele>
        <time>2021-02-28T12:51:57Z</time>
      </trkpt>
      <trkpt lat="43.59178" lon="3.76809">
        <ele>63</ele>
        <time>2021-02-28T12:51:58Z</time>
      </trkpt>
      <trkpt lat="43.59177" lon="3.76806">
        <ele>63</ele>
        <time>2021-02-28T12:51:59Z</time>
      </trkpt>
      <trkpt lat="43.59174" lon="3.76802">
        <ele>63</ele>
        <time>2021-02-28T12:52:00Z</time>
      </trkpt>
      <trkpt lat="43.59171" lon="3.76798">
        <ele>63</ele>
        <time>2021-02-28T12:52:01Z</time>
      </trkpt>
      <trkpt lat="43.59168" lon="3.76794">
        <ele>63</ele>
        <time>2021-02-28T12:52:02Z</time>
      </trkpt>
      <trkpt lat="43.59166" lon="3.76789">
        <ele>62</ele>
        <time>2021-02-28T12:52:03Z</time>
      </trkpt>
      <trkpt lat="43.59163" lon="3.76784">
        <ele>62</ele>
        <time>2021-02-28T12:52:04Z</time>
      </trkpt>
      <trkpt lat="43.59159" lon="3.7678">
        <ele>62</ele>
        <time>2021-02-28T12:52:05Z</time>
      </trkpt>
      <trkpt lat="43.59156" lon="3.76775">
        <ele>62</ele>
        <time>2021-02-28T12:52:06Z</time>
      </trkpt>
      <trkpt lat="43.59152" lon="3.7677">
        <ele>62</ele>
        <time>2021-02-28T12:52:07Z</time>
      </trkpt>
      <trkpt lat="43.59148" lon="3.76765">
        <ele>62</ele>
        <time>2021-02-28T12:52:08Z</time>
      </trkpt>
      <trkpt lat="43.59145" lon="3.76761">
        <ele>62</ele>
        <time>2021-02-28T12:52:09Z</time>
      </trkpt>
      <trkpt lat="43.59142" lon="3.76759">
        <ele>62</ele>
        <time>2021-02-28T12:52:10Z</time>
      </trkpt>
      <trkpt lat="43.5914" lon="3.76757">
        <ele>62</ele>
        <time>2021-02-28T12:52:11Z</time>
      </trkpt>
      <trkpt lat="43.59137" lon="3.76755">
        <ele>62</ele>
        <time>2021-02-28T12:52:12Z</time>
      </trkpt>
      <trkpt lat="43.59133" lon="3.76753">
        <ele>60</ele>
        <time>2021-02-28T12:52:13Z</time>
      </trkpt>
      <trkpt lat="43.5913" lon="3.7675">
        <ele>60</ele>
        <time>2021-02-28T12:52:14Z</time>
      </trkpt>
      <trkpt lat="43.59125" lon="3.76747">
        <ele>60</ele>
        <time>2021-02-28T12:52:15Z</time>
      </trkpt>
      <trkpt lat="43.59121" lon="3.76745">
        <ele>60</ele>
        <time>2021-02-28T12:52:16Z</time>
      </trkpt>
      <trkpt lat="43.59117" lon="3.76743">
        <ele>60</ele>
        <time>2021-02-28T12:52:17Z</time>
      </trkpt>
      <trkpt lat="43.59112" lon="3.76742">
        <ele>60</ele>
        <time>2021-02-28T12:52:18Z</time>
      </trkpt>
      <trkpt lat="43.59107" lon="3.7674">
        <ele>60</ele>
        <time>2021-02-28T12:52:19Z</time>
      </trkpt>
      <trkpt lat="43.59103" lon="3.76739">
        <ele>60</ele>
        <time>2021-02-28T12:52:20Z</time>
      </trkpt>
      <trkpt lat="43.59098" lon="3.76736">
        <ele>60</ele>
        <time>2021-02-28T12:52:21Z</time>
      </trkpt>
      <trkpt lat="43.59093" lon="3.76734">
        <ele>60</ele>
        <time>2021-02-28T12:52:22Z</time>
      </trkpt>
      <trkpt lat="43.59088" lon="3.76733">
        <ele>58</ele>
        <time>2021-02-28T12:52:23Z</time>
      </trkpt>
      <trkpt lat="43.59083" lon="3.76732">
        <ele>58</ele>
        <time>2021-02-28T12:52:24Z</time>
      </trkpt>
      <trkpt lat="43.59079" lon="3.7673">
        <ele>58</ele>
        <time>2021-02-28T12:52:25Z</time>
      </trkpt>
      <trkpt lat="43.59074" lon="3.76728">
        <ele>58</ele>
        <time>2021-02-28T12:52:26Z</time>
      </trkpt>
      <trkpt lat="43.59069" lon="3.76726">
        <ele>58</ele>
        <time>2021-02-28T12:52:27Z</time>
      </trkpt>
      <trkpt lat="43.59065" lon="3.76724">
        <ele>58</ele>
        <time>2021-02-28T12:52:28Z</time>
      </trkpt>
      <trkpt lat="43.59061" lon="3.76721">
        <ele>58</ele>
        <time>2021-02-28T12:52:29Z</time>
      </trkpt>
      <trkpt lat="43.59057" lon="3.76716">
        <ele>58</ele>
        <time>2021-02-28T12:52:30Z</time>
      </trkpt>
      <trkpt lat="43.59054" lon="3.76711">
        <ele>58</ele>
        <time>2021-02-28T12:52:31Z</time>
      </trkpt>
      <trkpt lat="43.59051" lon="3.76705">
        <ele>58</ele>
        <time>2021-02-28T12:52:32Z</time>
      </trkpt>
      <trkpt lat="43.59048" lon="3.76699">
        <ele>58</ele>
        <time>2021-02-28T12:52:33Z</time>
      </trkpt>
      <trkpt lat="43.59045" lon="3.76693">
        <ele>55</ele>
        <time>2021-02-28T12:52:34Z</time>
      </trkpt>
      <trkpt lat="43.59041" lon="3.76688">
        <ele>55</ele>
        <time>2021-02-28T12:52:35Z</time>
      </trkpt>
      <trkpt lat="43.59038" lon="3.76683">
        <ele>55</ele>
        <time>2021-02-28T12:52:36Z</time>
      </trkpt>
      <trkpt lat="43.59035" lon="3.76679">
        <ele>55</ele>
        <time>2021-02-28T12:52:37Z</time>
      </trkpt>
      <trkpt lat="43.59032" lon="3.76674">
        <ele>55</ele>
        <time>2021-02-28T12:52:38Z</time>
      </trkpt>
      <trkpt lat="43.59028" lon="3.76671">
        <ele>55</ele>
        <time>2021-02-28T12:52:39Z</time>
      </trkpt>
      <trkpt lat="43.59025" lon="3.76667">
        <ele>55</ele>
        <time>2021-02-28T12:52:40Z</time>
      </trkpt>
      <trkpt lat="43.59022" lon="3.76663">
        <ele>55</ele>
        <time>2021-02-28T12:52:41Z</time>
      </trkpt>
      <trkpt lat="43.59019" lon="3.76661">
        <ele>55</ele>
        <time>2021-02-28T12:52:42Z</time>
      </trkpt>
      <trkpt lat="43.59016" lon="3.76659">
        <ele>54</ele>
        <time>2021-02-28T12:52:43Z</time>
      </trkpt>
      <trkpt lat="43.59013" lon="3.76657">
        <ele>54</ele>
        <time>2021-02-28T12:52:44Z</time>
      </trkpt>
      <trkpt lat="43.5901" lon="3.76657">
        <ele>54</ele>
        <time>2021-02-28T12:52:45Z</time>
      </trkpt>
      <trkpt lat="43.59007" lon="3.76655">
        <ele>54</ele>
        <time>2021-02-28T12:52:46Z</time>
      </trkpt>
      <trkpt lat="43.59005" lon="3.76653">
        <ele>54</ele>
        <time>2021-02-28T12:52:47Z</time>
      </trkpt>
      <trkpt lat="43.59002" lon="3.76651">
        <ele>54</ele>
        <time>2021-02-28T12:52:48Z</time>
      </trkpt>
      <trkpt lat="43.59" lon="3.76649">
        <ele>54</ele>
        <time>2021-02-28T12:52:49Z</time>
      </trkpt>
      <trkpt lat="43.58997" lon="3.76647">
        <ele>54</ele>
        <time>2021-02-28T12:52:50Z</time>
      </trkpt>
      <trkpt lat="43.58995" lon="3.76645">
        <ele>54</ele>
        <time>2021-02-28T12:52:51Z</time>
      </trkpt>
      <trkpt lat="43.58993" lon="3.76642">
        <ele>54</ele>
        <time>2021-02-28T12:52:52Z</time>
      </trkpt>
      <trkpt lat="43.5899" lon="3.7664">
        <ele>53</ele>
        <time>2021-02-28T12:52:53Z</time>
      </trkpt>
      <trkpt lat="43.58987" lon="3.76638">
        <ele>53</ele>
        <time>2021-02-28T12:52:54Z</time>
      </trkpt>
      <trkpt lat="43.58984" lon="3.76636">
        <ele>53</ele>
        <time>2021-02-28T12:52:55Z</time>
      </trkpt>
      <trkpt lat="43.58982" lon="3.76633">
        <ele>53</ele>
        <time>2021-02-28T12:52:56Z</time>
      </trkpt>
      <trkpt lat="43.58979" lon="3.7663">
        <ele>53</ele>
        <time>2021-02-28T12:52:57Z</time>
      </trkpt>
      <trkpt lat="43.58977" lon="3.76628">
        <ele>53</ele>
        <time>2021-02-28T12:52:58Z</time>
      </trkpt>
      <trkpt lat="43.58974" lon="3.76626">
        <ele>53</ele>
        <time>2021-02-28T12:52:59Z</time>
      </trkpt>
      <trkpt lat="43.58973" lon="3.76623">
        <ele>53</ele>
        <time>2021-02-28T12:53:00Z</time>
      </trkpt>
      <trkpt lat="43.58972" lon="3.76621">
        <ele>53</ele>
        <time>2021-02-28T12:53:01Z</time>
      </trkpt>
      <trkpt lat="43.58971" lon="3.76618">
        <ele>53</ele>
        <time>2021-02-28T12:53:03Z</time>
      </trkpt>
      <trkpt lat="43.58972" lon="3.76615">
        <ele>53</ele>
        <time>2021-02-28T12:53:05Z</time>
      </trkpt>
      <trkpt lat="43.5897" lon="3.76613">
        <ele>53</ele>
        <time>2021-02-28T12:53:09Z</time>
      </trkpt>
      <trkpt lat="43.58967" lon="3.76615">
        <ele>53</ele>
        <time>2021-02-28T12:53:11Z</time>
      </trkpt>
      <trkpt lat="43.58965" lon="3.76616">
        <ele>53</ele>
        <time>2021-02-28T12:53:13Z</time>
      </trkpt>
      <trkpt lat="43.58963" lon="3.76614">
        <ele>53</ele>
        <time>2021-02-28T12:53:15Z</time>
      </trkpt>
      <trkpt lat="43.58962" lon="3.7661">
        <ele>53</ele>
        <time>2021-02-28T12:53:16Z</time>
      </trkpt>
      <trkpt lat="43.58962" lon="3.76607">
        <ele>53</ele>
        <time>2021-02-28T12:53:17Z</time>
      </trkpt>
      <trkpt lat="43.5896" lon="3.76605">
        <ele>53</ele>
        <time>2021-02-28T12:53:18Z</time>
      </trkpt>
      <trkpt lat="43.58958" lon="3.76602">
        <ele>53</ele>
        <time>2021-02-28T12:53:19Z</time>
      </trkpt>
      <trkpt lat="43.58956" lon="3.76599">
        <ele>53</ele>
        <time>2021-02-28T12:53:20Z</time>
      </trkpt>
      <trkpt lat="43.58955" lon="3.76596">
        <ele>53</ele>
        <time>2021-02-28T12:53:21Z</time>
      </trkpt>
      <trkpt lat="43.58953" lon="3.76592">
        <ele>53</ele>
        <time>2021-02-28T12:53:22Z</time>
      </trkpt>
      <trkpt lat="43.58951" lon="3.76589">
        <ele>54</ele>
        <time>2021-02-28T12:53:23Z</time>
      </trkpt>
      <trkpt lat="43.58949" lon="3.76586">
        <ele>54</ele>
        <time>2021-02-28T12:53:24Z</time>
      </trkpt>
      <trkpt lat="43.58947" lon="3.76582">
        <ele>54</ele>
        <time>2021-02-28T12:53:25Z</time>
      </trkpt>
      <trkpt lat="43.58945" lon="3.76579">
        <ele>54</ele>
        <time>2021-02-28T12:53:26Z</time>
      </trkpt>
      <trkpt lat="43.58943" lon="3.76576">
        <ele>54</ele>
        <time>2021-02-28T12:53:27Z</time>
      </trkpt>
      <trkpt lat="43.58941" lon="3.76573">
        <ele>54</ele>
        <time>2021-02-28T12:53:28Z</time>
      </trkpt>
      <trkpt lat="43.58939" lon="3.76569">
        <ele>54</ele>
        <time>2021-02-28T12:53:29Z</time>
      </trkpt>
      <trkpt lat="43.58937" lon="3.76566">
        <ele>54</ele>
        <time>2021-02-28T12:53:30Z</time>
      </trkpt>
      <trkpt lat="43.58935" lon="3.76563">
        <ele>54</ele>
        <time>2021-02-28T12:53:31Z</time>
      </trkpt>
      <trkpt lat="43.58933" lon="3.7656">
        <ele>54</ele>
        <time>2021-02-28T12:53:32Z</time>
      </trkpt>
      <trkpt lat="43.58931" lon="3.76557">
        <ele>54</ele>
        <time>2021-02-28T12:53:33Z</time>
      </trkpt>
      <trkpt lat="43.5893" lon="3.76554">
        <ele>54</ele>
        <time>2021-02-28T12:53:34Z</time>
      </trkpt>
      <trkpt lat="43.58928" lon="3.7655">
        <ele>54</ele>
        <time>2021-02-28T12:53:35Z</time>
      </trkpt>
      <trkpt lat="43.58926" lon="3.76547">
        <ele>54</ele>
        <time>2021-02-28T12:53:36Z</time>
      </trkpt>
      <trkpt lat="43.58924" lon="3.76544">
        <ele>54</ele>
        <time>2021-02-28T12:53:37Z</time>
      </trkpt>
      <trkpt lat="43.58922" lon="3.7654">
        <ele>54</ele>
        <time>2021-02-28T12:53:38Z</time>
      </trkpt>
      <trkpt lat="43.5892" lon="3.76537">
        <ele>54</ele>
        <time>2021-02-28T12:53:39Z</time>
      </trkpt>
      <trkpt lat="43.58919" lon="3.76534">
        <ele>54</ele>
        <time>2021-02-28T12:53:40Z</time>
      </trkpt>
      <trkpt lat="43.58917" lon="3.7653">
        <ele>54</ele>
        <time>2021-02-28T12:53:41Z</time>
      </trkpt>
      <trkpt lat="43.58915" lon="3.76527">
        <ele>54</ele>
        <time>2021-02-28T12:53:42Z</time>
      </trkpt>
      <trkpt lat="43.58913" lon="3.76524">
        <ele>55</ele>
        <time>2021-02-28T12:53:43Z</time>
      </trkpt>
      <trkpt lat="43.58911" lon="3.7652">
        <ele>55</ele>
        <time>2021-02-28T12:53:44Z</time>
      </trkpt>
      <trkpt lat="43.58909" lon="3.76517">
        <ele>55</ele>
        <time>2021-02-28T12:53:45Z</time>
      </trkpt>
      <trkpt lat="43.58907" lon="3.76513">
        <ele>55</ele>
        <time>2021-02-28T12:53:46Z</time>
      </trkpt>
      <trkpt lat="43.58905" lon="3.7651">
        <ele>55</ele>
        <time>2021-02-28T12:53:47Z</time>
      </trkpt>
      <trkpt lat="43.58903" lon="3.76506">
        <ele>55</ele>
        <time>2021-02-28T12:53:48Z</time>
      </trkpt>
      <trkpt lat="43.58901" lon="3.76502">
        <ele>55</ele>
        <time>2021-02-28T12:53:49Z</time>
      </trkpt>
      <trkpt lat="43.58899" lon="3.76499">
        <ele>55</ele>
        <time>2021-02-28T12:53:50Z</time>
      </trkpt>
      <trkpt lat="43.58897" lon="3.76495">
        <ele>55</ele>
        <time>2021-02-28T12:53:51Z</time>
      </trkpt>
      <trkpt lat="43.58895" lon="3.76492">
        <ele>55</ele>
        <time>2021-02-28T12:53:52Z</time>
      </trkpt>
      <trkpt lat="43.58893" lon="3.76488">
        <ele>56</ele>
        <time>2021-02-28T12:53:53Z</time>
      </trkpt>
      <trkpt lat="43.58891" lon="3.76484">
        <ele>56</ele>
        <time>2021-02-28T12:53:54Z</time>
      </trkpt>
      <trkpt lat="43.58889" lon="3.76481">
        <ele>56</ele>
        <time>2021-02-28T12:53:55Z</time>
      </trkpt>
      <trkpt lat="43.58886" lon="3.76478">
        <ele>56</ele>
        <time>2021-02-28T12:53:56Z</time>
      </trkpt>
      <trkpt lat="43.58884" lon="3.76475">
        <ele>56</ele>
        <time>2021-02-28T12:53:57Z</time>
      </trkpt>
      <trkpt lat="43.58882" lon="3.76472">
        <ele>56</ele>
        <time>2021-02-28T12:53:58Z</time>
      </trkpt>
      <trkpt lat="43.5888" lon="3.76468">
        <ele>56</ele>
        <time>2021-02-28T12:53:59Z</time>
      </trkpt>
      <trkpt lat="43.58879" lon="3.76466">
        <ele>56</ele>
        <time>2021-02-28T12:54:00Z</time>
      </trkpt>
      <trkpt lat="43.58877" lon="3.76463">
        <ele>56</ele>
        <time>2021-02-28T12:54:01Z</time>
      </trkpt>
      <trkpt lat="43.58876" lon="3.7646">
        <ele>56</ele>
        <time>2021-02-28T12:54:02Z</time>
      </trkpt>
      <trkpt lat="43.58875" lon="3.76457">
        <ele>56</ele>
        <time>2021-02-28T12:54:03Z</time>
      </trkpt>
      <trkpt lat="43.58874" lon="3.76454">
        <ele>56</ele>
        <time>2021-02-28T12:54:04Z</time>
      </trkpt>
      <trkpt lat="43.58873" lon="3.76452">
        <ele>56</ele>
        <time>2021-02-28T12:54:05Z</time>
      </trkpt>
      <trkpt lat="43.58872" lon="3.76449">
        <ele>56</ele>
        <time>2021-02-28T12:54:06Z</time>
      </trkpt>
      <trkpt lat="43.5887" lon="3.76446">
        <ele>56</ele>
        <time>2021-02-28T12:54:07Z</time>
      </trkpt>
      <trkpt lat="43.58868" lon="3.76443">
        <ele>56</ele>
        <time>2021-02-28T12:54:08Z</time>
      </trkpt>
      <trkpt lat="43.58865" lon="3.76439">
        <ele>56</ele>
        <time>2021-02-28T12:54:09Z</time>
      </trkpt>
      <trkpt lat="43.58862" lon="3.76435">
        <ele>56</ele>
        <time>2021-02-28T12:54:10Z</time>
      </trkpt>
      <trkpt lat="43.58858" lon="3.76432">
        <ele>56</ele>
        <time>2021-02-28T12:54:11Z</time>
      </trkpt>
      <trkpt lat="43.58855" lon="3.76428">
        <ele>56</ele>
        <time>2021-02-28T12:54:12Z</time>
      </trkpt>
      <trkpt lat="43.58853" lon="3.76424">
        <ele>56</ele>
        <time>2021-02-28T12:54:13Z</time>
      </trkpt>
      <trkpt lat="43.5885" lon="3.76419">
        <ele>56</ele>
        <time>2021-02-28T12:54:14Z</time>
      </trkpt>
      <trkpt lat="43.58848" lon="3.76415">
        <ele>56</ele>
        <time>2021-02-28T12:54:15Z</time>
      </trkpt>
      <trkpt lat="43.58846" lon="3.76411">
        <ele>56</ele>
        <time>2021-02-28T12:54:16Z</time>
      </trkpt>
      <trkpt lat="43.58843" lon="3.76408">
        <ele>56</ele>
        <time>2021-02-28T12:54:17Z</time>
      </trkpt>
      <trkpt lat="43.58841" lon="3.76405">
        <ele>56</ele>
        <time>2021-02-28T12:54:18Z</time>
      </trkpt>
      <trkpt lat="43.58839" lon="3.76401">
        <ele>56</ele>
        <time>2021-02-28T12:54:19Z</time>
      </trkpt>
      <trkpt lat="43.58836" lon="3.76398">
        <ele>56</ele>
        <time>2021-02-28T12:54:20Z</time>
      </trkpt>
      <trkpt lat="43.58834" lon="3.76394">
        <ele>56</ele>
        <time>2021-02-28T12:54:21Z</time>
      </trkpt>
      <trkpt lat="43.58832" lon="3.76391">
        <ele>56</ele>
        <time>2021-02-28T12:54:22Z</time>
      </trkpt>
      <trkpt lat="43.58829" lon="3.76388">
        <ele>57</ele>
        <time>2021-02-28T12:54:23Z</time>
      </trkpt>
      <trkpt lat="43.58827" lon="3.76385">
        <ele>57</ele>
        <time>2021-02-28T12:54:24Z</time>
      </trkpt>
      <trkpt lat="43.58826" lon="3.76383">
        <ele>57</ele>
        <time>2021-02-28T12:54:25Z</time>
      </trkpt>
      <trkpt lat="43.58824" lon="3.7638">
        <ele>57</ele>
        <time>2021-02-28T12:54:26Z</time>
      </trkpt>
      <trkpt lat="43.58823" lon="3.76378">
        <ele>57</ele>
        <time>2021-02-28T12:54:27Z</time>
      </trkpt>
      <trkpt lat="43.58821" lon="3.76376">
        <ele>57</ele>
        <time>2021-02-28T12:54:29Z</time>
      </trkpt>
      <trkpt lat="43.5882" lon="3.76373">
        <ele>57</ele>
        <time>2021-02-28T12:54:31Z</time>
      </trkpt>
      <trkpt lat="43.58819" lon="3.76371">
        <ele>57</ele>
        <time>2021-02-28T12:54:33Z</time>
      </trkpt>
      <trkpt lat="43.58816" lon="3.76371">
        <ele>57</ele>
        <time>2021-02-28T12:54:35Z</time>
      </trkpt>
      <trkpt lat="43.58813" lon="3.7637">
        <ele>57</ele>
        <time>2021-02-28T12:54:36Z</time>
      </trkpt>
      <trkpt lat="43.58811" lon="3.76368">
        <ele>57</ele>
        <time>2021-02-28T12:54:37Z</time>
      </trkpt>
      <trkpt lat="43.58808" lon="3.76366">
        <ele>57</ele>
        <time>2021-02-28T12:54:38Z</time>
      </trkpt>
      <trkpt lat="43.58804" lon="3.76364">
        <ele>57</ele>
        <time>2021-02-28T12:54:39Z</time>
      </trkpt>
      <trkpt lat="43.588" lon="3.76364">
        <ele>57</ele>
        <time>2021-02-28T12:54:40Z</time>
      </trkpt>
      <trkpt lat="43.58796" lon="3.76364">
        <ele>57</ele>
        <time>2021-02-28T12:54:41Z</time>
      </trkpt>
      <trkpt lat="43.58792" lon="3.76362">
        <ele>57</ele>
        <time>2021-02-28T12:54:42Z</time>
      </trkpt>
      <trkpt lat="43.58788" lon="3.76358">
        <ele>56</ele>
        <time>2021-02-28T12:54:43Z</time>
      </trkpt>
      <trkpt lat="43.58785" lon="3.76353">
        <ele>56</ele>
        <time>2021-02-28T12:54:44Z</time>
      </trkpt>
      <trkpt lat="43.58783" lon="3.7635">
        <ele>56</ele>
        <time>2021-02-28T12:54:45Z</time>
      </trkpt>
      <trkpt lat="43.58781" lon="3.76348">
        <ele>56</ele>
        <time>2021-02-28T12:54:46Z</time>
      </trkpt>
      <trkpt lat="43.5878" lon="3.76346">
        <ele>56</ele>
        <time>2021-02-28T12:54:47Z</time>
      </trkpt>
      <trkpt lat="43.58779" lon="3.76344">
        <ele>56</ele>
        <time>2021-02-28T12:54:49Z</time>
      </trkpt>
      <trkpt lat="43.58779" lon="3.76344">
        <ele>56</ele>
        <time>2021-02-28T12:54:54Z</time>
      </trkpt>
      <trkpt lat="43.58774" lon="3.76336">
        <ele>55</ele>
        <time>2021-02-28T12:55:33Z</time>
      </trkpt>
      <trkpt lat="43.58772" lon="3.76333">
        <ele>55</ele>
        <time>2021-02-28T12:55:34Z</time>
      </trkpt>
      <trkpt lat="43.5877" lon="3.76329">
        <ele>55</ele>
        <time>2021-02-28T12:55:35Z</time>
      </trkpt>
      <trkpt lat="43.58768" lon="3.76325">
        <ele>55</ele>
        <time>2021-02-28T12:55:36Z</time>
      </trkpt>
      <trkpt lat="43.58766" lon="3.76321">
        <ele>55</ele>
        <time>2021-02-28T12:55:37Z</time>
      </trkpt>
      <trkpt lat="43.58763" lon="3.76316">
        <ele>55</ele>
        <time>2021-02-28T12:55:38Z</time>
      </trkpt>
      <trkpt lat="43.58761" lon="3.76312">
        <ele>55</ele>
        <time>2021-02-28T12:55:39Z</time>
      </trkpt>
      <trkpt lat="43.58759" lon="3.76308">
        <ele>55</ele>
        <time>2021-02-28T12:55:40Z</time>
      </trkpt>
      <trkpt lat="43.58757" lon="3.76304">
        <ele>55</ele>
        <time>2021-02-28T12:55:41Z</time>
      </trkpt>
      <trkpt lat="43.58755" lon="3.763">
        <ele>55</ele>
        <time>2021-02-28T12:55:42Z</time>
      </trkpt>
      <trkpt lat="43.58753" lon="3.76296">
        <ele>54</ele>
        <time>2021-02-28T12:55:43Z</time>
      </trkpt>
      <trkpt lat="43.58751" lon="3.76292">
        <ele>54</ele>
        <time>2021-02-28T12:55:44Z</time>
      </trkpt>
      <trkpt lat="43.58749" lon="3.76288">
        <ele>54</ele>
        <time>2021-02-28T12:55:45Z</time>
      </trkpt>
      <trkpt lat="43.58747" lon="3.76285">
        <ele>54</ele>
        <time>2021-02-28T12:55:46Z</time>
      </trkpt>
      <trkpt lat="43.58745" lon="3.76281">
        <ele>54</ele>
        <time>2021-02-28T12:55:47Z</time>
      </trkpt>
      <trkpt lat="43.58744" lon="3.76278">
        <ele>54</ele>
        <time>2021-02-28T12:55:48Z</time>
      </trkpt>
      <trkpt lat="43.58743" lon="3.76274">
        <ele>54</ele>
        <time>2021-02-28T12:55:50Z</time>
      </trkpt>
      <trkpt lat="43.58744" lon="3.76271">
        <ele>54</ele>
        <time>2021-02-28T12:55:52Z</time>
      </trkpt>
      <trkpt lat="43.58741" lon="3.7627">
        <ele>54</ele>
        <time>2021-02-28T12:55:55Z</time>
      </trkpt>
      <trkpt lat="43.5874" lon="3.76272">
        <ele>54</ele>
        <time>2021-02-28T12:55:56Z</time>
      </trkpt>
      <trkpt lat="43.58738" lon="3.76275">
        <ele>54</ele>
        <time>2021-02-28T12:55:57Z</time>
      </trkpt>
      <trkpt lat="43.58735" lon="3.76277">
        <ele>54</ele>
        <time>2021-02-28T12:55:58Z</time>
      </trkpt>
      <trkpt lat="43.58731" lon="3.7628">
        <ele>54</ele>
        <time>2021-02-28T12:55:59Z</time>
      </trkpt>
      <trkpt lat="43.58728" lon="3.76283">
        <ele>54</ele>
        <time>2021-02-28T12:56:00Z</time>
      </trkpt>
      <trkpt lat="43.58725" lon="3.76287">
        <ele>54</ele>
        <time>2021-02-28T12:56:01Z</time>
      </trkpt>
      <trkpt lat="43.58723" lon="3.7629">
        <ele>54</ele>
        <time>2021-02-28T12:56:02Z</time>
      </trkpt>
      <trkpt lat="43.58719" lon="3.76292">
        <ele>53</ele>
        <time>2021-02-28T12:56:03Z</time>
      </trkpt>
      <trkpt lat="43.58716" lon="3.76292">
        <ele>53</ele>
        <time>2021-02-28T12:56:04Z</time>
      </trkpt>
      <trkpt lat="43.58712" lon="3.76291">
        <ele>53</ele>
        <time>2021-02-28T12:56:05Z</time>
      </trkpt>
      <trkpt lat="43.58709" lon="3.76288">
        <ele>53</ele>
        <time>2021-02-28T12:56:06Z</time>
      </trkpt>
      <trkpt lat="43.58707" lon="3.76285">
        <ele>53</ele>
        <time>2021-02-28T12:56:07Z</time>
      </trkpt>
      <trkpt lat="43.58704" lon="3.76281">
        <ele>53</ele>
        <time>2021-02-28T12:56:08Z</time>
      </trkpt>
      <trkpt lat="43.58702" lon="3.76278">
        <ele>53</ele>
        <time>2021-02-28T12:56:09Z</time>
      </trkpt>
      <trkpt lat="43.587" lon="3.76275">
        <ele>53</ele>
        <time>2021-02-28T12:56:10Z</time>
      </trkpt>
      <trkpt lat="43.58698" lon="3.76272">
        <ele>53</ele>
        <time>2021-02-28T12:56:11Z</time>
      </trkpt>
      <trkpt lat="43.58694" lon="3.76265">
        <ele>52</ele>
        <time>2021-02-28T12:56:13Z</time>
      </trkpt>
      <trkpt lat="43.58692" lon="3.76261">
        <ele>52</ele>
        <time>2021-02-28T12:56:14Z</time>
      </trkpt>
      <trkpt lat="43.58691" lon="3.76257">
        <ele>52</ele>
        <time>2021-02-28T12:56:15Z</time>
      </trkpt>
      <trkpt lat="43.58688" lon="3.76255">
        <ele>52</ele>
        <time>2021-02-28T12:56:16Z</time>
      </trkpt>
      <trkpt lat="43.58686" lon="3.76253">
        <ele>52</ele>
        <time>2021-02-28T12:56:17Z</time>
      </trkpt>
      <trkpt lat="43.58683" lon="3.76251">
        <ele>52</ele>
        <time>2021-02-28T12:56:18Z</time>
      </trkpt>
      <trkpt lat="43.58681" lon="3.76247">
        <ele>52</ele>
        <time>2021-02-28T12:56:19Z</time>
      </trkpt>
      <trkpt lat="43.58679" lon="3.76244">
        <ele>52</ele>
        <time>2021-02-28T12:56:20Z</time>
      </trkpt>
      <trkpt lat="43.58677" lon="3.7624">
        <ele>52</ele>
        <time>2021-02-28T12:56:21Z</time>
      </trkpt>
      <trkpt lat="43.58675" lon="3.76235">
        <ele>52</ele>
        <time>2021-02-28T12:56:22Z</time>
      </trkpt>
      <trkpt lat="43.58672" lon="3.76231">
        <ele>52</ele>
        <time>2021-02-28T12:56:23Z</time>
      </trkpt>
      <trkpt lat="43.5867" lon="3.76226">
        <ele>52</ele>
        <time>2021-02-28T12:56:24Z</time>
      </trkpt>
      <trkpt lat="43.58668" lon="3.76222">
        <ele>52</ele>
        <time>2021-02-28T12:56:25Z</time>
      </trkpt>
      <trkpt lat="43.58666" lon="3.76218">
        <ele>52</ele>
        <time>2021-02-28T12:56:26Z</time>
      </trkpt>
      <trkpt lat="43.58665" lon="3.76214">
        <ele>52</ele>
        <time>2021-02-28T12:56:27Z</time>
      </trkpt>
      <trkpt lat="43.58663" lon="3.76211">
        <ele>52</ele>
        <time>2021-02-28T12:56:28Z</time>
      </trkpt>
      <trkpt lat="43.58661" lon="3.76206">
        <ele>52</ele>
        <time>2021-02-28T12:56:29Z</time>
      </trkpt>
      <trkpt lat="43.5866" lon="3.76202">
        <ele>52</ele>
        <time>2021-02-28T12:56:30Z</time>
      </trkpt>
      <trkpt lat="43.58658" lon="3.76198">
        <ele>52</ele>
        <time>2021-02-28T12:56:31Z</time>
      </trkpt>
      <trkpt lat="43.58657" lon="3.76194">
        <ele>52</ele>
        <time>2021-02-28T12:56:32Z</time>
      </trkpt>
      <trkpt lat="43.58655" lon="3.7619">
        <ele>52</ele>
        <time>2021-02-28T12:56:33Z</time>
      </trkpt>
      <trkpt lat="43.58653" lon="3.76186">
        <ele>52</ele>
        <time>2021-02-28T12:56:34Z</time>
      </trkpt>
      <trkpt lat="43.58651" lon="3.76182">
        <ele>52</ele>
        <time>2021-02-28T12:56:35Z</time>
      </trkpt>
      <trkpt lat="43.58649" lon="3.76177">
        <ele>52</ele>
        <time>2021-02-28T12:56:36Z</time>
      </trkpt>
      <trkpt lat="43.58647" lon="3.76173">
        <ele>52</ele>
        <time>2021-02-28T12:56:37Z</time>
      </trkpt>
      <trkpt lat="43.58644" lon="3.76169">
        <ele>52</ele>
        <time>2021-02-28T12:56:38Z</time>
      </trkpt>
      <trkpt lat="43.58642" lon="3.76165">
        <ele>52</ele>
        <time>2021-02-28T12:56:39Z</time>
      </trkpt>
      <trkpt lat="43.58639" lon="3.76161">
        <ele>52</ele>
        <time>2021-02-28T12:56:40Z</time>
      </trkpt>
      <trkpt lat="43.58636" lon="3.76157">
        <ele>52</ele>
        <time>2021-02-28T12:56:41Z</time>
      </trkpt>
      <trkpt lat="43.58634" lon="3.76152">
        <ele>52</ele>
        <time>2021-02-28T12:56:42Z</time>
      </trkpt>
      <trkpt lat="43.58632" lon="3.76147">
        <ele>52</ele>
        <time>2021-02-28T12:56:43Z</time>
      </trkpt>
      <trkpt lat="43.5863" lon="3.76142">
        <ele>52</ele>
        <time>2021-02-28T12:56:44Z</time>
      </trkpt>
      <trkpt lat="43.58628" lon="3.76138">
        <ele>52</ele>
        <time>2021-02-28T12:56:45Z</time>
      </trkpt>
      <trkpt lat="43.58626" lon="3.76134">
        <ele>52</ele>
        <time>2021-02-28T12:56:46Z</time>
      </trkpt>
      <trkpt lat="43.58624" lon="3.76129">
        <ele>52</ele>
        <time>2021-02-28T12:56:47Z</time>
      </trkpt>
      <trkpt lat="43.58622" lon="3.76125">
        <ele>52</ele>
        <time>2021-02-28T12:56:48Z</time>
      </trkpt>
      <trkpt lat="43.5862" lon="3.76121">
        <ele>52</ele>
        <time>2021-02-28T12:56:49Z</time>
      </trkpt>
      <trkpt lat="43.58618" lon="3.76117">
        <ele>52</ele>
        <time>2021-02-28T12:56:50Z</time>
      </trkpt>
      <trkpt lat="43.58617" lon="3.76113">
        <ele>52</ele>
        <time>2021-02-28T12:56:51Z</time>
      </trkpt>
      <trkpt lat="43.58615" lon="3.76109">
        <ele>52</ele>
        <time>2021-02-28T12:56:52Z</time>
      </trkpt>
      <trkpt lat="43.58613" lon="3.76105">
        <ele>52</ele>
        <time>2021-02-28T12:56:53Z</time>
      </trkpt>
      <trkpt lat="43.58612" lon="3.76101">
        <ele>52</ele>
        <time>2021-02-28T12:56:54Z</time>
      </trkpt>
      <trkpt lat="43.5861" lon="3.76097">
        <ele>52</ele>
        <time>2021-02-28T12:56:55Z</time>
      </trkpt>
      <trkpt lat="43.58608" lon="3.76092">
        <ele>52</ele>
        <time>2021-02-28T12:56:56Z</time>
      </trkpt>
      <trkpt lat="43.58607" lon="3.76088">
        <ele>52</ele>
        <time>2021-02-28T12:56:57Z</time>
      </trkpt>
      <trkpt lat="43.58605" lon="3.76084">
        <ele>52</ele>
        <time>2021-02-28T12:56:58Z</time>
      </trkpt>
      <trkpt lat="43.58603" lon="3.7608">
        <ele>52</ele>
        <time>2021-02-28T12:56:59Z</time>
      </trkpt>
      <trkpt lat="43.58602" lon="3.76076">
        <ele>52</ele>
        <time>2021-02-28T12:57:00Z</time>
      </trkpt>
      <trkpt lat="43.586" lon="3.76071">
        <ele>52</ele>
        <time>2021-02-28T12:57:01Z</time>
      </trkpt>
      <trkpt lat="43.58598" lon="3.76067">
        <ele>52</ele>
        <time>2021-02-28T12:57:02Z</time>
      </trkpt>
      <trkpt lat="43.58595" lon="3.76063">
        <ele>52</ele>
        <time>2021-02-28T12:57:03Z</time>
      </trkpt>
      <trkpt lat="43.58593" lon="3.76059">
        <ele>52</ele>
        <time>2021-02-28T12:57:04Z</time>
      </trkpt>
      <trkpt lat="43.58591" lon="3.76055">
        <ele>52</ele>
        <time>2021-02-28T12:57:05Z</time>
      </trkpt>
      <trkpt lat="43.5859" lon="3.76051">
        <ele>52</ele>
        <time>2021-02-28T12:57:06Z</time>
      </trkpt>
      <trkpt lat="43.58588" lon="3.76047">
        <ele>52</ele>
        <time>2021-02-28T12:57:07Z</time>
      </trkpt>
      <trkpt lat="43.58587" lon="3.76043">
        <ele>52</ele>
        <time>2021-02-28T12:57:08Z</time>
      </trkpt>
      <trkpt lat="43.58586" lon="3.7604">
        <ele>52</ele>
        <time>2021-02-28T12:57:09Z</time>
      </trkpt>
      <trkpt lat="43.58584" lon="3.76036">
        <ele>52</ele>
        <time>2021-02-28T12:57:10Z</time>
      </trkpt>
      <trkpt lat="43.58583" lon="3.76033">
        <ele>52</ele>
        <time>2021-02-28T12:57:11Z</time>
      </trkpt>
      <trkpt lat="43.58582" lon="3.76029">
        <ele>52</ele>
        <time>2021-02-28T12:57:12Z</time>
      </trkpt>
      <trkpt lat="43.58581" lon="3.76026">
        <ele>53</ele>
        <time>2021-02-28T12:57:13Z</time>
      </trkpt>
      <trkpt lat="43.5858" lon="3.76023">
        <ele>53</ele>
        <time>2021-02-28T12:57:14Z</time>
      </trkpt>
      <trkpt lat="43.58579" lon="3.76021">
        <ele>53</ele>
        <time>2021-02-28T12:57:15Z</time>
      </trkpt>
      <trkpt lat="43.58577" lon="3.76018">
        <ele>53</ele>
        <time>2021-02-28T12:57:16Z</time>
      </trkpt>
      <trkpt lat="43.58575" lon="3.76016">
        <ele>53</ele>
        <time>2021-02-28T12:57:17Z</time>
      </trkpt>
      <trkpt lat="43.58574" lon="3.76013">
        <ele>53</ele>
        <time>2021-02-28T12:57:18Z</time>
      </trkpt>
      <trkpt lat="43.58572" lon="3.7601">
        <ele>53</ele>
        <time>2021-02-28T12:57:19Z</time>
      </trkpt>
      <trkpt lat="43.58571" lon="3.76007">
        <ele>53</ele>
        <time>2021-02-28T12:57:20Z</time>
      </trkpt>
      <trkpt lat="43.5857" lon="3.76004">
        <ele>53</ele>
        <time>2021-02-28T12:57:21Z</time>
      </trkpt>
      <trkpt lat="43.58568" lon="3.76001">
        <ele>53</ele>
        <time>2021-02-28T12:57:22Z</time>
      </trkpt>
      <trkpt lat="43.58567" lon="3.75997">
        <ele>53</ele>
        <time>2021-02-28T12:57:23Z</time>
      </trkpt>
      <trkpt lat="43.58565" lon="3.75994">
        <ele>53</ele>
        <time>2021-02-28T12:57:24Z</time>
      </trkpt>
      <trkpt lat="43.58564" lon="3.75991">
        <ele>53</ele>
        <time>2021-02-28T12:57:25Z</time>
      </trkpt>
      <trkpt lat="43.58563" lon="3.75987">
        <ele>53</ele>
        <time>2021-02-28T12:57:26Z</time>
      </trkpt>
      <trkpt lat="43.58562" lon="3.75984">
        <ele>53</ele>
        <time>2021-02-28T12:57:27Z</time>
      </trkpt>
      <trkpt lat="43.5856" lon="3.75981">
        <ele>53</ele>
        <time>2021-02-28T12:57:28Z</time>
      </trkpt>
      <trkpt lat="43.58559" lon="3.75977">
        <ele>53</ele>
        <time>2021-02-28T12:57:29Z</time>
      </trkpt>
      <trkpt lat="43.58557" lon="3.75973">
        <ele>53</ele>
        <time>2021-02-28T12:57:30Z</time>
      </trkpt>
      <trkpt lat="43.58555" lon="3.7597">
        <ele>53</ele>
        <time>2021-02-28T12:57:31Z</time>
      </trkpt>
      <trkpt lat="43.58554" lon="3.75966">
        <ele>53</ele>
        <time>2021-02-28T12:57:32Z</time>
      </trkpt>
      <trkpt lat="43.58552" lon="3.75961">
        <ele>53</ele>
        <time>2021-02-28T12:57:33Z</time>
      </trkpt>
      <trkpt lat="43.5855" lon="3.75957">
        <ele>53</ele>
        <time>2021-02-28T12:57:34Z</time>
      </trkpt>
      <trkpt lat="43.58548" lon="3.75953">
        <ele>53</ele>
        <time>2021-02-28T12:57:35Z</time>
      </trkpt>
      <trkpt lat="43.58546" lon="3.75949">
        <ele>53</ele>
        <time>2021-02-28T12:57:36Z</time>
      </trkpt>
      <trkpt lat="43.58544" lon="3.75944">
        <ele>53</ele>
        <time>2021-02-28T12:57:37Z</time>
      </trkpt>
      <trkpt lat="43.58542" lon="3.7594">
        <ele>53</ele>
        <time>2021-02-28T12:57:38Z</time>
      </trkpt>
      <trkpt lat="43.5854" lon="3.75936">
        <ele>53</ele>
        <time>2021-02-28T12:57:39Z</time>
      </trkpt>
      <trkpt lat="43.58538" lon="3.75932">
        <ele>53</ele>
        <time>2021-02-28T12:57:40Z</time>
      </trkpt>
      <trkpt lat="43.58536" lon="3.75928">
        <ele>53</ele>
        <time>2021-02-28T12:57:41Z</time>
      </trkpt>
      <trkpt lat="43.58534" lon="3.75923">
        <ele>53</ele>
        <time>2021-02-28T12:57:42Z</time>
      </trkpt>
      <trkpt lat="43.58532" lon="3.75919">
        <ele>53</ele>
        <time>2021-02-28T12:57:43Z</time>
      </trkpt>
      <trkpt lat="43.5853" lon="3.75915">
        <ele>53</ele>
        <time>2021-02-28T12:57:44Z</time>
      </trkpt>
      <trkpt lat="43.58529" lon="3.75911">
        <ele>53</ele>
        <time>2021-02-28T12:57:45Z</time>
      </trkpt>
      <trkpt lat="43.58527" lon="3.75907">
        <ele>53</ele>
        <time>2021-02-28T12:57:46Z</time>
      </trkpt>
      <trkpt lat="43.58525" lon="3.75903">
        <ele>53</ele>
        <time>2021-02-28T12:57:47Z</time>
      </trkpt>
      <trkpt lat="43.58523" lon="3.75899">
        <ele>53</ele>
        <time>2021-02-28T12:57:48Z</time>
      </trkpt>
      <trkpt lat="43.58521" lon="3.75896">
        <ele>53</ele>
        <time>2021-02-28T12:57:49Z</time>
      </trkpt>
      <trkpt lat="43.58519" lon="3.75893">
        <ele>53</ele>
        <time>2021-02-28T12:57:50Z</time>
      </trkpt>
      <trkpt lat="43.58517" lon="3.75889">
        <ele>53</ele>
        <time>2021-02-28T12:57:51Z</time>
      </trkpt>
      <trkpt lat="43.58517" lon="3.75885">
        <ele>53</ele>
        <time>2021-02-28T12:57:52Z</time>
      </trkpt>
      <trkpt lat="43.58516" lon="3.75882">
        <ele>54</ele>
        <time>2021-02-28T12:57:53Z</time>
      </trkpt>
      <trkpt lat="43.58515" lon="3.75878">
        <ele>54</ele>
        <time>2021-02-28T12:57:55Z</time>
      </trkpt>
      <trkpt lat="43.58514" lon="3.75875">
        <ele>54</ele>
        <time>2021-02-28T12:57:57Z</time>
      </trkpt>
      <trkpt lat="43.58512" lon="3.75871">
        <ele>54</ele>
        <time>2021-02-28T12:57:59Z</time>
      </trkpt>
      <trkpt lat="43.58511" lon="3.75868">
        <ele>54</ele>
        <time>2021-02-28T12:58:00Z</time>
      </trkpt>
      <trkpt lat="43.5851" lon="3.75864">
        <ele>54</ele>
        <time>2021-02-28T12:58:01Z</time>
      </trkpt>
      <trkpt lat="43.58509" lon="3.75861">
        <ele>54</ele>
        <time>2021-02-28T12:58:02Z</time>
      </trkpt>
      <trkpt lat="43.58507" lon="3.75857">
        <ele>54</ele>
        <time>2021-02-28T12:58:03Z</time>
      </trkpt>
      <trkpt lat="43.58505" lon="3.75853">
        <ele>54</ele>
        <time>2021-02-28T12:58:04Z</time>
      </trkpt>
      <trkpt lat="43.58503" lon="3.75849">
        <ele>54</ele>
        <time>2021-02-28T12:58:05Z</time>
      </trkpt>
      <trkpt lat="43.58501" lon="3.75846">
        <ele>54</ele>
        <time>2021-02-28T12:58:06Z</time>
      </trkpt>
      <trkpt lat="43.58499" lon="3.75842">
        <ele>54</ele>
        <time>2021-02-28T12:58:07Z</time>
      </trkpt>
      <trkpt lat="43.58497" lon="3.75838">
        <ele>54</ele>
        <time>2021-02-28T12:58:08Z</time>
      </trkpt>
      <trkpt lat="43.58495" lon="3.75834">
        <ele>54</ele>
        <time>2021-02-28T12:58:09Z</time>
      </trkpt>
      <trkpt lat="43.58493" lon="3.7583">
        <ele>54</ele>
        <time>2021-02-28T12:58:10Z</time>
      </trkpt>
      <trkpt lat="43.58491" lon="3.75827">
        <ele>54</ele>
        <time>2021-02-28T12:58:11Z</time>
      </trkpt>
      <trkpt lat="43.58489" lon="3.75823">
        <ele>54</ele>
        <time>2021-02-28T12:58:12Z</time>
      </trkpt>
      <trkpt lat="43.58487" lon="3.7582">
        <ele>54</ele>
        <time>2021-02-28T12:58:13Z</time>
      </trkpt>
      <trkpt lat="43.58485" lon="3.75817">
        <ele>54</ele>
        <time>2021-02-28T12:58:14Z</time>
      </trkpt>
      <trkpt lat="43.58484" lon="3.75814">
        <ele>54</ele>
        <time>2021-02-28T12:58:15Z</time>
      </trkpt>
      <trkpt lat="43.58483" lon="3.75811">
        <ele>54</ele>
        <time>2021-02-28T12:58:16Z</time>
      </trkpt>
      <trkpt lat="43.58481" lon="3.75809">
        <ele>54</ele>
        <time>2021-02-28T12:58:17Z</time>
      </trkpt>
      <trkpt lat="43.5848" lon="3.75805">
        <ele>54</ele>
        <time>2021-02-28T12:58:18Z</time>
      </trkpt>
      <trkpt lat="43.58479" lon="3.75802">
        <ele>54</ele>
        <time>2021-02-28T12:58:19Z</time>
      </trkpt>
      <trkpt lat="43.58477" lon="3.75798">
        <ele>54</ele>
        <time>2021-02-28T12:58:20Z</time>
      </trkpt>
      <trkpt lat="43.58476" lon="3.75794">
        <ele>54</ele>
        <time>2021-02-28T12:58:21Z</time>
      </trkpt>
      <trkpt lat="43.58474" lon="3.7579">
        <ele>54</ele>
        <time>2021-02-28T12:58:22Z</time>
      </trkpt>
      <trkpt lat="43.58474" lon="3.75786">
        <ele>55</ele>
        <time>2021-02-28T12:58:23Z</time>
      </trkpt>
      <trkpt lat="43.58474" lon="3.75782">
        <ele>55</ele>
        <time>2021-02-28T12:58:24Z</time>
      </trkpt>
      <trkpt lat="43.58475" lon="3.75777">
        <ele>55</ele>
        <time>2021-02-28T12:58:25Z</time>
      </trkpt>
      <trkpt lat="43.58477" lon="3.75773">
        <ele>55</ele>
        <time>2021-02-28T12:58:26Z</time>
      </trkpt>
      <trkpt lat="43.58479" lon="3.7577">
        <ele>55</ele>
        <time>2021-02-28T12:58:27Z</time>
      </trkpt>
      <trkpt lat="43.58481" lon="3.75767">
        <ele>55</ele>
        <time>2021-02-28T12:58:28Z</time>
      </trkpt>
      <trkpt lat="43.58484" lon="3.75764">
        <ele>55</ele>
        <time>2021-02-28T12:58:29Z</time>
      </trkpt>
      <trkpt lat="43.58486" lon="3.75762">
        <ele>55</ele>
        <time>2021-02-28T12:58:30Z</time>
      </trkpt>
      <trkpt lat="43.58489" lon="3.7576">
        <ele>55</ele>
        <time>2021-02-28T12:58:31Z</time>
      </trkpt>
      <trkpt lat="43.58491" lon="3.75757">
        <ele>55</ele>
        <time>2021-02-28T12:58:32Z</time>
      </trkpt>
      <trkpt lat="43.58493" lon="3.75755">
        <ele>55</ele>
        <time>2021-02-28T12:58:33Z</time>
      </trkpt>
      <trkpt lat="43.58496" lon="3.75752">
        <ele>55</ele>
        <time>2021-02-28T12:58:34Z</time>
      </trkpt>
      <trkpt lat="43.58498" lon="3.75749">
        <ele>55</ele>
        <time>2021-02-28T12:58:35Z</time>
      </trkpt>
      <trkpt lat="43.585" lon="3.75747">
        <ele>55</ele>
        <time>2021-02-28T12:58:36Z</time>
      </trkpt>
      <trkpt lat="43.58503" lon="3.75744">
        <ele>55</ele>
        <time>2021-02-28T12:58:37Z</time>
      </trkpt>
      <trkpt lat="43.58505" lon="3.75742">
        <ele>55</ele>
        <time>2021-02-28T12:58:38Z</time>
      </trkpt>
      <trkpt lat="43.58508" lon="3.7574">
        <ele>55</ele>
        <time>2021-02-28T12:58:39Z</time>
      </trkpt>
      <trkpt lat="43.5851" lon="3.75738">
        <ele>55</ele>
        <time>2021-02-28T12:58:40Z</time>
      </trkpt>
      <trkpt lat="43.58512" lon="3.75736">
        <ele>55</ele>
        <time>2021-02-28T12:58:41Z</time>
      </trkpt>
      <trkpt lat="43.58514" lon="3.75733">
        <ele>55</ele>
        <time>2021-02-28T12:58:42Z</time>
      </trkpt>
      <trkpt lat="43.58516" lon="3.75731">
        <ele>56</ele>
        <time>2021-02-28T12:58:43Z</time>
      </trkpt>
      <trkpt lat="43.58518" lon="3.75728">
        <ele>56</ele>
        <time>2021-02-28T12:58:44Z</time>
      </trkpt>
      <trkpt lat="43.5852" lon="3.75725">
        <ele>56</ele>
        <time>2021-02-28T12:58:45Z</time>
      </trkpt>
      <trkpt lat="43.58522" lon="3.75721">
        <ele>56</ele>
        <time>2021-02-28T12:58:46Z</time>
      </trkpt>
      <trkpt lat="43.58524" lon="3.75719">
        <ele>56</ele>
        <time>2021-02-28T12:58:47Z</time>
      </trkpt>
      <trkpt lat="43.58526" lon="3.75716">
        <ele>56</ele>
        <time>2021-02-28T12:58:48Z</time>
      </trkpt>
      <trkpt lat="43.58527" lon="3.75713">
        <ele>56</ele>
        <time>2021-02-28T12:58:49Z</time>
      </trkpt>
      <trkpt lat="43.58529" lon="3.75711">
        <ele>56</ele>
        <time>2021-02-28T12:58:50Z</time>
      </trkpt>
      <trkpt lat="43.5853" lon="3.75709">
        <ele>56</ele>
        <time>2021-02-28T12:58:51Z</time>
      </trkpt>
      <trkpt lat="43.58532" lon="3.75707">
        <ele>56</ele>
        <time>2021-02-28T12:58:52Z</time>
      </trkpt>
      <trkpt lat="43.58533" lon="3.75704">
        <ele>57</ele>
        <time>2021-02-28T12:58:53Z</time>
      </trkpt>
      <trkpt lat="43.58534" lon="3.75702">
        <ele>57</ele>
        <time>2021-02-28T12:58:54Z</time>
      </trkpt>
      <trkpt lat="43.58536" lon="3.757">
        <ele>57</ele>
        <time>2021-02-28T12:58:55Z</time>
      </trkpt>
      <trkpt lat="43.58537" lon="3.75697">
        <ele>57</ele>
        <time>2021-02-28T12:58:56Z</time>
      </trkpt>
      <trkpt lat="43.58538" lon="3.75695">
        <ele>57</ele>
        <time>2021-02-28T12:58:57Z</time>
      </trkpt>
      <trkpt lat="43.5854" lon="3.75693">
        <ele>57</ele>
        <time>2021-02-28T12:58:58Z</time>
      </trkpt>
      <trkpt lat="43.58541" lon="3.75691">
        <ele>57</ele>
        <time>2021-02-28T12:58:59Z</time>
      </trkpt>
      <trkpt lat="43.58542" lon="3.75689">
        <ele>57</ele>
        <time>2021-02-28T12:59:00Z</time>
      </trkpt>
      <trkpt lat="43.58543" lon="3.75687">
        <ele>57</ele>
        <time>2021-02-28T12:59:01Z</time>
      </trkpt>
      <trkpt lat="43.58544" lon="3.75685">
        <ele>57</ele>
        <time>2021-02-28T12:59:02Z</time>
      </trkpt>
      <trkpt lat="43.58546" lon="3.75683">
        <ele>58</ele>
        <time>2021-02-28T12:59:03Z</time>
      </trkpt>
      <trkpt lat="43.58548" lon="3.7568">
        <ele>58</ele>
        <time>2021-02-28T12:59:05Z</time>
      </trkpt>
      <trkpt lat="43.58549" lon="3.75678">
        <ele>58</ele>
        <time>2021-02-28T12:59:06Z</time>
      </trkpt>
      <trkpt lat="43.5855" lon="3.75675">
        <ele>58</ele>
        <time>2021-02-28T12:59:07Z</time>
      </trkpt>
      <trkpt lat="43.58551" lon="3.75674">
        <ele>58</ele>
        <time>2021-02-28T12:59:08Z</time>
      </trkpt>
      <trkpt lat="43.58554" lon="3.7567">
        <ele>58</ele>
        <time>2021-02-28T12:59:10Z</time>
      </trkpt>
      <trkpt lat="43.58556" lon="3.75667">
        <ele>58</ele>
        <time>2021-02-28T12:59:12Z</time>
      </trkpt>
      <trkpt lat="43.58559" lon="3.75663">
        <ele>58</ele>
        <time>2021-02-28T12:59:14Z</time>
      </trkpt>
      <trkpt lat="43.5856" lon="3.75661">
        <ele>58</ele>
        <time>2021-02-28T12:59:15Z</time>
      </trkpt>
      <trkpt lat="43.58563" lon="3.75659">
        <ele>58</ele>
        <time>2021-02-28T12:59:17Z</time>
      </trkpt>
      <trkpt lat="43.58565" lon="3.75655">
        <ele>58</ele>
        <time>2021-02-28T12:59:19Z</time>
      </trkpt>
      <trkpt lat="43.58566" lon="3.75651">
        <ele>58</ele>
        <time>2021-02-28T12:59:21Z</time>
      </trkpt>
      <trkpt lat="43.58568" lon="3.75649">
        <ele>62</ele>
        <time>2021-02-28T12:59:23Z</time>
      </trkpt>
      <trkpt lat="43.58569" lon="3.75646">
        <ele>62</ele>
        <time>2021-02-28T12:59:26Z</time>
      </trkpt>
      <trkpt lat="43.5857" lon="3.75643">
        <ele>62</ele>
        <time>2021-02-28T12:59:29Z</time>
      </trkpt>
      <trkpt lat="43.58568" lon="3.75645">
        <ele>62</ele>
        <time>2021-02-28T12:59:36Z</time>
      </trkpt>
      <trkpt lat="43.58567" lon="3.75647">
        <ele>64</ele>
        <time>2021-02-28T12:59:42Z</time>
      </trkpt>
      <trkpt lat="43.58574" lon="3.75641">
        <ele>67</ele>
        <time>2021-02-28T13:00:20Z</time>
      </trkpt>
      <trkpt lat="43.58576" lon="3.75639">
        <ele>67</ele>
        <time>2021-02-28T13:00:21Z</time>
      </trkpt>
      <trkpt lat="43.58577" lon="3.75637">
        <ele>67</ele>
        <time>2021-02-28T13:00:22Z</time>
      </trkpt>
      <trkpt lat="43.58578" lon="3.75635">
        <ele>67</ele>
        <time>2021-02-28T13:00:23Z</time>
      </trkpt>
      <trkpt lat="43.5858" lon="3.75633">
        <ele>67</ele>
        <time>2021-02-28T13:00:24Z</time>
      </trkpt>
      <trkpt lat="43.58581" lon="3.75631">
        <ele>67</ele>
        <time>2021-02-28T13:00:25Z</time>
      </trkpt>
      <trkpt lat="43.58582" lon="3.75629">
        <ele>67</ele>
        <time>2021-02-28T13:00:26Z</time>
      </trkpt>
      <trkpt lat="43.58583" lon="3.75627">
        <ele>67</ele>
        <time>2021-02-28T13:00:27Z</time>
      </trkpt>
      <trkpt lat="43.58586" lon="3.75624">
        <ele>68</ele>
        <time>2021-02-28T13:00:29Z</time>
      </trkpt>
      <trkpt lat="43.58587" lon="3.75622">
        <ele>68</ele>
        <time>2021-02-28T13:00:30Z</time>
      </trkpt>
      <trkpt lat="43.58589" lon="3.7562">
        <ele>68</ele>
        <time>2021-02-28T13:00:31Z</time>
      </trkpt>
      <trkpt lat="43.5859" lon="3.75618">
        <ele>68</ele>
        <time>2021-02-28T13:00:32Z</time>
      </trkpt>
      <trkpt lat="43.58591" lon="3.75616">
        <ele>68</ele>
        <time>2021-02-28T13:00:33Z</time>
      </trkpt>
      <trkpt lat="43.58592" lon="3.75614">
        <ele>68</ele>
        <time>2021-02-28T13:00:34Z</time>
      </trkpt>
      <trkpt lat="43.58593" lon="3.75612">
        <ele>68</ele>
        <time>2021-02-28T13:00:35Z</time>
      </trkpt>
      <trkpt lat="43.58595" lon="3.7561">
        <ele>68</ele>
        <time>2021-02-28T13:00:36Z</time>
      </trkpt>
      <trkpt lat="43.58597" lon="3.75608">
        <ele>68</ele>
        <time>2021-02-28T13:00:37Z</time>
      </trkpt>
      <trkpt lat="43.58599" lon="3.75606">
        <ele>68</ele>
        <time>2021-02-28T13:00:38Z</time>
      </trkpt>
      <trkpt lat="43.58601" lon="3.75602">
        <ele>68</ele>
        <time>2021-02-28T13:00:40Z</time>
      </trkpt>
      <trkpt lat="43.58603" lon="3.75601">
        <ele>68</ele>
        <time>2021-02-28T13:00:41Z</time>
      </trkpt>
      <trkpt lat="43.58604" lon="3.75599">
        <ele>68</ele>
        <time>2021-02-28T13:00:42Z</time>
      </trkpt>
      <trkpt lat="43.58606" lon="3.75597">
        <ele>68</ele>
        <time>2021-02-28T13:00:43Z</time>
      </trkpt>
      <trkpt lat="43.58609" lon="3.75596">
        <ele>68</ele>
        <time>2021-02-28T13:00:44Z</time>
      </trkpt>
      <trkpt lat="43.58611" lon="3.75596">
        <ele>68</ele>
        <time>2021-02-28T13:00:45Z</time>
      </trkpt>
      <trkpt lat="43.58612" lon="3.75595">
        <ele>68</ele>
        <time>2021-02-28T13:00:46Z</time>
      </trkpt>
      <trkpt lat="43.58614" lon="3.75594">
        <ele>68</ele>
        <time>2021-02-28T13:00:47Z</time>
      </trkpt>
      <trkpt lat="43.58616" lon="3.75593">
        <ele>68</ele>
        <time>2021-02-28T13:00:48Z</time>
      </trkpt>
      <trkpt lat="43.58618" lon="3.75592">
        <ele>71</ele>
        <time>2021-02-28T13:00:49Z</time>
      </trkpt>
      <trkpt lat="43.5862" lon="3.75592">
        <ele>71</ele>
        <time>2021-02-28T13:00:50Z</time>
      </trkpt>
      <trkpt lat="43.58622" lon="3.75591">
        <ele>71</ele>
        <time>2021-02-28T13:00:51Z</time>
      </trkpt>
      <trkpt lat="43.58624" lon="3.7559">
        <ele>71</ele>
        <time>2021-02-28T13:00:52Z</time>
      </trkpt>
      <trkpt lat="43.58626" lon="3.75589">
        <ele>71</ele>
        <time>2021-02-28T13:00:53Z</time>
      </trkpt>
      <trkpt lat="43.58628" lon="3.75589">
        <ele>71</ele>
        <time>2021-02-28T13:00:54Z</time>
      </trkpt>
      <trkpt lat="43.5863" lon="3.75588">
        <ele>71</ele>
        <time>2021-02-28T13:00:55Z</time>
      </trkpt>
      <trkpt lat="43.58632" lon="3.75588">
        <ele>71</ele>
        <time>2021-02-28T13:00:56Z</time>
      </trkpt>
      <trkpt lat="43.58634" lon="3.75587">
        <ele>71</ele>
        <time>2021-02-28T13:00:57Z</time>
      </trkpt>
      <trkpt lat="43.58636" lon="3.75587">
        <ele>71</ele>
        <time>2021-02-28T13:00:58Z</time>
      </trkpt>
      <trkpt lat="43.58638" lon="3.75586">
        <ele>73</ele>
        <time>2021-02-28T13:00:59Z</time>
      </trkpt>
      <trkpt lat="43.5864" lon="3.75586">
        <ele>73</ele>
        <time>2021-02-28T13:01:00Z</time>
      </trkpt>
      <trkpt lat="43.58642" lon="3.75585">
        <ele>73</ele>
        <time>2021-02-28T13:01:01Z</time>
      </trkpt>
      <trkpt lat="43.58644" lon="3.75585">
        <ele>73</ele>
        <time>2021-02-28T13:01:02Z</time>
      </trkpt>
      <trkpt lat="43.58645" lon="3.75585">
        <ele>73</ele>
        <time>2021-02-28T13:01:03Z</time>
      </trkpt>
      <trkpt lat="43.58647" lon="3.75585">
        <ele>73</ele>
        <time>2021-02-28T13:01:04Z</time>
      </trkpt>
      <trkpt lat="43.58649" lon="3.75585">
        <ele>73</ele>
        <time>2021-02-28T13:01:05Z</time>
      </trkpt>
      <trkpt lat="43.58653" lon="3.75584">
        <ele>73</ele>
        <time>2021-02-28T13:01:07Z</time>
      </trkpt>
      <trkpt lat="43.58656" lon="3.75584">
        <ele>75</ele>
        <time>2021-02-28T13:01:09Z</time>
      </trkpt>
      <trkpt lat="43.5866" lon="3.75584">
        <ele>75</ele>
        <time>2021-02-28T13:01:11Z</time>
      </trkpt>
      <trkpt lat="43.58663" lon="3.75584">
        <ele>75</ele>
        <time>2021-02-28T13:01:13Z</time>
      </trkpt>
      <trkpt lat="43.58667" lon="3.75583">
        <ele>75</ele>
        <time>2021-02-28T13:01:15Z</time>
      </trkpt>
      <trkpt lat="43.5867" lon="3.75583">
        <ele>75</ele>
        <time>2021-02-28T13:01:17Z</time>
      </trkpt>
      <trkpt lat="43.58674" lon="3.75582">
        <ele>77</ele>
        <time>2021-02-28T13:01:19Z</time>
      </trkpt>
      <trkpt lat="43.58677" lon="3.75582">
        <ele>77</ele>
        <time>2021-02-28T13:01:21Z</time>
      </trkpt>
      <trkpt lat="43.5868" lon="3.75581">
        <ele>77</ele>
        <time>2021-02-28T13:01:23Z</time>
      </trkpt>
      <trkpt lat="43.58684" lon="3.75581">
        <ele>77</ele>
        <time>2021-02-28T13:01:25Z</time>
      </trkpt>
      <trkpt lat="43.58687" lon="3.7558">
        <ele>77</ele>
        <time>2021-02-28T13:01:27Z</time>
      </trkpt>
      <trkpt lat="43.5869" lon="3.75579">
        <ele>80</ele>
        <time>2021-02-28T13:01:29Z</time>
      </trkpt>
      <trkpt lat="43.58692" lon="3.75578">
        <ele>80</ele>
        <time>2021-02-28T13:01:30Z</time>
      </trkpt>
      <trkpt lat="43.58694" lon="3.75578">
        <ele>80</ele>
        <time>2021-02-28T13:01:31Z</time>
      </trkpt>
      <trkpt lat="43.58696" lon="3.75577">
        <ele>80</ele>
        <time>2021-02-28T13:01:32Z</time>
      </trkpt>
      <trkpt lat="43.58698" lon="3.75576">
        <ele>80</ele>
        <time>2021-02-28T13:01:33Z</time>
      </trkpt>
      <trkpt lat="43.587" lon="3.75575">
        <ele>80</ele>
        <time>2021-02-28T13:01:34Z</time>
      </trkpt>
      <trkpt lat="43.58702" lon="3.75575">
        <ele>80</ele>
        <time>2021-02-28T13:01:35Z</time>
      </trkpt>
      <trkpt lat="43.58704" lon="3.75574">
        <ele>80</ele>
        <time>2021-02-28T13:01:36Z</time>
      </trkpt>
      <trkpt lat="43.58707" lon="3.75572">
        <ele>80</ele>
        <time>2021-02-28T13:01:38Z</time>
      </trkpt>
      <trkpt lat="43.58709" lon="3.75572">
        <ele>81</ele>
        <time>2021-02-28T13:01:39Z</time>
      </trkpt>
      <trkpt lat="43.58711" lon="3.75571">
        <ele>81</ele>
        <time>2021-02-28T13:01:40Z</time>
      </trkpt>
      <trkpt lat="43.58713" lon="3.7557">
        <ele>81</ele>
        <time>2021-02-28T13:01:41Z</time>
      </trkpt>
      <trkpt lat="43.58715" lon="3.7557">
        <ele>81</ele>
        <time>2021-02-28T13:01:42Z</time>
      </trkpt>
      <trkpt lat="43.58716" lon="3.75569">
        <ele>81</ele>
        <time>2021-02-28T13:01:43Z</time>
      </trkpt>
      <trkpt lat="43.5872" lon="3.75568">
        <ele>81</ele>
        <time>2021-02-28T13:01:45Z</time>
      </trkpt>
      <trkpt lat="43.58722" lon="3.75567">
        <ele>81</ele>
        <time>2021-02-28T13:01:46Z</time>
      </trkpt>
      <trkpt lat="43.58724" lon="3.75567">
        <ele>81</ele>
        <time>2021-02-28T13:01:47Z</time>
      </trkpt>
      <trkpt lat="43.58726" lon="3.75566">
        <ele>81</ele>
        <time>2021-02-28T13:01:48Z</time>
      </trkpt>
      <trkpt lat="43.58728" lon="3.75566">
        <ele>82</ele>
        <time>2021-02-28T13:01:49Z</time>
      </trkpt>
      <trkpt lat="43.58731" lon="3.75566">
        <ele>82</ele>
        <time>2021-02-28T13:01:51Z</time>
      </trkpt>
      <trkpt lat="43.58734" lon="3.75565">
        <ele>82</ele>
        <time>2021-02-28T13:01:53Z</time>
      </trkpt>
      <trkpt lat="43.58736" lon="3.75565">
        <ele>82</ele>
        <time>2021-02-28T13:01:54Z</time>
      </trkpt>
      <trkpt lat="43.58738" lon="3.75565">
        <ele>82</ele>
        <time>2021-02-28T13:01:55Z</time>
      </trkpt>
      <trkpt lat="43.58742" lon="3.75564">
        <ele>82</ele>
        <time>2021-02-28T13:01:57Z</time>
      </trkpt>
      <trkpt lat="43.58743" lon="3.75563">
        <ele>82</ele>
        <time>2021-02-28T13:01:58Z</time>
      </trkpt>
      <trkpt lat="43.58745" lon="3.75563">
        <ele>83</ele>
        <time>2021-02-28T13:01:59Z</time>
      </trkpt>
      <trkpt lat="43.58749" lon="3.75562">
        <ele>83</ele>
        <time>2021-02-28T13:02:01Z</time>
      </trkpt>
      <trkpt lat="43.58752" lon="3.75562">
        <ele>83</ele>
        <time>2021-02-28T13:02:03Z</time>
      </trkpt>
      <trkpt lat="43.58756" lon="3.75561">
        <ele>83</ele>
        <time>2021-02-28T13:02:05Z</time>
      </trkpt>
      <trkpt lat="43.58757" lon="3.7556">
        <ele>83</ele>
        <time>2021-02-28T13:02:06Z</time>
      </trkpt>
      <trkpt lat="43.58759" lon="3.7556">
        <ele>83</ele>
        <time>2021-02-28T13:02:07Z</time>
      </trkpt>
      <trkpt lat="43.58761" lon="3.75559">
        <ele>83</ele>
        <time>2021-02-28T13:02:08Z</time>
      </trkpt>
      <trkpt lat="43.58763" lon="3.75559">
        <ele>85</ele>
        <time>2021-02-28T13:02:09Z</time>
      </trkpt>
      <trkpt lat="43.58765" lon="3.75558">
        <ele>85</ele>
        <time>2021-02-28T13:02:10Z</time>
      </trkpt>
      <trkpt lat="43.58767" lon="3.75558">
        <ele>85</ele>
        <time>2021-02-28T13:02:11Z</time>
      </trkpt>
      <trkpt lat="43.58769" lon="3.75557">
        <ele>85</ele>
        <time>2021-02-28T13:02:12Z</time>
      </trkpt>
      <trkpt lat="43.58773" lon="3.75556">
        <ele>85</ele>
        <time>2021-02-28T13:02:14Z</time>
      </trkpt>
      <trkpt lat="43.58775" lon="3.75556">
        <ele>85</ele>
        <time>2021-02-28T13:02:15Z</time>
      </trkpt>
      <trkpt lat="43.58777" lon="3.75555">
        <ele>85</ele>
        <time>2021-02-28T13:02:16Z</time>
      </trkpt>
      <trkpt lat="43.58779" lon="3.75555">
        <ele>85</ele>
        <time>2021-02-28T13:02:17Z</time>
      </trkpt>
      <trkpt lat="43.58781" lon="3.75554">
        <ele>85</ele>
        <time>2021-02-28T13:02:18Z</time>
      </trkpt>
      <trkpt lat="43.58783" lon="3.75553">
        <ele>86</ele>
        <time>2021-02-28T13:02:19Z</time>
      </trkpt>
      <trkpt lat="43.58785" lon="3.75552">
        <ele>86</ele>
        <time>2021-02-28T13:02:20Z</time>
      </trkpt>
      <trkpt lat="43.58788" lon="3.75551">
        <ele>86</ele>
        <time>2021-02-28T13:02:21Z</time>
      </trkpt>
      <trkpt lat="43.5879" lon="3.7555">
        <ele>86</ele>
        <time>2021-02-28T13:02:22Z</time>
      </trkpt>
      <trkpt lat="43.58793" lon="3.75548">
        <ele>86</ele>
        <time>2021-02-28T13:02:23Z</time>
      </trkpt>
      <trkpt lat="43.58795" lon="3.75547">
        <ele>86</ele>
        <time>2021-02-28T13:02:24Z</time>
      </trkpt>
      <trkpt lat="43.58798" lon="3.75545">
        <ele>86</ele>
        <time>2021-02-28T13:02:25Z</time>
      </trkpt>
      <trkpt lat="43.588" lon="3.75544">
        <ele>86</ele>
        <time>2021-02-28T13:02:26Z</time>
      </trkpt>
      <trkpt lat="43.58803" lon="3.75542">
        <ele>86</ele>
        <time>2021-02-28T13:02:27Z</time>
      </trkpt>
      <trkpt lat="43.58805" lon="3.7554">
        <ele>86</ele>
        <time>2021-02-28T13:02:28Z</time>
      </trkpt>
      <trkpt lat="43.58808" lon="3.75537">
        <ele>87</ele>
        <time>2021-02-28T13:02:29Z</time>
      </trkpt>
      <trkpt lat="43.5881" lon="3.75535">
        <ele>87</ele>
        <time>2021-02-28T13:02:30Z</time>
      </trkpt>
      <trkpt lat="43.58812" lon="3.75532">
        <ele>87</ele>
        <time>2021-02-28T13:02:31Z</time>
      </trkpt>
      <trkpt lat="43.58815" lon="3.7553">
        <ele>87</ele>
        <time>2021-02-28T13:02:32Z</time>
      </trkpt>
      <trkpt lat="43.58817" lon="3.75527">
        <ele>87</ele>
        <time>2021-02-28T13:02:33Z</time>
      </trkpt>
      <trkpt lat="43.58819" lon="3.75525">
        <ele>87</ele>
        <time>2021-02-28T13:02:34Z</time>
      </trkpt>
      <trkpt lat="43.58821" lon="3.75522">
        <ele>87</ele>
        <time>2021-02-28T13:02:35Z</time>
      </trkpt>
      <trkpt lat="43.58823" lon="3.75519">
        <ele>87</ele>
        <time>2021-02-28T13:02:36Z</time>
      </trkpt>
      <trkpt lat="43.58825" lon="3.75516">
        <ele>87</ele>
        <time>2021-02-28T13:02:37Z</time>
      </trkpt>
      <trkpt lat="43.58828" lon="3.75512">
        <ele>87</ele>
        <time>2021-02-28T13:02:38Z</time>
      </trkpt>
      <trkpt lat="43.5883" lon="3.75509">
        <ele>88</ele>
        <time>2021-02-28T13:02:39Z</time>
      </trkpt>
      <trkpt lat="43.58832" lon="3.75506">
        <ele>88</ele>
        <time>2021-02-28T13:02:40Z</time>
      </trkpt>
      <trkpt lat="43.58834" lon="3.75503">
        <ele>88</ele>
        <time>2021-02-28T13:02:41Z</time>
      </trkpt>
      <trkpt lat="43.58836" lon="3.755">
        <ele>88</ele>
        <time>2021-02-28T13:02:42Z</time>
      </trkpt>
      <trkpt lat="43.58839" lon="3.75497">
        <ele>88</ele>
        <time>2021-02-28T13:02:43Z</time>
      </trkpt>
      <trkpt lat="43.58841" lon="3.75493">
        <ele>88</ele>
        <time>2021-02-28T13:02:44Z</time>
      </trkpt>
      <trkpt lat="43.58843" lon="3.7549">
        <ele>88</ele>
        <time>2021-02-28T13:02:45Z</time>
      </trkpt>
      <trkpt lat="43.58845" lon="3.75486">
        <ele>88</ele>
        <time>2021-02-28T13:02:46Z</time>
      </trkpt>
      <trkpt lat="43.58847" lon="3.75483">
        <ele>88</ele>
        <time>2021-02-28T13:02:47Z</time>
      </trkpt>
      <trkpt lat="43.5885" lon="3.7548">
        <ele>88</ele>
        <time>2021-02-28T13:02:48Z</time>
      </trkpt>
      <trkpt lat="43.58852" lon="3.75478">
        <ele>89</ele>
        <time>2021-02-28T13:02:49Z</time>
      </trkpt>
      <trkpt lat="43.58854" lon="3.75475">
        <ele>89</ele>
        <time>2021-02-28T13:02:50Z</time>
      </trkpt>
      <trkpt lat="43.58856" lon="3.75472">
        <ele>89</ele>
        <time>2021-02-28T13:02:51Z</time>
      </trkpt>
      <trkpt lat="43.58858" lon="3.7547">
        <ele>89</ele>
        <time>2021-02-28T13:02:52Z</time>
      </trkpt>
      <trkpt lat="43.58861" lon="3.75467">
        <ele>89</ele>
        <time>2021-02-28T13:02:53Z</time>
      </trkpt>
      <trkpt lat="43.58863" lon="3.75465">
        <ele>89</ele>
        <time>2021-02-28T13:02:54Z</time>
      </trkpt>
      <trkpt lat="43.58866" lon="3.75462">
        <ele>89</ele>
        <time>2021-02-28T13:02:55Z</time>
      </trkpt>
      <trkpt lat="43.58868" lon="3.75459">
        <ele>89</ele>
        <time>2021-02-28T13:02:56Z</time>
      </trkpt>
      <trkpt lat="43.58871" lon="3.75456">
        <ele>89</ele>
        <time>2021-02-28T13:02:57Z</time>
      </trkpt>
      <trkpt lat="43.58873" lon="3.75453">
        <ele>89</ele>
        <time>2021-02-28T13:02:58Z</time>
      </trkpt>
      <trkpt lat="43.58876" lon="3.7545">
        <ele>88</ele>
        <time>2021-02-28T13:02:59Z</time>
      </trkpt>
      <trkpt lat="43.58878" lon="3.75447">
        <ele>88</ele>
        <time>2021-02-28T13:03:00Z</time>
      </trkpt>
      <trkpt lat="43.58881" lon="3.75444">
        <ele>88</ele>
        <time>2021-02-28T13:03:01Z</time>
      </trkpt>
      <trkpt lat="43.58883" lon="3.75441">
        <ele>88</ele>
        <time>2021-02-28T13:03:02Z</time>
      </trkpt>
      <trkpt lat="43.58885" lon="3.75438">
        <ele>88</ele>
        <time>2021-02-28T13:03:03Z</time>
      </trkpt>
      <trkpt lat="43.58888" lon="3.75436">
        <ele>88</ele>
        <time>2021-02-28T13:03:04Z</time>
      </trkpt>
      <trkpt lat="43.58891" lon="3.75433">
        <ele>88</ele>
        <time>2021-02-28T13:03:05Z</time>
      </trkpt>
      <trkpt lat="43.58893" lon="3.7543">
        <ele>88</ele>
        <time>2021-02-28T13:03:06Z</time>
      </trkpt>
      <trkpt lat="43.58896" lon="3.75427">
        <ele>88</ele>
        <time>2021-02-28T13:03:07Z</time>
      </trkpt>
      <trkpt lat="43.58898" lon="3.75424">
        <ele>88</ele>
        <time>2021-02-28T13:03:08Z</time>
      </trkpt>
      <trkpt lat="43.58901" lon="3.75421">
        <ele>89</ele>
        <time>2021-02-28T13:03:09Z</time>
      </trkpt>
      <trkpt lat="43.58903" lon="3.75418">
        <ele>89</ele>
        <time>2021-02-28T13:03:10Z</time>
      </trkpt>
      <trkpt lat="43.58907" lon="3.75411">
        <ele>89</ele>
        <time>2021-02-28T13:03:12Z</time>
      </trkpt>
      <trkpt lat="43.58909" lon="3.75408">
        <ele>89</ele>
        <time>2021-02-28T13:03:13Z</time>
      </trkpt>
      <trkpt lat="43.58911" lon="3.75404">
        <ele>89</ele>
        <time>2021-02-28T13:03:14Z</time>
      </trkpt>
      <trkpt lat="43.58914" lon="3.75401">
        <ele>89</ele>
        <time>2021-02-28T13:03:15Z</time>
      </trkpt>
      <trkpt lat="43.58916" lon="3.75398">
        <ele>89</ele>
        <time>2021-02-28T13:03:16Z</time>
      </trkpt>
      <trkpt lat="43.58918" lon="3.75395">
        <ele>89</ele>
        <time>2021-02-28T13:03:17Z</time>
      </trkpt>
      <trkpt lat="43.5892" lon="3.75392">
        <ele>89</ele>
        <time>2021-02-28T13:03:18Z</time>
      </trkpt>
      <trkpt lat="43.58922" lon="3.75389">
        <ele>89</ele>
        <time>2021-02-28T13:03:19Z</time>
      </trkpt>
      <trkpt lat="43.58924" lon="3.75386">
        <ele>89</ele>
        <time>2021-02-28T13:03:20Z</time>
      </trkpt>
      <trkpt lat="43.58926" lon="3.75384">
        <ele>89</ele>
        <time>2021-02-28T13:03:21Z</time>
      </trkpt>
      <trkpt lat="43.58928" lon="3.75381">
        <ele>89</ele>
        <time>2021-02-28T13:03:22Z</time>
      </trkpt>
      <trkpt lat="43.5893" lon="3.75379">
        <ele>89</ele>
        <time>2021-02-28T13:03:23Z</time>
      </trkpt>
      <trkpt lat="43.58931" lon="3.75377">
        <ele>89</ele>
        <time>2021-02-28T13:03:24Z</time>
      </trkpt>
      <trkpt lat="43.58933" lon="3.75376">
        <ele>89</ele>
        <time>2021-02-28T13:03:25Z</time>
      </trkpt>
      <trkpt lat="43.58935" lon="3.75375">
        <ele>89</ele>
        <time>2021-02-28T13:03:26Z</time>
      </trkpt>
      <trkpt lat="43.58937" lon="3.75375">
        <ele>89</ele>
        <time>2021-02-28T13:03:27Z</time>
      </trkpt>
      <trkpt lat="43.5894" lon="3.75377">
        <ele>89</ele>
        <time>2021-02-28T13:03:28Z</time>
      </trkpt>
      <trkpt lat="43.58942" lon="3.75379">
        <ele>90</ele>
        <time>2021-02-28T13:03:29Z</time>
      </trkpt>
      <trkpt lat="43.58945" lon="3.75381">
        <ele>90</ele>
        <time>2021-02-28T13:03:30Z</time>
      </trkpt>
      <trkpt lat="43.58948" lon="3.75384">
        <ele>90</ele>
        <time>2021-02-28T13:03:31Z</time>
      </trkpt>
      <trkpt lat="43.58951" lon="3.75386">
        <ele>90</ele>
        <time>2021-02-28T13:03:32Z</time>
      </trkpt>
      <trkpt lat="43.58954" lon="3.75388">
        <ele>90</ele>
        <time>2021-02-28T13:03:33Z</time>
      </trkpt>
      <trkpt lat="43.58957" lon="3.7539">
        <ele>90</ele>
        <time>2021-02-28T13:03:34Z</time>
      </trkpt>
      <trkpt lat="43.5896" lon="3.75392">
        <ele>90</ele>
        <time>2021-02-28T13:03:35Z</time>
      </trkpt>
      <trkpt lat="43.58963" lon="3.75394">
        <ele>90</ele>
        <time>2021-02-28T13:03:36Z</time>
      </trkpt>
      <trkpt lat="43.58966" lon="3.75396">
        <ele>90</ele>
        <time>2021-02-28T13:03:37Z</time>
      </trkpt>
      <trkpt lat="43.58969" lon="3.75398">
        <ele>90</ele>
        <time>2021-02-28T13:03:38Z</time>
      </trkpt>
      <trkpt lat="43.58972" lon="3.754">
        <ele>90</ele>
        <time>2021-02-28T13:03:39Z</time>
      </trkpt>
      <trkpt lat="43.58975" lon="3.75402">
        <ele>90</ele>
        <time>2021-02-28T13:03:40Z</time>
      </trkpt>
      <trkpt lat="43.58978" lon="3.75405">
        <ele>90</ele>
        <time>2021-02-28T13:03:41Z</time>
      </trkpt>
      <trkpt lat="43.58981" lon="3.75407">
        <ele>90</ele>
        <time>2021-02-28T13:03:42Z</time>
      </trkpt>
      <trkpt lat="43.58984" lon="3.75409">
        <ele>90</ele>
        <time>2021-02-28T13:03:43Z</time>
      </trkpt>
      <trkpt lat="43.58986" lon="3.75411">
        <ele>90</ele>
        <time>2021-02-28T13:03:44Z</time>
      </trkpt>
      <trkpt lat="43.58989" lon="3.75413">
        <ele>90</ele>
        <time>2021-02-28T13:03:45Z</time>
      </trkpt>
      <trkpt lat="43.58992" lon="3.75416">
        <ele>90</ele>
        <time>2021-02-28T13:03:46Z</time>
      </trkpt>
      <trkpt lat="43.58994" lon="3.75418">
        <ele>90</ele>
        <time>2021-02-28T13:03:47Z</time>
      </trkpt>
      <trkpt lat="43.58997" lon="3.75421">
        <ele>90</ele>
        <time>2021-02-28T13:03:48Z</time>
      </trkpt>
      <trkpt lat="43.59001" lon="3.75426">
        <ele>91</ele>
        <time>2021-02-28T13:03:50Z</time>
      </trkpt>
      <trkpt lat="43.59004" lon="3.75429">
        <ele>91</ele>
        <time>2021-02-28T13:03:51Z</time>
      </trkpt>
      <trkpt lat="43.59006" lon="3.75431">
        <ele>91</ele>
        <time>2021-02-28T13:03:52Z</time>
      </trkpt>
      <trkpt lat="43.59009" lon="3.75434">
        <ele>91</ele>
        <time>2021-02-28T13:03:53Z</time>
      </trkpt>
      <trkpt lat="43.59011" lon="3.75436">
        <ele>91</ele>
        <time>2021-02-28T13:03:54Z</time>
      </trkpt>
      <trkpt lat="43.59014" lon="3.75438">
        <ele>91</ele>
        <time>2021-02-28T13:03:55Z</time>
      </trkpt>
      <trkpt lat="43.59016" lon="3.7544">
        <ele>91</ele>
        <time>2021-02-28T13:03:56Z</time>
      </trkpt>
      <trkpt lat="43.59019" lon="3.75442">
        <ele>91</ele>
        <time>2021-02-28T13:03:57Z</time>
      </trkpt>
      <trkpt lat="43.59022" lon="3.75444">
        <ele>91</ele>
        <time>2021-02-28T13:03:58Z</time>
      </trkpt>
      <trkpt lat="43.59024" lon="3.75445">
        <ele>93</ele>
        <time>2021-02-28T13:03:59Z</time>
      </trkpt>
      <trkpt lat="43.59027" lon="3.75447">
        <ele>93</ele>
        <time>2021-02-28T13:04:00Z</time>
      </trkpt>
      <trkpt lat="43.5903" lon="3.75449">
        <ele>93</ele>
        <time>2021-02-28T13:04:01Z</time>
      </trkpt>
      <trkpt lat="43.59032" lon="3.7545">
        <ele>93</ele>
        <time>2021-02-28T13:04:02Z</time>
      </trkpt>
      <trkpt lat="43.59035" lon="3.75452">
        <ele>93</ele>
        <time>2021-02-28T13:04:03Z</time>
      </trkpt>
      <trkpt lat="43.59037" lon="3.75454">
        <ele>93</ele>
        <time>2021-02-28T13:04:04Z</time>
      </trkpt>
      <trkpt lat="43.5904" lon="3.75456">
        <ele>93</ele>
        <time>2021-02-28T13:04:05Z</time>
      </trkpt>
      <trkpt lat="43.59043" lon="3.75457">
        <ele>93</ele>
        <time>2021-02-28T13:04:06Z</time>
      </trkpt>
      <trkpt lat="43.59045" lon="3.75459">
        <ele>93</ele>
        <time>2021-02-28T13:04:07Z</time>
      </trkpt>
      <trkpt lat="43.59048" lon="3.75461">
        <ele>93</ele>
        <time>2021-02-28T13:04:08Z</time>
      </trkpt>
      <trkpt lat="43.59051" lon="3.75463">
        <ele>95</ele>
        <time>2021-02-28T13:04:09Z</time>
      </trkpt>
      <trkpt lat="43.59053" lon="3.75465">
        <ele>95</ele>
        <time>2021-02-28T13:04:10Z</time>
      </trkpt>
      <trkpt lat="43.59056" lon="3.75466">
        <ele>95</ele>
        <time>2021-02-28T13:04:11Z</time>
      </trkpt>
      <trkpt lat="43.59059" lon="3.75468">
        <ele>95</ele>
        <time>2021-02-28T13:04:12Z</time>
      </trkpt>
      <trkpt lat="43.59061" lon="3.7547">
        <ele>95</ele>
        <time>2021-02-28T13:04:13Z</time>
      </trkpt>
      <trkpt lat="43.59064" lon="3.75472">
        <ele>95</ele>
        <time>2021-02-28T13:04:14Z</time>
      </trkpt>
      <trkpt lat="43.59067" lon="3.75474">
        <ele>95</ele>
        <time>2021-02-28T13:04:15Z</time>
      </trkpt>
      <trkpt lat="43.59069" lon="3.75475">
        <ele>95</ele>
        <time>2021-02-28T13:04:16Z</time>
      </trkpt>
      <trkpt lat="43.59072" lon="3.75477">
        <ele>95</ele>
        <time>2021-02-28T13:04:17Z</time>
      </trkpt>
      <trkpt lat="43.59075" lon="3.75479">
        <ele>95</ele>
        <time>2021-02-28T13:04:18Z</time>
      </trkpt>
      <trkpt lat="43.59077" lon="3.75481">
        <ele>97</ele>
        <time>2021-02-28T13:04:19Z</time>
      </trkpt>
      <trkpt lat="43.5908" lon="3.75483">
        <ele>97</ele>
        <time>2021-02-28T13:04:20Z</time>
      </trkpt>
      <trkpt lat="43.59083" lon="3.75484">
        <ele>97</ele>
        <time>2021-02-28T13:04:21Z</time>
      </trkpt>
      <trkpt lat="43.59085" lon="3.75486">
        <ele>97</ele>
        <time>2021-02-28T13:04:22Z</time>
      </trkpt>
      <trkpt lat="43.59088" lon="3.75488">
        <ele>97</ele>
        <time>2021-02-28T13:04:23Z</time>
      </trkpt>
      <trkpt lat="43.59091" lon="3.7549">
        <ele>97</ele>
        <time>2021-02-28T13:04:24Z</time>
      </trkpt>
      <trkpt lat="43.59093" lon="3.75492">
        <ele>97</ele>
        <time>2021-02-28T13:04:25Z</time>
      </trkpt>
      <trkpt lat="43.59096" lon="3.75494">
        <ele>97</ele>
        <time>2021-02-28T13:04:26Z</time>
      </trkpt>
      <trkpt lat="43.59099" lon="3.75495">
        <ele>97</ele>
        <time>2021-02-28T13:04:27Z</time>
      </trkpt>
      <trkpt lat="43.59101" lon="3.75496">
        <ele>97</ele>
        <time>2021-02-28T13:04:28Z</time>
      </trkpt>
      <trkpt lat="43.59104" lon="3.75495">
        <ele>99</ele>
        <time>2021-02-28T13:04:29Z</time>
      </trkpt>
      <trkpt lat="43.59107" lon="3.75494">
        <ele>99</ele>
        <time>2021-02-28T13:04:30Z</time>
      </trkpt>
      <trkpt lat="43.59109" lon="3.75493">
        <ele>99</ele>
        <time>2021-02-28T13:04:31Z</time>
      </trkpt>
      <trkpt lat="43.59112" lon="3.7549">
        <ele>99</ele>
        <time>2021-02-28T13:04:32Z</time>
      </trkpt>
      <trkpt lat="43.59114" lon="3.75488">
        <ele>99</ele>
        <time>2021-02-28T13:04:33Z</time>
      </trkpt>
      <trkpt lat="43.59116" lon="3.75486">
        <ele>99</ele>
        <time>2021-02-28T13:04:34Z</time>
      </trkpt>
      <trkpt lat="43.59117" lon="3.75484">
        <ele>99</ele>
        <time>2021-02-28T13:04:35Z</time>
      </trkpt>
      <trkpt lat="43.59119" lon="3.75482">
        <ele>99</ele>
        <time>2021-02-28T13:04:36Z</time>
      </trkpt>
      <trkpt lat="43.59121" lon="3.7548">
        <ele>99</ele>
        <time>2021-02-28T13:04:37Z</time>
      </trkpt>
      <trkpt lat="43.59124" lon="3.75479">
        <ele>99</ele>
        <time>2021-02-28T13:04:38Z</time>
      </trkpt>
      <trkpt lat="43.59126" lon="3.75477">
        <ele>100</ele>
        <time>2021-02-28T13:04:39Z</time>
      </trkpt>
      <trkpt lat="43.59128" lon="3.75475">
        <ele>100</ele>
        <time>2021-02-28T13:04:40Z</time>
      </trkpt>
      <trkpt lat="43.5913" lon="3.75473">
        <ele>100</ele>
        <time>2021-02-28T13:04:41Z</time>
      </trkpt>
      <trkpt lat="43.59132" lon="3.75471">
        <ele>100</ele>
        <time>2021-02-28T13:04:42Z</time>
      </trkpt>
      <trkpt lat="43.59134" lon="3.75469">
        <ele>100</ele>
        <time>2021-02-28T13:04:43Z</time>
      </trkpt>
      <trkpt lat="43.59136" lon="3.75467">
        <ele>100</ele>
        <time>2021-02-28T13:04:44Z</time>
      </trkpt>
      <trkpt lat="43.59138" lon="3.75465">
        <ele>100</ele>
        <time>2021-02-28T13:04:45Z</time>
      </trkpt>
      <trkpt lat="43.5914" lon="3.75463">
        <ele>100</ele>
        <time>2021-02-28T13:04:46Z</time>
      </trkpt>
      <trkpt lat="43.59142" lon="3.75461">
        <ele>100</ele>
        <time>2021-02-28T13:04:47Z</time>
      </trkpt>
      <trkpt lat="43.59144" lon="3.7546">
        <ele>100</ele>
        <time>2021-02-28T13:04:48Z</time>
      </trkpt>
      <trkpt lat="43.59146" lon="3.75458">
        <ele>101</ele>
        <time>2021-02-28T13:04:49Z</time>
      </trkpt>
      <trkpt lat="43.59149" lon="3.75456">
        <ele>101</ele>
        <time>2021-02-28T13:04:50Z</time>
      </trkpt>
      <trkpt lat="43.59151" lon="3.75454">
        <ele>101</ele>
        <time>2021-02-28T13:04:51Z</time>
      </trkpt>
      <trkpt lat="43.59153" lon="3.75452">
        <ele>101</ele>
        <time>2021-02-28T13:04:52Z</time>
      </trkpt>
      <trkpt lat="43.59155" lon="3.7545">
        <ele>101</ele>
        <time>2021-02-28T13:04:53Z</time>
      </trkpt>
      <trkpt lat="43.59158" lon="3.75448">
        <ele>101</ele>
        <time>2021-02-28T13:04:54Z</time>
      </trkpt>
      <trkpt lat="43.5916" lon="3.75447">
        <ele>101</ele>
        <time>2021-02-28T13:04:55Z</time>
      </trkpt>
      <trkpt lat="43.59162" lon="3.75445">
        <ele>101</ele>
        <time>2021-02-28T13:04:56Z</time>
      </trkpt>
      <trkpt lat="43.59164" lon="3.75443">
        <ele>101</ele>
        <time>2021-02-28T13:04:57Z</time>
      </trkpt>
      <trkpt lat="43.59167" lon="3.7544">
        <ele>101</ele>
        <time>2021-02-28T13:04:58Z</time>
      </trkpt>
      <trkpt lat="43.59169" lon="3.75438">
        <ele>102</ele>
        <time>2021-02-28T13:04:59Z</time>
      </trkpt>
      <trkpt lat="43.59171" lon="3.75436">
        <ele>102</ele>
        <time>2021-02-28T13:05:00Z</time>
      </trkpt>
      <trkpt lat="43.59173" lon="3.75434">
        <ele>102</ele>
        <time>2021-02-28T13:05:01Z</time>
      </trkpt>
      <trkpt lat="43.59175" lon="3.75432">
        <ele>102</ele>
        <time>2021-02-28T13:05:02Z</time>
      </trkpt>
      <trkpt lat="43.59177" lon="3.7543">
        <ele>102</ele>
        <time>2021-02-28T13:05:03Z</time>
      </trkpt>
      <trkpt lat="43.5918" lon="3.75427">
        <ele>102</ele>
        <time>2021-02-28T13:05:04Z</time>
      </trkpt>
      <trkpt lat="43.59182" lon="3.75425">
        <ele>102</ele>
        <time>2021-02-28T13:05:05Z</time>
      </trkpt>
      <trkpt lat="43.59184" lon="3.75423">
        <ele>102</ele>
        <time>2021-02-28T13:05:06Z</time>
      </trkpt>
      <trkpt lat="43.59187" lon="3.7542">
        <ele>102</ele>
        <time>2021-02-28T13:05:07Z</time>
      </trkpt>
      <trkpt lat="43.59189" lon="3.75418">
        <ele>102</ele>
        <time>2021-02-28T13:05:08Z</time>
      </trkpt>
      <trkpt lat="43.59192" lon="3.75416">
        <ele>103</ele>
        <time>2021-02-28T13:05:09Z</time>
      </trkpt>
      <trkpt lat="43.59194" lon="3.75414">
        <ele>103</ele>
        <time>2021-02-28T13:05:10Z</time>
      </trkpt>
      <trkpt lat="43.59197" lon="3.75412">
        <ele>103</ele>
        <time>2021-02-28T13:05:11Z</time>
      </trkpt>
      <trkpt lat="43.59199" lon="3.75409">
        <ele>103</ele>
        <time>2021-02-28T13:05:12Z</time>
      </trkpt>
      <trkpt lat="43.59202" lon="3.75407">
        <ele>103</ele>
        <time>2021-02-28T13:05:13Z</time>
      </trkpt>
      <trkpt lat="43.59204" lon="3.75405">
        <ele>103</ele>
        <time>2021-02-28T13:05:14Z</time>
      </trkpt>
      <trkpt lat="43.59206" lon="3.75403">
        <ele>103</ele>
        <time>2021-02-28T13:05:15Z</time>
      </trkpt>
      <trkpt lat="43.59208" lon="3.75401">
        <ele>103</ele>
        <time>2021-02-28T13:05:16Z</time>
      </trkpt>
      <trkpt lat="43.5921" lon="3.75399">
        <ele>103</ele>
        <time>2021-02-28T13:05:17Z</time>
      </trkpt>
      <trkpt lat="43.59213" lon="3.75396">
        <ele>103</ele>
        <time>2021-02-28T13:05:18Z</time>
      </trkpt>
      <trkpt lat="43.59216" lon="3.75393">
        <ele>104</ele>
        <time>2021-02-28T13:05:19Z</time>
      </trkpt>
      <trkpt lat="43.59219" lon="3.75391">
        <ele>104</ele>
        <time>2021-02-28T13:05:20Z</time>
      </trkpt>
      <trkpt lat="43.59222" lon="3.75388">
        <ele>104</ele>
        <time>2021-02-28T13:05:21Z</time>
      </trkpt>
      <trkpt lat="43.59226" lon="3.75385">
        <ele>104</ele>
        <time>2021-02-28T13:05:22Z</time>
      </trkpt>
      <trkpt lat="43.59229" lon="3.75383">
        <ele>104</ele>
        <time>2021-02-28T13:05:23Z</time>
      </trkpt>
      <trkpt lat="43.59232" lon="3.7538">
        <ele>104</ele>
        <time>2021-02-28T13:05:24Z</time>
      </trkpt>
      <trkpt lat="43.59235" lon="3.75377">
        <ele>104</ele>
        <time>2021-02-28T13:05:25Z</time>
      </trkpt>
      <trkpt lat="43.59239" lon="3.75374">
        <ele>104</ele>
        <time>2021-02-28T13:05:26Z</time>
      </trkpt>
      <trkpt lat="43.59242" lon="3.75371">
        <ele>104</ele>
        <time>2021-02-28T13:05:27Z</time>
      </trkpt>
      <trkpt lat="43.59245" lon="3.75368">
        <ele>104</ele>
        <time>2021-02-28T13:05:28Z</time>
      </trkpt>
      <trkpt lat="43.59249" lon="3.75365">
        <ele>104</ele>
        <time>2021-02-28T13:05:29Z</time>
      </trkpt>
      <trkpt lat="43.59252" lon="3.75362">
        <ele>104</ele>
        <time>2021-02-28T13:05:30Z</time>
      </trkpt>
      <trkpt lat="43.59255" lon="3.7536">
        <ele>104</ele>
        <time>2021-02-28T13:05:31Z</time>
      </trkpt>
      <trkpt lat="43.59259" lon="3.75357">
        <ele>104</ele>
        <time>2021-02-28T13:05:32Z</time>
      </trkpt>
      <trkpt lat="43.59262" lon="3.75354">
        <ele>104</ele>
        <time>2021-02-28T13:05:33Z</time>
      </trkpt>
      <trkpt lat="43.59265" lon="3.75351">
        <ele>104</ele>
        <time>2021-02-28T13:05:34Z</time>
      </trkpt>
      <trkpt lat="43.59268" lon="3.75348">
        <ele>104</ele>
        <time>2021-02-28T13:05:35Z</time>
      </trkpt>
      <trkpt lat="43.59271" lon="3.75346">
        <ele>104</ele>
        <time>2021-02-28T13:05:36Z</time>
      </trkpt>
      <trkpt lat="43.59274" lon="3.75343">
        <ele>104</ele>
        <time>2021-02-28T13:05:37Z</time>
      </trkpt>
      <trkpt lat="43.59277" lon="3.75341">
        <ele>104</ele>
        <time>2021-02-28T13:05:38Z</time>
      </trkpt>
      <trkpt lat="43.5928" lon="3.75338">
        <ele>104</ele>
        <time>2021-02-28T13:05:39Z</time>
      </trkpt>
      <trkpt lat="43.59284" lon="3.75336">
        <ele>104</ele>
        <time>2021-02-28T13:05:40Z</time>
      </trkpt>
      <trkpt lat="43.59287" lon="3.75333">
        <ele>104</ele>
        <time>2021-02-28T13:05:41Z</time>
      </trkpt>
      <trkpt lat="43.5929" lon="3.7533">
        <ele>104</ele>
        <time>2021-02-28T13:05:42Z</time>
      </trkpt>
      <trkpt lat="43.59293" lon="3.75326">
        <ele>104</ele>
        <time>2021-02-28T13:05:43Z</time>
      </trkpt>
      <trkpt lat="43.59296" lon="3.75323">
        <ele>104</ele>
        <time>2021-02-28T13:05:44Z</time>
      </trkpt>
      <trkpt lat="43.59299" lon="3.7532">
        <ele>104</ele>
        <time>2021-02-28T13:05:45Z</time>
      </trkpt>
      <trkpt lat="43.59302" lon="3.75317">
        <ele>104</ele>
        <time>2021-02-28T13:05:46Z</time>
      </trkpt>
      <trkpt lat="43.59305" lon="3.75314">
        <ele>104</ele>
        <time>2021-02-28T13:05:47Z</time>
      </trkpt>
      <trkpt lat="43.59308" lon="3.75311">
        <ele>104</ele>
        <time>2021-02-28T13:05:48Z</time>
      </trkpt>
      <trkpt lat="43.59312" lon="3.75308">
        <ele>104</ele>
        <time>2021-02-28T13:05:49Z</time>
      </trkpt>
      <trkpt lat="43.59315" lon="3.75304">
        <ele>104</ele>
        <time>2021-02-28T13:05:50Z</time>
      </trkpt>
      <trkpt lat="43.59319" lon="3.75301">
        <ele>104</ele>
        <time>2021-02-28T13:05:51Z</time>
      </trkpt>
      <trkpt lat="43.59323" lon="3.75298">
        <ele>104</ele>
        <time>2021-02-28T13:05:52Z</time>
      </trkpt>
      <trkpt lat="43.59326" lon="3.75295">
        <ele>104</ele>
        <time>2021-02-28T13:05:53Z</time>
      </trkpt>
      <trkpt lat="43.59329" lon="3.75292">
        <ele>104</ele>
        <time>2021-02-28T13:05:54Z</time>
      </trkpt>
      <trkpt lat="43.59333" lon="3.75289">
        <ele>104</ele>
        <time>2021-02-28T13:05:55Z</time>
      </trkpt>
      <trkpt lat="43.59336" lon="3.75286">
        <ele>104</ele>
        <time>2021-02-28T13:05:56Z</time>
      </trkpt>
      <trkpt lat="43.5934" lon="3.75283">
        <ele>104</ele>
        <time>2021-02-28T13:05:57Z</time>
      </trkpt>
      <trkpt lat="43.59343" lon="3.7528">
        <ele>104</ele>
        <time>2021-02-28T13:05:58Z</time>
      </trkpt>
      <trkpt lat="43.59347" lon="3.75277">
        <ele>104</ele>
        <time>2021-02-28T13:05:59Z</time>
      </trkpt>
      <trkpt lat="43.5935" lon="3.75274">
        <ele>104</ele>
        <time>2021-02-28T13:06:00Z</time>
      </trkpt>
      <trkpt lat="43.59354" lon="3.75271">
        <ele>104</ele>
        <time>2021-02-28T13:06:01Z</time>
      </trkpt>
      <trkpt lat="43.59357" lon="3.75268">
        <ele>104</ele>
        <time>2021-02-28T13:06:02Z</time>
      </trkpt>
      <trkpt lat="43.59361" lon="3.75266">
        <ele>104</ele>
        <time>2021-02-28T13:06:03Z</time>
      </trkpt>
      <trkpt lat="43.59364" lon="3.75263">
        <ele>104</ele>
        <time>2021-02-28T13:06:04Z</time>
      </trkpt>
      <trkpt lat="43.59368" lon="3.75259">
        <ele>104</ele>
        <time>2021-02-28T13:06:05Z</time>
      </trkpt>
      <trkpt lat="43.59371" lon="3.75256">
        <ele>104</ele>
        <time>2021-02-28T13:06:06Z</time>
      </trkpt>
      <trkpt lat="43.59374" lon="3.75253">
        <ele>104</ele>
        <time>2021-02-28T13:06:07Z</time>
      </trkpt>
      <trkpt lat="43.59378" lon="3.7525">
        <ele>104</ele>
        <time>2021-02-28T13:06:08Z</time>
      </trkpt>
      <trkpt lat="43.59381" lon="3.75247">
        <ele>104</ele>
        <time>2021-02-28T13:06:09Z</time>
      </trkpt>
      <trkpt lat="43.59384" lon="3.75244">
        <ele>104</ele>
        <time>2021-02-28T13:06:10Z</time>
      </trkpt>
      <trkpt lat="43.59388" lon="3.75242">
        <ele>104</ele>
        <time>2021-02-28T13:06:11Z</time>
      </trkpt>
      <trkpt lat="43.59391" lon="3.75239">
        <ele>104</ele>
        <time>2021-02-28T13:06:12Z</time>
      </trkpt>
      <trkpt lat="43.59395" lon="3.75236">
        <ele>104</ele>
        <time>2021-02-28T13:06:13Z</time>
      </trkpt>
      <trkpt lat="43.59398" lon="3.75233">
        <ele>104</ele>
        <time>2021-02-28T13:06:14Z</time>
      </trkpt>
      <trkpt lat="43.59401" lon="3.7523">
        <ele>104</ele>
        <time>2021-02-28T13:06:15Z</time>
      </trkpt>
      <trkpt lat="43.59405" lon="3.75227">
        <ele>104</ele>
        <time>2021-02-28T13:06:16Z</time>
      </trkpt>
      <trkpt lat="43.59408" lon="3.75224">
        <ele>104</ele>
        <time>2021-02-28T13:06:17Z</time>
      </trkpt>
      <trkpt lat="43.59411" lon="3.75222">
        <ele>104</ele>
        <time>2021-02-28T13:06:18Z</time>
      </trkpt>
      <trkpt lat="43.59414" lon="3.75219">
        <ele>105</ele>
        <time>2021-02-28T13:06:19Z</time>
      </trkpt>
      <trkpt lat="43.59417" lon="3.75217">
        <ele>105</ele>
        <time>2021-02-28T13:06:20Z</time>
      </trkpt>
      <trkpt lat="43.59419" lon="3.75214">
        <ele>105</ele>
        <time>2021-02-28T13:06:21Z</time>
      </trkpt>
      <trkpt lat="43.59422" lon="3.75211">
        <ele>105</ele>
        <time>2021-02-28T13:06:22Z</time>
      </trkpt>
      <trkpt lat="43.59425" lon="3.75208">
        <ele>105</ele>
        <time>2021-02-28T13:06:23Z</time>
      </trkpt>
      <trkpt lat="43.59428" lon="3.75206">
        <ele>105</ele>
        <time>2021-02-28T13:06:24Z</time>
      </trkpt>
      <trkpt lat="43.5943" lon="3.75203">
        <ele>105</ele>
        <time>2021-02-28T13:06:25Z</time>
      </trkpt>
      <trkpt lat="43.59433" lon="3.75201">
        <ele>105</ele>
        <time>2021-02-28T13:06:26Z</time>
      </trkpt>
      <trkpt lat="43.59436" lon="3.75198">
        <ele>105</ele>
        <time>2021-02-28T13:06:27Z</time>
      </trkpt>
      <trkpt lat="43.59439" lon="3.75196">
        <ele>105</ele>
        <time>2021-02-28T13:06:28Z</time>
      </trkpt>
      <trkpt lat="43.59441" lon="3.75193">
        <ele>106</ele>
        <time>2021-02-28T13:06:29Z</time>
      </trkpt>
      <trkpt lat="43.59444" lon="3.7519">
        <ele>106</ele>
        <time>2021-02-28T13:06:30Z</time>
      </trkpt>
      <trkpt lat="43.59447" lon="3.75188">
        <ele>106</ele>
        <time>2021-02-28T13:06:31Z</time>
      </trkpt>
      <trkpt lat="43.59449" lon="3.75185">
        <ele>106</ele>
        <time>2021-02-28T13:06:32Z</time>
      </trkpt>
      <trkpt lat="43.59452" lon="3.75182">
        <ele>106</ele>
        <time>2021-02-28T13:06:33Z</time>
      </trkpt>
      <trkpt lat="43.59454" lon="3.7518">
        <ele>106</ele>
        <time>2021-02-28T13:06:34Z</time>
      </trkpt>
      <trkpt lat="43.59457" lon="3.75177">
        <ele>106</ele>
        <time>2021-02-28T13:06:35Z</time>
      </trkpt>
      <trkpt lat="43.5946" lon="3.75174">
        <ele>106</ele>
        <time>2021-02-28T13:06:36Z</time>
      </trkpt>
      <trkpt lat="43.59463" lon="3.75172">
        <ele>106</ele>
        <time>2021-02-28T13:06:37Z</time>
      </trkpt>
      <trkpt lat="43.59465" lon="3.75169">
        <ele>106</ele>
        <time>2021-02-28T13:06:38Z</time>
      </trkpt>
      <trkpt lat="43.59468" lon="3.75166">
        <ele>107</ele>
        <time>2021-02-28T13:06:39Z</time>
      </trkpt>
      <trkpt lat="43.59471" lon="3.75163">
        <ele>107</ele>
        <time>2021-02-28T13:06:40Z</time>
      </trkpt>
      <trkpt lat="43.59474" lon="3.75161">
        <ele>107</ele>
        <time>2021-02-28T13:06:41Z</time>
      </trkpt>
      <trkpt lat="43.59477" lon="3.75158">
        <ele>107</ele>
        <time>2021-02-28T13:06:42Z</time>
      </trkpt>
      <trkpt lat="43.59479" lon="3.75156">
        <ele>107</ele>
        <time>2021-02-28T13:06:43Z</time>
      </trkpt>
      <trkpt lat="43.59482" lon="3.75154">
        <ele>107</ele>
        <time>2021-02-28T13:06:44Z</time>
      </trkpt>
      <trkpt lat="43.59486" lon="3.75152">
        <ele>107</ele>
        <time>2021-02-28T13:06:45Z</time>
      </trkpt>
      <trkpt lat="43.59488" lon="3.75149">
        <ele>107</ele>
        <time>2021-02-28T13:06:46Z</time>
      </trkpt>
      <trkpt lat="43.59494" lon="3.75145">
        <ele>107</ele>
        <time>2021-02-28T13:06:48Z</time>
      </trkpt>
      <trkpt lat="43.59497" lon="3.75143">
        <ele>109</ele>
        <time>2021-02-28T13:06:49Z</time>
      </trkpt>
      <trkpt lat="43.595" lon="3.75141">
        <ele>109</ele>
        <time>2021-02-28T13:06:50Z</time>
      </trkpt>
      <trkpt lat="43.59503" lon="3.75139">
        <ele>109</ele>
        <time>2021-02-28T13:06:51Z</time>
      </trkpt>
      <trkpt lat="43.59506" lon="3.75137">
        <ele>109</ele>
        <time>2021-02-28T13:06:52Z</time>
      </trkpt>
      <trkpt lat="43.59509" lon="3.75134">
        <ele>109</ele>
        <time>2021-02-28T13:06:53Z</time>
      </trkpt>
      <trkpt lat="43.59511" lon="3.75132">
        <ele>109</ele>
        <time>2021-02-28T13:06:54Z</time>
      </trkpt>
      <trkpt lat="43.59513" lon="3.7513">
        <ele>109</ele>
        <time>2021-02-28T13:06:55Z</time>
      </trkpt>
      <trkpt lat="43.59515" lon="3.75128">
        <ele>109</ele>
        <time>2021-02-28T13:06:56Z</time>
      </trkpt>
      <trkpt lat="43.59516" lon="3.75124">
        <ele>109</ele>
        <time>2021-02-28T13:06:58Z</time>
      </trkpt>
      <trkpt lat="43.59516" lon="3.75121">
        <ele>109</ele>
        <time>2021-02-28T13:06:59Z</time>
      </trkpt>
      <trkpt lat="43.59515" lon="3.75117">
        <ele>109</ele>
        <time>2021-02-28T13:07:00Z</time>
      </trkpt>
      <trkpt lat="43.59514" lon="3.75113">
        <ele>109</ele>
        <time>2021-02-28T13:07:01Z</time>
      </trkpt>
      <trkpt lat="43.59514" lon="3.75109">
        <ele>109</ele>
        <time>2021-02-28T13:07:02Z</time>
      </trkpt>
      <trkpt lat="43.59513" lon="3.75105">
        <ele>109</ele>
        <time>2021-02-28T13:07:03Z</time>
      </trkpt>
      <trkpt lat="43.59513" lon="3.75103">
        <ele>109</ele>
        <time>2021-02-28T13:07:04Z</time>
      </trkpt>
      <trkpt lat="43.59514" lon="3.751">
        <ele>109</ele>
        <time>2021-02-28T13:07:05Z</time>
      </trkpt>
      <trkpt lat="43.59515" lon="3.75097">
        <ele>109</ele>
        <time>2021-02-28T13:07:06Z</time>
      </trkpt>
      <trkpt lat="43.59517" lon="3.75095">
        <ele>109</ele>
        <time>2021-02-28T13:07:07Z</time>
      </trkpt>
      <trkpt lat="43.59518" lon="3.75094">
        <ele>109</ele>
        <time>2021-02-28T13:07:08Z</time>
      </trkpt>
      <trkpt lat="43.59521" lon="3.75093">
        <ele>110</ele>
        <time>2021-02-28T13:07:09Z</time>
      </trkpt>
      <trkpt lat="43.59523" lon="3.75092">
        <ele>110</ele>
        <time>2021-02-28T13:07:10Z</time>
      </trkpt>
      <trkpt lat="43.59525" lon="3.75091">
        <ele>110</ele>
        <time>2021-02-28T13:07:11Z</time>
      </trkpt>
      <trkpt lat="43.59528" lon="3.7509">
        <ele>110</ele>
        <time>2021-02-28T13:07:12Z</time>
      </trkpt>
      <trkpt lat="43.59529" lon="3.75089">
        <ele>110</ele>
        <time>2021-02-28T13:07:13Z</time>
      </trkpt>
      <trkpt lat="43.59531" lon="3.75087">
        <ele>110</ele>
        <time>2021-02-28T13:07:14Z</time>
      </trkpt>
      <trkpt lat="43.59533" lon="3.75085">
        <ele>110</ele>
        <time>2021-02-28T13:07:15Z</time>
      </trkpt>
      <trkpt lat="43.59535" lon="3.75082">
        <ele>110</ele>
        <time>2021-02-28T13:07:17Z</time>
      </trkpt>
      <trkpt lat="43.59536" lon="3.75077">
        <ele>112</ele>
        <time>2021-02-28T13:07:19Z</time>
      </trkpt>
      <trkpt lat="43.59537" lon="3.75075">
        <ele>112</ele>
        <time>2021-02-28T13:07:20Z</time>
      </trkpt>
      <trkpt lat="43.59537" lon="3.75072">
        <ele>112</ele>
        <time>2021-02-28T13:07:21Z</time>
      </trkpt>
      <trkpt lat="43.59537" lon="3.75069">
        <ele>112</ele>
        <time>2021-02-28T13:07:22Z</time>
      </trkpt>
      <trkpt lat="43.59536" lon="3.75066">
        <ele>112</ele>
        <time>2021-02-28T13:07:23Z</time>
      </trkpt>
      <trkpt lat="43.59535" lon="3.75063">
        <ele>112</ele>
        <time>2021-02-28T13:07:24Z</time>
      </trkpt>
      <trkpt lat="43.59535" lon="3.7506">
        <ele>112</ele>
        <time>2021-02-28T13:07:25Z</time>
      </trkpt>
      <trkpt lat="43.59534" lon="3.75057">
        <ele>112</ele>
        <time>2021-02-28T13:07:26Z</time>
      </trkpt>
      <trkpt lat="43.59534" lon="3.75054">
        <ele>112</ele>
        <time>2021-02-28T13:07:27Z</time>
      </trkpt>
      <trkpt lat="43.59534" lon="3.75051">
        <ele>112</ele>
        <time>2021-02-28T13:07:28Z</time>
      </trkpt>
      <trkpt lat="43.59533" lon="3.75048">
        <ele>112</ele>
        <time>2021-02-28T13:07:29Z</time>
      </trkpt>
      <trkpt lat="43.59532" lon="3.75045">
        <ele>112</ele>
        <time>2021-02-28T13:07:30Z</time>
      </trkpt>
      <trkpt lat="43.5953" lon="3.75043">
        <ele>112</ele>
        <time>2021-02-28T13:07:31Z</time>
      </trkpt>
      <trkpt lat="43.59528" lon="3.75039">
        <ele>112</ele>
        <time>2021-02-28T13:07:32Z</time>
      </trkpt>
      <trkpt lat="43.59526" lon="3.75036">
        <ele>112</ele>
        <time>2021-02-28T13:07:33Z</time>
      </trkpt>
      <trkpt lat="43.59524" lon="3.75032">
        <ele>112</ele>
        <time>2021-02-28T13:07:34Z</time>
      </trkpt>
      <trkpt lat="43.59522" lon="3.75028">
        <ele>112</ele>
        <time>2021-02-28T13:07:35Z</time>
      </trkpt>
      <trkpt lat="43.59519" lon="3.75025">
        <ele>112</ele>
        <time>2021-02-28T13:07:36Z</time>
      </trkpt>
      <trkpt lat="43.59516" lon="3.7502">
        <ele>112</ele>
        <time>2021-02-28T13:07:37Z</time>
      </trkpt>
      <trkpt lat="43.59514" lon="3.75015">
        <ele>112</ele>
        <time>2021-02-28T13:07:38Z</time>
      </trkpt>
      <trkpt lat="43.59513" lon="3.7501">
        <ele>112</ele>
        <time>2021-02-28T13:07:39Z</time>
      </trkpt>
      <trkpt lat="43.59512" lon="3.75005">
        <ele>112</ele>
        <time>2021-02-28T13:07:40Z</time>
      </trkpt>
      <trkpt lat="43.5951" lon="3.75">
        <ele>112</ele>
        <time>2021-02-28T13:07:41Z</time>
      </trkpt>
      <trkpt lat="43.59509" lon="3.74996">
        <ele>112</ele>
        <time>2021-02-28T13:07:42Z</time>
      </trkpt>
      <trkpt lat="43.59506" lon="3.74993">
        <ele>112</ele>
        <time>2021-02-28T13:07:43Z</time>
      </trkpt>
      <trkpt lat="43.59504" lon="3.74989">
        <ele>112</ele>
        <time>2021-02-28T13:07:44Z</time>
      </trkpt>
      <trkpt lat="43.59502" lon="3.74985">
        <ele>112</ele>
        <time>2021-02-28T13:07:45Z</time>
      </trkpt>
      <trkpt lat="43.59499" lon="3.7498">
        <ele>112</ele>
        <time>2021-02-28T13:07:46Z</time>
      </trkpt>
      <trkpt lat="43.59496" lon="3.74975">
        <ele>112</ele>
        <time>2021-02-28T13:07:47Z</time>
      </trkpt>
      <trkpt lat="43.59493" lon="3.7497">
        <ele>112</ele>
        <time>2021-02-28T13:07:48Z</time>
      </trkpt>
      <trkpt lat="43.59489" lon="3.74965">
        <ele>111</ele>
        <time>2021-02-28T13:07:49Z</time>
      </trkpt>
      <trkpt lat="43.59485" lon="3.74959">
        <ele>111</ele>
        <time>2021-02-28T13:07:50Z</time>
      </trkpt>
      <trkpt lat="43.59481" lon="3.74953">
        <ele>111</ele>
        <time>2021-02-28T13:07:51Z</time>
      </trkpt>
      <trkpt lat="43.59478" lon="3.74947">
        <ele>111</ele>
        <time>2021-02-28T13:07:52Z</time>
      </trkpt>
      <trkpt lat="43.59474" lon="3.74941">
        <ele>111</ele>
        <time>2021-02-28T13:07:53Z</time>
      </trkpt>
      <trkpt lat="43.5947" lon="3.74936">
        <ele>111</ele>
        <time>2021-02-28T13:07:54Z</time>
      </trkpt>
      <trkpt lat="43.59467" lon="3.74931">
        <ele>111</ele>
        <time>2021-02-28T13:07:55Z</time>
      </trkpt>
      <trkpt lat="43.59463" lon="3.74926">
        <ele>111</ele>
        <time>2021-02-28T13:07:56Z</time>
      </trkpt>
      <trkpt lat="43.5946" lon="3.74922">
        <ele>111</ele>
        <time>2021-02-28T13:07:57Z</time>
      </trkpt>
      <trkpt lat="43.59457" lon="3.74918">
        <ele>111</ele>
        <time>2021-02-28T13:07:58Z</time>
      </trkpt>
      <trkpt lat="43.59454" lon="3.74914">
        <ele>108</ele>
        <time>2021-02-28T13:07:59Z</time>
      </trkpt>
      <trkpt lat="43.5945" lon="3.74911">
        <ele>108</ele>
        <time>2021-02-28T13:08:00Z</time>
      </trkpt>
      <trkpt lat="43.59446" lon="3.7491">
        <ele>108</ele>
        <time>2021-02-28T13:08:01Z</time>
      </trkpt>
      <trkpt lat="43.59442" lon="3.7491">
        <ele>108</ele>
        <time>2021-02-28T13:08:02Z</time>
      </trkpt>
      <trkpt lat="43.59437" lon="3.74911">
        <ele>108</ele>
        <time>2021-02-28T13:08:03Z</time>
      </trkpt>
      <trkpt lat="43.59433" lon="3.74913">
        <ele>108</ele>
        <time>2021-02-28T13:08:04Z</time>
      </trkpt>
      <trkpt lat="43.5943" lon="3.74916">
        <ele>108</ele>
        <time>2021-02-28T13:08:05Z</time>
      </trkpt>
      <trkpt lat="43.59426" lon="3.74918">
        <ele>108</ele>
        <time>2021-02-28T13:08:06Z</time>
      </trkpt>
      <trkpt lat="43.59423" lon="3.74921">
        <ele>108</ele>
        <time>2021-02-28T13:08:07Z</time>
      </trkpt>
      <trkpt lat="43.5942" lon="3.74925">
        <ele>108</ele>
        <time>2021-02-28T13:08:08Z</time>
      </trkpt>
      <trkpt lat="43.59418" lon="3.74929">
        <ele>106</ele>
        <time>2021-02-28T13:08:09Z</time>
      </trkpt>
      <trkpt lat="43.59415" lon="3.74932">
        <ele>106</ele>
        <time>2021-02-28T13:08:10Z</time>
      </trkpt>
      <trkpt lat="43.59409" lon="3.74935">
        <ele>106</ele>
        <time>2021-02-28T13:08:12Z</time>
      </trkpt>
      <trkpt lat="43.59406" lon="3.74933">
        <ele>106</ele>
        <time>2021-02-28T13:08:13Z</time>
      </trkpt>
      <trkpt lat="43.59403" lon="3.7493">
        <ele>106</ele>
        <time>2021-02-28T13:08:14Z</time>
      </trkpt>
      <trkpt lat="43.59401" lon="3.74927">
        <ele>106</ele>
        <time>2021-02-28T13:08:15Z</time>
      </trkpt>
      <trkpt lat="43.59399" lon="3.74925">
        <ele>106</ele>
        <time>2021-02-28T13:08:16Z</time>
      </trkpt>
      <trkpt lat="43.59399" lon="3.7492">
        <ele>106</ele>
        <time>2021-02-28T13:08:18Z</time>
      </trkpt>
      <trkpt lat="43.59399" lon="3.74916">
        <ele>105</ele>
        <time>2021-02-28T13:08:19Z</time>
      </trkpt>
      <trkpt lat="43.594" lon="3.74912">
        <ele>105</ele>
        <time>2021-02-28T13:08:20Z</time>
      </trkpt>
      <trkpt lat="43.59401" lon="3.74908">
        <ele>105</ele>
        <time>2021-02-28T13:08:21Z</time>
      </trkpt>
      <trkpt lat="43.59399" lon="3.74904">
        <ele>105</ele>
        <time>2021-02-28T13:08:22Z</time>
      </trkpt>
      <trkpt lat="43.59397" lon="3.74901">
        <ele>105</ele>
        <time>2021-02-28T13:08:23Z</time>
      </trkpt>
      <trkpt lat="43.59393" lon="3.74898">
        <ele>105</ele>
        <time>2021-02-28T13:08:24Z</time>
      </trkpt>
      <trkpt lat="43.59389" lon="3.74897">
        <ele>105</ele>
        <time>2021-02-28T13:08:25Z</time>
      </trkpt>
      <trkpt lat="43.59386" lon="3.74894">
        <ele>105</ele>
        <time>2021-02-28T13:08:26Z</time>
      </trkpt>
      <trkpt lat="43.59383" lon="3.7489">
        <ele>105</ele>
        <time>2021-02-28T13:08:27Z</time>
      </trkpt>
      <trkpt lat="43.59381" lon="3.74885">
        <ele>105</ele>
        <time>2021-02-28T13:08:28Z</time>
      </trkpt>
      <trkpt lat="43.59378" lon="3.7488">
        <ele>104</ele>
        <time>2021-02-28T13:08:29Z</time>
      </trkpt>
      <trkpt lat="43.59374" lon="3.74875">
        <ele>104</ele>
        <time>2021-02-28T13:08:30Z</time>
      </trkpt>
      <trkpt lat="43.59371" lon="3.74871">
        <ele>104</ele>
        <time>2021-02-28T13:08:31Z</time>
      </trkpt>
      <trkpt lat="43.59367" lon="3.74867">
        <ele>104</ele>
        <time>2021-02-28T13:08:32Z</time>
      </trkpt>
      <trkpt lat="43.59363" lon="3.74863">
        <ele>104</ele>
        <time>2021-02-28T13:08:33Z</time>
      </trkpt>
      <trkpt lat="43.59359" lon="3.74859">
        <ele>104</ele>
        <time>2021-02-28T13:08:34Z</time>
      </trkpt>
      <trkpt lat="43.59355" lon="3.74855">
        <ele>104</ele>
        <time>2021-02-28T13:08:35Z</time>
      </trkpt>
      <trkpt lat="43.5935" lon="3.74851">
        <ele>104</ele>
        <time>2021-02-28T13:08:36Z</time>
      </trkpt>
      <trkpt lat="43.59345" lon="3.74849">
        <ele>104</ele>
        <time>2021-02-28T13:08:37Z</time>
      </trkpt>
      <trkpt lat="43.59341" lon="3.74846">
        <ele>104</ele>
        <time>2021-02-28T13:08:38Z</time>
      </trkpt>
      <trkpt lat="43.59338" lon="3.74842">
        <ele>102</ele>
        <time>2021-02-28T13:08:39Z</time>
      </trkpt>
      <trkpt lat="43.59336" lon="3.7484">
        <ele>102</ele>
        <time>2021-02-28T13:08:40Z</time>
      </trkpt>
      <trkpt lat="43.59335" lon="3.74836">
        <ele>102</ele>
        <time>2021-02-28T13:08:42Z</time>
      </trkpt>
      <trkpt lat="43.59334" lon="3.74833">
        <ele>102</ele>
        <time>2021-02-28T13:08:44Z</time>
      </trkpt>
      <trkpt lat="43.59335" lon="3.74829">
        <ele>102</ele>
        <time>2021-02-28T13:08:46Z</time>
      </trkpt>
      <trkpt lat="43.59337" lon="3.74826">
        <ele>102</ele>
        <time>2021-02-28T13:08:48Z</time>
      </trkpt>
      <trkpt lat="43.5934" lon="3.74823">
        <ele>101</ele>
        <time>2021-02-28T13:08:49Z</time>
      </trkpt>
      <trkpt lat="43.59342" lon="3.74821">
        <ele>101</ele>
        <time>2021-02-28T13:08:50Z</time>
      </trkpt>
      <trkpt lat="43.59344" lon="3.74818">
        <ele>101</ele>
        <time>2021-02-28T13:08:51Z</time>
      </trkpt>
      <trkpt lat="43.59345" lon="3.74814">
        <ele>101</ele>
        <time>2021-02-28T13:08:52Z</time>
      </trkpt>
      <trkpt lat="43.59347" lon="3.74811">
        <ele>101</ele>
        <time>2021-02-28T13:08:53Z</time>
      </trkpt>
      <trkpt lat="43.59348" lon="3.74807">
        <ele>101</ele>
        <time>2021-02-28T13:08:54Z</time>
      </trkpt>
      <trkpt lat="43.59352" lon="3.74801">
        <ele>101</ele>
        <time>2021-02-28T13:08:56Z</time>
      </trkpt>
      <trkpt lat="43.59353" lon="3.74798">
        <ele>101</ele>
        <time>2021-02-28T13:08:57Z</time>
      </trkpt>
      <trkpt lat="43.59355" lon="3.74796">
        <ele>101</ele>
        <time>2021-02-28T13:08:58Z</time>
      </trkpt>
      <trkpt lat="43.59357" lon="3.74793">
        <ele>100</ele>
        <time>2021-02-28T13:08:59Z</time>
      </trkpt>
      <trkpt lat="43.59359" lon="3.74789">
        <ele>100</ele>
        <time>2021-02-28T13:09:00Z</time>
      </trkpt>
      <trkpt lat="43.59361" lon="3.74787">
        <ele>100</ele>
        <time>2021-02-28T13:09:01Z</time>
      </trkpt>
      <trkpt lat="43.59364" lon="3.74784">
        <ele>100</ele>
        <time>2021-02-28T13:09:02Z</time>
      </trkpt>
      <trkpt lat="43.59366" lon="3.74782">
        <ele>100</ele>
        <time>2021-02-28T13:09:03Z</time>
      </trkpt>
      <trkpt lat="43.59368" lon="3.7478">
        <ele>100</ele>
        <time>2021-02-28T13:09:04Z</time>
      </trkpt>
      <trkpt lat="43.5937" lon="3.74778">
        <ele>100</ele>
        <time>2021-02-28T13:09:05Z</time>
      </trkpt>
      <trkpt lat="43.59372" lon="3.74776">
        <ele>100</ele>
        <time>2021-02-28T13:09:06Z</time>
      </trkpt>
      <trkpt lat="43.59374" lon="3.74774">
        <ele>100</ele>
        <time>2021-02-28T13:09:07Z</time>
      </trkpt>
      <trkpt lat="43.59376" lon="3.74772">
        <ele>100</ele>
        <time>2021-02-28T13:09:08Z</time>
      </trkpt>
      <trkpt lat="43.59378" lon="3.7477">
        <ele>99</ele>
        <time>2021-02-28T13:09:09Z</time>
      </trkpt>
      <trkpt lat="43.5938" lon="3.74768">
        <ele>99</ele>
        <time>2021-02-28T13:09:10Z</time>
      </trkpt>
      <trkpt lat="43.59382" lon="3.74766">
        <ele>99</ele>
        <time>2021-02-28T13:09:11Z</time>
      </trkpt>
      <trkpt lat="43.59383" lon="3.74764">
        <ele>99</ele>
        <time>2021-02-28T13:09:12Z</time>
      </trkpt>
      <trkpt lat="43.59385" lon="3.74761">
        <ele>99</ele>
        <time>2021-02-28T13:09:13Z</time>
      </trkpt>
      <trkpt lat="43.59385" lon="3.74759">
        <ele>99</ele>
        <time>2021-02-28T13:09:14Z</time>
      </trkpt>
      <trkpt lat="43.59384" lon="3.74755">
        <ele>99</ele>
        <time>2021-02-28T13:09:16Z</time>
      </trkpt>
      <trkpt lat="43.59383" lon="3.74753">
        <ele>99</ele>
        <time>2021-02-28T13:09:17Z</time>
      </trkpt>
      <trkpt lat="43.59381" lon="3.74752">
        <ele>99</ele>
        <time>2021-02-28T13:09:18Z</time>
      </trkpt>
      <trkpt lat="43.5938" lon="3.7475">
        <ele>100</ele>
        <time>2021-02-28T13:09:19Z</time>
      </trkpt>
      <trkpt lat="43.59378" lon="3.74748">
        <ele>100</ele>
        <time>2021-02-28T13:09:20Z</time>
      </trkpt>
      <trkpt lat="43.59377" lon="3.74745">
        <ele>100</ele>
        <time>2021-02-28T13:09:21Z</time>
      </trkpt>
      <trkpt lat="43.59376" lon="3.74743">
        <ele>100</ele>
        <time>2021-02-28T13:09:22Z</time>
      </trkpt>
      <trkpt lat="43.59373" lon="3.7474">
        <ele>100</ele>
        <time>2021-02-28T13:09:24Z</time>
      </trkpt>
      <trkpt lat="43.59371" lon="3.7474">
        <ele>100</ele>
        <time>2021-02-28T13:09:25Z</time>
      </trkpt>
      <trkpt lat="43.59369" lon="3.74739">
        <ele>100</ele>
        <time>2021-02-28T13:09:26Z</time>
      </trkpt>
      <trkpt lat="43.59367" lon="3.74738">
        <ele>100</ele>
        <time>2021-02-28T13:09:27Z</time>
      </trkpt>
      <trkpt lat="43.59365" lon="3.74737">
        <ele>100</ele>
        <time>2021-02-28T13:09:28Z</time>
      </trkpt>
      <trkpt lat="43.59363" lon="3.74735">
        <ele>101</ele>
        <time>2021-02-28T13:09:29Z</time>
      </trkpt>
      <trkpt lat="43.59362" lon="3.74734">
        <ele>101</ele>
        <time>2021-02-28T13:09:30Z</time>
      </trkpt>
      <trkpt lat="43.59361" lon="3.74731">
        <ele>101</ele>
        <time>2021-02-28T13:09:32Z</time>
      </trkpt>
      <trkpt lat="43.59359" lon="3.74717">
        <ele>102</ele>
        <time>2021-02-28T13:09:50Z</time>
      </trkpt>
      <trkpt lat="43.59357" lon="3.74711">
        <ele>102</ele>
        <time>2021-02-28T13:09:51Z</time>
      </trkpt>
      <trkpt lat="43.59357" lon="3.74705">
        <ele>102</ele>
        <time>2021-02-28T13:09:53Z</time>
      </trkpt>
      <trkpt lat="43.59356" lon="3.74702">
        <ele>102</ele>
        <time>2021-02-28T13:09:54Z</time>
      </trkpt>
      <trkpt lat="43.59355" lon="3.747">
        <ele>102</ele>
        <time>2021-02-28T13:09:55Z</time>
      </trkpt>
      <trkpt lat="43.59354" lon="3.74698">
        <ele>102</ele>
        <time>2021-02-28T13:09:56Z</time>
      </trkpt>
      <trkpt lat="43.59352" lon="3.74697">
        <ele>102</ele>
        <time>2021-02-28T13:09:57Z</time>
      </trkpt>
      <trkpt lat="43.59349" lon="3.74695">
        <ele>102</ele>
        <time>2021-02-28T13:09:58Z</time>
      </trkpt>
      <trkpt lat="43.59347" lon="3.74693">
        <ele>103</ele>
        <time>2021-02-28T13:09:59Z</time>
      </trkpt>
      <trkpt lat="43.59344" lon="3.74692">
        <ele>103</ele>
        <time>2021-02-28T13:10:00Z</time>
      </trkpt>
      <trkpt lat="43.59342" lon="3.74692">
        <ele>103</ele>
        <time>2021-02-28T13:10:01Z</time>
      </trkpt>
      <trkpt lat="43.59339" lon="3.74692">
        <ele>103</ele>
        <time>2021-02-28T13:10:02Z</time>
      </trkpt>
      <trkpt lat="43.59337" lon="3.7469">
        <ele>103</ele>
        <time>2021-02-28T13:10:03Z</time>
      </trkpt>
      <trkpt lat="43.59335" lon="3.74688">
        <ele>103</ele>
        <time>2021-02-28T13:10:04Z</time>
      </trkpt>
      <trkpt lat="43.59334" lon="3.74686">
        <ele>103</ele>
        <time>2021-02-28T13:10:05Z</time>
      </trkpt>
      <trkpt lat="43.59332" lon="3.74684">
        <ele>103</ele>
        <time>2021-02-28T13:10:06Z</time>
      </trkpt>
      <trkpt lat="43.59329" lon="3.74682">
        <ele>103</ele>
        <time>2021-02-28T13:10:07Z</time>
      </trkpt>
      <trkpt lat="43.59327" lon="3.7468">
        <ele>103</ele>
        <time>2021-02-28T13:10:08Z</time>
      </trkpt>
      <trkpt lat="43.59325" lon="3.74679">
        <ele>103</ele>
        <time>2021-02-28T13:10:09Z</time>
      </trkpt>
      <trkpt lat="43.59324" lon="3.74677">
        <ele>103</ele>
        <time>2021-02-28T13:10:10Z</time>
      </trkpt>
      <trkpt lat="43.59323" lon="3.74674">
        <ele>103</ele>
        <time>2021-02-28T13:10:11Z</time>
      </trkpt>
      <trkpt lat="43.59323" lon="3.74671">
        <ele>103</ele>
        <time>2021-02-28T13:10:12Z</time>
      </trkpt>
      <trkpt lat="43.59321" lon="3.74667">
        <ele>103</ele>
        <time>2021-02-28T13:10:13Z</time>
      </trkpt>
      <trkpt lat="43.5932" lon="3.74663">
        <ele>103</ele>
        <time>2021-02-28T13:10:14Z</time>
      </trkpt>
      <trkpt lat="43.59319" lon="3.74659">
        <ele>103</ele>
        <time>2021-02-28T13:10:15Z</time>
      </trkpt>
      <trkpt lat="43.59317" lon="3.74655">
        <ele>103</ele>
        <time>2021-02-28T13:10:16Z</time>
      </trkpt>
      <trkpt lat="43.59316" lon="3.7465">
        <ele>103</ele>
        <time>2021-02-28T13:10:17Z</time>
      </trkpt>
      <trkpt lat="43.59314" lon="3.74647">
        <ele>103</ele>
        <time>2021-02-28T13:10:18Z</time>
      </trkpt>
      <trkpt lat="43.59312" lon="3.74644">
        <ele>102</ele>
        <time>2021-02-28T13:10:19Z</time>
      </trkpt>
      <trkpt lat="43.5931" lon="3.74642">
        <ele>102</ele>
        <time>2021-02-28T13:10:20Z</time>
      </trkpt>
      <trkpt lat="43.59309" lon="3.7464">
        <ele>102</ele>
        <time>2021-02-28T13:10:21Z</time>
      </trkpt>
      <trkpt lat="43.59307" lon="3.74637">
        <ele>102</ele>
        <time>2021-02-28T13:10:22Z</time>
      </trkpt>
      <trkpt lat="43.59305" lon="3.74633">
        <ele>102</ele>
        <time>2021-02-28T13:10:23Z</time>
      </trkpt>
      <trkpt lat="43.59302" lon="3.74629">
        <ele>102</ele>
        <time>2021-02-28T13:10:24Z</time>
      </trkpt>
      <trkpt lat="43.59299" lon="3.74625">
        <ele>102</ele>
        <time>2021-02-28T13:10:25Z</time>
      </trkpt>
      <trkpt lat="43.59297" lon="3.74621">
        <ele>102</ele>
        <time>2021-02-28T13:10:26Z</time>
      </trkpt>
      <trkpt lat="43.59294" lon="3.74618">
        <ele>102</ele>
        <time>2021-02-28T13:10:27Z</time>
      </trkpt>
      <trkpt lat="43.59287" lon="3.74612">
        <ele>99</ele>
        <time>2021-02-28T13:10:29Z</time>
      </trkpt>
      <trkpt lat="43.59283" lon="3.74611">
        <ele>99</ele>
        <time>2021-02-28T13:10:30Z</time>
      </trkpt>
      <trkpt lat="43.59279" lon="3.74611">
        <ele>99</ele>
        <time>2021-02-28T13:10:31Z</time>
      </trkpt>
      <trkpt lat="43.59276" lon="3.74613">
        <ele>99</ele>
        <time>2021-02-28T13:10:32Z</time>
      </trkpt>
      <trkpt lat="43.59273" lon="3.74615">
        <ele>99</ele>
        <time>2021-02-28T13:10:33Z</time>
      </trkpt>
      <trkpt lat="43.59271" lon="3.74617">
        <ele>99</ele>
        <time>2021-02-28T13:10:34Z</time>
      </trkpt>
      <trkpt lat="43.59268" lon="3.74621">
        <ele>99</ele>
        <time>2021-02-28T13:10:35Z</time>
      </trkpt>
      <trkpt lat="43.59267" lon="3.74624">
        <ele>99</ele>
        <time>2021-02-28T13:10:36Z</time>
      </trkpt>
      <trkpt lat="43.59265" lon="3.74626">
        <ele>99</ele>
        <time>2021-02-28T13:10:37Z</time>
      </trkpt>
      <trkpt lat="43.59264" lon="3.74628">
        <ele>99</ele>
        <time>2021-02-28T13:10:38Z</time>
      </trkpt>
      <trkpt lat="43.59262" lon="3.74631">
        <ele>99</ele>
        <time>2021-02-28T13:10:40Z</time>
      </trkpt>
      <trkpt lat="43.59252" lon="3.74645">
        <ele>97</ele>
        <time>2021-02-28T13:10:56Z</time>
      </trkpt>
      <trkpt lat="43.5925" lon="3.74647">
        <ele>97</ele>
        <time>2021-02-28T13:10:57Z</time>
      </trkpt>
      <trkpt lat="43.59248" lon="3.7465">
        <ele>97</ele>
        <time>2021-02-28T13:10:58Z</time>
      </trkpt>
      <trkpt lat="43.59247" lon="3.74653">
        <ele>97</ele>
        <time>2021-02-28T13:10:59Z</time>
      </trkpt>
      <trkpt lat="43.59243" lon="3.7466">
        <ele>97</ele>
        <time>2021-02-28T13:11:01Z</time>
      </trkpt>
      <trkpt lat="43.59241" lon="3.74663">
        <ele>97</ele>
        <time>2021-02-28T13:11:02Z</time>
      </trkpt>
      <trkpt lat="43.59239" lon="3.74666">
        <ele>97</ele>
        <time>2021-02-28T13:11:03Z</time>
      </trkpt>
      <trkpt lat="43.59237" lon="3.74669">
        <ele>97</ele>
        <time>2021-02-28T13:11:04Z</time>
      </trkpt>
      <trkpt lat="43.59234" lon="3.74673">
        <ele>96</ele>
        <time>2021-02-28T13:11:05Z</time>
      </trkpt>
      <trkpt lat="43.59231" lon="3.74677">
        <ele>96</ele>
        <time>2021-02-28T13:11:06Z</time>
      </trkpt>
      <trkpt lat="43.59228" lon="3.74681">
        <ele>96</ele>
        <time>2021-02-28T13:11:07Z</time>
      </trkpt>
      <trkpt lat="43.59226" lon="3.74684">
        <ele>96</ele>
        <time>2021-02-28T13:11:08Z</time>
      </trkpt>
      <trkpt lat="43.59223" lon="3.74686">
        <ele>96</ele>
        <time>2021-02-28T13:11:09Z</time>
      </trkpt>
      <trkpt lat="43.5922" lon="3.74687">
        <ele>96</ele>
        <time>2021-02-28T13:11:10Z</time>
      </trkpt>
      <trkpt lat="43.59216" lon="3.74686">
        <ele>96</ele>
        <time>2021-02-28T13:11:11Z</time>
      </trkpt>
      <trkpt lat="43.59212" lon="3.74684">
        <ele>96</ele>
        <time>2021-02-28T13:11:12Z</time>
      </trkpt>
      <trkpt lat="43.59209" lon="3.74682">
        <ele>96</ele>
        <time>2021-02-28T13:11:13Z</time>
      </trkpt>
      <trkpt lat="43.59206" lon="3.7468">
        <ele>96</ele>
        <time>2021-02-28T13:11:14Z</time>
      </trkpt>
      <trkpt lat="43.59203" lon="3.74677">
        <ele>94</ele>
        <time>2021-02-28T13:11:15Z</time>
      </trkpt>
      <trkpt lat="43.592" lon="3.74674">
        <ele>94</ele>
        <time>2021-02-28T13:11:16Z</time>
      </trkpt>
      <trkpt lat="43.59198" lon="3.74669">
        <ele>94</ele>
        <time>2021-02-28T13:11:17Z</time>
      </trkpt>
      <trkpt lat="43.59197" lon="3.74663">
        <ele>94</ele>
        <time>2021-02-28T13:11:18Z</time>
      </trkpt>
      <trkpt lat="43.59195" lon="3.74658">
        <ele>94</ele>
        <time>2021-02-28T13:11:19Z</time>
      </trkpt>
      <trkpt lat="43.59193" lon="3.74653">
        <ele>94</ele>
        <time>2021-02-28T13:11:20Z</time>
      </trkpt>
      <trkpt lat="43.59192" lon="3.74649">
        <ele>94</ele>
        <time>2021-02-28T13:11:21Z</time>
      </trkpt>
      <trkpt lat="43.5919" lon="3.74646">
        <ele>94</ele>
        <time>2021-02-28T13:11:22Z</time>
      </trkpt>
      <trkpt lat="43.59189" lon="3.74641">
        <ele>94</ele>
        <time>2021-02-28T13:11:23Z</time>
      </trkpt>
      <trkpt lat="43.59188" lon="3.74637">
        <ele>94</ele>
        <time>2021-02-28T13:11:24Z</time>
      </trkpt>
      <trkpt lat="43.59187" lon="3.74634">
        <ele>92</ele>
        <time>2021-02-28T13:11:25Z</time>
      </trkpt>
      <trkpt lat="43.59187" lon="3.7463">
        <ele>92</ele>
        <time>2021-02-28T13:11:26Z</time>
      </trkpt>
      <trkpt lat="43.59186" lon="3.74627">
        <ele>92</ele>
        <time>2021-02-28T13:11:27Z</time>
      </trkpt>
      <trkpt lat="43.59186" lon="3.74625">
        <ele>92</ele>
        <time>2021-02-28T13:11:28Z</time>
      </trkpt>
      <trkpt lat="43.59186" lon="3.7462">
        <ele>92</ele>
        <time>2021-02-28T13:11:30Z</time>
      </trkpt>
      <trkpt lat="43.59187" lon="3.74618">
        <ele>92</ele>
        <time>2021-02-28T13:11:31Z</time>
      </trkpt>
      <trkpt lat="43.59188" lon="3.74615">
        <ele>92</ele>
        <time>2021-02-28T13:11:32Z</time>
      </trkpt>
      <trkpt lat="43.5919" lon="3.74613">
        <ele>92</ele>
        <time>2021-02-28T13:11:33Z</time>
      </trkpt>
      <trkpt lat="43.59192" lon="3.74608">
        <ele>92</ele>
        <time>2021-02-28T13:11:35Z</time>
      </trkpt>
      <trkpt lat="43.59194" lon="3.74606">
        <ele>92</ele>
        <time>2021-02-28T13:11:36Z</time>
      </trkpt>
      <trkpt lat="43.59195" lon="3.74603">
        <ele>92</ele>
        <time>2021-02-28T13:11:37Z</time>
      </trkpt>
      <trkpt lat="43.59197" lon="3.74601">
        <ele>92</ele>
        <time>2021-02-28T13:11:38Z</time>
      </trkpt>
      <trkpt lat="43.59198" lon="3.74599">
        <ele>92</ele>
        <time>2021-02-28T13:11:39Z</time>
      </trkpt>
      <trkpt lat="43.59205" lon="3.7459">
        <ele>92</ele>
        <time>2021-02-28T13:11:42Z</time>
      </trkpt>
      <trkpt lat="43.59207" lon="3.74587">
        <ele>92</ele>
        <time>2021-02-28T13:11:43Z</time>
      </trkpt>
      <trkpt lat="43.59208" lon="3.74583">
        <ele>92</ele>
        <time>2021-02-28T13:11:44Z</time>
      </trkpt>
      <trkpt lat="43.5921" lon="3.74581">
        <ele>92</ele>
        <time>2021-02-28T13:11:45Z</time>
      </trkpt>
      <trkpt lat="43.59211" lon="3.74578">
        <ele>92</ele>
        <time>2021-02-28T13:11:46Z</time>
      </trkpt>
      <trkpt lat="43.59211" lon="3.74576">
        <ele>92</ele>
        <time>2021-02-28T13:11:47Z</time>
      </trkpt>
      <trkpt lat="43.59212" lon="3.74573">
        <ele>92</ele>
        <time>2021-02-28T13:11:48Z</time>
      </trkpt>
      <trkpt lat="43.59213" lon="3.7457">
        <ele>92</ele>
        <time>2021-02-28T13:11:49Z</time>
      </trkpt>
      <trkpt lat="43.59214" lon="3.74568">
        <ele>92</ele>
        <time>2021-02-28T13:11:50Z</time>
      </trkpt>
      <trkpt lat="43.59214" lon="3.74564">
        <ele>92</ele>
        <time>2021-02-28T13:11:52Z</time>
      </trkpt>
      <trkpt lat="43.59215" lon="3.7456">
        <ele>92</ele>
        <time>2021-02-28T13:11:54Z</time>
      </trkpt>
      <trkpt lat="43.59216" lon="3.74557">
        <ele>92</ele>
        <time>2021-02-28T13:11:56Z</time>
      </trkpt>
      <trkpt lat="43.59217" lon="3.74554">
        <ele>92</ele>
        <time>2021-02-28T13:11:58Z</time>
      </trkpt>
      <trkpt lat="43.59219" lon="3.74556">
        <ele>92</ele>
        <time>2021-02-28T13:12:00Z</time>
      </trkpt>
      <trkpt lat="43.59219" lon="3.74558">
        <ele>92</ele>
        <time>2021-02-28T13:12:02Z</time>
      </trkpt>
      <trkpt lat="43.59218" lon="3.74562">
        <ele>92</ele>
        <time>2021-02-28T13:12:04Z</time>
      </trkpt>
      <trkpt lat="43.59218" lon="3.74565">
        <ele>93</ele>
        <time>2021-02-28T13:12:05Z</time>
      </trkpt>
      <trkpt lat="43.59217" lon="3.74568">
        <ele>93</ele>
        <time>2021-02-28T13:12:06Z</time>
      </trkpt>
      <trkpt lat="43.59216" lon="3.74572">
        <ele>93</ele>
        <time>2021-02-28T13:12:07Z</time>
      </trkpt>
      <trkpt lat="43.59215" lon="3.74576">
        <ele>93</ele>
        <time>2021-02-28T13:12:08Z</time>
      </trkpt>
      <trkpt lat="43.59213" lon="3.74581">
        <ele>93</ele>
        <time>2021-02-28T13:12:09Z</time>
      </trkpt>
      <trkpt lat="43.59211" lon="3.74585">
        <ele>93</ele>
        <time>2021-02-28T13:12:10Z</time>
      </trkpt>
      <trkpt lat="43.59209" lon="3.7459">
        <ele>93</ele>
        <time>2021-02-28T13:12:11Z</time>
      </trkpt>
      <trkpt lat="43.59206" lon="3.74595">
        <ele>93</ele>
        <time>2021-02-28T13:12:12Z</time>
      </trkpt>
      <trkpt lat="43.59203" lon="3.74599">
        <ele>93</ele>
        <time>2021-02-28T13:12:13Z</time>
      </trkpt>
      <trkpt lat="43.592" lon="3.74603">
        <ele>93</ele>
        <time>2021-02-28T13:12:14Z</time>
      </trkpt>
      <trkpt lat="43.59197" lon="3.74607">
        <ele>92</ele>
        <time>2021-02-28T13:12:15Z</time>
      </trkpt>
      <trkpt lat="43.59194" lon="3.74612">
        <ele>92</ele>
        <time>2021-02-28T13:12:16Z</time>
      </trkpt>
      <trkpt lat="43.59191" lon="3.74616">
        <ele>92</ele>
        <time>2021-02-28T13:12:17Z</time>
      </trkpt>
      <trkpt lat="43.59189" lon="3.7462">
        <ele>92</ele>
        <time>2021-02-28T13:12:18Z</time>
      </trkpt>
      <trkpt lat="43.59186" lon="3.74625">
        <ele>92</ele>
        <time>2021-02-28T13:12:19Z</time>
      </trkpt>
      <trkpt lat="43.59184" lon="3.74628">
        <ele>92</ele>
        <time>2021-02-28T13:12:20Z</time>
      </trkpt>
      <trkpt lat="43.59181" lon="3.74631">
        <ele>92</ele>
        <time>2021-02-28T13:12:21Z</time>
      </trkpt>
      <trkpt lat="43.59178" lon="3.74634">
        <ele>92</ele>
        <time>2021-02-28T13:12:22Z</time>
      </trkpt>
      <trkpt lat="43.59176" lon="3.74637">
        <ele>92</ele>
        <time>2021-02-28T13:12:23Z</time>
      </trkpt>
      <trkpt lat="43.59173" lon="3.74641">
        <ele>92</ele>
        <time>2021-02-28T13:12:24Z</time>
      </trkpt>
      <trkpt lat="43.59168" lon="3.74647">
        <ele>92</ele>
        <time>2021-02-28T13:12:26Z</time>
      </trkpt>
      <trkpt lat="43.59166" lon="3.7465">
        <ele>92</ele>
        <time>2021-02-28T13:12:27Z</time>
      </trkpt>
      <trkpt lat="43.59162" lon="3.74656">
        <ele>92</ele>
        <time>2021-02-28T13:12:29Z</time>
      </trkpt>
      <trkpt lat="43.5916" lon="3.74659">
        <ele>92</ele>
        <time>2021-02-28T13:12:30Z</time>
      </trkpt>
      <trkpt lat="43.59157" lon="3.74662">
        <ele>92</ele>
        <time>2021-02-28T13:12:31Z</time>
      </trkpt>
      <trkpt lat="43.59155" lon="3.74665">
        <ele>92</ele>
        <time>2021-02-28T13:12:32Z</time>
      </trkpt>
      <trkpt lat="43.59153" lon="3.74669">
        <ele>92</ele>
        <time>2021-02-28T13:12:33Z</time>
      </trkpt>
      <trkpt lat="43.59151" lon="3.74672">
        <ele>92</ele>
        <time>2021-02-28T13:12:34Z</time>
      </trkpt>
      <trkpt lat="43.59149" lon="3.74674">
        <ele>90</ele>
        <time>2021-02-28T13:12:35Z</time>
      </trkpt>
      <trkpt lat="43.59146" lon="3.74677">
        <ele>90</ele>
        <time>2021-02-28T13:12:36Z</time>
      </trkpt>
      <trkpt lat="43.59144" lon="3.74679">
        <ele>90</ele>
        <time>2021-02-28T13:12:37Z</time>
      </trkpt>
      <trkpt lat="43.59141" lon="3.74682">
        <ele>90</ele>
        <time>2021-02-28T13:12:38Z</time>
      </trkpt>
      <trkpt lat="43.59138" lon="3.74683">
        <ele>90</ele>
        <time>2021-02-28T13:12:39Z</time>
      </trkpt>
      <trkpt lat="43.59136" lon="3.74685">
        <ele>90</ele>
        <time>2021-02-28T13:12:40Z</time>
      </trkpt>
      <trkpt lat="43.59133" lon="3.74687">
        <ele>90</ele>
        <time>2021-02-28T13:12:41Z</time>
      </trkpt>
      <trkpt lat="43.59129" lon="3.74689">
        <ele>90</ele>
        <time>2021-02-28T13:12:43Z</time>
      </trkpt>
      <trkpt lat="43.59127" lon="3.7469">
        <ele>90</ele>
        <time>2021-02-28T13:12:44Z</time>
      </trkpt>
      <trkpt lat="43.59124" lon="3.74691">
        <ele>90</ele>
        <time>2021-02-28T13:12:45Z</time>
      </trkpt>
      <trkpt lat="43.59122" lon="3.74692">
        <ele>90</ele>
        <time>2021-02-28T13:12:46Z</time>
      </trkpt>
      <trkpt lat="43.5912" lon="3.74693">
        <ele>90</ele>
        <time>2021-02-28T13:12:47Z</time>
      </trkpt>
      <trkpt lat="43.59118" lon="3.74693">
        <ele>90</ele>
        <time>2021-02-28T13:12:48Z</time>
      </trkpt>
      <trkpt lat="43.59117" lon="3.74694">
        <ele>90</ele>
        <time>2021-02-28T13:12:49Z</time>
      </trkpt>
      <trkpt lat="43.59115" lon="3.74694">
        <ele>90</ele>
        <time>2021-02-28T13:12:50Z</time>
      </trkpt>
      <trkpt lat="43.59111" lon="3.74695">
        <ele>90</ele>
        <time>2021-02-28T13:12:52Z</time>
      </trkpt>
      <trkpt lat="43.59108" lon="3.74696">
        <ele>90</ele>
        <time>2021-02-28T13:12:54Z</time>
      </trkpt>
      <trkpt lat="43.59106" lon="3.74696">
        <ele>93</ele>
        <time>2021-02-28T13:12:55Z</time>
      </trkpt>
      <trkpt lat="43.59104" lon="3.74696">
        <ele>93</ele>
        <time>2021-02-28T13:12:56Z</time>
      </trkpt>
      <trkpt lat="43.59103" lon="3.74697">
        <ele>93</ele>
        <time>2021-02-28T13:12:57Z</time>
      </trkpt>
      <trkpt lat="43.59101" lon="3.74697">
        <ele>93</ele>
        <time>2021-02-28T13:12:58Z</time>
      </trkpt>
      <trkpt lat="43.59099" lon="3.74697">
        <ele>93</ele>
        <time>2021-02-28T13:12:59Z</time>
      </trkpt>
      <trkpt lat="43.59096" lon="3.74697">
        <ele>93</ele>
        <time>2021-02-28T13:13:01Z</time>
      </trkpt>
      <trkpt lat="43.59092" lon="3.74697">
        <ele>93</ele>
        <time>2021-02-28T13:13:03Z</time>
      </trkpt>
      <trkpt lat="43.5909" lon="3.74697">
        <ele>95</ele>
        <time>2021-02-28T13:13:05Z</time>
      </trkpt>
      <trkpt lat="43.59087" lon="3.74697">
        <ele>95</ele>
        <time>2021-02-28T13:13:07Z</time>
      </trkpt>
      <trkpt lat="43.59084" lon="3.74697">
        <ele>95</ele>
        <time>2021-02-28T13:13:09Z</time>
      </trkpt>
      <trkpt lat="43.59081" lon="3.74697">
        <ele>95</ele>
        <time>2021-02-28T13:13:11Z</time>
      </trkpt>
      <trkpt lat="43.59079" lon="3.74699">
        <ele>95</ele>
        <time>2021-02-28T13:13:13Z</time>
      </trkpt>
      <trkpt lat="43.59077" lon="3.747">
        <ele>96</ele>
        <time>2021-02-28T13:13:15Z</time>
      </trkpt>
      <trkpt lat="43.59074" lon="3.74701">
        <ele>96</ele>
        <time>2021-02-28T13:13:17Z</time>
      </trkpt>
      <trkpt lat="43.59073" lon="3.74704">
        <ele>96</ele>
        <time>2021-02-28T13:13:19Z</time>
      </trkpt>
      <trkpt lat="43.59073" lon="3.74708">
        <ele>96</ele>
        <time>2021-02-28T13:13:21Z</time>
      </trkpt>
      <trkpt lat="43.59072" lon="3.74711">
        <ele>96</ele>
        <time>2021-02-28T13:13:22Z</time>
      </trkpt>
      <trkpt lat="43.59072" lon="3.74715">
        <ele>96</ele>
        <time>2021-02-28T13:13:23Z</time>
      </trkpt>
      <trkpt lat="43.5907" lon="3.7472">
        <ele>96</ele>
        <time>2021-02-28T13:13:24Z</time>
      </trkpt>
      <trkpt lat="43.59069" lon="3.74724">
        <ele>96</ele>
        <time>2021-02-28T13:13:25Z</time>
      </trkpt>
      <trkpt lat="43.59067" lon="3.74728">
        <ele>96</ele>
        <time>2021-02-28T13:13:26Z</time>
      </trkpt>
      <trkpt lat="43.59065" lon="3.74732">
        <ele>96</ele>
        <time>2021-02-28T13:13:27Z</time>
      </trkpt>
      <trkpt lat="43.59064" lon="3.74735">
        <ele>96</ele>
        <time>2021-02-28T13:13:28Z</time>
      </trkpt>
      <trkpt lat="43.59062" lon="3.74738">
        <ele>96</ele>
        <time>2021-02-28T13:13:29Z</time>
      </trkpt>
      <trkpt lat="43.5906" lon="3.7474">
        <ele>96</ele>
        <time>2021-02-28T13:13:30Z</time>
      </trkpt>
      <trkpt lat="43.59058" lon="3.74742">
        <ele>96</ele>
        <time>2021-02-28T13:13:31Z</time>
      </trkpt>
      <trkpt lat="43.59056" lon="3.74742">
        <ele>96</ele>
        <time>2021-02-28T13:13:32Z</time>
      </trkpt>
      <trkpt lat="43.59054" lon="3.74742">
        <ele>96</ele>
        <time>2021-02-28T13:13:33Z</time>
      </trkpt>
      <trkpt lat="43.59051" lon="3.74743">
        <ele>96</ele>
        <time>2021-02-28T13:13:34Z</time>
      </trkpt>
      <trkpt lat="43.59049" lon="3.74743">
        <ele>98</ele>
        <time>2021-02-28T13:13:35Z</time>
      </trkpt>
      <trkpt lat="43.59047" lon="3.74743">
        <ele>98</ele>
        <time>2021-02-28T13:13:36Z</time>
      </trkpt>
      <trkpt lat="43.59045" lon="3.74743">
        <ele>98</ele>
        <time>2021-02-28T13:13:37Z</time>
      </trkpt>
      <trkpt lat="43.59043" lon="3.74742">
        <ele>98</ele>
        <time>2021-02-28T13:13:38Z</time>
      </trkpt>
      <trkpt lat="43.59041" lon="3.74741">
        <ele>98</ele>
        <time>2021-02-28T13:13:39Z</time>
      </trkpt>
      <trkpt lat="43.59039" lon="3.74741">
        <ele>98</ele>
        <time>2021-02-28T13:13:40Z</time>
      </trkpt>
      <trkpt lat="43.59037" lon="3.7474">
        <ele>98</ele>
        <time>2021-02-28T13:13:41Z</time>
      </trkpt>
      <trkpt lat="43.59035" lon="3.74739">
        <ele>98</ele>
        <time>2021-02-28T13:13:42Z</time>
      </trkpt>
      <trkpt lat="43.59033" lon="3.74738">
        <ele>98</ele>
        <time>2021-02-28T13:13:43Z</time>
      </trkpt>
      <trkpt lat="43.59032" lon="3.74738">
        <ele>98</ele>
        <time>2021-02-28T13:13:44Z</time>
      </trkpt>
      <trkpt lat="43.5903" lon="3.74737">
        <ele>100</ele>
        <time>2021-02-28T13:13:45Z</time>
      </trkpt>
      <trkpt lat="43.59028" lon="3.74736">
        <ele>100</ele>
        <time>2021-02-28T13:13:46Z</time>
      </trkpt>
      <trkpt lat="43.59026" lon="3.74736">
        <ele>100</ele>
        <time>2021-02-28T13:13:47Z</time>
      </trkpt>
      <trkpt lat="43.59024" lon="3.74735">
        <ele>100</ele>
        <time>2021-02-28T13:13:48Z</time>
      </trkpt>
      <trkpt lat="43.59022" lon="3.74735">
        <ele>100</ele>
        <time>2021-02-28T13:13:49Z</time>
      </trkpt>
      <trkpt lat="43.5902" lon="3.74734">
        <ele>100</ele>
        <time>2021-02-28T13:13:50Z</time>
      </trkpt>
      <trkpt lat="43.59019" lon="3.74733">
        <ele>100</ele>
        <time>2021-02-28T13:13:51Z</time>
      </trkpt>
      <trkpt lat="43.59017" lon="3.74732">
        <ele>100</ele>
        <time>2021-02-28T13:13:52Z</time>
      </trkpt>
      <trkpt lat="43.59015" lon="3.74732">
        <ele>100</ele>
        <time>2021-02-28T13:13:53Z</time>
      </trkpt>
      <trkpt lat="43.59014" lon="3.74731">
        <ele>100</ele>
        <time>2021-02-28T13:13:54Z</time>
      </trkpt>
      <trkpt lat="43.59012" lon="3.7473">
        <ele>101</ele>
        <time>2021-02-28T13:13:55Z</time>
      </trkpt>
      <trkpt lat="43.5901" lon="3.74728">
        <ele>101</ele>
        <time>2021-02-28T13:13:56Z</time>
      </trkpt>
      <trkpt lat="43.59007" lon="3.74726">
        <ele>101</ele>
        <time>2021-02-28T13:13:58Z</time>
      </trkpt>
      <trkpt lat="43.59005" lon="3.74724">
        <ele>101</ele>
        <time>2021-02-28T13:13:59Z</time>
      </trkpt>
      <trkpt lat="43.59003" lon="3.74723">
        <ele>101</ele>
        <time>2021-02-28T13:14:00Z</time>
      </trkpt>
      <trkpt lat="43.59" lon="3.74721">
        <ele>101</ele>
        <time>2021-02-28T13:14:02Z</time>
      </trkpt>
      <trkpt lat="43.58998" lon="3.7472">
        <ele>101</ele>
        <time>2021-02-28T13:14:03Z</time>
      </trkpt>
      <trkpt lat="43.58996" lon="3.74719">
        <ele>101</ele>
        <time>2021-02-28T13:14:04Z</time>
      </trkpt>
      <trkpt lat="43.58993" lon="3.74718">
        <ele>102</ele>
        <time>2021-02-28T13:14:05Z</time>
      </trkpt>
      <trkpt lat="43.58991" lon="3.74717">
        <ele>102</ele>
        <time>2021-02-28T13:14:06Z</time>
      </trkpt>
      <trkpt lat="43.58988" lon="3.74716">
        <ele>102</ele>
        <time>2021-02-28T13:14:07Z</time>
      </trkpt>
      <trkpt lat="43.58986" lon="3.74716">
        <ele>102</ele>
        <time>2021-02-28T13:14:08Z</time>
      </trkpt>
      <trkpt lat="43.58983" lon="3.74715">
        <ele>102</ele>
        <time>2021-02-28T13:14:09Z</time>
      </trkpt>
      <trkpt lat="43.5898" lon="3.74715">
        <ele>102</ele>
        <time>2021-02-28T13:14:10Z</time>
      </trkpt>
      <trkpt lat="43.58978" lon="3.74715">
        <ele>102</ele>
        <time>2021-02-28T13:14:11Z</time>
      </trkpt>
      <trkpt lat="43.58975" lon="3.74716">
        <ele>102</ele>
        <time>2021-02-28T13:14:12Z</time>
      </trkpt>
      <trkpt lat="43.58972" lon="3.74716">
        <ele>102</ele>
        <time>2021-02-28T13:14:13Z</time>
      </trkpt>
      <trkpt lat="43.58969" lon="3.74717">
        <ele>102</ele>
        <time>2021-02-28T13:14:14Z</time>
      </trkpt>
      <trkpt lat="43.58965" lon="3.74717">
        <ele>102</ele>
        <time>2021-02-28T13:14:15Z</time>
      </trkpt>
      <trkpt lat="43.58962" lon="3.74717">
        <ele>102</ele>
        <time>2021-02-28T13:14:16Z</time>
      </trkpt>
      <trkpt lat="43.58959" lon="3.74716">
        <ele>102</ele>
        <time>2021-02-28T13:14:17Z</time>
      </trkpt>
      <trkpt lat="43.58956" lon="3.74716">
        <ele>102</ele>
        <time>2021-02-28T13:14:18Z</time>
      </trkpt>
      <trkpt lat="43.58953" lon="3.74715">
        <ele>102</ele>
        <time>2021-02-28T13:14:19Z</time>
      </trkpt>
      <trkpt lat="43.5895" lon="3.74715">
        <ele>102</ele>
        <time>2021-02-28T13:14:20Z</time>
      </trkpt>
      <trkpt lat="43.58947" lon="3.74715">
        <ele>102</ele>
        <time>2021-02-28T13:14:21Z</time>
      </trkpt>
      <trkpt lat="43.58943" lon="3.74716">
        <ele>102</ele>
        <time>2021-02-28T13:14:22Z</time>
      </trkpt>
      <trkpt lat="43.5894" lon="3.74716">
        <ele>102</ele>
        <time>2021-02-28T13:14:23Z</time>
      </trkpt>
      <trkpt lat="43.58937" lon="3.74716">
        <ele>102</ele>
        <time>2021-02-28T13:14:24Z</time>
      </trkpt>
      <trkpt lat="43.58934" lon="3.74717">
        <ele>102</ele>
        <time>2021-02-28T13:14:25Z</time>
      </trkpt>
      <trkpt lat="43.5893" lon="3.74717">
        <ele>102</ele>
        <time>2021-02-28T13:14:26Z</time>
      </trkpt>
      <trkpt lat="43.58927" lon="3.74717">
        <ele>102</ele>
        <time>2021-02-28T13:14:27Z</time>
      </trkpt>
      <trkpt lat="43.58924" lon="3.74717">
        <ele>102</ele>
        <time>2021-02-28T13:14:28Z</time>
      </trkpt>
      <trkpt lat="43.58921" lon="3.74717">
        <ele>102</ele>
        <time>2021-02-28T13:14:29Z</time>
      </trkpt>
      <trkpt lat="43.58917" lon="3.74717">
        <ele>102</ele>
        <time>2021-02-28T13:14:30Z</time>
      </trkpt>
      <trkpt lat="43.58914" lon="3.74717">
        <ele>102</ele>
        <time>2021-02-28T13:14:31Z</time>
      </trkpt>
      <trkpt lat="43.58912" lon="3.74717">
        <ele>102</ele>
        <time>2021-02-28T13:14:32Z</time>
      </trkpt>
      <trkpt lat="43.58909" lon="3.74717">
        <ele>102</ele>
        <time>2021-02-28T13:14:34Z</time>
      </trkpt>
      <trkpt lat="43.58906" lon="3.74719">
        <ele>102</ele>
        <time>2021-02-28T13:14:36Z</time>
      </trkpt>
      <trkpt lat="43.58904" lon="3.7472">
        <ele>102</ele>
        <time>2021-02-28T13:14:37Z</time>
      </trkpt>
      <trkpt lat="43.58902" lon="3.74722">
        <ele>102</ele>
        <time>2021-02-28T13:14:38Z</time>
      </trkpt>
      <trkpt lat="43.58901" lon="3.74724">
        <ele>102</ele>
        <time>2021-02-28T13:14:39Z</time>
      </trkpt>
      <trkpt lat="43.589" lon="3.74728">
        <ele>102</ele>
        <time>2021-02-28T13:14:40Z</time>
      </trkpt>
      <trkpt lat="43.58899" lon="3.74732">
        <ele>102</ele>
        <time>2021-02-28T13:14:41Z</time>
      </trkpt>
      <trkpt lat="43.58899" lon="3.74736">
        <ele>102</ele>
        <time>2021-02-28T13:14:42Z</time>
      </trkpt>
      <trkpt lat="43.58898" lon="3.7474">
        <ele>102</ele>
        <time>2021-02-28T13:14:43Z</time>
      </trkpt>
      <trkpt lat="43.58897" lon="3.74744">
        <ele>102</ele>
        <time>2021-02-28T13:14:44Z</time>
      </trkpt>
      <trkpt lat="43.58895" lon="3.74748">
        <ele>101</ele>
        <time>2021-02-28T13:14:45Z</time>
      </trkpt>
      <trkpt lat="43.58891" lon="3.7475">
        <ele>101</ele>
        <time>2021-02-28T13:14:46Z</time>
      </trkpt>
      <trkpt lat="43.58888" lon="3.7475">
        <ele>101</ele>
        <time>2021-02-28T13:14:47Z</time>
      </trkpt>
      <trkpt lat="43.58884" lon="3.7475">
        <ele>101</ele>
        <time>2021-02-28T13:14:48Z</time>
      </trkpt>
      <trkpt lat="43.5888" lon="3.7475">
        <ele>101</ele>
        <time>2021-02-28T13:14:49Z</time>
      </trkpt>
      <trkpt lat="43.58876" lon="3.7475">
        <ele>101</ele>
        <time>2021-02-28T13:14:50Z</time>
      </trkpt>
      <trkpt lat="43.58873" lon="3.74751">
        <ele>101</ele>
        <time>2021-02-28T13:14:51Z</time>
      </trkpt>
      <trkpt lat="43.58869" lon="3.74752">
        <ele>101</ele>
        <time>2021-02-28T13:14:52Z</time>
      </trkpt>
      <trkpt lat="43.58866" lon="3.74753">
        <ele>101</ele>
        <time>2021-02-28T13:14:53Z</time>
      </trkpt>
      <trkpt lat="43.58863" lon="3.74754">
        <ele>101</ele>
        <time>2021-02-28T13:14:54Z</time>
      </trkpt>
      <trkpt lat="43.5886" lon="3.74755">
        <ele>100</ele>
        <time>2021-02-28T13:14:55Z</time>
      </trkpt>
      <trkpt lat="43.58857" lon="3.74757">
        <ele>100</ele>
        <time>2021-02-28T13:14:56Z</time>
      </trkpt>
      <trkpt lat="43.58854" lon="3.74759">
        <ele>100</ele>
        <time>2021-02-28T13:14:57Z</time>
      </trkpt>
      <trkpt lat="43.58851" lon="3.74762">
        <ele>100</ele>
        <time>2021-02-28T13:14:58Z</time>
      </trkpt>
      <trkpt lat="43.58849" lon="3.74765">
        <ele>100</ele>
        <time>2021-02-28T13:15:00Z</time>
      </trkpt>
      <trkpt lat="43.58844" lon="3.74773">
        <ele>100</ele>
        <time>2021-02-28T13:15:01Z</time>
      </trkpt>
      <trkpt lat="43.58842" lon="3.74777">
        <ele>100</ele>
        <time>2021-02-28T13:15:02Z</time>
      </trkpt>
      <trkpt lat="43.58841" lon="3.74781">
        <ele>100</ele>
        <time>2021-02-28T13:15:03Z</time>
      </trkpt>
      <trkpt lat="43.5884" lon="3.74784">
        <ele>100</ele>
        <time>2021-02-28T13:15:04Z</time>
      </trkpt>
      <trkpt lat="43.58839" lon="3.74786">
        <ele>99</ele>
        <time>2021-02-28T13:15:05Z</time>
      </trkpt>
      <trkpt lat="43.58838" lon="3.74788">
        <ele>99</ele>
        <time>2021-02-28T13:15:07Z</time>
      </trkpt>
      <trkpt lat="43.58838" lon="3.74791">
        <ele>99</ele>
        <time>2021-02-28T13:15:10Z</time>
      </trkpt>
      <trkpt lat="43.58838" lon="3.74794">
        <ele>99</ele>
        <time>2021-02-28T13:15:12Z</time>
      </trkpt>
      <trkpt lat="43.58837" lon="3.74791">
        <ele>99</ele>
        <time>2021-02-28T13:15:18Z</time>
      </trkpt>
      <trkpt lat="43.58839" lon="3.74788">
        <ele>99</ele>
        <time>2021-02-28T13:15:20Z</time>
      </trkpt>
      <trkpt lat="43.58839" lon="3.74785">
        <ele>99</ele>
        <time>2021-02-28T13:15:22Z</time>
      </trkpt>
      <trkpt lat="43.58841" lon="3.74782">
        <ele>99</ele>
        <time>2021-02-28T13:15:24Z</time>
      </trkpt>
      <trkpt lat="43.58842" lon="3.74778">
        <ele>99</ele>
        <time>2021-02-28T13:15:26Z</time>
      </trkpt>
      <trkpt lat="43.58842" lon="3.74775">
        <ele>99</ele>
        <time>2021-02-28T13:15:28Z</time>
      </trkpt>
      <trkpt lat="43.5884" lon="3.74773">
        <ele>99</ele>
        <time>2021-02-28T13:15:30Z</time>
      </trkpt>
      <trkpt lat="43.58837" lon="3.74774">
        <ele>99</ele>
        <time>2021-02-28T13:15:32Z</time>
      </trkpt>
      <trkpt lat="43.58834" lon="3.74773">
        <ele>99</ele>
        <time>2021-02-28T13:15:34Z</time>
      </trkpt>
      <trkpt lat="43.58831" lon="3.74775">
        <ele>99</ele>
        <time>2021-02-28T13:15:36Z</time>
      </trkpt>
      <trkpt lat="43.58829" lon="3.74777">
        <ele>99</ele>
        <time>2021-02-28T13:15:37Z</time>
      </trkpt>
      <trkpt lat="43.58827" lon="3.7478">
        <ele>99</ele>
        <time>2021-02-28T13:15:38Z</time>
      </trkpt>
      <trkpt lat="43.58825" lon="3.74782">
        <ele>99</ele>
        <time>2021-02-28T13:15:39Z</time>
      </trkpt>
      <trkpt lat="43.58822" lon="3.74783">
        <ele>99</ele>
        <time>2021-02-28T13:15:40Z</time>
      </trkpt>
      <trkpt lat="43.5882" lon="3.74782">
        <ele>99</ele>
        <time>2021-02-28T13:15:41Z</time>
      </trkpt>
      <trkpt lat="43.58818" lon="3.7478">
        <ele>99</ele>
        <time>2021-02-28T13:15:42Z</time>
      </trkpt>
      <trkpt lat="43.58817" lon="3.74778">
        <ele>99</ele>
        <time>2021-02-28T13:15:43Z</time>
      </trkpt>
      <trkpt lat="43.58815" lon="3.74776">
        <ele>99</ele>
        <time>2021-02-28T13:15:44Z</time>
      </trkpt>
      <trkpt lat="43.58815" lon="3.74773">
        <ele>98</ele>
        <time>2021-02-28T13:15:45Z</time>
      </trkpt>
      <trkpt lat="43.58814" lon="3.7477">
        <ele>98</ele>
        <time>2021-02-28T13:15:46Z</time>
      </trkpt>
      <trkpt lat="43.58814" lon="3.74767">
        <ele>98</ele>
        <time>2021-02-28T13:15:47Z</time>
      </trkpt>
      <trkpt lat="43.58814" lon="3.74763">
        <ele>98</ele>
        <time>2021-02-28T13:15:48Z</time>
      </trkpt>
      <trkpt lat="43.58813" lon="3.7476">
        <ele>98</ele>
        <time>2021-02-28T13:15:49Z</time>
      </trkpt>
      <trkpt lat="43.58812" lon="3.74757">
        <ele>98</ele>
        <time>2021-02-28T13:15:50Z</time>
      </trkpt>
      <trkpt lat="43.5881" lon="3.74755">
        <ele>98</ele>
        <time>2021-02-28T13:15:51Z</time>
      </trkpt>
      <trkpt lat="43.58807" lon="3.74753">
        <ele>98</ele>
        <time>2021-02-28T13:15:52Z</time>
      </trkpt>
      <trkpt lat="43.58805" lon="3.74751">
        <ele>98</ele>
        <time>2021-02-28T13:15:53Z</time>
      </trkpt>
      <trkpt lat="43.58803" lon="3.74748">
        <ele>98</ele>
        <time>2021-02-28T13:15:54Z</time>
      </trkpt>
      <trkpt lat="43.58802" lon="3.74745">
        <ele>99</ele>
        <time>2021-02-28T13:15:55Z</time>
      </trkpt>
      <trkpt lat="43.588" lon="3.74743">
        <ele>99</ele>
        <time>2021-02-28T13:15:56Z</time>
      </trkpt>
      <trkpt lat="43.58797" lon="3.74744">
        <ele>99</ele>
        <time>2021-02-28T13:15:58Z</time>
      </trkpt>
      <trkpt lat="43.58796" lon="3.74749">
        <ele>99</ele>
        <time>2021-02-28T13:16:00Z</time>
      </trkpt>
      <trkpt lat="43.58795" lon="3.74753">
        <ele>99</ele>
        <time>2021-02-28T13:16:01Z</time>
      </trkpt>
      <trkpt lat="43.58793" lon="3.74757">
        <ele>99</ele>
        <time>2021-02-28T13:16:02Z</time>
      </trkpt>
      <trkpt lat="43.58791" lon="3.74759">
        <ele>99</ele>
        <time>2021-02-28T13:16:03Z</time>
      </trkpt>
      <trkpt lat="43.58788" lon="3.74761">
        <ele>99</ele>
        <time>2021-02-28T13:16:04Z</time>
      </trkpt>
      <trkpt lat="43.58784" lon="3.74762">
        <ele>98</ele>
        <time>2021-02-28T13:16:05Z</time>
      </trkpt>
      <trkpt lat="43.58781" lon="3.74763">
        <ele>98</ele>
        <time>2021-02-28T13:16:06Z</time>
      </trkpt>
      <trkpt lat="43.58778" lon="3.74762">
        <ele>98</ele>
        <time>2021-02-28T13:16:07Z</time>
      </trkpt>
      <trkpt lat="43.58775" lon="3.74762">
        <ele>98</ele>
        <time>2021-02-28T13:16:08Z</time>
      </trkpt>
      <trkpt lat="43.58773" lon="3.74762">
        <ele>98</ele>
        <time>2021-02-28T13:16:09Z</time>
      </trkpt>
      <trkpt lat="43.58771" lon="3.74763">
        <ele>98</ele>
        <time>2021-02-28T13:16:10Z</time>
      </trkpt>
      <trkpt lat="43.58769" lon="3.74765">
        <ele>98</ele>
        <time>2021-02-28T13:16:11Z</time>
      </trkpt>
      <trkpt lat="43.58766" lon="3.74766">
        <ele>98</ele>
        <time>2021-02-28T13:16:12Z</time>
      </trkpt>
      <trkpt lat="43.58763" lon="3.74768">
        <ele>98</ele>
        <time>2021-02-28T13:16:13Z</time>
      </trkpt>
      <trkpt lat="43.58761" lon="3.74769">
        <ele>98</ele>
        <time>2021-02-28T13:16:14Z</time>
      </trkpt>
      <trkpt lat="43.58754" lon="3.74772">
        <ele>98</ele>
        <time>2021-02-28T13:16:16Z</time>
      </trkpt>
      <trkpt lat="43.58751" lon="3.74772">
        <ele>98</ele>
        <time>2021-02-28T13:16:17Z</time>
      </trkpt>
      <trkpt lat="43.58748" lon="3.74771">
        <ele>98</ele>
        <time>2021-02-28T13:16:18Z</time>
      </trkpt>
      <trkpt lat="43.58745" lon="3.7477">
        <ele>98</ele>
        <time>2021-02-28T13:16:19Z</time>
      </trkpt>
      <trkpt lat="43.58742" lon="3.7477">
        <ele>98</ele>
        <time>2021-02-28T13:16:20Z</time>
      </trkpt>
      <trkpt lat="43.58739" lon="3.7477">
        <ele>98</ele>
        <time>2021-02-28T13:16:21Z</time>
      </trkpt>
      <trkpt lat="43.58735" lon="3.74771">
        <ele>98</ele>
        <time>2021-02-28T13:16:22Z</time>
      </trkpt>
      <trkpt lat="43.58732" lon="3.74771">
        <ele>98</ele>
        <time>2021-02-28T13:16:23Z</time>
      </trkpt>
      <trkpt lat="43.58729" lon="3.74771">
        <ele>98</ele>
        <time>2021-02-28T13:16:24Z</time>
      </trkpt>
      <trkpt lat="43.58727" lon="3.7477">
        <ele>99</ele>
        <time>2021-02-28T13:16:25Z</time>
      </trkpt>
      <trkpt lat="43.58724" lon="3.7477">
        <ele>99</ele>
        <time>2021-02-28T13:16:27Z</time>
      </trkpt>
      <trkpt lat="43.58724" lon="3.74769">
        <ele>99</ele>
        <time>2021-02-28T13:16:35Z</time>
      </trkpt>
      <trkpt lat="43.58713" lon="3.74765">
        <ele>98</ele>
        <time>2021-02-28T13:18:10Z</time>
      </trkpt>
      <trkpt lat="43.5871" lon="3.74765">
        <ele>98</ele>
        <time>2021-02-28T13:18:11Z</time>
      </trkpt>
      <trkpt lat="43.58706" lon="3.74761">
        <ele>98</ele>
        <time>2021-02-28T13:18:12Z</time>
      </trkpt>
      <trkpt lat="43.58704" lon="3.74761">
        <ele>98</ele>
        <time>2021-02-28T13:18:13Z</time>
      </trkpt>
      <trkpt lat="43.58702" lon="3.7476">
        <ele>98</ele>
        <time>2021-02-28T13:18:14Z</time>
      </trkpt>
      <trkpt lat="43.587" lon="3.74759">
        <ele>98</ele>
        <time>2021-02-28T13:18:15Z</time>
      </trkpt>
      <trkpt lat="43.58697" lon="3.74758">
        <ele>98</ele>
        <time>2021-02-28T13:18:16Z</time>
      </trkpt>
      <trkpt lat="43.58692" lon="3.7476">
        <ele>98</ele>
        <time>2021-02-28T13:18:18Z</time>
      </trkpt>
      <trkpt lat="43.58689" lon="3.74763">
        <ele>97</ele>
        <time>2021-02-28T13:18:19Z</time>
      </trkpt>
      <trkpt lat="43.58686" lon="3.74765">
        <ele>97</ele>
        <time>2021-02-28T13:18:20Z</time>
      </trkpt>
      <trkpt lat="43.5868" lon="3.74765">
        <ele>97</ele>
        <time>2021-02-28T13:18:22Z</time>
      </trkpt>
      <trkpt lat="43.58677" lon="3.74765">
        <ele>97</ele>
        <time>2021-02-28T13:18:23Z</time>
      </trkpt>
      <trkpt lat="43.58674" lon="3.74766">
        <ele>97</ele>
        <time>2021-02-28T13:18:24Z</time>
      </trkpt>
      <trkpt lat="43.58671" lon="3.74765">
        <ele>97</ele>
        <time>2021-02-28T13:18:25Z</time>
      </trkpt>
      <trkpt lat="43.58668" lon="3.74764">
        <ele>97</ele>
        <time>2021-02-28T13:18:26Z</time>
      </trkpt>
      <trkpt lat="43.58666" lon="3.74761">
        <ele>97</ele>
        <time>2021-02-28T13:18:27Z</time>
      </trkpt>
      <trkpt lat="43.58664" lon="3.74758">
        <ele>97</ele>
        <time>2021-02-28T13:18:28Z</time>
      </trkpt>
      <trkpt lat="43.58662" lon="3.74755">
        <ele>97</ele>
        <time>2021-02-28T13:18:29Z</time>
      </trkpt>
      <trkpt lat="43.5866" lon="3.74753">
        <ele>97</ele>
        <time>2021-02-28T13:18:31Z</time>
      </trkpt>
      <trkpt lat="43.58658" lon="3.7475">
        <ele>97</ele>
        <time>2021-02-28T13:18:33Z</time>
      </trkpt>
      <trkpt lat="43.58656" lon="3.74748">
        <ele>97</ele>
        <time>2021-02-28T13:18:34Z</time>
      </trkpt>
      <trkpt lat="43.58655" lon="3.74747">
        <ele>97</ele>
        <time>2021-02-28T13:18:35Z</time>
      </trkpt>
      <trkpt lat="43.58653" lon="3.74747">
        <ele>97</ele>
        <time>2021-02-28T13:18:36Z</time>
      </trkpt>
      <trkpt lat="43.5865" lon="3.74747">
        <ele>97</ele>
        <time>2021-02-28T13:18:37Z</time>
      </trkpt>
      <trkpt lat="43.58647" lon="3.74747">
        <ele>97</ele>
        <time>2021-02-28T13:18:38Z</time>
      </trkpt>
      <trkpt lat="43.58644" lon="3.74746">
        <ele>97</ele>
        <time>2021-02-28T13:18:39Z</time>
      </trkpt>
      <trkpt lat="43.58641" lon="3.74744">
        <ele>97</ele>
        <time>2021-02-28T13:18:40Z</time>
      </trkpt>
      <trkpt lat="43.58638" lon="3.74742">
        <ele>97</ele>
        <time>2021-02-28T13:18:41Z</time>
      </trkpt>
      <trkpt lat="43.58631" lon="3.74737">
        <ele>97</ele>
        <time>2021-02-28T13:18:43Z</time>
      </trkpt>
      <trkpt lat="43.58628" lon="3.74734">
        <ele>97</ele>
        <time>2021-02-28T13:18:44Z</time>
      </trkpt>
      <trkpt lat="43.58625" lon="3.74732">
        <ele>97</ele>
        <time>2021-02-28T13:18:45Z</time>
      </trkpt>
      <trkpt lat="43.58621" lon="3.74729">
        <ele>97</ele>
        <time>2021-02-28T13:18:46Z</time>
      </trkpt>
      <trkpt lat="43.58618" lon="3.74727">
        <ele>97</ele>
        <time>2021-02-28T13:18:47Z</time>
      </trkpt>
      <trkpt lat="43.58615" lon="3.74725">
        <ele>97</ele>
        <time>2021-02-28T13:18:48Z</time>
      </trkpt>
      <trkpt lat="43.58613" lon="3.74723">
        <ele>97</ele>
        <time>2021-02-28T13:18:49Z</time>
      </trkpt>
      <trkpt lat="43.58611" lon="3.74721">
        <ele>97</ele>
        <time>2021-02-28T13:18:50Z</time>
      </trkpt>
      <trkpt lat="43.58608" lon="3.74718">
        <ele>97</ele>
        <time>2021-02-28T13:18:52Z</time>
      </trkpt>
      <trkpt lat="43.58608" lon="3.74713">
        <ele>97</ele>
        <time>2021-02-28T13:18:54Z</time>
      </trkpt>
      <trkpt lat="43.58611" lon="3.74707">
        <ele>97</ele>
        <time>2021-02-28T13:18:56Z</time>
      </trkpt>
      <trkpt lat="43.58612" lon="3.74704">
        <ele>97</ele>
        <time>2021-02-28T13:18:57Z</time>
      </trkpt>
      <trkpt lat="43.58614" lon="3.74701">
        <ele>97</ele>
        <time>2021-02-28T13:18:58Z</time>
      </trkpt>
      <trkpt lat="43.58616" lon="3.74698">
        <ele>97</ele>
        <time>2021-02-28T13:18:59Z</time>
      </trkpt>
      <trkpt lat="43.58617" lon="3.74694">
        <ele>97</ele>
        <time>2021-02-28T13:19:00Z</time>
      </trkpt>
      <trkpt lat="43.58618" lon="3.74691">
        <ele>97</ele>
        <time>2021-02-28T13:19:01Z</time>
      </trkpt>
      <trkpt lat="43.5862" lon="3.74687">
        <ele>97</ele>
        <time>2021-02-28T13:19:02Z</time>
      </trkpt>
      <trkpt lat="43.58622" lon="3.74683">
        <ele>97</ele>
        <time>2021-02-28T13:19:03Z</time>
      </trkpt>
      <trkpt lat="43.58624" lon="3.7468">
        <ele>97</ele>
        <time>2021-02-28T13:19:04Z</time>
      </trkpt>
      <trkpt lat="43.58627" lon="3.74676">
        <ele>97</ele>
        <time>2021-02-28T13:19:05Z</time>
      </trkpt>
      <trkpt lat="43.58628" lon="3.74673">
        <ele>97</ele>
        <time>2021-02-28T13:19:06Z</time>
      </trkpt>
      <trkpt lat="43.5863" lon="3.74669">
        <ele>97</ele>
        <time>2021-02-28T13:19:07Z</time>
      </trkpt>
      <trkpt lat="43.58632" lon="3.74665">
        <ele>97</ele>
        <time>2021-02-28T13:19:08Z</time>
      </trkpt>
      <trkpt lat="43.58634" lon="3.74662">
        <ele>98</ele>
        <time>2021-02-28T13:19:09Z</time>
      </trkpt>
      <trkpt lat="43.58636" lon="3.74658">
        <ele>98</ele>
        <time>2021-02-28T13:19:10Z</time>
      </trkpt>
      <trkpt lat="43.58638" lon="3.74655">
        <ele>98</ele>
        <time>2021-02-28T13:19:11Z</time>
      </trkpt>
      <trkpt lat="43.5864" lon="3.74652">
        <ele>98</ele>
        <time>2021-02-28T13:19:12Z</time>
      </trkpt>
      <trkpt lat="43.58641" lon="3.74648">
        <ele>98</ele>
        <time>2021-02-28T13:19:13Z</time>
      </trkpt>
      <trkpt lat="43.58643" lon="3.74645">
        <ele>98</ele>
        <time>2021-02-28T13:19:14Z</time>
      </trkpt>
      <trkpt lat="43.58645" lon="3.74642">
        <ele>98</ele>
        <time>2021-02-28T13:19:15Z</time>
      </trkpt>
      <trkpt lat="43.58647" lon="3.74638">
        <ele>98</ele>
        <time>2021-02-28T13:19:16Z</time>
      </trkpt>
      <trkpt lat="43.58648" lon="3.74635">
        <ele>98</ele>
        <time>2021-02-28T13:19:17Z</time>
      </trkpt>
      <trkpt lat="43.5865" lon="3.74631">
        <ele>98</ele>
        <time>2021-02-28T13:19:18Z</time>
      </trkpt>
      <trkpt lat="43.58652" lon="3.74627">
        <ele>98</ele>
        <time>2021-02-28T13:19:19Z</time>
      </trkpt>
      <trkpt lat="43.58654" lon="3.74619">
        <ele>98</ele>
        <time>2021-02-28T13:19:21Z</time>
      </trkpt>
      <trkpt lat="43.58655" lon="3.74613">
        <ele>98</ele>
        <time>2021-02-28T13:19:22Z</time>
      </trkpt>
      <trkpt lat="43.58656" lon="3.74607">
        <ele>98</ele>
        <time>2021-02-28T13:19:23Z</time>
      </trkpt>
      <trkpt lat="43.58657" lon="3.74599">
        <ele>98</ele>
        <time>2021-02-28T13:19:24Z</time>
      </trkpt>
      <trkpt lat="43.58658" lon="3.74592">
        <ele>98</ele>
        <time>2021-02-28T13:19:25Z</time>
      </trkpt>
      <trkpt lat="43.58658" lon="3.74584">
        <ele>98</ele>
        <time>2021-02-28T13:19:26Z</time>
      </trkpt>
      <trkpt lat="43.58658" lon="3.74576">
        <ele>98</ele>
        <time>2021-02-28T13:19:27Z</time>
      </trkpt>
      <trkpt lat="43.58657" lon="3.74568">
        <ele>98</ele>
        <time>2021-02-28T13:19:28Z</time>
      </trkpt>
      <trkpt lat="43.58655" lon="3.74554">
        <ele>98</ele>
        <time>2021-02-28T13:19:30Z</time>
      </trkpt>
      <trkpt lat="43.58654" lon="3.74547">
        <ele>98</ele>
        <time>2021-02-28T13:19:31Z</time>
      </trkpt>
      <trkpt lat="43.58654" lon="3.74541">
        <ele>98</ele>
        <time>2021-02-28T13:19:32Z</time>
      </trkpt>
      <trkpt lat="43.58653" lon="3.74536">
        <ele>98</ele>
        <time>2021-02-28T13:19:33Z</time>
      </trkpt>
      <trkpt lat="43.58652" lon="3.7453">
        <ele>98</ele>
        <time>2021-02-28T13:19:34Z</time>
      </trkpt>
      <trkpt lat="43.58651" lon="3.74524">
        <ele>98</ele>
        <time>2021-02-28T13:19:35Z</time>
      </trkpt>
      <trkpt lat="43.5865" lon="3.74518">
        <ele>98</ele>
        <time>2021-02-28T13:19:36Z</time>
      </trkpt>
      <trkpt lat="43.58649" lon="3.74512">
        <ele>98</ele>
        <time>2021-02-28T13:19:37Z</time>
      </trkpt>
      <trkpt lat="43.58648" lon="3.74506">
        <ele>98</ele>
        <time>2021-02-28T13:19:38Z</time>
      </trkpt>
      <trkpt lat="43.58647" lon="3.74501">
        <ele>97</ele>
        <time>2021-02-28T13:19:39Z</time>
      </trkpt>
      <trkpt lat="43.58647" lon="3.74495">
        <ele>97</ele>
        <time>2021-02-28T13:19:40Z</time>
      </trkpt>
      <trkpt lat="43.58647" lon="3.74489">
        <ele>97</ele>
        <time>2021-02-28T13:19:41Z</time>
      </trkpt>
      <trkpt lat="43.58647" lon="3.74484">
        <ele>97</ele>
        <time>2021-02-28T13:19:42Z</time>
      </trkpt>
      <trkpt lat="43.58646" lon="3.74478">
        <ele>97</ele>
        <time>2021-02-28T13:19:43Z</time>
      </trkpt>
      <trkpt lat="43.58646" lon="3.74473">
        <ele>97</ele>
        <time>2021-02-28T13:19:44Z</time>
      </trkpt>
      <trkpt lat="43.58645" lon="3.74467">
        <ele>97</ele>
        <time>2021-02-28T13:19:45Z</time>
      </trkpt>
      <trkpt lat="43.58645" lon="3.74462">
        <ele>97</ele>
        <time>2021-02-28T13:19:46Z</time>
      </trkpt>
      <trkpt lat="43.58645" lon="3.74457">
        <ele>97</ele>
        <time>2021-02-28T13:19:47Z</time>
      </trkpt>
      <trkpt lat="43.58645" lon="3.74451">
        <ele>97</ele>
        <time>2021-02-28T13:19:48Z</time>
      </trkpt>
      <trkpt lat="43.58645" lon="3.74446">
        <ele>98</ele>
        <time>2021-02-28T13:19:49Z</time>
      </trkpt>
      <trkpt lat="43.58645" lon="3.74441">
        <ele>98</ele>
        <time>2021-02-28T13:19:50Z</time>
      </trkpt>
      <trkpt lat="43.58647" lon="3.74429">
        <ele>98</ele>
        <time>2021-02-28T13:19:52Z</time>
      </trkpt>
      <trkpt lat="43.58648" lon="3.74424">
        <ele>98</ele>
        <time>2021-02-28T13:19:53Z</time>
      </trkpt>
      <trkpt lat="43.5865" lon="3.74418">
        <ele>98</ele>
        <time>2021-02-28T13:19:54Z</time>
      </trkpt>
      <trkpt lat="43.58652" lon="3.74413">
        <ele>98</ele>
        <time>2021-02-28T13:19:55Z</time>
      </trkpt>
      <trkpt lat="43.58655" lon="3.74408">
        <ele>98</ele>
        <time>2021-02-28T13:19:56Z</time>
      </trkpt>
      <trkpt lat="43.58657" lon="3.74403">
        <ele>98</ele>
        <time>2021-02-28T13:19:57Z</time>
      </trkpt>
      <trkpt lat="43.58659" lon="3.74398">
        <ele>98</ele>
        <time>2021-02-28T13:19:58Z</time>
      </trkpt>
      <trkpt lat="43.58662" lon="3.74393">
        <ele>97</ele>
        <time>2021-02-28T13:19:59Z</time>
      </trkpt>
      <trkpt lat="43.58666" lon="3.74387">
        <ele>97</ele>
        <time>2021-02-28T13:20:00Z</time>
      </trkpt>
      <trkpt lat="43.58669" lon="3.74382">
        <ele>97</ele>
        <time>2021-02-28T13:20:01Z</time>
      </trkpt>
      <trkpt lat="43.58671" lon="3.74376">
        <ele>97</ele>
        <time>2021-02-28T13:20:02Z</time>
      </trkpt>
      <trkpt lat="43.58673" lon="3.7437">
        <ele>97</ele>
        <time>2021-02-28T13:20:03Z</time>
      </trkpt>
      <trkpt lat="43.58675" lon="3.74364">
        <ele>97</ele>
        <time>2021-02-28T13:20:05Z</time>
      </trkpt>
      <trkpt lat="43.5868" lon="3.74354">
        <ele>97</ele>
        <time>2021-02-28T13:20:06Z</time>
      </trkpt>
      <trkpt lat="43.58683" lon="3.74349">
        <ele>97</ele>
        <time>2021-02-28T13:20:07Z</time>
      </trkpt>
      <trkpt lat="43.58685" lon="3.74344">
        <ele>97</ele>
        <time>2021-02-28T13:20:08Z</time>
      </trkpt>
      <trkpt lat="43.58688" lon="3.74339">
        <ele>97</ele>
        <time>2021-02-28T13:20:09Z</time>
      </trkpt>
      <trkpt lat="43.58692" lon="3.74334">
        <ele>97</ele>
        <time>2021-02-28T13:20:10Z</time>
      </trkpt>
      <trkpt lat="43.58695" lon="3.7433">
        <ele>97</ele>
        <time>2021-02-28T13:20:11Z</time>
      </trkpt>
      <trkpt lat="43.58699" lon="3.74326">
        <ele>97</ele>
        <time>2021-02-28T13:20:12Z</time>
      </trkpt>
      <trkpt lat="43.58702" lon="3.74321">
        <ele>97</ele>
        <time>2021-02-28T13:20:13Z</time>
      </trkpt>
      <trkpt lat="43.58706" lon="3.74317">
        <ele>97</ele>
        <time>2021-02-28T13:20:14Z</time>
      </trkpt>
      <trkpt lat="43.5871" lon="3.74314">
        <ele>97</ele>
        <time>2021-02-28T13:20:15Z</time>
      </trkpt>
      <trkpt lat="43.58714" lon="3.74311">
        <ele>97</ele>
        <time>2021-02-28T13:20:16Z</time>
      </trkpt>
      <trkpt lat="43.58717" lon="3.74309">
        <ele>97</ele>
        <time>2021-02-28T13:20:17Z</time>
      </trkpt>
      <trkpt lat="43.58721" lon="3.74308">
        <ele>97</ele>
        <time>2021-02-28T13:20:18Z</time>
      </trkpt>
      <trkpt lat="43.58724" lon="3.74307">
        <ele>97</ele>
        <time>2021-02-28T13:20:19Z</time>
      </trkpt>
      <trkpt lat="43.58727" lon="3.74306">
        <ele>97</ele>
        <time>2021-02-28T13:20:20Z</time>
      </trkpt>
      <trkpt lat="43.58729" lon="3.74305">
        <ele>97</ele>
        <time>2021-02-28T13:20:21Z</time>
      </trkpt>
      <trkpt lat="43.58732" lon="3.74305">
        <ele>97</ele>
        <time>2021-02-28T13:20:22Z</time>
      </trkpt>
      <trkpt lat="43.58736" lon="3.74304">
        <ele>97</ele>
        <time>2021-02-28T13:20:24Z</time>
      </trkpt>
      <trkpt lat="43.58738" lon="3.74304">
        <ele>97</ele>
        <time>2021-02-28T13:20:25Z</time>
      </trkpt>
      <trkpt lat="43.5874" lon="3.74303">
        <ele>97</ele>
        <time>2021-02-28T13:20:26Z</time>
      </trkpt>
      <trkpt lat="43.58742" lon="3.74303">
        <ele>97</ele>
        <time>2021-02-28T13:20:27Z</time>
      </trkpt>
      <trkpt lat="43.58745" lon="3.74303">
        <ele>97</ele>
        <time>2021-02-28T13:20:28Z</time>
      </trkpt>
      <trkpt lat="43.58747" lon="3.74302">
        <ele>98</ele>
        <time>2021-02-28T13:20:29Z</time>
      </trkpt>
      <trkpt lat="43.5875" lon="3.74302">
        <ele>98</ele>
        <time>2021-02-28T13:20:30Z</time>
      </trkpt>
      <trkpt lat="43.58752" lon="3.74302">
        <ele>98</ele>
        <time>2021-02-28T13:20:31Z</time>
      </trkpt>
      <trkpt lat="43.58755" lon="3.74302">
        <ele>98</ele>
        <time>2021-02-28T13:20:32Z</time>
      </trkpt>
      <trkpt lat="43.58757" lon="3.74302">
        <ele>98</ele>
        <time>2021-02-28T13:20:33Z</time>
      </trkpt>
      <trkpt lat="43.58759" lon="3.74302">
        <ele>98</ele>
        <time>2021-02-28T13:20:34Z</time>
      </trkpt>
      <trkpt lat="43.58762" lon="3.74302">
        <ele>98</ele>
        <time>2021-02-28T13:20:35Z</time>
      </trkpt>
      <trkpt lat="43.58764" lon="3.74301">
        <ele>98</ele>
        <time>2021-02-28T13:20:36Z</time>
      </trkpt>
      <trkpt lat="43.58766" lon="3.74301">
        <ele>98</ele>
        <time>2021-02-28T13:20:37Z</time>
      </trkpt>
      <trkpt lat="43.58769" lon="3.74301">
        <ele>98</ele>
        <time>2021-02-28T13:20:38Z</time>
      </trkpt>
      <trkpt lat="43.58771" lon="3.74301">
        <ele>99</ele>
        <time>2021-02-28T13:20:39Z</time>
      </trkpt>
      <trkpt lat="43.58773" lon="3.74301">
        <ele>99</ele>
        <time>2021-02-28T13:20:40Z</time>
      </trkpt>
      <trkpt lat="43.58775" lon="3.743">
        <ele>99</ele>
        <time>2021-02-28T13:20:41Z</time>
      </trkpt>
      <trkpt lat="43.58777" lon="3.74299">
        <ele>99</ele>
        <time>2021-02-28T13:20:42Z</time>
      </trkpt>
      <trkpt lat="43.5878" lon="3.74298">
        <ele>99</ele>
        <time>2021-02-28T13:20:44Z</time>
      </trkpt>
      <trkpt lat="43.58782" lon="3.74296">
        <ele>99</ele>
        <time>2021-02-28T13:20:46Z</time>
      </trkpt>
      <trkpt lat="43.58784" lon="3.74294">
        <ele>99</ele>
        <time>2021-02-28T13:20:48Z</time>
      </trkpt>
      <trkpt lat="43.58786" lon="3.7429">
        <ele>99</ele>
        <time>2021-02-28T13:20:50Z</time>
      </trkpt>
      <trkpt lat="43.58788" lon="3.74288">
        <ele>99</ele>
        <time>2021-02-28T13:20:51Z</time>
      </trkpt>
      <trkpt lat="43.58789" lon="3.74286">
        <ele>99</ele>
        <time>2021-02-28T13:20:52Z</time>
      </trkpt>
      <trkpt lat="43.58791" lon="3.74282">
        <ele>99</ele>
        <time>2021-02-28T13:20:54Z</time>
      </trkpt>
      <trkpt lat="43.58793" lon="3.7428">
        <ele>99</ele>
        <time>2021-02-28T13:20:55Z</time>
      </trkpt>
      <trkpt lat="43.58794" lon="3.74278">
        <ele>99</ele>
        <time>2021-02-28T13:20:56Z</time>
      </trkpt>
      <trkpt lat="43.58796" lon="3.74276">
        <ele>99</ele>
        <time>2021-02-28T13:20:57Z</time>
      </trkpt>
      <trkpt lat="43.58797" lon="3.74274">
        <ele>99</ele>
        <time>2021-02-28T13:20:58Z</time>
      </trkpt>
      <trkpt lat="43.58798" lon="3.74272">
        <ele>103</ele>
        <time>2021-02-28T13:20:59Z</time>
      </trkpt>
      <trkpt lat="43.588" lon="3.7427">
        <ele>103</ele>
        <time>2021-02-28T13:21:00Z</time>
      </trkpt>
      <trkpt lat="43.58801" lon="3.74266">
        <ele>103</ele>
        <time>2021-02-28T13:21:02Z</time>
      </trkpt>
      <trkpt lat="43.58802" lon="3.74264">
        <ele>103</ele>
        <time>2021-02-28T13:21:03Z</time>
      </trkpt>
      <trkpt lat="43.58804" lon="3.7426">
        <ele>103</ele>
        <time>2021-02-28T13:21:05Z</time>
      </trkpt>
      <trkpt lat="43.58806" lon="3.74257">
        <ele>103</ele>
        <time>2021-02-28T13:21:07Z</time>
      </trkpt>
      <trkpt lat="43.58807" lon="3.74254">
        <ele>104</ele>
        <time>2021-02-28T13:21:09Z</time>
      </trkpt>
      <trkpt lat="43.58809" lon="3.7425">
        <ele>104</ele>
        <time>2021-02-28T13:21:11Z</time>
      </trkpt>
      <trkpt lat="43.5881" lon="3.74248">
        <ele>104</ele>
        <time>2021-02-28T13:21:12Z</time>
      </trkpt>
      <trkpt lat="43.58811" lon="3.74246">
        <ele>104</ele>
        <time>2021-02-28T13:21:13Z</time>
      </trkpt>
      <trkpt lat="43.58813" lon="3.74242">
        <ele>104</ele>
        <time>2021-02-28T13:21:15Z</time>
      </trkpt>
      <trkpt lat="43.58815" lon="3.74238">
        <ele>104</ele>
        <time>2021-02-28T13:21:17Z</time>
      </trkpt>
      <trkpt lat="43.58816" lon="3.74235">
        <ele>104</ele>
        <time>2021-02-28T13:21:18Z</time>
      </trkpt>
      <trkpt lat="43.58817" lon="3.74233">
        <ele>105</ele>
        <time>2021-02-28T13:21:19Z</time>
      </trkpt>
      <trkpt lat="43.58818" lon="3.74231">
        <ele>105</ele>
        <time>2021-02-28T13:21:20Z</time>
      </trkpt>
      <trkpt lat="43.5882" lon="3.74226">
        <ele>105</ele>
        <time>2021-02-28T13:21:22Z</time>
      </trkpt>
      <trkpt lat="43.58821" lon="3.74224">
        <ele>105</ele>
        <time>2021-02-28T13:21:23Z</time>
      </trkpt>
      <trkpt lat="43.58822" lon="3.74221">
        <ele>105</ele>
        <time>2021-02-28T13:21:24Z</time>
      </trkpt>
      <trkpt lat="43.58823" lon="3.74219">
        <ele>105</ele>
        <time>2021-02-28T13:21:26Z</time>
      </trkpt>
      <trkpt lat="43.58825" lon="3.74215">
        <ele>105</ele>
        <time>2021-02-28T13:21:27Z</time>
      </trkpt>
      <trkpt lat="43.58827" lon="3.74211">
        <ele>106</ele>
        <time>2021-02-28T13:21:29Z</time>
      </trkpt>
      <trkpt lat="43.5882" lon="3.74225">
        <ele>108</ele>
        <time>2021-02-28T13:22:32Z</time>
      </trkpt>
      <trkpt lat="43.58815" lon="3.74232">
        <ele>108</ele>
        <time>2021-02-28T13:22:34Z</time>
      </trkpt>
      <trkpt lat="43.58813" lon="3.74237">
        <ele>108</ele>
        <time>2021-02-28T13:22:35Z</time>
      </trkpt>
      <trkpt lat="43.58811" lon="3.74242">
        <ele>108</ele>
        <time>2021-02-28T13:22:36Z</time>
      </trkpt>
      <trkpt lat="43.58808" lon="3.74247">
        <ele>108</ele>
        <time>2021-02-28T13:22:37Z</time>
      </trkpt>
      <trkpt lat="43.58806" lon="3.74253">
        <ele>108</ele>
        <time>2021-02-28T13:22:38Z</time>
      </trkpt>
      <trkpt lat="43.58803" lon="3.74259">
        <ele>108</ele>
        <time>2021-02-28T13:22:39Z</time>
      </trkpt>
      <trkpt lat="43.58801" lon="3.74265">
        <ele>108</ele>
        <time>2021-02-28T13:22:40Z</time>
      </trkpt>
      <trkpt lat="43.58798" lon="3.74271">
        <ele>108</ele>
        <time>2021-02-28T13:22:41Z</time>
      </trkpt>
      <trkpt lat="43.58795" lon="3.74278">
        <ele>106</ele>
        <time>2021-02-28T13:22:42Z</time>
      </trkpt>
      <trkpt lat="43.58791" lon="3.74284">
        <ele>106</ele>
        <time>2021-02-28T13:22:43Z</time>
      </trkpt>
      <trkpt lat="43.58787" lon="3.7429">
        <ele>106</ele>
        <time>2021-02-28T13:22:44Z</time>
      </trkpt>
      <trkpt lat="43.58783" lon="3.74296">
        <ele>106</ele>
        <time>2021-02-28T13:22:45Z</time>
      </trkpt>
      <trkpt lat="43.58777" lon="3.74301">
        <ele>106</ele>
        <time>2021-02-28T13:22:46Z</time>
      </trkpt>
      <trkpt lat="43.58771" lon="3.74304">
        <ele>106</ele>
        <time>2021-02-28T13:22:47Z</time>
      </trkpt>
      <trkpt lat="43.58765" lon="3.74305">
        <ele>106</ele>
        <time>2021-02-28T13:22:48Z</time>
      </trkpt>
      <trkpt lat="43.58758" lon="3.74306">
        <ele>106</ele>
        <time>2021-02-28T13:22:49Z</time>
      </trkpt>
      <trkpt lat="43.58751" lon="3.74306">
        <ele>106</ele>
        <time>2021-02-28T13:22:50Z</time>
      </trkpt>
      <trkpt lat="43.58744" lon="3.74308">
        <ele>103</ele>
        <time>2021-02-28T13:22:52Z</time>
      </trkpt>
      <trkpt lat="43.58729" lon="3.74311">
        <ele>103</ele>
        <time>2021-02-28T13:22:53Z</time>
      </trkpt>
      <trkpt lat="43.58723" lon="3.74313">
        <ele>103</ele>
        <time>2021-02-28T13:22:54Z</time>
      </trkpt>
      <trkpt lat="43.58717" lon="3.74313">
        <ele>103</ele>
        <time>2021-02-28T13:22:55Z</time>
      </trkpt>
      <trkpt lat="43.58713" lon="3.74311">
        <ele>103</ele>
        <time>2021-02-28T13:22:56Z</time>
      </trkpt>
      <trkpt lat="43.58711" lon="3.74308">
        <ele>103</ele>
        <time>2021-02-28T13:22:57Z</time>
      </trkpt>
      <trkpt lat="43.5871" lon="3.74304">
        <ele>103</ele>
        <time>2021-02-28T13:22:58Z</time>
      </trkpt>
      <trkpt lat="43.5871" lon="3.74301">
        <ele>103</ele>
        <time>2021-02-28T13:22:59Z</time>
      </trkpt>
      <trkpt lat="43.58712" lon="3.74297">
        <ele>103</ele>
        <time>2021-02-28T13:23:00Z</time>
      </trkpt>
      <trkpt lat="43.58713" lon="3.74294">
        <ele>103</ele>
        <time>2021-02-28T13:23:01Z</time>
      </trkpt>
      <trkpt lat="43.58714" lon="3.74291">
        <ele>102</ele>
        <time>2021-02-28T13:23:02Z</time>
      </trkpt>
      <trkpt lat="43.58716" lon="3.74288">
        <ele>102</ele>
        <time>2021-02-28T13:23:03Z</time>
      </trkpt>
      <trkpt lat="43.58717" lon="3.74285">
        <ele>102</ele>
        <time>2021-02-28T13:23:04Z</time>
      </trkpt>
      <trkpt lat="43.58718" lon="3.74282">
        <ele>102</ele>
        <time>2021-02-28T13:23:05Z</time>
      </trkpt>
      <trkpt lat="43.58719" lon="3.74279">
        <ele>102</ele>
        <time>2021-02-28T13:23:06Z</time>
      </trkpt>
      <trkpt lat="43.5872" lon="3.74277">
        <ele>102</ele>
        <time>2021-02-28T13:23:07Z</time>
      </trkpt>
      <trkpt lat="43.5872" lon="3.74274">
        <ele>102</ele>
        <time>2021-02-28T13:23:08Z</time>
      </trkpt>
      <trkpt lat="43.58721" lon="3.74272">
        <ele>102</ele>
        <time>2021-02-28T13:23:09Z</time>
      </trkpt>
      <trkpt lat="43.58721" lon="3.74269">
        <ele>102</ele>
        <time>2021-02-28T13:23:10Z</time>
      </trkpt>
      <trkpt lat="43.5872" lon="3.74263">
        <ele>102</ele>
        <time>2021-02-28T13:23:12Z</time>
      </trkpt>
      <trkpt lat="43.5872" lon="3.7426">
        <ele>102</ele>
        <time>2021-02-28T13:23:13Z</time>
      </trkpt>
      <trkpt lat="43.5872" lon="3.74257">
        <ele>102</ele>
        <time>2021-02-28T13:23:14Z</time>
      </trkpt>
      <trkpt lat="43.58721" lon="3.74254">
        <ele>102</ele>
        <time>2021-02-28T13:23:15Z</time>
      </trkpt>
      <trkpt lat="43.58722" lon="3.74251">
        <ele>102</ele>
        <time>2021-02-28T13:23:16Z</time>
      </trkpt>
      <trkpt lat="43.58723" lon="3.74248">
        <ele>102</ele>
        <time>2021-02-28T13:23:17Z</time>
      </trkpt>
      <trkpt lat="43.58724" lon="3.74246">
        <ele>102</ele>
        <time>2021-02-28T13:23:18Z</time>
      </trkpt>
      <trkpt lat="43.58724" lon="3.74243">
        <ele>102</ele>
        <time>2021-02-28T13:23:19Z</time>
      </trkpt>
      <trkpt lat="43.58725" lon="3.7424">
        <ele>102</ele>
        <time>2021-02-28T13:23:20Z</time>
      </trkpt>
      <trkpt lat="43.58725" lon="3.74238">
        <ele>102</ele>
        <time>2021-02-28T13:23:21Z</time>
      </trkpt>
      <trkpt lat="43.58726" lon="3.74235">
        <ele>104</ele>
        <time>2021-02-28T13:23:22Z</time>
      </trkpt>
      <trkpt lat="43.58726" lon="3.74232">
        <ele>104</ele>
        <time>2021-02-28T13:23:23Z</time>
      </trkpt>
      <trkpt lat="43.58727" lon="3.7423">
        <ele>104</ele>
        <time>2021-02-28T13:23:24Z</time>
      </trkpt>
      <trkpt lat="43.58727" lon="3.74227">
        <ele>104</ele>
        <time>2021-02-28T13:23:25Z</time>
      </trkpt>
      <trkpt lat="43.58728" lon="3.74224">
        <ele>104</ele>
        <time>2021-02-28T13:23:26Z</time>
      </trkpt>
      <trkpt lat="43.58728" lon="3.74222">
        <ele>104</ele>
        <time>2021-02-28T13:23:27Z</time>
      </trkpt>
      <trkpt lat="43.58728" lon="3.74219">
        <ele>104</ele>
        <time>2021-02-28T13:23:28Z</time>
      </trkpt>
      <trkpt lat="43.58729" lon="3.74216">
        <ele>104</ele>
        <time>2021-02-28T13:23:29Z</time>
      </trkpt>
      <trkpt lat="43.58729" lon="3.74214">
        <ele>104</ele>
        <time>2021-02-28T13:23:30Z</time>
      </trkpt>
      <trkpt lat="43.58729" lon="3.74211">
        <ele>104</ele>
        <time>2021-02-28T13:23:31Z</time>
      </trkpt>
      <trkpt lat="43.58729" lon="3.74208">
        <ele>105</ele>
        <time>2021-02-28T13:23:32Z</time>
      </trkpt>
      <trkpt lat="43.58729" lon="3.74205">
        <ele>105</ele>
        <time>2021-02-28T13:23:33Z</time>
      </trkpt>
      <trkpt lat="43.58729" lon="3.74203">
        <ele>105</ele>
        <time>2021-02-28T13:23:34Z</time>
      </trkpt>
      <trkpt lat="43.58729" lon="3.74199">
        <ele>105</ele>
        <time>2021-02-28T13:23:36Z</time>
      </trkpt>
      <trkpt lat="43.5873" lon="3.74195">
        <ele>105</ele>
        <time>2021-02-28T13:23:38Z</time>
      </trkpt>
      <trkpt lat="43.58731" lon="3.7419">
        <ele>105</ele>
        <time>2021-02-28T13:23:40Z</time>
      </trkpt>
      <trkpt lat="43.58731" lon="3.74186">
        <ele>106</ele>
        <time>2021-02-28T13:23:42Z</time>
      </trkpt>
      <trkpt lat="43.5873" lon="3.74181">
        <ele>106</ele>
        <time>2021-02-28T13:23:44Z</time>
      </trkpt>
      <trkpt lat="43.58729" lon="3.74177">
        <ele>106</ele>
        <time>2021-02-28T13:23:46Z</time>
      </trkpt>
      <trkpt lat="43.58726" lon="3.74175">
        <ele>106</ele>
        <time>2021-02-28T13:23:48Z</time>
      </trkpt>
      <trkpt lat="43.58723" lon="3.74174">
        <ele>106</ele>
        <time>2021-02-28T13:23:50Z</time>
      </trkpt>
      <trkpt lat="43.58721" lon="3.74175">
        <ele>106</ele>
        <time>2021-02-28T13:23:52Z</time>
      </trkpt>
      <trkpt lat="43.58723" lon="3.74178">
        <ele>106</ele>
        <time>2021-02-28T13:23:55Z</time>
      </trkpt>
      <trkpt lat="43.58725" lon="3.74177">
        <ele>106</ele>
        <time>2021-02-28T13:23:56Z</time>
      </trkpt>
      <trkpt lat="43.58727" lon="3.74174">
        <ele>106</ele>
        <time>2021-02-28T13:23:58Z</time>
      </trkpt>
      <trkpt lat="43.58729" lon="3.74168">
        <ele>106</ele>
        <time>2021-02-28T13:24:00Z</time>
      </trkpt>
      <trkpt lat="43.58729" lon="3.74163">
        <ele>106</ele>
        <time>2021-02-28T13:24:01Z</time>
      </trkpt>
      <trkpt lat="43.58729" lon="3.74157">
        <ele>106</ele>
        <time>2021-02-28T13:24:02Z</time>
      </trkpt>
      <trkpt lat="43.58729" lon="3.74151">
        <ele>106</ele>
        <time>2021-02-28T13:24:03Z</time>
      </trkpt>
      <trkpt lat="43.58729" lon="3.74144">
        <ele>106</ele>
        <time>2021-02-28T13:24:04Z</time>
      </trkpt>
      <trkpt lat="43.58729" lon="3.74136">
        <ele>106</ele>
        <time>2021-02-28T13:24:05Z</time>
      </trkpt>
      <trkpt lat="43.58728" lon="3.74127">
        <ele>106</ele>
        <time>2021-02-28T13:24:06Z</time>
      </trkpt>
      <trkpt lat="43.58728" lon="3.74118">
        <ele>106</ele>
        <time>2021-02-28T13:24:07Z</time>
      </trkpt>
      <trkpt lat="43.58728" lon="3.74097">
        <ele>106</ele>
        <time>2021-02-28T13:24:09Z</time>
      </trkpt>
      <trkpt lat="43.58728" lon="3.74088">
        <ele>106</ele>
        <time>2021-02-28T13:24:10Z</time>
      </trkpt>
      <trkpt lat="43.58729" lon="3.74079">
        <ele>106</ele>
        <time>2021-02-28T13:24:11Z</time>
      </trkpt>
      <trkpt lat="43.58736" lon="3.74063">
        <ele>106</ele>
        <time>2021-02-28T13:24:13Z</time>
      </trkpt>
      <trkpt lat="43.5874" lon="3.74056">
        <ele>106</ele>
        <time>2021-02-28T13:24:14Z</time>
      </trkpt>
      <trkpt lat="43.58743" lon="3.74049">
        <ele>106</ele>
        <time>2021-02-28T13:24:15Z</time>
      </trkpt>
      <trkpt lat="43.58745" lon="3.74042">
        <ele>106</ele>
        <time>2021-02-28T13:24:16Z</time>
      </trkpt>
      <trkpt lat="43.58745" lon="3.74035">
        <ele>106</ele>
        <time>2021-02-28T13:24:17Z</time>
      </trkpt>
      <trkpt lat="43.58744" lon="3.74027">
        <ele>106</ele>
        <time>2021-02-28T13:24:18Z</time>
      </trkpt>
      <trkpt lat="43.58743" lon="3.74019">
        <ele>106</ele>
        <time>2021-02-28T13:24:19Z</time>
      </trkpt>
      <trkpt lat="43.58742" lon="3.74013">
        <ele>106</ele>
        <time>2021-02-28T13:24:20Z</time>
      </trkpt>
      <trkpt lat="43.5874" lon="3.74007">
        <ele>106</ele>
        <time>2021-02-28T13:24:21Z</time>
      </trkpt>
      <trkpt lat="43.58738" lon="3.74002">
        <ele>102</ele>
        <time>2021-02-28T13:24:22Z</time>
      </trkpt>
      <trkpt lat="43.58737" lon="3.73998">
        <ele>102</ele>
        <time>2021-02-28T13:24:23Z</time>
      </trkpt>
      <trkpt lat="43.58736" lon="3.73994">
        <ele>102</ele>
        <time>2021-02-28T13:24:24Z</time>
      </trkpt>
      <trkpt lat="43.58736" lon="3.73991">
        <ele>102</ele>
        <time>2021-02-28T13:24:25Z</time>
      </trkpt>
      <trkpt lat="43.58736" lon="3.73988">
        <ele>102</ele>
        <time>2021-02-28T13:24:26Z</time>
      </trkpt>
      <trkpt lat="43.58735" lon="3.73982">
        <ele>102</ele>
        <time>2021-02-28T13:24:28Z</time>
      </trkpt>
      <trkpt lat="43.58734" lon="3.7398">
        <ele>102</ele>
        <time>2021-02-28T13:24:29Z</time>
      </trkpt>
      <trkpt lat="43.58733" lon="3.73978">
        <ele>102</ele>
        <time>2021-02-28T13:24:30Z</time>
      </trkpt>
      <trkpt lat="43.58731" lon="3.73976">
        <ele>102</ele>
        <time>2021-02-28T13:24:31Z</time>
      </trkpt>
      <trkpt lat="43.58729" lon="3.73974">
        <ele>102</ele>
        <time>2021-02-28T13:24:32Z</time>
      </trkpt>
      <trkpt lat="43.58728" lon="3.73972">
        <ele>102</ele>
        <time>2021-02-28T13:24:33Z</time>
      </trkpt>
      <trkpt lat="43.58726" lon="3.7397">
        <ele>102</ele>
        <time>2021-02-28T13:24:34Z</time>
      </trkpt>
      <trkpt lat="43.58724" lon="3.73968">
        <ele>102</ele>
        <time>2021-02-28T13:24:35Z</time>
      </trkpt>
      <trkpt lat="43.58722" lon="3.73967">
        <ele>102</ele>
        <time>2021-02-28T13:24:36Z</time>
      </trkpt>
      <trkpt lat="43.5872" lon="3.73966">
        <ele>102</ele>
        <time>2021-02-28T13:24:37Z</time>
      </trkpt>
      <trkpt lat="43.58717" lon="3.73966">
        <ele>102</ele>
        <time>2021-02-28T13:24:39Z</time>
      </trkpt>
      <trkpt lat="43.58715" lon="3.73965">
        <ele>102</ele>
        <time>2021-02-28T13:24:40Z</time>
      </trkpt>
      <trkpt lat="43.58713" lon="3.73964">
        <ele>102</ele>
        <time>2021-02-28T13:24:41Z</time>
      </trkpt>
      <trkpt lat="43.58711" lon="3.73962">
        <ele>102</ele>
        <time>2021-02-28T13:24:43Z</time>
      </trkpt>
      <trkpt lat="43.58709" lon="3.7396">
        <ele>102</ele>
        <time>2021-02-28T13:24:45Z</time>
      </trkpt>
      <trkpt lat="43.58708" lon="3.73957">
        <ele>102</ele>
        <time>2021-02-28T13:24:47Z</time>
      </trkpt>
      <trkpt lat="43.58707" lon="3.73953">
        <ele>102</ele>
        <time>2021-02-28T13:24:49Z</time>
      </trkpt>
      <trkpt lat="43.58706" lon="3.73951">
        <ele>102</ele>
        <time>2021-02-28T13:24:50Z</time>
      </trkpt>
      <trkpt lat="43.58705" lon="3.73948">
        <ele>102</ele>
        <time>2021-02-28T13:24:51Z</time>
      </trkpt>
      <trkpt lat="43.58704" lon="3.73944">
        <ele>102</ele>
        <time>2021-02-28T13:24:53Z</time>
      </trkpt>
      <trkpt lat="43.58701" lon="3.7394">
        <ele>102</ele>
        <time>2021-02-28T13:24:55Z</time>
      </trkpt>
      <trkpt lat="43.587" lon="3.73938">
        <ele>102</ele>
        <time>2021-02-28T13:24:56Z</time>
      </trkpt>
      <trkpt lat="43.58699" lon="3.73933">
        <ele>102</ele>
        <time>2021-02-28T13:24:58Z</time>
      </trkpt>
      <trkpt lat="43.58697" lon="3.73929">
        <ele>102</ele>
        <time>2021-02-28T13:25:00Z</time>
      </trkpt>
      <trkpt lat="43.58699" lon="3.73926">
        <ele>106</ele>
        <time>2021-02-28T13:25:02Z</time>
      </trkpt>
      <trkpt lat="43.58702" lon="3.73925">
        <ele>106</ele>
        <time>2021-02-28T13:25:04Z</time>
      </trkpt>
      <trkpt lat="43.58705" lon="3.73923">
        <ele>106</ele>
        <time>2021-02-28T13:25:06Z</time>
      </trkpt>
      <trkpt lat="43.58708" lon="3.73921">
        <ele>106</ele>
        <time>2021-02-28T13:25:08Z</time>
      </trkpt>
      <trkpt lat="43.58712" lon="3.73919">
        <ele>106</ele>
        <time>2021-02-28T13:25:10Z</time>
      </trkpt>
      <trkpt lat="43.58713" lon="3.73918">
        <ele>106</ele>
        <time>2021-02-28T13:25:11Z</time>
      </trkpt>
      <trkpt lat="43.58715" lon="3.73916">
        <ele>106</ele>
        <time>2021-02-28T13:25:12Z</time>
      </trkpt>
      <trkpt lat="43.58717" lon="3.73915">
        <ele>106</ele>
        <time>2021-02-28T13:25:13Z</time>
      </trkpt>
      <trkpt lat="43.58718" lon="3.73914">
        <ele>106</ele>
        <time>2021-02-28T13:25:14Z</time>
      </trkpt>
      <trkpt lat="43.5872" lon="3.73912">
        <ele>106</ele>
        <time>2021-02-28T13:25:15Z</time>
      </trkpt>
      <trkpt lat="43.58723" lon="3.7391">
        <ele>106</ele>
        <time>2021-02-28T13:25:17Z</time>
      </trkpt>
      <trkpt lat="43.58726" lon="3.73908">
        <ele>106</ele>
        <time>2021-02-28T13:25:19Z</time>
      </trkpt>
      <trkpt lat="43.58727" lon="3.73907">
        <ele>106</ele>
        <time>2021-02-28T13:25:20Z</time>
      </trkpt>
      <trkpt lat="43.5873" lon="3.73905">
        <ele>107</ele>
        <time>2021-02-28T13:25:22Z</time>
      </trkpt>
      <trkpt lat="43.58733" lon="3.73903">
        <ele>107</ele>
        <time>2021-02-28T13:25:24Z</time>
      </trkpt>
      <trkpt lat="43.58735" lon="3.73901">
        <ele>107</ele>
        <time>2021-02-28T13:25:26Z</time>
      </trkpt>
      <trkpt lat="43.58738" lon="3.73898">
        <ele>107</ele>
        <time>2021-02-28T13:25:28Z</time>
      </trkpt>
      <trkpt lat="43.58741" lon="3.73896">
        <ele>107</ele>
        <time>2021-02-28T13:25:30Z</time>
      </trkpt>
      <trkpt lat="43.58744" lon="3.73894">
        <ele>108</ele>
        <time>2021-02-28T13:25:32Z</time>
      </trkpt>
      <trkpt lat="43.58747" lon="3.73892">
        <ele>108</ele>
        <time>2021-02-28T13:25:34Z</time>
      </trkpt>
      <trkpt lat="43.5875" lon="3.73889">
        <ele>108</ele>
        <time>2021-02-28T13:25:36Z</time>
      </trkpt>
      <trkpt lat="43.58753" lon="3.73888">
        <ele>108</ele>
        <time>2021-02-28T13:25:38Z</time>
      </trkpt>
      <trkpt lat="43.58755" lon="3.73885">
        <ele>108</ele>
        <time>2021-02-28T13:25:40Z</time>
      </trkpt>
      <trkpt lat="43.58758" lon="3.73884">
        <ele>109</ele>
        <time>2021-02-28T13:25:42Z</time>
      </trkpt>
      <trkpt lat="43.58761" lon="3.73882">
        <ele>109</ele>
        <time>2021-02-28T13:25:44Z</time>
      </trkpt>
      <trkpt lat="43.58764" lon="3.73881">
        <ele>109</ele>
        <time>2021-02-28T13:25:46Z</time>
      </trkpt>
      <trkpt lat="43.58766" lon="3.73879">
        <ele>109</ele>
        <time>2021-02-28T13:25:48Z</time>
      </trkpt>
      <trkpt lat="43.58769" lon="3.73877">
        <ele>109</ele>
        <time>2021-02-28T13:25:50Z</time>
      </trkpt>
      <trkpt lat="43.58772" lon="3.73875">
        <ele>110</ele>
        <time>2021-02-28T13:25:52Z</time>
      </trkpt>
      <trkpt lat="43.58775" lon="3.73873">
        <ele>110</ele>
        <time>2021-02-28T13:25:54Z</time>
      </trkpt>
      <trkpt lat="43.58778" lon="3.73871">
        <ele>110</ele>
        <time>2021-02-28T13:25:56Z</time>
      </trkpt>
      <trkpt lat="43.5878" lon="3.73869">
        <ele>110</ele>
        <time>2021-02-28T13:25:58Z</time>
      </trkpt>
      <trkpt lat="43.58783" lon="3.73868">
        <ele>110</ele>
        <time>2021-02-28T13:26:00Z</time>
      </trkpt>
      <trkpt lat="43.58786" lon="3.73866">
        <ele>111</ele>
        <time>2021-02-28T13:26:02Z</time>
      </trkpt>
      <trkpt lat="43.58788" lon="3.73864">
        <ele>111</ele>
        <time>2021-02-28T13:26:04Z</time>
      </trkpt>
      <trkpt lat="43.58791" lon="3.73862">
        <ele>111</ele>
        <time>2021-02-28T13:26:06Z</time>
      </trkpt>
      <trkpt lat="43.58793" lon="3.7386">
        <ele>111</ele>
        <time>2021-02-28T13:26:08Z</time>
      </trkpt>
      <trkpt lat="43.58795" lon="3.73858">
        <ele>111</ele>
        <time>2021-02-28T13:26:10Z</time>
      </trkpt>
      <trkpt lat="43.58798" lon="3.73856">
        <ele>113</ele>
        <time>2021-02-28T13:26:12Z</time>
      </trkpt>
      <trkpt lat="43.588" lon="3.73855">
        <ele>113</ele>
        <time>2021-02-28T13:26:14Z</time>
      </trkpt>
      <trkpt lat="43.58802" lon="3.73852">
        <ele>113</ele>
        <time>2021-02-28T13:26:16Z</time>
      </trkpt>
      <trkpt lat="43.58804" lon="3.73849">
        <ele>113</ele>
        <time>2021-02-28T13:26:18Z</time>
      </trkpt>
      <trkpt lat="43.58805" lon="3.73846">
        <ele>113</ele>
        <time>2021-02-28T13:26:20Z</time>
      </trkpt>
      <trkpt lat="43.58806" lon="3.73842">
        <ele>114</ele>
        <time>2021-02-28T13:26:22Z</time>
      </trkpt>
      <trkpt lat="43.58806" lon="3.73839">
        <ele>114</ele>
        <time>2021-02-28T13:26:24Z</time>
      </trkpt>
      <trkpt lat="43.58806" lon="3.73835">
        <ele>114</ele>
        <time>2021-02-28T13:26:26Z</time>
      </trkpt>
      <trkpt lat="43.58806" lon="3.73831">
        <ele>114</ele>
        <time>2021-02-28T13:26:28Z</time>
      </trkpt>
      <trkpt lat="43.58805" lon="3.73827">
        <ele>114</ele>
        <time>2021-02-28T13:26:30Z</time>
      </trkpt>
      <trkpt lat="43.58805" lon="3.73823">
        <ele>116</ele>
        <time>2021-02-28T13:26:32Z</time>
      </trkpt>
      <trkpt lat="43.58804" lon="3.73819">
        <ele>116</ele>
        <time>2021-02-28T13:26:34Z</time>
      </trkpt>
      <trkpt lat="43.58803" lon="3.73815">
        <ele>116</ele>
        <time>2021-02-28T13:26:36Z</time>
      </trkpt>
      <trkpt lat="43.58803" lon="3.73811">
        <ele>116</ele>
        <time>2021-02-28T13:26:38Z</time>
      </trkpt>
      <trkpt lat="43.58804" lon="3.73807">
        <ele>116</ele>
        <time>2021-02-28T13:26:40Z</time>
      </trkpt>
      <trkpt lat="43.58805" lon="3.73803">
        <ele>118</ele>
        <time>2021-02-28T13:26:42Z</time>
      </trkpt>
      <trkpt lat="43.58806" lon="3.738">
        <ele>118</ele>
        <time>2021-02-28T13:26:44Z</time>
      </trkpt>
      <trkpt lat="43.58807" lon="3.73796">
        <ele>118</ele>
        <time>2021-02-28T13:26:46Z</time>
      </trkpt>
      <trkpt lat="43.58809" lon="3.73793">
        <ele>118</ele>
        <time>2021-02-28T13:26:48Z</time>
      </trkpt>
      <trkpt lat="43.5881" lon="3.73791">
        <ele>118</ele>
        <time>2021-02-28T13:26:50Z</time>
      </trkpt>
      <trkpt lat="43.58811" lon="3.73788">
        <ele>120</ele>
        <time>2021-02-28T13:26:52Z</time>
      </trkpt>
      <trkpt lat="43.58812" lon="3.73785">
        <ele>120</ele>
        <time>2021-02-28T13:26:54Z</time>
      </trkpt>
      <trkpt lat="43.58814" lon="3.73783">
        <ele>120</ele>
        <time>2021-02-28T13:26:56Z</time>
      </trkpt>
      <trkpt lat="43.58816" lon="3.73781">
        <ele>120</ele>
        <time>2021-02-28T13:26:58Z</time>
      </trkpt>
      <trkpt lat="43.58818" lon="3.7378">
        <ele>120</ele>
        <time>2021-02-28T13:27:00Z</time>
      </trkpt>
      <trkpt lat="43.5882" lon="3.73778">
        <ele>123</ele>
        <time>2021-02-28T13:27:02Z</time>
      </trkpt>
      <trkpt lat="43.58821" lon="3.73775">
        <ele>123</ele>
        <time>2021-02-28T13:27:04Z</time>
      </trkpt>
      <trkpt lat="43.58822" lon="3.73773">
        <ele>123</ele>
        <time>2021-02-28T13:27:06Z</time>
      </trkpt>
      <trkpt lat="43.58822" lon="3.73769">
        <ele>123</ele>
        <time>2021-02-28T13:27:08Z</time>
      </trkpt>
      <trkpt lat="43.58824" lon="3.73765">
        <ele>123</ele>
        <time>2021-02-28T13:27:10Z</time>
      </trkpt>
      <trkpt lat="43.58825" lon="3.73763">
        <ele>123</ele>
        <time>2021-02-28T13:27:11Z</time>
      </trkpt>
      <trkpt lat="43.58825" lon="3.73759">
        <ele>123</ele>
        <time>2021-02-28T13:27:13Z</time>
      </trkpt>
      <trkpt lat="43.58826" lon="3.73755">
        <ele>123</ele>
        <time>2021-02-28T13:27:15Z</time>
      </trkpt>
      <trkpt lat="43.58826" lon="3.73752">
        <ele>123</ele>
        <time>2021-02-28T13:27:17Z</time>
      </trkpt>
      <trkpt lat="43.58825" lon="3.73748">
        <ele>123</ele>
        <time>2021-02-28T13:27:19Z</time>
      </trkpt>
      <trkpt lat="43.58826" lon="3.73743">
        <ele>123</ele>
        <time>2021-02-28T13:27:21Z</time>
      </trkpt>
      <trkpt lat="43.58827" lon="3.73739">
        <ele>123</ele>
        <time>2021-02-28T13:27:23Z</time>
      </trkpt>
      <trkpt lat="43.58827" lon="3.73735">
        <ele>123</ele>
        <time>2021-02-28T13:27:25Z</time>
      </trkpt>
      <trkpt lat="43.58828" lon="3.73732">
        <ele>123</ele>
        <time>2021-02-28T13:27:26Z</time>
      </trkpt>
      <trkpt lat="43.58828" lon="3.73729">
        <ele>123</ele>
        <time>2021-02-28T13:27:27Z</time>
      </trkpt>
      <trkpt lat="43.58828" lon="3.73726">
        <ele>123</ele>
        <time>2021-02-28T13:27:28Z</time>
      </trkpt>
      <trkpt lat="43.58828" lon="3.73724">
        <ele>123</ele>
        <time>2021-02-28T13:27:29Z</time>
      </trkpt>
      <trkpt lat="43.58827" lon="3.73719">
        <ele>123</ele>
        <time>2021-02-28T13:27:31Z</time>
      </trkpt>
      <trkpt lat="43.58826" lon="3.73716">
        <ele>127</ele>
        <time>2021-02-28T13:27:32Z</time>
      </trkpt>
      <trkpt lat="43.58825" lon="3.73714">
        <ele>127</ele>
        <time>2021-02-28T13:27:33Z</time>
      </trkpt>
      <trkpt lat="43.58824" lon="3.73711">
        <ele>127</ele>
        <time>2021-02-28T13:27:34Z</time>
      </trkpt>
      <trkpt lat="43.58823" lon="3.73707">
        <ele>127</ele>
        <time>2021-02-28T13:27:35Z</time>
      </trkpt>
      <trkpt lat="43.58823" lon="3.73703">
        <ele>127</ele>
        <time>2021-02-28T13:27:36Z</time>
      </trkpt>
      <trkpt lat="43.58824" lon="3.737">
        <ele>127</ele>
        <time>2021-02-28T13:27:38Z</time>
      </trkpt>
      <trkpt lat="43.58826" lon="3.73693">
        <ele>127</ele>
        <time>2021-02-28T13:27:39Z</time>
      </trkpt>
      <trkpt lat="43.58828" lon="3.73691">
        <ele>127</ele>
        <time>2021-02-28T13:27:40Z</time>
      </trkpt>
      <trkpt lat="43.58829" lon="3.73689">
        <ele>127</ele>
        <time>2021-02-28T13:27:41Z</time>
      </trkpt>
      <trkpt lat="43.58831" lon="3.73687">
        <ele>128</ele>
        <time>2021-02-28T13:27:42Z</time>
      </trkpt>
      <trkpt lat="43.58832" lon="3.73684">
        <ele>128</ele>
        <time>2021-02-28T13:27:43Z</time>
      </trkpt>
      <trkpt lat="43.58833" lon="3.7368">
        <ele>128</ele>
        <time>2021-02-28T13:27:44Z</time>
      </trkpt>
      <trkpt lat="43.58836" lon="3.73676">
        <ele>128</ele>
        <time>2021-02-28T13:27:45Z</time>
      </trkpt>
      <trkpt lat="43.58837" lon="3.73672">
        <ele>128</ele>
        <time>2021-02-28T13:27:46Z</time>
      </trkpt>
      <trkpt lat="43.58839" lon="3.73667">
        <ele>128</ele>
        <time>2021-02-28T13:27:47Z</time>
      </trkpt>
      <trkpt lat="43.58841" lon="3.73662">
        <ele>128</ele>
        <time>2021-02-28T13:27:48Z</time>
      </trkpt>
      <trkpt lat="43.58841" lon="3.73657">
        <ele>128</ele>
        <time>2021-02-28T13:27:49Z</time>
      </trkpt>
      <trkpt lat="43.5884" lon="3.73652">
        <ele>128</ele>
        <time>2021-02-28T13:27:50Z</time>
      </trkpt>
      <trkpt lat="43.58838" lon="3.73647">
        <ele>128</ele>
        <time>2021-02-28T13:27:51Z</time>
      </trkpt>
      <trkpt lat="43.58837" lon="3.73642">
        <ele>127</ele>
        <time>2021-02-28T13:27:52Z</time>
      </trkpt>
      <trkpt lat="43.58836" lon="3.73638">
        <ele>127</ele>
        <time>2021-02-28T13:27:53Z</time>
      </trkpt>
      <trkpt lat="43.58837" lon="3.73635">
        <ele>127</ele>
        <time>2021-02-28T13:27:54Z</time>
      </trkpt>
      <trkpt lat="43.58839" lon="3.73633">
        <ele>127</ele>
        <time>2021-02-28T13:27:55Z</time>
      </trkpt>
      <trkpt lat="43.58841" lon="3.73631">
        <ele>127</ele>
        <time>2021-02-28T13:27:56Z</time>
      </trkpt>
      <trkpt lat="43.58843" lon="3.73629">
        <ele>127</ele>
        <time>2021-02-28T13:27:57Z</time>
      </trkpt>
      <trkpt lat="43.58845" lon="3.73627">
        <ele>127</ele>
        <time>2021-02-28T13:27:58Z</time>
      </trkpt>
      <trkpt lat="43.5885" lon="3.73621">
        <ele>127</ele>
        <time>2021-02-28T13:28:00Z</time>
      </trkpt>
      <trkpt lat="43.58852" lon="3.73618">
        <ele>127</ele>
        <time>2021-02-28T13:28:01Z</time>
      </trkpt>
      <trkpt lat="43.58854" lon="3.73617">
        <ele>127</ele>
        <time>2021-02-28T13:28:02Z</time>
      </trkpt>
      <trkpt lat="43.58856" lon="3.73614">
        <ele>127</ele>
        <time>2021-02-28T13:28:04Z</time>
      </trkpt>
      <trkpt lat="43.58858" lon="3.73612">
        <ele>127</ele>
        <time>2021-02-28T13:28:05Z</time>
      </trkpt>
      <trkpt lat="43.58859" lon="3.73609">
        <ele>127</ele>
        <time>2021-02-28T13:28:06Z</time>
      </trkpt>
      <trkpt lat="43.5886" lon="3.73606">
        <ele>127</ele>
        <time>2021-02-28T13:28:07Z</time>
      </trkpt>
      <trkpt lat="43.58862" lon="3.73603">
        <ele>127</ele>
        <time>2021-02-28T13:28:08Z</time>
      </trkpt>
      <trkpt lat="43.58864" lon="3.736">
        <ele>127</ele>
        <time>2021-02-28T13:28:09Z</time>
      </trkpt>
      <trkpt lat="43.58865" lon="3.73598">
        <ele>127</ele>
        <time>2021-02-28T13:28:10Z</time>
      </trkpt>
      <trkpt lat="43.58866" lon="3.73596">
        <ele>127</ele>
        <time>2021-02-28T13:28:11Z</time>
      </trkpt>
      <trkpt lat="43.58868" lon="3.73593">
        <ele>127</ele>
        <time>2021-02-28T13:28:13Z</time>
      </trkpt>
      <trkpt lat="43.58872" lon="3.7359">
        <ele>127</ele>
        <time>2021-02-28T13:28:15Z</time>
      </trkpt>
      <trkpt lat="43.58874" lon="3.73587">
        <ele>127</ele>
        <time>2021-02-28T13:28:17Z</time>
      </trkpt>
      <trkpt lat="43.58875" lon="3.73585">
        <ele>127</ele>
        <time>2021-02-28T13:28:18Z</time>
      </trkpt>
      <trkpt lat="43.58876" lon="3.73582">
        <ele>127</ele>
        <time>2021-02-28T13:28:19Z</time>
      </trkpt>
      <trkpt lat="43.58877" lon="3.7358">
        <ele>127</ele>
        <time>2021-02-28T13:28:20Z</time>
      </trkpt>
      <trkpt lat="43.58878" lon="3.73577">
        <ele>127</ele>
        <time>2021-02-28T13:28:21Z</time>
      </trkpt>
      <trkpt lat="43.58879" lon="3.73575">
        <ele>129</ele>
        <time>2021-02-28T13:28:22Z</time>
      </trkpt>
      <trkpt lat="43.5888" lon="3.73573">
        <ele>129</ele>
        <time>2021-02-28T13:28:23Z</time>
      </trkpt>
      <trkpt lat="43.58883" lon="3.73569">
        <ele>129</ele>
        <time>2021-02-28T13:28:25Z</time>
      </trkpt>
      <trkpt lat="43.58885" lon="3.73567">
        <ele>129</ele>
        <time>2021-02-28T13:28:26Z</time>
      </trkpt>
      <trkpt lat="43.58887" lon="3.73564">
        <ele>129</ele>
        <time>2021-02-28T13:28:27Z</time>
      </trkpt>
      <trkpt lat="43.58889" lon="3.7356">
        <ele>129</ele>
        <time>2021-02-28T13:28:29Z</time>
      </trkpt>
      <trkpt lat="43.58891" lon="3.73558">
        <ele>129</ele>
        <time>2021-02-28T13:28:30Z</time>
      </trkpt>
      <trkpt lat="43.58893" lon="3.73555">
        <ele>129</ele>
        <time>2021-02-28T13:28:32Z</time>
      </trkpt>
      <trkpt lat="43.58891" lon="3.73551">
        <ele>129</ele>
        <time>2021-02-28T13:28:34Z</time>
      </trkpt>
      <trkpt lat="43.5889" lon="3.73548">
        <ele>129</ele>
        <time>2021-02-28T13:28:35Z</time>
      </trkpt>
      <trkpt lat="43.58887" lon="3.73546">
        <ele>129</ele>
        <time>2021-02-28T13:28:36Z</time>
      </trkpt>
      <trkpt lat="43.58884" lon="3.73546">
        <ele>129</ele>
        <time>2021-02-28T13:28:37Z</time>
      </trkpt>
      <trkpt lat="43.58881" lon="3.73548">
        <ele>129</ele>
        <time>2021-02-28T13:28:38Z</time>
      </trkpt>
      <trkpt lat="43.58878" lon="3.73551">
        <ele>129</ele>
        <time>2021-02-28T13:28:39Z</time>
      </trkpt>
      <trkpt lat="43.58876" lon="3.73553">
        <ele>129</ele>
        <time>2021-02-28T13:28:40Z</time>
      </trkpt>
      <trkpt lat="43.58874" lon="3.73556">
        <ele>129</ele>
        <time>2021-02-28T13:28:41Z</time>
      </trkpt>
      <trkpt lat="43.58872" lon="3.73558">
        <ele>128</ele>
        <time>2021-02-28T13:28:42Z</time>
      </trkpt>
      <trkpt lat="43.58869" lon="3.7356">
        <ele>128</ele>
        <time>2021-02-28T13:28:43Z</time>
      </trkpt>
      <trkpt lat="43.58866" lon="3.73562">
        <ele>128</ele>
        <time>2021-02-28T13:28:44Z</time>
      </trkpt>
      <trkpt lat="43.58863" lon="3.73563">
        <ele>128</ele>
        <time>2021-02-28T13:28:45Z</time>
      </trkpt>
      <trkpt lat="43.5886" lon="3.73564">
        <ele>128</ele>
        <time>2021-02-28T13:28:46Z</time>
      </trkpt>
      <trkpt lat="43.58858" lon="3.73565">
        <ele>128</ele>
        <time>2021-02-28T13:28:47Z</time>
      </trkpt>
      <trkpt lat="43.58856" lon="3.73567">
        <ele>128</ele>
        <time>2021-02-28T13:28:48Z</time>
      </trkpt>
      <trkpt lat="43.58853" lon="3.7357">
        <ele>128</ele>
        <time>2021-02-28T13:28:49Z</time>
      </trkpt>
      <trkpt lat="43.58849" lon="3.73573">
        <ele>128</ele>
        <time>2021-02-28T13:28:50Z</time>
      </trkpt>
      <trkpt lat="43.58846" lon="3.73576">
        <ele>128</ele>
        <time>2021-02-28T13:28:51Z</time>
      </trkpt>
      <trkpt lat="43.58842" lon="3.7358">
        <ele>128</ele>
        <time>2021-02-28T13:28:52Z</time>
      </trkpt>
      <trkpt lat="43.58839" lon="3.73585">
        <ele>128</ele>
        <time>2021-02-28T13:28:53Z</time>
      </trkpt>
      <trkpt lat="43.58836" lon="3.7359">
        <ele>128</ele>
        <time>2021-02-28T13:28:54Z</time>
      </trkpt>
      <trkpt lat="43.58833" lon="3.73595">
        <ele>128</ele>
        <time>2021-02-28T13:28:55Z</time>
      </trkpt>
      <trkpt lat="43.58829" lon="3.73599">
        <ele>128</ele>
        <time>2021-02-28T13:28:56Z</time>
      </trkpt>
      <trkpt lat="43.58825" lon="3.73602">
        <ele>128</ele>
        <time>2021-02-28T13:28:57Z</time>
      </trkpt>
      <trkpt lat="43.58822" lon="3.73607">
        <ele>128</ele>
        <time>2021-02-28T13:28:58Z</time>
      </trkpt>
      <trkpt lat="43.58817" lon="3.73612">
        <ele>128</ele>
        <time>2021-02-28T13:28:59Z</time>
      </trkpt>
      <trkpt lat="43.58814" lon="3.73617">
        <ele>128</ele>
        <time>2021-02-28T13:29:00Z</time>
      </trkpt>
      <trkpt lat="43.58805" lon="3.73624">
        <ele>128</ele>
        <time>2021-02-28T13:29:02Z</time>
      </trkpt>
      <trkpt lat="43.588" lon="3.73628">
        <ele>128</ele>
        <time>2021-02-28T13:29:03Z</time>
      </trkpt>
      <trkpt lat="43.5879" lon="3.73637">
        <ele>128</ele>
        <time>2021-02-28T13:29:05Z</time>
      </trkpt>
      <trkpt lat="43.58781" lon="3.73642">
        <ele>128</ele>
        <time>2021-02-28T13:29:07Z</time>
      </trkpt>
      <trkpt lat="43.58771" lon="3.73643">
        <ele>128</ele>
        <time>2021-02-28T13:29:09Z</time>
      </trkpt>
      <trkpt lat="43.58766" lon="3.73643">
        <ele>128</ele>
        <time>2021-02-28T13:29:10Z</time>
      </trkpt>
      <trkpt lat="43.58756" lon="3.73648">
        <ele>127</ele>
        <time>2021-02-28T13:29:12Z</time>
      </trkpt>
      <trkpt lat="43.58746" lon="3.73656">
        <ele>127</ele>
        <time>2021-02-28T13:29:14Z</time>
      </trkpt>
      <trkpt lat="43.58737" lon="3.73664">
        <ele>127</ele>
        <time>2021-02-28T13:29:16Z</time>
      </trkpt>
      <trkpt lat="43.58728" lon="3.73666">
        <ele>127</ele>
        <time>2021-02-28T13:29:18Z</time>
      </trkpt>
      <trkpt lat="43.58719" lon="3.73663">
        <ele>127</ele>
        <time>2021-02-28T13:29:20Z</time>
      </trkpt>
      <trkpt lat="43.58714" lon="3.73661">
        <ele>127</ele>
        <time>2021-02-28T13:29:21Z</time>
      </trkpt>
      <trkpt lat="43.5871" lon="3.73658">
        <ele>126</ele>
        <time>2021-02-28T13:29:22Z</time>
      </trkpt>
      <trkpt lat="43.58706" lon="3.73656">
        <ele>126</ele>
        <time>2021-02-28T13:29:23Z</time>
      </trkpt>
      <trkpt lat="43.58701" lon="3.73654">
        <ele>126</ele>
        <time>2021-02-28T13:29:24Z</time>
      </trkpt>
      <trkpt lat="43.58697" lon="3.7365">
        <ele>126</ele>
        <time>2021-02-28T13:29:25Z</time>
      </trkpt>
      <trkpt lat="43.58694" lon="3.73646">
        <ele>126</ele>
        <time>2021-02-28T13:29:26Z</time>
      </trkpt>
      <trkpt lat="43.58691" lon="3.73642">
        <ele>126</ele>
        <time>2021-02-28T13:29:27Z</time>
      </trkpt>
      <trkpt lat="43.58687" lon="3.73638">
        <ele>126</ele>
        <time>2021-02-28T13:29:28Z</time>
      </trkpt>
      <trkpt lat="43.58684" lon="3.73635">
        <ele>126</ele>
        <time>2021-02-28T13:29:29Z</time>
      </trkpt>
      <trkpt lat="43.5868" lon="3.73632">
        <ele>126</ele>
        <time>2021-02-28T13:29:30Z</time>
      </trkpt>
      <trkpt lat="43.58676" lon="3.73628">
        <ele>126</ele>
        <time>2021-02-28T13:29:31Z</time>
      </trkpt>
      <trkpt lat="43.58668" lon="3.73623">
        <ele>126</ele>
        <time>2021-02-28T13:29:33Z</time>
      </trkpt>
      <trkpt lat="43.58664" lon="3.7362">
        <ele>126</ele>
        <time>2021-02-28T13:29:34Z</time>
      </trkpt>
      <trkpt lat="43.58661" lon="3.73618">
        <ele>126</ele>
        <time>2021-02-28T13:29:35Z</time>
      </trkpt>
      <trkpt lat="43.58657" lon="3.73617">
        <ele>126</ele>
        <time>2021-02-28T13:29:36Z</time>
      </trkpt>
      <trkpt lat="43.58652" lon="3.73619">
        <ele>126</ele>
        <time>2021-02-28T13:29:37Z</time>
      </trkpt>
      <trkpt lat="43.58648" lon="3.73621">
        <ele>126</ele>
        <time>2021-02-28T13:29:38Z</time>
      </trkpt>
      <trkpt lat="43.58643" lon="3.73622">
        <ele>126</ele>
        <time>2021-02-28T13:29:39Z</time>
      </trkpt>
      <trkpt lat="43.58639" lon="3.73623">
        <ele>126</ele>
        <time>2021-02-28T13:29:40Z</time>
      </trkpt>
      <trkpt lat="43.58635" lon="3.73624">
        <ele>126</ele>
        <time>2021-02-28T13:29:41Z</time>
      </trkpt>
      <trkpt lat="43.58632" lon="3.73624">
        <ele>121</ele>
        <time>2021-02-28T13:29:42Z</time>
      </trkpt>
      <trkpt lat="43.58628" lon="3.73623">
        <ele>121</ele>
        <time>2021-02-28T13:29:43Z</time>
      </trkpt>
      <trkpt lat="43.58625" lon="3.73622">
        <ele>121</ele>
        <time>2021-02-28T13:29:44Z</time>
      </trkpt>
      <trkpt lat="43.58623" lon="3.73622">
        <ele>121</ele>
        <time>2021-02-28T13:29:45Z</time>
      </trkpt>
      <trkpt lat="43.58621" lon="3.73622">
        <ele>121</ele>
        <time>2021-02-28T13:29:46Z</time>
      </trkpt>
      <trkpt lat="43.58618" lon="3.73621">
        <ele>121</ele>
        <time>2021-02-28T13:29:47Z</time>
      </trkpt>
      <trkpt lat="43.58616" lon="3.7362">
        <ele>121</ele>
        <time>2021-02-28T13:29:48Z</time>
      </trkpt>
      <trkpt lat="43.58613" lon="3.73618">
        <ele>121</ele>
        <time>2021-02-28T13:29:49Z</time>
      </trkpt>
      <trkpt lat="43.5861" lon="3.73616">
        <ele>121</ele>
        <time>2021-02-28T13:29:50Z</time>
      </trkpt>
      <trkpt lat="43.58607" lon="3.73614">
        <ele>121</ele>
        <time>2021-02-28T13:29:51Z</time>
      </trkpt>
      <trkpt lat="43.58603" lon="3.73612">
        <ele>119</ele>
        <time>2021-02-28T13:29:52Z</time>
      </trkpt>
      <trkpt lat="43.586" lon="3.7361">
        <ele>119</ele>
        <time>2021-02-28T13:29:53Z</time>
      </trkpt>
      <trkpt lat="43.58597" lon="3.73608">
        <ele>119</ele>
        <time>2021-02-28T13:29:54Z</time>
      </trkpt>
      <trkpt lat="43.58593" lon="3.73606">
        <ele>119</ele>
        <time>2021-02-28T13:29:55Z</time>
      </trkpt>
      <trkpt lat="43.5859" lon="3.73604">
        <ele>119</ele>
        <time>2021-02-28T13:29:56Z</time>
      </trkpt>
      <trkpt lat="43.58587" lon="3.73602">
        <ele>119</ele>
        <time>2021-02-28T13:29:57Z</time>
      </trkpt>
      <trkpt lat="43.58583" lon="3.736">
        <ele>119</ele>
        <time>2021-02-28T13:29:58Z</time>
      </trkpt>
      <trkpt lat="43.58576" lon="3.73596">
        <ele>119</ele>
        <time>2021-02-28T13:30:00Z</time>
      </trkpt>
      <trkpt lat="43.58573" lon="3.73594">
        <ele>119</ele>
        <time>2021-02-28T13:30:01Z</time>
      </trkpt>
      <trkpt lat="43.58569" lon="3.73592">
        <ele>118</ele>
        <time>2021-02-28T13:30:02Z</time>
      </trkpt>
      <trkpt lat="43.58565" lon="3.73591">
        <ele>118</ele>
        <time>2021-02-28T13:30:03Z</time>
      </trkpt>
      <trkpt lat="43.58562" lon="3.7359">
        <ele>118</ele>
        <time>2021-02-28T13:30:04Z</time>
      </trkpt>
      <trkpt lat="43.58558" lon="3.7359">
        <ele>118</ele>
        <time>2021-02-28T13:30:05Z</time>
      </trkpt>
      <trkpt lat="43.58555" lon="3.73589">
        <ele>118</ele>
        <time>2021-02-28T13:30:06Z</time>
      </trkpt>
      <trkpt lat="43.58552" lon="3.73588">
        <ele>118</ele>
        <time>2021-02-28T13:30:07Z</time>
      </trkpt>
      <trkpt lat="43.58549" lon="3.73586">
        <ele>118</ele>
        <time>2021-02-28T13:30:08Z</time>
      </trkpt>
      <trkpt lat="43.58547" lon="3.73584">
        <ele>118</ele>
        <time>2021-02-28T13:30:09Z</time>
      </trkpt>
      <trkpt lat="43.58545" lon="3.73581">
        <ele>118</ele>
        <time>2021-02-28T13:30:10Z</time>
      </trkpt>
      <trkpt lat="43.58544" lon="3.7358">
        <ele>118</ele>
        <time>2021-02-28T13:30:11Z</time>
      </trkpt>
      <trkpt lat="43.58542" lon="3.7358">
        <ele>118</ele>
        <time>2021-02-28T13:30:13Z</time>
      </trkpt>
      <trkpt lat="43.58541" lon="3.73581">
        <ele>117</ele>
        <time>2021-02-28T13:30:19Z</time>
      </trkpt>
      <trkpt lat="43.58539" lon="3.736">
        <ele>111</ele>
        <time>2021-02-28T13:33:49Z</time>
      </trkpt>
      <trkpt lat="43.58538" lon="3.73605">
        <ele>111</ele>
        <time>2021-02-28T13:33:50Z</time>
      </trkpt>
      <trkpt lat="43.58535" lon="3.7361">
        <ele>111</ele>
        <time>2021-02-28T13:33:51Z</time>
      </trkpt>
      <trkpt lat="43.58533" lon="3.73616">
        <ele>111</ele>
        <time>2021-02-28T13:33:52Z</time>
      </trkpt>
      <trkpt lat="43.58529" lon="3.73627">
        <ele>111</ele>
        <time>2021-02-28T13:33:54Z</time>
      </trkpt>
      <trkpt lat="43.58526" lon="3.73631">
        <ele>111</ele>
        <time>2021-02-28T13:33:55Z</time>
      </trkpt>
      <trkpt lat="43.58523" lon="3.73636">
        <ele>111</ele>
        <time>2021-02-28T13:33:56Z</time>
      </trkpt>
      <trkpt lat="43.5852" lon="3.73641">
        <ele>111</ele>
        <time>2021-02-28T13:33:57Z</time>
      </trkpt>
      <trkpt lat="43.58518" lon="3.73646">
        <ele>112</ele>
        <time>2021-02-28T13:33:58Z</time>
      </trkpt>
      <trkpt lat="43.58515" lon="3.7365">
        <ele>112</ele>
        <time>2021-02-28T13:33:59Z</time>
      </trkpt>
      <trkpt lat="43.58513" lon="3.73655">
        <ele>112</ele>
        <time>2021-02-28T13:34:00Z</time>
      </trkpt>
      <trkpt lat="43.58511" lon="3.73659">
        <ele>112</ele>
        <time>2021-02-28T13:34:01Z</time>
      </trkpt>
      <trkpt lat="43.58508" lon="3.73664">
        <ele>112</ele>
        <time>2021-02-28T13:34:02Z</time>
      </trkpt>
      <trkpt lat="43.58506" lon="3.73668">
        <ele>112</ele>
        <time>2021-02-28T13:34:03Z</time>
      </trkpt>
      <trkpt lat="43.58504" lon="3.73672">
        <ele>112</ele>
        <time>2021-02-28T13:34:04Z</time>
      </trkpt>
      <trkpt lat="43.58502" lon="3.73676">
        <ele>112</ele>
        <time>2021-02-28T13:34:05Z</time>
      </trkpt>
      <trkpt lat="43.585" lon="3.73679">
        <ele>112</ele>
        <time>2021-02-28T13:34:06Z</time>
      </trkpt>
      <trkpt lat="43.58498" lon="3.73682">
        <ele>112</ele>
        <time>2021-02-28T13:34:07Z</time>
      </trkpt>
      <trkpt lat="43.58496" lon="3.73685">
        <ele>113</ele>
        <time>2021-02-28T13:34:08Z</time>
      </trkpt>
      <trkpt lat="43.58494" lon="3.73688">
        <ele>113</ele>
        <time>2021-02-28T13:34:09Z</time>
      </trkpt>
      <trkpt lat="43.58492" lon="3.7369">
        <ele>113</ele>
        <time>2021-02-28T13:34:10Z</time>
      </trkpt>
      <trkpt lat="43.5849" lon="3.73693">
        <ele>113</ele>
        <time>2021-02-28T13:34:11Z</time>
      </trkpt>
      <trkpt lat="43.58488" lon="3.73696">
        <ele>113</ele>
        <time>2021-02-28T13:34:12Z</time>
      </trkpt>
      <trkpt lat="43.58486" lon="3.73699">
        <ele>113</ele>
        <time>2021-02-28T13:34:13Z</time>
      </trkpt>
      <trkpt lat="43.58484" lon="3.73703">
        <ele>113</ele>
        <time>2021-02-28T13:34:14Z</time>
      </trkpt>
      <trkpt lat="43.58482" lon="3.73707">
        <ele>113</ele>
        <time>2021-02-28T13:34:15Z</time>
      </trkpt>
      <trkpt lat="43.5848" lon="3.73711">
        <ele>113</ele>
        <time>2021-02-28T13:34:16Z</time>
      </trkpt>
      <trkpt lat="43.58478" lon="3.73715">
        <ele>113</ele>
        <time>2021-02-28T13:34:17Z</time>
      </trkpt>
      <trkpt lat="43.58476" lon="3.73719">
        <ele>115</ele>
        <time>2021-02-28T13:34:18Z</time>
      </trkpt>
      <trkpt lat="43.58475" lon="3.73724">
        <ele>115</ele>
        <time>2021-02-28T13:34:19Z</time>
      </trkpt>
      <trkpt lat="43.58473" lon="3.73729">
        <ele>115</ele>
        <time>2021-02-28T13:34:20Z</time>
      </trkpt>
      <trkpt lat="43.58471" lon="3.73733">
        <ele>115</ele>
        <time>2021-02-28T13:34:21Z</time>
      </trkpt>
      <trkpt lat="43.58468" lon="3.73738">
        <ele>115</ele>
        <time>2021-02-28T13:34:22Z</time>
      </trkpt>
      <trkpt lat="43.58465" lon="3.73743">
        <ele>115</ele>
        <time>2021-02-28T13:34:23Z</time>
      </trkpt>
      <trkpt lat="43.58461" lon="3.73747">
        <ele>115</ele>
        <time>2021-02-28T13:34:24Z</time>
      </trkpt>
      <trkpt lat="43.58457" lon="3.73752">
        <ele>115</ele>
        <time>2021-02-28T13:34:25Z</time>
      </trkpt>
      <trkpt lat="43.5845" lon="3.73765">
        <ele>115</ele>
        <time>2021-02-28T13:34:27Z</time>
      </trkpt>
      <trkpt lat="43.58446" lon="3.73771">
        <ele>114</ele>
        <time>2021-02-28T13:34:28Z</time>
      </trkpt>
      <trkpt lat="43.58441" lon="3.73777">
        <ele>114</ele>
        <time>2021-02-28T13:34:29Z</time>
      </trkpt>
      <trkpt lat="43.58437" lon="3.73784">
        <ele>114</ele>
        <time>2021-02-28T13:34:30Z</time>
      </trkpt>
      <trkpt lat="43.58434" lon="3.73792">
        <ele>114</ele>
        <time>2021-02-28T13:34:31Z</time>
      </trkpt>
      <trkpt lat="43.58431" lon="3.73801">
        <ele>114</ele>
        <time>2021-02-28T13:34:32Z</time>
      </trkpt>
      <trkpt lat="43.58429" lon="3.73811">
        <ele>114</ele>
        <time>2021-02-28T13:34:33Z</time>
      </trkpt>
      <trkpt lat="43.58428" lon="3.73821">
        <ele>114</ele>
        <time>2021-02-28T13:34:34Z</time>
      </trkpt>
      <trkpt lat="43.58427" lon="3.73831">
        <ele>114</ele>
        <time>2021-02-28T13:34:35Z</time>
      </trkpt>
      <trkpt lat="43.58426" lon="3.73841">
        <ele>114</ele>
        <time>2021-02-28T13:34:36Z</time>
      </trkpt>
      <trkpt lat="43.58425" lon="3.7385">
        <ele>114</ele>
        <time>2021-02-28T13:34:37Z</time>
      </trkpt>
      <trkpt lat="43.58425" lon="3.73859">
        <ele>113</ele>
        <time>2021-02-28T13:34:38Z</time>
      </trkpt>
      <trkpt lat="43.58424" lon="3.73868">
        <ele>113</ele>
        <time>2021-02-28T13:34:39Z</time>
      </trkpt>
      <trkpt lat="43.58424" lon="3.73876">
        <ele>113</ele>
        <time>2021-02-28T13:34:40Z</time>
      </trkpt>
      <trkpt lat="43.58424" lon="3.7388">
        <ele>113</ele>
        <time>2021-02-28T13:34:41Z</time>
      </trkpt>
      <trkpt lat="43.58424" lon="3.73883">
        <ele>113</ele>
        <time>2021-02-28T13:34:43Z</time>
      </trkpt>
      <trkpt lat="43.58424" lon="3.73887">
        <ele>113</ele>
        <time>2021-02-28T13:34:46Z</time>
      </trkpt>
      <trkpt lat="43.58424" lon="3.73886">
        <ele>112</ele>
        <time>2021-02-28T13:34:52Z</time>
      </trkpt>
      <trkpt lat="43.58423" lon="3.7389">
        <ele>111</ele>
        <time>2021-02-28T13:34:58Z</time>
      </trkpt>
      <trkpt lat="43.58424" lon="3.7389">
        <ele>111</ele>
        <time>2021-02-28T13:35:01Z</time>
      </trkpt>
      <trkpt lat="43.58421" lon="3.73907">
        <ele>110</ele>
        <time>2021-02-28T13:35:20Z</time>
      </trkpt>
      <trkpt lat="43.58419" lon="3.7392">
        <ele>110</ele>
        <time>2021-02-28T13:35:21Z</time>
      </trkpt>
      <trkpt lat="43.58417" lon="3.73926">
        <ele>110</ele>
        <time>2021-02-28T13:35:22Z</time>
      </trkpt>
      <trkpt lat="43.58415" lon="3.73941">
        <ele>110</ele>
        <time>2021-02-28T13:35:24Z</time>
      </trkpt>
      <trkpt lat="43.58415" lon="3.73947">
        <ele>110</ele>
        <time>2021-02-28T13:35:25Z</time>
      </trkpt>
      <trkpt lat="43.58415" lon="3.7395">
        <ele>110</ele>
        <time>2021-02-28T13:35:26Z</time>
      </trkpt>
      <trkpt lat="43.58415" lon="3.73954">
        <ele>110</ele>
        <time>2021-02-28T13:35:28Z</time>
      </trkpt>
      <trkpt lat="43.58414" lon="3.73959">
        <ele>110</ele>
        <time>2021-02-28T13:35:30Z</time>
      </trkpt>
      <trkpt lat="43.58414" lon="3.73962">
        <ele>110</ele>
        <time>2021-02-28T13:35:31Z</time>
      </trkpt>
      <trkpt lat="43.58413" lon="3.73966">
        <ele>110</ele>
        <time>2021-02-28T13:35:32Z</time>
      </trkpt>
      <trkpt lat="43.58412" lon="3.7397">
        <ele>110</ele>
        <time>2021-02-28T13:35:33Z</time>
      </trkpt>
      <trkpt lat="43.5841" lon="3.73974">
        <ele>110</ele>
        <time>2021-02-28T13:35:34Z</time>
      </trkpt>
      <trkpt lat="43.58408" lon="3.73979">
        <ele>110</ele>
        <time>2021-02-28T13:35:35Z</time>
      </trkpt>
      <trkpt lat="43.58406" lon="3.73984">
        <ele>110</ele>
        <time>2021-02-28T13:35:36Z</time>
      </trkpt>
      <trkpt lat="43.58404" lon="3.73989">
        <ele>110</ele>
        <time>2021-02-28T13:35:37Z</time>
      </trkpt>
      <trkpt lat="43.58401" lon="3.73994">
        <ele>110</ele>
        <time>2021-02-28T13:35:38Z</time>
      </trkpt>
      <trkpt lat="43.58398" lon="3.74">
        <ele>106</ele>
        <time>2021-02-28T13:35:39Z</time>
      </trkpt>
      <trkpt lat="43.58395" lon="3.74006">
        <ele>106</ele>
        <time>2021-02-28T13:35:40Z</time>
      </trkpt>
      <trkpt lat="43.58393" lon="3.74011">
        <ele>106</ele>
        <time>2021-02-28T13:35:41Z</time>
      </trkpt>
      <trkpt lat="43.5839" lon="3.74016">
        <ele>106</ele>
        <time>2021-02-28T13:35:42Z</time>
      </trkpt>
      <trkpt lat="43.58388" lon="3.7402">
        <ele>106</ele>
        <time>2021-02-28T13:35:43Z</time>
      </trkpt>
      <trkpt lat="43.58385" lon="3.74022">
        <ele>106</ele>
        <time>2021-02-28T13:35:44Z</time>
      </trkpt>
      <trkpt lat="43.58384" lon="3.74025">
        <ele>106</ele>
        <time>2021-02-28T13:35:45Z</time>
      </trkpt>
      <trkpt lat="43.58382" lon="3.74027">
        <ele>106</ele>
        <time>2021-02-28T13:35:46Z</time>
      </trkpt>
      <trkpt lat="43.58381" lon="3.74029">
        <ele>106</ele>
        <time>2021-02-28T13:35:47Z</time>
      </trkpt>
      <trkpt lat="43.58379" lon="3.74031">
        <ele>106</ele>
        <time>2021-02-28T13:35:48Z</time>
      </trkpt>
      <trkpt lat="43.58378" lon="3.74034">
        <ele>104</ele>
        <time>2021-02-28T13:35:49Z</time>
      </trkpt>
      <trkpt lat="43.58376" lon="3.74038">
        <ele>104</ele>
        <time>2021-02-28T13:35:50Z</time>
      </trkpt>
      <trkpt lat="43.58375" lon="3.74041">
        <ele>104</ele>
        <time>2021-02-28T13:35:51Z</time>
      </trkpt>
      <trkpt lat="43.58373" lon="3.74045">
        <ele>104</ele>
        <time>2021-02-28T13:35:52Z</time>
      </trkpt>
      <trkpt lat="43.58371" lon="3.74049">
        <ele>104</ele>
        <time>2021-02-28T13:35:53Z</time>
      </trkpt>
      <trkpt lat="43.58368" lon="3.74057">
        <ele>104</ele>
        <time>2021-02-28T13:35:55Z</time>
      </trkpt>
      <trkpt lat="43.58367" lon="3.74061">
        <ele>104</ele>
        <time>2021-02-28T13:35:56Z</time>
      </trkpt>
      <trkpt lat="43.58365" lon="3.74066">
        <ele>104</ele>
        <time>2021-02-28T13:35:57Z</time>
      </trkpt>
      <trkpt lat="43.58364" lon="3.7407">
        <ele>104</ele>
        <time>2021-02-28T13:35:58Z</time>
      </trkpt>
      <trkpt lat="43.58363" lon="3.74073">
        <ele>102</ele>
        <time>2021-02-28T13:35:59Z</time>
      </trkpt>
      <trkpt lat="43.58362" lon="3.74076">
        <ele>102</ele>
        <time>2021-02-28T13:36:00Z</time>
      </trkpt>
      <trkpt lat="43.5836" lon="3.74079">
        <ele>102</ele>
        <time>2021-02-28T13:36:01Z</time>
      </trkpt>
      <trkpt lat="43.58358" lon="3.74082">
        <ele>102</ele>
        <time>2021-02-28T13:36:02Z</time>
      </trkpt>
      <trkpt lat="43.58356" lon="3.74085">
        <ele>102</ele>
        <time>2021-02-28T13:36:03Z</time>
      </trkpt>
      <trkpt lat="43.58354" lon="3.74088">
        <ele>102</ele>
        <time>2021-02-28T13:36:04Z</time>
      </trkpt>
      <trkpt lat="43.58352" lon="3.74092">
        <ele>102</ele>
        <time>2021-02-28T13:36:05Z</time>
      </trkpt>
      <trkpt lat="43.5835" lon="3.74095">
        <ele>102</ele>
        <time>2021-02-28T13:36:06Z</time>
      </trkpt>
      <trkpt lat="43.58348" lon="3.74098">
        <ele>102</ele>
        <time>2021-02-28T13:36:07Z</time>
      </trkpt>
      <trkpt lat="43.58345" lon="3.74101">
        <ele>102</ele>
        <time>2021-02-28T13:36:08Z</time>
      </trkpt>
      <trkpt lat="43.58343" lon="3.74104">
        <ele>101</ele>
        <time>2021-02-28T13:36:09Z</time>
      </trkpt>
      <trkpt lat="43.5834" lon="3.74107">
        <ele>101</ele>
        <time>2021-02-28T13:36:10Z</time>
      </trkpt>
      <trkpt lat="43.58338" lon="3.74109">
        <ele>101</ele>
        <time>2021-02-28T13:36:11Z</time>
      </trkpt>
      <trkpt lat="43.58335" lon="3.74111">
        <ele>101</ele>
        <time>2021-02-28T13:36:12Z</time>
      </trkpt>
      <trkpt lat="43.58332" lon="3.74111">
        <ele>101</ele>
        <time>2021-02-28T13:36:13Z</time>
      </trkpt>
      <trkpt lat="43.5833" lon="3.74109">
        <ele>101</ele>
        <time>2021-02-28T13:36:14Z</time>
      </trkpt>
      <trkpt lat="43.58327" lon="3.74108">
        <ele>101</ele>
        <time>2021-02-28T13:36:15Z</time>
      </trkpt>
      <trkpt lat="43.58325" lon="3.74105">
        <ele>101</ele>
        <time>2021-02-28T13:36:16Z</time>
      </trkpt>
      <trkpt lat="43.58324" lon="3.74102">
        <ele>101</ele>
        <time>2021-02-28T13:36:17Z</time>
      </trkpt>
      <trkpt lat="43.58323" lon="3.74099">
        <ele>101</ele>
        <time>2021-02-28T13:36:18Z</time>
      </trkpt>
      <trkpt lat="43.58324" lon="3.74095">
        <ele>101</ele>
        <time>2021-02-28T13:36:19Z</time>
      </trkpt>
      <trkpt lat="43.58324" lon="3.74092">
        <ele>101</ele>
        <time>2021-02-28T13:36:20Z</time>
      </trkpt>
      <trkpt lat="43.58324" lon="3.74089">
        <ele>101</ele>
        <time>2021-02-28T13:36:21Z</time>
      </trkpt>
      <trkpt lat="43.58324" lon="3.74086">
        <ele>101</ele>
        <time>2021-02-28T13:36:22Z</time>
      </trkpt>
      <trkpt lat="43.58323" lon="3.74083">
        <ele>101</ele>
        <time>2021-02-28T13:36:23Z</time>
      </trkpt>
      <trkpt lat="43.58323" lon="3.7408">
        <ele>101</ele>
        <time>2021-02-28T13:36:24Z</time>
      </trkpt>
      <trkpt lat="43.58322" lon="3.74077">
        <ele>101</ele>
        <time>2021-02-28T13:36:25Z</time>
      </trkpt>
      <trkpt lat="43.58321" lon="3.74075">
        <ele>101</ele>
        <time>2021-02-28T13:36:26Z</time>
      </trkpt>
      <trkpt lat="43.5832" lon="3.74072">
        <ele>101</ele>
        <time>2021-02-28T13:36:27Z</time>
      </trkpt>
      <trkpt lat="43.58318" lon="3.74069">
        <ele>101</ele>
        <time>2021-02-28T13:36:28Z</time>
      </trkpt>
      <trkpt lat="43.58314" lon="3.74065">
        <ele>101</ele>
        <time>2021-02-28T13:36:30Z</time>
      </trkpt>
      <trkpt lat="43.58312" lon="3.74063">
        <ele>101</ele>
        <time>2021-02-28T13:36:31Z</time>
      </trkpt>
      <trkpt lat="43.5831" lon="3.74061">
        <ele>101</ele>
        <time>2021-02-28T13:36:32Z</time>
      </trkpt>
      <trkpt lat="43.58308" lon="3.74059">
        <ele>101</ele>
        <time>2021-02-28T13:36:34Z</time>
      </trkpt>
      <trkpt lat="43.58305" lon="3.74056">
        <ele>101</ele>
        <time>2021-02-28T13:36:36Z</time>
      </trkpt>
      <trkpt lat="43.58303" lon="3.74054">
        <ele>101</ele>
        <time>2021-02-28T13:36:37Z</time>
      </trkpt>
      <trkpt lat="43.58301" lon="3.74052">
        <ele>101</ele>
        <time>2021-02-28T13:36:38Z</time>
      </trkpt>
      <trkpt lat="43.58299" lon="3.74049">
        <ele>98</ele>
        <time>2021-02-28T13:36:39Z</time>
      </trkpt>
      <trkpt lat="43.58297" lon="3.74047">
        <ele>98</ele>
        <time>2021-02-28T13:36:40Z</time>
      </trkpt>
      <trkpt lat="43.58294" lon="3.74044">
        <ele>98</ele>
        <time>2021-02-28T13:36:41Z</time>
      </trkpt>
      <trkpt lat="43.58291" lon="3.74041">
        <ele>98</ele>
        <time>2021-02-28T13:36:42Z</time>
      </trkpt>
      <trkpt lat="43.58288" lon="3.74039">
        <ele>98</ele>
        <time>2021-02-28T13:36:43Z</time>
      </trkpt>
      <trkpt lat="43.58284" lon="3.74036">
        <ele>98</ele>
        <time>2021-02-28T13:36:44Z</time>
      </trkpt>
      <trkpt lat="43.5828" lon="3.74033">
        <ele>98</ele>
        <time>2021-02-28T13:36:45Z</time>
      </trkpt>
      <trkpt lat="43.58277" lon="3.74029">
        <ele>98</ele>
        <time>2021-02-28T13:36:46Z</time>
      </trkpt>
      <trkpt lat="43.58273" lon="3.74026">
        <ele>98</ele>
        <time>2021-02-28T13:36:47Z</time>
      </trkpt>
      <trkpt lat="43.5827" lon="3.74024">
        <ele>98</ele>
        <time>2021-02-28T13:36:48Z</time>
      </trkpt>
      <trkpt lat="43.58268" lon="3.74023">
        <ele>95</ele>
        <time>2021-02-28T13:36:49Z</time>
      </trkpt>
      <trkpt lat="43.58266" lon="3.74022">
        <ele>95</ele>
        <time>2021-02-28T13:36:51Z</time>
      </trkpt>
      <trkpt lat="43.58264" lon="3.7402">
        <ele>95</ele>
        <time>2021-02-28T13:36:53Z</time>
      </trkpt>
      <trkpt lat="43.58265" lon="3.74016">
        <ele>95</ele>
        <time>2021-02-28T13:36:55Z</time>
      </trkpt>
      <trkpt lat="43.58266" lon="3.74013">
        <ele>95</ele>
        <time>2021-02-28T13:36:56Z</time>
      </trkpt>
      <trkpt lat="43.58268" lon="3.74008">
        <ele>95</ele>
        <time>2021-02-28T13:36:57Z</time>
      </trkpt>
      <trkpt lat="43.58271" lon="3.74003">
        <ele>95</ele>
        <time>2021-02-28T13:36:58Z</time>
      </trkpt>
      <trkpt lat="43.58275" lon="3.73997">
        <ele>93</ele>
        <time>2021-02-28T13:36:59Z</time>
      </trkpt>
      <trkpt lat="43.5828" lon="3.73985">
        <ele>93</ele>
        <time>2021-02-28T13:37:01Z</time>
      </trkpt>
      <trkpt lat="43.58281" lon="3.73981">
        <ele>93</ele>
        <time>2021-02-28T13:37:02Z</time>
      </trkpt>
      <trkpt lat="43.58282" lon="3.73977">
        <ele>93</ele>
        <time>2021-02-28T13:37:03Z</time>
      </trkpt>
      <trkpt lat="43.58283" lon="3.73973">
        <ele>93</ele>
        <time>2021-02-28T13:37:04Z</time>
      </trkpt>
      <trkpt lat="43.58284" lon="3.73969">
        <ele>93</ele>
        <time>2021-02-28T13:37:05Z</time>
      </trkpt>
      <trkpt lat="43.58287" lon="3.73965">
        <ele>93</ele>
        <time>2021-02-28T13:37:06Z</time>
      </trkpt>
      <trkpt lat="43.58289" lon="3.7396">
        <ele>93</ele>
        <time>2021-02-28T13:37:07Z</time>
      </trkpt>
      <trkpt lat="43.58291" lon="3.73956">
        <ele>93</ele>
        <time>2021-02-28T13:37:08Z</time>
      </trkpt>
      <trkpt lat="43.58293" lon="3.7395">
        <ele>90</ele>
        <time>2021-02-28T13:37:09Z</time>
      </trkpt>
      <trkpt lat="43.58295" lon="3.73945">
        <ele>90</ele>
        <time>2021-02-28T13:37:10Z</time>
      </trkpt>
      <trkpt lat="43.58297" lon="3.73941">
        <ele>90</ele>
        <time>2021-02-28T13:37:11Z</time>
      </trkpt>
      <trkpt lat="43.58299" lon="3.73937">
        <ele>90</ele>
        <time>2021-02-28T13:37:12Z</time>
      </trkpt>
      <trkpt lat="43.583" lon="3.73934">
        <ele>90</ele>
        <time>2021-02-28T13:37:13Z</time>
      </trkpt>
      <trkpt lat="43.58299" lon="3.73931">
        <ele>89</ele>
        <time>2021-02-28T13:37:19Z</time>
      </trkpt>
      <trkpt lat="43.58299" lon="3.73929">
        <ele>89</ele>
        <time>2021-02-28T13:37:20Z</time>
      </trkpt>
      <trkpt lat="43.58294" lon="3.7392">
        <ele>88</ele>
        <time>2021-02-28T13:37:24Z</time>
      </trkpt>
      <trkpt lat="43.58292" lon="3.73918">
        <ele>88</ele>
        <time>2021-02-28T13:37:25Z</time>
      </trkpt>
      <trkpt lat="43.58289" lon="3.73916">
        <ele>88</ele>
        <time>2021-02-28T13:37:26Z</time>
      </trkpt>
      <trkpt lat="43.58282" lon="3.73914">
        <ele>88</ele>
        <time>2021-02-28T13:37:28Z</time>
      </trkpt>
      <trkpt lat="43.58278" lon="3.73913">
        <ele>88</ele>
        <time>2021-02-28T13:37:29Z</time>
      </trkpt>
      <trkpt lat="43.58274" lon="3.73913">
        <ele>88</ele>
        <time>2021-02-28T13:37:30Z</time>
      </trkpt>
      <trkpt lat="43.58269" lon="3.73912">
        <ele>88</ele>
        <time>2021-02-28T13:37:31Z</time>
      </trkpt>
      <trkpt lat="43.58265" lon="3.73909">
        <ele>88</ele>
        <time>2021-02-28T13:37:32Z</time>
      </trkpt>
      <trkpt lat="43.58261" lon="3.73906">
        <ele>86</ele>
        <time>2021-02-28T13:37:33Z</time>
      </trkpt>
      <trkpt lat="43.58257" lon="3.73902">
        <ele>86</ele>
        <time>2021-02-28T13:37:34Z</time>
      </trkpt>
      <trkpt lat="43.58254" lon="3.73897">
        <ele>86</ele>
        <time>2021-02-28T13:37:35Z</time>
      </trkpt>
      <trkpt lat="43.58251" lon="3.73893">
        <ele>86</ele>
        <time>2021-02-28T13:37:36Z</time>
      </trkpt>
      <trkpt lat="43.58249" lon="3.7389">
        <ele>86</ele>
        <time>2021-02-28T13:37:37Z</time>
      </trkpt>
      <trkpt lat="43.58248" lon="3.73888">
        <ele>86</ele>
        <time>2021-02-28T13:37:38Z</time>
      </trkpt>
      <trkpt lat="43.58247" lon="3.73886">
        <ele>86</ele>
        <time>2021-02-28T13:37:40Z</time>
      </trkpt>
      <trkpt lat="43.58244" lon="3.73884">
        <ele>86</ele>
        <time>2021-02-28T13:37:42Z</time>
      </trkpt>
      <trkpt lat="43.58242" lon="3.73883">
        <ele>85</ele>
        <time>2021-02-28T13:37:43Z</time>
      </trkpt>
      <trkpt lat="43.5824" lon="3.73881">
        <ele>85</ele>
        <time>2021-02-28T13:37:44Z</time>
      </trkpt>
      <trkpt lat="43.58238" lon="3.73878">
        <ele>85</ele>
        <time>2021-02-28T13:37:45Z</time>
      </trkpt>
      <trkpt lat="43.58237" lon="3.73874">
        <ele>85</ele>
        <time>2021-02-28T13:37:46Z</time>
      </trkpt>
      <trkpt lat="43.58235" lon="3.73869">
        <ele>85</ele>
        <time>2021-02-28T13:37:47Z</time>
      </trkpt>
      <trkpt lat="43.58233" lon="3.73864">
        <ele>85</ele>
        <time>2021-02-28T13:37:48Z</time>
      </trkpt>
      <trkpt lat="43.5823" lon="3.73859">
        <ele>85</ele>
        <time>2021-02-28T13:37:49Z</time>
      </trkpt>
      <trkpt lat="43.58228" lon="3.73854">
        <ele>85</ele>
        <time>2021-02-28T13:37:50Z</time>
      </trkpt>
      <trkpt lat="43.58225" lon="3.7385">
        <ele>85</ele>
        <time>2021-02-28T13:37:51Z</time>
      </trkpt>
      <trkpt lat="43.58222" lon="3.73847">
        <ele>85</ele>
        <time>2021-02-28T13:37:52Z</time>
      </trkpt>
      <trkpt lat="43.58219" lon="3.73844">
        <ele>83</ele>
        <time>2021-02-28T13:37:53Z</time>
      </trkpt>
      <trkpt lat="43.58217" lon="3.73841">
        <ele>83</ele>
        <time>2021-02-28T13:37:54Z</time>
      </trkpt>
      <trkpt lat="43.58214" lon="3.73839">
        <ele>83</ele>
        <time>2021-02-28T13:37:55Z</time>
      </trkpt>
      <trkpt lat="43.58213" lon="3.73836">
        <ele>83</ele>
        <time>2021-02-28T13:37:56Z</time>
      </trkpt>
      <trkpt lat="43.58211" lon="3.73833">
        <ele>83</ele>
        <time>2021-02-28T13:37:57Z</time>
      </trkpt>
      <trkpt lat="43.58209" lon="3.73831">
        <ele>83</ele>
        <time>2021-02-28T13:37:58Z</time>
      </trkpt>
      <trkpt lat="43.58207" lon="3.7383">
        <ele>83</ele>
        <time>2021-02-28T13:37:59Z</time>
      </trkpt>
      <trkpt lat="43.58205" lon="3.73831">
        <ele>83</ele>
        <time>2021-02-28T13:38:00Z</time>
      </trkpt>
      <trkpt lat="43.58202" lon="3.73831">
        <ele>83</ele>
        <time>2021-02-28T13:38:01Z</time>
      </trkpt>
      <trkpt lat="43.58199" lon="3.73832">
        <ele>83</ele>
        <time>2021-02-28T13:38:02Z</time>
      </trkpt>
      <trkpt lat="43.58198" lon="3.73831">
        <ele>80</ele>
        <time>2021-02-28T13:38:03Z</time>
      </trkpt>
      <trkpt lat="43.58198" lon="3.73828">
        <ele>80</ele>
        <time>2021-02-28T13:38:04Z</time>
      </trkpt>
      <trkpt lat="43.582" lon="3.73822">
        <ele>80</ele>
        <time>2021-02-28T13:38:06Z</time>
      </trkpt>
      <trkpt lat="43.58201" lon="3.73819">
        <ele>80</ele>
        <time>2021-02-28T13:38:07Z</time>
      </trkpt>
      <trkpt lat="43.58202" lon="3.73816">
        <ele>80</ele>
        <time>2021-02-28T13:38:11Z</time>
      </trkpt>
      <trkpt lat="43.58205" lon="3.73803">
        <ele>74</ele>
        <time>2021-02-28T13:38:34Z</time>
      </trkpt>
      <trkpt lat="43.58205" lon="3.73797">
        <ele>74</ele>
        <time>2021-02-28T13:38:35Z</time>
      </trkpt>
      <trkpt lat="43.58207" lon="3.73794">
        <ele>74</ele>
        <time>2021-02-28T13:38:36Z</time>
      </trkpt>
      <trkpt lat="43.58208" lon="3.73791">
        <ele>74</ele>
        <time>2021-02-28T13:38:37Z</time>
      </trkpt>
      <trkpt lat="43.5821" lon="3.73789">
        <ele>74</ele>
        <time>2021-02-28T13:38:38Z</time>
      </trkpt>
      <trkpt lat="43.58211" lon="3.73787">
        <ele>74</ele>
        <time>2021-02-28T13:38:39Z</time>
      </trkpt>
      <trkpt lat="43.58214" lon="3.73783">
        <ele>74</ele>
        <time>2021-02-28T13:38:41Z</time>
      </trkpt>
      <trkpt lat="43.58215" lon="3.73782">
        <ele>74</ele>
        <time>2021-02-28T13:38:42Z</time>
      </trkpt>
      <trkpt lat="43.58217" lon="3.7378">
        <ele>74</ele>
        <time>2021-02-28T13:38:43Z</time>
      </trkpt>
      <trkpt lat="43.58218" lon="3.73777">
        <ele>74</ele>
        <time>2021-02-28T13:38:44Z</time>
      </trkpt>
      <trkpt lat="43.5822" lon="3.73774">
        <ele>74</ele>
        <time>2021-02-28T13:38:45Z</time>
      </trkpt>
      <trkpt lat="43.58222" lon="3.73771">
        <ele>74</ele>
        <time>2021-02-28T13:38:46Z</time>
      </trkpt>
      <trkpt lat="43.58225" lon="3.73768">
        <ele>74</ele>
        <time>2021-02-28T13:38:47Z</time>
      </trkpt>
      <trkpt lat="43.58232" lon="3.7376">
        <ele>74</ele>
        <time>2021-02-28T13:38:49Z</time>
      </trkpt>
      <trkpt lat="43.58235" lon="3.73756">
        <ele>74</ele>
        <time>2021-02-28T13:38:50Z</time>
      </trkpt>
      <trkpt lat="43.58239" lon="3.73752">
        <ele>74</ele>
        <time>2021-02-28T13:38:51Z</time>
      </trkpt>
      <trkpt lat="43.58242" lon="3.73748">
        <ele>74</ele>
        <time>2021-02-28T13:38:52Z</time>
      </trkpt>
      <trkpt lat="43.58246" lon="3.73744">
        <ele>73</ele>
        <time>2021-02-28T13:38:53Z</time>
      </trkpt>
      <trkpt lat="43.58248" lon="3.7374">
        <ele>73</ele>
        <time>2021-02-28T13:38:54Z</time>
      </trkpt>
      <trkpt lat="43.5825" lon="3.73737">
        <ele>73</ele>
        <time>2021-02-28T13:38:55Z</time>
      </trkpt>
      <trkpt lat="43.5825" lon="3.73734">
        <ele>73</ele>
        <time>2021-02-28T13:38:56Z</time>
      </trkpt>
      <trkpt lat="43.58249" lon="3.7373">
        <ele>73</ele>
        <time>2021-02-28T13:38:57Z</time>
      </trkpt>
      <trkpt lat="43.58248" lon="3.73726">
        <ele>73</ele>
        <time>2021-02-28T13:38:58Z</time>
      </trkpt>
      <trkpt lat="43.58246" lon="3.73722">
        <ele>73</ele>
        <time>2021-02-28T13:38:59Z</time>
      </trkpt>
      <trkpt lat="43.58244" lon="3.73719">
        <ele>73</ele>
        <time>2021-02-28T13:39:00Z</time>
      </trkpt>
      <trkpt lat="43.58243" lon="3.73715">
        <ele>73</ele>
        <time>2021-02-28T13:39:01Z</time>
      </trkpt>
      <trkpt lat="43.58242" lon="3.73711">
        <ele>73</ele>
        <time>2021-02-28T13:39:02Z</time>
      </trkpt>
      <trkpt lat="43.58241" lon="3.73707">
        <ele>72</ele>
        <time>2021-02-28T13:39:03Z</time>
      </trkpt>
      <trkpt lat="43.5824" lon="3.73704">
        <ele>72</ele>
        <time>2021-02-28T13:39:04Z</time>
      </trkpt>
      <trkpt lat="43.58237" lon="3.737">
        <ele>72</ele>
        <time>2021-02-28T13:39:06Z</time>
      </trkpt>
      <trkpt lat="43.58235" lon="3.737">
        <ele>72</ele>
        <time>2021-02-28T13:39:07Z</time>
      </trkpt>
      <trkpt lat="43.58233" lon="3.73701">
        <ele>72</ele>
        <time>2021-02-28T13:39:08Z</time>
      </trkpt>
      <trkpt lat="43.58231" lon="3.73702">
        <ele>72</ele>
        <time>2021-02-28T13:39:09Z</time>
      </trkpt>
      <trkpt lat="43.58229" lon="3.73703">
        <ele>72</ele>
        <time>2021-02-28T13:39:10Z</time>
      </trkpt>
      <trkpt lat="43.58227" lon="3.73705">
        <ele>72</ele>
        <time>2021-02-28T13:39:11Z</time>
      </trkpt>
      <trkpt lat="43.58225" lon="3.73707">
        <ele>72</ele>
        <time>2021-02-28T13:39:12Z</time>
      </trkpt>
      <trkpt lat="43.58222" lon="3.73709">
        <ele>71</ele>
        <time>2021-02-28T13:39:13Z</time>
      </trkpt>
      <trkpt lat="43.58216" lon="3.73713">
        <ele>71</ele>
        <time>2021-02-28T13:39:15Z</time>
      </trkpt>
      <trkpt lat="43.58213" lon="3.73714">
        <ele>71</ele>
        <time>2021-02-28T13:39:16Z</time>
      </trkpt>
      <trkpt lat="43.58211" lon="3.73717">
        <ele>71</ele>
        <time>2021-02-28T13:39:17Z</time>
      </trkpt>
      <trkpt lat="43.58208" lon="3.73719">
        <ele>71</ele>
        <time>2021-02-28T13:39:18Z</time>
      </trkpt>
      <trkpt lat="43.58205" lon="3.73721">
        <ele>71</ele>
        <time>2021-02-28T13:39:19Z</time>
      </trkpt>
      <trkpt lat="43.58202" lon="3.73722">
        <ele>71</ele>
        <time>2021-02-28T13:39:20Z</time>
      </trkpt>
      <trkpt lat="43.58199" lon="3.73723">
        <ele>71</ele>
        <time>2021-02-28T13:39:21Z</time>
      </trkpt>
      <trkpt lat="43.58196" lon="3.73725">
        <ele>71</ele>
        <time>2021-02-28T13:39:22Z</time>
      </trkpt>
      <trkpt lat="43.58193" lon="3.73726">
        <ele>70</ele>
        <time>2021-02-28T13:39:23Z</time>
      </trkpt>
      <trkpt lat="43.5819" lon="3.73728">
        <ele>70</ele>
        <time>2021-02-28T13:39:24Z</time>
      </trkpt>
      <trkpt lat="43.58187" lon="3.7373">
        <ele>70</ele>
        <time>2021-02-28T13:39:25Z</time>
      </trkpt>
      <trkpt lat="43.58185" lon="3.73732">
        <ele>70</ele>
        <time>2021-02-28T13:39:26Z</time>
      </trkpt>
      <trkpt lat="43.58183" lon="3.73733">
        <ele>70</ele>
        <time>2021-02-28T13:39:27Z</time>
      </trkpt>
      <trkpt lat="43.5818" lon="3.73735">
        <ele>70</ele>
        <time>2021-02-28T13:39:28Z</time>
      </trkpt>
      <trkpt lat="43.58178" lon="3.73737">
        <ele>70</ele>
        <time>2021-02-28T13:39:29Z</time>
      </trkpt>
      <trkpt lat="43.58176" lon="3.73739">
        <ele>70</ele>
        <time>2021-02-28T13:39:30Z</time>
      </trkpt>
      <trkpt lat="43.58174" lon="3.73741">
        <ele>70</ele>
        <time>2021-02-28T13:39:31Z</time>
      </trkpt>
      <trkpt lat="43.58172" lon="3.73742">
        <ele>70</ele>
        <time>2021-02-28T13:39:32Z</time>
      </trkpt>
      <trkpt lat="43.58169" lon="3.73744">
        <ele>69</ele>
        <time>2021-02-28T13:39:33Z</time>
      </trkpt>
      <trkpt lat="43.58167" lon="3.73745">
        <ele>69</ele>
        <time>2021-02-28T13:39:34Z</time>
      </trkpt>
      <trkpt lat="43.58164" lon="3.73747">
        <ele>69</ele>
        <time>2021-02-28T13:39:35Z</time>
      </trkpt>
      <trkpt lat="43.58162" lon="3.73748">
        <ele>69</ele>
        <time>2021-02-28T13:39:36Z</time>
      </trkpt>
      <trkpt lat="43.58159" lon="3.73749">
        <ele>69</ele>
        <time>2021-02-28T13:39:37Z</time>
      </trkpt>
      <trkpt lat="43.58156" lon="3.73751">
        <ele>69</ele>
        <time>2021-02-28T13:39:38Z</time>
      </trkpt>
      <trkpt lat="43.58153" lon="3.73752">
        <ele>69</ele>
        <time>2021-02-28T13:39:39Z</time>
      </trkpt>
      <trkpt lat="43.58149" lon="3.73753">
        <ele>69</ele>
        <time>2021-02-28T13:39:40Z</time>
      </trkpt>
      <trkpt lat="43.58146" lon="3.73754">
        <ele>69</ele>
        <time>2021-02-28T13:39:41Z</time>
      </trkpt>
      <trkpt lat="43.58143" lon="3.73755">
        <ele>69</ele>
        <time>2021-02-28T13:39:42Z</time>
      </trkpt>
      <trkpt lat="43.5814" lon="3.73756">
        <ele>68</ele>
        <time>2021-02-28T13:39:43Z</time>
      </trkpt>
      <trkpt lat="43.58137" lon="3.73757">
        <ele>68</ele>
        <time>2021-02-28T13:39:44Z</time>
      </trkpt>
      <trkpt lat="43.58134" lon="3.73759">
        <ele>68</ele>
        <time>2021-02-28T13:39:45Z</time>
      </trkpt>
      <trkpt lat="43.58131" lon="3.73759">
        <ele>68</ele>
        <time>2021-02-28T13:39:46Z</time>
      </trkpt>
      <trkpt lat="43.58128" lon="3.7376">
        <ele>68</ele>
        <time>2021-02-28T13:39:47Z</time>
      </trkpt>
      <trkpt lat="43.58125" lon="3.7376">
        <ele>68</ele>
        <time>2021-02-28T13:39:48Z</time>
      </trkpt>
      <trkpt lat="43.58122" lon="3.73761">
        <ele>68</ele>
        <time>2021-02-28T13:39:49Z</time>
      </trkpt>
      <trkpt lat="43.58119" lon="3.73761">
        <ele>68</ele>
        <time>2021-02-28T13:39:50Z</time>
      </trkpt>
      <trkpt lat="43.58116" lon="3.73761">
        <ele>68</ele>
        <time>2021-02-28T13:39:51Z</time>
      </trkpt>
      <trkpt lat="43.58113" lon="3.73762">
        <ele>68</ele>
        <time>2021-02-28T13:39:52Z</time>
      </trkpt>
      <trkpt lat="43.58109" lon="3.73763">
        <ele>67</ele>
        <time>2021-02-28T13:39:53Z</time>
      </trkpt>
      <trkpt lat="43.58106" lon="3.73763">
        <ele>67</ele>
        <time>2021-02-28T13:39:54Z</time>
      </trkpt>
      <trkpt lat="43.58102" lon="3.73764">
        <ele>67</ele>
        <time>2021-02-28T13:39:55Z</time>
      </trkpt>
      <trkpt lat="43.58099" lon="3.73765">
        <ele>67</ele>
        <time>2021-02-28T13:39:56Z</time>
      </trkpt>
      <trkpt lat="43.58095" lon="3.73765">
        <ele>67</ele>
        <time>2021-02-28T13:39:57Z</time>
      </trkpt>
      <trkpt lat="43.58092" lon="3.73766">
        <ele>67</ele>
        <time>2021-02-28T13:39:58Z</time>
      </trkpt>
      <trkpt lat="43.58088" lon="3.73767">
        <ele>67</ele>
        <time>2021-02-28T13:39:59Z</time>
      </trkpt>
      <trkpt lat="43.58085" lon="3.73767">
        <ele>67</ele>
        <time>2021-02-28T13:40:00Z</time>
      </trkpt>
      <trkpt lat="43.58082" lon="3.73768">
        <ele>67</ele>
        <time>2021-02-28T13:40:01Z</time>
      </trkpt>
      <trkpt lat="43.58079" lon="3.73768">
        <ele>67</ele>
        <time>2021-02-28T13:40:02Z</time>
      </trkpt>
      <trkpt lat="43.58077" lon="3.73769">
        <ele>66</ele>
        <time>2021-02-28T13:40:03Z</time>
      </trkpt>
      <trkpt lat="43.58075" lon="3.73771">
        <ele>66</ele>
        <time>2021-02-28T13:40:04Z</time>
      </trkpt>
      <trkpt lat="43.58074" lon="3.73773">
        <ele>66</ele>
        <time>2021-02-28T13:40:05Z</time>
      </trkpt>
      <trkpt lat="43.58072" lon="3.73777">
        <ele>66</ele>
        <time>2021-02-28T13:40:06Z</time>
      </trkpt>
      <trkpt lat="43.58071" lon="3.7378">
        <ele>66</ele>
        <time>2021-02-28T13:40:07Z</time>
      </trkpt>
      <trkpt lat="43.5807" lon="3.73783">
        <ele>66</ele>
        <time>2021-02-28T13:40:08Z</time>
      </trkpt>
      <trkpt lat="43.58069" lon="3.73786">
        <ele>66</ele>
        <time>2021-02-28T13:40:09Z</time>
      </trkpt>
      <trkpt lat="43.58067" lon="3.73792">
        <ele>66</ele>
        <time>2021-02-28T13:40:11Z</time>
      </trkpt>
      <trkpt lat="43.58064" lon="3.73794">
        <ele>65</ele>
        <time>2021-02-28T13:40:13Z</time>
      </trkpt>
      <trkpt lat="43.58062" lon="3.73792">
        <ele>65</ele>
        <time>2021-02-28T13:40:15Z</time>
      </trkpt>
      <trkpt lat="43.5806" lon="3.73791">
        <ele>65</ele>
        <time>2021-02-28T13:40:17Z</time>
      </trkpt>
      <trkpt lat="43.58059" lon="3.73793">
        <ele>65</ele>
        <time>2021-02-28T13:40:19Z</time>
      </trkpt>
      <trkpt lat="43.58058" lon="3.73795">
        <ele>65</ele>
        <time>2021-02-28T13:40:21Z</time>
      </trkpt>
      <trkpt lat="43.58057" lon="3.73798">
        <ele>65</ele>
        <time>2021-02-28T13:40:22Z</time>
      </trkpt>
      <trkpt lat="43.58055" lon="3.73799">
        <ele>65</ele>
        <time>2021-02-28T13:40:23Z</time>
      </trkpt>
      <trkpt lat="43.58053" lon="3.73801">
        <ele>65</ele>
        <time>2021-02-28T13:40:24Z</time>
      </trkpt>
      <trkpt lat="43.58051" lon="3.73801">
        <ele>65</ele>
        <time>2021-02-28T13:40:25Z</time>
      </trkpt>
      <trkpt lat="43.58048" lon="3.73803">
        <ele>65</ele>
        <time>2021-02-28T13:40:26Z</time>
      </trkpt>
      <trkpt lat="43.58045" lon="3.73804">
        <ele>65</ele>
        <time>2021-02-28T13:40:27Z</time>
      </trkpt>
      <trkpt lat="43.58043" lon="3.73807">
        <ele>65</ele>
        <time>2021-02-28T13:40:28Z</time>
      </trkpt>
      <trkpt lat="43.5804" lon="3.7381">
        <ele>65</ele>
        <time>2021-02-28T13:40:29Z</time>
      </trkpt>
      <trkpt lat="43.58037" lon="3.73813">
        <ele>65</ele>
        <time>2021-02-28T13:40:30Z</time>
      </trkpt>
      <trkpt lat="43.58035" lon="3.73816">
        <ele>65</ele>
        <time>2021-02-28T13:40:31Z</time>
      </trkpt>
      <trkpt lat="43.58032" lon="3.73819">
        <ele>65</ele>
        <time>2021-02-28T13:40:32Z</time>
      </trkpt>
      <trkpt lat="43.5803" lon="3.73822">
        <ele>63</ele>
        <time>2021-02-28T13:40:33Z</time>
      </trkpt>
      <trkpt lat="43.58027" lon="3.73826">
        <ele>63</ele>
        <time>2021-02-28T13:40:34Z</time>
      </trkpt>
      <trkpt lat="43.58025" lon="3.7383">
        <ele>63</ele>
        <time>2021-02-28T13:40:35Z</time>
      </trkpt>
      <trkpt lat="43.58023" lon="3.73835">
        <ele>63</ele>
        <time>2021-02-28T13:40:36Z</time>
      </trkpt>
      <trkpt lat="43.5802" lon="3.73839">
        <ele>63</ele>
        <time>2021-02-28T13:40:37Z</time>
      </trkpt>
      <trkpt lat="43.58018" lon="3.73844">
        <ele>63</ele>
        <time>2021-02-28T13:40:38Z</time>
      </trkpt>
      <trkpt lat="43.58014" lon="3.73853">
        <ele>63</ele>
        <time>2021-02-28T13:40:40Z</time>
      </trkpt>
      <trkpt lat="43.58012" lon="3.73859">
        <ele>63</ele>
        <time>2021-02-28T13:40:41Z</time>
      </trkpt>
      <trkpt lat="43.5801" lon="3.73864">
        <ele>63</ele>
        <time>2021-02-28T13:40:42Z</time>
      </trkpt>
      <trkpt lat="43.58006" lon="3.73874">
        <ele>63</ele>
        <time>2021-02-28T13:40:44Z</time>
      </trkpt>
      <trkpt lat="43.58004" lon="3.73878">
        <ele>63</ele>
        <time>2021-02-28T13:40:45Z</time>
      </trkpt>
      <trkpt lat="43.58002" lon="3.73882">
        <ele>63</ele>
        <time>2021-02-28T13:40:46Z</time>
      </trkpt>
      <trkpt lat="43.58" lon="3.73887">
        <ele>63</ele>
        <time>2021-02-28T13:40:47Z</time>
      </trkpt>
      <trkpt lat="43.57998" lon="3.7389">
        <ele>63</ele>
        <time>2021-02-28T13:40:48Z</time>
      </trkpt>
      <trkpt lat="43.57995" lon="3.73894">
        <ele>63</ele>
        <time>2021-02-28T13:40:49Z</time>
      </trkpt>
      <trkpt lat="43.57994" lon="3.73898">
        <ele>63</ele>
        <time>2021-02-28T13:40:50Z</time>
      </trkpt>
      <trkpt lat="43.57992" lon="3.73903">
        <ele>63</ele>
        <time>2021-02-28T13:40:51Z</time>
      </trkpt>
      <trkpt lat="43.5799" lon="3.73908">
        <ele>63</ele>
        <time>2021-02-28T13:40:52Z</time>
      </trkpt>
      <trkpt lat="43.57989" lon="3.73913">
        <ele>62</ele>
        <time>2021-02-28T13:40:53Z</time>
      </trkpt>
      <trkpt lat="43.57988" lon="3.73918">
        <ele>62</ele>
        <time>2021-02-28T13:40:54Z</time>
      </trkpt>
      <trkpt lat="43.57986" lon="3.73922">
        <ele>62</ele>
        <time>2021-02-28T13:40:55Z</time>
      </trkpt>
      <trkpt lat="43.57983" lon="3.7393">
        <ele>62</ele>
        <time>2021-02-28T13:40:57Z</time>
      </trkpt>
      <trkpt lat="43.57981" lon="3.73934">
        <ele>62</ele>
        <time>2021-02-28T13:40:58Z</time>
      </trkpt>
      <trkpt lat="43.57979" lon="3.73938">
        <ele>62</ele>
        <time>2021-02-28T13:40:59Z</time>
      </trkpt>
      <trkpt lat="43.57977" lon="3.73943">
        <ele>62</ele>
        <time>2021-02-28T13:41:00Z</time>
      </trkpt>
      <trkpt lat="43.57975" lon="3.73947">
        <ele>62</ele>
        <time>2021-02-28T13:41:01Z</time>
      </trkpt>
      <trkpt lat="43.57974" lon="3.7395">
        <ele>62</ele>
        <time>2021-02-28T13:41:02Z</time>
      </trkpt>
      <trkpt lat="43.57972" lon="3.73952">
        <ele>62</ele>
        <time>2021-02-28T13:41:03Z</time>
      </trkpt>
      <trkpt lat="43.5797" lon="3.73955">
        <ele>62</ele>
        <time>2021-02-28T13:41:04Z</time>
      </trkpt>
      <trkpt lat="43.57968" lon="3.73957">
        <ele>62</ele>
        <time>2021-02-28T13:41:05Z</time>
      </trkpt>
      <trkpt lat="43.57967" lon="3.73959">
        <ele>62</ele>
        <time>2021-02-28T13:41:06Z</time>
      </trkpt>
      <trkpt lat="43.57966" lon="3.73962">
        <ele>62</ele>
        <time>2021-02-28T13:41:07Z</time>
      </trkpt>
      <trkpt lat="43.57965" lon="3.73964">
        <ele>62</ele>
        <time>2021-02-28T13:41:08Z</time>
      </trkpt>
      <trkpt lat="43.57964" lon="3.73967">
        <ele>62</ele>
        <time>2021-02-28T13:41:09Z</time>
      </trkpt>
      <trkpt lat="43.57962" lon="3.73969">
        <ele>62</ele>
        <time>2021-02-28T13:41:10Z</time>
      </trkpt>
      <trkpt lat="43.57959" lon="3.73971">
        <ele>62</ele>
        <time>2021-02-28T13:41:11Z</time>
      </trkpt>
      <trkpt lat="43.57956" lon="3.73972">
        <ele>62</ele>
        <time>2021-02-28T13:41:12Z</time>
      </trkpt>
      <trkpt lat="43.57953" lon="3.73973">
        <ele>62</ele>
        <time>2021-02-28T13:41:13Z</time>
      </trkpt>
      <trkpt lat="43.57951" lon="3.73973">
        <ele>63</ele>
        <time>2021-02-28T13:41:14Z</time>
      </trkpt>
      <trkpt lat="43.57949" lon="3.73973">
        <ele>63</ele>
        <time>2021-02-28T13:41:15Z</time>
      </trkpt>
      <trkpt lat="43.57947" lon="3.73974">
        <ele>63</ele>
        <time>2021-02-28T13:41:16Z</time>
      </trkpt>
      <trkpt lat="43.57945" lon="3.73974">
        <ele>63</ele>
        <time>2021-02-28T13:41:17Z</time>
      </trkpt>
      <trkpt lat="43.57943" lon="3.73973">
        <ele>63</ele>
        <time>2021-02-28T13:41:18Z</time>
      </trkpt>
      <trkpt lat="43.57941" lon="3.73973">
        <ele>63</ele>
        <time>2021-02-28T13:41:19Z</time>
      </trkpt>
      <trkpt lat="43.57939" lon="3.73971">
        <ele>63</ele>
        <time>2021-02-28T13:41:20Z</time>
      </trkpt>
      <trkpt lat="43.57937" lon="3.7397">
        <ele>63</ele>
        <time>2021-02-28T13:41:21Z</time>
      </trkpt>
      <trkpt lat="43.57935" lon="3.73969">
        <ele>63</ele>
        <time>2021-02-28T13:41:22Z</time>
      </trkpt>
      <trkpt lat="43.57933" lon="3.73968">
        <ele>64</ele>
        <time>2021-02-28T13:41:23Z</time>
      </trkpt>
      <trkpt lat="43.57932" lon="3.73966">
        <ele>64</ele>
        <time>2021-02-28T13:41:24Z</time>
      </trkpt>
      <trkpt lat="43.5793" lon="3.73962">
        <ele>64</ele>
        <time>2021-02-28T13:41:26Z</time>
      </trkpt>
      <trkpt lat="43.57927" lon="3.7396">
        <ele>64</ele>
        <time>2021-02-28T13:41:28Z</time>
      </trkpt>
      <trkpt lat="43.57925" lon="3.73957">
        <ele>64</ele>
        <time>2021-02-28T13:41:30Z</time>
      </trkpt>
      <trkpt lat="43.57924" lon="3.73955">
        <ele>64</ele>
        <time>2021-02-28T13:41:32Z</time>
      </trkpt>
      <trkpt lat="43.57923" lon="3.73952">
        <ele>64</ele>
        <time>2021-02-28T13:41:34Z</time>
      </trkpt>
      <trkpt lat="43.57922" lon="3.7395">
        <ele>64</ele>
        <time>2021-02-28T13:41:36Z</time>
      </trkpt>
      <trkpt lat="43.5792" lon="3.73947">
        <ele>64</ele>
        <time>2021-02-28T13:41:38Z</time>
      </trkpt>
      <trkpt lat="43.57919" lon="3.73944">
        <ele>64</ele>
        <time>2021-02-28T13:41:40Z</time>
      </trkpt>
      <trkpt lat="43.57918" lon="3.73942">
        <ele>64</ele>
        <time>2021-02-28T13:41:42Z</time>
      </trkpt>
      <trkpt lat="43.57916" lon="3.73939">
        <ele>64</ele>
        <time>2021-02-28T13:41:44Z</time>
      </trkpt>
      <trkpt lat="43.57915" lon="3.73936">
        <ele>64</ele>
        <time>2021-02-28T13:41:46Z</time>
      </trkpt>
      <trkpt lat="43.57913" lon="3.73933">
        <ele>64</ele>
        <time>2021-02-28T13:41:48Z</time>
      </trkpt>
      <trkpt lat="43.57911" lon="3.7393">
        <ele>64</ele>
        <time>2021-02-28T13:41:50Z</time>
      </trkpt>
      <trkpt lat="43.5791" lon="3.73926">
        <ele>66</ele>
        <time>2021-02-28T13:41:53Z</time>
      </trkpt>
      <trkpt lat="43.57909" lon="3.73922">
        <ele>66</ele>
        <time>2021-02-28T13:41:54Z</time>
      </trkpt>
      <trkpt lat="43.57907" lon="3.73918">
        <ele>66</ele>
        <time>2021-02-28T13:41:56Z</time>
      </trkpt>
      <trkpt lat="43.57905" lon="3.73914">
        <ele>66</ele>
        <time>2021-02-28T13:41:58Z</time>
      </trkpt>
      <trkpt lat="43.57903" lon="3.73911">
        <ele>66</ele>
        <time>2021-02-28T13:42:00Z</time>
      </trkpt>
      <trkpt lat="43.57902" lon="3.73907">
        <ele>66</ele>
        <time>2021-02-28T13:42:02Z</time>
      </trkpt>
      <trkpt lat="43.57901" lon="3.73903">
        <ele>66</ele>
        <time>2021-02-28T13:42:04Z</time>
      </trkpt>
      <trkpt lat="43.57901" lon="3.73897">
        <ele>66</ele>
        <time>2021-02-28T13:42:06Z</time>
      </trkpt>
      <trkpt lat="43.579" lon="3.73894">
        <ele>66</ele>
        <time>2021-02-28T13:42:07Z</time>
      </trkpt>
      <trkpt lat="43.57899" lon="3.7389">
        <ele>66</ele>
        <time>2021-02-28T13:42:09Z</time>
      </trkpt>
      <trkpt lat="43.57898" lon="3.73886">
        <ele>66</ele>
        <time>2021-02-28T13:42:11Z</time>
      </trkpt>
      <trkpt lat="43.57898" lon="3.73883">
        <ele>68</ele>
        <time>2021-02-28T13:42:13Z</time>
      </trkpt>
      <trkpt lat="43.57897" lon="3.7388">
        <ele>68</ele>
        <time>2021-02-28T13:42:15Z</time>
      </trkpt>
      <trkpt lat="43.57896" lon="3.73877">
        <ele>68</ele>
        <time>2021-02-28T13:42:17Z</time>
      </trkpt>
      <trkpt lat="43.57896" lon="3.73872">
        <ele>68</ele>
        <time>2021-02-28T13:42:19Z</time>
      </trkpt>
      <trkpt lat="43.57896" lon="3.73871">
        <ele>69</ele>
        <time>2021-02-28T13:42:26Z</time>
      </trkpt>
      <trkpt lat="43.57894" lon="3.73863">
        <ele>70</ele>
        <time>2021-02-28T13:42:36Z</time>
      </trkpt>
      <trkpt lat="43.57894" lon="3.7386">
        <ele>70</ele>
        <time>2021-02-28T13:42:38Z</time>
      </trkpt>
      <trkpt lat="43.57894" lon="3.73858">
        <ele>71</ele>
        <time>2021-02-28T13:42:48Z</time>
      </trkpt>
      <trkpt lat="43.57891" lon="3.73851">
        <ele>72</ele>
        <time>2021-02-28T13:43:00Z</time>
      </trkpt>
      <trkpt lat="43.5789" lon="3.73849">
        <ele>72</ele>
        <time>2021-02-28T13:43:01Z</time>
      </trkpt>
      <trkpt lat="43.57889" lon="3.73847">
        <ele>72</ele>
        <time>2021-02-28T13:43:03Z</time>
      </trkpt>
      <trkpt lat="43.57881" lon="3.73841">
        <ele>74</ele>
        <time>2021-02-28T13:43:17Z</time>
      </trkpt>
      <trkpt lat="43.57879" lon="3.73839">
        <ele>74</ele>
        <time>2021-02-28T13:43:18Z</time>
      </trkpt>
      <trkpt lat="43.57877" lon="3.73836">
        <ele>74</ele>
        <time>2021-02-28T13:43:20Z</time>
      </trkpt>
      <trkpt lat="43.57874" lon="3.73833">
        <ele>74</ele>
        <time>2021-02-28T13:43:22Z</time>
      </trkpt>
      <trkpt lat="43.57872" lon="3.7383">
        <ele>74</ele>
        <time>2021-02-28T13:43:24Z</time>
      </trkpt>
      <trkpt lat="43.5787" lon="3.73827">
        <ele>74</ele>
        <time>2021-02-28T13:43:26Z</time>
      </trkpt>
      <trkpt lat="43.57868" lon="3.73824">
        <ele>74</ele>
        <time>2021-02-28T13:43:28Z</time>
      </trkpt>
      <trkpt lat="43.57866" lon="3.73821">
        <ele>74</ele>
        <time>2021-02-28T13:43:30Z</time>
      </trkpt>
      <trkpt lat="43.57865" lon="3.73819">
        <ele>74</ele>
        <time>2021-02-28T13:43:31Z</time>
      </trkpt>
      <trkpt lat="43.57862" lon="3.73816">
        <ele>74</ele>
        <time>2021-02-28T13:43:33Z</time>
      </trkpt>
      <trkpt lat="43.5786" lon="3.73814">
        <ele>74</ele>
        <time>2021-02-28T13:43:35Z</time>
      </trkpt>
      <trkpt lat="43.57857" lon="3.73812">
        <ele>77</ele>
        <time>2021-02-28T13:43:37Z</time>
      </trkpt>
      <trkpt lat="43.57855" lon="3.7381">
        <ele>77</ele>
        <time>2021-02-28T13:43:39Z</time>
      </trkpt>
      <trkpt lat="43.57852" lon="3.73808">
        <ele>77</ele>
        <time>2021-02-28T13:43:41Z</time>
      </trkpt>
      <trkpt lat="43.57849" lon="3.73806">
        <ele>77</ele>
        <time>2021-02-28T13:43:43Z</time>
      </trkpt>
      <trkpt lat="43.57847" lon="3.73804">
        <ele>77</ele>
        <time>2021-02-28T13:43:45Z</time>
      </trkpt>
      <trkpt lat="43.57844" lon="3.73802">
        <ele>79</ele>
        <time>2021-02-28T13:43:47Z</time>
      </trkpt>
      <trkpt lat="43.57842" lon="3.738">
        <ele>79</ele>
        <time>2021-02-28T13:43:49Z</time>
      </trkpt>
      <trkpt lat="43.57841" lon="3.73796">
        <ele>79</ele>
        <time>2021-02-28T13:43:51Z</time>
      </trkpt>
      <trkpt lat="43.57838" lon="3.73794">
        <ele>79</ele>
        <time>2021-02-28T13:43:53Z</time>
      </trkpt>
      <trkpt lat="43.57836" lon="3.73792">
        <ele>79</ele>
        <time>2021-02-28T13:43:55Z</time>
      </trkpt>
      <trkpt lat="43.57834" lon="3.7379">
        <ele>81</ele>
        <time>2021-02-28T13:43:57Z</time>
      </trkpt>
      <trkpt lat="43.57831" lon="3.73788">
        <ele>81</ele>
        <time>2021-02-28T13:43:59Z</time>
      </trkpt>
      <trkpt lat="43.57828" lon="3.73787">
        <ele>81</ele>
        <time>2021-02-28T13:44:01Z</time>
      </trkpt>
      <trkpt lat="43.57826" lon="3.73786">
        <ele>81</ele>
        <time>2021-02-28T13:44:03Z</time>
      </trkpt>
      <trkpt lat="43.57823" lon="3.73785">
        <ele>81</ele>
        <time>2021-02-28T13:44:05Z</time>
      </trkpt>
      <trkpt lat="43.5782" lon="3.73784">
        <ele>82</ele>
        <time>2021-02-28T13:44:07Z</time>
      </trkpt>
      <trkpt lat="43.57817" lon="3.73783">
        <ele>82</ele>
        <time>2021-02-28T13:44:09Z</time>
      </trkpt>
      <trkpt lat="43.57815" lon="3.73782">
        <ele>82</ele>
        <time>2021-02-28T13:44:11Z</time>
      </trkpt>
      <trkpt lat="43.57813" lon="3.7378">
        <ele>82</ele>
        <time>2021-02-28T13:44:13Z</time>
      </trkpt>
      <trkpt lat="43.57811" lon="3.73778">
        <ele>82</ele>
        <time>2021-02-28T13:44:15Z</time>
      </trkpt>
      <trkpt lat="43.57808" lon="3.73776">
        <ele>84</ele>
        <time>2021-02-28T13:44:17Z</time>
      </trkpt>
      <trkpt lat="43.57806" lon="3.73774">
        <ele>84</ele>
        <time>2021-02-28T13:44:19Z</time>
      </trkpt>
      <trkpt lat="43.57803" lon="3.73773">
        <ele>84</ele>
        <time>2021-02-28T13:44:21Z</time>
      </trkpt>
      <trkpt lat="43.578" lon="3.7377">
        <ele>84</ele>
        <time>2021-02-28T13:44:23Z</time>
      </trkpt>
      <trkpt lat="43.57798" lon="3.73767">
        <ele>84</ele>
        <time>2021-02-28T13:44:25Z</time>
      </trkpt>
      <trkpt lat="43.57797" lon="3.73763">
        <ele>85</ele>
        <time>2021-02-28T13:44:27Z</time>
      </trkpt>
      <trkpt lat="43.57795" lon="3.73761">
        <ele>85</ele>
        <time>2021-02-28T13:44:28Z</time>
      </trkpt>
      <trkpt lat="43.57794" lon="3.73759">
        <ele>85</ele>
        <time>2021-02-28T13:44:29Z</time>
      </trkpt>
      <trkpt lat="43.57793" lon="3.73757">
        <ele>85</ele>
        <time>2021-02-28T13:44:30Z</time>
      </trkpt>
      <trkpt lat="43.57792" lon="3.73753">
        <ele>85</ele>
        <time>2021-02-28T13:44:32Z</time>
      </trkpt>
      <trkpt lat="43.5779" lon="3.73749">
        <ele>85</ele>
        <time>2021-02-28T13:44:34Z</time>
      </trkpt>
      <trkpt lat="43.57788" lon="3.73746">
        <ele>85</ele>
        <time>2021-02-28T13:44:36Z</time>
      </trkpt>
      <trkpt lat="43.57786" lon="3.73745">
        <ele>86</ele>
        <time>2021-02-28T13:44:37Z</time>
      </trkpt>
      <trkpt lat="43.57785" lon="3.73743">
        <ele>86</ele>
        <time>2021-02-28T13:44:38Z</time>
      </trkpt>
      <trkpt lat="43.57783" lon="3.73742">
        <ele>86</ele>
        <time>2021-02-28T13:44:39Z</time>
      </trkpt>
      <trkpt lat="43.57782" lon="3.7374">
        <ele>86</ele>
        <time>2021-02-28T13:44:40Z</time>
      </trkpt>
      <trkpt lat="43.57782" lon="3.73736">
        <ele>86</ele>
        <time>2021-02-28T13:44:42Z</time>
      </trkpt>
      <trkpt lat="43.57785" lon="3.73735">
        <ele>86</ele>
        <time>2021-02-28T13:44:44Z</time>
      </trkpt>
      <trkpt lat="43.57787" lon="3.73737">
        <ele>86</ele>
        <time>2021-02-28T13:44:46Z</time>
      </trkpt>
      <trkpt lat="43.5779" lon="3.73739">
        <ele>86</ele>
        <time>2021-02-28T13:44:48Z</time>
      </trkpt>
      <trkpt lat="43.57793" lon="3.7374">
        <ele>86</ele>
        <time>2021-02-28T13:44:50Z</time>
      </trkpt>
      <trkpt lat="43.57796" lon="3.73741">
        <ele>86</ele>
        <time>2021-02-28T13:44:52Z</time>
      </trkpt>
      <trkpt lat="43.57799" lon="3.73742">
        <ele>86</ele>
        <time>2021-02-28T13:44:54Z</time>
      </trkpt>
      <trkpt lat="43.57802" lon="3.73743">
        <ele>86</ele>
        <time>2021-02-28T13:44:56Z</time>
      </trkpt>
      <trkpt lat="43.57805" lon="3.73744">
        <ele>86</ele>
        <time>2021-02-28T13:44:58Z</time>
      </trkpt>
      <trkpt lat="43.57808" lon="3.73745">
        <ele>86</ele>
        <time>2021-02-28T13:45:00Z</time>
      </trkpt>
      <trkpt lat="43.57809" lon="3.73745">
        <ele>88</ele>
        <time>2021-02-28T13:45:06Z</time>
      </trkpt>
      <trkpt lat="43.57816" lon="3.73751">
        <ele>88</ele>
        <time>2021-02-28T13:45:12Z</time>
      </trkpt>
      <trkpt lat="43.57822" lon="3.73756">
        <ele>88</ele>
        <time>2021-02-28T13:45:13Z</time>
      </trkpt>
      <trkpt lat="43.57826" lon="3.73758">
        <ele>88</ele>
        <time>2021-02-28T13:45:14Z</time>
      </trkpt>
      <trkpt lat="43.5783" lon="3.73758">
        <ele>88</ele>
        <time>2021-02-28T13:45:15Z</time>
      </trkpt>
      <trkpt lat="43.57834" lon="3.73758">
        <ele>88</ele>
        <time>2021-02-28T13:45:16Z</time>
      </trkpt>
      <trkpt lat="43.57838" lon="3.73759">
        <ele>88</ele>
        <time>2021-02-28T13:45:17Z</time>
      </trkpt>
      <trkpt lat="43.57842" lon="3.73759">
        <ele>88</ele>
        <time>2021-02-28T13:45:18Z</time>
      </trkpt>
      <trkpt lat="43.57845" lon="3.73758">
        <ele>88</ele>
        <time>2021-02-28T13:45:19Z</time>
      </trkpt>
      <trkpt lat="43.57848" lon="3.73757">
        <ele>88</ele>
        <time>2021-02-28T13:45:20Z</time>
      </trkpt>
      <trkpt lat="43.57852" lon="3.73755">
        <ele>88</ele>
        <time>2021-02-28T13:45:22Z</time>
      </trkpt>
      <trkpt lat="43.57854" lon="3.73755">
        <ele>88</ele>
        <time>2021-02-28T13:45:23Z</time>
      </trkpt>
      <trkpt lat="43.57856" lon="3.73755">
        <ele>88</ele>
        <time>2021-02-28T13:45:24Z</time>
      </trkpt>
      <trkpt lat="43.57859" lon="3.73755">
        <ele>88</ele>
        <time>2021-02-28T13:45:25Z</time>
      </trkpt>
      <trkpt lat="43.57861" lon="3.73752">
        <ele>88</ele>
        <time>2021-02-28T13:45:27Z</time>
      </trkpt>
      <trkpt lat="43.57861" lon="3.73749">
        <ele>88</ele>
        <time>2021-02-28T13:45:30Z</time>
      </trkpt>
      <trkpt lat="43.57859" lon="3.73744">
        <ele>88</ele>
        <time>2021-02-28T13:45:31Z</time>
      </trkpt>
      <trkpt lat="43.57858" lon="3.73742">
        <ele>88</ele>
        <time>2021-02-28T13:45:32Z</time>
      </trkpt>
      <trkpt lat="43.57857" lon="3.7374">
        <ele>88</ele>
        <time>2021-02-28T13:45:33Z</time>
      </trkpt>
      <trkpt lat="43.57855" lon="3.73736">
        <ele>88</ele>
        <time>2021-02-28T13:45:35Z</time>
      </trkpt>
      <trkpt lat="43.57854" lon="3.73734">
        <ele>88</ele>
        <time>2021-02-28T13:45:36Z</time>
      </trkpt>
      <trkpt lat="43.57853" lon="3.73732">
        <ele>88</ele>
        <time>2021-02-28T13:45:37Z</time>
      </trkpt>
      <trkpt lat="43.57853" lon="3.73729">
        <ele>88</ele>
        <time>2021-02-28T13:45:38Z</time>
      </trkpt>
      <trkpt lat="43.57852" lon="3.73725">
        <ele>88</ele>
        <time>2021-02-28T13:45:40Z</time>
      </trkpt>
      <trkpt lat="43.57851" lon="3.73722">
        <ele>89</ele>
        <time>2021-02-28T13:45:41Z</time>
      </trkpt>
      <trkpt lat="43.5785" lon="3.7372">
        <ele>89</ele>
        <time>2021-02-28T13:45:42Z</time>
      </trkpt>
      <trkpt lat="43.57849" lon="3.73716">
        <ele>89</ele>
        <time>2021-02-28T13:45:44Z</time>
      </trkpt>
      <trkpt lat="43.57847" lon="3.73712">
        <ele>89</ele>
        <time>2021-02-28T13:45:46Z</time>
      </trkpt>
      <trkpt lat="43.57845" lon="3.73707">
        <ele>89</ele>
        <time>2021-02-28T13:45:48Z</time>
      </trkpt>
      <trkpt lat="43.57845" lon="3.73703">
        <ele>89</ele>
        <time>2021-02-28T13:45:50Z</time>
      </trkpt>
      <trkpt lat="43.57844" lon="3.73699">
        <ele>89</ele>
        <time>2021-02-28T13:45:52Z</time>
      </trkpt>
      <trkpt lat="43.57842" lon="3.73695">
        <ele>89</ele>
        <time>2021-02-28T13:45:54Z</time>
      </trkpt>
      <trkpt lat="43.57839" lon="3.73692">
        <ele>89</ele>
        <time>2021-02-28T13:45:57Z</time>
      </trkpt>
      <trkpt lat="43.57837" lon="3.73689">
        <ele>89</ele>
        <time>2021-02-28T13:45:58Z</time>
      </trkpt>
      <trkpt lat="43.57835" lon="3.73686">
        <ele>89</ele>
        <time>2021-02-28T13:46:00Z</time>
      </trkpt>
      <trkpt lat="43.57834" lon="3.73683">
        <ele>89</ele>
        <time>2021-02-28T13:46:02Z</time>
      </trkpt>
      <trkpt lat="43.57833" lon="3.73679">
        <ele>89</ele>
        <time>2021-02-28T13:46:04Z</time>
      </trkpt>
      <trkpt lat="43.57831" lon="3.73675">
        <ele>89</ele>
        <time>2021-02-28T13:46:06Z</time>
      </trkpt>
      <trkpt lat="43.5783" lon="3.73672">
        <ele>89</ele>
        <time>2021-02-28T13:46:08Z</time>
      </trkpt>
      <trkpt lat="43.5783" lon="3.73668">
        <ele>89</ele>
        <time>2021-02-28T13:46:10Z</time>
      </trkpt>
      <trkpt lat="43.5783" lon="3.73664">
        <ele>89</ele>
        <time>2021-02-28T13:46:12Z</time>
      </trkpt>
      <trkpt lat="43.5783" lon="3.7366">
        <ele>89</ele>
        <time>2021-02-28T13:46:14Z</time>
      </trkpt>
      <trkpt lat="43.5783" lon="3.73656">
        <ele>89</ele>
        <time>2021-02-28T13:46:16Z</time>
      </trkpt>
      <trkpt lat="43.5783" lon="3.73652">
        <ele>89</ele>
        <time>2021-02-28T13:46:18Z</time>
      </trkpt>
      <trkpt lat="43.57829" lon="3.73648">
        <ele>89</ele>
        <time>2021-02-28T13:46:20Z</time>
      </trkpt>
      <trkpt lat="43.57829" lon="3.73644">
        <ele>89</ele>
        <time>2021-02-28T13:46:22Z</time>
      </trkpt>
      <trkpt lat="43.57828" lon="3.7364">
        <ele>89</ele>
        <time>2021-02-28T13:46:24Z</time>
      </trkpt>
      <trkpt lat="43.57827" lon="3.73636">
        <ele>89</ele>
        <time>2021-02-28T13:46:26Z</time>
      </trkpt>
      <trkpt lat="43.57825" lon="3.73633">
        <ele>89</ele>
        <time>2021-02-28T13:46:28Z</time>
      </trkpt>
      <trkpt lat="43.57823" lon="3.73631">
        <ele>89</ele>
        <time>2021-02-28T13:46:30Z</time>
      </trkpt>
      <trkpt lat="43.57821" lon="3.73627">
        <ele>89</ele>
        <time>2021-02-28T13:46:32Z</time>
      </trkpt>
      <trkpt lat="43.57819" lon="3.73624">
        <ele>89</ele>
        <time>2021-02-28T13:46:34Z</time>
      </trkpt>
      <trkpt lat="43.57817" lon="3.7362">
        <ele>89</ele>
        <time>2021-02-28T13:46:36Z</time>
      </trkpt>
      <trkpt lat="43.57814" lon="3.73618">
        <ele>89</ele>
        <time>2021-02-28T13:46:38Z</time>
      </trkpt>
      <trkpt lat="43.57813" lon="3.73617">
        <ele>89</ele>
        <time>2021-02-28T13:46:39Z</time>
      </trkpt>
      <trkpt lat="43.5781" lon="3.73616">
        <ele>89</ele>
        <time>2021-02-28T13:46:40Z</time>
      </trkpt>
      <trkpt lat="43.57808" lon="3.73615">
        <ele>95</ele>
        <time>2021-02-28T13:46:41Z</time>
      </trkpt>
      <trkpt lat="43.57806" lon="3.73613">
        <ele>95</ele>
        <time>2021-02-28T13:46:42Z</time>
      </trkpt>
      <trkpt lat="43.57804" lon="3.73612">
        <ele>95</ele>
        <time>2021-02-28T13:46:43Z</time>
      </trkpt>
      <trkpt lat="43.57802" lon="3.7361">
        <ele>95</ele>
        <time>2021-02-28T13:46:44Z</time>
      </trkpt>
      <trkpt lat="43.578" lon="3.73608">
        <ele>95</ele>
        <time>2021-02-28T13:46:45Z</time>
      </trkpt>
      <trkpt lat="43.57798" lon="3.73606">
        <ele>95</ele>
        <time>2021-02-28T13:46:46Z</time>
      </trkpt>
      <trkpt lat="43.57796" lon="3.73603">
        <ele>95</ele>
        <time>2021-02-28T13:46:47Z</time>
      </trkpt>
      <trkpt lat="43.57791" lon="3.73598">
        <ele>95</ele>
        <time>2021-02-28T13:46:49Z</time>
      </trkpt>
      <trkpt lat="43.57789" lon="3.73594">
        <ele>95</ele>
        <time>2021-02-28T13:46:50Z</time>
      </trkpt>
      <trkpt lat="43.57788" lon="3.7359">
        <ele>95</ele>
        <time>2021-02-28T13:46:51Z</time>
      </trkpt>
      <trkpt lat="43.57787" lon="3.73586">
        <ele>95</ele>
        <time>2021-02-28T13:46:52Z</time>
      </trkpt>
      <trkpt lat="43.57786" lon="3.73582">
        <ele>95</ele>
        <time>2021-02-28T13:46:53Z</time>
      </trkpt>
      <trkpt lat="43.57784" lon="3.73579">
        <ele>95</ele>
        <time>2021-02-28T13:46:54Z</time>
      </trkpt>
      <trkpt lat="43.57783" lon="3.73575">
        <ele>95</ele>
        <time>2021-02-28T13:46:55Z</time>
      </trkpt>
      <trkpt lat="43.57782" lon="3.73571">
        <ele>95</ele>
        <time>2021-02-28T13:46:56Z</time>
      </trkpt>
      <trkpt lat="43.57781" lon="3.73568">
        <ele>95</ele>
        <time>2021-02-28T13:46:57Z</time>
      </trkpt>
      <trkpt lat="43.57781" lon="3.73564">
        <ele>95</ele>
        <time>2021-02-28T13:46:58Z</time>
      </trkpt>
      <trkpt lat="43.57781" lon="3.73563">
        <ele>95</ele>
        <time>2021-02-28T13:47:07Z</time>
      </trkpt>
      <trkpt lat="43.57771" lon="3.73552">
        <ele>95</ele>
        <time>2021-02-28T13:48:05Z</time>
      </trkpt>
      <trkpt lat="43.57764" lon="3.73544">
        <ele>95</ele>
        <time>2021-02-28T13:48:07Z</time>
      </trkpt>
      <trkpt lat="43.57761" lon="3.73539">
        <ele>95</ele>
        <time>2021-02-28T13:48:08Z</time>
      </trkpt>
      <trkpt lat="43.57758" lon="3.73533">
        <ele>95</ele>
        <time>2021-02-28T13:48:09Z</time>
      </trkpt>
      <trkpt lat="43.57755" lon="3.73529">
        <ele>95</ele>
        <time>2021-02-28T13:48:10Z</time>
      </trkpt>
      <trkpt lat="43.57752" lon="3.73525">
        <ele>95</ele>
        <time>2021-02-28T13:48:11Z</time>
      </trkpt>
      <trkpt lat="43.5775" lon="3.73522">
        <ele>95</ele>
        <time>2021-02-28T13:48:12Z</time>
      </trkpt>
      <trkpt lat="43.57748" lon="3.7352">
        <ele>95</ele>
        <time>2021-02-28T13:48:13Z</time>
      </trkpt>
      <trkpt lat="43.57746" lon="3.73518">
        <ele>95</ele>
        <time>2021-02-28T13:48:14Z</time>
      </trkpt>
      <trkpt lat="43.57744" lon="3.73516">
        <ele>95</ele>
        <time>2021-02-28T13:48:15Z</time>
      </trkpt>
      <trkpt lat="43.57742" lon="3.73514">
        <ele>95</ele>
        <time>2021-02-28T13:48:16Z</time>
      </trkpt>
      <trkpt lat="43.57741" lon="3.73511">
        <ele>95</ele>
        <time>2021-02-28T13:48:17Z</time>
      </trkpt>
      <trkpt lat="43.57739" lon="3.73509">
        <ele>95</ele>
        <time>2021-02-28T13:48:18Z</time>
      </trkpt>
      <trkpt lat="43.57737" lon="3.73507">
        <ele>95</ele>
        <time>2021-02-28T13:48:19Z</time>
      </trkpt>
      <trkpt lat="43.57734" lon="3.73505">
        <ele>95</ele>
        <time>2021-02-28T13:48:20Z</time>
      </trkpt>
      <trkpt lat="43.57732" lon="3.73503">
        <ele>95</ele>
        <time>2021-02-28T13:48:21Z</time>
      </trkpt>
      <trkpt lat="43.5773" lon="3.73503">
        <ele>95</ele>
        <time>2021-02-28T13:48:22Z</time>
      </trkpt>
      <trkpt lat="43.57727" lon="3.73503">
        <ele>95</ele>
        <time>2021-02-28T13:48:23Z</time>
      </trkpt>
      <trkpt lat="43.57725" lon="3.73503">
        <ele>95</ele>
        <time>2021-02-28T13:48:24Z</time>
      </trkpt>
      <trkpt lat="43.57723" lon="3.73503">
        <ele>96</ele>
        <time>2021-02-28T13:48:25Z</time>
      </trkpt>
      <trkpt lat="43.57721" lon="3.73503">
        <ele>96</ele>
        <time>2021-02-28T13:48:26Z</time>
      </trkpt>
      <trkpt lat="43.57719" lon="3.73502">
        <ele>96</ele>
        <time>2021-02-28T13:48:27Z</time>
      </trkpt>
      <trkpt lat="43.57717" lon="3.735">
        <ele>96</ele>
        <time>2021-02-28T13:48:28Z</time>
      </trkpt>
      <trkpt lat="43.57715" lon="3.73499">
        <ele>96</ele>
        <time>2021-02-28T13:48:29Z</time>
      </trkpt>
      <trkpt lat="43.57713" lon="3.73498">
        <ele>96</ele>
        <time>2021-02-28T13:48:30Z</time>
      </trkpt>
      <trkpt lat="43.57711" lon="3.73497">
        <ele>96</ele>
        <time>2021-02-28T13:48:31Z</time>
      </trkpt>
      <trkpt lat="43.57708" lon="3.73497">
        <ele>96</ele>
        <time>2021-02-28T13:48:32Z</time>
      </trkpt>
      <trkpt lat="43.57706" lon="3.73497">
        <ele>96</ele>
        <time>2021-02-28T13:48:33Z</time>
      </trkpt>
      <trkpt lat="43.57703" lon="3.73496">
        <ele>96</ele>
        <time>2021-02-28T13:48:34Z</time>
      </trkpt>
      <trkpt lat="43.57701" lon="3.73495">
        <ele>96</ele>
        <time>2021-02-28T13:48:35Z</time>
      </trkpt>
      <trkpt lat="43.57699" lon="3.73493">
        <ele>96</ele>
        <time>2021-02-28T13:48:36Z</time>
      </trkpt>
      <trkpt lat="43.57698" lon="3.73492">
        <ele>96</ele>
        <time>2021-02-28T13:48:37Z</time>
      </trkpt>
      <trkpt lat="43.57696" lon="3.7349">
        <ele>96</ele>
        <time>2021-02-28T13:48:38Z</time>
      </trkpt>
      <trkpt lat="43.57695" lon="3.73488">
        <ele>96</ele>
        <time>2021-02-28T13:48:39Z</time>
      </trkpt>
      <trkpt lat="43.57693" lon="3.73486">
        <ele>96</ele>
        <time>2021-02-28T13:48:40Z</time>
      </trkpt>
      <trkpt lat="43.57692" lon="3.73484">
        <ele>96</ele>
        <time>2021-02-28T13:48:41Z</time>
      </trkpt>
      <trkpt lat="43.57691" lon="3.73481">
        <ele>96</ele>
        <time>2021-02-28T13:48:42Z</time>
      </trkpt>
      <trkpt lat="43.57689" lon="3.73478">
        <ele>96</ele>
        <time>2021-02-28T13:48:43Z</time>
      </trkpt>
      <trkpt lat="43.57688" lon="3.73476">
        <ele>96</ele>
        <time>2021-02-28T13:48:44Z</time>
      </trkpt>
      <trkpt lat="43.57687" lon="3.73473">
        <ele>96</ele>
        <time>2021-02-28T13:48:45Z</time>
      </trkpt>
      <trkpt lat="43.57686" lon="3.73471">
        <ele>96</ele>
        <time>2021-02-28T13:48:46Z</time>
      </trkpt>
      <trkpt lat="43.57684" lon="3.73469">
        <ele>96</ele>
        <time>2021-02-28T13:48:47Z</time>
      </trkpt>
      <trkpt lat="43.57683" lon="3.73466">
        <ele>96</ele>
        <time>2021-02-28T13:48:48Z</time>
      </trkpt>
      <trkpt lat="43.57681" lon="3.73464">
        <ele>96</ele>
        <time>2021-02-28T13:48:49Z</time>
      </trkpt>
      <trkpt lat="43.5768" lon="3.73461">
        <ele>96</ele>
        <time>2021-02-28T13:48:50Z</time>
      </trkpt>
      <trkpt lat="43.57679" lon="3.73459">
        <ele>96</ele>
        <time>2021-02-28T13:48:51Z</time>
      </trkpt>
      <trkpt lat="43.57679" lon="3.73456">
        <ele>96</ele>
        <time>2021-02-28T13:48:52Z</time>
      </trkpt>
      <trkpt lat="43.57679" lon="3.73453">
        <ele>96</ele>
        <time>2021-02-28T13:48:53Z</time>
      </trkpt>
      <trkpt lat="43.57678" lon="3.73451">
        <ele>96</ele>
        <time>2021-02-28T13:48:54Z</time>
      </trkpt>
      <trkpt lat="43.57678" lon="3.73448">
        <ele>97</ele>
        <time>2021-02-28T13:48:55Z</time>
      </trkpt>
      <trkpt lat="43.57678" lon="3.73445">
        <ele>97</ele>
        <time>2021-02-28T13:48:56Z</time>
      </trkpt>
      <trkpt lat="43.57678" lon="3.73442">
        <ele>97</ele>
        <time>2021-02-28T13:48:57Z</time>
      </trkpt>
      <trkpt lat="43.57678" lon="3.7344">
        <ele>97</ele>
        <time>2021-02-28T13:48:58Z</time>
      </trkpt>
      <trkpt lat="43.57678" lon="3.73437">
        <ele>97</ele>
        <time>2021-02-28T13:48:59Z</time>
      </trkpt>
      <trkpt lat="43.57679" lon="3.73434">
        <ele>97</ele>
        <time>2021-02-28T13:49:00Z</time>
      </trkpt>
      <trkpt lat="43.57679" lon="3.73432">
        <ele>97</ele>
        <time>2021-02-28T13:49:01Z</time>
      </trkpt>
      <trkpt lat="43.57679" lon="3.73429">
        <ele>97</ele>
        <time>2021-02-28T13:49:02Z</time>
      </trkpt>
      <trkpt lat="43.5768" lon="3.73426">
        <ele>97</ele>
        <time>2021-02-28T13:49:03Z</time>
      </trkpt>
      <trkpt lat="43.57681" lon="3.73421">
        <ele>98</ele>
        <time>2021-02-28T13:49:05Z</time>
      </trkpt>
      <trkpt lat="43.57682" lon="3.73418">
        <ele>98</ele>
        <time>2021-02-28T13:49:06Z</time>
      </trkpt>
      <trkpt lat="43.57683" lon="3.73416">
        <ele>98</ele>
        <time>2021-02-28T13:49:07Z</time>
      </trkpt>
      <trkpt lat="43.57684" lon="3.73414">
        <ele>98</ele>
        <time>2021-02-28T13:49:08Z</time>
      </trkpt>
      <trkpt lat="43.57685" lon="3.73412">
        <ele>98</ele>
        <time>2021-02-28T13:49:09Z</time>
      </trkpt>
      <trkpt lat="43.57687" lon="3.73408">
        <ele>98</ele>
        <time>2021-02-28T13:49:11Z</time>
      </trkpt>
      <trkpt lat="43.5769" lon="3.73405">
        <ele>98</ele>
        <time>2021-02-28T13:49:13Z</time>
      </trkpt>
      <trkpt lat="43.57692" lon="3.73403">
        <ele>99</ele>
        <time>2021-02-28T13:49:15Z</time>
      </trkpt>
      <trkpt lat="43.57695" lon="3.73399">
        <ele>99</ele>
        <time>2021-02-28T13:49:17Z</time>
      </trkpt>
      <trkpt lat="43.57696" lon="3.73396">
        <ele>99</ele>
        <time>2021-02-28T13:49:19Z</time>
      </trkpt>
      <trkpt lat="43.57696" lon="3.73392">
        <ele>99</ele>
        <time>2021-02-28T13:49:21Z</time>
      </trkpt>
      <trkpt lat="43.57696" lon="3.73388">
        <ele>99</ele>
        <time>2021-02-28T13:49:23Z</time>
      </trkpt>
      <trkpt lat="43.57695" lon="3.73384">
        <ele>101</ele>
        <time>2021-02-28T13:49:25Z</time>
      </trkpt>
      <trkpt lat="43.57693" lon="3.7338">
        <ele>101</ele>
        <time>2021-02-28T13:49:27Z</time>
      </trkpt>
      <trkpt lat="43.57692" lon="3.73375">
        <ele>101</ele>
        <time>2021-02-28T13:49:29Z</time>
      </trkpt>
      <trkpt lat="43.57692" lon="3.73372">
        <ele>101</ele>
        <time>2021-02-28T13:49:30Z</time>
      </trkpt>
      <trkpt lat="43.57691" lon="3.73369">
        <ele>101</ele>
        <time>2021-02-28T13:49:31Z</time>
      </trkpt>
      <trkpt lat="43.57691" lon="3.73366">
        <ele>101</ele>
        <time>2021-02-28T13:49:32Z</time>
      </trkpt>
      <trkpt lat="43.5769" lon="3.73362">
        <ele>101</ele>
        <time>2021-02-28T13:49:33Z</time>
      </trkpt>
      <trkpt lat="43.57688" lon="3.73359">
        <ele>101</ele>
        <time>2021-02-28T13:49:34Z</time>
      </trkpt>
      <trkpt lat="43.57687" lon="3.73356">
        <ele>102</ele>
        <time>2021-02-28T13:49:35Z</time>
      </trkpt>
      <trkpt lat="43.57686" lon="3.73352">
        <ele>102</ele>
        <time>2021-02-28T13:49:36Z</time>
      </trkpt>
      <trkpt lat="43.57685" lon="3.73348">
        <ele>102</ele>
        <time>2021-02-28T13:49:37Z</time>
      </trkpt>
      <trkpt lat="43.57684" lon="3.73345">
        <ele>102</ele>
        <time>2021-02-28T13:49:38Z</time>
      </trkpt>
      <trkpt lat="43.57684" lon="3.73341">
        <ele>102</ele>
        <time>2021-02-28T13:49:39Z</time>
      </trkpt>
      <trkpt lat="43.57682" lon="3.73337">
        <ele>102</ele>
        <time>2021-02-28T13:49:40Z</time>
      </trkpt>
      <trkpt lat="43.57681" lon="3.73334">
        <ele>102</ele>
        <time>2021-02-28T13:49:41Z</time>
      </trkpt>
      <trkpt lat="43.5768" lon="3.7333">
        <ele>102</ele>
        <time>2021-02-28T13:49:42Z</time>
      </trkpt>
      <trkpt lat="43.57679" lon="3.73326">
        <ele>102</ele>
        <time>2021-02-28T13:49:43Z</time>
      </trkpt>
      <trkpt lat="43.57679" lon="3.73322">
        <ele>102</ele>
        <time>2021-02-28T13:49:44Z</time>
      </trkpt>
      <trkpt lat="43.5768" lon="3.73319">
        <ele>102</ele>
        <time>2021-02-28T13:49:45Z</time>
      </trkpt>
      <trkpt lat="43.57681" lon="3.73316">
        <ele>102</ele>
        <time>2021-02-28T13:49:46Z</time>
      </trkpt>
      <trkpt lat="43.57683" lon="3.73313">
        <ele>102</ele>
        <time>2021-02-28T13:49:47Z</time>
      </trkpt>
      <trkpt lat="43.57684" lon="3.7331">
        <ele>102</ele>
        <time>2021-02-28T13:49:48Z</time>
      </trkpt>
      <trkpt lat="43.57686" lon="3.73307">
        <ele>102</ele>
        <time>2021-02-28T13:49:49Z</time>
      </trkpt>
      <trkpt lat="43.57687" lon="3.73305">
        <ele>102</ele>
        <time>2021-02-28T13:49:50Z</time>
      </trkpt>
      <trkpt lat="43.57688" lon="3.73302">
        <ele>102</ele>
        <time>2021-02-28T13:49:51Z</time>
      </trkpt>
      <trkpt lat="43.57689" lon="3.733">
        <ele>102</ele>
        <time>2021-02-28T13:49:52Z</time>
      </trkpt>
      <trkpt lat="43.57691" lon="3.73298">
        <ele>102</ele>
        <time>2021-02-28T13:49:53Z</time>
      </trkpt>
      <trkpt lat="43.57692" lon="3.73295">
        <ele>102</ele>
        <time>2021-02-28T13:49:54Z</time>
      </trkpt>
      <trkpt lat="43.57694" lon="3.73293">
        <ele>103</ele>
        <time>2021-02-28T13:49:55Z</time>
      </trkpt>
      <trkpt lat="43.57695" lon="3.7329">
        <ele>103</ele>
        <time>2021-02-28T13:49:56Z</time>
      </trkpt>
      <trkpt lat="43.57697" lon="3.73288">
        <ele>103</ele>
        <time>2021-02-28T13:49:57Z</time>
      </trkpt>
      <trkpt lat="43.57698" lon="3.73286">
        <ele>103</ele>
        <time>2021-02-28T13:49:58Z</time>
      </trkpt>
      <trkpt lat="43.577" lon="3.73283">
        <ele>103</ele>
        <time>2021-02-28T13:49:59Z</time>
      </trkpt>
      <trkpt lat="43.57702" lon="3.73281">
        <ele>103</ele>
        <time>2021-02-28T13:50:00Z</time>
      </trkpt>
      <trkpt lat="43.57703" lon="3.73278">
        <ele>103</ele>
        <time>2021-02-28T13:50:01Z</time>
      </trkpt>
      <trkpt lat="43.57705" lon="3.73275">
        <ele>103</ele>
        <time>2021-02-28T13:50:02Z</time>
      </trkpt>
      <trkpt lat="43.57706" lon="3.73272">
        <ele>103</ele>
        <time>2021-02-28T13:50:03Z</time>
      </trkpt>
      <trkpt lat="43.57708" lon="3.73269">
        <ele>103</ele>
        <time>2021-02-28T13:50:04Z</time>
      </trkpt>
      <trkpt lat="43.5771" lon="3.73267">
        <ele>103</ele>
        <time>2021-02-28T13:50:05Z</time>
      </trkpt>
      <trkpt lat="43.57711" lon="3.73264">
        <ele>103</ele>
        <time>2021-02-28T13:50:06Z</time>
      </trkpt>
      <trkpt lat="43.57713" lon="3.73262">
        <ele>103</ele>
        <time>2021-02-28T13:50:07Z</time>
      </trkpt>
      <trkpt lat="43.57715" lon="3.73259">
        <ele>103</ele>
        <time>2021-02-28T13:50:08Z</time>
      </trkpt>
      <trkpt lat="43.57717" lon="3.73256">
        <ele>103</ele>
        <time>2021-02-28T13:50:09Z</time>
      </trkpt>
      <trkpt lat="43.57719" lon="3.73253">
        <ele>103</ele>
        <time>2021-02-28T13:50:10Z</time>
      </trkpt>
      <trkpt lat="43.57721" lon="3.73251">
        <ele>103</ele>
        <time>2021-02-28T13:50:11Z</time>
      </trkpt>
      <trkpt lat="43.57722" lon="3.73248">
        <ele>103</ele>
        <time>2021-02-28T13:50:12Z</time>
      </trkpt>
      <trkpt lat="43.57725" lon="3.73246">
        <ele>103</ele>
        <time>2021-02-28T13:50:13Z</time>
      </trkpt>
      <trkpt lat="43.57727" lon="3.73243">
        <ele>103</ele>
        <time>2021-02-28T13:50:14Z</time>
      </trkpt>
      <trkpt lat="43.57729" lon="3.73241">
        <ele>103</ele>
        <time>2021-02-28T13:50:15Z</time>
      </trkpt>
      <trkpt lat="43.57732" lon="3.73238">
        <ele>103</ele>
        <time>2021-02-28T13:50:16Z</time>
      </trkpt>
      <trkpt lat="43.57734" lon="3.73235">
        <ele>103</ele>
        <time>2021-02-28T13:50:17Z</time>
      </trkpt>
      <trkpt lat="43.57737" lon="3.73232">
        <ele>103</ele>
        <time>2021-02-28T13:50:18Z</time>
      </trkpt>
      <trkpt lat="43.5774" lon="3.73229">
        <ele>103</ele>
        <time>2021-02-28T13:50:19Z</time>
      </trkpt>
      <trkpt lat="43.57743" lon="3.73226">
        <ele>103</ele>
        <time>2021-02-28T13:50:20Z</time>
      </trkpt>
      <trkpt lat="43.57746" lon="3.73222">
        <ele>103</ele>
        <time>2021-02-28T13:50:21Z</time>
      </trkpt>
      <trkpt lat="43.57749" lon="3.73219">
        <ele>103</ele>
        <time>2021-02-28T13:50:22Z</time>
      </trkpt>
      <trkpt lat="43.57752" lon="3.73215">
        <ele>103</ele>
        <time>2021-02-28T13:50:23Z</time>
      </trkpt>
      <trkpt lat="43.57755" lon="3.73211">
        <ele>103</ele>
        <time>2021-02-28T13:50:24Z</time>
      </trkpt>
      <trkpt lat="43.57758" lon="3.73207">
        <ele>102</ele>
        <time>2021-02-28T13:50:25Z</time>
      </trkpt>
      <trkpt lat="43.5776" lon="3.73204">
        <ele>102</ele>
        <time>2021-02-28T13:50:26Z</time>
      </trkpt>
      <trkpt lat="43.57761" lon="3.732">
        <ele>102</ele>
        <time>2021-02-28T13:50:27Z</time>
      </trkpt>
      <trkpt lat="43.57763" lon="3.73198">
        <ele>102</ele>
        <time>2021-02-28T13:50:28Z</time>
      </trkpt>
      <trkpt lat="43.57765" lon="3.73198">
        <ele>102</ele>
        <time>2021-02-28T13:50:29Z</time>
      </trkpt>
      <trkpt lat="43.57767" lon="3.73197">
        <ele>102</ele>
        <time>2021-02-28T13:50:30Z</time>
      </trkpt>
      <trkpt lat="43.57769" lon="3.73196">
        <ele>102</ele>
        <time>2021-02-28T13:50:31Z</time>
      </trkpt>
      <trkpt lat="43.57771" lon="3.73195">
        <ele>102</ele>
        <time>2021-02-28T13:50:32Z</time>
      </trkpt>
      <trkpt lat="43.57773" lon="3.73193">
        <ele>102</ele>
        <time>2021-02-28T13:50:33Z</time>
      </trkpt>
      <trkpt lat="43.57776" lon="3.73191">
        <ele>102</ele>
        <time>2021-02-28T13:50:34Z</time>
      </trkpt>
      <trkpt lat="43.57778" lon="3.73187">
        <ele>102</ele>
        <time>2021-02-28T13:50:35Z</time>
      </trkpt>
      <trkpt lat="43.5778" lon="3.73184">
        <ele>102</ele>
        <time>2021-02-28T13:50:36Z</time>
      </trkpt>
      <trkpt lat="43.57782" lon="3.73179">
        <ele>102</ele>
        <time>2021-02-28T13:50:37Z</time>
      </trkpt>
      <trkpt lat="43.57784" lon="3.73174">
        <ele>102</ele>
        <time>2021-02-28T13:50:38Z</time>
      </trkpt>
      <trkpt lat="43.57787" lon="3.7317">
        <ele>102</ele>
        <time>2021-02-28T13:50:39Z</time>
      </trkpt>
      <trkpt lat="43.57789" lon="3.73165">
        <ele>102</ele>
        <time>2021-02-28T13:50:40Z</time>
      </trkpt>
      <trkpt lat="43.57791" lon="3.7316">
        <ele>102</ele>
        <time>2021-02-28T13:50:41Z</time>
      </trkpt>
      <trkpt lat="43.57794" lon="3.73154">
        <ele>102</ele>
        <time>2021-02-28T13:50:42Z</time>
      </trkpt>
      <trkpt lat="43.57796" lon="3.7315">
        <ele>102</ele>
        <time>2021-02-28T13:50:43Z</time>
      </trkpt>
      <trkpt lat="43.57798" lon="3.73147">
        <ele>102</ele>
        <time>2021-02-28T13:50:44Z</time>
      </trkpt>
      <trkpt lat="43.57798" lon="3.73142">
        <ele>102</ele>
        <time>2021-02-28T13:50:47Z</time>
      </trkpt>
      <trkpt lat="43.57797" lon="3.73139">
        <ele>102</ele>
        <time>2021-02-28T13:50:48Z</time>
      </trkpt>
      <trkpt lat="43.57794" lon="3.73136">
        <ele>102</ele>
        <time>2021-02-28T13:50:49Z</time>
      </trkpt>
      <trkpt lat="43.57793" lon="3.73132">
        <ele>102</ele>
        <time>2021-02-28T13:50:50Z</time>
      </trkpt>
      <trkpt lat="43.57792" lon="3.73127">
        <ele>102</ele>
        <time>2021-02-28T13:50:51Z</time>
      </trkpt>
      <trkpt lat="43.57791" lon="3.73122">
        <ele>102</ele>
        <time>2021-02-28T13:50:52Z</time>
      </trkpt>
      <trkpt lat="43.5779" lon="3.73116">
        <ele>102</ele>
        <time>2021-02-28T13:50:53Z</time>
      </trkpt>
      <trkpt lat="43.5779" lon="3.73111">
        <ele>102</ele>
        <time>2021-02-28T13:50:54Z</time>
      </trkpt>
      <trkpt lat="43.57789" lon="3.73105">
        <ele>99</ele>
        <time>2021-02-28T13:50:55Z</time>
      </trkpt>
      <trkpt lat="43.57788" lon="3.73099">
        <ele>99</ele>
        <time>2021-02-28T13:50:56Z</time>
      </trkpt>
      <trkpt lat="43.57788" lon="3.73093">
        <ele>99</ele>
        <time>2021-02-28T13:50:57Z</time>
      </trkpt>
      <trkpt lat="43.57787" lon="3.73087">
        <ele>99</ele>
        <time>2021-02-28T13:50:58Z</time>
      </trkpt>
      <trkpt lat="43.57787" lon="3.73081">
        <ele>99</ele>
        <time>2021-02-28T13:50:59Z</time>
      </trkpt>
      <trkpt lat="43.57786" lon="3.73076">
        <ele>99</ele>
        <time>2021-02-28T13:51:00Z</time>
      </trkpt>
      <trkpt lat="43.57786" lon="3.73072">
        <ele>99</ele>
        <time>2021-02-28T13:51:01Z</time>
      </trkpt>
      <trkpt lat="43.57785" lon="3.73068">
        <ele>99</ele>
        <time>2021-02-28T13:51:02Z</time>
      </trkpt>
      <trkpt lat="43.57785" lon="3.73064">
        <ele>99</ele>
        <time>2021-02-28T13:51:03Z</time>
      </trkpt>
      <trkpt lat="43.57784" lon="3.7306">
        <ele>99</ele>
        <time>2021-02-28T13:51:04Z</time>
      </trkpt>
      <trkpt lat="43.57783" lon="3.73056">
        <ele>98</ele>
        <time>2021-02-28T13:51:05Z</time>
      </trkpt>
      <trkpt lat="43.57781" lon="3.73052">
        <ele>98</ele>
        <time>2021-02-28T13:51:06Z</time>
      </trkpt>
      <trkpt lat="43.5778" lon="3.73048">
        <ele>98</ele>
        <time>2021-02-28T13:51:07Z</time>
      </trkpt>
      <trkpt lat="43.57777" lon="3.73045">
        <ele>98</ele>
        <time>2021-02-28T13:51:08Z</time>
      </trkpt>
      <trkpt lat="43.57775" lon="3.73042">
        <ele>98</ele>
        <time>2021-02-28T13:51:09Z</time>
      </trkpt>
      <trkpt lat="43.57772" lon="3.73038">
        <ele>98</ele>
        <time>2021-02-28T13:51:10Z</time>
      </trkpt>
      <trkpt lat="43.57769" lon="3.73035">
        <ele>98</ele>
        <time>2021-02-28T13:51:11Z</time>
      </trkpt>
      <trkpt lat="43.57767" lon="3.73032">
        <ele>98</ele>
        <time>2021-02-28T13:51:12Z</time>
      </trkpt>
      <trkpt lat="43.57765" lon="3.73027">
        <ele>98</ele>
        <time>2021-02-28T13:51:13Z</time>
      </trkpt>
      <trkpt lat="43.57763" lon="3.73023">
        <ele>98</ele>
        <time>2021-02-28T13:51:14Z</time>
      </trkpt>
      <trkpt lat="43.57762" lon="3.73018">
        <ele>97</ele>
        <time>2021-02-28T13:51:15Z</time>
      </trkpt>
      <trkpt lat="43.5776" lon="3.73014">
        <ele>97</ele>
        <time>2021-02-28T13:51:16Z</time>
      </trkpt>
      <trkpt lat="43.57754" lon="3.73008">
        <ele>97</ele>
        <time>2021-02-28T13:51:18Z</time>
      </trkpt>
      <trkpt lat="43.57751" lon="3.73004">
        <ele>97</ele>
        <time>2021-02-28T13:51:19Z</time>
      </trkpt>
      <trkpt lat="43.57748" lon="3.73001">
        <ele>97</ele>
        <time>2021-02-28T13:51:20Z</time>
      </trkpt>
      <trkpt lat="43.57745" lon="3.72998">
        <ele>97</ele>
        <time>2021-02-28T13:51:21Z</time>
      </trkpt>
      <trkpt lat="43.57742" lon="3.72995">
        <ele>97</ele>
        <time>2021-02-28T13:51:22Z</time>
      </trkpt>
      <trkpt lat="43.57739" lon="3.72991">
        <ele>97</ele>
        <time>2021-02-28T13:51:23Z</time>
      </trkpt>
      <trkpt lat="43.57736" lon="3.72988">
        <ele>97</ele>
        <time>2021-02-28T13:51:24Z</time>
      </trkpt>
      <trkpt lat="43.57733" lon="3.72985">
        <ele>97</ele>
        <time>2021-02-28T13:51:25Z</time>
      </trkpt>
      <trkpt lat="43.5773" lon="3.72981">
        <ele>97</ele>
        <time>2021-02-28T13:51:26Z</time>
      </trkpt>
      <trkpt lat="43.57727" lon="3.72977">
        <ele>97</ele>
        <time>2021-02-28T13:51:27Z</time>
      </trkpt>
      <trkpt lat="43.57724" lon="3.72973">
        <ele>97</ele>
        <time>2021-02-28T13:51:28Z</time>
      </trkpt>
      <trkpt lat="43.57721" lon="3.72969">
        <ele>97</ele>
        <time>2021-02-28T13:51:29Z</time>
      </trkpt>
      <trkpt lat="43.57716" lon="3.7296">
        <ele>97</ele>
        <time>2021-02-28T13:51:31Z</time>
      </trkpt>
      <trkpt lat="43.57713" lon="3.72956">
        <ele>97</ele>
        <time>2021-02-28T13:51:32Z</time>
      </trkpt>
      <trkpt lat="43.57711" lon="3.72951">
        <ele>97</ele>
        <time>2021-02-28T13:51:33Z</time>
      </trkpt>
      <trkpt lat="43.57709" lon="3.72947">
        <ele>97</ele>
        <time>2021-02-28T13:51:34Z</time>
      </trkpt>
      <trkpt lat="43.57706" lon="3.72943">
        <ele>95</ele>
        <time>2021-02-28T13:51:35Z</time>
      </trkpt>
      <trkpt lat="43.57703" lon="3.72939">
        <ele>95</ele>
        <time>2021-02-28T13:51:36Z</time>
      </trkpt>
      <trkpt lat="43.577" lon="3.72934">
        <ele>95</ele>
        <time>2021-02-28T13:51:37Z</time>
      </trkpt>
      <trkpt lat="43.57698" lon="3.7293">
        <ele>95</ele>
        <time>2021-02-28T13:51:38Z</time>
      </trkpt>
      <trkpt lat="43.57695" lon="3.72925">
        <ele>95</ele>
        <time>2021-02-28T13:51:39Z</time>
      </trkpt>
      <trkpt lat="43.57691" lon="3.72922">
        <ele>95</ele>
        <time>2021-02-28T13:51:40Z</time>
      </trkpt>
      <trkpt lat="43.57687" lon="3.72919">
        <ele>95</ele>
        <time>2021-02-28T13:51:41Z</time>
      </trkpt>
      <trkpt lat="43.57684" lon="3.72916">
        <ele>95</ele>
        <time>2021-02-28T13:51:42Z</time>
      </trkpt>
      <trkpt lat="43.5768" lon="3.72913">
        <ele>95</ele>
        <time>2021-02-28T13:51:43Z</time>
      </trkpt>
      <trkpt lat="43.57677" lon="3.7291">
        <ele>95</ele>
        <time>2021-02-28T13:51:44Z</time>
      </trkpt>
      <trkpt lat="43.57673" lon="3.72907">
        <ele>94</ele>
        <time>2021-02-28T13:51:45Z</time>
      </trkpt>
      <trkpt lat="43.5767" lon="3.72904">
        <ele>94</ele>
        <time>2021-02-28T13:51:46Z</time>
      </trkpt>
      <trkpt lat="43.57667" lon="3.72902">
        <ele>94</ele>
        <time>2021-02-28T13:51:47Z</time>
      </trkpt>
      <trkpt lat="43.57665" lon="3.72899">
        <ele>94</ele>
        <time>2021-02-28T13:51:48Z</time>
      </trkpt>
      <trkpt lat="43.57662" lon="3.72896">
        <ele>94</ele>
        <time>2021-02-28T13:51:49Z</time>
      </trkpt>
      <trkpt lat="43.5766" lon="3.72892">
        <ele>94</ele>
        <time>2021-02-28T13:51:50Z</time>
      </trkpt>
      <trkpt lat="43.57657" lon="3.72888">
        <ele>94</ele>
        <time>2021-02-28T13:51:51Z</time>
      </trkpt>
      <trkpt lat="43.57654" lon="3.72885">
        <ele>94</ele>
        <time>2021-02-28T13:51:52Z</time>
      </trkpt>
      <trkpt lat="43.57652" lon="3.7288">
        <ele>94</ele>
        <time>2021-02-28T13:51:53Z</time>
      </trkpt>
      <trkpt lat="43.57649" lon="3.72876">
        <ele>94</ele>
        <time>2021-02-28T13:51:54Z</time>
      </trkpt>
      <trkpt lat="43.57647" lon="3.72872">
        <ele>92</ele>
        <time>2021-02-28T13:51:55Z</time>
      </trkpt>
      <trkpt lat="43.57644" lon="3.72868">
        <ele>92</ele>
        <time>2021-02-28T13:51:56Z</time>
      </trkpt>
      <trkpt lat="43.5764" lon="3.7286">
        <ele>92</ele>
        <time>2021-02-28T13:51:58Z</time>
      </trkpt>
      <trkpt lat="43.57639" lon="3.72856">
        <ele>92</ele>
        <time>2021-02-28T13:51:59Z</time>
      </trkpt>
      <trkpt lat="43.5764" lon="3.72852">
        <ele>92</ele>
        <time>2021-02-28T13:52:00Z</time>
      </trkpt>
      <trkpt lat="43.5764" lon="3.72848">
        <ele>92</ele>
        <time>2021-02-28T13:52:01Z</time>
      </trkpt>
      <trkpt lat="43.57641" lon="3.72845">
        <ele>92</ele>
        <time>2021-02-28T13:52:02Z</time>
      </trkpt>
      <trkpt lat="43.5764" lon="3.72841">
        <ele>92</ele>
        <time>2021-02-28T13:52:03Z</time>
      </trkpt>
      <trkpt lat="43.5764" lon="3.72836">
        <ele>92</ele>
        <time>2021-02-28T13:52:04Z</time>
      </trkpt>
      <trkpt lat="43.5764" lon="3.72832">
        <ele>89</ele>
        <time>2021-02-28T13:52:05Z</time>
      </trkpt>
      <trkpt lat="43.5764" lon="3.72829">
        <ele>89</ele>
        <time>2021-02-28T13:52:06Z</time>
      </trkpt>
      <trkpt lat="43.5764" lon="3.72825">
        <ele>89</ele>
        <time>2021-02-28T13:52:07Z</time>
      </trkpt>
      <trkpt lat="43.57638" lon="3.72822">
        <ele>89</ele>
        <time>2021-02-28T13:52:08Z</time>
      </trkpt>
      <trkpt lat="43.57636" lon="3.72819">
        <ele>89</ele>
        <time>2021-02-28T13:52:09Z</time>
      </trkpt>
      <trkpt lat="43.57633" lon="3.72816">
        <ele>89</ele>
        <time>2021-02-28T13:52:10Z</time>
      </trkpt>
      <trkpt lat="43.57629" lon="3.72811">
        <ele>89</ele>
        <time>2021-02-28T13:52:11Z</time>
      </trkpt>
      <trkpt lat="43.57626" lon="3.72807">
        <ele>89</ele>
        <time>2021-02-28T13:52:12Z</time>
      </trkpt>
      <trkpt lat="43.57621" lon="3.72799">
        <ele>89</ele>
        <time>2021-02-28T13:52:14Z</time>
      </trkpt>
      <trkpt lat="43.57617" lon="3.72794">
        <ele>86</ele>
        <time>2021-02-28T13:52:15Z</time>
      </trkpt>
      <trkpt lat="43.57613" lon="3.72788">
        <ele>86</ele>
        <time>2021-02-28T13:52:16Z</time>
      </trkpt>
      <trkpt lat="43.57609" lon="3.72785">
        <ele>86</ele>
        <time>2021-02-28T13:52:17Z</time>
      </trkpt>
      <trkpt lat="43.57604" lon="3.72784">
        <ele>86</ele>
        <time>2021-02-28T13:52:18Z</time>
      </trkpt>
      <trkpt lat="43.576" lon="3.72782">
        <ele>86</ele>
        <time>2021-02-28T13:52:19Z</time>
      </trkpt>
      <trkpt lat="43.57596" lon="3.7278">
        <ele>86</ele>
        <time>2021-02-28T13:52:20Z</time>
      </trkpt>
      <trkpt lat="43.57592" lon="3.72777">
        <ele>86</ele>
        <time>2021-02-28T13:52:21Z</time>
      </trkpt>
      <trkpt lat="43.57588" lon="3.72774">
        <ele>86</ele>
        <time>2021-02-28T13:52:22Z</time>
      </trkpt>
      <trkpt lat="43.57585" lon="3.72771">
        <ele>86</ele>
        <time>2021-02-28T13:52:23Z</time>
      </trkpt>
      <trkpt lat="43.57581" lon="3.72768">
        <ele>86</ele>
        <time>2021-02-28T13:52:24Z</time>
      </trkpt>
      <trkpt lat="43.57577" lon="3.72764">
        <ele>82</ele>
        <time>2021-02-28T13:52:25Z</time>
      </trkpt>
      <trkpt lat="43.57573" lon="3.7276">
        <ele>82</ele>
        <time>2021-02-28T13:52:26Z</time>
      </trkpt>
      <trkpt lat="43.57569" lon="3.72757">
        <ele>82</ele>
        <time>2021-02-28T13:52:27Z</time>
      </trkpt>
      <trkpt lat="43.57564" lon="3.72754">
        <ele>82</ele>
        <time>2021-02-28T13:52:28Z</time>
      </trkpt>
      <trkpt lat="43.5756" lon="3.72751">
        <ele>82</ele>
        <time>2021-02-28T13:52:29Z</time>
      </trkpt>
      <trkpt lat="43.57556" lon="3.72748">
        <ele>82</ele>
        <time>2021-02-28T13:52:30Z</time>
      </trkpt>
      <trkpt lat="43.57551" lon="3.72744">
        <ele>82</ele>
        <time>2021-02-28T13:52:31Z</time>
      </trkpt>
      <trkpt lat="43.57544" lon="3.72737">
        <ele>82</ele>
        <time>2021-02-28T13:52:33Z</time>
      </trkpt>
      <trkpt lat="43.57541" lon="3.72733">
        <ele>82</ele>
        <time>2021-02-28T13:52:34Z</time>
      </trkpt>
      <trkpt lat="43.5754" lon="3.72729">
        <ele>79</ele>
        <time>2021-02-28T13:52:35Z</time>
      </trkpt>
      <trkpt lat="43.57539" lon="3.72726">
        <ele>79</ele>
        <time>2021-02-28T13:52:36Z</time>
      </trkpt>
      <trkpt lat="43.57538" lon="3.72724">
        <ele>79</ele>
        <time>2021-02-28T13:52:37Z</time>
      </trkpt>
      <trkpt lat="43.57537" lon="3.72721">
        <ele>79</ele>
        <time>2021-02-28T13:52:39Z</time>
      </trkpt>
      <trkpt lat="43.57536" lon="3.72717">
        <ele>79</ele>
        <time>2021-02-28T13:52:41Z</time>
      </trkpt>
      <trkpt lat="43.57536" lon="3.72713">
        <ele>79</ele>
        <time>2021-02-28T13:52:43Z</time>
      </trkpt>
      <trkpt lat="43.57536" lon="3.7271">
        <ele>79</ele>
        <time>2021-02-28T13:52:44Z</time>
      </trkpt>
      <trkpt lat="43.57536" lon="3.72707">
        <ele>79</ele>
        <time>2021-02-28T13:52:45Z</time>
      </trkpt>
      <trkpt lat="43.57537" lon="3.72703">
        <ele>76</ele>
        <time>2021-02-28T13:52:46Z</time>
      </trkpt>
      <trkpt lat="43.57537" lon="3.72699">
        <ele>76</ele>
        <time>2021-02-28T13:52:47Z</time>
      </trkpt>
      <trkpt lat="43.57536" lon="3.72695">
        <ele>76</ele>
        <time>2021-02-28T13:52:48Z</time>
      </trkpt>
      <trkpt lat="43.57536" lon="3.7269">
        <ele>76</ele>
        <time>2021-02-28T13:52:49Z</time>
      </trkpt>
      <trkpt lat="43.57536" lon="3.72686">
        <ele>76</ele>
        <time>2021-02-28T13:52:50Z</time>
      </trkpt>
      <trkpt lat="43.57536" lon="3.72682">
        <ele>76</ele>
        <time>2021-02-28T13:52:51Z</time>
      </trkpt>
      <trkpt lat="43.57536" lon="3.72678">
        <ele>76</ele>
        <time>2021-02-28T13:52:52Z</time>
      </trkpt>
      <trkpt lat="43.57536" lon="3.72674">
        <ele>76</ele>
        <time>2021-02-28T13:52:53Z</time>
      </trkpt>
      <trkpt lat="43.57535" lon="3.72666">
        <ele>76</ele>
        <time>2021-02-28T13:52:55Z</time>
      </trkpt>
      <trkpt lat="43.57535" lon="3.72661">
        <ele>76</ele>
        <time>2021-02-28T13:52:56Z</time>
      </trkpt>
      <trkpt lat="43.57534" lon="3.72657">
        <ele>76</ele>
        <time>2021-02-28T13:52:57Z</time>
      </trkpt>
      <trkpt lat="43.57534" lon="3.72648">
        <ele>76</ele>
        <time>2021-02-28T13:52:59Z</time>
      </trkpt>
      <trkpt lat="43.57534" lon="3.72643">
        <ele>76</ele>
        <time>2021-02-28T13:53:00Z</time>
      </trkpt>
      <trkpt lat="43.57535" lon="3.72639">
        <ele>76</ele>
        <time>2021-02-28T13:53:01Z</time>
      </trkpt>
      <trkpt lat="43.57534" lon="3.7263">
        <ele>76</ele>
        <time>2021-02-28T13:53:03Z</time>
      </trkpt>
      <trkpt lat="43.57534" lon="3.72625">
        <ele>76</ele>
        <time>2021-02-28T13:53:04Z</time>
      </trkpt>
      <trkpt lat="43.57534" lon="3.72621">
        <ele>76</ele>
        <time>2021-02-28T13:53:05Z</time>
      </trkpt>
      <trkpt lat="43.57535" lon="3.72617">
        <ele>76</ele>
        <time>2021-02-28T13:53:06Z</time>
      </trkpt>
      <trkpt lat="43.57535" lon="3.72613">
        <ele>76</ele>
        <time>2021-02-28T13:53:07Z</time>
      </trkpt>
      <trkpt lat="43.57535" lon="3.7261">
        <ele>76</ele>
        <time>2021-02-28T13:53:08Z</time>
      </trkpt>
      <trkpt lat="43.57534" lon="3.72608">
        <ele>76</ele>
        <time>2021-02-28T13:53:09Z</time>
      </trkpt>
      <trkpt lat="43.57532" lon="3.72606">
        <ele>76</ele>
        <time>2021-02-28T13:53:10Z</time>
      </trkpt>
      <trkpt lat="43.5753" lon="3.72605">
        <ele>76</ele>
        <time>2021-02-28T13:53:11Z</time>
      </trkpt>
      <trkpt lat="43.57527" lon="3.72605">
        <ele>76</ele>
        <time>2021-02-28T13:53:12Z</time>
      </trkpt>
      <trkpt lat="43.57524" lon="3.72603">
        <ele>76</ele>
        <time>2021-02-28T13:53:13Z</time>
      </trkpt>
      <trkpt lat="43.57521" lon="3.72602">
        <ele>76</ele>
        <time>2021-02-28T13:53:14Z</time>
      </trkpt>
      <trkpt lat="43.57519" lon="3.726">
        <ele>75</ele>
        <time>2021-02-28T13:53:15Z</time>
      </trkpt>
      <trkpt lat="43.57516" lon="3.72598">
        <ele>75</ele>
        <time>2021-02-28T13:53:16Z</time>
      </trkpt>
      <trkpt lat="43.57514" lon="3.72596">
        <ele>75</ele>
        <time>2021-02-28T13:53:17Z</time>
      </trkpt>
      <trkpt lat="43.57513" lon="3.72594">
        <ele>75</ele>
        <time>2021-02-28T13:53:18Z</time>
      </trkpt>
      <trkpt lat="43.57509" lon="3.72588">
        <ele>75</ele>
        <time>2021-02-28T13:53:20Z</time>
      </trkpt>
      <trkpt lat="43.57508" lon="3.72585">
        <ele>75</ele>
        <time>2021-02-28T13:53:21Z</time>
      </trkpt>
      <trkpt lat="43.57506" lon="3.72583">
        <ele>75</ele>
        <time>2021-02-28T13:53:22Z</time>
      </trkpt>
      <trkpt lat="43.57503" lon="3.72578">
        <ele>75</ele>
        <time>2021-02-28T13:53:24Z</time>
      </trkpt>
      <trkpt lat="43.57501" lon="3.72576">
        <ele>76</ele>
        <time>2021-02-28T13:53:25Z</time>
      </trkpt>
      <trkpt lat="43.57499" lon="3.72573">
        <ele>76</ele>
        <time>2021-02-28T13:53:26Z</time>
      </trkpt>
      <trkpt lat="43.57497" lon="3.72571">
        <ele>76</ele>
        <time>2021-02-28T13:53:27Z</time>
      </trkpt>
      <trkpt lat="43.57496" lon="3.72568">
        <ele>76</ele>
        <time>2021-02-28T13:53:28Z</time>
      </trkpt>
      <trkpt lat="43.57494" lon="3.72566">
        <ele>76</ele>
        <time>2021-02-28T13:53:29Z</time>
      </trkpt>
      <trkpt lat="43.57492" lon="3.72564">
        <ele>76</ele>
        <time>2021-02-28T13:53:30Z</time>
      </trkpt>
      <trkpt lat="43.5749" lon="3.72562">
        <ele>76</ele>
        <time>2021-02-28T13:53:31Z</time>
      </trkpt>
      <trkpt lat="43.57489" lon="3.72559">
        <ele>76</ele>
        <time>2021-02-28T13:53:32Z</time>
      </trkpt>
      <trkpt lat="43.57488" lon="3.72557">
        <ele>76</ele>
        <time>2021-02-28T13:53:33Z</time>
      </trkpt>
      <trkpt lat="43.57486" lon="3.72555">
        <ele>76</ele>
        <time>2021-02-28T13:53:34Z</time>
      </trkpt>
      <trkpt lat="43.57484" lon="3.72552">
        <ele>76</ele>
        <time>2021-02-28T13:53:36Z</time>
      </trkpt>
      <trkpt lat="43.57483" lon="3.7255">
        <ele>76</ele>
        <time>2021-02-28T13:53:37Z</time>
      </trkpt>
      <trkpt lat="43.57481" lon="3.72547">
        <ele>76</ele>
        <time>2021-02-28T13:53:38Z</time>
      </trkpt>
      <trkpt lat="43.57479" lon="3.72545">
        <ele>76</ele>
        <time>2021-02-28T13:53:39Z</time>
      </trkpt>
      <trkpt lat="43.57478" lon="3.72543">
        <ele>76</ele>
        <time>2021-02-28T13:53:40Z</time>
      </trkpt>
      <trkpt lat="43.57477" lon="3.72541">
        <ele>76</ele>
        <time>2021-02-28T13:53:41Z</time>
      </trkpt>
      <trkpt lat="43.57476" lon="3.72539">
        <ele>76</ele>
        <time>2021-02-28T13:53:42Z</time>
      </trkpt>
      <trkpt lat="43.57473" lon="3.72536">
        <ele>76</ele>
        <time>2021-02-28T13:53:44Z</time>
      </trkpt>
      <trkpt lat="43.5747" lon="3.72535">
        <ele>76</ele>
        <time>2021-02-28T13:53:46Z</time>
      </trkpt>
      <trkpt lat="43.57467" lon="3.72532">
        <ele>76</ele>
        <time>2021-02-28T13:53:48Z</time>
      </trkpt>
      <trkpt lat="43.57465" lon="3.7253">
        <ele>76</ele>
        <time>2021-02-28T13:53:49Z</time>
      </trkpt>
      <trkpt lat="43.57463" lon="3.72529">
        <ele>76</ele>
        <time>2021-02-28T13:53:50Z</time>
      </trkpt>
      <trkpt lat="43.57461" lon="3.72528">
        <ele>76</ele>
        <time>2021-02-28T13:53:51Z</time>
      </trkpt>
      <trkpt lat="43.57459" lon="3.72527">
        <ele>76</ele>
        <time>2021-02-28T13:53:52Z</time>
      </trkpt>
      <trkpt lat="43.57457" lon="3.72526">
        <ele>76</ele>
        <time>2021-02-28T13:53:53Z</time>
      </trkpt>
      <trkpt lat="43.57455" lon="3.72526">
        <ele>76</ele>
        <time>2021-02-28T13:53:54Z</time>
      </trkpt>
      <trkpt lat="43.57453" lon="3.72525">
        <ele>77</ele>
        <time>2021-02-28T13:53:55Z</time>
      </trkpt>
      <trkpt lat="43.57451" lon="3.72523">
        <ele>77</ele>
        <time>2021-02-28T13:53:56Z</time>
      </trkpt>
      <trkpt lat="43.57449" lon="3.72522">
        <ele>77</ele>
        <time>2021-02-28T13:53:57Z</time>
      </trkpt>
      <trkpt lat="43.57447" lon="3.7252">
        <ele>77</ele>
        <time>2021-02-28T13:53:58Z</time>
      </trkpt>
      <trkpt lat="43.57445" lon="3.72519">
        <ele>77</ele>
        <time>2021-02-28T13:53:59Z</time>
      </trkpt>
      <trkpt lat="43.57443" lon="3.72518">
        <ele>77</ele>
        <time>2021-02-28T13:54:00Z</time>
      </trkpt>
      <trkpt lat="43.57441" lon="3.72516">
        <ele>77</ele>
        <time>2021-02-28T13:54:01Z</time>
      </trkpt>
      <trkpt lat="43.5744" lon="3.72515">
        <ele>77</ele>
        <time>2021-02-28T13:54:02Z</time>
      </trkpt>
      <trkpt lat="43.57438" lon="3.72513">
        <ele>77</ele>
        <time>2021-02-28T13:54:03Z</time>
      </trkpt>
      <trkpt lat="43.57436" lon="3.72511">
        <ele>77</ele>
        <time>2021-02-28T13:54:04Z</time>
      </trkpt>
      <trkpt lat="43.57435" lon="3.7251">
        <ele>78</ele>
        <time>2021-02-28T13:54:05Z</time>
      </trkpt>
      <trkpt lat="43.57431" lon="3.72505">
        <ele>78</ele>
        <time>2021-02-28T13:54:08Z</time>
      </trkpt>
      <trkpt lat="43.57429" lon="3.72503">
        <ele>78</ele>
        <time>2021-02-28T13:54:09Z</time>
      </trkpt>
      <trkpt lat="43.57428" lon="3.72501">
        <ele>78</ele>
        <time>2021-02-28T13:54:10Z</time>
      </trkpt>
      <trkpt lat="43.57427" lon="3.72499">
        <ele>78</ele>
        <time>2021-02-28T13:54:11Z</time>
      </trkpt>
      <trkpt lat="43.57426" lon="3.72497">
        <ele>78</ele>
        <time>2021-02-28T13:54:12Z</time>
      </trkpt>
      <trkpt lat="43.57424" lon="3.72495">
        <ele>78</ele>
        <time>2021-02-28T13:54:13Z</time>
      </trkpt>
      <trkpt lat="43.57423" lon="3.72493">
        <ele>78</ele>
        <time>2021-02-28T13:54:14Z</time>
      </trkpt>
      <trkpt lat="43.57421" lon="3.72491">
        <ele>79</ele>
        <time>2021-02-28T13:54:15Z</time>
      </trkpt>
      <trkpt lat="43.5742" lon="3.72489">
        <ele>79</ele>
        <time>2021-02-28T13:54:16Z</time>
      </trkpt>
      <trkpt lat="43.57418" lon="3.72486">
        <ele>79</ele>
        <time>2021-02-28T13:54:17Z</time>
      </trkpt>
      <trkpt lat="43.57417" lon="3.72484">
        <ele>79</ele>
        <time>2021-02-28T13:54:18Z</time>
      </trkpt>
      <trkpt lat="43.57416" lon="3.72482">
        <ele>79</ele>
        <time>2021-02-28T13:54:19Z</time>
      </trkpt>
      <trkpt lat="43.57414" lon="3.7248">
        <ele>79</ele>
        <time>2021-02-28T13:54:20Z</time>
      </trkpt>
      <trkpt lat="43.57413" lon="3.72478">
        <ele>79</ele>
        <time>2021-02-28T13:54:21Z</time>
      </trkpt>
      <trkpt lat="43.57411" lon="3.72477">
        <ele>79</ele>
        <time>2021-02-28T13:54:22Z</time>
      </trkpt>
      <trkpt lat="43.5741" lon="3.72475">
        <ele>79</ele>
        <time>2021-02-28T13:54:23Z</time>
      </trkpt>
      <trkpt lat="43.57409" lon="3.72473">
        <ele>79</ele>
        <time>2021-02-28T13:54:24Z</time>
      </trkpt>
      <trkpt lat="43.57406" lon="3.7247">
        <ele>79</ele>
        <time>2021-02-28T13:54:26Z</time>
      </trkpt>
      <trkpt lat="43.57402" lon="3.72465">
        <ele>79</ele>
        <time>2021-02-28T13:54:28Z</time>
      </trkpt>
      <trkpt lat="43.57401" lon="3.72463">
        <ele>79</ele>
        <time>2021-02-28T13:54:29Z</time>
      </trkpt>
      <trkpt lat="43.57399" lon="3.72462">
        <ele>79</ele>
        <time>2021-02-28T13:54:30Z</time>
      </trkpt>
      <trkpt lat="43.57397" lon="3.72457">
        <ele>79</ele>
        <time>2021-02-28T13:54:32Z</time>
      </trkpt>
      <trkpt lat="43.57396" lon="3.72455">
        <ele>79</ele>
        <time>2021-02-28T13:54:33Z</time>
      </trkpt>
      <trkpt lat="43.57395" lon="3.72453">
        <ele>79</ele>
        <time>2021-02-28T13:54:34Z</time>
      </trkpt>
      <trkpt lat="43.57393" lon="3.7245">
        <ele>80</ele>
        <time>2021-02-28T13:54:35Z</time>
      </trkpt>
      <trkpt lat="43.57392" lon="3.72448">
        <ele>80</ele>
        <time>2021-02-28T13:54:36Z</time>
      </trkpt>
      <trkpt lat="43.5739" lon="3.72446">
        <ele>80</ele>
        <time>2021-02-28T13:54:37Z</time>
      </trkpt>
      <trkpt lat="43.57389" lon="3.72444">
        <ele>80</ele>
        <time>2021-02-28T13:54:38Z</time>
      </trkpt>
      <trkpt lat="43.57388" lon="3.72442">
        <ele>80</ele>
        <time>2021-02-28T13:54:39Z</time>
      </trkpt>
      <trkpt lat="43.57386" lon="3.72439">
        <ele>80</ele>
        <time>2021-02-28T13:54:40Z</time>
      </trkpt>
      <trkpt lat="43.57385" lon="3.72437">
        <ele>80</ele>
        <time>2021-02-28T13:54:41Z</time>
      </trkpt>
      <trkpt lat="43.57383" lon="3.72436">
        <ele>80</ele>
        <time>2021-02-28T13:54:42Z</time>
      </trkpt>
      <trkpt lat="43.57381" lon="3.72434">
        <ele>80</ele>
        <time>2021-02-28T13:54:43Z</time>
      </trkpt>
      <trkpt lat="43.5738" lon="3.72431">
        <ele>80</ele>
        <time>2021-02-28T13:54:44Z</time>
      </trkpt>
      <trkpt lat="43.57378" lon="3.72429">
        <ele>81</ele>
        <time>2021-02-28T13:54:45Z</time>
      </trkpt>
      <trkpt lat="43.57376" lon="3.72427">
        <ele>81</ele>
        <time>2021-02-28T13:54:46Z</time>
      </trkpt>
      <trkpt lat="43.57375" lon="3.72424">
        <ele>81</ele>
        <time>2021-02-28T13:54:47Z</time>
      </trkpt>
      <trkpt lat="43.57373" lon="3.72422">
        <ele>81</ele>
        <time>2021-02-28T13:54:48Z</time>
      </trkpt>
      <trkpt lat="43.57372" lon="3.7242">
        <ele>81</ele>
        <time>2021-02-28T13:54:49Z</time>
      </trkpt>
      <trkpt lat="43.57371" lon="3.72418">
        <ele>81</ele>
        <time>2021-02-28T13:54:50Z</time>
      </trkpt>
      <trkpt lat="43.57369" lon="3.72415">
        <ele>81</ele>
        <time>2021-02-28T13:54:51Z</time>
      </trkpt>
      <trkpt lat="43.57368" lon="3.72413">
        <ele>81</ele>
        <time>2021-02-28T13:54:52Z</time>
      </trkpt>
      <trkpt lat="43.57366" lon="3.72411">
        <ele>81</ele>
        <time>2021-02-28T13:54:53Z</time>
      </trkpt>
      <trkpt lat="43.57365" lon="3.72409">
        <ele>81</ele>
        <time>2021-02-28T13:54:54Z</time>
      </trkpt>
      <trkpt lat="43.57363" lon="3.72407">
        <ele>83</ele>
        <time>2021-02-28T13:54:55Z</time>
      </trkpt>
      <trkpt lat="43.57362" lon="3.72405">
        <ele>83</ele>
        <time>2021-02-28T13:54:56Z</time>
      </trkpt>
      <trkpt lat="43.57361" lon="3.72403">
        <ele>83</ele>
        <time>2021-02-28T13:54:57Z</time>
      </trkpt>
      <trkpt lat="43.57359" lon="3.72401">
        <ele>83</ele>
        <time>2021-02-28T13:54:58Z</time>
      </trkpt>
      <trkpt lat="43.57358" lon="3.72399">
        <ele>83</ele>
        <time>2021-02-28T13:54:59Z</time>
      </trkpt>
      <trkpt lat="43.57356" lon="3.72397">
        <ele>83</ele>
        <time>2021-02-28T13:55:00Z</time>
      </trkpt>
      <trkpt lat="43.57355" lon="3.72395">
        <ele>83</ele>
        <time>2021-02-28T13:55:01Z</time>
      </trkpt>
      <trkpt lat="43.57353" lon="3.72393">
        <ele>83</ele>
        <time>2021-02-28T13:55:02Z</time>
      </trkpt>
      <trkpt lat="43.57352" lon="3.7239">
        <ele>83</ele>
        <time>2021-02-28T13:55:03Z</time>
      </trkpt>
      <trkpt lat="43.5735" lon="3.72388">
        <ele>83</ele>
        <time>2021-02-28T13:55:04Z</time>
      </trkpt>
      <trkpt lat="43.57349" lon="3.72386">
        <ele>84</ele>
        <time>2021-02-28T13:55:05Z</time>
      </trkpt>
      <trkpt lat="43.57347" lon="3.72383">
        <ele>84</ele>
        <time>2021-02-28T13:55:06Z</time>
      </trkpt>
      <trkpt lat="43.57346" lon="3.72382">
        <ele>84</ele>
        <time>2021-02-28T13:55:07Z</time>
      </trkpt>
      <trkpt lat="43.57344" lon="3.7238">
        <ele>84</ele>
        <time>2021-02-28T13:55:08Z</time>
      </trkpt>
      <trkpt lat="43.57343" lon="3.72377">
        <ele>84</ele>
        <time>2021-02-28T13:55:09Z</time>
      </trkpt>
      <trkpt lat="43.57342" lon="3.72374">
        <ele>84</ele>
        <time>2021-02-28T13:55:10Z</time>
      </trkpt>
      <trkpt lat="43.57341" lon="3.7237">
        <ele>84</ele>
        <time>2021-02-28T13:55:12Z</time>
      </trkpt>
      <trkpt lat="43.57341" lon="3.72368">
        <ele>84</ele>
        <time>2021-02-28T13:55:13Z</time>
      </trkpt>
      <trkpt lat="43.57341" lon="3.72365">
        <ele>84</ele>
        <time>2021-02-28T13:55:14Z</time>
      </trkpt>
      <trkpt lat="43.5734" lon="3.72362">
        <ele>85</ele>
        <time>2021-02-28T13:55:15Z</time>
      </trkpt>
      <trkpt lat="43.5734" lon="3.72359">
        <ele>85</ele>
        <time>2021-02-28T13:55:16Z</time>
      </trkpt>
      <trkpt lat="43.5734" lon="3.72355">
        <ele>85</ele>
        <time>2021-02-28T13:55:18Z</time>
      </trkpt>
      <trkpt lat="43.57341" lon="3.72352">
        <ele>85</ele>
        <time>2021-02-28T13:55:20Z</time>
      </trkpt>
      <trkpt lat="43.57341" lon="3.72354">
        <ele>86</ele>
        <time>2021-02-28T13:55:27Z</time>
      </trkpt>
      <trkpt lat="43.57343" lon="3.72346">
        <ele>87</ele>
        <time>2021-02-28T13:55:53Z</time>
      </trkpt>
      <trkpt lat="43.57344" lon="3.72341">
        <ele>87</ele>
        <time>2021-02-28T13:55:55Z</time>
      </trkpt>
      <trkpt lat="43.57343" lon="3.72339">
        <ele>87</ele>
        <time>2021-02-28T13:55:56Z</time>
      </trkpt>
      <trkpt lat="43.57343" lon="3.72336">
        <ele>87</ele>
        <time>2021-02-28T13:55:57Z</time>
      </trkpt>
      <trkpt lat="43.57343" lon="3.72332">
        <ele>87</ele>
        <time>2021-02-28T13:55:59Z</time>
      </trkpt>
      <trkpt lat="43.57343" lon="3.72327">
        <ele>87</ele>
        <time>2021-02-28T13:56:01Z</time>
      </trkpt>
      <trkpt lat="43.57343" lon="3.72323">
        <ele>88</ele>
        <time>2021-02-28T13:56:03Z</time>
      </trkpt>
      <trkpt lat="43.57343" lon="3.72319">
        <ele>88</ele>
        <time>2021-02-28T13:56:05Z</time>
      </trkpt>
      <trkpt lat="43.57342" lon="3.72314">
        <ele>88</ele>
        <time>2021-02-28T13:56:07Z</time>
      </trkpt>
      <trkpt lat="43.57341" lon="3.72311">
        <ele>88</ele>
        <time>2021-02-28T13:56:08Z</time>
      </trkpt>
      <trkpt lat="43.5734" lon="3.72309">
        <ele>88</ele>
        <time>2021-02-28T13:56:09Z</time>
      </trkpt>
      <trkpt lat="43.57339" lon="3.72307">
        <ele>88</ele>
        <time>2021-02-28T13:56:10Z</time>
      </trkpt>
      <trkpt lat="43.57338" lon="3.72304">
        <ele>88</ele>
        <time>2021-02-28T13:56:11Z</time>
      </trkpt>
      <trkpt lat="43.57337" lon="3.72302">
        <ele>88</ele>
        <time>2021-02-28T13:56:12Z</time>
      </trkpt>
      <trkpt lat="43.57336" lon="3.723">
        <ele>89</ele>
        <time>2021-02-28T13:56:13Z</time>
      </trkpt>
      <trkpt lat="43.57334" lon="3.72298">
        <ele>89</ele>
        <time>2021-02-28T13:56:14Z</time>
      </trkpt>
      <trkpt lat="43.57333" lon="3.72295">
        <ele>89</ele>
        <time>2021-02-28T13:56:15Z</time>
      </trkpt>
      <trkpt lat="43.57331" lon="3.72293">
        <ele>89</ele>
        <time>2021-02-28T13:56:16Z</time>
      </trkpt>
      <trkpt lat="43.5733" lon="3.7229">
        <ele>89</ele>
        <time>2021-02-28T13:56:17Z</time>
      </trkpt>
      <trkpt lat="43.57329" lon="3.72287">
        <ele>89</ele>
        <time>2021-02-28T13:56:18Z</time>
      </trkpt>
      <trkpt lat="43.57328" lon="3.72285">
        <ele>89</ele>
        <time>2021-02-28T13:56:19Z</time>
      </trkpt>
      <trkpt lat="43.57327" lon="3.72282">
        <ele>89</ele>
        <time>2021-02-28T13:56:20Z</time>
      </trkpt>
      <trkpt lat="43.57325" lon="3.72279">
        <ele>89</ele>
        <time>2021-02-28T13:56:21Z</time>
      </trkpt>
      <trkpt lat="43.57324" lon="3.72277">
        <ele>89</ele>
        <time>2021-02-28T13:56:22Z</time>
      </trkpt>
      <trkpt lat="43.57323" lon="3.72274">
        <ele>90</ele>
        <time>2021-02-28T13:56:23Z</time>
      </trkpt>
      <trkpt lat="43.57321" lon="3.72271">
        <ele>90</ele>
        <time>2021-02-28T13:56:24Z</time>
      </trkpt>
      <trkpt lat="43.57318" lon="3.72266">
        <ele>90</ele>
        <time>2021-02-28T13:56:26Z</time>
      </trkpt>
      <trkpt lat="43.57316" lon="3.72263">
        <ele>90</ele>
        <time>2021-02-28T13:56:27Z</time>
      </trkpt>
      <trkpt lat="43.57314" lon="3.7226">
        <ele>90</ele>
        <time>2021-02-28T13:56:28Z</time>
      </trkpt>
      <trkpt lat="43.57313" lon="3.72257">
        <ele>90</ele>
        <time>2021-02-28T13:56:29Z</time>
      </trkpt>
      <trkpt lat="43.57311" lon="3.72254">
        <ele>90</ele>
        <time>2021-02-28T13:56:30Z</time>
      </trkpt>
      <trkpt lat="43.57309" lon="3.7225">
        <ele>90</ele>
        <time>2021-02-28T13:56:31Z</time>
      </trkpt>
      <trkpt lat="43.57308" lon="3.72246">
        <ele>90</ele>
        <time>2021-02-28T13:56:32Z</time>
      </trkpt>
      <trkpt lat="43.57307" lon="3.72242">
        <ele>90</ele>
        <time>2021-02-28T13:56:33Z</time>
      </trkpt>
      <trkpt lat="43.57305" lon="3.72238">
        <ele>90</ele>
        <time>2021-02-28T13:56:34Z</time>
      </trkpt>
      <trkpt lat="43.57303" lon="3.72234">
        <ele>90</ele>
        <time>2021-02-28T13:56:35Z</time>
      </trkpt>
      <trkpt lat="43.57302" lon="3.7223">
        <ele>90</ele>
        <time>2021-02-28T13:56:36Z</time>
      </trkpt>
      <trkpt lat="43.573" lon="3.72227">
        <ele>90</ele>
        <time>2021-02-28T13:56:37Z</time>
      </trkpt>
      <trkpt lat="43.57297" lon="3.7222">
        <ele>90</ele>
        <time>2021-02-28T13:56:39Z</time>
      </trkpt>
      <trkpt lat="43.57295" lon="3.72216">
        <ele>90</ele>
        <time>2021-02-28T13:56:40Z</time>
      </trkpt>
      <trkpt lat="43.57294" lon="3.72213">
        <ele>90</ele>
        <time>2021-02-28T13:56:41Z</time>
      </trkpt>
      <trkpt lat="43.57293" lon="3.7221">
        <ele>90</ele>
        <time>2021-02-28T13:56:42Z</time>
      </trkpt>
      <trkpt lat="43.57291" lon="3.72207">
        <ele>90</ele>
        <time>2021-02-28T13:56:43Z</time>
      </trkpt>
      <trkpt lat="43.5729" lon="3.72204">
        <ele>90</ele>
        <time>2021-02-28T13:56:44Z</time>
      </trkpt>
      <trkpt lat="43.57289" lon="3.72201">
        <ele>90</ele>
        <time>2021-02-28T13:56:45Z</time>
      </trkpt>
      <trkpt lat="43.57287" lon="3.72198">
        <ele>90</ele>
        <time>2021-02-28T13:56:46Z</time>
      </trkpt>
      <trkpt lat="43.57286" lon="3.72195">
        <ele>90</ele>
        <time>2021-02-28T13:56:47Z</time>
      </trkpt>
      <trkpt lat="43.57284" lon="3.72192">
        <ele>90</ele>
        <time>2021-02-28T13:56:48Z</time>
      </trkpt>
      <trkpt lat="43.57282" lon="3.7219">
        <ele>90</ele>
        <time>2021-02-28T13:56:49Z</time>
      </trkpt>
      <trkpt lat="43.57281" lon="3.72188">
        <ele>90</ele>
        <time>2021-02-28T13:56:50Z</time>
      </trkpt>
      <trkpt lat="43.57277" lon="3.72184">
        <ele>90</ele>
        <time>2021-02-28T13:56:52Z</time>
      </trkpt>
      <trkpt lat="43.57275" lon="3.72183">
        <ele>91</ele>
        <time>2021-02-28T13:56:53Z</time>
      </trkpt>
      <trkpt lat="43.57272" lon="3.72182">
        <ele>91</ele>
        <time>2021-02-28T13:56:54Z</time>
      </trkpt>
      <trkpt lat="43.57271" lon="3.72181">
        <ele>91</ele>
        <time>2021-02-28T13:56:55Z</time>
      </trkpt>
      <trkpt lat="43.57267" lon="3.72181">
        <ele>91</ele>
        <time>2021-02-28T13:56:57Z</time>
      </trkpt>
      <trkpt lat="43.57265" lon="3.7218">
        <ele>91</ele>
        <time>2021-02-28T13:56:58Z</time>
      </trkpt>
      <trkpt lat="43.57263" lon="3.7218">
        <ele>91</ele>
        <time>2021-02-28T13:56:59Z</time>
      </trkpt>
      <trkpt lat="43.57262" lon="3.72178">
        <ele>91</ele>
        <time>2021-02-28T13:57:00Z</time>
      </trkpt>
      <trkpt lat="43.5726" lon="3.72176">
        <ele>91</ele>
        <time>2021-02-28T13:57:01Z</time>
      </trkpt>
      <trkpt lat="43.57259" lon="3.72174">
        <ele>91</ele>
        <time>2021-02-28T13:57:02Z</time>
      </trkpt>
      <trkpt lat="43.57257" lon="3.72172">
        <ele>93</ele>
        <time>2021-02-28T13:57:03Z</time>
      </trkpt>
      <trkpt lat="43.57255" lon="3.72166">
        <ele>93</ele>
        <time>2021-02-28T13:57:05Z</time>
      </trkpt>
      <trkpt lat="43.57254" lon="3.72164">
        <ele>93</ele>
        <time>2021-02-28T13:57:06Z</time>
      </trkpt>
      <trkpt lat="43.57253" lon="3.72162">
        <ele>93</ele>
        <time>2021-02-28T13:57:07Z</time>
      </trkpt>
      <trkpt lat="43.57252" lon="3.72159">
        <ele>93</ele>
        <time>2021-02-28T13:57:08Z</time>
      </trkpt>
      <trkpt lat="43.5725" lon="3.72157">
        <ele>93</ele>
        <time>2021-02-28T13:57:09Z</time>
      </trkpt>
      <trkpt lat="43.57248" lon="3.72152">
        <ele>93</ele>
        <time>2021-02-28T13:57:11Z</time>
      </trkpt>
      <trkpt lat="43.57247" lon="3.72149">
        <ele>93</ele>
        <time>2021-02-28T13:57:12Z</time>
      </trkpt>
      <trkpt lat="43.57244" lon="3.72144">
        <ele>93</ele>
        <time>2021-02-28T13:57:14Z</time>
      </trkpt>
      <trkpt lat="43.57242" lon="3.72142">
        <ele>93</ele>
        <time>2021-02-28T13:57:15Z</time>
      </trkpt>
      <trkpt lat="43.57241" lon="3.7214">
        <ele>93</ele>
        <time>2021-02-28T13:57:16Z</time>
      </trkpt>
      <trkpt lat="43.57237" lon="3.72135">
        <ele>93</ele>
        <time>2021-02-28T13:57:18Z</time>
      </trkpt>
      <trkpt lat="43.57235" lon="3.72133">
        <ele>93</ele>
        <time>2021-02-28T13:57:19Z</time>
      </trkpt>
      <trkpt lat="43.57233" lon="3.72131">
        <ele>93</ele>
        <time>2021-02-28T13:57:20Z</time>
      </trkpt>
      <trkpt lat="43.57231" lon="3.72129">
        <ele>93</ele>
        <time>2021-02-28T13:57:21Z</time>
      </trkpt>
      <trkpt lat="43.57229" lon="3.72127">
        <ele>93</ele>
        <time>2021-02-28T13:57:22Z</time>
      </trkpt>
      <trkpt lat="43.57227" lon="3.72125">
        <ele>96</ele>
        <time>2021-02-28T13:57:23Z</time>
      </trkpt>
      <trkpt lat="43.57225" lon="3.72124">
        <ele>96</ele>
        <time>2021-02-28T13:57:24Z</time>
      </trkpt>
      <trkpt lat="43.57223" lon="3.72122">
        <ele>96</ele>
        <time>2021-02-28T13:57:25Z</time>
      </trkpt>
      <trkpt lat="43.57221" lon="3.72121">
        <ele>96</ele>
        <time>2021-02-28T13:57:26Z</time>
      </trkpt>
      <trkpt lat="43.57219" lon="3.72119">
        <ele>96</ele>
        <time>2021-02-28T13:57:27Z</time>
      </trkpt>
      <trkpt lat="43.57217" lon="3.72118">
        <ele>96</ele>
        <time>2021-02-28T13:57:28Z</time>
      </trkpt>
      <trkpt lat="43.57215" lon="3.72117">
        <ele>96</ele>
        <time>2021-02-28T13:57:29Z</time>
      </trkpt>
      <trkpt lat="43.57213" lon="3.72115">
        <ele>96</ele>
        <time>2021-02-28T13:57:31Z</time>
      </trkpt>
      <trkpt lat="43.57212" lon="3.72114">
        <ele>97</ele>
        <time>2021-02-28T13:57:37Z</time>
      </trkpt>
      <trkpt lat="43.57209" lon="3.72113">
        <ele>100</ele>
        <time>2021-02-28T14:04:33Z</time>
      </trkpt>
      <trkpt lat="43.57207" lon="3.72109">
        <ele>100</ele>
        <time>2021-02-28T14:04:34Z</time>
      </trkpt>
      <trkpt lat="43.57207" lon="3.72106">
        <ele>100</ele>
        <time>2021-02-28T14:04:35Z</time>
      </trkpt>
      <trkpt lat="43.57206" lon="3.72102">
        <ele>100</ele>
        <time>2021-02-28T14:04:36Z</time>
      </trkpt>
      <trkpt lat="43.57206" lon="3.72098">
        <ele>100</ele>
        <time>2021-02-28T14:04:37Z</time>
      </trkpt>
      <trkpt lat="43.57206" lon="3.72095">
        <ele>100</ele>
        <time>2021-02-28T14:04:38Z</time>
      </trkpt>
      <trkpt lat="43.57207" lon="3.72091">
        <ele>100</ele>
        <time>2021-02-28T14:04:39Z</time>
      </trkpt>
      <trkpt lat="43.57208" lon="3.72087">
        <ele>100</ele>
        <time>2021-02-28T14:04:40Z</time>
      </trkpt>
      <trkpt lat="43.5721" lon="3.72084">
        <ele>100</ele>
        <time>2021-02-28T14:04:41Z</time>
      </trkpt>
      <trkpt lat="43.57213" lon="3.72082">
        <ele>100</ele>
        <time>2021-02-28T14:04:42Z</time>
      </trkpt>
      <trkpt lat="43.57214" lon="3.72079">
        <ele>99</ele>
        <time>2021-02-28T14:04:43Z</time>
      </trkpt>
      <trkpt lat="43.57214" lon="3.72075">
        <ele>99</ele>
        <time>2021-02-28T14:04:44Z</time>
      </trkpt>
      <trkpt lat="43.57214" lon="3.7207">
        <ele>99</ele>
        <time>2021-02-28T14:04:45Z</time>
      </trkpt>
      <trkpt lat="43.57213" lon="3.72066">
        <ele>99</ele>
        <time>2021-02-28T14:04:46Z</time>
      </trkpt>
      <trkpt lat="43.57211" lon="3.72061">
        <ele>99</ele>
        <time>2021-02-28T14:04:47Z</time>
      </trkpt>
      <trkpt lat="43.5721" lon="3.72056">
        <ele>99</ele>
        <time>2021-02-28T14:04:48Z</time>
      </trkpt>
      <trkpt lat="43.57209" lon="3.72051">
        <ele>99</ele>
        <time>2021-02-28T14:04:49Z</time>
      </trkpt>
      <trkpt lat="43.57208" lon="3.72046">
        <ele>99</ele>
        <time>2021-02-28T14:04:50Z</time>
      </trkpt>
      <trkpt lat="43.57206" lon="3.72042">
        <ele>99</ele>
        <time>2021-02-28T14:04:51Z</time>
      </trkpt>
      <trkpt lat="43.57204" lon="3.72038">
        <ele>99</ele>
        <time>2021-02-28T14:04:52Z</time>
      </trkpt>
      <trkpt lat="43.57202" lon="3.72034">
        <ele>99</ele>
        <time>2021-02-28T14:04:53Z</time>
      </trkpt>
      <trkpt lat="43.572" lon="3.72029">
        <ele>99</ele>
        <time>2021-02-28T14:04:54Z</time>
      </trkpt>
      <trkpt lat="43.57199" lon="3.72024">
        <ele>99</ele>
        <time>2021-02-28T14:04:55Z</time>
      </trkpt>
      <trkpt lat="43.57198" lon="3.72019">
        <ele>99</ele>
        <time>2021-02-28T14:04:56Z</time>
      </trkpt>
      <trkpt lat="43.57198" lon="3.72015">
        <ele>99</ele>
        <time>2021-02-28T14:04:57Z</time>
      </trkpt>
      <trkpt lat="43.57198" lon="3.72012">
        <ele>99</ele>
        <time>2021-02-28T14:04:58Z</time>
      </trkpt>
      <trkpt lat="43.57198" lon="3.72008">
        <ele>99</ele>
        <time>2021-02-28T14:05:03Z</time>
      </trkpt>
      <trkpt lat="43.57199" lon="3.72003">
        <ele>99</ele>
        <time>2021-02-28T14:05:05Z</time>
      </trkpt>
      <trkpt lat="43.57199" lon="3.72001">
        <ele>99</ele>
        <time>2021-02-28T14:05:06Z</time>
      </trkpt>
      <trkpt lat="43.572" lon="3.71997">
        <ele>99</ele>
        <time>2021-02-28T14:05:08Z</time>
      </trkpt>
      <trkpt lat="43.572" lon="3.71993">
        <ele>99</ele>
        <time>2021-02-28T14:05:10Z</time>
      </trkpt>
      <trkpt lat="43.572" lon="3.7199">
        <ele>99</ele>
        <time>2021-02-28T14:05:12Z</time>
      </trkpt>
      <trkpt lat="43.57201" lon="3.71987">
        <ele>99</ele>
        <time>2021-02-28T14:05:15Z</time>
      </trkpt>
      <trkpt lat="43.57198" lon="3.71986">
        <ele>99</ele>
        <time>2021-02-28T14:05:17Z</time>
      </trkpt>
      <trkpt lat="43.57196" lon="3.71986">
        <ele>99</ele>
        <time>2021-02-28T14:05:19Z</time>
      </trkpt>
      <trkpt lat="43.57193" lon="3.71986">
        <ele>99</ele>
        <time>2021-02-28T14:05:21Z</time>
      </trkpt>
      <trkpt lat="43.57189" lon="3.71984">
        <ele>98</ele>
        <time>2021-02-28T14:05:23Z</time>
      </trkpt>
      <trkpt lat="43.57184" lon="3.71982">
        <ele>98</ele>
        <time>2021-02-28T14:05:26Z</time>
      </trkpt>
      <trkpt lat="43.57182" lon="3.71982">
        <ele>98</ele>
        <time>2021-02-28T14:05:27Z</time>
      </trkpt>
      <trkpt lat="43.5718" lon="3.71981">
        <ele>98</ele>
        <time>2021-02-28T14:05:28Z</time>
      </trkpt>
      <trkpt lat="43.57177" lon="3.71981">
        <ele>98</ele>
        <time>2021-02-28T14:05:29Z</time>
      </trkpt>
      <trkpt lat="43.57174" lon="3.71981">
        <ele>98</ele>
        <time>2021-02-28T14:05:30Z</time>
      </trkpt>
      <trkpt lat="43.57171" lon="3.71982">
        <ele>98</ele>
        <time>2021-02-28T14:05:31Z</time>
      </trkpt>
      <trkpt lat="43.57167" lon="3.71981">
        <ele>98</ele>
        <time>2021-02-28T14:05:32Z</time>
      </trkpt>
      <trkpt lat="43.57164" lon="3.71978">
        <ele>97</ele>
        <time>2021-02-28T14:05:33Z</time>
      </trkpt>
      <trkpt lat="43.57161" lon="3.71974">
        <ele>97</ele>
        <time>2021-02-28T14:05:34Z</time>
      </trkpt>
      <trkpt lat="43.57159" lon="3.71969">
        <ele>97</ele>
        <time>2021-02-28T14:05:35Z</time>
      </trkpt>
      <trkpt lat="43.57158" lon="3.71963">
        <ele>97</ele>
        <time>2021-02-28T14:05:36Z</time>
      </trkpt>
      <trkpt lat="43.57156" lon="3.71958">
        <ele>97</ele>
        <time>2021-02-28T14:05:37Z</time>
      </trkpt>
      <trkpt lat="43.57151" lon="3.7195">
        <ele>97</ele>
        <time>2021-02-28T14:05:39Z</time>
      </trkpt>
      <trkpt lat="43.57148" lon="3.71946">
        <ele>97</ele>
        <time>2021-02-28T14:05:40Z</time>
      </trkpt>
      <trkpt lat="43.57145" lon="3.71943">
        <ele>97</ele>
        <time>2021-02-28T14:05:41Z</time>
      </trkpt>
      <trkpt lat="43.57142" lon="3.7194">
        <ele>97</ele>
        <time>2021-02-28T14:05:42Z</time>
      </trkpt>
      <trkpt lat="43.57138" lon="3.71937">
        <ele>96</ele>
        <time>2021-02-28T14:05:43Z</time>
      </trkpt>
      <trkpt lat="43.57135" lon="3.71934">
        <ele>96</ele>
        <time>2021-02-28T14:05:44Z</time>
      </trkpt>
      <trkpt lat="43.57131" lon="3.71931">
        <ele>96</ele>
        <time>2021-02-28T14:05:45Z</time>
      </trkpt>
      <trkpt lat="43.57128" lon="3.71928">
        <ele>96</ele>
        <time>2021-02-28T14:05:46Z</time>
      </trkpt>
      <trkpt lat="43.57124" lon="3.71925">
        <ele>96</ele>
        <time>2021-02-28T14:05:47Z</time>
      </trkpt>
      <trkpt lat="43.5712" lon="3.71922">
        <ele>96</ele>
        <time>2021-02-28T14:05:48Z</time>
      </trkpt>
      <trkpt lat="43.57117" lon="3.7192">
        <ele>96</ele>
        <time>2021-02-28T14:05:49Z</time>
      </trkpt>
      <trkpt lat="43.57113" lon="3.71918">
        <ele>96</ele>
        <time>2021-02-28T14:05:50Z</time>
      </trkpt>
      <trkpt lat="43.57109" lon="3.71915">
        <ele>96</ele>
        <time>2021-02-28T14:05:51Z</time>
      </trkpt>
      <trkpt lat="43.57106" lon="3.71913">
        <ele>96</ele>
        <time>2021-02-28T14:05:52Z</time>
      </trkpt>
      <trkpt lat="43.57102" lon="3.7191">
        <ele>95</ele>
        <time>2021-02-28T14:05:53Z</time>
      </trkpt>
      <trkpt lat="43.57099" lon="3.71907">
        <ele>95</ele>
        <time>2021-02-28T14:05:54Z</time>
      </trkpt>
      <trkpt lat="43.57096" lon="3.71904">
        <ele>95</ele>
        <time>2021-02-28T14:05:55Z</time>
      </trkpt>
      <trkpt lat="43.57093" lon="3.71901">
        <ele>95</ele>
        <time>2021-02-28T14:05:56Z</time>
      </trkpt>
      <trkpt lat="43.57092" lon="3.71897">
        <ele>95</ele>
        <time>2021-02-28T14:05:57Z</time>
      </trkpt>
      <trkpt lat="43.57091" lon="3.71892">
        <ele>95</ele>
        <time>2021-02-28T14:05:58Z</time>
      </trkpt>
      <trkpt lat="43.5709" lon="3.71887">
        <ele>95</ele>
        <time>2021-02-28T14:05:59Z</time>
      </trkpt>
      <trkpt lat="43.5709" lon="3.71882">
        <ele>95</ele>
        <time>2021-02-28T14:06:00Z</time>
      </trkpt>
      <trkpt lat="43.5709" lon="3.71877">
        <ele>95</ele>
        <time>2021-02-28T14:06:01Z</time>
      </trkpt>
      <trkpt lat="43.57089" lon="3.71872">
        <ele>95</ele>
        <time>2021-02-28T14:06:02Z</time>
      </trkpt>
      <trkpt lat="43.57088" lon="3.71866">
        <ele>94</ele>
        <time>2021-02-28T14:06:03Z</time>
      </trkpt>
      <trkpt lat="43.57088" lon="3.71861">
        <ele>94</ele>
        <time>2021-02-28T14:06:04Z</time>
      </trkpt>
      <trkpt lat="43.57088" lon="3.71856">
        <ele>94</ele>
        <time>2021-02-28T14:06:05Z</time>
      </trkpt>
      <trkpt lat="43.57088" lon="3.71851">
        <ele>94</ele>
        <time>2021-02-28T14:06:06Z</time>
      </trkpt>
      <trkpt lat="43.57087" lon="3.71845">
        <ele>94</ele>
        <time>2021-02-28T14:06:07Z</time>
      </trkpt>
      <trkpt lat="43.57085" lon="3.7184">
        <ele>94</ele>
        <time>2021-02-28T14:06:08Z</time>
      </trkpt>
      <trkpt lat="43.57081" lon="3.71837">
        <ele>94</ele>
        <time>2021-02-28T14:06:09Z</time>
      </trkpt>
      <trkpt lat="43.57076" lon="3.71836">
        <ele>94</ele>
        <time>2021-02-28T14:06:10Z</time>
      </trkpt>
      <trkpt lat="43.57072" lon="3.71837">
        <ele>94</ele>
        <time>2021-02-28T14:06:11Z</time>
      </trkpt>
      <trkpt lat="43.57067" lon="3.71839">
        <ele>94</ele>
        <time>2021-02-28T14:06:12Z</time>
      </trkpt>
      <trkpt lat="43.57061" lon="3.71842">
        <ele>91</ele>
        <time>2021-02-28T14:06:13Z</time>
      </trkpt>
      <trkpt lat="43.57056" lon="3.71844">
        <ele>91</ele>
        <time>2021-02-28T14:06:14Z</time>
      </trkpt>
      <trkpt lat="43.5705" lon="3.71845">
        <ele>91</ele>
        <time>2021-02-28T14:06:15Z</time>
      </trkpt>
      <trkpt lat="43.57045" lon="3.71844">
        <ele>91</ele>
        <time>2021-02-28T14:06:16Z</time>
      </trkpt>
      <trkpt lat="43.5704" lon="3.71843">
        <ele>91</ele>
        <time>2021-02-28T14:06:17Z</time>
      </trkpt>
      <trkpt lat="43.57035" lon="3.71842">
        <ele>91</ele>
        <time>2021-02-28T14:06:18Z</time>
      </trkpt>
      <trkpt lat="43.57029" lon="3.71842">
        <ele>91</ele>
        <time>2021-02-28T14:06:19Z</time>
      </trkpt>
      <trkpt lat="43.57023" lon="3.71841">
        <ele>91</ele>
        <time>2021-02-28T14:06:20Z</time>
      </trkpt>
      <trkpt lat="43.57017" lon="3.71839">
        <ele>91</ele>
        <time>2021-02-28T14:06:21Z</time>
      </trkpt>
      <trkpt lat="43.57012" lon="3.71837">
        <ele>91</ele>
        <time>2021-02-28T14:06:22Z</time>
      </trkpt>
      <trkpt lat="43.57006" lon="3.71836">
        <ele>88</ele>
        <time>2021-02-28T14:06:23Z</time>
      </trkpt>
      <trkpt lat="43.57" lon="3.71834">
        <ele>88</ele>
        <time>2021-02-28T14:06:24Z</time>
      </trkpt>
      <trkpt lat="43.56995" lon="3.71831">
        <ele>88</ele>
        <time>2021-02-28T14:06:25Z</time>
      </trkpt>
      <trkpt lat="43.56989" lon="3.71828">
        <ele>88</ele>
        <time>2021-02-28T14:06:26Z</time>
      </trkpt>
      <trkpt lat="43.56984" lon="3.71825">
        <ele>88</ele>
        <time>2021-02-28T14:06:27Z</time>
      </trkpt>
      <trkpt lat="43.56975" lon="3.71818">
        <ele>88</ele>
        <time>2021-02-28T14:06:29Z</time>
      </trkpt>
      <trkpt lat="43.56971" lon="3.71813">
        <ele>88</ele>
        <time>2021-02-28T14:06:30Z</time>
      </trkpt>
      <trkpt lat="43.56967" lon="3.71809">
        <ele>88</ele>
        <time>2021-02-28T14:06:31Z</time>
      </trkpt>
      <trkpt lat="43.56963" lon="3.71805">
        <ele>88</ele>
        <time>2021-02-28T14:06:32Z</time>
      </trkpt>
      <trkpt lat="43.5696" lon="3.718">
        <ele>88</ele>
        <time>2021-02-28T14:06:33Z</time>
      </trkpt>
      <trkpt lat="43.56956" lon="3.71796">
        <ele>86</ele>
        <time>2021-02-28T14:06:34Z</time>
      </trkpt>
      <trkpt lat="43.56953" lon="3.71791">
        <ele>86</ele>
        <time>2021-02-28T14:06:35Z</time>
      </trkpt>
      <trkpt lat="43.56949" lon="3.71786">
        <ele>86</ele>
        <time>2021-02-28T14:06:36Z</time>
      </trkpt>
      <trkpt lat="43.56945" lon="3.71782">
        <ele>86</ele>
        <time>2021-02-28T14:06:37Z</time>
      </trkpt>
      <trkpt lat="43.56942" lon="3.71777">
        <ele>86</ele>
        <time>2021-02-28T14:06:38Z</time>
      </trkpt>
      <trkpt lat="43.56939" lon="3.71773">
        <ele>86</ele>
        <time>2021-02-28T14:06:39Z</time>
      </trkpt>
      <trkpt lat="43.56935" lon="3.71768">
        <ele>86</ele>
        <time>2021-02-28T14:06:40Z</time>
      </trkpt>
      <trkpt lat="43.5693" lon="3.71758">
        <ele>86</ele>
        <time>2021-02-28T14:06:42Z</time>
      </trkpt>
      <trkpt lat="43.56927" lon="3.71754">
        <ele>84</ele>
        <time>2021-02-28T14:06:43Z</time>
      </trkpt>
      <trkpt lat="43.56924" lon="3.71749">
        <ele>84</ele>
        <time>2021-02-28T14:06:44Z</time>
      </trkpt>
      <trkpt lat="43.5692" lon="3.71745">
        <ele>84</ele>
        <time>2021-02-28T14:06:45Z</time>
      </trkpt>
      <trkpt lat="43.56917" lon="3.71741">
        <ele>84</ele>
        <time>2021-02-28T14:06:46Z</time>
      </trkpt>
      <trkpt lat="43.56914" lon="3.71737">
        <ele>84</ele>
        <time>2021-02-28T14:06:47Z</time>
      </trkpt>
      <trkpt lat="43.5691" lon="3.71734">
        <ele>84</ele>
        <time>2021-02-28T14:06:48Z</time>
      </trkpt>
      <trkpt lat="43.56907" lon="3.71732">
        <ele>84</ele>
        <time>2021-02-28T14:06:49Z</time>
      </trkpt>
      <trkpt lat="43.56903" lon="3.7173">
        <ele>84</ele>
        <time>2021-02-28T14:06:50Z</time>
      </trkpt>
      <trkpt lat="43.569" lon="3.71729">
        <ele>84</ele>
        <time>2021-02-28T14:06:51Z</time>
      </trkpt>
      <trkpt lat="43.56897" lon="3.71728">
        <ele>84</ele>
        <time>2021-02-28T14:06:52Z</time>
      </trkpt>
      <trkpt lat="43.56895" lon="3.71727">
        <ele>82</ele>
        <time>2021-02-28T14:06:53Z</time>
      </trkpt>
      <trkpt lat="43.56892" lon="3.71726">
        <ele>82</ele>
        <time>2021-02-28T14:06:55Z</time>
      </trkpt>
      <trkpt lat="43.5689" lon="3.71724">
        <ele>82</ele>
        <time>2021-02-28T14:06:57Z</time>
      </trkpt>
      <trkpt lat="43.56888" lon="3.71722">
        <ele>82</ele>
        <time>2021-02-28T14:06:59Z</time>
      </trkpt>
      <trkpt lat="43.56885" lon="3.71719">
        <ele>82</ele>
        <time>2021-02-28T14:07:01Z</time>
      </trkpt>
      <trkpt lat="43.56883" lon="3.71717">
        <ele>82</ele>
        <time>2021-02-28T14:07:02Z</time>
      </trkpt>
      <trkpt lat="43.56882" lon="3.71716">
        <ele>80</ele>
        <time>2021-02-28T14:07:03Z</time>
      </trkpt>
      <trkpt lat="43.5688" lon="3.71714">
        <ele>80</ele>
        <time>2021-02-28T14:07:04Z</time>
      </trkpt>
      <trkpt lat="43.56878" lon="3.71712">
        <ele>80</ele>
        <time>2021-02-28T14:07:05Z</time>
      </trkpt>
      <trkpt lat="43.56876" lon="3.71708">
        <ele>80</ele>
        <time>2021-02-28T14:07:06Z</time>
      </trkpt>
      <trkpt lat="43.56874" lon="3.71704">
        <ele>80</ele>
        <time>2021-02-28T14:07:07Z</time>
      </trkpt>
      <trkpt lat="43.56872" lon="3.71701">
        <ele>80</ele>
        <time>2021-02-28T14:07:08Z</time>
      </trkpt>
      <trkpt lat="43.5687" lon="3.717">
        <ele>80</ele>
        <time>2021-02-28T14:07:09Z</time>
      </trkpt>
      <trkpt lat="43.56867" lon="3.71703">
        <ele>80</ele>
        <time>2021-02-28T14:07:11Z</time>
      </trkpt>
      <trkpt lat="43.56865" lon="3.71706">
        <ele>80</ele>
        <time>2021-02-28T14:07:12Z</time>
      </trkpt>
      <trkpt lat="43.56863" lon="3.71709">
        <ele>79</ele>
        <time>2021-02-28T14:07:13Z</time>
      </trkpt>
      <trkpt lat="43.56862" lon="3.71711">
        <ele>79</ele>
        <time>2021-02-28T14:07:14Z</time>
      </trkpt>
      <trkpt lat="43.56857" lon="3.7171">
        <ele>79</ele>
        <time>2021-02-28T14:07:16Z</time>
      </trkpt>
      <trkpt lat="43.56855" lon="3.71708">
        <ele>79</ele>
        <time>2021-02-28T14:07:17Z</time>
      </trkpt>
      <trkpt lat="43.56852" lon="3.71705">
        <ele>79</ele>
        <time>2021-02-28T14:07:18Z</time>
      </trkpt>
      <trkpt lat="43.56848" lon="3.71699">
        <ele>79</ele>
        <time>2021-02-28T14:07:20Z</time>
      </trkpt>
      <trkpt lat="43.56846" lon="3.71695">
        <ele>79</ele>
        <time>2021-02-28T14:07:21Z</time>
      </trkpt>
      <trkpt lat="43.56844" lon="3.71692">
        <ele>79</ele>
        <time>2021-02-28T14:07:22Z</time>
      </trkpt>
      <trkpt lat="43.56841" lon="3.71689">
        <ele>78</ele>
        <time>2021-02-28T14:07:23Z</time>
      </trkpt>
      <trkpt lat="43.56839" lon="3.71686">
        <ele>78</ele>
        <time>2021-02-28T14:07:24Z</time>
      </trkpt>
      <trkpt lat="43.56836" lon="3.71683">
        <ele>78</ele>
        <time>2021-02-28T14:07:25Z</time>
      </trkpt>
      <trkpt lat="43.56834" lon="3.71679">
        <ele>78</ele>
        <time>2021-02-28T14:07:26Z</time>
      </trkpt>
      <trkpt lat="43.56832" lon="3.71676">
        <ele>78</ele>
        <time>2021-02-28T14:07:27Z</time>
      </trkpt>
      <trkpt lat="43.56829" lon="3.71672">
        <ele>78</ele>
        <time>2021-02-28T14:07:28Z</time>
      </trkpt>
      <trkpt lat="43.56826" lon="3.71669">
        <ele>78</ele>
        <time>2021-02-28T14:07:29Z</time>
      </trkpt>
      <trkpt lat="43.56824" lon="3.71666">
        <ele>78</ele>
        <time>2021-02-28T14:07:30Z</time>
      </trkpt>
      <trkpt lat="43.56821" lon="3.71663">
        <ele>78</ele>
        <time>2021-02-28T14:07:31Z</time>
      </trkpt>
      <trkpt lat="43.56818" lon="3.71662">
        <ele>78</ele>
        <time>2021-02-28T14:07:32Z</time>
      </trkpt>
      <trkpt lat="43.56816" lon="3.71659">
        <ele>77</ele>
        <time>2021-02-28T14:07:33Z</time>
      </trkpt>
      <trkpt lat="43.56813" lon="3.71656">
        <ele>77</ele>
        <time>2021-02-28T14:07:34Z</time>
      </trkpt>
      <trkpt lat="43.5681" lon="3.71654">
        <ele>77</ele>
        <time>2021-02-28T14:07:35Z</time>
      </trkpt>
      <trkpt lat="43.56807" lon="3.71652">
        <ele>77</ele>
        <time>2021-02-28T14:07:36Z</time>
      </trkpt>
      <trkpt lat="43.56802" lon="3.7165">
        <ele>77</ele>
        <time>2021-02-28T14:07:37Z</time>
      </trkpt>
      <trkpt lat="43.56798" lon="3.71647">
        <ele>77</ele>
        <time>2021-02-28T14:07:38Z</time>
      </trkpt>
      <trkpt lat="43.56795" lon="3.71643">
        <ele>77</ele>
        <time>2021-02-28T14:07:39Z</time>
      </trkpt>
      <trkpt lat="43.56792" lon="3.71638">
        <ele>77</ele>
        <time>2021-02-28T14:07:40Z</time>
      </trkpt>
      <trkpt lat="43.5679" lon="3.71633">
        <ele>77</ele>
        <time>2021-02-28T14:07:41Z</time>
      </trkpt>
      <trkpt lat="43.56789" lon="3.71628">
        <ele>77</ele>
        <time>2021-02-28T14:07:42Z</time>
      </trkpt>
      <trkpt lat="43.56789" lon="3.71623">
        <ele>76</ele>
        <time>2021-02-28T14:07:43Z</time>
      </trkpt>
      <trkpt lat="43.56791" lon="3.7162">
        <ele>76</ele>
        <time>2021-02-28T14:07:44Z</time>
      </trkpt>
      <trkpt lat="43.56792" lon="3.71617">
        <ele>76</ele>
        <time>2021-02-28T14:07:45Z</time>
      </trkpt>
      <trkpt lat="43.56794" lon="3.71615">
        <ele>76</ele>
        <time>2021-02-28T14:07:46Z</time>
      </trkpt>
      <trkpt lat="43.56796" lon="3.71613">
        <ele>76</ele>
        <time>2021-02-28T14:07:47Z</time>
      </trkpt>
      <trkpt lat="43.56798" lon="3.71612">
        <ele>76</ele>
        <time>2021-02-28T14:07:48Z</time>
      </trkpt>
      <trkpt lat="43.568" lon="3.7161">
        <ele>76</ele>
        <time>2021-02-28T14:07:49Z</time>
      </trkpt>
      <trkpt lat="43.56801" lon="3.71608">
        <ele>76</ele>
        <time>2021-02-28T14:07:50Z</time>
      </trkpt>
      <trkpt lat="43.56804" lon="3.71607">
        <ele>76</ele>
        <time>2021-02-28T14:07:51Z</time>
      </trkpt>
      <trkpt lat="43.56806" lon="3.71607">
        <ele>76</ele>
        <time>2021-02-28T14:07:52Z</time>
      </trkpt>
      <trkpt lat="43.56807" lon="3.71605">
        <ele>76</ele>
        <time>2021-02-28T14:07:54Z</time>
      </trkpt>
      <trkpt lat="43.56806" lon="3.71602">
        <ele>76</ele>
        <time>2021-02-28T14:07:56Z</time>
      </trkpt>
      <trkpt lat="43.56803" lon="3.71599">
        <ele>76</ele>
        <time>2021-02-28T14:07:58Z</time>
      </trkpt>
      <trkpt lat="43.56801" lon="3.71598">
        <ele>76</ele>
        <time>2021-02-28T14:07:59Z</time>
      </trkpt>
      <trkpt lat="43.56798" lon="3.71597">
        <ele>76</ele>
        <time>2021-02-28T14:08:00Z</time>
      </trkpt>
      <trkpt lat="43.56796" lon="3.71596">
        <ele>76</ele>
        <time>2021-02-28T14:08:01Z</time>
      </trkpt>
      <trkpt lat="43.56794" lon="3.71594">
        <ele>76</ele>
        <time>2021-02-28T14:08:02Z</time>
      </trkpt>
      <trkpt lat="43.56792" lon="3.71592">
        <ele>76</ele>
        <time>2021-02-28T14:08:03Z</time>
      </trkpt>
      <trkpt lat="43.5679" lon="3.71591">
        <ele>76</ele>
        <time>2021-02-28T14:08:04Z</time>
      </trkpt>
      <trkpt lat="43.56788" lon="3.7159">
        <ele>76</ele>
        <time>2021-02-28T14:08:05Z</time>
      </trkpt>
      <trkpt lat="43.56785" lon="3.71588">
        <ele>76</ele>
        <time>2021-02-28T14:08:06Z</time>
      </trkpt>
      <trkpt lat="43.56782" lon="3.71586">
        <ele>76</ele>
        <time>2021-02-28T14:08:07Z</time>
      </trkpt>
      <trkpt lat="43.5678" lon="3.71583">
        <ele>76</ele>
        <time>2021-02-28T14:08:08Z</time>
      </trkpt>
      <trkpt lat="43.56777" lon="3.7158">
        <ele>76</ele>
        <time>2021-02-28T14:08:09Z</time>
      </trkpt>
      <trkpt lat="43.56773" lon="3.71579">
        <ele>76</ele>
        <time>2021-02-28T14:08:10Z</time>
      </trkpt>
      <trkpt lat="43.5677" lon="3.71577">
        <ele>76</ele>
        <time>2021-02-28T14:08:11Z</time>
      </trkpt>
      <trkpt lat="43.56767" lon="3.71575">
        <ele>76</ele>
        <time>2021-02-28T14:08:12Z</time>
      </trkpt>
      <trkpt lat="43.56764" lon="3.71573">
        <ele>75</ele>
        <time>2021-02-28T14:08:13Z</time>
      </trkpt>
      <trkpt lat="43.56761" lon="3.71571">
        <ele>75</ele>
        <time>2021-02-28T14:08:14Z</time>
      </trkpt>
      <trkpt lat="43.56758" lon="3.7157">
        <ele>75</ele>
        <time>2021-02-28T14:08:15Z</time>
      </trkpt>
      <trkpt lat="43.56755" lon="3.71568">
        <ele>75</ele>
        <time>2021-02-28T14:08:16Z</time>
      </trkpt>
      <trkpt lat="43.56752" lon="3.71566">
        <ele>75</ele>
        <time>2021-02-28T14:08:17Z</time>
      </trkpt>
      <trkpt lat="43.5675" lon="3.71564">
        <ele>75</ele>
        <time>2021-02-28T14:08:18Z</time>
      </trkpt>
      <trkpt lat="43.56747" lon="3.71563">
        <ele>75</ele>
        <time>2021-02-28T14:08:19Z</time>
      </trkpt>
      <trkpt lat="43.56745" lon="3.71563">
        <ele>75</ele>
        <time>2021-02-28T14:08:20Z</time>
      </trkpt>
      <trkpt lat="43.56742" lon="3.71562">
        <ele>75</ele>
        <time>2021-02-28T14:08:21Z</time>
      </trkpt>
      <trkpt lat="43.56739" lon="3.71561">
        <ele>75</ele>
        <time>2021-02-28T14:08:22Z</time>
      </trkpt>
      <trkpt lat="43.56737" lon="3.7156">
        <ele>75</ele>
        <time>2021-02-28T14:08:23Z</time>
      </trkpt>
      <trkpt lat="43.56734" lon="3.71559">
        <ele>75</ele>
        <time>2021-02-28T14:08:24Z</time>
      </trkpt>
      <trkpt lat="43.56731" lon="3.71556">
        <ele>75</ele>
        <time>2021-02-28T14:08:25Z</time>
      </trkpt>
      <trkpt lat="43.5673" lon="3.71553">
        <ele>75</ele>
        <time>2021-02-28T14:08:26Z</time>
      </trkpt>
      <trkpt lat="43.56728" lon="3.7155">
        <ele>75</ele>
        <time>2021-02-28T14:08:28Z</time>
      </trkpt>
      <trkpt lat="43.56726" lon="3.71547">
        <ele>75</ele>
        <time>2021-02-28T14:08:30Z</time>
      </trkpt>
      <trkpt lat="43.56725" lon="3.71544">
        <ele>75</ele>
        <time>2021-02-28T14:08:31Z</time>
      </trkpt>
      <trkpt lat="43.56726" lon="3.71541">
        <ele>75</ele>
        <time>2021-02-28T14:08:32Z</time>
      </trkpt>
      <trkpt lat="43.56726" lon="3.71538">
        <ele>76</ele>
        <time>2021-02-28T14:08:33Z</time>
      </trkpt>
      <trkpt lat="43.56728" lon="3.71535">
        <ele>76</ele>
        <time>2021-02-28T14:08:34Z</time>
      </trkpt>
      <trkpt lat="43.56729" lon="3.71532">
        <ele>76</ele>
        <time>2021-02-28T14:08:35Z</time>
      </trkpt>
      <trkpt lat="43.5673" lon="3.71529">
        <ele>76</ele>
        <time>2021-02-28T14:08:36Z</time>
      </trkpt>
      <trkpt lat="43.5673" lon="3.71525">
        <ele>76</ele>
        <time>2021-02-28T14:08:38Z</time>
      </trkpt>
      <trkpt lat="43.56731" lon="3.71522">
        <ele>76</ele>
        <time>2021-02-28T14:08:41Z</time>
      </trkpt>
      <trkpt lat="43.56731" lon="3.71519">
        <ele>76</ele>
        <time>2021-02-28T14:08:42Z</time>
      </trkpt>
      <trkpt lat="43.56732" lon="3.71516">
        <ele>76</ele>
        <time>2021-02-28T14:08:44Z</time>
      </trkpt>
      <trkpt lat="43.56732" lon="3.71515">
        <ele>75</ele>
        <time>2021-02-28T14:08:50Z</time>
      </trkpt>
      <trkpt lat="43.56735" lon="3.71516">
        <ele>75</ele>
        <time>2021-02-28T14:09:25Z</time>
      </trkpt>
      <trkpt lat="43.56729" lon="3.71533">
        <ele>75</ele>
        <time>2021-02-28T14:09:46Z</time>
      </trkpt>
      <trkpt lat="43.56728" lon="3.71537">
        <ele>75</ele>
        <time>2021-02-28T14:09:47Z</time>
      </trkpt>
      <trkpt lat="43.56727" lon="3.71544">
        <ele>75</ele>
        <time>2021-02-28T14:09:48Z</time>
      </trkpt>
      <trkpt lat="43.56728" lon="3.71547">
        <ele>75</ele>
        <time>2021-02-28T14:09:49Z</time>
      </trkpt>
      <trkpt lat="43.5673" lon="3.7155">
        <ele>75</ele>
        <time>2021-02-28T14:09:50Z</time>
      </trkpt>
      <trkpt lat="43.56732" lon="3.71554">
        <ele>75</ele>
        <time>2021-02-28T14:09:51Z</time>
      </trkpt>
      <trkpt lat="43.56734" lon="3.71557">
        <ele>75</ele>
        <time>2021-02-28T14:09:52Z</time>
      </trkpt>
      <trkpt lat="43.56736" lon="3.7156">
        <ele>75</ele>
        <time>2021-02-28T14:09:53Z</time>
      </trkpt>
      <trkpt lat="43.56741" lon="3.71564">
        <ele>75</ele>
        <time>2021-02-28T14:09:55Z</time>
      </trkpt>
      <trkpt lat="43.56744" lon="3.71564">
        <ele>75</ele>
        <time>2021-02-28T14:09:56Z</time>
      </trkpt>
      <trkpt lat="43.56748" lon="3.71565">
        <ele>75</ele>
        <time>2021-02-28T14:09:57Z</time>
      </trkpt>
      <trkpt lat="43.56754" lon="3.7157">
        <ele>75</ele>
        <time>2021-02-28T14:09:59Z</time>
      </trkpt>
      <trkpt lat="43.56757" lon="3.71571">
        <ele>75</ele>
        <time>2021-02-28T14:10:00Z</time>
      </trkpt>
      <trkpt lat="43.56761" lon="3.71572">
        <ele>75</ele>
        <time>2021-02-28T14:10:01Z</time>
      </trkpt>
      <trkpt lat="43.56764" lon="3.71574">
        <ele>75</ele>
        <time>2021-02-28T14:10:02Z</time>
      </trkpt>
      <trkpt lat="43.56767" lon="3.71577">
        <ele>75</ele>
        <time>2021-02-28T14:10:03Z</time>
      </trkpt>
      <trkpt lat="43.5677" lon="3.7158">
        <ele>75</ele>
        <time>2021-02-28T14:10:04Z</time>
      </trkpt>
      <trkpt lat="43.56771" lon="3.71584">
        <ele>75</ele>
        <time>2021-02-28T14:10:05Z</time>
      </trkpt>
      <trkpt lat="43.56772" lon="3.71587">
        <ele>75</ele>
        <time>2021-02-28T14:10:06Z</time>
      </trkpt>
      <trkpt lat="43.56772" lon="3.71591">
        <ele>75</ele>
        <time>2021-02-28T14:10:07Z</time>
      </trkpt>
      <trkpt lat="43.56772" lon="3.71594">
        <ele>75</ele>
        <time>2021-02-28T14:10:08Z</time>
      </trkpt>
      <trkpt lat="43.56773" lon="3.71596">
        <ele>75</ele>
        <time>2021-02-28T14:10:09Z</time>
      </trkpt>
      <trkpt lat="43.56773" lon="3.71601">
        <ele>75</ele>
        <time>2021-02-28T14:10:11Z</time>
      </trkpt>
      <trkpt lat="43.56773" lon="3.71604">
        <ele>75</ele>
        <time>2021-02-28T14:10:13Z</time>
      </trkpt>
      <trkpt lat="43.56772" lon="3.71606">
        <ele>75</ele>
        <time>2021-02-28T14:10:15Z</time>
      </trkpt>
      <trkpt lat="43.56769" lon="3.71606">
        <ele>75</ele>
        <time>2021-02-28T14:10:17Z</time>
      </trkpt>
      <trkpt lat="43.56765" lon="3.71607">
        <ele>75</ele>
        <time>2021-02-28T14:10:19Z</time>
      </trkpt>
      <trkpt lat="43.56763" lon="3.7161">
        <ele>75</ele>
        <time>2021-02-28T14:10:21Z</time>
      </trkpt>
      <trkpt lat="43.56762" lon="3.71613">
        <ele>75</ele>
        <time>2021-02-28T14:10:22Z</time>
      </trkpt>
      <trkpt lat="43.56759" lon="3.71617">
        <ele>75</ele>
        <time>2021-02-28T14:10:23Z</time>
      </trkpt>
      <trkpt lat="43.56756" lon="3.71619">
        <ele>75</ele>
        <time>2021-02-28T14:10:24Z</time>
      </trkpt>
      <trkpt lat="43.56754" lon="3.71621">
        <ele>75</ele>
        <time>2021-02-28T14:10:25Z</time>
      </trkpt>
      <trkpt lat="43.56751" lon="3.71622">
        <ele>75</ele>
        <time>2021-02-28T14:10:26Z</time>
      </trkpt>
      <trkpt lat="43.56748" lon="3.71624">
        <ele>75</ele>
        <time>2021-02-28T14:10:27Z</time>
      </trkpt>
      <trkpt lat="43.56745" lon="3.71626">
        <ele>75</ele>
        <time>2021-02-28T14:10:28Z</time>
      </trkpt>
      <trkpt lat="43.56742" lon="3.71628">
        <ele>75</ele>
        <time>2021-02-28T14:10:29Z</time>
      </trkpt>
      <trkpt lat="43.56739" lon="3.7163">
        <ele>75</ele>
        <time>2021-02-28T14:10:30Z</time>
      </trkpt>
      <trkpt lat="43.56736" lon="3.71633">
        <ele>75</ele>
        <time>2021-02-28T14:10:31Z</time>
      </trkpt>
      <trkpt lat="43.56734" lon="3.71636">
        <ele>75</ele>
        <time>2021-02-28T14:10:32Z</time>
      </trkpt>
      <trkpt lat="43.56731" lon="3.7164">
        <ele>75</ele>
        <time>2021-02-28T14:10:33Z</time>
      </trkpt>
      <trkpt lat="43.56727" lon="3.71643">
        <ele>75</ele>
        <time>2021-02-28T14:10:34Z</time>
      </trkpt>
      <trkpt lat="43.56724" lon="3.71647">
        <ele>74</ele>
        <time>2021-02-28T14:10:35Z</time>
      </trkpt>
      <trkpt lat="43.56721" lon="3.71651">
        <ele>74</ele>
        <time>2021-02-28T14:10:36Z</time>
      </trkpt>
      <trkpt lat="43.56717" lon="3.71653">
        <ele>74</ele>
        <time>2021-02-28T14:10:37Z</time>
      </trkpt>
      <trkpt lat="43.56714" lon="3.71653">
        <ele>74</ele>
        <time>2021-02-28T14:10:38Z</time>
      </trkpt>
      <trkpt lat="43.56711" lon="3.71653">
        <ele>74</ele>
        <time>2021-02-28T14:10:39Z</time>
      </trkpt>
      <trkpt lat="43.56709" lon="3.71652">
        <ele>74</ele>
        <time>2021-02-28T14:10:40Z</time>
      </trkpt>
      <trkpt lat="43.56707" lon="3.71652">
        <ele>74</ele>
        <time>2021-02-28T14:10:42Z</time>
      </trkpt>
      <trkpt lat="43.56704" lon="3.71651">
        <ele>74</ele>
        <time>2021-02-28T14:10:44Z</time>
      </trkpt>
      <trkpt lat="43.567" lon="3.7165">
        <ele>74</ele>
        <time>2021-02-28T14:10:46Z</time>
      </trkpt>
      <trkpt lat="43.56698" lon="3.7165">
        <ele>74</ele>
        <time>2021-02-28T14:10:47Z</time>
      </trkpt>
      <trkpt lat="43.56696" lon="3.71649">
        <ele>74</ele>
        <time>2021-02-28T14:10:48Z</time>
      </trkpt>
      <trkpt lat="43.56694" lon="3.71648">
        <ele>74</ele>
        <time>2021-02-28T14:10:49Z</time>
      </trkpt>
      <trkpt lat="43.56691" lon="3.71647">
        <ele>74</ele>
        <time>2021-02-28T14:10:51Z</time>
      </trkpt>
      <trkpt lat="43.56687" lon="3.71647">
        <ele>74</ele>
        <time>2021-02-28T14:10:53Z</time>
      </trkpt>
      <trkpt lat="43.56685" lon="3.71648">
        <ele>74</ele>
        <time>2021-02-28T14:10:54Z</time>
      </trkpt>
      <trkpt lat="43.56682" lon="3.71651">
        <ele>74</ele>
        <time>2021-02-28T14:10:56Z</time>
      </trkpt>
      <trkpt lat="43.5668" lon="3.71653">
        <ele>74</ele>
        <time>2021-02-28T14:10:57Z</time>
      </trkpt>
      <trkpt lat="43.56679" lon="3.71655">
        <ele>74</ele>
        <time>2021-02-28T14:10:58Z</time>
      </trkpt>
      <trkpt lat="43.56675" lon="3.7166">
        <ele>74</ele>
        <time>2021-02-28T14:11:00Z</time>
      </trkpt>
      <trkpt lat="43.56674" lon="3.71662">
        <ele>74</ele>
        <time>2021-02-28T14:11:01Z</time>
      </trkpt>
      <trkpt lat="43.56672" lon="3.71664">
        <ele>74</ele>
        <time>2021-02-28T14:11:02Z</time>
      </trkpt>
      <trkpt lat="43.56671" lon="3.71665">
        <ele>74</ele>
        <time>2021-02-28T14:11:03Z</time>
      </trkpt>
      <trkpt lat="43.56669" lon="3.71665">
        <ele>74</ele>
        <time>2021-02-28T14:11:04Z</time>
      </trkpt>
      <trkpt lat="43.56667" lon="3.71666">
        <ele>70</ele>
        <time>2021-02-28T14:11:05Z</time>
      </trkpt>
      <trkpt lat="43.56664" lon="3.71665">
        <ele>70</ele>
        <time>2021-02-28T14:11:07Z</time>
      </trkpt>
      <trkpt lat="43.5666" lon="3.71665">
        <ele>70</ele>
        <time>2021-02-28T14:11:09Z</time>
      </trkpt>
      <trkpt lat="43.56658" lon="3.71665">
        <ele>70</ele>
        <time>2021-02-28T14:11:10Z</time>
      </trkpt>
      <trkpt lat="43.56655" lon="3.71664">
        <ele>70</ele>
        <time>2021-02-28T14:11:12Z</time>
      </trkpt>
      <trkpt lat="43.56653" lon="3.71664">
        <ele>70</ele>
        <time>2021-02-28T14:11:13Z</time>
      </trkpt>
      <trkpt lat="43.5665" lon="3.71663">
        <ele>70</ele>
        <time>2021-02-28T14:11:14Z</time>
      </trkpt>
      <trkpt lat="43.56649" lon="3.71662">
        <ele>71</ele>
        <time>2021-02-28T14:11:15Z</time>
      </trkpt>
      <trkpt lat="43.56647" lon="3.71661">
        <ele>71</ele>
        <time>2021-02-28T14:11:16Z</time>
      </trkpt>
      <trkpt lat="43.56645" lon="3.71659">
        <ele>71</ele>
        <time>2021-02-28T14:11:17Z</time>
      </trkpt>
      <trkpt lat="43.56644" lon="3.71658">
        <ele>71</ele>
        <time>2021-02-28T14:11:18Z</time>
      </trkpt>
      <trkpt lat="43.56642" lon="3.71657">
        <ele>71</ele>
        <time>2021-02-28T14:11:19Z</time>
      </trkpt>
      <trkpt lat="43.5664" lon="3.71655">
        <ele>71</ele>
        <time>2021-02-28T14:11:20Z</time>
      </trkpt>
      <trkpt lat="43.56637" lon="3.71653">
        <ele>71</ele>
        <time>2021-02-28T14:11:22Z</time>
      </trkpt>
      <trkpt lat="43.56635" lon="3.71652">
        <ele>71</ele>
        <time>2021-02-28T14:11:23Z</time>
      </trkpt>
      <trkpt lat="43.56634" lon="3.7165">
        <ele>71</ele>
        <time>2021-02-28T14:11:24Z</time>
      </trkpt>
      <trkpt lat="43.56631" lon="3.71648">
        <ele>71</ele>
        <time>2021-02-28T14:11:26Z</time>
      </trkpt>
      <trkpt lat="43.56628" lon="3.71647">
        <ele>71</ele>
        <time>2021-02-28T14:11:28Z</time>
      </trkpt>
      <trkpt lat="43.56625" lon="3.71645">
        <ele>71</ele>
        <time>2021-02-28T14:11:30Z</time>
      </trkpt>
      <trkpt lat="43.56623" lon="3.71642">
        <ele>71</ele>
        <time>2021-02-28T14:11:32Z</time>
      </trkpt>
      <trkpt lat="43.5662" lon="3.7164">
        <ele>71</ele>
        <time>2021-02-28T14:11:34Z</time>
      </trkpt>
      <trkpt lat="43.56618" lon="3.71638">
        <ele>71</ele>
        <time>2021-02-28T14:11:36Z</time>
      </trkpt>
      <trkpt lat="43.56615" lon="3.71635">
        <ele>71</ele>
        <time>2021-02-28T14:11:38Z</time>
      </trkpt>
      <trkpt lat="43.56613" lon="3.71635">
        <ele>71</ele>
        <time>2021-02-28T14:11:39Z</time>
      </trkpt>
      <trkpt lat="43.56611" lon="3.71634">
        <ele>71</ele>
        <time>2021-02-28T14:11:40Z</time>
      </trkpt>
      <trkpt lat="43.56608" lon="3.71632">
        <ele>71</ele>
        <time>2021-02-28T14:11:42Z</time>
      </trkpt>
      <trkpt lat="43.56606" lon="3.71631">
        <ele>71</ele>
        <time>2021-02-28T14:11:44Z</time>
      </trkpt>
      <trkpt lat="43.56603" lon="3.71629">
        <ele>71</ele>
        <time>2021-02-28T14:11:46Z</time>
      </trkpt>
      <trkpt lat="43.566" lon="3.71628">
        <ele>71</ele>
        <time>2021-02-28T14:11:48Z</time>
      </trkpt>
      <trkpt lat="43.56597" lon="3.71628">
        <ele>71</ele>
        <time>2021-02-28T14:11:50Z</time>
      </trkpt>
      <trkpt lat="43.56594" lon="3.71628">
        <ele>71</ele>
        <time>2021-02-28T14:11:52Z</time>
      </trkpt>
      <trkpt lat="43.5659" lon="3.71629">
        <ele>71</ele>
        <time>2021-02-28T14:11:54Z</time>
      </trkpt>
      <trkpt lat="43.56587" lon="3.71631">
        <ele>71</ele>
        <time>2021-02-28T14:11:56Z</time>
      </trkpt>
      <trkpt lat="43.56585" lon="3.71633">
        <ele>71</ele>
        <time>2021-02-28T14:11:58Z</time>
      </trkpt>
      <trkpt lat="43.56582" lon="3.71634">
        <ele>71</ele>
        <time>2021-02-28T14:12:00Z</time>
      </trkpt>
      <trkpt lat="43.56582" lon="3.71634">
        <ele>75</ele>
        <time>2021-02-28T14:12:07Z</time>
      </trkpt>
      <trkpt lat="43.56565" lon="3.71654">
        <ele>78</ele>
        <time>2021-02-28T14:12:43Z</time>
      </trkpt>
      <trkpt lat="43.56563" lon="3.71658">
        <ele>78</ele>
        <time>2021-02-28T14:12:45Z</time>
      </trkpt>
      <trkpt lat="43.56562" lon="3.7166">
        <ele>78</ele>
        <time>2021-02-28T14:12:46Z</time>
      </trkpt>
      <trkpt lat="43.5656" lon="3.71662">
        <ele>78</ele>
        <time>2021-02-28T14:12:47Z</time>
      </trkpt>
      <trkpt lat="43.56558" lon="3.71666">
        <ele>78</ele>
        <time>2021-02-28T14:12:49Z</time>
      </trkpt>
      <trkpt lat="43.56557" lon="3.71668">
        <ele>78</ele>
        <time>2021-02-28T14:12:50Z</time>
      </trkpt>
      <trkpt lat="43.56556" lon="3.7167">
        <ele>78</ele>
        <time>2021-02-28T14:12:51Z</time>
      </trkpt>
      <trkpt lat="43.56554" lon="3.71672">
        <ele>78</ele>
        <time>2021-02-28T14:12:52Z</time>
      </trkpt>
      <trkpt lat="43.56553" lon="3.71674">
        <ele>79</ele>
        <time>2021-02-28T14:12:53Z</time>
      </trkpt>
      <trkpt lat="43.56552" lon="3.71676">
        <ele>79</ele>
        <time>2021-02-28T14:12:54Z</time>
      </trkpt>
      <trkpt lat="43.56551" lon="3.71678">
        <ele>79</ele>
        <time>2021-02-28T14:12:55Z</time>
      </trkpt>
      <trkpt lat="43.56548" lon="3.71682">
        <ele>79</ele>
        <time>2021-02-28T14:12:57Z</time>
      </trkpt>
      <trkpt lat="43.56547" lon="3.71684">
        <ele>79</ele>
        <time>2021-02-28T14:12:58Z</time>
      </trkpt>
      <trkpt lat="43.56546" lon="3.71687">
        <ele>79</ele>
        <time>2021-02-28T14:13:00Z</time>
      </trkpt>
      <trkpt lat="43.56546" lon="3.71686">
        <ele>80</ele>
        <time>2021-02-28T14:13:07Z</time>
      </trkpt>
      <trkpt lat="43.56541" lon="3.71696">
        <ele>81</ele>
        <time>2021-02-28T14:13:24Z</time>
      </trkpt>
      <trkpt lat="43.56539" lon="3.71702">
        <ele>81</ele>
        <time>2021-02-28T14:13:25Z</time>
      </trkpt>
      <trkpt lat="43.56537" lon="3.71705">
        <ele>81</ele>
        <time>2021-02-28T14:13:26Z</time>
      </trkpt>
      <trkpt lat="43.56536" lon="3.71708">
        <ele>81</ele>
        <time>2021-02-28T14:13:27Z</time>
      </trkpt>
      <trkpt lat="43.56534" lon="3.71711">
        <ele>81</ele>
        <time>2021-02-28T14:13:28Z</time>
      </trkpt>
      <trkpt lat="43.56533" lon="3.71714">
        <ele>81</ele>
        <time>2021-02-28T14:13:29Z</time>
      </trkpt>
      <trkpt lat="43.56531" lon="3.71717">
        <ele>81</ele>
        <time>2021-02-28T14:13:30Z</time>
      </trkpt>
      <trkpt lat="43.5653" lon="3.71719">
        <ele>81</ele>
        <time>2021-02-28T14:13:31Z</time>
      </trkpt>
      <trkpt lat="43.56528" lon="3.71722">
        <ele>81</ele>
        <time>2021-02-28T14:13:32Z</time>
      </trkpt>
      <trkpt lat="43.56527" lon="3.71725">
        <ele>82</ele>
        <time>2021-02-28T14:13:33Z</time>
      </trkpt>
      <trkpt lat="43.56526" lon="3.71728">
        <ele>82</ele>
        <time>2021-02-28T14:13:34Z</time>
      </trkpt>
      <trkpt lat="43.56524" lon="3.71731">
        <ele>82</ele>
        <time>2021-02-28T14:13:35Z</time>
      </trkpt>
      <trkpt lat="43.56522" lon="3.71735">
        <ele>82</ele>
        <time>2021-02-28T14:13:36Z</time>
      </trkpt>
      <trkpt lat="43.5652" lon="3.71738">
        <ele>82</ele>
        <time>2021-02-28T14:13:37Z</time>
      </trkpt>
      <trkpt lat="43.56518" lon="3.71741">
        <ele>82</ele>
        <time>2021-02-28T14:13:38Z</time>
      </trkpt>
      <trkpt lat="43.56516" lon="3.71743">
        <ele>82</ele>
        <time>2021-02-28T14:13:39Z</time>
      </trkpt>
      <trkpt lat="43.56515" lon="3.71746">
        <ele>82</ele>
        <time>2021-02-28T14:13:40Z</time>
      </trkpt>
      <trkpt lat="43.56514" lon="3.71749">
        <ele>82</ele>
        <time>2021-02-28T14:13:41Z</time>
      </trkpt>
      <trkpt lat="43.56513" lon="3.71752">
        <ele>82</ele>
        <time>2021-02-28T14:13:42Z</time>
      </trkpt>
      <trkpt lat="43.56511" lon="3.71755">
        <ele>81</ele>
        <time>2021-02-28T14:13:43Z</time>
      </trkpt>
      <trkpt lat="43.56508" lon="3.71756">
        <ele>81</ele>
        <time>2021-02-28T14:13:44Z</time>
      </trkpt>
      <trkpt lat="43.56505" lon="3.71758">
        <ele>81</ele>
        <time>2021-02-28T14:13:45Z</time>
      </trkpt>
      <trkpt lat="43.56503" lon="3.71761">
        <ele>81</ele>
        <time>2021-02-28T14:13:46Z</time>
      </trkpt>
      <trkpt lat="43.565" lon="3.71763">
        <ele>81</ele>
        <time>2021-02-28T14:13:47Z</time>
      </trkpt>
      <trkpt lat="43.56498" lon="3.71766">
        <ele>81</ele>
        <time>2021-02-28T14:13:48Z</time>
      </trkpt>
      <trkpt lat="43.56496" lon="3.71768">
        <ele>81</ele>
        <time>2021-02-28T14:13:49Z</time>
      </trkpt>
      <trkpt lat="43.56494" lon="3.7177">
        <ele>81</ele>
        <time>2021-02-28T14:13:50Z</time>
      </trkpt>
      <trkpt lat="43.56494" lon="3.7177">
        <ele>80</ele>
        <time>2021-02-28T14:13:56Z</time>
      </trkpt>
      <trkpt lat="43.56483" lon="3.71773">
        <ele>79</ele>
        <time>2021-02-28T14:14:05Z</time>
      </trkpt>
      <trkpt lat="43.56481" lon="3.71774">
        <ele>79</ele>
        <time>2021-02-28T14:14:07Z</time>
      </trkpt>
      <trkpt lat="43.56477" lon="3.71774">
        <ele>79</ele>
        <time>2021-02-28T14:14:08Z</time>
      </trkpt>
      <trkpt lat="43.56475" lon="3.71774">
        <ele>79</ele>
        <time>2021-02-28T14:14:09Z</time>
      </trkpt>
      <trkpt lat="43.56469" lon="3.71772">
        <ele>79</ele>
        <time>2021-02-28T14:14:11Z</time>
      </trkpt>
      <trkpt lat="43.56466" lon="3.71771">
        <ele>79</ele>
        <time>2021-02-28T14:14:12Z</time>
      </trkpt>
      <trkpt lat="43.56463" lon="3.71769">
        <ele>79</ele>
        <time>2021-02-28T14:14:13Z</time>
      </trkpt>
      <trkpt lat="43.56457" lon="3.71766">
        <ele>77</ele>
        <time>2021-02-28T14:14:15Z</time>
      </trkpt>
      <trkpt lat="43.56451" lon="3.71762">
        <ele>77</ele>
        <time>2021-02-28T14:14:17Z</time>
      </trkpt>
      <trkpt lat="43.56448" lon="3.7176">
        <ele>77</ele>
        <time>2021-02-28T14:14:18Z</time>
      </trkpt>
      <trkpt lat="43.56445" lon="3.71759">
        <ele>77</ele>
        <time>2021-02-28T14:14:19Z</time>
      </trkpt>
      <trkpt lat="43.56443" lon="3.71758">
        <ele>77</ele>
        <time>2021-02-28T14:14:20Z</time>
      </trkpt>
      <trkpt lat="43.56441" lon="3.71757">
        <ele>77</ele>
        <time>2021-02-28T14:14:22Z</time>
      </trkpt>
      <trkpt lat="43.56439" lon="3.71756">
        <ele>75</ele>
        <time>2021-02-28T14:14:25Z</time>
      </trkpt>
      <trkpt lat="43.56436" lon="3.71754">
        <ele>75</ele>
        <time>2021-02-28T14:14:27Z</time>
      </trkpt>
      <trkpt lat="43.56434" lon="3.71753">
        <ele>75</ele>
        <time>2021-02-28T14:14:28Z</time>
      </trkpt>
      <trkpt lat="43.56431" lon="3.71752">
        <ele>75</ele>
        <time>2021-02-28T14:14:29Z</time>
      </trkpt>
      <trkpt lat="43.56428" lon="3.7175">
        <ele>75</ele>
        <time>2021-02-28T14:14:30Z</time>
      </trkpt>
      <trkpt lat="43.56424" lon="3.71749">
        <ele>75</ele>
        <time>2021-02-28T14:14:31Z</time>
      </trkpt>
      <trkpt lat="43.56421" lon="3.71748">
        <ele>75</ele>
        <time>2021-02-28T14:14:32Z</time>
      </trkpt>
      <trkpt lat="43.56417" lon="3.71747">
        <ele>75</ele>
        <time>2021-02-28T14:14:33Z</time>
      </trkpt>
      <trkpt lat="43.56413" lon="3.71745">
        <ele>75</ele>
        <time>2021-02-28T14:14:34Z</time>
      </trkpt>
      <trkpt lat="43.56406" lon="3.71741">
        <ele>75</ele>
        <time>2021-02-28T14:14:36Z</time>
      </trkpt>
      <trkpt lat="43.56403" lon="3.71741">
        <ele>75</ele>
        <time>2021-02-28T14:14:37Z</time>
      </trkpt>
      <trkpt lat="43.564" lon="3.7174">
        <ele>75</ele>
        <time>2021-02-28T14:14:38Z</time>
      </trkpt>
      <trkpt lat="43.56398" lon="3.71739">
        <ele>75</ele>
        <time>2021-02-28T14:14:39Z</time>
      </trkpt>
      <trkpt lat="43.56395" lon="3.71736">
        <ele>75</ele>
        <time>2021-02-28T14:14:41Z</time>
      </trkpt>
      <trkpt lat="43.56396" lon="3.71731">
        <ele>75</ele>
        <time>2021-02-28T14:14:43Z</time>
      </trkpt>
      <trkpt lat="43.56397" lon="3.71729">
        <ele>75</ele>
        <time>2021-02-28T14:14:44Z</time>
      </trkpt>
      <trkpt lat="43.56399" lon="3.71725">
        <ele>75</ele>
        <time>2021-02-28T14:14:46Z</time>
      </trkpt>
      <trkpt lat="43.564" lon="3.71723">
        <ele>75</ele>
        <time>2021-02-28T14:14:47Z</time>
      </trkpt>
      <trkpt lat="43.56402" lon="3.71719">
        <ele>75</ele>
        <time>2021-02-28T14:14:49Z</time>
      </trkpt>
      <trkpt lat="43.56403" lon="3.71715">
        <ele>75</ele>
        <time>2021-02-28T14:14:51Z</time>
      </trkpt>
      <trkpt lat="43.56405" lon="3.71711">
        <ele>75</ele>
        <time>2021-02-28T14:14:53Z</time>
      </trkpt>
      <trkpt lat="43.56407" lon="3.71709">
        <ele>75</ele>
        <time>2021-02-28T14:14:54Z</time>
      </trkpt>
      <trkpt lat="43.56408" lon="3.71706">
        <ele>72</ele>
        <time>2021-02-28T14:14:55Z</time>
      </trkpt>
      <trkpt lat="43.56409" lon="3.71703">
        <ele>72</ele>
        <time>2021-02-28T14:14:56Z</time>
      </trkpt>
      <trkpt lat="43.56411" lon="3.717">
        <ele>72</ele>
        <time>2021-02-28T14:14:57Z</time>
      </trkpt>
      <trkpt lat="43.56412" lon="3.71698">
        <ele>72</ele>
        <time>2021-02-28T14:14:58Z</time>
      </trkpt>
      <trkpt lat="43.56413" lon="3.71694">
        <ele>72</ele>
        <time>2021-02-28T14:15:00Z</time>
      </trkpt>
      <trkpt lat="43.56414" lon="3.71689">
        <ele>72</ele>
        <time>2021-02-28T14:15:02Z</time>
      </trkpt>
      <trkpt lat="43.56415" lon="3.71686">
        <ele>72</ele>
        <time>2021-02-28T14:15:03Z</time>
      </trkpt>
      <trkpt lat="43.56416" lon="3.71684">
        <ele>72</ele>
        <time>2021-02-28T14:15:04Z</time>
      </trkpt>
      <trkpt lat="43.56417" lon="3.71682">
        <ele>73</ele>
        <time>2021-02-28T14:15:05Z</time>
      </trkpt>
      <trkpt lat="43.56418" lon="3.71679">
        <ele>73</ele>
        <time>2021-02-28T14:15:06Z</time>
      </trkpt>
      <trkpt lat="43.56419" lon="3.71677">
        <ele>73</ele>
        <time>2021-02-28T14:15:07Z</time>
      </trkpt>
      <trkpt lat="43.5642" lon="3.71674">
        <ele>73</ele>
        <time>2021-02-28T14:15:08Z</time>
      </trkpt>
      <trkpt lat="43.5642" lon="3.71671">
        <ele>73</ele>
        <time>2021-02-28T14:15:09Z</time>
      </trkpt>
      <trkpt lat="43.56421" lon="3.71669">
        <ele>73</ele>
        <time>2021-02-28T14:15:10Z</time>
      </trkpt>
      <trkpt lat="43.56422" lon="3.71666">
        <ele>73</ele>
        <time>2021-02-28T14:15:11Z</time>
      </trkpt>
      <trkpt lat="43.56423" lon="3.71664">
        <ele>73</ele>
        <time>2021-02-28T14:15:12Z</time>
      </trkpt>
      <trkpt lat="43.56425" lon="3.71661">
        <ele>73</ele>
        <time>2021-02-28T14:15:13Z</time>
      </trkpt>
      <trkpt lat="43.56426" lon="3.71659">
        <ele>73</ele>
        <time>2021-02-28T14:15:14Z</time>
      </trkpt>
      <trkpt lat="43.56428" lon="3.71656">
        <ele>74</ele>
        <time>2021-02-28T14:15:15Z</time>
      </trkpt>
      <trkpt lat="43.56429" lon="3.71654">
        <ele>74</ele>
        <time>2021-02-28T14:15:16Z</time>
      </trkpt>
      <trkpt lat="43.5643" lon="3.71651">
        <ele>74</ele>
        <time>2021-02-28T14:15:17Z</time>
      </trkpt>
      <trkpt lat="43.56431" lon="3.71649">
        <ele>74</ele>
        <time>2021-02-28T14:15:18Z</time>
      </trkpt>
      <trkpt lat="43.56432" lon="3.71646">
        <ele>74</ele>
        <time>2021-02-28T14:15:19Z</time>
      </trkpt>
      <trkpt lat="43.56433" lon="3.71643">
        <ele>74</ele>
        <time>2021-02-28T14:15:20Z</time>
      </trkpt>
      <trkpt lat="43.56434" lon="3.71641">
        <ele>74</ele>
        <time>2021-02-28T14:15:21Z</time>
      </trkpt>
      <trkpt lat="43.56434" lon="3.71639">
        <ele>74</ele>
        <time>2021-02-28T14:15:22Z</time>
      </trkpt>
      <trkpt lat="43.56435" lon="3.71636">
        <ele>74</ele>
        <time>2021-02-28T14:15:23Z</time>
      </trkpt>
      <trkpt lat="43.56435" lon="3.71633">
        <ele>74</ele>
        <time>2021-02-28T14:15:24Z</time>
      </trkpt>
      <trkpt lat="43.56435" lon="3.7163">
        <ele>74</ele>
        <time>2021-02-28T14:15:25Z</time>
      </trkpt>
      <trkpt lat="43.56435" lon="3.71627">
        <ele>74</ele>
        <time>2021-02-28T14:15:26Z</time>
      </trkpt>
      <trkpt lat="43.56435" lon="3.71624">
        <ele>74</ele>
        <time>2021-02-28T14:15:27Z</time>
      </trkpt>
      <trkpt lat="43.56435" lon="3.71621">
        <ele>74</ele>
        <time>2021-02-28T14:15:28Z</time>
      </trkpt>
      <trkpt lat="43.56435" lon="3.71617">
        <ele>73</ele>
        <time>2021-02-28T14:15:34Z</time>
      </trkpt>
      <trkpt lat="43.5643" lon="3.71605">
        <ele>73</ele>
        <time>2021-02-28T14:15:38Z</time>
      </trkpt>
      <trkpt lat="43.56429" lon="3.71602">
        <ele>73</ele>
        <time>2021-02-28T14:15:40Z</time>
      </trkpt>
      <trkpt lat="43.56428" lon="3.716">
        <ele>73</ele>
        <time>2021-02-28T14:15:41Z</time>
      </trkpt>
      <trkpt lat="43.56427" lon="3.71597">
        <ele>73</ele>
        <time>2021-02-28T14:15:44Z</time>
      </trkpt>
      <trkpt lat="43.56429" lon="3.71595">
        <ele>73</ele>
        <time>2021-02-28T14:15:47Z</time>
      </trkpt>
      <trkpt lat="43.56431" lon="3.71595">
        <ele>73</ele>
        <time>2021-02-28T14:15:49Z</time>
      </trkpt>
      <trkpt lat="43.56432" lon="3.71595">
        <ele>73</ele>
        <time>2021-02-28T14:15:56Z</time>
      </trkpt>
      <trkpt lat="43.56425" lon="3.71597">
        <ele>74</ele>
        <time>2021-02-28T14:18:28Z</time>
      </trkpt>
      <trkpt lat="43.56423" lon="3.71595">
        <ele>74</ele>
        <time>2021-02-28T14:18:29Z</time>
      </trkpt>
      <trkpt lat="43.56421" lon="3.71594">
        <ele>74</ele>
        <time>2021-02-28T14:18:30Z</time>
      </trkpt>
      <trkpt lat="43.56417" lon="3.71592">
        <ele>74</ele>
        <time>2021-02-28T14:18:31Z</time>
      </trkpt>
      <trkpt lat="43.56415" lon="3.71591">
        <ele>74</ele>
        <time>2021-02-28T14:18:32Z</time>
      </trkpt>
      <trkpt lat="43.56414" lon="3.71591">
        <ele>74</ele>
        <time>2021-02-28T14:18:33Z</time>
      </trkpt>
      <trkpt lat="43.56412" lon="3.7159">
        <ele>74</ele>
        <time>2021-02-28T14:18:34Z</time>
      </trkpt>
      <trkpt lat="43.5641" lon="3.71589">
        <ele>74</ele>
        <time>2021-02-28T14:18:35Z</time>
      </trkpt>
      <trkpt lat="43.56408" lon="3.71589">
        <ele>74</ele>
        <time>2021-02-28T14:18:36Z</time>
      </trkpt>
      <trkpt lat="43.56405" lon="3.71588">
        <ele>73</ele>
        <time>2021-02-28T14:18:37Z</time>
      </trkpt>
      <trkpt lat="43.56402" lon="3.71587">
        <ele>73</ele>
        <time>2021-02-28T14:18:38Z</time>
      </trkpt>
      <trkpt lat="43.56398" lon="3.71582">
        <ele>73</ele>
        <time>2021-02-28T14:18:40Z</time>
      </trkpt>
      <trkpt lat="43.56398" lon="3.71578">
        <ele>73</ele>
        <time>2021-02-28T14:18:41Z</time>
      </trkpt>
      <trkpt lat="43.56398" lon="3.71575">
        <ele>73</ele>
        <time>2021-02-28T14:18:42Z</time>
      </trkpt>
      <trkpt lat="43.56399" lon="3.71572">
        <ele>73</ele>
        <time>2021-02-28T14:18:44Z</time>
      </trkpt>
      <trkpt lat="43.56399" lon="3.71569">
        <ele>73</ele>
        <time>2021-02-28T14:18:45Z</time>
      </trkpt>
      <trkpt lat="43.56399" lon="3.71566">
        <ele>73</ele>
        <time>2021-02-28T14:18:47Z</time>
      </trkpt>
      <trkpt lat="43.564" lon="3.71563">
        <ele>73</ele>
        <time>2021-02-28T14:18:48Z</time>
      </trkpt>
      <trkpt lat="43.56401" lon="3.71559">
        <ele>73</ele>
        <time>2021-02-28T14:18:49Z</time>
      </trkpt>
      <trkpt lat="43.56402" lon="3.71557">
        <ele>73</ele>
        <time>2021-02-28T14:18:50Z</time>
      </trkpt>
      <trkpt lat="43.56403" lon="3.71554">
        <ele>73</ele>
        <time>2021-02-28T14:18:51Z</time>
      </trkpt>
      <trkpt lat="43.56404" lon="3.71551">
        <ele>73</ele>
        <time>2021-02-28T14:18:52Z</time>
      </trkpt>
      <trkpt lat="43.56406" lon="3.71548">
        <ele>73</ele>
        <time>2021-02-28T14:18:53Z</time>
      </trkpt>
      <trkpt lat="43.56406" lon="3.71546">
        <ele>73</ele>
        <time>2021-02-28T14:18:54Z</time>
      </trkpt>
      <trkpt lat="43.56407" lon="3.71542">
        <ele>73</ele>
        <time>2021-02-28T14:18:56Z</time>
      </trkpt>
      <trkpt lat="43.56408" lon="3.7154">
        <ele>73</ele>
        <time>2021-02-28T14:18:59Z</time>
      </trkpt>
      <trkpt lat="43.56407" lon="3.71537">
        <ele>73</ele>
        <time>2021-02-28T14:19:01Z</time>
      </trkpt>
      <trkpt lat="43.56406" lon="3.71534">
        <ele>73</ele>
        <time>2021-02-28T14:19:02Z</time>
      </trkpt>
      <trkpt lat="43.56405" lon="3.71531">
        <ele>73</ele>
        <time>2021-02-28T14:19:03Z</time>
      </trkpt>
      <trkpt lat="43.56403" lon="3.71528">
        <ele>73</ele>
        <time>2021-02-28T14:19:04Z</time>
      </trkpt>
      <trkpt lat="43.56403" lon="3.71525">
        <ele>73</ele>
        <time>2021-02-28T14:19:05Z</time>
      </trkpt>
      <trkpt lat="43.56396" lon="3.71521">
        <ele>72</ele>
        <time>2021-02-28T14:21:00Z</time>
      </trkpt>
      <trkpt lat="43.56393" lon="3.71522">
        <ele>72</ele>
        <time>2021-02-28T14:21:02Z</time>
      </trkpt>
      <trkpt lat="43.56391" lon="3.71523">
        <ele>72</ele>
        <time>2021-02-28T14:21:03Z</time>
      </trkpt>
      <trkpt lat="43.56386" lon="3.71522">
        <ele>72</ele>
        <time>2021-02-28T14:21:05Z</time>
      </trkpt>
      <trkpt lat="43.56384" lon="3.71521">
        <ele>72</ele>
        <time>2021-02-28T14:21:06Z</time>
      </trkpt>
      <trkpt lat="43.56382" lon="3.7152">
        <ele>72</ele>
        <time>2021-02-28T14:21:08Z</time>
      </trkpt>
      <trkpt lat="43.56381" lon="3.71523">
        <ele>72</ele>
        <time>2021-02-28T14:21:12Z</time>
      </trkpt>
      <trkpt lat="43.56381" lon="3.71526">
        <ele>72</ele>
        <time>2021-02-28T14:21:14Z</time>
      </trkpt>
      <trkpt lat="43.5638" lon="3.71529">
        <ele>72</ele>
        <time>2021-02-28T14:21:16Z</time>
      </trkpt>
      <trkpt lat="43.56379" lon="3.71533">
        <ele>72</ele>
        <time>2021-02-28T14:21:18Z</time>
      </trkpt>
      <trkpt lat="43.56378" lon="3.71536">
        <ele>72</ele>
        <time>2021-02-28T14:21:19Z</time>
      </trkpt>
      <trkpt lat="43.56377" lon="3.71538">
        <ele>72</ele>
        <time>2021-02-28T14:21:20Z</time>
      </trkpt>
      <trkpt lat="43.56376" lon="3.71541">
        <ele>72</ele>
        <time>2021-02-28T14:21:21Z</time>
      </trkpt>
      <trkpt lat="43.56375" lon="3.71544">
        <ele>72</ele>
        <time>2021-02-28T14:21:22Z</time>
      </trkpt>
      <trkpt lat="43.56374" lon="3.71547">
        <ele>72</ele>
        <time>2021-02-28T14:21:23Z</time>
      </trkpt>
      <trkpt lat="43.56372" lon="3.71549">
        <ele>72</ele>
        <time>2021-02-28T14:21:24Z</time>
      </trkpt>
      <trkpt lat="43.5637" lon="3.71549">
        <ele>72</ele>
        <time>2021-02-28T14:21:27Z</time>
      </trkpt>
      <trkpt lat="43.56369" lon="3.71547">
        <ele>71</ele>
        <time>2021-02-28T14:21:29Z</time>
      </trkpt>
      <trkpt lat="43.56368" lon="3.71545">
        <ele>71</ele>
        <time>2021-02-28T14:21:30Z</time>
      </trkpt>
      <trkpt lat="43.56367" lon="3.71542">
        <ele>71</ele>
        <time>2021-02-28T14:21:31Z</time>
      </trkpt>
      <trkpt lat="43.56366" lon="3.7154">
        <ele>71</ele>
        <time>2021-02-28T14:21:32Z</time>
      </trkpt>
      <trkpt lat="43.56365" lon="3.71537">
        <ele>71</ele>
        <time>2021-02-28T14:21:33Z</time>
      </trkpt>
      <trkpt lat="43.56364" lon="3.71535">
        <ele>71</ele>
        <time>2021-02-28T14:21:34Z</time>
      </trkpt>
      <trkpt lat="43.56363" lon="3.71532">
        <ele>71</ele>
        <time>2021-02-28T14:21:36Z</time>
      </trkpt>
      <trkpt lat="43.56361" lon="3.7153">
        <ele>71</ele>
        <time>2021-02-28T14:21:38Z</time>
      </trkpt>
      <trkpt lat="43.56359" lon="3.7153">
        <ele>71</ele>
        <time>2021-02-28T14:21:40Z</time>
      </trkpt>
      <trkpt lat="43.56357" lon="3.71532">
        <ele>71</ele>
        <time>2021-02-28T14:21:42Z</time>
      </trkpt>
      <trkpt lat="43.56355" lon="3.71534">
        <ele>71</ele>
        <time>2021-02-28T14:21:44Z</time>
      </trkpt>
      <trkpt lat="43.56352" lon="3.71534">
        <ele>71</ele>
        <time>2021-02-28T14:21:46Z</time>
      </trkpt>
      <trkpt lat="43.5635" lon="3.71532">
        <ele>71</ele>
        <time>2021-02-28T14:21:48Z</time>
      </trkpt>
      <trkpt lat="43.56347" lon="3.71532">
        <ele>71</ele>
        <time>2021-02-28T14:21:50Z</time>
      </trkpt>
      <trkpt lat="43.56346" lon="3.71532">
        <ele>71</ele>
        <time>2021-02-28T14:21:51Z</time>
      </trkpt>
      <trkpt lat="43.56342" lon="3.71534">
        <ele>71</ele>
        <time>2021-02-28T14:21:53Z</time>
      </trkpt>
      <trkpt lat="43.56341" lon="3.71536">
        <ele>71</ele>
        <time>2021-02-28T14:21:54Z</time>
      </trkpt>
      <trkpt lat="43.56339" lon="3.71537">
        <ele>71</ele>
        <time>2021-02-28T14:21:55Z</time>
      </trkpt>
      <trkpt lat="43.56337" lon="3.71538">
        <ele>71</ele>
        <time>2021-02-28T14:21:56Z</time>
      </trkpt>
      <trkpt lat="43.56335" lon="3.71539">
        <ele>71</ele>
        <time>2021-02-28T14:21:57Z</time>
      </trkpt>
      <trkpt lat="43.56333" lon="3.71541">
        <ele>71</ele>
        <time>2021-02-28T14:21:58Z</time>
      </trkpt>
      <trkpt lat="43.56331" lon="3.71545">
        <ele>71</ele>
        <time>2021-02-28T14:22:00Z</time>
      </trkpt>
      <trkpt lat="43.56329" lon="3.71546">
        <ele>71</ele>
        <time>2021-02-28T14:22:01Z</time>
      </trkpt>
      <trkpt lat="43.56328" lon="3.71548">
        <ele>71</ele>
        <time>2021-02-28T14:22:02Z</time>
      </trkpt>
      <trkpt lat="43.56326" lon="3.7155">
        <ele>71</ele>
        <time>2021-02-28T14:22:03Z</time>
      </trkpt>
      <trkpt lat="43.56323" lon="3.71552">
        <ele>71</ele>
        <time>2021-02-28T14:22:05Z</time>
      </trkpt>
      <trkpt lat="43.56322" lon="3.71554">
        <ele>71</ele>
        <time>2021-02-28T14:22:06Z</time>
      </trkpt>
      <trkpt lat="43.5632" lon="3.71557">
        <ele>71</ele>
        <time>2021-02-28T14:22:07Z</time>
      </trkpt>
      <trkpt lat="43.56318" lon="3.7156">
        <ele>71</ele>
        <time>2021-02-28T14:22:08Z</time>
      </trkpt>
      <trkpt lat="43.56317" lon="3.71562">
        <ele>66</ele>
        <time>2021-02-28T14:22:09Z</time>
      </trkpt>
      <trkpt lat="43.56315" lon="3.71565">
        <ele>66</ele>
        <time>2021-02-28T14:22:10Z</time>
      </trkpt>
      <trkpt lat="43.56314" lon="3.71567">
        <ele>66</ele>
        <time>2021-02-28T14:22:11Z</time>
      </trkpt>
      <trkpt lat="43.56312" lon="3.7157">
        <ele>66</ele>
        <time>2021-02-28T14:22:12Z</time>
      </trkpt>
      <trkpt lat="43.56311" lon="3.71571">
        <ele>66</ele>
        <time>2021-02-28T14:22:13Z</time>
      </trkpt>
      <trkpt lat="43.56309" lon="3.71572">
        <ele>66</ele>
        <time>2021-02-28T14:22:14Z</time>
      </trkpt>
      <trkpt lat="43.56306" lon="3.71574">
        <ele>66</ele>
        <time>2021-02-28T14:22:16Z</time>
      </trkpt>
      <trkpt lat="43.56303" lon="3.71577">
        <ele>66</ele>
        <time>2021-02-28T14:22:18Z</time>
      </trkpt>
      <trkpt lat="43.56302" lon="3.71579">
        <ele>65</ele>
        <time>2021-02-28T14:22:19Z</time>
      </trkpt>
      <trkpt lat="43.56302" lon="3.71582">
        <ele>65</ele>
        <time>2021-02-28T14:22:20Z</time>
      </trkpt>
      <trkpt lat="43.56301" lon="3.71585">
        <ele>65</ele>
        <time>2021-02-28T14:22:21Z</time>
      </trkpt>
      <trkpt lat="43.563" lon="3.71588">
        <ele>65</ele>
        <time>2021-02-28T14:22:22Z</time>
      </trkpt>
      <trkpt lat="43.56299" lon="3.71591">
        <ele>65</ele>
        <time>2021-02-28T14:22:23Z</time>
      </trkpt>
      <trkpt lat="43.56298" lon="3.71592">
        <ele>65</ele>
        <time>2021-02-28T14:22:24Z</time>
      </trkpt>
      <trkpt lat="43.56296" lon="3.71592">
        <ele>65</ele>
        <time>2021-02-28T14:22:25Z</time>
      </trkpt>
      <trkpt lat="43.56294" lon="3.71591">
        <ele>65</ele>
        <time>2021-02-28T14:22:26Z</time>
      </trkpt>
      <trkpt lat="43.56292" lon="3.71591">
        <ele>65</ele>
        <time>2021-02-28T14:22:27Z</time>
      </trkpt>
      <trkpt lat="43.56289" lon="3.7159">
        <ele>65</ele>
        <time>2021-02-28T14:22:28Z</time>
      </trkpt>
      <trkpt lat="43.56287" lon="3.71588">
        <ele>64</ele>
        <time>2021-02-28T14:22:29Z</time>
      </trkpt>
      <trkpt lat="43.56285" lon="3.71587">
        <ele>64</ele>
        <time>2021-02-28T14:22:30Z</time>
      </trkpt>
      <trkpt lat="43.56283" lon="3.71589">
        <ele>64</ele>
        <time>2021-02-28T14:22:32Z</time>
      </trkpt>
      <trkpt lat="43.56282" lon="3.71593">
        <ele>64</ele>
        <time>2021-02-28T14:22:34Z</time>
      </trkpt>
      <trkpt lat="43.56281" lon="3.71596">
        <ele>64</ele>
        <time>2021-02-28T14:22:35Z</time>
      </trkpt>
      <trkpt lat="43.5628" lon="3.71599">
        <ele>64</ele>
        <time>2021-02-28T14:22:36Z</time>
      </trkpt>
      <trkpt lat="43.56279" lon="3.71601">
        <ele>64</ele>
        <time>2021-02-28T14:22:37Z</time>
      </trkpt>
      <trkpt lat="43.56278" lon="3.71605">
        <ele>64</ele>
        <time>2021-02-28T14:22:38Z</time>
      </trkpt>
      <trkpt lat="43.56278" lon="3.71608">
        <ele>63</ele>
        <time>2021-02-28T14:22:39Z</time>
      </trkpt>
      <trkpt lat="43.56277" lon="3.71611">
        <ele>63</ele>
        <time>2021-02-28T14:22:40Z</time>
      </trkpt>
      <trkpt lat="43.56277" lon="3.71613">
        <ele>63</ele>
        <time>2021-02-28T14:22:41Z</time>
      </trkpt>
      <trkpt lat="43.56276" lon="3.71617">
        <ele>63</ele>
        <time>2021-02-28T14:22:43Z</time>
      </trkpt>
      <trkpt lat="43.56274" lon="3.71621">
        <ele>63</ele>
        <time>2021-02-28T14:22:45Z</time>
      </trkpt>
      <trkpt lat="43.56274" lon="3.71623">
        <ele>63</ele>
        <time>2021-02-28T14:22:46Z</time>
      </trkpt>
      <trkpt lat="43.56272" lon="3.71625">
        <ele>63</ele>
        <time>2021-02-28T14:22:47Z</time>
      </trkpt>
      <trkpt lat="43.5627" lon="3.71626">
        <ele>63</ele>
        <time>2021-02-28T14:22:48Z</time>
      </trkpt>
      <trkpt lat="43.56268" lon="3.71624">
        <ele>62</ele>
        <time>2021-02-28T14:22:49Z</time>
      </trkpt>
      <trkpt lat="43.56267" lon="3.71622">
        <ele>62</ele>
        <time>2021-02-28T14:22:50Z</time>
      </trkpt>
      <trkpt lat="43.56265" lon="3.71619">
        <ele>62</ele>
        <time>2021-02-28T14:22:51Z</time>
      </trkpt>
      <trkpt lat="43.56263" lon="3.71616">
        <ele>62</ele>
        <time>2021-02-28T14:22:52Z</time>
      </trkpt>
      <trkpt lat="43.56262" lon="3.71613">
        <ele>62</ele>
        <time>2021-02-28T14:22:53Z</time>
      </trkpt>
      <trkpt lat="43.5626" lon="3.7161">
        <ele>62</ele>
        <time>2021-02-28T14:22:54Z</time>
      </trkpt>
      <trkpt lat="43.56259" lon="3.71607">
        <ele>62</ele>
        <time>2021-02-28T14:22:55Z</time>
      </trkpt>
      <trkpt lat="43.56257" lon="3.71604">
        <ele>62</ele>
        <time>2021-02-28T14:22:56Z</time>
      </trkpt>
      <trkpt lat="43.56255" lon="3.71601">
        <ele>62</ele>
        <time>2021-02-28T14:22:57Z</time>
      </trkpt>
      <trkpt lat="43.56252" lon="3.71597">
        <ele>62</ele>
        <time>2021-02-28T14:22:58Z</time>
      </trkpt>
      <trkpt lat="43.56249" lon="3.71593">
        <ele>60</ele>
        <time>2021-02-28T14:22:59Z</time>
      </trkpt>
      <trkpt lat="43.56246" lon="3.71588">
        <ele>60</ele>
        <time>2021-02-28T14:23:00Z</time>
      </trkpt>
      <trkpt lat="43.5624" lon="3.71578">
        <ele>60</ele>
        <time>2021-02-28T14:23:02Z</time>
      </trkpt>
      <trkpt lat="43.56237" lon="3.71574">
        <ele>60</ele>
        <time>2021-02-28T14:23:03Z</time>
      </trkpt>
      <trkpt lat="43.56234" lon="3.71569">
        <ele>60</ele>
        <time>2021-02-28T14:23:04Z</time>
      </trkpt>
      <trkpt lat="43.5623" lon="3.71566">
        <ele>60</ele>
        <time>2021-02-28T14:23:05Z</time>
      </trkpt>
      <trkpt lat="43.56226" lon="3.71563">
        <ele>60</ele>
        <time>2021-02-28T14:23:06Z</time>
      </trkpt>
      <trkpt lat="43.56222" lon="3.71562">
        <ele>60</ele>
        <time>2021-02-28T14:23:07Z</time>
      </trkpt>
      <trkpt lat="43.56217" lon="3.71561">
        <ele>60</ele>
        <time>2021-02-28T14:23:08Z</time>
      </trkpt>
      <trkpt lat="43.56212" lon="3.71558">
        <ele>58</ele>
        <time>2021-02-28T14:23:09Z</time>
      </trkpt>
      <trkpt lat="43.5621" lon="3.71554">
        <ele>58</ele>
        <time>2021-02-28T14:23:10Z</time>
      </trkpt>
      <trkpt lat="43.56208" lon="3.71551">
        <ele>58</ele>
        <time>2021-02-28T14:23:11Z</time>
      </trkpt>
      <trkpt lat="43.56214" lon="3.7156">
        <ele>56</ele>
        <time>2021-02-28T14:26:16Z</time>
      </trkpt>
      <trkpt lat="43.56216" lon="3.71563">
        <ele>56</ele>
        <time>2021-02-28T14:26:17Z</time>
      </trkpt>
      <trkpt lat="43.56218" lon="3.71565">
        <ele>56</ele>
        <time>2021-02-28T14:26:18Z</time>
      </trkpt>
      <trkpt lat="43.56219" lon="3.71567">
        <ele>56</ele>
        <time>2021-02-28T14:26:19Z</time>
      </trkpt>
      <trkpt lat="43.56221" lon="3.71569">
        <ele>56</ele>
        <time>2021-02-28T14:26:20Z</time>
      </trkpt>
      <trkpt lat="43.56223" lon="3.71572">
        <ele>56</ele>
        <time>2021-02-28T14:26:21Z</time>
      </trkpt>
      <trkpt lat="43.56225" lon="3.71574">
        <ele>56</ele>
        <time>2021-02-28T14:26:22Z</time>
      </trkpt>
      <trkpt lat="43.56227" lon="3.71577">
        <ele>56</ele>
        <time>2021-02-28T14:26:23Z</time>
      </trkpt>
      <trkpt lat="43.56229" lon="3.71579">
        <ele>56</ele>
        <time>2021-02-28T14:26:24Z</time>
      </trkpt>
      <trkpt lat="43.56231" lon="3.71582">
        <ele>56</ele>
        <time>2021-02-28T14:26:25Z</time>
      </trkpt>
      <trkpt lat="43.56233" lon="3.71584">
        <ele>56</ele>
        <time>2021-02-28T14:26:26Z</time>
      </trkpt>
      <trkpt lat="43.56235" lon="3.71587">
        <ele>56</ele>
        <time>2021-02-28T14:26:27Z</time>
      </trkpt>
      <trkpt lat="43.56237" lon="3.7159">
        <ele>56</ele>
        <time>2021-02-28T14:26:28Z</time>
      </trkpt>
      <trkpt lat="43.56239" lon="3.71592">
        <ele>56</ele>
        <time>2021-02-28T14:26:29Z</time>
      </trkpt>
      <trkpt lat="43.56241" lon="3.71595">
        <ele>56</ele>
        <time>2021-02-28T14:26:30Z</time>
      </trkpt>
      <trkpt lat="43.56243" lon="3.71599">
        <ele>56</ele>
        <time>2021-02-28T14:26:31Z</time>
      </trkpt>
      <trkpt lat="43.56244" lon="3.71602">
        <ele>56</ele>
        <time>2021-02-28T14:26:32Z</time>
      </trkpt>
      <trkpt lat="43.56246" lon="3.71604">
        <ele>56</ele>
        <time>2021-02-28T14:26:33Z</time>
      </trkpt>
      <trkpt lat="43.56248" lon="3.71607">
        <ele>56</ele>
        <time>2021-02-28T14:26:34Z</time>
      </trkpt>
      <trkpt lat="43.5625" lon="3.7161">
        <ele>57</ele>
        <time>2021-02-28T14:26:35Z</time>
      </trkpt>
      <trkpt lat="43.56252" lon="3.71614">
        <ele>57</ele>
        <time>2021-02-28T14:26:36Z</time>
      </trkpt>
      <trkpt lat="43.56254" lon="3.71617">
        <ele>57</ele>
        <time>2021-02-28T14:26:37Z</time>
      </trkpt>
      <trkpt lat="43.56256" lon="3.7162">
        <ele>57</ele>
        <time>2021-02-28T14:26:38Z</time>
      </trkpt>
      <trkpt lat="43.56258" lon="3.71624">
        <ele>57</ele>
        <time>2021-02-28T14:26:39Z</time>
      </trkpt>
      <trkpt lat="43.56259" lon="3.71627">
        <ele>57</ele>
        <time>2021-02-28T14:26:40Z</time>
      </trkpt>
      <trkpt lat="43.56261" lon="3.7163">
        <ele>57</ele>
        <time>2021-02-28T14:26:41Z</time>
      </trkpt>
      <trkpt lat="43.56263" lon="3.71634">
        <ele>57</ele>
        <time>2021-02-28T14:26:42Z</time>
      </trkpt>
      <trkpt lat="43.56265" lon="3.71637">
        <ele>57</ele>
        <time>2021-02-28T14:26:43Z</time>
      </trkpt>
      <trkpt lat="43.56267" lon="3.7164">
        <ele>57</ele>
        <time>2021-02-28T14:26:44Z</time>
      </trkpt>
      <trkpt lat="43.56268" lon="3.71643">
        <ele>57</ele>
        <time>2021-02-28T14:26:45Z</time>
      </trkpt>
      <trkpt lat="43.5627" lon="3.71646">
        <ele>57</ele>
        <time>2021-02-28T14:26:46Z</time>
      </trkpt>
      <trkpt lat="43.56272" lon="3.71649">
        <ele>57</ele>
        <time>2021-02-28T14:26:47Z</time>
      </trkpt>
      <trkpt lat="43.56274" lon="3.71653">
        <ele>57</ele>
        <time>2021-02-28T14:26:48Z</time>
      </trkpt>
      <trkpt lat="43.56275" lon="3.71656">
        <ele>57</ele>
        <time>2021-02-28T14:26:49Z</time>
      </trkpt>
      <trkpt lat="43.56277" lon="3.71659">
        <ele>57</ele>
        <time>2021-02-28T14:26:50Z</time>
      </trkpt>
      <trkpt lat="43.56278" lon="3.71663">
        <ele>57</ele>
        <time>2021-02-28T14:26:51Z</time>
      </trkpt>
      <trkpt lat="43.5628" lon="3.71666">
        <ele>57</ele>
        <time>2021-02-28T14:26:52Z</time>
      </trkpt>
      <trkpt lat="43.56282" lon="3.7167">
        <ele>57</ele>
        <time>2021-02-28T14:26:53Z</time>
      </trkpt>
      <trkpt lat="43.56284" lon="3.71673">
        <ele>57</ele>
        <time>2021-02-28T14:26:54Z</time>
      </trkpt>
      <trkpt lat="43.56285" lon="3.71676">
        <ele>57</ele>
        <time>2021-02-28T14:26:55Z</time>
      </trkpt>
      <trkpt lat="43.56287" lon="3.7168">
        <ele>57</ele>
        <time>2021-02-28T14:26:56Z</time>
      </trkpt>
      <trkpt lat="43.56288" lon="3.71683">
        <ele>57</ele>
        <time>2021-02-28T14:26:57Z</time>
      </trkpt>
      <trkpt lat="43.5629" lon="3.71687">
        <ele>57</ele>
        <time>2021-02-28T14:26:58Z</time>
      </trkpt>
      <trkpt lat="43.56292" lon="3.7169">
        <ele>57</ele>
        <time>2021-02-28T14:26:59Z</time>
      </trkpt>
      <trkpt lat="43.56294" lon="3.71694">
        <ele>57</ele>
        <time>2021-02-28T14:27:00Z</time>
      </trkpt>
      <trkpt lat="43.56295" lon="3.71697">
        <ele>57</ele>
        <time>2021-02-28T14:27:01Z</time>
      </trkpt>
      <trkpt lat="43.56297" lon="3.71701">
        <ele>57</ele>
        <time>2021-02-28T14:27:02Z</time>
      </trkpt>
      <trkpt lat="43.56298" lon="3.71705">
        <ele>57</ele>
        <time>2021-02-28T14:27:03Z</time>
      </trkpt>
      <trkpt lat="43.563" lon="3.71709">
        <ele>57</ele>
        <time>2021-02-28T14:27:04Z</time>
      </trkpt>
      <trkpt lat="43.56301" lon="3.71712">
        <ele>58</ele>
        <time>2021-02-28T14:27:05Z</time>
      </trkpt>
      <trkpt lat="43.56302" lon="3.71716">
        <ele>58</ele>
        <time>2021-02-28T14:27:06Z</time>
      </trkpt>
      <trkpt lat="43.56303" lon="3.7172">
        <ele>58</ele>
        <time>2021-02-28T14:27:07Z</time>
      </trkpt>
      <trkpt lat="43.56304" lon="3.71724">
        <ele>58</ele>
        <time>2021-02-28T14:27:08Z</time>
      </trkpt>
      <trkpt lat="43.56305" lon="3.71728">
        <ele>58</ele>
        <time>2021-02-28T14:27:09Z</time>
      </trkpt>
      <trkpt lat="43.56306" lon="3.71732">
        <ele>58</ele>
        <time>2021-02-28T14:27:10Z</time>
      </trkpt>
      <trkpt lat="43.56307" lon="3.71736">
        <ele>58</ele>
        <time>2021-02-28T14:27:11Z</time>
      </trkpt>
      <trkpt lat="43.5631" lon="3.71744">
        <ele>58</ele>
        <time>2021-02-28T14:27:13Z</time>
      </trkpt>
      <trkpt lat="43.56311" lon="3.71749">
        <ele>58</ele>
        <time>2021-02-28T14:27:14Z</time>
      </trkpt>
      <trkpt lat="43.56312" lon="3.71753">
        <ele>59</ele>
        <time>2021-02-28T14:27:15Z</time>
      </trkpt>
      <trkpt lat="43.56313" lon="3.71757">
        <ele>59</ele>
        <time>2021-02-28T14:27:16Z</time>
      </trkpt>
      <trkpt lat="43.56314" lon="3.71761">
        <ele>59</ele>
        <time>2021-02-28T14:27:17Z</time>
      </trkpt>
      <trkpt lat="43.56315" lon="3.71765">
        <ele>59</ele>
        <time>2021-02-28T14:27:18Z</time>
      </trkpt>
      <trkpt lat="43.56316" lon="3.71769">
        <ele>59</ele>
        <time>2021-02-28T14:27:19Z</time>
      </trkpt>
      <trkpt lat="43.56317" lon="3.71773">
        <ele>59</ele>
        <time>2021-02-28T14:27:20Z</time>
      </trkpt>
      <trkpt lat="43.56318" lon="3.71777">
        <ele>59</ele>
        <time>2021-02-28T14:27:21Z</time>
      </trkpt>
      <trkpt lat="43.56319" lon="3.71781">
        <ele>59</ele>
        <time>2021-02-28T14:27:22Z</time>
      </trkpt>
      <trkpt lat="43.56319" lon="3.71785">
        <ele>59</ele>
        <time>2021-02-28T14:27:23Z</time>
      </trkpt>
      <trkpt lat="43.5632" lon="3.71788">
        <ele>59</ele>
        <time>2021-02-28T14:27:24Z</time>
      </trkpt>
      <trkpt lat="43.56321" lon="3.71791">
        <ele>60</ele>
        <time>2021-02-28T14:27:25Z</time>
      </trkpt>
      <trkpt lat="43.56322" lon="3.71795">
        <ele>60</ele>
        <time>2021-02-28T14:27:26Z</time>
      </trkpt>
      <trkpt lat="43.56322" lon="3.71798">
        <ele>60</ele>
        <time>2021-02-28T14:27:27Z</time>
      </trkpt>
      <trkpt lat="43.56322" lon="3.71802">
        <ele>60</ele>
        <time>2021-02-28T14:27:28Z</time>
      </trkpt>
      <trkpt lat="43.56323" lon="3.71805">
        <ele>60</ele>
        <time>2021-02-28T14:27:29Z</time>
      </trkpt>
      <trkpt lat="43.56323" lon="3.71809">
        <ele>60</ele>
        <time>2021-02-28T14:27:30Z</time>
      </trkpt>
      <trkpt lat="43.56324" lon="3.71813">
        <ele>60</ele>
        <time>2021-02-28T14:27:31Z</time>
      </trkpt>
      <trkpt lat="43.56325" lon="3.71817">
        <ele>60</ele>
        <time>2021-02-28T14:27:32Z</time>
      </trkpt>
      <trkpt lat="43.56325" lon="3.71821">
        <ele>60</ele>
        <time>2021-02-28T14:27:33Z</time>
      </trkpt>
      <trkpt lat="43.56325" lon="3.71825">
        <ele>60</ele>
        <time>2021-02-28T14:27:34Z</time>
      </trkpt>
      <trkpt lat="43.56326" lon="3.71829">
        <ele>60</ele>
        <time>2021-02-28T14:27:35Z</time>
      </trkpt>
      <trkpt lat="43.56326" lon="3.71834">
        <ele>60</ele>
        <time>2021-02-28T14:27:36Z</time>
      </trkpt>
      <trkpt lat="43.56327" lon="3.71839">
        <ele>60</ele>
        <time>2021-02-28T14:27:37Z</time>
      </trkpt>
      <trkpt lat="43.56328" lon="3.71844">
        <ele>60</ele>
        <time>2021-02-28T14:27:38Z</time>
      </trkpt>
      <trkpt lat="43.56328" lon="3.71849">
        <ele>60</ele>
        <time>2021-02-28T14:27:39Z</time>
      </trkpt>
      <trkpt lat="43.56328" lon="3.71853">
        <ele>60</ele>
        <time>2021-02-28T14:27:40Z</time>
      </trkpt>
      <trkpt lat="43.56329" lon="3.71858">
        <ele>60</ele>
        <time>2021-02-28T14:27:41Z</time>
      </trkpt>
      <trkpt lat="43.56329" lon="3.71862">
        <ele>60</ele>
        <time>2021-02-28T14:27:42Z</time>
      </trkpt>
      <trkpt lat="43.5633" lon="3.71866">
        <ele>60</ele>
        <time>2021-02-28T14:27:43Z</time>
      </trkpt>
      <trkpt lat="43.5633" lon="3.7187">
        <ele>60</ele>
        <time>2021-02-28T14:27:44Z</time>
      </trkpt>
      <trkpt lat="43.56331" lon="3.71879">
        <ele>60</ele>
        <time>2021-02-28T14:27:46Z</time>
      </trkpt>
      <trkpt lat="43.56331" lon="3.71884">
        <ele>60</ele>
        <time>2021-02-28T14:27:47Z</time>
      </trkpt>
      <trkpt lat="43.56331" lon="3.71888">
        <ele>60</ele>
        <time>2021-02-28T14:27:48Z</time>
      </trkpt>
      <trkpt lat="43.56331" lon="3.71893">
        <ele>60</ele>
        <time>2021-02-28T14:27:49Z</time>
      </trkpt>
      <trkpt lat="43.56331" lon="3.71897">
        <ele>60</ele>
        <time>2021-02-28T14:27:50Z</time>
      </trkpt>
      <trkpt lat="43.56331" lon="3.71908">
        <ele>60</ele>
        <time>2021-02-28T14:27:52Z</time>
      </trkpt>
      <trkpt lat="43.56331" lon="3.71913">
        <ele>60</ele>
        <time>2021-02-28T14:27:53Z</time>
      </trkpt>
      <trkpt lat="43.56331" lon="3.71918">
        <ele>60</ele>
        <time>2021-02-28T14:27:54Z</time>
      </trkpt>
      <trkpt lat="43.56331" lon="3.71923">
        <ele>60</ele>
        <time>2021-02-28T14:27:55Z</time>
      </trkpt>
      <trkpt lat="43.5633" lon="3.71928">
        <ele>60</ele>
        <time>2021-02-28T14:27:56Z</time>
      </trkpt>
      <trkpt lat="43.5633" lon="3.71933">
        <ele>60</ele>
        <time>2021-02-28T14:27:57Z</time>
      </trkpt>
      <trkpt lat="43.5633" lon="3.71938">
        <ele>60</ele>
        <time>2021-02-28T14:27:58Z</time>
      </trkpt>
      <trkpt lat="43.5633" lon="3.71943">
        <ele>60</ele>
        <time>2021-02-28T14:27:59Z</time>
      </trkpt>
      <trkpt lat="43.5633" lon="3.71948">
        <ele>60</ele>
        <time>2021-02-28T14:28:00Z</time>
      </trkpt>
      <trkpt lat="43.56329" lon="3.71954">
        <ele>60</ele>
        <time>2021-02-28T14:28:01Z</time>
      </trkpt>
      <trkpt lat="43.56329" lon="3.71959">
        <ele>60</ele>
        <time>2021-02-28T14:28:02Z</time>
      </trkpt>
      <trkpt lat="43.56329" lon="3.71964">
        <ele>60</ele>
        <time>2021-02-28T14:28:03Z</time>
      </trkpt>
      <trkpt lat="43.56329" lon="3.71969">
        <ele>60</ele>
        <time>2021-02-28T14:28:04Z</time>
      </trkpt>
      <trkpt lat="43.56329" lon="3.71974">
        <ele>60</ele>
        <time>2021-02-28T14:28:05Z</time>
      </trkpt>
      <trkpt lat="43.56329" lon="3.71979">
        <ele>60</ele>
        <time>2021-02-28T14:28:06Z</time>
      </trkpt>
      <trkpt lat="43.56329" lon="3.71985">
        <ele>60</ele>
        <time>2021-02-28T14:28:07Z</time>
      </trkpt>
      <trkpt lat="43.56329" lon="3.7199">
        <ele>60</ele>
        <time>2021-02-28T14:28:08Z</time>
      </trkpt>
      <trkpt lat="43.5633" lon="3.71995">
        <ele>60</ele>
        <time>2021-02-28T14:28:09Z</time>
      </trkpt>
      <trkpt lat="43.56329" lon="3.72">
        <ele>60</ele>
        <time>2021-02-28T14:28:10Z</time>
      </trkpt>
      <trkpt lat="43.56329" lon="3.72006">
        <ele>60</ele>
        <time>2021-02-28T14:28:11Z</time>
      </trkpt>
      <trkpt lat="43.56329" lon="3.72011">
        <ele>60</ele>
        <time>2021-02-28T14:28:12Z</time>
      </trkpt>
      <trkpt lat="43.56329" lon="3.72016">
        <ele>60</ele>
        <time>2021-02-28T14:28:13Z</time>
      </trkpt>
      <trkpt lat="43.56329" lon="3.72021">
        <ele>60</ele>
        <time>2021-02-28T14:28:14Z</time>
      </trkpt>
      <trkpt lat="43.56329" lon="3.72026">
        <ele>60</ele>
        <time>2021-02-28T14:28:15Z</time>
      </trkpt>
      <trkpt lat="43.56329" lon="3.72031">
        <ele>60</ele>
        <time>2021-02-28T14:28:16Z</time>
      </trkpt>
      <trkpt lat="43.56329" lon="3.72036">
        <ele>60</ele>
        <time>2021-02-28T14:28:17Z</time>
      </trkpt>
      <trkpt lat="43.56329" lon="3.72041">
        <ele>60</ele>
        <time>2021-02-28T14:28:18Z</time>
      </trkpt>
      <trkpt lat="43.56329" lon="3.72046">
        <ele>60</ele>
        <time>2021-02-28T14:28:19Z</time>
      </trkpt>
      <trkpt lat="43.56329" lon="3.72051">
        <ele>60</ele>
        <time>2021-02-28T14:28:20Z</time>
      </trkpt>
      <trkpt lat="43.56329" lon="3.72056">
        <ele>60</ele>
        <time>2021-02-28T14:28:21Z</time>
      </trkpt>
      <trkpt lat="43.56329" lon="3.72061">
        <ele>60</ele>
        <time>2021-02-28T14:28:22Z</time>
      </trkpt>
      <trkpt lat="43.56329" lon="3.72066">
        <ele>60</ele>
        <time>2021-02-28T14:28:23Z</time>
      </trkpt>
      <trkpt lat="43.56329" lon="3.7207">
        <ele>60</ele>
        <time>2021-02-28T14:28:24Z</time>
      </trkpt>
      <trkpt lat="43.56329" lon="3.72075">
        <ele>59</ele>
        <time>2021-02-28T14:28:25Z</time>
      </trkpt>
      <trkpt lat="43.56329" lon="3.72079">
        <ele>59</ele>
        <time>2021-02-28T14:28:26Z</time>
      </trkpt>
      <trkpt lat="43.56329" lon="3.72083">
        <ele>59</ele>
        <time>2021-02-28T14:28:27Z</time>
      </trkpt>
      <trkpt lat="43.56329" lon="3.72086">
        <ele>59</ele>
        <time>2021-02-28T14:28:28Z</time>
      </trkpt>
      <trkpt lat="43.5633" lon="3.7209">
        <ele>59</ele>
        <time>2021-02-28T14:28:29Z</time>
      </trkpt>
      <trkpt lat="43.5633" lon="3.72094">
        <ele>59</ele>
        <time>2021-02-28T14:28:30Z</time>
      </trkpt>
      <trkpt lat="43.56329" lon="3.72099">
        <ele>59</ele>
        <time>2021-02-28T14:28:31Z</time>
      </trkpt>
      <trkpt lat="43.56329" lon="3.72103">
        <ele>59</ele>
        <time>2021-02-28T14:28:32Z</time>
      </trkpt>
      <trkpt lat="43.56329" lon="3.72107">
        <ele>59</ele>
        <time>2021-02-28T14:28:33Z</time>
      </trkpt>
      <trkpt lat="43.56329" lon="3.72112">
        <ele>59</ele>
        <time>2021-02-28T14:28:34Z</time>
      </trkpt>
      <trkpt lat="43.56329" lon="3.72116">
        <ele>58</ele>
        <time>2021-02-28T14:28:35Z</time>
      </trkpt>
      <trkpt lat="43.56329" lon="3.7212">
        <ele>58</ele>
        <time>2021-02-28T14:28:36Z</time>
      </trkpt>
      <trkpt lat="43.56329" lon="3.72124">
        <ele>58</ele>
        <time>2021-02-28T14:28:37Z</time>
      </trkpt>
      <trkpt lat="43.56329" lon="3.72128">
        <ele>58</ele>
        <time>2021-02-28T14:28:38Z</time>
      </trkpt>
      <trkpt lat="43.56329" lon="3.72131">
        <ele>58</ele>
        <time>2021-02-28T14:28:39Z</time>
      </trkpt>
      <trkpt lat="43.56329" lon="3.72135">
        <ele>58</ele>
        <time>2021-02-28T14:28:40Z</time>
      </trkpt>
      <trkpt lat="43.56329" lon="3.72139">
        <ele>58</ele>
        <time>2021-02-28T14:28:41Z</time>
      </trkpt>
      <trkpt lat="43.5633" lon="3.72143">
        <ele>58</ele>
        <time>2021-02-28T14:28:42Z</time>
      </trkpt>
      <trkpt lat="43.5633" lon="3.72147">
        <ele>58</ele>
        <time>2021-02-28T14:28:43Z</time>
      </trkpt>
      <trkpt lat="43.5633" lon="3.72152">
        <ele>58</ele>
        <time>2021-02-28T14:28:44Z</time>
      </trkpt>
      <trkpt lat="43.5633" lon="3.72156">
        <ele>58</ele>
        <time>2021-02-28T14:28:45Z</time>
      </trkpt>
      <trkpt lat="43.5633" lon="3.7216">
        <ele>58</ele>
        <time>2021-02-28T14:28:46Z</time>
      </trkpt>
      <trkpt lat="43.5633" lon="3.72163">
        <ele>58</ele>
        <time>2021-02-28T14:28:47Z</time>
      </trkpt>
      <trkpt lat="43.56331" lon="3.72167">
        <ele>58</ele>
        <time>2021-02-28T14:28:48Z</time>
      </trkpt>
      <trkpt lat="43.56331" lon="3.7217">
        <ele>58</ele>
        <time>2021-02-28T14:28:49Z</time>
      </trkpt>
      <trkpt lat="43.56331" lon="3.72174">
        <ele>58</ele>
        <time>2021-02-28T14:28:50Z</time>
      </trkpt>
      <trkpt lat="43.56331" lon="3.72177">
        <ele>58</ele>
        <time>2021-02-28T14:28:51Z</time>
      </trkpt>
      <trkpt lat="43.56332" lon="3.7218">
        <ele>58</ele>
        <time>2021-02-28T14:28:52Z</time>
      </trkpt>
      <trkpt lat="43.56332" lon="3.72183">
        <ele>58</ele>
        <time>2021-02-28T14:28:53Z</time>
      </trkpt>
      <trkpt lat="43.56333" lon="3.72191">
        <ele>57</ele>
        <time>2021-02-28T14:28:55Z</time>
      </trkpt>
      <trkpt lat="43.56333" lon="3.72195">
        <ele>57</ele>
        <time>2021-02-28T14:28:56Z</time>
      </trkpt>
      <trkpt lat="43.56334" lon="3.72199">
        <ele>57</ele>
        <time>2021-02-28T14:28:57Z</time>
      </trkpt>
      <trkpt lat="43.56334" lon="3.72202">
        <ele>57</ele>
        <time>2021-02-28T14:28:58Z</time>
      </trkpt>
      <trkpt lat="43.56334" lon="3.72206">
        <ele>57</ele>
        <time>2021-02-28T14:28:59Z</time>
      </trkpt>
      <trkpt lat="43.56334" lon="3.72209">
        <ele>57</ele>
        <time>2021-02-28T14:29:00Z</time>
      </trkpt>
      <trkpt lat="43.56334" lon="3.72213">
        <ele>57</ele>
        <time>2021-02-28T14:29:01Z</time>
      </trkpt>
      <trkpt lat="43.56335" lon="3.72216">
        <ele>57</ele>
        <time>2021-02-28T14:29:02Z</time>
      </trkpt>
      <trkpt lat="43.56335" lon="3.72219">
        <ele>57</ele>
        <time>2021-02-28T14:29:03Z</time>
      </trkpt>
      <trkpt lat="43.56336" lon="3.72223">
        <ele>58</ele>
        <time>2021-02-28T14:29:05Z</time>
      </trkpt>
      <trkpt lat="43.56336" lon="3.72226">
        <ele>58</ele>
        <time>2021-02-28T14:29:06Z</time>
      </trkpt>
      <trkpt lat="43.56337" lon="3.72229">
        <ele>58</ele>
        <time>2021-02-28T14:29:07Z</time>
      </trkpt>
      <trkpt lat="43.56337" lon="3.72232">
        <ele>58</ele>
        <time>2021-02-28T14:29:08Z</time>
      </trkpt>
      <trkpt lat="43.56338" lon="3.72236">
        <ele>58</ele>
        <time>2021-02-28T14:29:09Z</time>
      </trkpt>
      <trkpt lat="43.56339" lon="3.72239">
        <ele>58</ele>
        <time>2021-02-28T14:29:10Z</time>
      </trkpt>
      <trkpt lat="43.56341" lon="3.72243">
        <ele>58</ele>
        <time>2021-02-28T14:29:11Z</time>
      </trkpt>
      <trkpt lat="43.56342" lon="3.72247">
        <ele>58</ele>
        <time>2021-02-28T14:29:12Z</time>
      </trkpt>
      <trkpt lat="43.56342" lon="3.7225">
        <ele>58</ele>
        <time>2021-02-28T14:29:13Z</time>
      </trkpt>
      <trkpt lat="43.56343" lon="3.72254">
        <ele>58</ele>
        <time>2021-02-28T14:29:14Z</time>
      </trkpt>
      <trkpt lat="43.56344" lon="3.72257">
        <ele>58</ele>
        <time>2021-02-28T14:29:15Z</time>
      </trkpt>
      <trkpt lat="43.56345" lon="3.7226">
        <ele>58</ele>
        <time>2021-02-28T14:29:16Z</time>
      </trkpt>
      <trkpt lat="43.56346" lon="3.72264">
        <ele>58</ele>
        <time>2021-02-28T14:29:17Z</time>
      </trkpt>
      <trkpt lat="43.56346" lon="3.72267">
        <ele>58</ele>
        <time>2021-02-28T14:29:18Z</time>
      </trkpt>
      <trkpt lat="43.56347" lon="3.72272">
        <ele>58</ele>
        <time>2021-02-28T14:29:20Z</time>
      </trkpt>
      <trkpt lat="43.56348" lon="3.72275">
        <ele>58</ele>
        <time>2021-02-28T14:29:21Z</time>
      </trkpt>
      <trkpt lat="43.56349" lon="3.72278">
        <ele>58</ele>
        <time>2021-02-28T14:29:22Z</time>
      </trkpt>
      <trkpt lat="43.5635" lon="3.7228">
        <ele>58</ele>
        <time>2021-02-28T14:29:23Z</time>
      </trkpt>
      <trkpt lat="43.56351" lon="3.72283">
        <ele>58</ele>
        <time>2021-02-28T14:29:24Z</time>
      </trkpt>
      <trkpt lat="43.56352" lon="3.72287">
        <ele>58</ele>
        <time>2021-02-28T14:29:25Z</time>
      </trkpt>
      <trkpt lat="43.56354" lon="3.72293">
        <ele>58</ele>
        <time>2021-02-28T14:29:27Z</time>
      </trkpt>
      <trkpt lat="43.56355" lon="3.72296">
        <ele>58</ele>
        <time>2021-02-28T14:29:28Z</time>
      </trkpt>
      <trkpt lat="43.56357" lon="3.723">
        <ele>58</ele>
        <time>2021-02-28T14:29:29Z</time>
      </trkpt>
      <trkpt lat="43.56358" lon="3.72304">
        <ele>58</ele>
        <time>2021-02-28T14:29:30Z</time>
      </trkpt>
      <trkpt lat="43.5636" lon="3.72308">
        <ele>58</ele>
        <time>2021-02-28T14:29:31Z</time>
      </trkpt>
      <trkpt lat="43.56362" lon="3.72312">
        <ele>58</ele>
        <time>2021-02-28T14:29:32Z</time>
      </trkpt>
      <trkpt lat="43.56364" lon="3.72317">
        <ele>58</ele>
        <time>2021-02-28T14:29:33Z</time>
      </trkpt>
      <trkpt lat="43.56366" lon="3.72323">
        <ele>58</ele>
        <time>2021-02-28T14:29:34Z</time>
      </trkpt>
      <trkpt lat="43.56368" lon="3.72328">
        <ele>58</ele>
        <time>2021-02-28T14:29:35Z</time>
      </trkpt>
      <trkpt lat="43.56371" lon="3.72334">
        <ele>58</ele>
        <time>2021-02-28T14:29:36Z</time>
      </trkpt>
      <trkpt lat="43.56373" lon="3.72339">
        <ele>58</ele>
        <time>2021-02-28T14:29:37Z</time>
      </trkpt>
      <trkpt lat="43.56375" lon="3.72345">
        <ele>58</ele>
        <time>2021-02-28T14:29:38Z</time>
      </trkpt>
      <trkpt lat="43.56377" lon="3.7235">
        <ele>58</ele>
        <time>2021-02-28T14:29:39Z</time>
      </trkpt>
      <trkpt lat="43.56382" lon="3.72359">
        <ele>58</ele>
        <time>2021-02-28T14:29:41Z</time>
      </trkpt>
      <trkpt lat="43.56387" lon="3.72368">
        <ele>58</ele>
        <time>2021-02-28T14:29:43Z</time>
      </trkpt>
      <trkpt lat="43.5639" lon="3.72372">
        <ele>58</ele>
        <time>2021-02-28T14:29:44Z</time>
      </trkpt>
      <trkpt lat="43.56393" lon="3.72376">
        <ele>58</ele>
        <time>2021-02-28T14:29:45Z</time>
      </trkpt>
      <trkpt lat="43.56396" lon="3.72381">
        <ele>58</ele>
        <time>2021-02-28T14:29:46Z</time>
      </trkpt>
      <trkpt lat="43.564" lon="3.72386">
        <ele>58</ele>
        <time>2021-02-28T14:29:47Z</time>
      </trkpt>
      <trkpt lat="43.56403" lon="3.7239">
        <ele>58</ele>
        <time>2021-02-28T14:29:48Z</time>
      </trkpt>
      <trkpt lat="43.56406" lon="3.72394">
        <ele>58</ele>
        <time>2021-02-28T14:29:49Z</time>
      </trkpt>
      <trkpt lat="43.56409" lon="3.72399">
        <ele>58</ele>
        <time>2021-02-28T14:29:50Z</time>
      </trkpt>
      <trkpt lat="43.56412" lon="3.72403">
        <ele>58</ele>
        <time>2021-02-28T14:29:51Z</time>
      </trkpt>
      <trkpt lat="43.56415" lon="3.72407">
        <ele>58</ele>
        <time>2021-02-28T14:29:52Z</time>
      </trkpt>
      <trkpt lat="43.56417" lon="3.72411">
        <ele>58</ele>
        <time>2021-02-28T14:29:53Z</time>
      </trkpt>
      <trkpt lat="43.56421" lon="3.72415">
        <ele>58</ele>
        <time>2021-02-28T14:29:54Z</time>
      </trkpt>
      <trkpt lat="43.56424" lon="3.72419">
        <ele>58</ele>
        <time>2021-02-28T14:29:55Z</time>
      </trkpt>
      <trkpt lat="43.56427" lon="3.72423">
        <ele>58</ele>
        <time>2021-02-28T14:29:56Z</time>
      </trkpt>
      <trkpt lat="43.5643" lon="3.72426">
        <ele>58</ele>
        <time>2021-02-28T14:29:57Z</time>
      </trkpt>
      <trkpt lat="43.56433" lon="3.7243">
        <ele>58</ele>
        <time>2021-02-28T14:29:58Z</time>
      </trkpt>
      <trkpt lat="43.56439" lon="3.72435">
        <ele>58</ele>
        <time>2021-02-28T14:30:00Z</time>
      </trkpt>
      <trkpt lat="43.56442" lon="3.72438">
        <ele>58</ele>
        <time>2021-02-28T14:30:01Z</time>
      </trkpt>
      <trkpt lat="43.56445" lon="3.7244">
        <ele>58</ele>
        <time>2021-02-28T14:30:02Z</time>
      </trkpt>
      <trkpt lat="43.56449" lon="3.72443">
        <ele>58</ele>
        <time>2021-02-28T14:30:03Z</time>
      </trkpt>
      <trkpt lat="43.56452" lon="3.72446">
        <ele>58</ele>
        <time>2021-02-28T14:30:04Z</time>
      </trkpt>
      <trkpt lat="43.56456" lon="3.72449">
        <ele>58</ele>
        <time>2021-02-28T14:30:05Z</time>
      </trkpt>
      <trkpt lat="43.56459" lon="3.72452">
        <ele>58</ele>
        <time>2021-02-28T14:30:06Z</time>
      </trkpt>
      <trkpt lat="43.56463" lon="3.72456">
        <ele>58</ele>
        <time>2021-02-28T14:30:07Z</time>
      </trkpt>
      <trkpt lat="43.56466" lon="3.72459">
        <ele>58</ele>
        <time>2021-02-28T14:30:08Z</time>
      </trkpt>
      <trkpt lat="43.5647" lon="3.72462">
        <ele>58</ele>
        <time>2021-02-28T14:30:09Z</time>
      </trkpt>
      <trkpt lat="43.56473" lon="3.72466">
        <ele>58</ele>
        <time>2021-02-28T14:30:10Z</time>
      </trkpt>
      <trkpt lat="43.56477" lon="3.72469">
        <ele>58</ele>
        <time>2021-02-28T14:30:11Z</time>
      </trkpt>
      <trkpt lat="43.5648" lon="3.72472">
        <ele>58</ele>
        <time>2021-02-28T14:30:12Z</time>
      </trkpt>
      <trkpt lat="43.56484" lon="3.72476">
        <ele>58</ele>
        <time>2021-02-28T14:30:13Z</time>
      </trkpt>
      <trkpt lat="43.56487" lon="3.72479">
        <ele>58</ele>
        <time>2021-02-28T14:30:14Z</time>
      </trkpt>
      <trkpt lat="43.56491" lon="3.72482">
        <ele>58</ele>
        <time>2021-02-28T14:30:15Z</time>
      </trkpt>
      <trkpt lat="43.56494" lon="3.72486">
        <ele>58</ele>
        <time>2021-02-28T14:30:16Z</time>
      </trkpt>
      <trkpt lat="43.56498" lon="3.72489">
        <ele>58</ele>
        <time>2021-02-28T14:30:17Z</time>
      </trkpt>
      <trkpt lat="43.56501" lon="3.72492">
        <ele>58</ele>
        <time>2021-02-28T14:30:18Z</time>
      </trkpt>
      <trkpt lat="43.56505" lon="3.72495">
        <ele>58</ele>
        <time>2021-02-28T14:30:19Z</time>
      </trkpt>
      <trkpt lat="43.56508" lon="3.72499">
        <ele>58</ele>
        <time>2021-02-28T14:30:20Z</time>
      </trkpt>
      <trkpt lat="43.56512" lon="3.72502">
        <ele>58</ele>
        <time>2021-02-28T14:30:21Z</time>
      </trkpt>
      <trkpt lat="43.56515" lon="3.72506">
        <ele>58</ele>
        <time>2021-02-28T14:30:22Z</time>
      </trkpt>
      <trkpt lat="43.56519" lon="3.72509">
        <ele>58</ele>
        <time>2021-02-28T14:30:23Z</time>
      </trkpt>
      <trkpt lat="43.56522" lon="3.72513">
        <ele>58</ele>
        <time>2021-02-28T14:30:24Z</time>
      </trkpt>
      <trkpt lat="43.56525" lon="3.72516">
        <ele>58</ele>
        <time>2021-02-28T14:30:25Z</time>
      </trkpt>
      <trkpt lat="43.56528" lon="3.72519">
        <ele>58</ele>
        <time>2021-02-28T14:30:26Z</time>
      </trkpt>
      <trkpt lat="43.56531" lon="3.72523">
        <ele>58</ele>
        <time>2021-02-28T14:30:27Z</time>
      </trkpt>
      <trkpt lat="43.56534" lon="3.72526">
        <ele>58</ele>
        <time>2021-02-28T14:30:28Z</time>
      </trkpt>
      <trkpt lat="43.56537" lon="3.7253">
        <ele>58</ele>
        <time>2021-02-28T14:30:29Z</time>
      </trkpt>
      <trkpt lat="43.5654" lon="3.72533">
        <ele>58</ele>
        <time>2021-02-28T14:30:30Z</time>
      </trkpt>
      <trkpt lat="43.56543" lon="3.72537">
        <ele>58</ele>
        <time>2021-02-28T14:30:31Z</time>
      </trkpt>
      <trkpt lat="43.56545" lon="3.72541">
        <ele>58</ele>
        <time>2021-02-28T14:30:32Z</time>
      </trkpt>
      <trkpt lat="43.56548" lon="3.72545">
        <ele>58</ele>
        <time>2021-02-28T14:30:33Z</time>
      </trkpt>
      <trkpt lat="43.56551" lon="3.72549">
        <ele>58</ele>
        <time>2021-02-28T14:30:34Z</time>
      </trkpt>
      <trkpt lat="43.56554" lon="3.72553">
        <ele>58</ele>
        <time>2021-02-28T14:30:35Z</time>
      </trkpt>
      <trkpt lat="43.56557" lon="3.72557">
        <ele>58</ele>
        <time>2021-02-28T14:30:36Z</time>
      </trkpt>
      <trkpt lat="43.5656" lon="3.7256">
        <ele>58</ele>
        <time>2021-02-28T14:30:37Z</time>
      </trkpt>
      <trkpt lat="43.56563" lon="3.72564">
        <ele>58</ele>
        <time>2021-02-28T14:30:38Z</time>
      </trkpt>
      <trkpt lat="43.56566" lon="3.72567">
        <ele>58</ele>
        <time>2021-02-28T14:30:39Z</time>
      </trkpt>
      <trkpt lat="43.56569" lon="3.7257">
        <ele>58</ele>
        <time>2021-02-28T14:30:40Z</time>
      </trkpt>
      <trkpt lat="43.56571" lon="3.72572">
        <ele>58</ele>
        <time>2021-02-28T14:30:41Z</time>
      </trkpt>
      <trkpt lat="43.56574" lon="3.72575">
        <ele>58</ele>
        <time>2021-02-28T14:30:42Z</time>
      </trkpt>
      <trkpt lat="43.56577" lon="3.72577">
        <ele>58</ele>
        <time>2021-02-28T14:30:43Z</time>
      </trkpt>
      <trkpt lat="43.5658" lon="3.72579">
        <ele>58</ele>
        <time>2021-02-28T14:30:44Z</time>
      </trkpt>
      <trkpt lat="43.56583" lon="3.72581">
        <ele>59</ele>
        <time>2021-02-28T14:30:45Z</time>
      </trkpt>
      <trkpt lat="43.56585" lon="3.72582">
        <ele>59</ele>
        <time>2021-02-28T14:30:46Z</time>
      </trkpt>
      <trkpt lat="43.56587" lon="3.72584">
        <ele>59</ele>
        <time>2021-02-28T14:30:49Z</time>
      </trkpt>
      <trkpt lat="43.5659" lon="3.72587">
        <ele>59</ele>
        <time>2021-02-28T14:30:50Z</time>
      </trkpt>
      <trkpt lat="43.56592" lon="3.72588">
        <ele>59</ele>
        <time>2021-02-28T14:30:51Z</time>
      </trkpt>
      <trkpt lat="43.56594" lon="3.7259">
        <ele>59</ele>
        <time>2021-02-28T14:30:52Z</time>
      </trkpt>
      <trkpt lat="43.56597" lon="3.72593">
        <ele>59</ele>
        <time>2021-02-28T14:30:53Z</time>
      </trkpt>
      <trkpt lat="43.56599" lon="3.72595">
        <ele>59</ele>
        <time>2021-02-28T14:30:54Z</time>
      </trkpt>
      <trkpt lat="43.56602" lon="3.72597">
        <ele>60</ele>
        <time>2021-02-28T14:30:55Z</time>
      </trkpt>
      <trkpt lat="43.56605" lon="3.72599">
        <ele>60</ele>
        <time>2021-02-28T14:30:56Z</time>
      </trkpt>
      <trkpt lat="43.56608" lon="3.72602">
        <ele>60</ele>
        <time>2021-02-28T14:30:57Z</time>
      </trkpt>
      <trkpt lat="43.5661" lon="3.72605">
        <ele>60</ele>
        <time>2021-02-28T14:30:58Z</time>
      </trkpt>
      <trkpt lat="43.56614" lon="3.72608">
        <ele>60</ele>
        <time>2021-02-28T14:30:59Z</time>
      </trkpt>
      <trkpt lat="43.56617" lon="3.72611">
        <ele>60</ele>
        <time>2021-02-28T14:31:00Z</time>
      </trkpt>
      <trkpt lat="43.56623" lon="3.72618">
        <ele>60</ele>
        <time>2021-02-28T14:31:02Z</time>
      </trkpt>
      <trkpt lat="43.56625" lon="3.72622">
        <ele>60</ele>
        <time>2021-02-28T14:31:03Z</time>
      </trkpt>
      <trkpt lat="43.56628" lon="3.72627">
        <ele>60</ele>
        <time>2021-02-28T14:31:04Z</time>
      </trkpt>
      <trkpt lat="43.56631" lon="3.72631">
        <ele>59</ele>
        <time>2021-02-28T14:31:05Z</time>
      </trkpt>
      <trkpt lat="43.56634" lon="3.72635">
        <ele>59</ele>
        <time>2021-02-28T14:31:06Z</time>
      </trkpt>
      <trkpt lat="43.56638" lon="3.72638">
        <ele>59</ele>
        <time>2021-02-28T14:31:07Z</time>
      </trkpt>
      <trkpt lat="43.56642" lon="3.72642">
        <ele>59</ele>
        <time>2021-02-28T14:31:08Z</time>
      </trkpt>
      <trkpt lat="43.56645" lon="3.72645">
        <ele>59</ele>
        <time>2021-02-28T14:31:09Z</time>
      </trkpt>
      <trkpt lat="43.56653" lon="3.72653">
        <ele>59</ele>
        <time>2021-02-28T14:31:11Z</time>
      </trkpt>
      <trkpt lat="43.56657" lon="3.72656">
        <ele>59</ele>
        <time>2021-02-28T14:31:12Z</time>
      </trkpt>
      <trkpt lat="43.56661" lon="3.7266">
        <ele>59</ele>
        <time>2021-02-28T14:31:13Z</time>
      </trkpt>
      <trkpt lat="43.56664" lon="3.72663">
        <ele>59</ele>
        <time>2021-02-28T14:31:14Z</time>
      </trkpt>
      <trkpt lat="43.56668" lon="3.72666">
        <ele>59</ele>
        <time>2021-02-28T14:31:15Z</time>
      </trkpt>
      <trkpt lat="43.56672" lon="3.7267">
        <ele>59</ele>
        <time>2021-02-28T14:31:16Z</time>
      </trkpt>
      <trkpt lat="43.56676" lon="3.72674">
        <ele>59</ele>
        <time>2021-02-28T14:31:17Z</time>
      </trkpt>
      <trkpt lat="43.56679" lon="3.72678">
        <ele>59</ele>
        <time>2021-02-28T14:31:18Z</time>
      </trkpt>
      <trkpt lat="43.56683" lon="3.72683">
        <ele>59</ele>
        <time>2021-02-28T14:31:19Z</time>
      </trkpt>
      <trkpt lat="43.56686" lon="3.72687">
        <ele>59</ele>
        <time>2021-02-28T14:31:20Z</time>
      </trkpt>
      <trkpt lat="43.56689" lon="3.72691">
        <ele>59</ele>
        <time>2021-02-28T14:31:21Z</time>
      </trkpt>
      <trkpt lat="43.56691" lon="3.72695">
        <ele>59</ele>
        <time>2021-02-28T14:31:22Z</time>
      </trkpt>
      <trkpt lat="43.56694" lon="3.72698">
        <ele>59</ele>
        <time>2021-02-28T14:31:23Z</time>
      </trkpt>
      <trkpt lat="43.56697" lon="3.72701">
        <ele>59</ele>
        <time>2021-02-28T14:31:24Z</time>
      </trkpt>
      <trkpt lat="43.567" lon="3.72705">
        <ele>58</ele>
        <time>2021-02-28T14:31:25Z</time>
      </trkpt>
      <trkpt lat="43.56702" lon="3.72709">
        <ele>58</ele>
        <time>2021-02-28T14:31:26Z</time>
      </trkpt>
      <trkpt lat="43.56705" lon="3.72713">
        <ele>58</ele>
        <time>2021-02-28T14:31:27Z</time>
      </trkpt>
      <trkpt lat="43.56707" lon="3.72716">
        <ele>58</ele>
        <time>2021-02-28T14:31:28Z</time>
      </trkpt>
      <trkpt lat="43.5671" lon="3.72718">
        <ele>58</ele>
        <time>2021-02-28T14:31:29Z</time>
      </trkpt>
      <trkpt lat="43.56713" lon="3.72719">
        <ele>58</ele>
        <time>2021-02-28T14:31:30Z</time>
      </trkpt>
      <trkpt lat="43.56716" lon="3.72721">
        <ele>58</ele>
        <time>2021-02-28T14:31:31Z</time>
      </trkpt>
      <trkpt lat="43.56719" lon="3.72722">
        <ele>58</ele>
        <time>2021-02-28T14:31:32Z</time>
      </trkpt>
      <trkpt lat="43.56723" lon="3.72725">
        <ele>58</ele>
        <time>2021-02-28T14:31:33Z</time>
      </trkpt>
      <trkpt lat="43.56727" lon="3.72727">
        <ele>58</ele>
        <time>2021-02-28T14:31:34Z</time>
      </trkpt>
      <trkpt lat="43.5673" lon="3.7273">
        <ele>58</ele>
        <time>2021-02-28T14:31:35Z</time>
      </trkpt>
      <trkpt lat="43.56738" lon="3.72737">
        <ele>58</ele>
        <time>2021-02-28T14:31:37Z</time>
      </trkpt>
      <trkpt lat="43.56741" lon="3.72741">
        <ele>58</ele>
        <time>2021-02-28T14:31:38Z</time>
      </trkpt>
      <trkpt lat="43.56744" lon="3.72745">
        <ele>58</ele>
        <time>2021-02-28T14:31:39Z</time>
      </trkpt>
      <trkpt lat="43.56748" lon="3.7275">
        <ele>58</ele>
        <time>2021-02-28T14:31:40Z</time>
      </trkpt>
      <trkpt lat="43.56755" lon="3.72758">
        <ele>58</ele>
        <time>2021-02-28T14:31:42Z</time>
      </trkpt>
      <trkpt lat="43.56758" lon="3.72762">
        <ele>58</ele>
        <time>2021-02-28T14:31:43Z</time>
      </trkpt>
      <trkpt lat="43.56761" lon="3.72765">
        <ele>58</ele>
        <time>2021-02-28T14:31:44Z</time>
      </trkpt>
      <trkpt lat="43.56764" lon="3.72768">
        <ele>58</ele>
        <time>2021-02-28T14:31:45Z</time>
      </trkpt>
      <trkpt lat="43.56767" lon="3.72772">
        <ele>58</ele>
        <time>2021-02-28T14:31:46Z</time>
      </trkpt>
      <trkpt lat="43.5677" lon="3.72775">
        <ele>58</ele>
        <time>2021-02-28T14:31:47Z</time>
      </trkpt>
      <trkpt lat="43.56773" lon="3.72779">
        <ele>58</ele>
        <time>2021-02-28T14:31:48Z</time>
      </trkpt>
      <trkpt lat="43.56776" lon="3.72782">
        <ele>58</ele>
        <time>2021-02-28T14:31:49Z</time>
      </trkpt>
      <trkpt lat="43.56782" lon="3.72789">
        <ele>58</ele>
        <time>2021-02-28T14:31:51Z</time>
      </trkpt>
      <trkpt lat="43.56784" lon="3.72793">
        <ele>58</ele>
        <time>2021-02-28T14:31:52Z</time>
      </trkpt>
      <trkpt lat="43.56787" lon="3.72796">
        <ele>58</ele>
        <time>2021-02-28T14:31:53Z</time>
      </trkpt>
      <trkpt lat="43.56791" lon="3.72804">
        <ele>58</ele>
        <time>2021-02-28T14:31:55Z</time>
      </trkpt>
      <trkpt lat="43.56793" lon="3.72807">
        <ele>58</ele>
        <time>2021-02-28T14:31:56Z</time>
      </trkpt>
      <trkpt lat="43.56795" lon="3.72811">
        <ele>58</ele>
        <time>2021-02-28T14:31:57Z</time>
      </trkpt>
      <trkpt lat="43.56797" lon="3.72814">
        <ele>58</ele>
        <time>2021-02-28T14:31:59Z</time>
      </trkpt>
      <trkpt lat="43.56802" lon="3.72821">
        <ele>58</ele>
        <time>2021-02-28T14:32:00Z</time>
      </trkpt>
      <trkpt lat="43.56805" lon="3.72824">
        <ele>58</ele>
        <time>2021-02-28T14:32:01Z</time>
      </trkpt>
      <trkpt lat="43.56807" lon="3.72827">
        <ele>58</ele>
        <time>2021-02-28T14:32:02Z</time>
      </trkpt>
      <trkpt lat="43.56812" lon="3.72834">
        <ele>58</ele>
        <time>2021-02-28T14:32:04Z</time>
      </trkpt>
      <trkpt lat="43.56815" lon="3.72837">
        <ele>59</ele>
        <time>2021-02-28T14:32:05Z</time>
      </trkpt>
      <trkpt lat="43.56817" lon="3.72841">
        <ele>59</ele>
        <time>2021-02-28T14:32:06Z</time>
      </trkpt>
      <trkpt lat="43.5682" lon="3.72844">
        <ele>59</ele>
        <time>2021-02-28T14:32:07Z</time>
      </trkpt>
      <trkpt lat="43.56822" lon="3.72848">
        <ele>59</ele>
        <time>2021-02-28T14:32:08Z</time>
      </trkpt>
      <trkpt lat="43.56824" lon="3.72851">
        <ele>59</ele>
        <time>2021-02-28T14:32:09Z</time>
      </trkpt>
      <trkpt lat="43.56826" lon="3.72855">
        <ele>59</ele>
        <time>2021-02-28T14:32:10Z</time>
      </trkpt>
      <trkpt lat="43.56828" lon="3.72858">
        <ele>59</ele>
        <time>2021-02-28T14:32:11Z</time>
      </trkpt>
      <trkpt lat="43.5683" lon="3.72861">
        <ele>59</ele>
        <time>2021-02-28T14:32:12Z</time>
      </trkpt>
      <trkpt lat="43.56832" lon="3.72864">
        <ele>59</ele>
        <time>2021-02-28T14:32:13Z</time>
      </trkpt>
      <trkpt lat="43.56834" lon="3.72867">
        <ele>59</ele>
        <time>2021-02-28T14:32:14Z</time>
      </trkpt>
      <trkpt lat="43.56836" lon="3.7287">
        <ele>60</ele>
        <time>2021-02-28T14:32:15Z</time>
      </trkpt>
      <trkpt lat="43.56838" lon="3.72873">
        <ele>60</ele>
        <time>2021-02-28T14:32:16Z</time>
      </trkpt>
      <trkpt lat="43.5684" lon="3.72876">
        <ele>60</ele>
        <time>2021-02-28T14:32:17Z</time>
      </trkpt>
      <trkpt lat="43.56843" lon="3.72878">
        <ele>60</ele>
        <time>2021-02-28T14:32:18Z</time>
      </trkpt>
      <trkpt lat="43.56845" lon="3.7288">
        <ele>60</ele>
        <time>2021-02-28T14:32:19Z</time>
      </trkpt>
      <trkpt lat="43.56847" lon="3.72881">
        <ele>60</ele>
        <time>2021-02-28T14:32:20Z</time>
      </trkpt>
      <trkpt lat="43.56848" lon="3.72882">
        <ele>60</ele>
        <time>2021-02-28T14:32:21Z</time>
      </trkpt>
      <trkpt lat="43.56851" lon="3.72884">
        <ele>60</ele>
        <time>2021-02-28T14:32:23Z</time>
      </trkpt>
      <trkpt lat="43.56853" lon="3.72886">
        <ele>60</ele>
        <time>2021-02-28T14:32:26Z</time>
      </trkpt>
      <trkpt lat="43.56855" lon="3.72888">
        <ele>60</ele>
        <time>2021-02-28T14:32:28Z</time>
      </trkpt>
      <trkpt lat="43.56857" lon="3.72891">
        <ele>60</ele>
        <time>2021-02-28T14:32:30Z</time>
      </trkpt>
      <trkpt lat="43.56859" lon="3.72893">
        <ele>60</ele>
        <time>2021-02-28T14:32:31Z</time>
      </trkpt>
      <trkpt lat="43.5686" lon="3.72896">
        <ele>60</ele>
        <time>2021-02-28T14:32:32Z</time>
      </trkpt>
      <trkpt lat="43.56863" lon="3.72899">
        <ele>60</ele>
        <time>2021-02-28T14:32:33Z</time>
      </trkpt>
      <trkpt lat="43.56865" lon="3.72903">
        <ele>60</ele>
        <time>2021-02-28T14:32:34Z</time>
      </trkpt>
      <trkpt lat="43.56867" lon="3.72907">
        <ele>61</ele>
        <time>2021-02-28T14:32:35Z</time>
      </trkpt>
      <trkpt lat="43.56869" lon="3.72911">
        <ele>61</ele>
        <time>2021-02-28T14:32:36Z</time>
      </trkpt>
      <trkpt lat="43.5687" lon="3.72915">
        <ele>61</ele>
        <time>2021-02-28T14:32:37Z</time>
      </trkpt>
      <trkpt lat="43.56872" lon="3.72918">
        <ele>61</ele>
        <time>2021-02-28T14:32:38Z</time>
      </trkpt>
      <trkpt lat="43.56874" lon="3.72922">
        <ele>61</ele>
        <time>2021-02-28T14:32:39Z</time>
      </trkpt>
      <trkpt lat="43.56876" lon="3.72925">
        <ele>61</ele>
        <time>2021-02-28T14:32:40Z</time>
      </trkpt>
      <trkpt lat="43.5688" lon="3.72932">
        <ele>61</ele>
        <time>2021-02-28T14:32:42Z</time>
      </trkpt>
      <trkpt lat="43.56882" lon="3.72935">
        <ele>61</ele>
        <time>2021-02-28T14:32:43Z</time>
      </trkpt>
      <trkpt lat="43.56884" lon="3.72938">
        <ele>61</ele>
        <time>2021-02-28T14:32:44Z</time>
      </trkpt>
      <trkpt lat="43.56886" lon="3.72942">
        <ele>61</ele>
        <time>2021-02-28T14:32:45Z</time>
      </trkpt>
      <trkpt lat="43.56888" lon="3.72945">
        <ele>61</ele>
        <time>2021-02-28T14:32:46Z</time>
      </trkpt>
      <trkpt lat="43.5689" lon="3.72949">
        <ele>61</ele>
        <time>2021-02-28T14:32:47Z</time>
      </trkpt>
      <trkpt lat="43.56892" lon="3.72952">
        <ele>61</ele>
        <time>2021-02-28T14:32:48Z</time>
      </trkpt>
      <trkpt lat="43.56894" lon="3.72956">
        <ele>61</ele>
        <time>2021-02-28T14:32:49Z</time>
      </trkpt>
      <trkpt lat="43.56896" lon="3.72959">
        <ele>61</ele>
        <time>2021-02-28T14:32:50Z</time>
      </trkpt>
      <trkpt lat="43.56898" lon="3.72962">
        <ele>61</ele>
        <time>2021-02-28T14:32:51Z</time>
      </trkpt>
      <trkpt lat="43.56901" lon="3.72966">
        <ele>61</ele>
        <time>2021-02-28T14:32:52Z</time>
      </trkpt>
      <trkpt lat="43.56903" lon="3.72969">
        <ele>61</ele>
        <time>2021-02-28T14:32:53Z</time>
      </trkpt>
      <trkpt lat="43.56905" lon="3.72972">
        <ele>61</ele>
        <time>2021-02-28T14:32:54Z</time>
      </trkpt>
      <trkpt lat="43.56907" lon="3.72976">
        <ele>61</ele>
        <time>2021-02-28T14:32:55Z</time>
      </trkpt>
      <trkpt lat="43.56908" lon="3.72979">
        <ele>62</ele>
        <time>2021-02-28T14:32:56Z</time>
      </trkpt>
      <trkpt lat="43.5691" lon="3.72983">
        <ele>62</ele>
        <time>2021-02-28T14:32:57Z</time>
      </trkpt>
      <trkpt lat="43.56912" lon="3.72986">
        <ele>62</ele>
        <time>2021-02-28T14:32:58Z</time>
      </trkpt>
      <trkpt lat="43.56914" lon="3.7299">
        <ele>62</ele>
        <time>2021-02-28T14:32:59Z</time>
      </trkpt>
      <trkpt lat="43.56916" lon="3.72994">
        <ele>62</ele>
        <time>2021-02-28T14:33:00Z</time>
      </trkpt>
      <trkpt lat="43.56919" lon="3.72997">
        <ele>62</ele>
        <time>2021-02-28T14:33:01Z</time>
      </trkpt>
      <trkpt lat="43.56921" lon="3.73">
        <ele>62</ele>
        <time>2021-02-28T14:33:02Z</time>
      </trkpt>
      <trkpt lat="43.56923" lon="3.73003">
        <ele>62</ele>
        <time>2021-02-28T14:33:03Z</time>
      </trkpt>
      <trkpt lat="43.56924" lon="3.73006">
        <ele>62</ele>
        <time>2021-02-28T14:33:04Z</time>
      </trkpt>
      <trkpt lat="43.56926" lon="3.73007">
        <ele>62</ele>
        <time>2021-02-28T14:33:05Z</time>
      </trkpt>
      <trkpt lat="43.56928" lon="3.73011">
        <ele>62</ele>
        <time>2021-02-28T14:33:07Z</time>
      </trkpt>
      <trkpt lat="43.5693" lon="3.73014">
        <ele>62</ele>
        <time>2021-02-28T14:33:09Z</time>
      </trkpt>
      <trkpt lat="43.56932" lon="3.73017">
        <ele>62</ele>
        <time>2021-02-28T14:33:11Z</time>
      </trkpt>
      <trkpt lat="43.56934" lon="3.73021">
        <ele>62</ele>
        <time>2021-02-28T14:33:13Z</time>
      </trkpt>
      <trkpt lat="43.56935" lon="3.73023">
        <ele>62</ele>
        <time>2021-02-28T14:33:14Z</time>
      </trkpt>
      <trkpt lat="43.56936" lon="3.73026">
        <ele>61</ele>
        <time>2021-02-28T14:33:15Z</time>
      </trkpt>
      <trkpt lat="43.56938" lon="3.73028">
        <ele>61</ele>
        <time>2021-02-28T14:33:16Z</time>
      </trkpt>
      <trkpt lat="43.5694" lon="3.7303">
        <ele>61</ele>
        <time>2021-02-28T14:33:17Z</time>
      </trkpt>
      <trkpt lat="43.56945" lon="3.73036">
        <ele>61</ele>
        <time>2021-02-28T14:33:19Z</time>
      </trkpt>
      <trkpt lat="43.56947" lon="3.73039">
        <ele>61</ele>
        <time>2021-02-28T14:33:20Z</time>
      </trkpt>
      <trkpt lat="43.56949" lon="3.73043">
        <ele>61</ele>
        <time>2021-02-28T14:33:21Z</time>
      </trkpt>
      <trkpt lat="43.56951" lon="3.73047">
        <ele>61</ele>
        <time>2021-02-28T14:33:22Z</time>
      </trkpt>
      <trkpt lat="43.56953" lon="3.7305">
        <ele>61</ele>
        <time>2021-02-28T14:33:23Z</time>
      </trkpt>
      <trkpt lat="43.56954" lon="3.73054">
        <ele>61</ele>
        <time>2021-02-28T14:33:24Z</time>
      </trkpt>
      <trkpt lat="43.56956" lon="3.73058">
        <ele>62</ele>
        <time>2021-02-28T14:33:25Z</time>
      </trkpt>
      <trkpt lat="43.56958" lon="3.73061">
        <ele>62</ele>
        <time>2021-02-28T14:33:26Z</time>
      </trkpt>
      <trkpt lat="43.5696" lon="3.73065">
        <ele>62</ele>
        <time>2021-02-28T14:33:27Z</time>
      </trkpt>
      <trkpt lat="43.56962" lon="3.73068">
        <ele>62</ele>
        <time>2021-02-28T14:33:28Z</time>
      </trkpt>
      <trkpt lat="43.56964" lon="3.73072">
        <ele>62</ele>
        <time>2021-02-28T14:33:29Z</time>
      </trkpt>
      <trkpt lat="43.56966" lon="3.73075">
        <ele>62</ele>
        <time>2021-02-28T14:33:30Z</time>
      </trkpt>
      <trkpt lat="43.56969" lon="3.73079">
        <ele>62</ele>
        <time>2021-02-28T14:33:31Z</time>
      </trkpt>
      <trkpt lat="43.56971" lon="3.73083">
        <ele>62</ele>
        <time>2021-02-28T14:33:32Z</time>
      </trkpt>
      <trkpt lat="43.56973" lon="3.73087">
        <ele>62</ele>
        <time>2021-02-28T14:33:33Z</time>
      </trkpt>
      <trkpt lat="43.56975" lon="3.7309">
        <ele>62</ele>
        <time>2021-02-28T14:33:34Z</time>
      </trkpt>
      <trkpt lat="43.56977" lon="3.73094">
        <ele>62</ele>
        <time>2021-02-28T14:33:35Z</time>
      </trkpt>
      <trkpt lat="43.56979" lon="3.73097">
        <ele>62</ele>
        <time>2021-02-28T14:33:36Z</time>
      </trkpt>
      <trkpt lat="43.56981" lon="3.73101">
        <ele>62</ele>
        <time>2021-02-28T14:33:37Z</time>
      </trkpt>
      <trkpt lat="43.56983" lon="3.73105">
        <ele>62</ele>
        <time>2021-02-28T14:33:38Z</time>
      </trkpt>
      <trkpt lat="43.56986" lon="3.73107">
        <ele>62</ele>
        <time>2021-02-28T14:33:39Z</time>
      </trkpt>
      <trkpt lat="43.56989" lon="3.7311">
        <ele>62</ele>
        <time>2021-02-28T14:33:40Z</time>
      </trkpt>
      <trkpt lat="43.56992" lon="3.73114">
        <ele>62</ele>
        <time>2021-02-28T14:33:41Z</time>
      </trkpt>
      <trkpt lat="43.56994" lon="3.73118">
        <ele>62</ele>
        <time>2021-02-28T14:33:42Z</time>
      </trkpt>
      <trkpt lat="43.56996" lon="3.73123">
        <ele>62</ele>
        <time>2021-02-28T14:33:43Z</time>
      </trkpt>
      <trkpt lat="43.56998" lon="3.73128">
        <ele>62</ele>
        <time>2021-02-28T14:33:44Z</time>
      </trkpt>
      <trkpt lat="43.57002" lon="3.73135">
        <ele>62</ele>
        <time>2021-02-28T14:33:46Z</time>
      </trkpt>
      <trkpt lat="43.57005" lon="3.73139">
        <ele>62</ele>
        <time>2021-02-28T14:33:47Z</time>
      </trkpt>
      <trkpt lat="43.57007" lon="3.73143">
        <ele>62</ele>
        <time>2021-02-28T14:33:48Z</time>
      </trkpt>
      <trkpt lat="43.57009" lon="3.73146">
        <ele>62</ele>
        <time>2021-02-28T14:33:49Z</time>
      </trkpt>
      <trkpt lat="43.57012" lon="3.73149">
        <ele>62</ele>
        <time>2021-02-28T14:33:50Z</time>
      </trkpt>
      <trkpt lat="43.57014" lon="3.73151">
        <ele>62</ele>
        <time>2021-02-28T14:33:51Z</time>
      </trkpt>
      <trkpt lat="43.57019" lon="3.73157">
        <ele>62</ele>
        <time>2021-02-28T14:33:53Z</time>
      </trkpt>
      <trkpt lat="43.57021" lon="3.73161">
        <ele>62</ele>
        <time>2021-02-28T14:33:54Z</time>
      </trkpt>
      <trkpt lat="43.57023" lon="3.73165">
        <ele>62</ele>
        <time>2021-02-28T14:33:55Z</time>
      </trkpt>
      <trkpt lat="43.57025" lon="3.73169">
        <ele>62</ele>
        <time>2021-02-28T14:33:56Z</time>
      </trkpt>
      <trkpt lat="43.57027" lon="3.73174">
        <ele>62</ele>
        <time>2021-02-28T14:33:57Z</time>
      </trkpt>
      <trkpt lat="43.57029" lon="3.73178">
        <ele>62</ele>
        <time>2021-02-28T14:33:58Z</time>
      </trkpt>
      <trkpt lat="43.5703" lon="3.73182">
        <ele>62</ele>
        <time>2021-02-28T14:33:59Z</time>
      </trkpt>
      <trkpt lat="43.57032" lon="3.73186">
        <ele>62</ele>
        <time>2021-02-28T14:34:00Z</time>
      </trkpt>
      <trkpt lat="43.57035" lon="3.7319">
        <ele>62</ele>
        <time>2021-02-28T14:34:01Z</time>
      </trkpt>
      <trkpt lat="43.57037" lon="3.73193">
        <ele>62</ele>
        <time>2021-02-28T14:34:02Z</time>
      </trkpt>
      <trkpt lat="43.5704" lon="3.73197">
        <ele>62</ele>
        <time>2021-02-28T14:34:03Z</time>
      </trkpt>
      <trkpt lat="43.57043" lon="3.732">
        <ele>62</ele>
        <time>2021-02-28T14:34:04Z</time>
      </trkpt>
      <trkpt lat="43.57045" lon="3.73204">
        <ele>62</ele>
        <time>2021-02-28T14:34:05Z</time>
      </trkpt>
      <trkpt lat="43.57048" lon="3.73209">
        <ele>62</ele>
        <time>2021-02-28T14:34:06Z</time>
      </trkpt>
      <trkpt lat="43.5705" lon="3.73214">
        <ele>62</ele>
        <time>2021-02-28T14:34:07Z</time>
      </trkpt>
      <trkpt lat="43.57052" lon="3.73218">
        <ele>62</ele>
        <time>2021-02-28T14:34:08Z</time>
      </trkpt>
      <trkpt lat="43.57054" lon="3.73222">
        <ele>62</ele>
        <time>2021-02-28T14:34:09Z</time>
      </trkpt>
      <trkpt lat="43.5706" lon="3.7323">
        <ele>62</ele>
        <time>2021-02-28T14:34:11Z</time>
      </trkpt>
      <trkpt lat="43.57062" lon="3.73234">
        <ele>62</ele>
        <time>2021-02-28T14:34:12Z</time>
      </trkpt>
      <trkpt lat="43.57064" lon="3.73238">
        <ele>62</ele>
        <time>2021-02-28T14:34:13Z</time>
      </trkpt>
      <trkpt lat="43.57067" lon="3.73243">
        <ele>62</ele>
        <time>2021-02-28T14:34:14Z</time>
      </trkpt>
      <trkpt lat="43.5707" lon="3.73247">
        <ele>62</ele>
        <time>2021-02-28T14:34:15Z</time>
      </trkpt>
      <trkpt lat="43.57072" lon="3.7325">
        <ele>62</ele>
        <time>2021-02-28T14:34:16Z</time>
      </trkpt>
      <trkpt lat="43.57075" lon="3.73255">
        <ele>62</ele>
        <time>2021-02-28T14:34:17Z</time>
      </trkpt>
      <trkpt lat="43.57077" lon="3.73259">
        <ele>62</ele>
        <time>2021-02-28T14:34:18Z</time>
      </trkpt>
      <trkpt lat="43.5708" lon="3.73263">
        <ele>62</ele>
        <time>2021-02-28T14:34:19Z</time>
      </trkpt>
      <trkpt lat="43.57082" lon="3.73268">
        <ele>62</ele>
        <time>2021-02-28T14:34:20Z</time>
      </trkpt>
      <trkpt lat="43.57085" lon="3.73273">
        <ele>62</ele>
        <time>2021-02-28T14:34:21Z</time>
      </trkpt>
      <trkpt lat="43.57087" lon="3.73277">
        <ele>62</ele>
        <time>2021-02-28T14:34:22Z</time>
      </trkpt>
      <trkpt lat="43.57089" lon="3.73282">
        <ele>62</ele>
        <time>2021-02-28T14:34:23Z</time>
      </trkpt>
      <trkpt lat="43.57091" lon="3.73287">
        <ele>62</ele>
        <time>2021-02-28T14:34:24Z</time>
      </trkpt>
      <trkpt lat="43.57094" lon="3.73292">
        <ele>63</ele>
        <time>2021-02-28T14:34:25Z</time>
      </trkpt>
      <trkpt lat="43.57096" lon="3.73297">
        <ele>63</ele>
        <time>2021-02-28T14:34:26Z</time>
      </trkpt>
      <trkpt lat="43.57099" lon="3.73301">
        <ele>63</ele>
        <time>2021-02-28T14:34:27Z</time>
      </trkpt>
      <trkpt lat="43.57101" lon="3.73306">
        <ele>63</ele>
        <time>2021-02-28T14:34:28Z</time>
      </trkpt>
      <trkpt lat="43.57104" lon="3.7331">
        <ele>63</ele>
        <time>2021-02-28T14:34:29Z</time>
      </trkpt>
      <trkpt lat="43.57106" lon="3.73315">
        <ele>63</ele>
        <time>2021-02-28T14:34:30Z</time>
      </trkpt>
      <trkpt lat="43.57111" lon="3.73325">
        <ele>63</ele>
        <time>2021-02-28T14:34:32Z</time>
      </trkpt>
      <trkpt lat="43.57113" lon="3.73329">
        <ele>63</ele>
        <time>2021-02-28T14:34:33Z</time>
      </trkpt>
      <trkpt lat="43.57116" lon="3.73333">
        <ele>63</ele>
        <time>2021-02-28T14:34:34Z</time>
      </trkpt>
      <trkpt lat="43.57121" lon="3.7334">
        <ele>63</ele>
        <time>2021-02-28T14:34:36Z</time>
      </trkpt>
      <trkpt lat="43.57124" lon="3.73344">
        <ele>63</ele>
        <time>2021-02-28T14:34:37Z</time>
      </trkpt>
      <trkpt lat="43.57126" lon="3.73349">
        <ele>63</ele>
        <time>2021-02-28T14:34:38Z</time>
      </trkpt>
      <trkpt lat="43.57129" lon="3.73354">
        <ele>63</ele>
        <time>2021-02-28T14:34:39Z</time>
      </trkpt>
      <trkpt lat="43.57132" lon="3.73358">
        <ele>63</ele>
        <time>2021-02-28T14:34:40Z</time>
      </trkpt>
      <trkpt lat="43.57134" lon="3.73362">
        <ele>63</ele>
        <time>2021-02-28T14:34:41Z</time>
      </trkpt>
      <trkpt lat="43.57137" lon="3.73367">
        <ele>63</ele>
        <time>2021-02-28T14:34:42Z</time>
      </trkpt>
      <trkpt lat="43.57139" lon="3.73371">
        <ele>63</ele>
        <time>2021-02-28T14:34:43Z</time>
      </trkpt>
      <trkpt lat="43.57142" lon="3.73376">
        <ele>63</ele>
        <time>2021-02-28T14:34:44Z</time>
      </trkpt>
      <trkpt lat="43.57144" lon="3.7338">
        <ele>61</ele>
        <time>2021-02-28T14:34:45Z</time>
      </trkpt>
      <trkpt lat="43.57147" lon="3.73385">
        <ele>61</ele>
        <time>2021-02-28T14:34:46Z</time>
      </trkpt>
      <trkpt lat="43.5715" lon="3.7339">
        <ele>61</ele>
        <time>2021-02-28T14:34:47Z</time>
      </trkpt>
      <trkpt lat="43.57152" lon="3.73395">
        <ele>61</ele>
        <time>2021-02-28T14:34:48Z</time>
      </trkpt>
      <trkpt lat="43.57155" lon="3.734">
        <ele>61</ele>
        <time>2021-02-28T14:34:49Z</time>
      </trkpt>
      <trkpt lat="43.57158" lon="3.73405">
        <ele>61</ele>
        <time>2021-02-28T14:34:50Z</time>
      </trkpt>
      <trkpt lat="43.57164" lon="3.73415">
        <ele>61</ele>
        <time>2021-02-28T14:34:52Z</time>
      </trkpt>
      <trkpt lat="43.57167" lon="3.73421">
        <ele>61</ele>
        <time>2021-02-28T14:34:53Z</time>
      </trkpt>
      <trkpt lat="43.57171" lon="3.73427">
        <ele>61</ele>
        <time>2021-02-28T14:34:54Z</time>
      </trkpt>
      <trkpt lat="43.57174" lon="3.73434">
        <ele>61</ele>
        <time>2021-02-28T14:34:55Z</time>
      </trkpt>
      <trkpt lat="43.57177" lon="3.7344">
        <ele>61</ele>
        <time>2021-02-28T14:34:56Z</time>
      </trkpt>
      <trkpt lat="43.57179" lon="3.73446">
        <ele>61</ele>
        <time>2021-02-28T14:34:57Z</time>
      </trkpt>
      <trkpt lat="43.57182" lon="3.73452">
        <ele>61</ele>
        <time>2021-02-28T14:34:58Z</time>
      </trkpt>
      <trkpt lat="43.57185" lon="3.73457">
        <ele>61</ele>
        <time>2021-02-28T14:34:59Z</time>
      </trkpt>
      <trkpt lat="43.57191" lon="3.73465">
        <ele>61</ele>
        <time>2021-02-28T14:35:01Z</time>
      </trkpt>
      <trkpt lat="43.57193" lon="3.73469">
        <ele>61</ele>
        <time>2021-02-28T14:35:02Z</time>
      </trkpt>
      <trkpt lat="43.57195" lon="3.73473">
        <ele>61</ele>
        <time>2021-02-28T14:35:03Z</time>
      </trkpt>
      <trkpt lat="43.57197" lon="3.73477">
        <ele>61</ele>
        <time>2021-02-28T14:35:04Z</time>
      </trkpt>
      <trkpt lat="43.57198" lon="3.73481">
        <ele>60</ele>
        <time>2021-02-28T14:35:05Z</time>
      </trkpt>
      <trkpt lat="43.57199" lon="3.73485">
        <ele>60</ele>
        <time>2021-02-28T14:35:06Z</time>
      </trkpt>
      <trkpt lat="43.57201" lon="3.73487">
        <ele>60</ele>
        <time>2021-02-28T14:35:07Z</time>
      </trkpt>
      <trkpt lat="43.57202" lon="3.73489">
        <ele>60</ele>
        <time>2021-02-28T14:35:08Z</time>
      </trkpt>
      <trkpt lat="43.57203" lon="3.73491">
        <ele>60</ele>
        <time>2021-02-28T14:35:09Z</time>
      </trkpt>
      <trkpt lat="43.57205" lon="3.73494">
        <ele>60</ele>
        <time>2021-02-28T14:35:10Z</time>
      </trkpt>
      <trkpt lat="43.57207" lon="3.73497">
        <ele>60</ele>
        <time>2021-02-28T14:35:11Z</time>
      </trkpt>
      <trkpt lat="43.57209" lon="3.735">
        <ele>60</ele>
        <time>2021-02-28T14:35:12Z</time>
      </trkpt>
      <trkpt lat="43.57211" lon="3.73502">
        <ele>60</ele>
        <time>2021-02-28T14:35:13Z</time>
      </trkpt>
      <trkpt lat="43.57212" lon="3.73504">
        <ele>60</ele>
        <time>2021-02-28T14:35:14Z</time>
      </trkpt>
      <trkpt lat="43.57214" lon="3.73508">
        <ele>60</ele>
        <time>2021-02-28T14:35:16Z</time>
      </trkpt>
      <trkpt lat="43.57215" lon="3.73511">
        <ele>60</ele>
        <time>2021-02-28T14:35:17Z</time>
      </trkpt>
      <trkpt lat="43.57217" lon="3.73513">
        <ele>60</ele>
        <time>2021-02-28T14:35:18Z</time>
      </trkpt>
      <trkpt lat="43.57219" lon="3.73515">
        <ele>60</ele>
        <time>2021-02-28T14:35:19Z</time>
      </trkpt>
      <trkpt lat="43.57221" lon="3.73518">
        <ele>60</ele>
        <time>2021-02-28T14:35:20Z</time>
      </trkpt>
      <trkpt lat="43.57222" lon="3.73522">
        <ele>60</ele>
        <time>2021-02-28T14:35:21Z</time>
      </trkpt>
      <trkpt lat="43.57224" lon="3.73526">
        <ele>60</ele>
        <time>2021-02-28T14:35:22Z</time>
      </trkpt>
      <trkpt lat="43.57226" lon="3.7353">
        <ele>60</ele>
        <time>2021-02-28T14:35:23Z</time>
      </trkpt>
      <trkpt lat="43.57229" lon="3.73533">
        <ele>60</ele>
        <time>2021-02-28T14:35:24Z</time>
      </trkpt>
      <trkpt lat="43.57231" lon="3.73536">
        <ele>60</ele>
        <time>2021-02-28T14:35:25Z</time>
      </trkpt>
      <trkpt lat="43.57233" lon="3.73539">
        <ele>60</ele>
        <time>2021-02-28T14:35:26Z</time>
      </trkpt>
      <trkpt lat="43.57235" lon="3.73541">
        <ele>60</ele>
        <time>2021-02-28T14:35:27Z</time>
      </trkpt>
      <trkpt lat="43.57236" lon="3.73544">
        <ele>60</ele>
        <time>2021-02-28T14:35:28Z</time>
      </trkpt>
      <trkpt lat="43.57237" lon="3.73546">
        <ele>60</ele>
        <time>2021-02-28T14:35:29Z</time>
      </trkpt>
      <trkpt lat="43.57238" lon="3.73549">
        <ele>60</ele>
        <time>2021-02-28T14:35:30Z</time>
      </trkpt>
      <trkpt lat="43.57239" lon="3.73551">
        <ele>60</ele>
        <time>2021-02-28T14:35:31Z</time>
      </trkpt>
      <trkpt lat="43.5724" lon="3.73555">
        <ele>60</ele>
        <time>2021-02-28T14:35:32Z</time>
      </trkpt>
      <trkpt lat="43.57241" lon="3.73559">
        <ele>60</ele>
        <time>2021-02-28T14:35:33Z</time>
      </trkpt>
      <trkpt lat="43.57243" lon="3.73562">
        <ele>60</ele>
        <time>2021-02-28T14:35:34Z</time>
      </trkpt>
      <trkpt lat="43.57245" lon="3.73566">
        <ele>60</ele>
        <time>2021-02-28T14:35:35Z</time>
      </trkpt>
      <trkpt lat="43.57248" lon="3.7357">
        <ele>60</ele>
        <time>2021-02-28T14:35:36Z</time>
      </trkpt>
      <trkpt lat="43.5725" lon="3.73574">
        <ele>60</ele>
        <time>2021-02-28T14:35:37Z</time>
      </trkpt>
      <trkpt lat="43.57252" lon="3.73578">
        <ele>60</ele>
        <time>2021-02-28T14:35:38Z</time>
      </trkpt>
      <trkpt lat="43.57254" lon="3.73582">
        <ele>60</ele>
        <time>2021-02-28T14:35:39Z</time>
      </trkpt>
      <trkpt lat="43.57257" lon="3.73586">
        <ele>60</ele>
        <time>2021-02-28T14:35:40Z</time>
      </trkpt>
      <trkpt lat="43.57259" lon="3.73591">
        <ele>60</ele>
        <time>2021-02-28T14:35:41Z</time>
      </trkpt>
      <trkpt lat="43.57261" lon="3.73596">
        <ele>60</ele>
        <time>2021-02-28T14:35:42Z</time>
      </trkpt>
      <trkpt lat="43.57262" lon="3.736">
        <ele>60</ele>
        <time>2021-02-28T14:35:43Z</time>
      </trkpt>
      <trkpt lat="43.57264" lon="3.73605">
        <ele>60</ele>
        <time>2021-02-28T14:35:44Z</time>
      </trkpt>
      <trkpt lat="43.57266" lon="3.73609">
        <ele>60</ele>
        <time>2021-02-28T14:35:45Z</time>
      </trkpt>
      <trkpt lat="43.57268" lon="3.73614">
        <ele>60</ele>
        <time>2021-02-28T14:35:46Z</time>
      </trkpt>
      <trkpt lat="43.57271" lon="3.73618">
        <ele>60</ele>
        <time>2021-02-28T14:35:47Z</time>
      </trkpt>
      <trkpt lat="43.57273" lon="3.73622">
        <ele>60</ele>
        <time>2021-02-28T14:35:48Z</time>
      </trkpt>
      <trkpt lat="43.57275" lon="3.73626">
        <ele>60</ele>
        <time>2021-02-28T14:35:49Z</time>
      </trkpt>
      <trkpt lat="43.57277" lon="3.73631">
        <ele>60</ele>
        <time>2021-02-28T14:35:50Z</time>
      </trkpt>
      <trkpt lat="43.5728" lon="3.73635">
        <ele>60</ele>
        <time>2021-02-28T14:35:51Z</time>
      </trkpt>
      <trkpt lat="43.57282" lon="3.73639">
        <ele>60</ele>
        <time>2021-02-28T14:35:52Z</time>
      </trkpt>
      <trkpt lat="43.57284" lon="3.73643">
        <ele>60</ele>
        <time>2021-02-28T14:35:53Z</time>
      </trkpt>
      <trkpt lat="43.57287" lon="3.73648">
        <ele>60</ele>
        <time>2021-02-28T14:35:54Z</time>
      </trkpt>
      <trkpt lat="43.57292" lon="3.73655">
        <ele>60</ele>
        <time>2021-02-28T14:35:56Z</time>
      </trkpt>
      <trkpt lat="43.57295" lon="3.7366">
        <ele>60</ele>
        <time>2021-02-28T14:35:57Z</time>
      </trkpt>
      <trkpt lat="43.57297" lon="3.73664">
        <ele>60</ele>
        <time>2021-02-28T14:35:58Z</time>
      </trkpt>
      <trkpt lat="43.57302" lon="3.73672">
        <ele>60</ele>
        <time>2021-02-28T14:36:00Z</time>
      </trkpt>
      <trkpt lat="43.57305" lon="3.73677">
        <ele>60</ele>
        <time>2021-02-28T14:36:01Z</time>
      </trkpt>
      <trkpt lat="43.57307" lon="3.73682">
        <ele>60</ele>
        <time>2021-02-28T14:36:02Z</time>
      </trkpt>
      <trkpt lat="43.57308" lon="3.73687">
        <ele>60</ele>
        <time>2021-02-28T14:36:03Z</time>
      </trkpt>
      <trkpt lat="43.57313" lon="3.73696">
        <ele>60</ele>
        <time>2021-02-28T14:36:05Z</time>
      </trkpt>
      <trkpt lat="43.57316" lon="3.73701">
        <ele>60</ele>
        <time>2021-02-28T14:36:06Z</time>
      </trkpt>
      <trkpt lat="43.57318" lon="3.73705">
        <ele>60</ele>
        <time>2021-02-28T14:36:07Z</time>
      </trkpt>
      <trkpt lat="43.57321" lon="3.7371">
        <ele>60</ele>
        <time>2021-02-28T14:36:08Z</time>
      </trkpt>
      <trkpt lat="43.57324" lon="3.73715">
        <ele>60</ele>
        <time>2021-02-28T14:36:09Z</time>
      </trkpt>
      <trkpt lat="43.57328" lon="3.73719">
        <ele>60</ele>
        <time>2021-02-28T14:36:10Z</time>
      </trkpt>
      <trkpt lat="43.57331" lon="3.73725">
        <ele>60</ele>
        <time>2021-02-28T14:36:11Z</time>
      </trkpt>
      <trkpt lat="43.57333" lon="3.7373">
        <ele>60</ele>
        <time>2021-02-28T14:36:12Z</time>
      </trkpt>
      <trkpt lat="43.57336" lon="3.73736">
        <ele>60</ele>
        <time>2021-02-28T14:36:13Z</time>
      </trkpt>
      <trkpt lat="43.57339" lon="3.73741">
        <ele>60</ele>
        <time>2021-02-28T14:36:14Z</time>
      </trkpt>
      <trkpt lat="43.57342" lon="3.73746">
        <ele>60</ele>
        <time>2021-02-28T14:36:15Z</time>
      </trkpt>
      <trkpt lat="43.57348" lon="3.73756">
        <ele>60</ele>
        <time>2021-02-28T14:36:17Z</time>
      </trkpt>
      <trkpt lat="43.57351" lon="3.73761">
        <ele>60</ele>
        <time>2021-02-28T14:36:18Z</time>
      </trkpt>
      <trkpt lat="43.57354" lon="3.73766">
        <ele>60</ele>
        <time>2021-02-28T14:36:19Z</time>
      </trkpt>
      <trkpt lat="43.57357" lon="3.73771">
        <ele>60</ele>
        <time>2021-02-28T14:36:20Z</time>
      </trkpt>
      <trkpt lat="43.5736" lon="3.73776">
        <ele>60</ele>
        <time>2021-02-28T14:36:21Z</time>
      </trkpt>
      <trkpt lat="43.57363" lon="3.73781">
        <ele>60</ele>
        <time>2021-02-28T14:36:22Z</time>
      </trkpt>
      <trkpt lat="43.57366" lon="3.73787">
        <ele>60</ele>
        <time>2021-02-28T14:36:23Z</time>
      </trkpt>
      <trkpt lat="43.57369" lon="3.73792">
        <ele>60</ele>
        <time>2021-02-28T14:36:24Z</time>
      </trkpt>
      <trkpt lat="43.57372" lon="3.73797">
        <ele>60</ele>
        <time>2021-02-28T14:36:25Z</time>
      </trkpt>
      <trkpt lat="43.57375" lon="3.73802">
        <ele>60</ele>
        <time>2021-02-28T14:36:26Z</time>
      </trkpt>
      <trkpt lat="43.57379" lon="3.73807">
        <ele>60</ele>
        <time>2021-02-28T14:36:27Z</time>
      </trkpt>
      <trkpt lat="43.57382" lon="3.73812">
        <ele>60</ele>
        <time>2021-02-28T14:36:28Z</time>
      </trkpt>
      <trkpt lat="43.57385" lon="3.73817">
        <ele>60</ele>
        <time>2021-02-28T14:36:29Z</time>
      </trkpt>
      <trkpt lat="43.57388" lon="3.73823">
        <ele>60</ele>
        <time>2021-02-28T14:36:30Z</time>
      </trkpt>
      <trkpt lat="43.57391" lon="3.73828">
        <ele>60</ele>
        <time>2021-02-28T14:36:31Z</time>
      </trkpt>
      <trkpt lat="43.57394" lon="3.73833">
        <ele>60</ele>
        <time>2021-02-28T14:36:32Z</time>
      </trkpt>
      <trkpt lat="43.57397" lon="3.73839">
        <ele>60</ele>
        <time>2021-02-28T14:36:33Z</time>
      </trkpt>
      <trkpt lat="43.57399" lon="3.73844">
        <ele>60</ele>
        <time>2021-02-28T14:36:34Z</time>
      </trkpt>
      <trkpt lat="43.57402" lon="3.73849">
        <ele>60</ele>
        <time>2021-02-28T14:36:35Z</time>
      </trkpt>
      <trkpt lat="43.57405" lon="3.73854">
        <ele>60</ele>
        <time>2021-02-28T14:36:36Z</time>
      </trkpt>
      <trkpt lat="43.57411" lon="3.73864">
        <ele>60</ele>
        <time>2021-02-28T14:36:38Z</time>
      </trkpt>
      <trkpt lat="43.57414" lon="3.73869">
        <ele>60</ele>
        <time>2021-02-28T14:36:39Z</time>
      </trkpt>
      <trkpt lat="43.57416" lon="3.73875">
        <ele>60</ele>
        <time>2021-02-28T14:36:40Z</time>
      </trkpt>
      <trkpt lat="43.57419" lon="3.7388">
        <ele>60</ele>
        <time>2021-02-28T14:36:41Z</time>
      </trkpt>
      <trkpt lat="43.57421" lon="3.73885">
        <ele>60</ele>
        <time>2021-02-28T14:36:42Z</time>
      </trkpt>
      <trkpt lat="43.57424" lon="3.7389">
        <ele>60</ele>
        <time>2021-02-28T14:36:43Z</time>
      </trkpt>
      <trkpt lat="43.57427" lon="3.73895">
        <ele>60</ele>
        <time>2021-02-28T14:36:44Z</time>
      </trkpt>
      <trkpt lat="43.5743" lon="3.739">
        <ele>60</ele>
        <time>2021-02-28T14:36:45Z</time>
      </trkpt>
      <trkpt lat="43.57432" lon="3.73905">
        <ele>60</ele>
        <time>2021-02-28T14:36:46Z</time>
      </trkpt>
      <trkpt lat="43.57435" lon="3.7391">
        <ele>60</ele>
        <time>2021-02-28T14:36:47Z</time>
      </trkpt>
      <trkpt lat="43.57438" lon="3.73915">
        <ele>60</ele>
        <time>2021-02-28T14:36:48Z</time>
      </trkpt>
      <trkpt lat="43.57441" lon="3.7392">
        <ele>60</ele>
        <time>2021-02-28T14:36:49Z</time>
      </trkpt>
      <trkpt lat="43.57444" lon="3.73926">
        <ele>60</ele>
        <time>2021-02-28T14:36:50Z</time>
      </trkpt>
      <trkpt lat="43.57447" lon="3.7393">
        <ele>60</ele>
        <time>2021-02-28T14:36:51Z</time>
      </trkpt>
      <trkpt lat="43.5745" lon="3.73935">
        <ele>60</ele>
        <time>2021-02-28T14:36:52Z</time>
      </trkpt>
      <trkpt lat="43.57453" lon="3.7394">
        <ele>60</ele>
        <time>2021-02-28T14:36:53Z</time>
      </trkpt>
      <trkpt lat="43.57459" lon="3.7395">
        <ele>60</ele>
        <time>2021-02-28T14:36:55Z</time>
      </trkpt>
      <trkpt lat="43.57462" lon="3.73954">
        <ele>60</ele>
        <time>2021-02-28T14:36:56Z</time>
      </trkpt>
      <trkpt lat="43.57465" lon="3.73959">
        <ele>60</ele>
        <time>2021-02-28T14:36:57Z</time>
      </trkpt>
      <trkpt lat="43.57468" lon="3.73963">
        <ele>60</ele>
        <time>2021-02-28T14:36:58Z</time>
      </trkpt>
      <trkpt lat="43.57472" lon="3.73968">
        <ele>60</ele>
        <time>2021-02-28T14:36:59Z</time>
      </trkpt>
      <trkpt lat="43.57475" lon="3.73972">
        <ele>60</ele>
        <time>2021-02-28T14:37:00Z</time>
      </trkpt>
      <trkpt lat="43.57479" lon="3.73977">
        <ele>60</ele>
        <time>2021-02-28T14:37:01Z</time>
      </trkpt>
      <trkpt lat="43.57482" lon="3.73981">
        <ele>60</ele>
        <time>2021-02-28T14:37:02Z</time>
      </trkpt>
      <trkpt lat="43.57485" lon="3.73986">
        <ele>60</ele>
        <time>2021-02-28T14:37:03Z</time>
      </trkpt>
      <trkpt lat="43.57489" lon="3.73991">
        <ele>60</ele>
        <time>2021-02-28T14:37:04Z</time>
      </trkpt>
      <trkpt lat="43.57492" lon="3.73996">
        <ele>60</ele>
        <time>2021-02-28T14:37:05Z</time>
      </trkpt>
      <trkpt lat="43.57496" lon="3.74">
        <ele>60</ele>
        <time>2021-02-28T14:37:06Z</time>
      </trkpt>
      <trkpt lat="43.57503" lon="3.74008">
        <ele>60</ele>
        <time>2021-02-28T14:37:08Z</time>
      </trkpt>
      <trkpt lat="43.57506" lon="3.74013">
        <ele>60</ele>
        <time>2021-02-28T14:37:09Z</time>
      </trkpt>
      <trkpt lat="43.5751" lon="3.74017">
        <ele>60</ele>
        <time>2021-02-28T14:37:10Z</time>
      </trkpt>
      <trkpt lat="43.57513" lon="3.74021">
        <ele>60</ele>
        <time>2021-02-28T14:37:11Z</time>
      </trkpt>
      <trkpt lat="43.57516" lon="3.74025">
        <ele>60</ele>
        <time>2021-02-28T14:37:12Z</time>
      </trkpt>
      <trkpt lat="43.57519" lon="3.74029">
        <ele>60</ele>
        <time>2021-02-28T14:37:14Z</time>
      </trkpt>
      <trkpt lat="43.57523" lon="3.74033">
        <ele>60</ele>
        <time>2021-02-28T14:37:15Z</time>
      </trkpt>
      <trkpt lat="43.5753" lon="3.74041">
        <ele>60</ele>
        <time>2021-02-28T14:37:16Z</time>
      </trkpt>
      <trkpt lat="43.57533" lon="3.74045">
        <ele>60</ele>
        <time>2021-02-28T14:37:17Z</time>
      </trkpt>
      <trkpt lat="43.57537" lon="3.74049">
        <ele>60</ele>
        <time>2021-02-28T14:37:18Z</time>
      </trkpt>
      <trkpt lat="43.5754" lon="3.74053">
        <ele>60</ele>
        <time>2021-02-28T14:37:19Z</time>
      </trkpt>
      <trkpt lat="43.57544" lon="3.74057">
        <ele>60</ele>
        <time>2021-02-28T14:37:20Z</time>
      </trkpt>
      <trkpt lat="43.57547" lon="3.7406">
        <ele>60</ele>
        <time>2021-02-28T14:37:21Z</time>
      </trkpt>
      <trkpt lat="43.57551" lon="3.74064">
        <ele>60</ele>
        <time>2021-02-28T14:37:22Z</time>
      </trkpt>
      <trkpt lat="43.57554" lon="3.74068">
        <ele>60</ele>
        <time>2021-02-28T14:37:24Z</time>
      </trkpt>
      <trkpt lat="43.57562" lon="3.74076">
        <ele>60</ele>
        <time>2021-02-28T14:37:25Z</time>
      </trkpt>
      <trkpt lat="43.57566" lon="3.7408">
        <ele>60</ele>
        <time>2021-02-28T14:37:26Z</time>
      </trkpt>
      <trkpt lat="43.5757" lon="3.74084">
        <ele>60</ele>
        <time>2021-02-28T14:37:27Z</time>
      </trkpt>
      <trkpt lat="43.57578" lon="3.74093">
        <ele>60</ele>
        <time>2021-02-28T14:37:29Z</time>
      </trkpt>
      <trkpt lat="43.57582" lon="3.74097">
        <ele>60</ele>
        <time>2021-02-28T14:37:30Z</time>
      </trkpt>
      <trkpt lat="43.57585" lon="3.74102">
        <ele>60</ele>
        <time>2021-02-28T14:37:31Z</time>
      </trkpt>
      <trkpt lat="43.5759" lon="3.74106">
        <ele>60</ele>
        <time>2021-02-28T14:37:32Z</time>
      </trkpt>
      <trkpt lat="43.57594" lon="3.7411">
        <ele>60</ele>
        <time>2021-02-28T14:37:34Z</time>
      </trkpt>
      <trkpt lat="43.57598" lon="3.74115">
        <ele>60</ele>
        <time>2021-02-28T14:37:35Z</time>
      </trkpt>
      <trkpt lat="43.57602" lon="3.74119">
        <ele>60</ele>
        <time>2021-02-28T14:37:36Z</time>
      </trkpt>
      <trkpt lat="43.5761" lon="3.74128">
        <ele>60</ele>
        <time>2021-02-28T14:37:37Z</time>
      </trkpt>
      <trkpt lat="43.57614" lon="3.74132">
        <ele>60</ele>
        <time>2021-02-28T14:37:38Z</time>
      </trkpt>
      <trkpt lat="43.57618" lon="3.74137">
        <ele>60</ele>
        <time>2021-02-28T14:37:39Z</time>
      </trkpt>
      <trkpt lat="43.57622" lon="3.74141">
        <ele>60</ele>
        <time>2021-02-28T14:37:40Z</time>
      </trkpt>
      <trkpt lat="43.57628" lon="3.74149">
        <ele>60</ele>
        <time>2021-02-28T14:37:42Z</time>
      </trkpt>
      <trkpt lat="43.57631" lon="3.74152">
        <ele>60</ele>
        <time>2021-02-28T14:37:43Z</time>
      </trkpt>
      <trkpt lat="43.57634" lon="3.74156">
        <ele>60</ele>
        <time>2021-02-28T14:37:44Z</time>
      </trkpt>
      <trkpt lat="43.5764" lon="3.74163">
        <ele>60</ele>
        <time>2021-02-28T14:37:46Z</time>
      </trkpt>
      <trkpt lat="43.57644" lon="3.74167">
        <ele>60</ele>
        <time>2021-02-28T14:37:47Z</time>
      </trkpt>
      <trkpt lat="43.57647" lon="3.74171">
        <ele>60</ele>
        <time>2021-02-28T14:37:48Z</time>
      </trkpt>
      <trkpt lat="43.57654" lon="3.74179">
        <ele>60</ele>
        <time>2021-02-28T14:37:50Z</time>
      </trkpt>
      <trkpt lat="43.57658" lon="3.74183">
        <ele>60</ele>
        <time>2021-02-28T14:37:51Z</time>
      </trkpt>
      <trkpt lat="43.57662" lon="3.74187">
        <ele>60</ele>
        <time>2021-02-28T14:37:52Z</time>
      </trkpt>
      <trkpt lat="43.57666" lon="3.74191">
        <ele>60</ele>
        <time>2021-02-28T14:37:53Z</time>
      </trkpt>
      <trkpt lat="43.5767" lon="3.74195">
        <ele>60</ele>
        <time>2021-02-28T14:37:55Z</time>
      </trkpt>
      <trkpt lat="43.57673" lon="3.74199">
        <ele>60</ele>
        <time>2021-02-28T14:37:56Z</time>
      </trkpt>
      <trkpt lat="43.57677" lon="3.74203">
        <ele>60</ele>
        <time>2021-02-28T14:37:57Z</time>
      </trkpt>
      <trkpt lat="43.57685" lon="3.74211">
        <ele>60</ele>
        <time>2021-02-28T14:37:58Z</time>
      </trkpt>
      <trkpt lat="43.57693" lon="3.7422">
        <ele>60</ele>
        <time>2021-02-28T14:38:00Z</time>
      </trkpt>
      <trkpt lat="43.57696" lon="3.74223">
        <ele>60</ele>
        <time>2021-02-28T14:38:01Z</time>
      </trkpt>
      <trkpt lat="43.57704" lon="3.74229">
        <ele>60</ele>
        <time>2021-02-28T14:38:03Z</time>
      </trkpt>
      <trkpt lat="43.57707" lon="3.74233">
        <ele>60</ele>
        <time>2021-02-28T14:38:04Z</time>
      </trkpt>
      <trkpt lat="43.5771" lon="3.74237">
        <ele>60</ele>
        <time>2021-02-28T14:38:05Z</time>
      </trkpt>
      <trkpt lat="43.57713" lon="3.74242">
        <ele>60</ele>
        <time>2021-02-28T14:38:06Z</time>
      </trkpt>
      <trkpt lat="43.57717" lon="3.74245">
        <ele>60</ele>
        <time>2021-02-28T14:38:07Z</time>
      </trkpt>
      <trkpt lat="43.5772" lon="3.74249">
        <ele>60</ele>
        <time>2021-02-28T14:38:08Z</time>
      </trkpt>
      <trkpt lat="43.57724" lon="3.74253">
        <ele>60</ele>
        <time>2021-02-28T14:38:09Z</time>
      </trkpt>
      <trkpt lat="43.57727" lon="3.74257">
        <ele>60</ele>
        <time>2021-02-28T14:38:10Z</time>
      </trkpt>
      <trkpt lat="43.57731" lon="3.74261">
        <ele>60</ele>
        <time>2021-02-28T14:38:11Z</time>
      </trkpt>
      <trkpt lat="43.57735" lon="3.74264">
        <ele>60</ele>
        <time>2021-02-28T14:38:12Z</time>
      </trkpt>
      <trkpt lat="43.57738" lon="3.74268">
        <ele>60</ele>
        <time>2021-02-28T14:38:13Z</time>
      </trkpt>
      <trkpt lat="43.57741" lon="3.74272">
        <ele>60</ele>
        <time>2021-02-28T14:38:14Z</time>
      </trkpt>
      <trkpt lat="43.57745" lon="3.74276">
        <ele>60</ele>
        <time>2021-02-28T14:38:15Z</time>
      </trkpt>
      <trkpt lat="43.57748" lon="3.7428">
        <ele>60</ele>
        <time>2021-02-28T14:38:16Z</time>
      </trkpt>
      <trkpt lat="43.57752" lon="3.74285">
        <ele>60</ele>
        <time>2021-02-28T14:38:17Z</time>
      </trkpt>
      <trkpt lat="43.57755" lon="3.74289">
        <ele>60</ele>
        <time>2021-02-28T14:38:18Z</time>
      </trkpt>
      <trkpt lat="43.57763" lon="3.74297">
        <ele>60</ele>
        <time>2021-02-28T14:38:20Z</time>
      </trkpt>
      <trkpt lat="43.57766" lon="3.74301">
        <ele>60</ele>
        <time>2021-02-28T14:38:21Z</time>
      </trkpt>
      <trkpt lat="43.5777" lon="3.74305">
        <ele>60</ele>
        <time>2021-02-28T14:38:22Z</time>
      </trkpt>
      <trkpt lat="43.57773" lon="3.74309">
        <ele>60</ele>
        <time>2021-02-28T14:38:23Z</time>
      </trkpt>
      <trkpt lat="43.57777" lon="3.74313">
        <ele>60</ele>
        <time>2021-02-28T14:38:24Z</time>
      </trkpt>
      <trkpt lat="43.57781" lon="3.74317">
        <ele>60</ele>
        <time>2021-02-28T14:38:26Z</time>
      </trkpt>
      <trkpt lat="43.57784" lon="3.74322">
        <ele>60</ele>
        <time>2021-02-28T14:38:27Z</time>
      </trkpt>
      <trkpt lat="43.57791" lon="3.7433">
        <ele>60</ele>
        <time>2021-02-28T14:38:28Z</time>
      </trkpt>
      <trkpt lat="43.57794" lon="3.74334">
        <ele>60</ele>
        <time>2021-02-28T14:38:29Z</time>
      </trkpt>
      <trkpt lat="43.57797" lon="3.74338">
        <ele>60</ele>
        <time>2021-02-28T14:38:30Z</time>
      </trkpt>
      <trkpt lat="43.57801" lon="3.74343">
        <ele>60</ele>
        <time>2021-02-28T14:38:31Z</time>
      </trkpt>
      <trkpt lat="43.57804" lon="3.74347">
        <ele>60</ele>
        <time>2021-02-28T14:38:32Z</time>
      </trkpt>
      <trkpt lat="43.57807" lon="3.74351">
        <ele>60</ele>
        <time>2021-02-28T14:38:33Z</time>
      </trkpt>
      <trkpt lat="43.5781" lon="3.74355">
        <ele>60</ele>
        <time>2021-02-28T14:38:34Z</time>
      </trkpt>
      <trkpt lat="43.57813" lon="3.7436">
        <ele>59</ele>
        <time>2021-02-28T14:38:35Z</time>
      </trkpt>
      <trkpt lat="43.57817" lon="3.74364">
        <ele>59</ele>
        <time>2021-02-28T14:38:36Z</time>
      </trkpt>
      <trkpt lat="43.5782" lon="3.74368">
        <ele>59</ele>
        <time>2021-02-28T14:38:37Z</time>
      </trkpt>
      <trkpt lat="43.57823" lon="3.74372">
        <ele>59</ele>
        <time>2021-02-28T14:38:38Z</time>
      </trkpt>
      <trkpt lat="43.57826" lon="3.74375">
        <ele>59</ele>
        <time>2021-02-28T14:38:39Z</time>
      </trkpt>
      <trkpt lat="43.57831" lon="3.74382">
        <ele>59</ele>
        <time>2021-02-28T14:38:41Z</time>
      </trkpt>
      <trkpt lat="43.57834" lon="3.74387">
        <ele>59</ele>
        <time>2021-02-28T14:38:42Z</time>
      </trkpt>
      <trkpt lat="43.57836" lon="3.74391">
        <ele>59</ele>
        <time>2021-02-28T14:38:43Z</time>
      </trkpt>
      <trkpt lat="43.57839" lon="3.74395">
        <ele>59</ele>
        <time>2021-02-28T14:38:44Z</time>
      </trkpt>
      <trkpt lat="43.57841" lon="3.74399">
        <ele>59</ele>
        <time>2021-02-28T14:38:45Z</time>
      </trkpt>
      <trkpt lat="43.57844" lon="3.74404">
        <ele>59</ele>
        <time>2021-02-28T14:38:46Z</time>
      </trkpt>
      <trkpt lat="43.57847" lon="3.74408">
        <ele>59</ele>
        <time>2021-02-28T14:38:47Z</time>
      </trkpt>
      <trkpt lat="43.5785" lon="3.74413">
        <ele>59</ele>
        <time>2021-02-28T14:38:48Z</time>
      </trkpt>
      <trkpt lat="43.57852" lon="3.74417">
        <ele>59</ele>
        <time>2021-02-28T14:38:49Z</time>
      </trkpt>
      <trkpt lat="43.57855" lon="3.74422">
        <ele>59</ele>
        <time>2021-02-28T14:38:50Z</time>
      </trkpt>
      <trkpt lat="43.57857" lon="3.74427">
        <ele>59</ele>
        <time>2021-02-28T14:38:51Z</time>
      </trkpt>
      <trkpt lat="43.5786" lon="3.74432">
        <ele>59</ele>
        <time>2021-02-28T14:38:52Z</time>
      </trkpt>
      <trkpt lat="43.57862" lon="3.74437">
        <ele>59</ele>
        <time>2021-02-28T14:38:53Z</time>
      </trkpt>
      <trkpt lat="43.57865" lon="3.74442">
        <ele>59</ele>
        <time>2021-02-28T14:38:54Z</time>
      </trkpt>
      <trkpt lat="43.57867" lon="3.74447">
        <ele>59</ele>
        <time>2021-02-28T14:38:55Z</time>
      </trkpt>
      <trkpt lat="43.5787" lon="3.74452">
        <ele>59</ele>
        <time>2021-02-28T14:38:56Z</time>
      </trkpt>
      <trkpt lat="43.57874" lon="3.74463">
        <ele>59</ele>
        <time>2021-02-28T14:38:58Z</time>
      </trkpt>
      <trkpt lat="43.57876" lon="3.74467">
        <ele>59</ele>
        <time>2021-02-28T14:38:59Z</time>
      </trkpt>
      <trkpt lat="43.57879" lon="3.74473">
        <ele>59</ele>
        <time>2021-02-28T14:39:00Z</time>
      </trkpt>
      <trkpt lat="43.57881" lon="3.74478">
        <ele>59</ele>
        <time>2021-02-28T14:39:01Z</time>
      </trkpt>
      <trkpt lat="43.57884" lon="3.74483">
        <ele>59</ele>
        <time>2021-02-28T14:39:02Z</time>
      </trkpt>
      <trkpt lat="43.57889" lon="3.74493">
        <ele>59</ele>
        <time>2021-02-28T14:39:04Z</time>
      </trkpt>
      <trkpt lat="43.57891" lon="3.74498">
        <ele>59</ele>
        <time>2021-02-28T14:39:05Z</time>
      </trkpt>
      <trkpt lat="43.57893" lon="3.74504">
        <ele>59</ele>
        <time>2021-02-28T14:39:06Z</time>
      </trkpt>
      <trkpt lat="43.57895" lon="3.7451">
        <ele>59</ele>
        <time>2021-02-28T14:39:07Z</time>
      </trkpt>
      <trkpt lat="43.57898" lon="3.74516">
        <ele>59</ele>
        <time>2021-02-28T14:39:08Z</time>
      </trkpt>
      <trkpt lat="43.579" lon="3.74522">
        <ele>59</ele>
        <time>2021-02-28T14:39:09Z</time>
      </trkpt>
      <trkpt lat="43.57905" lon="3.74534">
        <ele>59</ele>
        <time>2021-02-28T14:39:11Z</time>
      </trkpt>
      <trkpt lat="43.57907" lon="3.7454">
        <ele>59</ele>
        <time>2021-02-28T14:39:12Z</time>
      </trkpt>
      <trkpt lat="43.5791" lon="3.74546">
        <ele>59</ele>
        <time>2021-02-28T14:39:13Z</time>
      </trkpt>
      <trkpt lat="43.57912" lon="3.74551">
        <ele>59</ele>
        <time>2021-02-28T14:39:14Z</time>
      </trkpt>
      <trkpt lat="43.57915" lon="3.74557">
        <ele>59</ele>
        <time>2021-02-28T14:39:15Z</time>
      </trkpt>
      <trkpt lat="43.57917" lon="3.74562">
        <ele>59</ele>
        <time>2021-02-28T14:39:16Z</time>
      </trkpt>
      <trkpt lat="43.5792" lon="3.74567">
        <ele>59</ele>
        <time>2021-02-28T14:39:17Z</time>
      </trkpt>
      <trkpt lat="43.57923" lon="3.74572">
        <ele>59</ele>
        <time>2021-02-28T14:39:18Z</time>
      </trkpt>
      <trkpt lat="43.57925" lon="3.74577">
        <ele>59</ele>
        <time>2021-02-28T14:39:19Z</time>
      </trkpt>
      <trkpt lat="43.57928" lon="3.74582">
        <ele>59</ele>
        <time>2021-02-28T14:39:20Z</time>
      </trkpt>
      <trkpt lat="43.57931" lon="3.74587">
        <ele>59</ele>
        <time>2021-02-28T14:39:21Z</time>
      </trkpt>
      <trkpt lat="43.57933" lon="3.74593">
        <ele>59</ele>
        <time>2021-02-28T14:39:22Z</time>
      </trkpt>
      <trkpt lat="43.57936" lon="3.74598">
        <ele>59</ele>
        <time>2021-02-28T14:39:23Z</time>
      </trkpt>
      <trkpt lat="43.57938" lon="3.74604">
        <ele>59</ele>
        <time>2021-02-28T14:39:24Z</time>
      </trkpt>
      <trkpt lat="43.57941" lon="3.74609">
        <ele>59</ele>
        <time>2021-02-28T14:39:25Z</time>
      </trkpt>
      <trkpt lat="43.57943" lon="3.74614">
        <ele>59</ele>
        <time>2021-02-28T14:39:26Z</time>
      </trkpt>
      <trkpt lat="43.57946" lon="3.74618">
        <ele>59</ele>
        <time>2021-02-28T14:39:27Z</time>
      </trkpt>
      <trkpt lat="43.57948" lon="3.74623">
        <ele>59</ele>
        <time>2021-02-28T14:39:28Z</time>
      </trkpt>
      <trkpt lat="43.57951" lon="3.74627">
        <ele>59</ele>
        <time>2021-02-28T14:39:29Z</time>
      </trkpt>
      <trkpt lat="43.57954" lon="3.74636">
        <ele>59</ele>
        <time>2021-02-28T14:39:31Z</time>
      </trkpt>
      <trkpt lat="43.57956" lon="3.74642">
        <ele>59</ele>
        <time>2021-02-28T14:39:32Z</time>
      </trkpt>
      <trkpt lat="43.57961" lon="3.74652">
        <ele>59</ele>
        <time>2021-02-28T14:39:34Z</time>
      </trkpt>
      <trkpt lat="43.57963" lon="3.74657">
        <ele>58</ele>
        <time>2021-02-28T14:39:35Z</time>
      </trkpt>
      <trkpt lat="43.57966" lon="3.74662">
        <ele>58</ele>
        <time>2021-02-28T14:39:36Z</time>
      </trkpt>
      <trkpt lat="43.57968" lon="3.74667">
        <ele>58</ele>
        <time>2021-02-28T14:39:37Z</time>
      </trkpt>
      <trkpt lat="43.57971" lon="3.74672">
        <ele>58</ele>
        <time>2021-02-28T14:39:38Z</time>
      </trkpt>
      <trkpt lat="43.57976" lon="3.74681">
        <ele>58</ele>
        <time>2021-02-28T14:39:40Z</time>
      </trkpt>
      <trkpt lat="43.57978" lon="3.74686">
        <ele>58</ele>
        <time>2021-02-28T14:39:41Z</time>
      </trkpt>
      <trkpt lat="43.5798" lon="3.74691">
        <ele>58</ele>
        <time>2021-02-28T14:39:42Z</time>
      </trkpt>
      <trkpt lat="43.57983" lon="3.74695">
        <ele>58</ele>
        <time>2021-02-28T14:39:43Z</time>
      </trkpt>
      <trkpt lat="43.57985" lon="3.747">
        <ele>58</ele>
        <time>2021-02-28T14:39:44Z</time>
      </trkpt>
      <trkpt lat="43.57987" lon="3.74704">
        <ele>58</ele>
        <time>2021-02-28T14:39:45Z</time>
      </trkpt>
      <trkpt lat="43.57989" lon="3.74709">
        <ele>58</ele>
        <time>2021-02-28T14:39:46Z</time>
      </trkpt>
      <trkpt lat="43.57991" lon="3.74713">
        <ele>58</ele>
        <time>2021-02-28T14:39:47Z</time>
      </trkpt>
      <trkpt lat="43.57993" lon="3.74717">
        <ele>58</ele>
        <time>2021-02-28T14:39:48Z</time>
      </trkpt>
      <trkpt lat="43.57997" lon="3.74727">
        <ele>58</ele>
        <time>2021-02-28T14:39:50Z</time>
      </trkpt>
      <trkpt lat="43.58" lon="3.74731">
        <ele>58</ele>
        <time>2021-02-28T14:39:51Z</time>
      </trkpt>
      <trkpt lat="43.58002" lon="3.74736">
        <ele>58</ele>
        <time>2021-02-28T14:39:52Z</time>
      </trkpt>
      <trkpt lat="43.58004" lon="3.74741">
        <ele>58</ele>
        <time>2021-02-28T14:39:53Z</time>
      </trkpt>
      <trkpt lat="43.58006" lon="3.74746">
        <ele>58</ele>
        <time>2021-02-28T14:39:54Z</time>
      </trkpt>
      <trkpt lat="43.58008" lon="3.74751">
        <ele>58</ele>
        <time>2021-02-28T14:39:55Z</time>
      </trkpt>
      <trkpt lat="43.5801" lon="3.74757">
        <ele>58</ele>
        <time>2021-02-28T14:39:56Z</time>
      </trkpt>
      <trkpt lat="43.58012" lon="3.74761">
        <ele>58</ele>
        <time>2021-02-28T14:39:57Z</time>
      </trkpt>
      <trkpt lat="43.58014" lon="3.74765">
        <ele>58</ele>
        <time>2021-02-28T14:39:58Z</time>
      </trkpt>
      <trkpt lat="43.58015" lon="3.74768">
        <ele>58</ele>
        <time>2021-02-28T14:39:59Z</time>
      </trkpt>
      <trkpt lat="43.58015" lon="3.74772">
        <ele>58</ele>
        <time>2021-02-28T14:40:00Z</time>
      </trkpt>
      <trkpt lat="43.58013" lon="3.74776">
        <ele>58</ele>
        <time>2021-02-28T14:40:01Z</time>
      </trkpt>
      <trkpt lat="43.58008" lon="3.74786">
        <ele>58</ele>
        <time>2021-02-28T14:40:03Z</time>
      </trkpt>
      <trkpt lat="43.58005" lon="3.74789">
        <ele>58</ele>
        <time>2021-02-28T14:40:04Z</time>
      </trkpt>
      <trkpt lat="43.58003" lon="3.74791">
        <ele>57</ele>
        <time>2021-02-28T14:40:05Z</time>
      </trkpt>
      <trkpt lat="43.57997" lon="3.74796">
        <ele>57</ele>
        <time>2021-02-28T14:40:07Z</time>
      </trkpt>
      <trkpt lat="43.57993" lon="3.74799">
        <ele>57</ele>
        <time>2021-02-28T14:40:08Z</time>
      </trkpt>
      <trkpt lat="43.57988" lon="3.74803">
        <ele>57</ele>
        <time>2021-02-28T14:40:09Z</time>
      </trkpt>
      <trkpt lat="43.57983" lon="3.74808">
        <ele>57</ele>
        <time>2021-02-28T14:40:10Z</time>
      </trkpt>
      <trkpt lat="43.57978" lon="3.74812">
        <ele>57</ele>
        <time>2021-02-28T14:40:11Z</time>
      </trkpt>
      <trkpt lat="43.57973" lon="3.74817">
        <ele>57</ele>
        <time>2021-02-28T14:40:12Z</time>
      </trkpt>
      <trkpt lat="43.57969" lon="3.74822">
        <ele>57</ele>
        <time>2021-02-28T14:40:13Z</time>
      </trkpt>
      <trkpt lat="43.57964" lon="3.74826">
        <ele>57</ele>
        <time>2021-02-28T14:40:14Z</time>
      </trkpt>
      <trkpt lat="43.57959" lon="3.7483">
        <ele>54</ele>
        <time>2021-02-28T14:40:15Z</time>
      </trkpt>
      <trkpt lat="43.57955" lon="3.74835">
        <ele>54</ele>
        <time>2021-02-28T14:40:16Z</time>
      </trkpt>
      <trkpt lat="43.5795" lon="3.74839">
        <ele>54</ele>
        <time>2021-02-28T14:40:17Z</time>
      </trkpt>
      <trkpt lat="43.57946" lon="3.74843">
        <ele>54</ele>
        <time>2021-02-28T14:40:18Z</time>
      </trkpt>
      <trkpt lat="43.57942" lon="3.74848">
        <ele>54</ele>
        <time>2021-02-28T14:40:19Z</time>
      </trkpt>
      <trkpt lat="43.57937" lon="3.74852">
        <ele>54</ele>
        <time>2021-02-28T14:40:20Z</time>
      </trkpt>
      <trkpt lat="43.57933" lon="3.74856">
        <ele>54</ele>
        <time>2021-02-28T14:40:21Z</time>
      </trkpt>
      <trkpt lat="43.57929" lon="3.74861">
        <ele>54</ele>
        <time>2021-02-28T14:40:22Z</time>
      </trkpt>
      <trkpt lat="43.5792" lon="3.74869">
        <ele>54</ele>
        <time>2021-02-28T14:40:24Z</time>
      </trkpt>
      <trkpt lat="43.57915" lon="3.74874">
        <ele>52</ele>
        <time>2021-02-28T14:40:25Z</time>
      </trkpt>
      <trkpt lat="43.57906" lon="3.74883">
        <ele>52</ele>
        <time>2021-02-28T14:40:27Z</time>
      </trkpt>
      <trkpt lat="43.57901" lon="3.74887">
        <ele>52</ele>
        <time>2021-02-28T14:40:29Z</time>
      </trkpt>
      <trkpt lat="43.57896" lon="3.74892">
        <ele>52</ele>
        <time>2021-02-28T14:40:30Z</time>
      </trkpt>
      <trkpt lat="43.57887" lon="3.749">
        <ele>52</ele>
        <time>2021-02-28T14:40:31Z</time>
      </trkpt>
      <trkpt lat="43.57882" lon="3.74905">
        <ele>52</ele>
        <time>2021-02-28T14:40:32Z</time>
      </trkpt>
      <trkpt lat="43.57878" lon="3.74909">
        <ele>52</ele>
        <time>2021-02-28T14:40:33Z</time>
      </trkpt>
      <trkpt lat="43.57874" lon="3.74914">
        <ele>52</ele>
        <time>2021-02-28T14:40:34Z</time>
      </trkpt>
      <trkpt lat="43.5787" lon="3.74919">
        <ele>50</ele>
        <time>2021-02-28T14:40:35Z</time>
      </trkpt>
      <trkpt lat="43.57867" lon="3.74925">
        <ele>50</ele>
        <time>2021-02-28T14:40:36Z</time>
      </trkpt>
      <trkpt lat="43.57864" lon="3.74931">
        <ele>50</ele>
        <time>2021-02-28T14:40:37Z</time>
      </trkpt>
      <trkpt lat="43.57861" lon="3.74937">
        <ele>50</ele>
        <time>2021-02-28T14:40:38Z</time>
      </trkpt>
      <trkpt lat="43.57858" lon="3.74943">
        <ele>50</ele>
        <time>2021-02-28T14:40:39Z</time>
      </trkpt>
      <trkpt lat="43.57855" lon="3.74949">
        <ele>50</ele>
        <time>2021-02-28T14:40:40Z</time>
      </trkpt>
      <trkpt lat="43.57853" lon="3.74955">
        <ele>50</ele>
        <time>2021-02-28T14:40:41Z</time>
      </trkpt>
      <trkpt lat="43.5785" lon="3.7496">
        <ele>50</ele>
        <time>2021-02-28T14:40:42Z</time>
      </trkpt>
      <trkpt lat="43.57847" lon="3.74964">
        <ele>50</ele>
        <time>2021-02-28T14:40:43Z</time>
      </trkpt>
      <trkpt lat="43.57846" lon="3.74969">
        <ele>49</ele>
        <time>2021-02-28T14:40:45Z</time>
      </trkpt>
      <trkpt lat="43.57846" lon="3.74973">
        <ele>49</ele>
        <time>2021-02-28T14:40:46Z</time>
      </trkpt>
      <trkpt lat="43.57847" lon="3.74976">
        <ele>49</ele>
        <time>2021-02-28T14:40:47Z</time>
      </trkpt>
      <trkpt lat="43.57849" lon="3.74979">
        <ele>49</ele>
        <time>2021-02-28T14:40:49Z</time>
      </trkpt>
      <trkpt lat="43.57851" lon="3.74982">
        <ele>49</ele>
        <time>2021-02-28T14:40:51Z</time>
      </trkpt>
      <trkpt lat="43.57854" lon="3.74985">
        <ele>49</ele>
        <time>2021-02-28T14:40:53Z</time>
      </trkpt>
      <trkpt lat="43.57855" lon="3.74987">
        <ele>49</ele>
        <time>2021-02-28T14:40:54Z</time>
      </trkpt>
      <trkpt lat="43.57856" lon="3.74992">
        <ele>49</ele>
        <time>2021-02-28T14:40:57Z</time>
      </trkpt>
      <trkpt lat="43.57856" lon="3.74994">
        <ele>49</ele>
        <time>2021-02-28T14:40:58Z</time>
      </trkpt>
      <trkpt lat="43.57856" lon="3.74994">
        <ele>49</ele>
        <time>2021-02-28T14:41:04Z</time>
      </trkpt>
      <trkpt lat="43.57856" lon="3.74998">
        <ele>48</ele>
        <time>2021-02-28T14:47:44Z</time>
      </trkpt>
      <trkpt lat="43.57853" lon="3.75006">
        <ele>48</ele>
        <time>2021-02-28T14:47:45Z</time>
      </trkpt>
      <trkpt lat="43.57851" lon="3.75011">
        <ele>48</ele>
        <time>2021-02-28T14:47:46Z</time>
      </trkpt>
      <trkpt lat="43.57849" lon="3.75017">
        <ele>48</ele>
        <time>2021-02-28T14:47:47Z</time>
      </trkpt>
      <trkpt lat="43.57847" lon="3.75023">
        <ele>48</ele>
        <time>2021-02-28T14:47:48Z</time>
      </trkpt>
      <trkpt lat="43.57845" lon="3.75029">
        <ele>48</ele>
        <time>2021-02-28T14:47:49Z</time>
      </trkpt>
      <trkpt lat="43.57843" lon="3.75034">
        <ele>48</ele>
        <time>2021-02-28T14:47:50Z</time>
      </trkpt>
      <trkpt lat="43.5784" lon="3.75039">
        <ele>48</ele>
        <time>2021-02-28T14:47:51Z</time>
      </trkpt>
      <trkpt lat="43.57838" lon="3.75044">
        <ele>48</ele>
        <time>2021-02-28T14:47:52Z</time>
      </trkpt>
      <trkpt lat="43.57835" lon="3.75047">
        <ele>48</ele>
        <time>2021-02-28T14:47:53Z</time>
      </trkpt>
      <trkpt lat="43.57832" lon="3.7505">
        <ele>48</ele>
        <time>2021-02-28T14:47:54Z</time>
      </trkpt>
      <trkpt lat="43.57828" lon="3.75054">
        <ele>48</ele>
        <time>2021-02-28T14:47:55Z</time>
      </trkpt>
      <trkpt lat="43.57825" lon="3.75059">
        <ele>48</ele>
        <time>2021-02-28T14:47:56Z</time>
      </trkpt>
      <trkpt lat="43.57823" lon="3.75065">
        <ele>48</ele>
        <time>2021-02-28T14:47:57Z</time>
      </trkpt>
      <trkpt lat="43.57821" lon="3.75071">
        <ele>48</ele>
        <time>2021-02-28T14:47:58Z</time>
      </trkpt>
      <trkpt lat="43.57819" lon="3.75077">
        <ele>48</ele>
        <time>2021-02-28T14:47:59Z</time>
      </trkpt>
      <trkpt lat="43.57817" lon="3.75083">
        <ele>48</ele>
        <time>2021-02-28T14:48:00Z</time>
      </trkpt>
      <trkpt lat="43.57815" lon="3.75089">
        <ele>48</ele>
        <time>2021-02-28T14:48:01Z</time>
      </trkpt>
      <trkpt lat="43.57814" lon="3.75095">
        <ele>48</ele>
        <time>2021-02-28T14:48:02Z</time>
      </trkpt>
      <trkpt lat="43.57812" lon="3.75101">
        <ele>47</ele>
        <time>2021-02-28T14:48:03Z</time>
      </trkpt>
      <trkpt lat="43.5781" lon="3.75107">
        <ele>47</ele>
        <time>2021-02-28T14:48:04Z</time>
      </trkpt>
      <trkpt lat="43.57808" lon="3.75113">
        <ele>47</ele>
        <time>2021-02-28T14:48:05Z</time>
      </trkpt>
      <trkpt lat="43.57806" lon="3.75118">
        <ele>47</ele>
        <time>2021-02-28T14:48:06Z</time>
      </trkpt>
      <trkpt lat="43.57804" lon="3.75123">
        <ele>47</ele>
        <time>2021-02-28T14:48:07Z</time>
      </trkpt>
      <trkpt lat="43.57802" lon="3.75127">
        <ele>47</ele>
        <time>2021-02-28T14:48:08Z</time>
      </trkpt>
      <trkpt lat="43.57802" lon="3.75131">
        <ele>47</ele>
        <time>2021-02-28T14:48:09Z</time>
      </trkpt>
      <trkpt lat="43.57803" lon="3.75134">
        <ele>47</ele>
        <time>2021-02-28T14:48:10Z</time>
      </trkpt>
      <trkpt lat="43.57804" lon="3.75137">
        <ele>47</ele>
        <time>2021-02-28T14:48:11Z</time>
      </trkpt>
      <trkpt lat="43.57806" lon="3.7514">
        <ele>47</ele>
        <time>2021-02-28T14:48:12Z</time>
      </trkpt>
      <trkpt lat="43.57807" lon="3.75144">
        <ele>46</ele>
        <time>2021-02-28T14:48:13Z</time>
      </trkpt>
      <trkpt lat="43.57807" lon="3.75148">
        <ele>46</ele>
        <time>2021-02-28T14:48:14Z</time>
      </trkpt>
      <trkpt lat="43.57806" lon="3.75153">
        <ele>46</ele>
        <time>2021-02-28T14:48:15Z</time>
      </trkpt>
      <trkpt lat="43.57803" lon="3.75158">
        <ele>46</ele>
        <time>2021-02-28T14:48:16Z</time>
      </trkpt>
      <trkpt lat="43.57798" lon="3.75168">
        <ele>46</ele>
        <time>2021-02-28T14:48:18Z</time>
      </trkpt>
      <trkpt lat="43.57796" lon="3.75172">
        <ele>46</ele>
        <time>2021-02-28T14:48:19Z</time>
      </trkpt>
      <trkpt lat="43.57794" lon="3.75177">
        <ele>46</ele>
        <time>2021-02-28T14:48:20Z</time>
      </trkpt>
      <trkpt lat="43.57792" lon="3.75182">
        <ele>46</ele>
        <time>2021-02-28T14:48:21Z</time>
      </trkpt>
      <trkpt lat="43.5779" lon="3.75187">
        <ele>46</ele>
        <time>2021-02-28T14:48:22Z</time>
      </trkpt>
      <trkpt lat="43.57787" lon="3.75192">
        <ele>46</ele>
        <time>2021-02-28T14:48:23Z</time>
      </trkpt>
      <trkpt lat="43.57785" lon="3.75197">
        <ele>46</ele>
        <time>2021-02-28T14:48:24Z</time>
      </trkpt>
      <trkpt lat="43.57782" lon="3.75203">
        <ele>46</ele>
        <time>2021-02-28T14:48:25Z</time>
      </trkpt>
      <trkpt lat="43.5778" lon="3.75208">
        <ele>46</ele>
        <time>2021-02-28T14:48:26Z</time>
      </trkpt>
      <trkpt lat="43.57778" lon="3.75215">
        <ele>46</ele>
        <time>2021-02-28T14:48:27Z</time>
      </trkpt>
      <trkpt lat="43.57776" lon="3.75221">
        <ele>46</ele>
        <time>2021-02-28T14:48:28Z</time>
      </trkpt>
      <trkpt lat="43.57774" lon="3.75227">
        <ele>46</ele>
        <time>2021-02-28T14:48:29Z</time>
      </trkpt>
      <trkpt lat="43.57773" lon="3.75233">
        <ele>46</ele>
        <time>2021-02-28T14:48:30Z</time>
      </trkpt>
      <trkpt lat="43.57771" lon="3.75238">
        <ele>46</ele>
        <time>2021-02-28T14:48:31Z</time>
      </trkpt>
      <trkpt lat="43.57769" lon="3.75243">
        <ele>46</ele>
        <time>2021-02-28T14:48:32Z</time>
      </trkpt>
      <trkpt lat="43.57767" lon="3.75248">
        <ele>45</ele>
        <time>2021-02-28T14:48:33Z</time>
      </trkpt>
      <trkpt lat="43.57762" lon="3.75257">
        <ele>45</ele>
        <time>2021-02-28T14:48:35Z</time>
      </trkpt>
      <trkpt lat="43.57759" lon="3.75261">
        <ele>45</ele>
        <time>2021-02-28T14:48:36Z</time>
      </trkpt>
      <trkpt lat="43.57756" lon="3.75266">
        <ele>45</ele>
        <time>2021-02-28T14:48:37Z</time>
      </trkpt>
      <trkpt lat="43.57751" lon="3.75274">
        <ele>45</ele>
        <time>2021-02-28T14:48:39Z</time>
      </trkpt>
      <trkpt lat="43.57748" lon="3.75277">
        <ele>45</ele>
        <time>2021-02-28T14:48:40Z</time>
      </trkpt>
      <trkpt lat="43.57745" lon="3.75279">
        <ele>45</ele>
        <time>2021-02-28T14:48:41Z</time>
      </trkpt>
      <trkpt lat="43.57742" lon="3.7528">
        <ele>45</ele>
        <time>2021-02-28T14:48:42Z</time>
      </trkpt>
      <trkpt lat="43.57739" lon="3.75281">
        <ele>45</ele>
        <time>2021-02-28T14:48:43Z</time>
      </trkpt>
      <trkpt lat="43.57737" lon="3.75282">
        <ele>45</ele>
        <time>2021-02-28T14:48:44Z</time>
      </trkpt>
      <trkpt lat="43.57735" lon="3.75288">
        <ele>45</ele>
        <time>2021-02-28T14:48:46Z</time>
      </trkpt>
      <trkpt lat="43.57739" lon="3.75296">
        <ele>45</ele>
        <time>2021-02-28T14:48:48Z</time>
      </trkpt>
      <trkpt lat="43.57741" lon="3.753">
        <ele>45</ele>
        <time>2021-02-28T14:48:49Z</time>
      </trkpt>
      <trkpt lat="43.57743" lon="3.75304">
        <ele>45</ele>
        <time>2021-02-28T14:48:50Z</time>
      </trkpt>
      <trkpt lat="43.57745" lon="3.75309">
        <ele>45</ele>
        <time>2021-02-28T14:48:51Z</time>
      </trkpt>
      <trkpt lat="43.57748" lon="3.75313">
        <ele>44</ele>
        <time>2021-02-28T14:48:53Z</time>
      </trkpt>
      <trkpt lat="43.57752" lon="3.75323">
        <ele>44</ele>
        <time>2021-02-28T14:48:54Z</time>
      </trkpt>
      <trkpt lat="43.57755" lon="3.75327">
        <ele>44</ele>
        <time>2021-02-28T14:48:55Z</time>
      </trkpt>
      <trkpt lat="43.57757" lon="3.75331">
        <ele>44</ele>
        <time>2021-02-28T14:48:56Z</time>
      </trkpt>
      <trkpt lat="43.5776" lon="3.75335">
        <ele>44</ele>
        <time>2021-02-28T14:48:57Z</time>
      </trkpt>
      <trkpt lat="43.57763" lon="3.75339">
        <ele>44</ele>
        <time>2021-02-28T14:48:58Z</time>
      </trkpt>
      <trkpt lat="43.57766" lon="3.75342">
        <ele>44</ele>
        <time>2021-02-28T14:48:59Z</time>
      </trkpt>
      <trkpt lat="43.57769" lon="3.75345">
        <ele>44</ele>
        <time>2021-02-28T14:49:00Z</time>
      </trkpt>
      <trkpt lat="43.57772" lon="3.75349">
        <ele>44</ele>
        <time>2021-02-28T14:49:01Z</time>
      </trkpt>
      <trkpt lat="43.57775" lon="3.75353">
        <ele>44</ele>
        <time>2021-02-28T14:49:02Z</time>
      </trkpt>
      <trkpt lat="43.57777" lon="3.75359">
        <ele>43</ele>
        <time>2021-02-28T14:49:03Z</time>
      </trkpt>
      <trkpt lat="43.57778" lon="3.75365">
        <ele>43</ele>
        <time>2021-02-28T14:49:04Z</time>
      </trkpt>
      <trkpt lat="43.57779" lon="3.7537">
        <ele>43</ele>
        <time>2021-02-28T14:49:05Z</time>
      </trkpt>
      <trkpt lat="43.5778" lon="3.75376">
        <ele>43</ele>
        <time>2021-02-28T14:49:06Z</time>
      </trkpt>
      <trkpt lat="43.57781" lon="3.75382">
        <ele>43</ele>
        <time>2021-02-28T14:49:07Z</time>
      </trkpt>
      <trkpt lat="43.57782" lon="3.75387">
        <ele>43</ele>
        <time>2021-02-28T14:49:08Z</time>
      </trkpt>
      <trkpt lat="43.57783" lon="3.75392">
        <ele>43</ele>
        <time>2021-02-28T14:49:09Z</time>
      </trkpt>
      <trkpt lat="43.57786" lon="3.75397">
        <ele>43</ele>
        <time>2021-02-28T14:49:10Z</time>
      </trkpt>
      <trkpt lat="43.57788" lon="3.75402">
        <ele>43</ele>
        <time>2021-02-28T14:49:11Z</time>
      </trkpt>
      <trkpt lat="43.5779" lon="3.75407">
        <ele>43</ele>
        <time>2021-02-28T14:49:12Z</time>
      </trkpt>
      <trkpt lat="43.57792" lon="3.75411">
        <ele>43</ele>
        <time>2021-02-28T14:49:13Z</time>
      </trkpt>
      <trkpt lat="43.57795" lon="3.75416">
        <ele>43</ele>
        <time>2021-02-28T14:49:14Z</time>
      </trkpt>
      <trkpt lat="43.57797" lon="3.75421">
        <ele>43</ele>
        <time>2021-02-28T14:49:15Z</time>
      </trkpt>
      <trkpt lat="43.57799" lon="3.75425">
        <ele>43</ele>
        <time>2021-02-28T14:49:16Z</time>
      </trkpt>
      <trkpt lat="43.57801" lon="3.7543">
        <ele>43</ele>
        <time>2021-02-28T14:49:17Z</time>
      </trkpt>
      <trkpt lat="43.57805" lon="3.7544">
        <ele>43</ele>
        <time>2021-02-28T14:49:19Z</time>
      </trkpt>
      <trkpt lat="43.57807" lon="3.75445">
        <ele>43</ele>
        <time>2021-02-28T14:49:20Z</time>
      </trkpt>
      <trkpt lat="43.57809" lon="3.7545">
        <ele>43</ele>
        <time>2021-02-28T14:49:21Z</time>
      </trkpt>
      <trkpt lat="43.57811" lon="3.75455">
        <ele>43</ele>
        <time>2021-02-28T14:49:22Z</time>
      </trkpt>
      <trkpt lat="43.57813" lon="3.7546">
        <ele>44</ele>
        <time>2021-02-28T14:49:23Z</time>
      </trkpt>
      <trkpt lat="43.57814" lon="3.75465">
        <ele>44</ele>
        <time>2021-02-28T14:49:24Z</time>
      </trkpt>
      <trkpt lat="43.57816" lon="3.7547">
        <ele>44</ele>
        <time>2021-02-28T14:49:25Z</time>
      </trkpt>
      <trkpt lat="43.57818" lon="3.75475">
        <ele>44</ele>
        <time>2021-02-28T14:49:26Z</time>
      </trkpt>
      <trkpt lat="43.5782" lon="3.7548">
        <ele>44</ele>
        <time>2021-02-28T14:49:27Z</time>
      </trkpt>
      <trkpt lat="43.57821" lon="3.75485">
        <ele>44</ele>
        <time>2021-02-28T14:49:28Z</time>
      </trkpt>
      <trkpt lat="43.57823" lon="3.7549">
        <ele>44</ele>
        <time>2021-02-28T14:49:29Z</time>
      </trkpt>
      <trkpt lat="43.57825" lon="3.75495">
        <ele>44</ele>
        <time>2021-02-28T14:49:30Z</time>
      </trkpt>
      <trkpt lat="43.57828" lon="3.75505">
        <ele>44</ele>
        <time>2021-02-28T14:49:32Z</time>
      </trkpt>
      <trkpt lat="43.5783" lon="3.75509">
        <ele>45</ele>
        <time>2021-02-28T14:49:33Z</time>
      </trkpt>
      <trkpt lat="43.57831" lon="3.75514">
        <ele>45</ele>
        <time>2021-02-28T14:49:34Z</time>
      </trkpt>
      <trkpt lat="43.57833" lon="3.75519">
        <ele>45</ele>
        <time>2021-02-28T14:49:35Z</time>
      </trkpt>
      <trkpt lat="43.57834" lon="3.75524">
        <ele>45</ele>
        <time>2021-02-28T14:49:36Z</time>
      </trkpt>
      <trkpt lat="43.57835" lon="3.75529">
        <ele>45</ele>
        <time>2021-02-28T14:49:37Z</time>
      </trkpt>
      <trkpt lat="43.57837" lon="3.75534">
        <ele>45</ele>
        <time>2021-02-28T14:49:38Z</time>
      </trkpt>
      <trkpt lat="43.57838" lon="3.75538">
        <ele>45</ele>
        <time>2021-02-28T14:49:39Z</time>
      </trkpt>
      <trkpt lat="43.57839" lon="3.75543">
        <ele>45</ele>
        <time>2021-02-28T14:49:40Z</time>
      </trkpt>
      <trkpt lat="43.5784" lon="3.75548">
        <ele>45</ele>
        <time>2021-02-28T14:49:41Z</time>
      </trkpt>
      <trkpt lat="43.57841" lon="3.75553">
        <ele>45</ele>
        <time>2021-02-28T14:49:42Z</time>
      </trkpt>
      <trkpt lat="43.57842" lon="3.75558">
        <ele>45</ele>
        <time>2021-02-28T14:49:43Z</time>
      </trkpt>
      <trkpt lat="43.57843" lon="3.75563">
        <ele>45</ele>
        <time>2021-02-28T14:49:44Z</time>
      </trkpt>
      <trkpt lat="43.57844" lon="3.75568">
        <ele>45</ele>
        <time>2021-02-28T14:49:45Z</time>
      </trkpt>
      <trkpt lat="43.57845" lon="3.75573">
        <ele>45</ele>
        <time>2021-02-28T14:49:46Z</time>
      </trkpt>
      <trkpt lat="43.57846" lon="3.75578">
        <ele>45</ele>
        <time>2021-02-28T14:49:47Z</time>
      </trkpt>
      <trkpt lat="43.57848" lon="3.75582">
        <ele>45</ele>
        <time>2021-02-28T14:49:48Z</time>
      </trkpt>
      <trkpt lat="43.5785" lon="3.75586">
        <ele>45</ele>
        <time>2021-02-28T14:49:49Z</time>
      </trkpt>
      <trkpt lat="43.57852" lon="3.75589">
        <ele>45</ele>
        <time>2021-02-28T14:49:50Z</time>
      </trkpt>
      <trkpt lat="43.57855" lon="3.75591">
        <ele>45</ele>
        <time>2021-02-28T14:49:51Z</time>
      </trkpt>
      <trkpt lat="43.57858" lon="3.75594">
        <ele>46</ele>
        <time>2021-02-28T14:49:53Z</time>
      </trkpt>
      <trkpt lat="43.5786" lon="3.75596">
        <ele>46</ele>
        <time>2021-02-28T14:49:54Z</time>
      </trkpt>
      <trkpt lat="43.57861" lon="3.75599">
        <ele>46</ele>
        <time>2021-02-28T14:49:55Z</time>
      </trkpt>
      <trkpt lat="43.57863" lon="3.75602">
        <ele>46</ele>
        <time>2021-02-28T14:49:57Z</time>
      </trkpt>
      <trkpt lat="43.57866" lon="3.75611">
        <ele>46</ele>
        <time>2021-02-28T14:49:58Z</time>
      </trkpt>
      <trkpt lat="43.57868" lon="3.7562">
        <ele>46</ele>
        <time>2021-02-28T14:50:00Z</time>
      </trkpt>
      <trkpt lat="43.57869" lon="3.75625">
        <ele>46</ele>
        <time>2021-02-28T14:50:01Z</time>
      </trkpt>
      <trkpt lat="43.57869" lon="3.7563">
        <ele>46</ele>
        <time>2021-02-28T14:50:02Z</time>
      </trkpt>
      <trkpt lat="43.57869" lon="3.75636">
        <ele>46</ele>
        <time>2021-02-28T14:50:03Z</time>
      </trkpt>
      <trkpt lat="43.57868" lon="3.75641">
        <ele>46</ele>
        <time>2021-02-28T14:50:04Z</time>
      </trkpt>
      <trkpt lat="43.57867" lon="3.75646">
        <ele>46</ele>
        <time>2021-02-28T14:50:05Z</time>
      </trkpt>
      <trkpt lat="43.57865" lon="3.75651">
        <ele>46</ele>
        <time>2021-02-28T14:50:06Z</time>
      </trkpt>
      <trkpt lat="43.57863" lon="3.75656">
        <ele>46</ele>
        <time>2021-02-28T14:50:07Z</time>
      </trkpt>
      <trkpt lat="43.57861" lon="3.75661">
        <ele>46</ele>
        <time>2021-02-28T14:50:08Z</time>
      </trkpt>
      <trkpt lat="43.5786" lon="3.75666">
        <ele>46</ele>
        <time>2021-02-28T14:50:09Z</time>
      </trkpt>
      <trkpt lat="43.57858" lon="3.75671">
        <ele>46</ele>
        <time>2021-02-28T14:50:10Z</time>
      </trkpt>
      <trkpt lat="43.57857" lon="3.75677">
        <ele>46</ele>
        <time>2021-02-28T14:50:11Z</time>
      </trkpt>
      <trkpt lat="43.57856" lon="3.75683">
        <ele>46</ele>
        <time>2021-02-28T14:50:12Z</time>
      </trkpt>
      <trkpt lat="43.57855" lon="3.75695">
        <ele>46</ele>
        <time>2021-02-28T14:50:14Z</time>
      </trkpt>
      <trkpt lat="43.57855" lon="3.75701">
        <ele>46</ele>
        <time>2021-02-28T14:50:15Z</time>
      </trkpt>
      <trkpt lat="43.57855" lon="3.75707">
        <ele>46</ele>
        <time>2021-02-28T14:50:16Z</time>
      </trkpt>
      <trkpt lat="43.57854" lon="3.75713">
        <ele>46</ele>
        <time>2021-02-28T14:50:17Z</time>
      </trkpt>
      <trkpt lat="43.57854" lon="3.75719">
        <ele>46</ele>
        <time>2021-02-28T14:50:18Z</time>
      </trkpt>
      <trkpt lat="43.57854" lon="3.75725">
        <ele>46</ele>
        <time>2021-02-28T14:50:19Z</time>
      </trkpt>
      <trkpt lat="43.57853" lon="3.75731">
        <ele>46</ele>
        <time>2021-02-28T14:50:20Z</time>
      </trkpt>
      <trkpt lat="43.57852" lon="3.75743">
        <ele>46</ele>
        <time>2021-02-28T14:50:22Z</time>
      </trkpt>
      <trkpt lat="43.57852" lon="3.75749">
        <ele>47</ele>
        <time>2021-02-28T14:50:23Z</time>
      </trkpt>
      <trkpt lat="43.57851" lon="3.75755">
        <ele>47</ele>
        <time>2021-02-28T14:50:24Z</time>
      </trkpt>
      <trkpt lat="43.57851" lon="3.75762">
        <ele>47</ele>
        <time>2021-02-28T14:50:25Z</time>
      </trkpt>
      <trkpt lat="43.5785" lon="3.75768">
        <ele>47</ele>
        <time>2021-02-28T14:50:26Z</time>
      </trkpt>
      <trkpt lat="43.57849" lon="3.75774">
        <ele>47</ele>
        <time>2021-02-28T14:50:27Z</time>
      </trkpt>
      <trkpt lat="43.57848" lon="3.7578">
        <ele>47</ele>
        <time>2021-02-28T14:50:28Z</time>
      </trkpt>
      <trkpt lat="43.57847" lon="3.75787">
        <ele>47</ele>
        <time>2021-02-28T14:50:29Z</time>
      </trkpt>
      <trkpt lat="43.57846" lon="3.75793">
        <ele>47</ele>
        <time>2021-02-28T14:50:30Z</time>
      </trkpt>
      <trkpt lat="43.57846" lon="3.75799">
        <ele>47</ele>
        <time>2021-02-28T14:50:31Z</time>
      </trkpt>
      <trkpt lat="43.57845" lon="3.75806">
        <ele>47</ele>
        <time>2021-02-28T14:50:32Z</time>
      </trkpt>
      <trkpt lat="43.57844" lon="3.75812">
        <ele>46</ele>
        <time>2021-02-28T14:50:33Z</time>
      </trkpt>
      <trkpt lat="43.57843" lon="3.75818">
        <ele>46</ele>
        <time>2021-02-28T14:50:34Z</time>
      </trkpt>
      <trkpt lat="43.57842" lon="3.75825">
        <ele>46</ele>
        <time>2021-02-28T14:50:35Z</time>
      </trkpt>
      <trkpt lat="43.57841" lon="3.75831">
        <ele>46</ele>
        <time>2021-02-28T14:50:36Z</time>
      </trkpt>
      <trkpt lat="43.5784" lon="3.75838">
        <ele>46</ele>
        <time>2021-02-28T14:50:37Z</time>
      </trkpt>
      <trkpt lat="43.5784" lon="3.75845">
        <ele>46</ele>
        <time>2021-02-28T14:50:38Z</time>
      </trkpt>
      <trkpt lat="43.57839" lon="3.75852">
        <ele>46</ele>
        <time>2021-02-28T14:50:39Z</time>
      </trkpt>
      <trkpt lat="43.57838" lon="3.75859">
        <ele>46</ele>
        <time>2021-02-28T14:50:40Z</time>
      </trkpt>
      <trkpt lat="43.57837" lon="3.75866">
        <ele>46</ele>
        <time>2021-02-28T14:50:41Z</time>
      </trkpt>
      <trkpt lat="43.57836" lon="3.75873">
        <ele>46</ele>
        <time>2021-02-28T14:50:42Z</time>
      </trkpt>
      <trkpt lat="43.57834" lon="3.75889">
        <ele>46</ele>
        <time>2021-02-28T14:50:44Z</time>
      </trkpt>
      <trkpt lat="43.57833" lon="3.75896">
        <ele>46</ele>
        <time>2021-02-28T14:50:45Z</time>
      </trkpt>
      <trkpt lat="43.57832" lon="3.75904">
        <ele>46</ele>
        <time>2021-02-28T14:50:46Z</time>
      </trkpt>
      <trkpt lat="43.57831" lon="3.75912">
        <ele>46</ele>
        <time>2021-02-28T14:50:47Z</time>
      </trkpt>
      <trkpt lat="43.5783" lon="3.7592">
        <ele>46</ele>
        <time>2021-02-28T14:50:48Z</time>
      </trkpt>
      <trkpt lat="43.57828" lon="3.75928">
        <ele>46</ele>
        <time>2021-02-28T14:50:49Z</time>
      </trkpt>
      <trkpt lat="43.57828" lon="3.75935">
        <ele>46</ele>
        <time>2021-02-28T14:50:50Z</time>
      </trkpt>
      <trkpt lat="43.57827" lon="3.75943">
        <ele>46</ele>
        <time>2021-02-28T14:50:51Z</time>
      </trkpt>
      <trkpt lat="43.57824" lon="3.75959">
        <ele>44</ele>
        <time>2021-02-28T14:50:53Z</time>
      </trkpt>
      <trkpt lat="43.57823" lon="3.75966">
        <ele>44</ele>
        <time>2021-02-28T14:50:54Z</time>
      </trkpt>
      <trkpt lat="43.57822" lon="3.75974">
        <ele>44</ele>
        <time>2021-02-28T14:50:55Z</time>
      </trkpt>
      <trkpt lat="43.57821" lon="3.75982">
        <ele>44</ele>
        <time>2021-02-28T14:50:56Z</time>
      </trkpt>
      <trkpt lat="43.57821" lon="3.75989">
        <ele>44</ele>
        <time>2021-02-28T14:50:57Z</time>
      </trkpt>
      <trkpt lat="43.57819" lon="3.75997">
        <ele>44</ele>
        <time>2021-02-28T14:50:58Z</time>
      </trkpt>
      <trkpt lat="43.57818" lon="3.76004">
        <ele>44</ele>
        <time>2021-02-28T14:50:59Z</time>
      </trkpt>
      <trkpt lat="43.57818" lon="3.76012">
        <ele>44</ele>
        <time>2021-02-28T14:51:00Z</time>
      </trkpt>
      <trkpt lat="43.57816" lon="3.7602">
        <ele>44</ele>
        <time>2021-02-28T14:51:01Z</time>
      </trkpt>
      <trkpt lat="43.57816" lon="3.76027">
        <ele>44</ele>
        <time>2021-02-28T14:51:02Z</time>
      </trkpt>
      <trkpt lat="43.57814" lon="3.76035">
        <ele>43</ele>
        <time>2021-02-28T14:51:03Z</time>
      </trkpt>
      <trkpt lat="43.57813" lon="3.76043">
        <ele>43</ele>
        <time>2021-02-28T14:51:04Z</time>
      </trkpt>
      <trkpt lat="43.57813" lon="3.76051">
        <ele>43</ele>
        <time>2021-02-28T14:51:05Z</time>
      </trkpt>
      <trkpt lat="43.57812" lon="3.76059">
        <ele>43</ele>
        <time>2021-02-28T14:51:06Z</time>
      </trkpt>
      <trkpt lat="43.57811" lon="3.76067">
        <ele>43</ele>
        <time>2021-02-28T14:51:07Z</time>
      </trkpt>
      <trkpt lat="43.5781" lon="3.76075">
        <ele>43</ele>
        <time>2021-02-28T14:51:08Z</time>
      </trkpt>
      <trkpt lat="43.57809" lon="3.76082">
        <ele>43</ele>
        <time>2021-02-28T14:51:09Z</time>
      </trkpt>
      <trkpt lat="43.57808" lon="3.76097">
        <ele>43</ele>
        <time>2021-02-28T14:51:11Z</time>
      </trkpt>
      <trkpt lat="43.57808" lon="3.76104">
        <ele>43</ele>
        <time>2021-02-28T14:51:12Z</time>
      </trkpt>
      <trkpt lat="43.57811" lon="3.76118">
        <ele>43</ele>
        <time>2021-02-28T14:51:14Z</time>
      </trkpt>
      <trkpt lat="43.57812" lon="3.76125">
        <ele>43</ele>
        <time>2021-02-28T14:51:15Z</time>
      </trkpt>
      <trkpt lat="43.57814" lon="3.76132">
        <ele>43</ele>
        <time>2021-02-28T14:51:16Z</time>
      </trkpt>
      <trkpt lat="43.57814" lon="3.76139">
        <ele>43</ele>
        <time>2021-02-28T14:51:17Z</time>
      </trkpt>
      <trkpt lat="43.57813" lon="3.76147">
        <ele>43</ele>
        <time>2021-02-28T14:51:18Z</time>
      </trkpt>
      <trkpt lat="43.57812" lon="3.76154">
        <ele>43</ele>
        <time>2021-02-28T14:51:19Z</time>
      </trkpt>
      <trkpt lat="43.5781" lon="3.76162">
        <ele>43</ele>
        <time>2021-02-28T14:51:20Z</time>
      </trkpt>
      <trkpt lat="43.57808" lon="3.7617">
        <ele>43</ele>
        <time>2021-02-28T14:51:21Z</time>
      </trkpt>
      <trkpt lat="43.57807" lon="3.76177">
        <ele>43</ele>
        <time>2021-02-28T14:51:22Z</time>
      </trkpt>
      <trkpt lat="43.57805" lon="3.76193">
        <ele>43</ele>
        <time>2021-02-28T14:51:24Z</time>
      </trkpt>
      <trkpt lat="43.57805" lon="3.76201">
        <ele>43</ele>
        <time>2021-02-28T14:51:25Z</time>
      </trkpt>
      <trkpt lat="43.57806" lon="3.76208">
        <ele>43</ele>
        <time>2021-02-28T14:51:26Z</time>
      </trkpt>
      <trkpt lat="43.57806" lon="3.76216">
        <ele>43</ele>
        <time>2021-02-28T14:51:27Z</time>
      </trkpt>
      <trkpt lat="43.57806" lon="3.76223">
        <ele>43</ele>
        <time>2021-02-28T14:51:28Z</time>
      </trkpt>
      <trkpt lat="43.57806" lon="3.76231">
        <ele>43</ele>
        <time>2021-02-28T14:51:29Z</time>
      </trkpt>
      <trkpt lat="43.57807" lon="3.76239">
        <ele>43</ele>
        <time>2021-02-28T14:51:30Z</time>
      </trkpt>
      <trkpt lat="43.57807" lon="3.76246">
        <ele>43</ele>
        <time>2021-02-28T14:51:31Z</time>
      </trkpt>
      <trkpt lat="43.57808" lon="3.76253">
        <ele>43</ele>
        <time>2021-02-28T14:51:32Z</time>
      </trkpt>
      <trkpt lat="43.57808" lon="3.76261">
        <ele>40</ele>
        <time>2021-02-28T14:51:33Z</time>
      </trkpt>
      <trkpt lat="43.57809" lon="3.76269">
        <ele>40</ele>
        <time>2021-02-28T14:51:34Z</time>
      </trkpt>
      <trkpt lat="43.57809" lon="3.76276">
        <ele>40</ele>
        <time>2021-02-28T14:51:35Z</time>
      </trkpt>
      <trkpt lat="43.5781" lon="3.76291">
        <ele>40</ele>
        <time>2021-02-28T14:51:37Z</time>
      </trkpt>
      <trkpt lat="43.57811" lon="3.76299">
        <ele>40</ele>
        <time>2021-02-28T14:51:38Z</time>
      </trkpt>
      <trkpt lat="43.57811" lon="3.76306">
        <ele>40</ele>
        <time>2021-02-28T14:51:39Z</time>
      </trkpt>
      <trkpt lat="43.57812" lon="3.76314">
        <ele>40</ele>
        <time>2021-02-28T14:51:40Z</time>
      </trkpt>
      <trkpt lat="43.57813" lon="3.76321">
        <ele>40</ele>
        <time>2021-02-28T14:51:41Z</time>
      </trkpt>
      <trkpt lat="43.57814" lon="3.76329">
        <ele>40</ele>
        <time>2021-02-28T14:51:42Z</time>
      </trkpt>
      <trkpt lat="43.57816" lon="3.76336">
        <ele>40</ele>
        <time>2021-02-28T14:51:43Z</time>
      </trkpt>
      <trkpt lat="43.57817" lon="3.76343">
        <ele>40</ele>
        <time>2021-02-28T14:51:44Z</time>
      </trkpt>
      <trkpt lat="43.57818" lon="3.76351">
        <ele>40</ele>
        <time>2021-02-28T14:51:45Z</time>
      </trkpt>
      <trkpt lat="43.57819" lon="3.76358">
        <ele>40</ele>
        <time>2021-02-28T14:51:46Z</time>
      </trkpt>
      <trkpt lat="43.5782" lon="3.76365">
        <ele>40</ele>
        <time>2021-02-28T14:51:47Z</time>
      </trkpt>
      <trkpt lat="43.57821" lon="3.76372">
        <ele>40</ele>
        <time>2021-02-28T14:51:48Z</time>
      </trkpt>
      <trkpt lat="43.57824" lon="3.76386">
        <ele>40</ele>
        <time>2021-02-28T14:51:50Z</time>
      </trkpt>
      <trkpt lat="43.57825" lon="3.76393">
        <ele>40</ele>
        <time>2021-02-28T14:51:51Z</time>
      </trkpt>
      <trkpt lat="43.57827" lon="3.764">
        <ele>40</ele>
        <time>2021-02-28T14:51:52Z</time>
      </trkpt>
      <trkpt lat="43.57828" lon="3.76407">
        <ele>39</ele>
        <time>2021-02-28T14:51:53Z</time>
      </trkpt>
      <trkpt lat="43.57831" lon="3.76421">
        <ele>39</ele>
        <time>2021-02-28T14:51:55Z</time>
      </trkpt>
      <trkpt lat="43.57833" lon="3.76428">
        <ele>39</ele>
        <time>2021-02-28T14:51:56Z</time>
      </trkpt>
      <trkpt lat="43.57835" lon="3.76435">
        <ele>39</ele>
        <time>2021-02-28T14:51:57Z</time>
      </trkpt>
      <trkpt lat="43.57837" lon="3.76441">
        <ele>39</ele>
        <time>2021-02-28T14:51:58Z</time>
      </trkpt>
      <trkpt lat="43.57838" lon="3.76448">
        <ele>39</ele>
        <time>2021-02-28T14:51:59Z</time>
      </trkpt>
      <trkpt lat="43.5784" lon="3.76454">
        <ele>39</ele>
        <time>2021-02-28T14:52:00Z</time>
      </trkpt>
      <trkpt lat="43.57842" lon="3.76461">
        <ele>39</ele>
        <time>2021-02-28T14:52:01Z</time>
      </trkpt>
      <trkpt lat="43.57844" lon="3.76467">
        <ele>39</ele>
        <time>2021-02-28T14:52:02Z</time>
      </trkpt>
      <trkpt lat="43.57847" lon="3.76474">
        <ele>38</ele>
        <time>2021-02-28T14:52:03Z</time>
      </trkpt>
      <trkpt lat="43.57849" lon="3.76481">
        <ele>38</ele>
        <time>2021-02-28T14:52:04Z</time>
      </trkpt>
      <trkpt lat="43.57851" lon="3.76487">
        <ele>38</ele>
        <time>2021-02-28T14:52:05Z</time>
      </trkpt>
      <trkpt lat="43.57853" lon="3.76493">
        <ele>38</ele>
        <time>2021-02-28T14:52:06Z</time>
      </trkpt>
      <trkpt lat="43.57855" lon="3.765">
        <ele>38</ele>
        <time>2021-02-28T14:52:07Z</time>
      </trkpt>
      <trkpt lat="43.57857" lon="3.76506">
        <ele>38</ele>
        <time>2021-02-28T14:52:08Z</time>
      </trkpt>
      <trkpt lat="43.57859" lon="3.76512">
        <ele>38</ele>
        <time>2021-02-28T14:52:09Z</time>
      </trkpt>
      <trkpt lat="43.57861" lon="3.76518">
        <ele>38</ele>
        <time>2021-02-28T14:52:10Z</time>
      </trkpt>
      <trkpt lat="43.57863" lon="3.76524">
        <ele>38</ele>
        <time>2021-02-28T14:52:11Z</time>
      </trkpt>
      <trkpt lat="43.57866" lon="3.76531">
        <ele>38</ele>
        <time>2021-02-28T14:52:12Z</time>
      </trkpt>
      <trkpt lat="43.57868" lon="3.76537">
        <ele>38</ele>
        <time>2021-02-28T14:52:13Z</time>
      </trkpt>
      <trkpt lat="43.5787" lon="3.76543">
        <ele>38</ele>
        <time>2021-02-28T14:52:14Z</time>
      </trkpt>
      <trkpt lat="43.57872" lon="3.76549">
        <ele>38</ele>
        <time>2021-02-28T14:52:15Z</time>
      </trkpt>
      <trkpt lat="43.57877" lon="3.76562">
        <ele>38</ele>
        <time>2021-02-28T14:52:17Z</time>
      </trkpt>
      <trkpt lat="43.57879" lon="3.76568">
        <ele>38</ele>
        <time>2021-02-28T14:52:18Z</time>
      </trkpt>
      <trkpt lat="43.57882" lon="3.76574">
        <ele>38</ele>
        <time>2021-02-28T14:52:19Z</time>
      </trkpt>
      <trkpt lat="43.57885" lon="3.7658">
        <ele>38</ele>
        <time>2021-02-28T14:52:20Z</time>
      </trkpt>
      <trkpt lat="43.57887" lon="3.76586">
        <ele>38</ele>
        <time>2021-02-28T14:52:21Z</time>
      </trkpt>
      <trkpt lat="43.5789" lon="3.76592">
        <ele>38</ele>
        <time>2021-02-28T14:52:22Z</time>
      </trkpt>
      <trkpt lat="43.57892" lon="3.76598">
        <ele>38</ele>
        <time>2021-02-28T14:52:23Z</time>
      </trkpt>
      <trkpt lat="43.57895" lon="3.76603">
        <ele>38</ele>
        <time>2021-02-28T14:52:24Z</time>
      </trkpt>
      <trkpt lat="43.57897" lon="3.76609">
        <ele>38</ele>
        <time>2021-02-28T14:52:25Z</time>
      </trkpt>
      <trkpt lat="43.579" lon="3.76615">
        <ele>38</ele>
        <time>2021-02-28T14:52:26Z</time>
      </trkpt>
      <trkpt lat="43.57903" lon="3.7662">
        <ele>38</ele>
        <time>2021-02-28T14:52:27Z</time>
      </trkpt>
      <trkpt lat="43.57906" lon="3.76626">
        <ele>38</ele>
        <time>2021-02-28T14:52:28Z</time>
      </trkpt>
      <trkpt lat="43.57911" lon="3.76637">
        <ele>38</ele>
        <time>2021-02-28T14:52:30Z</time>
      </trkpt>
      <trkpt lat="43.57914" lon="3.76643">
        <ele>38</ele>
        <time>2021-02-28T14:52:31Z</time>
      </trkpt>
      <trkpt lat="43.57917" lon="3.76649">
        <ele>38</ele>
        <time>2021-02-28T14:52:32Z</time>
      </trkpt>
      <trkpt lat="43.5792" lon="3.76654">
        <ele>37</ele>
        <time>2021-02-28T14:52:33Z</time>
      </trkpt>
      <trkpt lat="43.57923" lon="3.7666">
        <ele>37</ele>
        <time>2021-02-28T14:52:34Z</time>
      </trkpt>
      <trkpt lat="43.57926" lon="3.76666">
        <ele>37</ele>
        <time>2021-02-28T14:52:35Z</time>
      </trkpt>
      <trkpt lat="43.57932" lon="3.76677">
        <ele>37</ele>
        <time>2021-02-28T14:52:37Z</time>
      </trkpt>
      <trkpt lat="43.57937" lon="3.76688">
        <ele>37</ele>
        <time>2021-02-28T14:52:39Z</time>
      </trkpt>
      <trkpt lat="43.5794" lon="3.76693">
        <ele>37</ele>
        <time>2021-02-28T14:52:40Z</time>
      </trkpt>
      <trkpt lat="43.57943" lon="3.76699">
        <ele>37</ele>
        <time>2021-02-28T14:52:41Z</time>
      </trkpt>
      <trkpt lat="43.57946" lon="3.76704">
        <ele>37</ele>
        <time>2021-02-28T14:52:42Z</time>
      </trkpt>
      <trkpt lat="43.57949" lon="3.76709">
        <ele>37</ele>
        <time>2021-02-28T14:52:43Z</time>
      </trkpt>
      <trkpt lat="43.57952" lon="3.76714">
        <ele>37</ele>
        <time>2021-02-28T14:52:44Z</time>
      </trkpt>
      <trkpt lat="43.57954" lon="3.7672">
        <ele>37</ele>
        <time>2021-02-28T14:52:45Z</time>
      </trkpt>
      <trkpt lat="43.57957" lon="3.76725">
        <ele>37</ele>
        <time>2021-02-28T14:52:46Z</time>
      </trkpt>
      <trkpt lat="43.57961" lon="3.76729">
        <ele>37</ele>
        <time>2021-02-28T14:52:47Z</time>
      </trkpt>
      <trkpt lat="43.57964" lon="3.76733">
        <ele>37</ele>
        <time>2021-02-28T14:52:48Z</time>
      </trkpt>
      <trkpt lat="43.57968" lon="3.76736">
        <ele>37</ele>
        <time>2021-02-28T14:52:49Z</time>
      </trkpt>
      <trkpt lat="43.57972" lon="3.76739">
        <ele>37</ele>
        <time>2021-02-28T14:52:50Z</time>
      </trkpt>
      <trkpt lat="43.57976" lon="3.76741">
        <ele>37</ele>
        <time>2021-02-28T14:52:51Z</time>
      </trkpt>
      <trkpt lat="43.5798" lon="3.76743">
        <ele>37</ele>
        <time>2021-02-28T14:52:52Z</time>
      </trkpt>
      <trkpt lat="43.57984" lon="3.76744">
        <ele>37</ele>
        <time>2021-02-28T14:52:53Z</time>
      </trkpt>
      <trkpt lat="43.57989" lon="3.76746">
        <ele>37</ele>
        <time>2021-02-28T14:52:54Z</time>
      </trkpt>
      <trkpt lat="43.57993" lon="3.76748">
        <ele>37</ele>
        <time>2021-02-28T14:52:55Z</time>
      </trkpt>
      <trkpt lat="43.58001" lon="3.76752">
        <ele>37</ele>
        <time>2021-02-28T14:52:57Z</time>
      </trkpt>
      <trkpt lat="43.58005" lon="3.76755">
        <ele>37</ele>
        <time>2021-02-28T14:52:58Z</time>
      </trkpt>
      <trkpt lat="43.58008" lon="3.76758">
        <ele>37</ele>
        <time>2021-02-28T14:52:59Z</time>
      </trkpt>
      <trkpt lat="43.58012" lon="3.76766">
        <ele>37</ele>
        <time>2021-02-28T14:53:01Z</time>
      </trkpt>
      <trkpt lat="43.58014" lon="3.7677">
        <ele>37</ele>
        <time>2021-02-28T14:53:02Z</time>
      </trkpt>
      <trkpt lat="43.58016" lon="3.76775">
        <ele>37</ele>
        <time>2021-02-28T14:53:03Z</time>
      </trkpt>
      <trkpt lat="43.58018" lon="3.7678">
        <ele>37</ele>
        <time>2021-02-28T14:53:04Z</time>
      </trkpt>
      <trkpt lat="43.58019" lon="3.76785">
        <ele>37</ele>
        <time>2021-02-28T14:53:05Z</time>
      </trkpt>
      <trkpt lat="43.5802" lon="3.76791">
        <ele>37</ele>
        <time>2021-02-28T14:53:06Z</time>
      </trkpt>
      <trkpt lat="43.5802" lon="3.76797">
        <ele>37</ele>
        <time>2021-02-28T14:53:07Z</time>
      </trkpt>
      <trkpt lat="43.5802" lon="3.76809">
        <ele>37</ele>
        <time>2021-02-28T14:53:09Z</time>
      </trkpt>
      <trkpt lat="43.5802" lon="3.76816">
        <ele>37</ele>
        <time>2021-02-28T14:53:10Z</time>
      </trkpt>
      <trkpt lat="43.5802" lon="3.76822">
        <ele>37</ele>
        <time>2021-02-28T14:53:11Z</time>
      </trkpt>
      <trkpt lat="43.58019" lon="3.76835">
        <ele>37</ele>
        <time>2021-02-28T14:53:13Z</time>
      </trkpt>
      <trkpt lat="43.58019" lon="3.76841">
        <ele>37</ele>
        <time>2021-02-28T14:53:14Z</time>
      </trkpt>
      <trkpt lat="43.5802" lon="3.76847">
        <ele>37</ele>
        <time>2021-02-28T14:53:15Z</time>
      </trkpt>
      <trkpt lat="43.58022" lon="3.76853">
        <ele>37</ele>
        <time>2021-02-28T14:53:16Z</time>
      </trkpt>
      <trkpt lat="43.58024" lon="3.76859">
        <ele>37</ele>
        <time>2021-02-28T14:53:17Z</time>
      </trkpt>
      <trkpt lat="43.58026" lon="3.76865">
        <ele>37</ele>
        <time>2021-02-28T14:53:18Z</time>
      </trkpt>
      <trkpt lat="43.58028" lon="3.7687">
        <ele>37</ele>
        <time>2021-02-28T14:53:19Z</time>
      </trkpt>
      <trkpt lat="43.58031" lon="3.76875">
        <ele>37</ele>
        <time>2021-02-28T14:53:20Z</time>
      </trkpt>
      <trkpt lat="43.58034" lon="3.7688">
        <ele>37</ele>
        <time>2021-02-28T14:53:22Z</time>
      </trkpt>
      <trkpt lat="43.58036" lon="3.76885">
        <ele>37</ele>
        <time>2021-02-28T14:53:23Z</time>
      </trkpt>
      <trkpt lat="43.58042" lon="3.76896">
        <ele>37</ele>
        <time>2021-02-28T14:53:24Z</time>
      </trkpt>
      <trkpt lat="43.58044" lon="3.76901">
        <ele>37</ele>
        <time>2021-02-28T14:53:25Z</time>
      </trkpt>
      <trkpt lat="43.58047" lon="3.76907">
        <ele>37</ele>
        <time>2021-02-28T14:53:26Z</time>
      </trkpt>
      <trkpt lat="43.5805" lon="3.76912">
        <ele>37</ele>
        <time>2021-02-28T14:53:27Z</time>
      </trkpt>
      <trkpt lat="43.58053" lon="3.76918">
        <ele>37</ele>
        <time>2021-02-28T14:53:28Z</time>
      </trkpt>
      <trkpt lat="43.58056" lon="3.76923">
        <ele>37</ele>
        <time>2021-02-28T14:53:29Z</time>
      </trkpt>
      <trkpt lat="43.58058" lon="3.76929">
        <ele>37</ele>
        <time>2021-02-28T14:53:30Z</time>
      </trkpt>
      <trkpt lat="43.58061" lon="3.76934">
        <ele>37</ele>
        <time>2021-02-28T14:53:31Z</time>
      </trkpt>
      <trkpt lat="43.58064" lon="3.76939">
        <ele>37</ele>
        <time>2021-02-28T14:53:32Z</time>
      </trkpt>
      <trkpt lat="43.58069" lon="3.7695">
        <ele>37</ele>
        <time>2021-02-28T14:53:34Z</time>
      </trkpt>
      <trkpt lat="43.58072" lon="3.76956">
        <ele>37</ele>
        <time>2021-02-28T14:53:35Z</time>
      </trkpt>
      <trkpt lat="43.58074" lon="3.76961">
        <ele>37</ele>
        <time>2021-02-28T14:53:36Z</time>
      </trkpt>
      <trkpt lat="43.58077" lon="3.76966">
        <ele>37</ele>
        <time>2021-02-28T14:53:37Z</time>
      </trkpt>
      <trkpt lat="43.5808" lon="3.76972">
        <ele>37</ele>
        <time>2021-02-28T14:53:38Z</time>
      </trkpt>
      <trkpt lat="43.58082" lon="3.76977">
        <ele>37</ele>
        <time>2021-02-28T14:53:39Z</time>
      </trkpt>
      <trkpt lat="43.58085" lon="3.76983">
        <ele>37</ele>
        <time>2021-02-28T14:53:40Z</time>
      </trkpt>
      <trkpt lat="43.58088" lon="3.76988">
        <ele>37</ele>
        <time>2021-02-28T14:53:42Z</time>
      </trkpt>
      <trkpt lat="43.5809" lon="3.76993">
        <ele>37</ele>
        <time>2021-02-28T14:53:43Z</time>
      </trkpt>
      <trkpt lat="43.58093" lon="3.76999">
        <ele>37</ele>
        <time>2021-02-28T14:53:44Z</time>
      </trkpt>
      <trkpt lat="43.58099" lon="3.7701">
        <ele>37</ele>
        <time>2021-02-28T14:53:45Z</time>
      </trkpt>
      <trkpt lat="43.58101" lon="3.77015">
        <ele>37</ele>
        <time>2021-02-28T14:53:46Z</time>
      </trkpt>
      <trkpt lat="43.58104" lon="3.77021">
        <ele>37</ele>
        <time>2021-02-28T14:53:47Z</time>
      </trkpt>
      <trkpt lat="43.58107" lon="3.77026">
        <ele>37</ele>
        <time>2021-02-28T14:53:48Z</time>
      </trkpt>
      <trkpt lat="43.5811" lon="3.77032">
        <ele>37</ele>
        <time>2021-02-28T14:53:49Z</time>
      </trkpt>
      <trkpt lat="43.58113" lon="3.77037">
        <ele>37</ele>
        <time>2021-02-28T14:53:50Z</time>
      </trkpt>
      <trkpt lat="43.58115" lon="3.77042">
        <ele>37</ele>
        <time>2021-02-28T14:53:51Z</time>
      </trkpt>
      <trkpt lat="43.58118" lon="3.77048">
        <ele>37</ele>
        <time>2021-02-28T14:53:52Z</time>
      </trkpt>
      <trkpt lat="43.58121" lon="3.77053">
        <ele>37</ele>
        <time>2021-02-28T14:53:53Z</time>
      </trkpt>
      <trkpt lat="43.58126" lon="3.77063">
        <ele>37</ele>
        <time>2021-02-28T14:53:55Z</time>
      </trkpt>
      <trkpt lat="43.58128" lon="3.77068">
        <ele>37</ele>
        <time>2021-02-28T14:53:56Z</time>
      </trkpt>
      <trkpt lat="43.5813" lon="3.77073">
        <ele>37</ele>
        <time>2021-02-28T14:53:57Z</time>
      </trkpt>
      <trkpt lat="43.58132" lon="3.77077">
        <ele>37</ele>
        <time>2021-02-28T14:53:58Z</time>
      </trkpt>
      <trkpt lat="43.58134" lon="3.77082">
        <ele>37</ele>
        <time>2021-02-28T14:53:59Z</time>
      </trkpt>
      <trkpt lat="43.58136" lon="3.77086">
        <ele>37</ele>
        <time>2021-02-28T14:54:00Z</time>
      </trkpt>
      <trkpt lat="43.58138" lon="3.77089">
        <ele>37</ele>
        <time>2021-02-28T14:54:01Z</time>
      </trkpt>
      <trkpt lat="43.5814" lon="3.77093">
        <ele>37</ele>
        <time>2021-02-28T14:54:02Z</time>
      </trkpt>
      <trkpt lat="43.58141" lon="3.77095">
        <ele>37</ele>
        <time>2021-02-28T14:54:03Z</time>
      </trkpt>
      <trkpt lat="43.58142" lon="3.77097">
        <ele>37</ele>
        <time>2021-02-28T14:54:04Z</time>
      </trkpt>
      <trkpt lat="43.58144" lon="3.771">
        <ele>37</ele>
        <time>2021-02-28T14:54:06Z</time>
      </trkpt>
      <trkpt lat="43.58149" lon="3.77107">
        <ele>36</ele>
        <time>2021-02-28T14:54:32Z</time>
      </trkpt>
      <trkpt lat="43.58151" lon="3.77111">
        <ele>36</ele>
        <time>2021-02-28T14:54:34Z</time>
      </trkpt>
      <trkpt lat="43.58153" lon="3.77114">
        <ele>36</ele>
        <time>2021-02-28T14:54:35Z</time>
      </trkpt>
      <trkpt lat="43.58154" lon="3.77117">
        <ele>36</ele>
        <time>2021-02-28T14:54:36Z</time>
      </trkpt>
      <trkpt lat="43.58157" lon="3.77123">
        <ele>36</ele>
        <time>2021-02-28T14:54:38Z</time>
      </trkpt>
      <trkpt lat="43.58158" lon="3.77126">
        <ele>36</ele>
        <time>2021-02-28T14:54:39Z</time>
      </trkpt>
      <trkpt lat="43.5816" lon="3.7713">
        <ele>36</ele>
        <time>2021-02-28T14:54:40Z</time>
      </trkpt>
      <trkpt lat="43.58164" lon="3.77137">
        <ele>36</ele>
        <time>2021-02-28T14:54:42Z</time>
      </trkpt>
      <trkpt lat="43.58166" lon="3.77141">
        <ele>36</ele>
        <time>2021-02-28T14:54:43Z</time>
      </trkpt>
      <trkpt lat="43.58168" lon="3.77145">
        <ele>36</ele>
        <time>2021-02-28T14:54:44Z</time>
      </trkpt>
      <trkpt lat="43.58171" lon="3.7715">
        <ele>36</ele>
        <time>2021-02-28T14:54:45Z</time>
      </trkpt>
      <trkpt lat="43.58173" lon="3.77154">
        <ele>36</ele>
        <time>2021-02-28T14:54:46Z</time>
      </trkpt>
      <trkpt lat="43.58175" lon="3.77159">
        <ele>36</ele>
        <time>2021-02-28T14:54:47Z</time>
      </trkpt>
      <trkpt lat="43.58177" lon="3.77164">
        <ele>36</ele>
        <time>2021-02-28T14:54:48Z</time>
      </trkpt>
      <trkpt lat="43.58179" lon="3.77168">
        <ele>36</ele>
        <time>2021-02-28T14:54:49Z</time>
      </trkpt>
      <trkpt lat="43.58182" lon="3.77173">
        <ele>36</ele>
        <time>2021-02-28T14:54:50Z</time>
      </trkpt>
      <trkpt lat="43.58184" lon="3.77178">
        <ele>36</ele>
        <time>2021-02-28T14:54:51Z</time>
      </trkpt>
      <trkpt lat="43.58186" lon="3.77183">
        <ele>37</ele>
        <time>2021-02-28T14:54:52Z</time>
      </trkpt>
      <trkpt lat="43.58189" lon="3.77188">
        <ele>37</ele>
        <time>2021-02-28T14:54:53Z</time>
      </trkpt>
      <trkpt lat="43.58191" lon="3.77193">
        <ele>37</ele>
        <time>2021-02-28T14:54:54Z</time>
      </trkpt>
      <trkpt lat="43.58194" lon="3.77198">
        <ele>37</ele>
        <time>2021-02-28T14:54:55Z</time>
      </trkpt>
      <trkpt lat="43.58196" lon="3.77203">
        <ele>37</ele>
        <time>2021-02-28T14:54:56Z</time>
      </trkpt>
      <trkpt lat="43.58199" lon="3.77208">
        <ele>37</ele>
        <time>2021-02-28T14:54:57Z</time>
      </trkpt>
      <trkpt lat="43.58201" lon="3.77213">
        <ele>37</ele>
        <time>2021-02-28T14:54:58Z</time>
      </trkpt>
      <trkpt lat="43.58204" lon="3.77218">
        <ele>37</ele>
        <time>2021-02-28T14:54:59Z</time>
      </trkpt>
      <trkpt lat="43.58206" lon="3.77223">
        <ele>37</ele>
        <time>2021-02-28T14:55:00Z</time>
      </trkpt>
      <trkpt lat="43.58209" lon="3.77228">
        <ele>37</ele>
        <time>2021-02-28T14:55:01Z</time>
      </trkpt>
      <trkpt lat="43.58211" lon="3.77232">
        <ele>38</ele>
        <time>2021-02-28T14:55:02Z</time>
      </trkpt>
      <trkpt lat="43.58213" lon="3.77237">
        <ele>38</ele>
        <time>2021-02-28T14:55:04Z</time>
      </trkpt>
      <trkpt lat="43.58218" lon="3.77247">
        <ele>38</ele>
        <time>2021-02-28T14:55:05Z</time>
      </trkpt>
      <trkpt lat="43.5822" lon="3.77252">
        <ele>38</ele>
        <time>2021-02-28T14:55:06Z</time>
      </trkpt>
      <trkpt lat="43.58223" lon="3.77257">
        <ele>38</ele>
        <time>2021-02-28T14:55:07Z</time>
      </trkpt>
      <trkpt lat="43.58225" lon="3.77262">
        <ele>38</ele>
        <time>2021-02-28T14:55:08Z</time>
      </trkpt>
      <trkpt lat="43.58227" lon="3.77267">
        <ele>38</ele>
        <time>2021-02-28T14:55:09Z</time>
      </trkpt>
      <trkpt lat="43.5823" lon="3.77272">
        <ele>38</ele>
        <time>2021-02-28T14:55:10Z</time>
      </trkpt>
      <trkpt lat="43.58235" lon="3.77283">
        <ele>38</ele>
        <time>2021-02-28T14:55:12Z</time>
      </trkpt>
      <trkpt lat="43.58238" lon="3.7729">
        <ele>38</ele>
        <time>2021-02-28T14:55:13Z</time>
      </trkpt>
      <trkpt lat="43.58241" lon="3.77297">
        <ele>38</ele>
        <time>2021-02-28T14:55:14Z</time>
      </trkpt>
      <trkpt lat="43.58245" lon="3.77303">
        <ele>38</ele>
        <time>2021-02-28T14:55:15Z</time>
      </trkpt>
      <trkpt lat="43.58248" lon="3.77309">
        <ele>38</ele>
        <time>2021-02-28T14:55:16Z</time>
      </trkpt>
      <trkpt lat="43.58251" lon="3.77315">
        <ele>38</ele>
        <time>2021-02-28T14:55:17Z</time>
      </trkpt>
      <trkpt lat="43.58254" lon="3.77321">
        <ele>38</ele>
        <time>2021-02-28T14:55:18Z</time>
      </trkpt>
      <trkpt lat="43.58257" lon="3.77326">
        <ele>38</ele>
        <time>2021-02-28T14:55:19Z</time>
      </trkpt>
      <trkpt lat="43.58259" lon="3.77332">
        <ele>38</ele>
        <time>2021-02-28T14:55:20Z</time>
      </trkpt>
      <trkpt lat="43.58262" lon="3.77337">
        <ele>38</ele>
        <time>2021-02-28T14:55:21Z</time>
      </trkpt>
      <trkpt lat="43.58265" lon="3.77343">
        <ele>38</ele>
        <time>2021-02-28T14:55:22Z</time>
      </trkpt>
      <trkpt lat="43.58268" lon="3.77347">
        <ele>38</ele>
        <time>2021-02-28T14:55:23Z</time>
      </trkpt>
      <trkpt lat="43.58273" lon="3.77357">
        <ele>38</ele>
        <time>2021-02-28T14:55:25Z</time>
      </trkpt>
      <trkpt lat="43.58276" lon="3.77362">
        <ele>38</ele>
        <time>2021-02-28T14:55:26Z</time>
      </trkpt>
      <trkpt lat="43.58278" lon="3.77368">
        <ele>38</ele>
        <time>2021-02-28T14:55:27Z</time>
      </trkpt>
      <trkpt lat="43.58281" lon="3.77373">
        <ele>38</ele>
        <time>2021-02-28T14:55:28Z</time>
      </trkpt>
      <trkpt lat="43.58284" lon="3.77379">
        <ele>38</ele>
        <time>2021-02-28T14:55:29Z</time>
      </trkpt>
      <trkpt lat="43.58287" lon="3.77385">
        <ele>38</ele>
        <time>2021-02-28T14:55:30Z</time>
      </trkpt>
      <trkpt lat="43.58289" lon="3.77391">
        <ele>38</ele>
        <time>2021-02-28T14:55:31Z</time>
      </trkpt>
      <trkpt lat="43.58292" lon="3.77396">
        <ele>38</ele>
        <time>2021-02-28T14:55:32Z</time>
      </trkpt>
      <trkpt lat="43.58298" lon="3.77407">
        <ele>38</ele>
        <time>2021-02-28T14:55:34Z</time>
      </trkpt>
      <trkpt lat="43.58301" lon="3.77413">
        <ele>38</ele>
        <time>2021-02-28T14:55:35Z</time>
      </trkpt>
      <trkpt lat="43.58304" lon="3.77418">
        <ele>38</ele>
        <time>2021-02-28T14:55:36Z</time>
      </trkpt>
      <trkpt lat="43.58309" lon="3.77429">
        <ele>38</ele>
        <time>2021-02-28T14:55:38Z</time>
      </trkpt>
      <trkpt lat="43.58312" lon="3.77435">
        <ele>38</ele>
        <time>2021-02-28T14:55:39Z</time>
      </trkpt>
      <trkpt lat="43.58315" lon="3.7744">
        <ele>38</ele>
        <time>2021-02-28T14:55:40Z</time>
      </trkpt>
      <trkpt lat="43.58317" lon="3.77446">
        <ele>38</ele>
        <time>2021-02-28T14:55:41Z</time>
      </trkpt>
      <trkpt lat="43.5832" lon="3.77451">
        <ele>38</ele>
        <time>2021-02-28T14:55:42Z</time>
      </trkpt>
      <trkpt lat="43.58323" lon="3.77456">
        <ele>38</ele>
        <time>2021-02-28T14:55:43Z</time>
      </trkpt>
      <trkpt lat="43.58326" lon="3.77462">
        <ele>38</ele>
        <time>2021-02-28T14:55:44Z</time>
      </trkpt>
      <trkpt lat="43.58328" lon="3.77468">
        <ele>38</ele>
        <time>2021-02-28T14:55:45Z</time>
      </trkpt>
      <trkpt lat="43.58331" lon="3.77473">
        <ele>38</ele>
        <time>2021-02-28T14:55:46Z</time>
      </trkpt>
      <trkpt lat="43.58334" lon="3.77479">
        <ele>38</ele>
        <time>2021-02-28T14:55:47Z</time>
      </trkpt>
      <trkpt lat="43.58337" lon="3.77484">
        <ele>38</ele>
        <time>2021-02-28T14:55:48Z</time>
      </trkpt>
      <trkpt lat="43.58339" lon="3.77489">
        <ele>38</ele>
        <time>2021-02-28T14:55:49Z</time>
      </trkpt>
      <trkpt lat="43.58342" lon="3.77495">
        <ele>38</ele>
        <time>2021-02-28T14:55:50Z</time>
      </trkpt>
      <trkpt lat="43.58345" lon="3.775">
        <ele>38</ele>
        <time>2021-02-28T14:55:51Z</time>
      </trkpt>
      <trkpt lat="43.58347" lon="3.77505">
        <ele>38</ele>
        <time>2021-02-28T14:55:52Z</time>
      </trkpt>
      <trkpt lat="43.5835" lon="3.77511">
        <ele>38</ele>
        <time>2021-02-28T14:55:53Z</time>
      </trkpt>
      <trkpt lat="43.58355" lon="3.77521">
        <ele>38</ele>
        <time>2021-02-28T14:55:55Z</time>
      </trkpt>
      <trkpt lat="43.58358" lon="3.77527">
        <ele>38</ele>
        <time>2021-02-28T14:55:56Z</time>
      </trkpt>
      <trkpt lat="43.58361" lon="3.77532">
        <ele>38</ele>
        <time>2021-02-28T14:55:57Z</time>
      </trkpt>
      <trkpt lat="43.58363" lon="3.77538">
        <ele>38</ele>
        <time>2021-02-28T14:55:58Z</time>
      </trkpt>
      <trkpt lat="43.58366" lon="3.77543">
        <ele>38</ele>
        <time>2021-02-28T14:55:59Z</time>
      </trkpt>
      <trkpt lat="43.58369" lon="3.77549">
        <ele>38</ele>
        <time>2021-02-28T14:56:00Z</time>
      </trkpt>
      <trkpt lat="43.58371" lon="3.77554">
        <ele>38</ele>
        <time>2021-02-28T14:56:01Z</time>
      </trkpt>
      <trkpt lat="43.58374" lon="3.7756">
        <ele>38</ele>
        <time>2021-02-28T14:56:02Z</time>
      </trkpt>
      <trkpt lat="43.58379" lon="3.7757">
        <ele>38</ele>
        <time>2021-02-28T14:56:04Z</time>
      </trkpt>
      <trkpt lat="43.58382" lon="3.77576">
        <ele>38</ele>
        <time>2021-02-28T14:56:05Z</time>
      </trkpt>
      <trkpt lat="43.58385" lon="3.77581">
        <ele>38</ele>
        <time>2021-02-28T14:56:06Z</time>
      </trkpt>
      <trkpt lat="43.58387" lon="3.77586">
        <ele>38</ele>
        <time>2021-02-28T14:56:07Z</time>
      </trkpt>
      <trkpt lat="43.5839" lon="3.77591">
        <ele>38</ele>
        <time>2021-02-28T14:56:08Z</time>
      </trkpt>
      <trkpt lat="43.58392" lon="3.77596">
        <ele>38</ele>
        <time>2021-02-28T14:56:09Z</time>
      </trkpt>
      <trkpt lat="43.58395" lon="3.77601">
        <ele>38</ele>
        <time>2021-02-28T14:56:10Z</time>
      </trkpt>
      <trkpt lat="43.584" lon="3.77612">
        <ele>38</ele>
        <time>2021-02-28T14:56:12Z</time>
      </trkpt>
      <trkpt lat="43.58402" lon="3.77617">
        <ele>38</ele>
        <time>2021-02-28T14:56:13Z</time>
      </trkpt>
      <trkpt lat="43.58407" lon="3.77628">
        <ele>38</ele>
        <time>2021-02-28T14:56:15Z</time>
      </trkpt>
      <trkpt lat="43.58409" lon="3.77633">
        <ele>38</ele>
        <time>2021-02-28T14:56:16Z</time>
      </trkpt>
      <trkpt lat="43.58412" lon="3.77638">
        <ele>38</ele>
        <time>2021-02-28T14:56:17Z</time>
      </trkpt>
      <trkpt lat="43.58415" lon="3.77644">
        <ele>38</ele>
        <time>2021-02-28T14:56:18Z</time>
      </trkpt>
      <trkpt lat="43.58417" lon="3.77649">
        <ele>38</ele>
        <time>2021-02-28T14:56:19Z</time>
      </trkpt>
      <trkpt lat="43.58422" lon="3.7766">
        <ele>38</ele>
        <time>2021-02-28T14:56:21Z</time>
      </trkpt>
      <trkpt lat="43.58425" lon="3.77665">
        <ele>39</ele>
        <time>2021-02-28T14:56:22Z</time>
      </trkpt>
      <trkpt lat="43.58427" lon="3.7767">
        <ele>39</ele>
        <time>2021-02-28T14:56:23Z</time>
      </trkpt>
      <trkpt lat="43.58429" lon="3.77676">
        <ele>39</ele>
        <time>2021-02-28T14:56:24Z</time>
      </trkpt>
      <trkpt lat="43.58434" lon="3.77686">
        <ele>39</ele>
        <time>2021-02-28T14:56:26Z</time>
      </trkpt>
      <trkpt lat="43.58436" lon="3.77691">
        <ele>39</ele>
        <time>2021-02-28T14:56:27Z</time>
      </trkpt>
      <trkpt lat="43.58439" lon="3.77697">
        <ele>39</ele>
        <time>2021-02-28T14:56:28Z</time>
      </trkpt>
      <trkpt lat="43.58443" lon="3.77708">
        <ele>39</ele>
        <time>2021-02-28T14:56:30Z</time>
      </trkpt>
      <trkpt lat="43.58445" lon="3.77713">
        <ele>39</ele>
        <time>2021-02-28T14:56:31Z</time>
      </trkpt>
      <trkpt lat="43.58448" lon="3.77719">
        <ele>39</ele>
        <time>2021-02-28T14:56:32Z</time>
      </trkpt>
      <trkpt lat="43.5845" lon="3.77724">
        <ele>39</ele>
        <time>2021-02-28T14:56:33Z</time>
      </trkpt>
      <trkpt lat="43.58452" lon="3.7773">
        <ele>39</ele>
        <time>2021-02-28T14:56:34Z</time>
      </trkpt>
      <trkpt lat="43.58454" lon="3.77735">
        <ele>39</ele>
        <time>2021-02-28T14:56:35Z</time>
      </trkpt>
      <trkpt lat="43.58456" lon="3.77741">
        <ele>39</ele>
        <time>2021-02-28T14:56:36Z</time>
      </trkpt>
      <trkpt lat="43.58457" lon="3.77747">
        <ele>39</ele>
        <time>2021-02-28T14:56:37Z</time>
      </trkpt>
      <trkpt lat="43.5846" lon="3.77758">
        <ele>39</ele>
        <time>2021-02-28T14:56:39Z</time>
      </trkpt>
      <trkpt lat="43.58461" lon="3.77763">
        <ele>39</ele>
        <time>2021-02-28T14:56:40Z</time>
      </trkpt>
      <trkpt lat="43.58462" lon="3.77769">
        <ele>39</ele>
        <time>2021-02-28T14:56:41Z</time>
      </trkpt>
      <trkpt lat="43.58465" lon="3.7778">
        <ele>39</ele>
        <time>2021-02-28T14:56:43Z</time>
      </trkpt>
      <trkpt lat="43.58466" lon="3.77786">
        <ele>39</ele>
        <time>2021-02-28T14:56:44Z</time>
      </trkpt>
      <trkpt lat="43.58467" lon="3.77792">
        <ele>39</ele>
        <time>2021-02-28T14:56:45Z</time>
      </trkpt>
      <trkpt lat="43.58468" lon="3.77798">
        <ele>39</ele>
        <time>2021-02-28T14:56:46Z</time>
      </trkpt>
      <trkpt lat="43.58471" lon="3.77809">
        <ele>39</ele>
        <time>2021-02-28T14:56:48Z</time>
      </trkpt>
      <trkpt lat="43.58473" lon="3.77814">
        <ele>39</ele>
        <time>2021-02-28T14:56:49Z</time>
      </trkpt>
      <trkpt lat="43.58475" lon="3.77818">
        <ele>39</ele>
        <time>2021-02-28T14:56:50Z</time>
      </trkpt>
      <trkpt lat="43.58478" lon="3.77822">
        <ele>39</ele>
        <time>2021-02-28T14:56:51Z</time>
      </trkpt>
      <trkpt lat="43.58481" lon="3.77826">
        <ele>39</ele>
        <time>2021-02-28T14:56:52Z</time>
      </trkpt>
      <trkpt lat="43.58483" lon="3.77831">
        <ele>39</ele>
        <time>2021-02-28T14:56:53Z</time>
      </trkpt>
      <trkpt lat="43.58482" lon="3.77836">
        <ele>39</ele>
        <time>2021-02-28T14:56:54Z</time>
      </trkpt>
      <trkpt lat="43.58481" lon="3.77842">
        <ele>39</ele>
        <time>2021-02-28T14:56:55Z</time>
      </trkpt>
      <trkpt lat="43.58481" lon="3.77848">
        <ele>39</ele>
        <time>2021-02-28T14:56:56Z</time>
      </trkpt>
      <trkpt lat="43.5848" lon="3.77853">
        <ele>39</ele>
        <time>2021-02-28T14:56:57Z</time>
      </trkpt>
      <trkpt lat="43.5848" lon="3.77858">
        <ele>39</ele>
        <time>2021-02-28T14:56:58Z</time>
      </trkpt>
      <trkpt lat="43.5848" lon="3.77863">
        <ele>39</ele>
        <time>2021-02-28T14:56:59Z</time>
      </trkpt>
      <trkpt lat="43.5848" lon="3.77868">
        <ele>39</ele>
        <time>2021-02-28T14:57:00Z</time>
      </trkpt>
      <trkpt lat="43.58482" lon="3.77872">
        <ele>39</ele>
        <time>2021-02-28T14:57:01Z</time>
      </trkpt>
      <trkpt lat="43.58485" lon="3.77876">
        <ele>38</ele>
        <time>2021-02-28T14:57:02Z</time>
      </trkpt>
      <trkpt lat="43.58489" lon="3.7788">
        <ele>38</ele>
        <time>2021-02-28T14:57:03Z</time>
      </trkpt>
      <trkpt lat="43.58492" lon="3.77884">
        <ele>38</ele>
        <time>2021-02-28T14:57:04Z</time>
      </trkpt>
      <trkpt lat="43.58495" lon="3.77887">
        <ele>38</ele>
        <time>2021-02-28T14:57:05Z</time>
      </trkpt>
      <trkpt lat="43.58497" lon="3.7789">
        <ele>38</ele>
        <time>2021-02-28T14:57:06Z</time>
      </trkpt>
      <trkpt lat="43.585" lon="3.77894">
        <ele>38</ele>
        <time>2021-02-28T14:57:07Z</time>
      </trkpt>
      <trkpt lat="43.58502" lon="3.77897">
        <ele>38</ele>
        <time>2021-02-28T14:57:08Z</time>
      </trkpt>
      <trkpt lat="43.58504" lon="3.77901">
        <ele>38</ele>
        <time>2021-02-28T14:57:09Z</time>
      </trkpt>
      <trkpt lat="43.58505" lon="3.77907">
        <ele>38</ele>
        <time>2021-02-28T14:57:10Z</time>
      </trkpt>
      <trkpt lat="43.58504" lon="3.77912">
        <ele>38</ele>
        <time>2021-02-28T14:57:11Z</time>
      </trkpt>
      <trkpt lat="43.58502" lon="3.77924">
        <ele>38</ele>
        <time>2021-02-28T14:57:13Z</time>
      </trkpt>
      <trkpt lat="43.58501" lon="3.77929">
        <ele>38</ele>
        <time>2021-02-28T14:57:14Z</time>
      </trkpt>
      <trkpt lat="43.585" lon="3.77936">
        <ele>38</ele>
        <time>2021-02-28T14:57:15Z</time>
      </trkpt>
      <trkpt lat="43.58499" lon="3.77942">
        <ele>38</ele>
        <time>2021-02-28T14:57:17Z</time>
      </trkpt>
      <trkpt lat="43.58497" lon="3.77948">
        <ele>38</ele>
        <time>2021-02-28T14:57:18Z</time>
      </trkpt>
      <trkpt lat="43.58496" lon="3.77954">
        <ele>38</ele>
        <time>2021-02-28T14:57:19Z</time>
      </trkpt>
      <trkpt lat="43.58495" lon="3.77961">
        <ele>38</ele>
        <time>2021-02-28T14:57:20Z</time>
      </trkpt>
      <trkpt lat="43.58494" lon="3.77973">
        <ele>38</ele>
        <time>2021-02-28T14:57:21Z</time>
      </trkpt>
      <trkpt lat="43.58493" lon="3.77979">
        <ele>38</ele>
        <time>2021-02-28T14:57:22Z</time>
      </trkpt>
      <trkpt lat="43.58493" lon="3.77985">
        <ele>38</ele>
        <time>2021-02-28T14:57:23Z</time>
      </trkpt>
      <trkpt lat="43.58492" lon="3.7799">
        <ele>38</ele>
        <time>2021-02-28T14:57:25Z</time>
      </trkpt>
      <trkpt lat="43.58491" lon="3.78002">
        <ele>38</ele>
        <time>2021-02-28T14:57:26Z</time>
      </trkpt>
      <trkpt lat="43.5849" lon="3.78008">
        <ele>38</ele>
        <time>2021-02-28T14:57:27Z</time>
      </trkpt>
      <trkpt lat="43.5849" lon="3.78014">
        <ele>38</ele>
        <time>2021-02-28T14:57:28Z</time>
      </trkpt>
      <trkpt lat="43.58489" lon="3.78025">
        <ele>38</ele>
        <time>2021-02-28T14:57:30Z</time>
      </trkpt>
      <trkpt lat="43.58489" lon="3.78031">
        <ele>38</ele>
        <time>2021-02-28T14:57:31Z</time>
      </trkpt>
      <trkpt lat="43.58489" lon="3.78036">
        <ele>38</ele>
        <time>2021-02-28T14:57:32Z</time>
      </trkpt>
      <trkpt lat="43.58489" lon="3.78042">
        <ele>38</ele>
        <time>2021-02-28T14:57:33Z</time>
      </trkpt>
      <trkpt lat="43.58489" lon="3.78047">
        <ele>38</ele>
        <time>2021-02-28T14:57:34Z</time>
      </trkpt>
      <trkpt lat="43.58488" lon="3.78053">
        <ele>38</ele>
        <time>2021-02-28T14:57:35Z</time>
      </trkpt>
      <trkpt lat="43.58488" lon="3.78058">
        <ele>38</ele>
        <time>2021-02-28T14:57:36Z</time>
      </trkpt>
      <trkpt lat="43.58489" lon="3.78064">
        <ele>38</ele>
        <time>2021-02-28T14:57:37Z</time>
      </trkpt>
      <trkpt lat="43.58489" lon="3.78069">
        <ele>38</ele>
        <time>2021-02-28T14:57:38Z</time>
      </trkpt>
      <trkpt lat="43.58489" lon="3.78075">
        <ele>38</ele>
        <time>2021-02-28T14:57:39Z</time>
      </trkpt>
      <trkpt lat="43.58489" lon="3.7808">
        <ele>38</ele>
        <time>2021-02-28T14:57:40Z</time>
      </trkpt>
      <trkpt lat="43.58489" lon="3.78086">
        <ele>38</ele>
        <time>2021-02-28T14:57:41Z</time>
      </trkpt>
      <trkpt lat="43.58489" lon="3.78092">
        <ele>39</ele>
        <time>2021-02-28T14:57:42Z</time>
      </trkpt>
      <trkpt lat="43.58489" lon="3.78097">
        <ele>39</ele>
        <time>2021-02-28T14:57:43Z</time>
      </trkpt>
      <trkpt lat="43.58489" lon="3.78102">
        <ele>39</ele>
        <time>2021-02-28T14:57:44Z</time>
      </trkpt>
      <trkpt lat="43.58489" lon="3.78108">
        <ele>39</ele>
        <time>2021-02-28T14:57:45Z</time>
      </trkpt>
      <trkpt lat="43.58489" lon="3.78114">
        <ele>39</ele>
        <time>2021-02-28T14:57:46Z</time>
      </trkpt>
      <trkpt lat="43.58489" lon="3.78119">
        <ele>39</ele>
        <time>2021-02-28T14:57:47Z</time>
      </trkpt>
      <trkpt lat="43.58489" lon="3.78125">
        <ele>39</ele>
        <time>2021-02-28T14:57:48Z</time>
      </trkpt>
      <trkpt lat="43.58489" lon="3.7813">
        <ele>39</ele>
        <time>2021-02-28T14:57:49Z</time>
      </trkpt>
      <trkpt lat="43.58489" lon="3.78141">
        <ele>39</ele>
        <time>2021-02-28T14:57:51Z</time>
      </trkpt>
      <trkpt lat="43.58489" lon="3.78146">
        <ele>40</ele>
        <time>2021-02-28T14:57:52Z</time>
      </trkpt>
      <trkpt lat="43.58489" lon="3.78152">
        <ele>40</ele>
        <time>2021-02-28T14:57:53Z</time>
      </trkpt>
      <trkpt lat="43.58489" lon="3.78157">
        <ele>40</ele>
        <time>2021-02-28T14:57:54Z</time>
      </trkpt>
      <trkpt lat="43.58489" lon="3.78163">
        <ele>40</ele>
        <time>2021-02-28T14:57:55Z</time>
      </trkpt>
      <trkpt lat="43.58489" lon="3.78168">
        <ele>40</ele>
        <time>2021-02-28T14:57:56Z</time>
      </trkpt>
      <trkpt lat="43.5849" lon="3.78173">
        <ele>40</ele>
        <time>2021-02-28T14:57:57Z</time>
      </trkpt>
      <trkpt lat="43.5849" lon="3.78179">
        <ele>40</ele>
        <time>2021-02-28T14:57:58Z</time>
      </trkpt>
      <trkpt lat="43.5849" lon="3.78185">
        <ele>40</ele>
        <time>2021-02-28T14:58:00Z</time>
      </trkpt>
      <trkpt lat="43.5849" lon="3.7819">
        <ele>40</ele>
        <time>2021-02-28T14:58:01Z</time>
      </trkpt>
      <trkpt lat="43.5849" lon="3.78195">
        <ele>40</ele>
        <time>2021-02-28T14:58:02Z</time>
      </trkpt>
      <trkpt lat="43.58491" lon="3.78207">
        <ele>41</ele>
        <time>2021-02-28T14:58:03Z</time>
      </trkpt>
      <trkpt lat="43.58491" lon="3.78212">
        <ele>41</ele>
        <time>2021-02-28T14:58:04Z</time>
      </trkpt>
      <trkpt lat="43.58491" lon="3.78217">
        <ele>41</ele>
        <time>2021-02-28T14:58:05Z</time>
      </trkpt>
      <trkpt lat="43.58492" lon="3.78222">
        <ele>41</ele>
        <time>2021-02-28T14:58:06Z</time>
      </trkpt>
      <trkpt lat="43.58493" lon="3.78225">
        <ele>41</ele>
        <time>2021-02-28T14:58:07Z</time>
      </trkpt>
      <trkpt lat="43.58495" lon="3.78228">
        <ele>41</ele>
        <time>2021-02-28T14:58:08Z</time>
      </trkpt>
      <trkpt lat="43.58497" lon="3.78232">
        <ele>41</ele>
        <time>2021-02-28T14:58:09Z</time>
      </trkpt>
      <trkpt lat="43.58498" lon="3.78235">
        <ele>41</ele>
        <time>2021-02-28T14:58:10Z</time>
      </trkpt>
      <trkpt lat="43.58502" lon="3.78242">
        <ele>42</ele>
        <time>2021-02-28T14:58:12Z</time>
      </trkpt>
      <trkpt lat="43.58505" lon="3.78245">
        <ele>42</ele>
        <time>2021-02-28T14:58:13Z</time>
      </trkpt>
      <trkpt lat="43.58508" lon="3.78247">
        <ele>42</ele>
        <time>2021-02-28T14:58:14Z</time>
      </trkpt>
      <trkpt lat="43.58512" lon="3.78254">
        <ele>42</ele>
        <time>2021-02-28T14:58:16Z</time>
      </trkpt>
      <trkpt lat="43.58513" lon="3.78258">
        <ele>42</ele>
        <time>2021-02-28T14:58:17Z</time>
      </trkpt>
      <trkpt lat="43.58515" lon="3.78262">
        <ele>42</ele>
        <time>2021-02-28T14:58:18Z</time>
      </trkpt>
      <trkpt lat="43.58516" lon="3.78265">
        <ele>42</ele>
        <time>2021-02-28T14:58:19Z</time>
      </trkpt>
      <trkpt lat="43.58519" lon="3.78268">
        <ele>42</ele>
        <time>2021-02-28T14:58:20Z</time>
      </trkpt>
      <trkpt lat="43.58522" lon="3.7827">
        <ele>42</ele>
        <time>2021-02-28T14:58:21Z</time>
      </trkpt>
      <trkpt lat="43.58525" lon="3.78272">
        <ele>43</ele>
        <time>2021-02-28T14:58:22Z</time>
      </trkpt>
      <trkpt lat="43.58529" lon="3.78273">
        <ele>43</ele>
        <time>2021-02-28T14:58:23Z</time>
      </trkpt>
      <trkpt lat="43.58532" lon="3.78273">
        <ele>43</ele>
        <time>2021-02-28T14:58:24Z</time>
      </trkpt>
      <trkpt lat="43.58534" lon="3.78272">
        <ele>43</ele>
        <time>2021-02-28T14:58:25Z</time>
      </trkpt>
      <trkpt lat="43.58537" lon="3.78272">
        <ele>43</ele>
        <time>2021-02-28T14:58:26Z</time>
      </trkpt>
      <trkpt lat="43.58539" lon="3.78271">
        <ele>43</ele>
        <time>2021-02-28T14:58:27Z</time>
      </trkpt>
      <trkpt lat="43.58542" lon="3.78271">
        <ele>43</ele>
        <time>2021-02-28T14:58:28Z</time>
      </trkpt>
      <trkpt lat="43.58544" lon="3.78271">
        <ele>43</ele>
        <time>2021-02-28T14:58:29Z</time>
      </trkpt>
      <trkpt lat="43.58547" lon="3.78272">
        <ele>43</ele>
        <time>2021-02-28T14:58:30Z</time>
      </trkpt>
      <trkpt lat="43.58549" lon="3.78272">
        <ele>43</ele>
        <time>2021-02-28T14:58:31Z</time>
      </trkpt>
      <trkpt lat="43.58553" lon="3.78271">
        <ele>43</ele>
        <time>2021-02-28T14:58:33Z</time>
      </trkpt>
      <trkpt lat="43.58555" lon="3.7827">
        <ele>43</ele>
        <time>2021-02-28T14:58:34Z</time>
      </trkpt>
      <trkpt lat="43.58558" lon="3.78268">
        <ele>43</ele>
        <time>2021-02-28T14:58:37Z</time>
      </trkpt>
      <trkpt lat="43.58561" lon="3.78267">
        <ele>43</ele>
        <time>2021-02-28T14:58:38Z</time>
      </trkpt>
      <trkpt lat="43.58564" lon="3.78265">
        <ele>43</ele>
        <time>2021-02-28T14:58:40Z</time>
      </trkpt>
      <trkpt lat="43.58567" lon="3.78264">
        <ele>47</ele>
        <time>2021-02-28T14:58:42Z</time>
      </trkpt>
      <trkpt lat="43.58569" lon="3.78261">
        <ele>47</ele>
        <time>2021-02-28T14:58:44Z</time>
      </trkpt>
      <trkpt lat="43.58572" lon="3.78259">
        <ele>47</ele>
        <time>2021-02-28T14:58:46Z</time>
      </trkpt>
      <trkpt lat="43.58575" lon="3.78257">
        <ele>47</ele>
        <time>2021-02-28T14:58:48Z</time>
      </trkpt>
      <trkpt lat="43.58578" lon="3.78256">
        <ele>47</ele>
        <time>2021-02-28T14:58:50Z</time>
      </trkpt>
      <trkpt lat="43.5858" lon="3.78255">
        <ele>47</ele>
        <time>2021-02-28T14:58:51Z</time>
      </trkpt>
      <trkpt lat="43.58581" lon="3.78254">
        <ele>49</ele>
        <time>2021-02-28T14:58:52Z</time>
      </trkpt>
      <trkpt lat="43.58583" lon="3.78253">
        <ele>49</ele>
        <time>2021-02-28T14:58:53Z</time>
      </trkpt>
      <trkpt lat="43.58585" lon="3.78252">
        <ele>49</ele>
        <time>2021-02-28T14:58:54Z</time>
      </trkpt>
      <trkpt lat="43.58587" lon="3.78251">
        <ele>49</ele>
        <time>2021-02-28T14:58:55Z</time>
      </trkpt>
      <trkpt lat="43.58592" lon="3.78252">
        <ele>49</ele>
        <time>2021-02-28T14:58:58Z</time>
      </trkpt>
      <trkpt lat="43.58596" lon="3.78253">
        <ele>49</ele>
        <time>2021-02-28T14:59:00Z</time>
      </trkpt>
      <trkpt lat="43.58597" lon="3.78253">
        <ele>49</ele>
        <time>2021-02-28T14:59:01Z</time>
      </trkpt>
      <trkpt lat="43.58599" lon="3.78254">
        <ele>50</ele>
        <time>2021-02-28T14:59:02Z</time>
      </trkpt>
      <trkpt lat="43.58601" lon="3.78256">
        <ele>50</ele>
        <time>2021-02-28T14:59:03Z</time>
      </trkpt>
      <trkpt lat="43.58602" lon="3.78257">
        <ele>50</ele>
        <time>2021-02-28T14:59:04Z</time>
      </trkpt>
      <trkpt lat="43.58604" lon="3.78259">
        <ele>50</ele>
        <time>2021-02-28T14:59:05Z</time>
      </trkpt>
      <trkpt lat="43.58607" lon="3.78261">
        <ele>50</ele>
        <time>2021-02-28T14:59:07Z</time>
      </trkpt>
      <trkpt lat="43.58609" lon="3.78261">
        <ele>50</ele>
        <time>2021-02-28T14:59:08Z</time>
      </trkpt>
      <trkpt lat="43.58611" lon="3.78262">
        <ele>50</ele>
        <time>2021-02-28T14:59:09Z</time>
      </trkpt>
      <trkpt lat="43.58613" lon="3.78263">
        <ele>50</ele>
        <time>2021-02-28T14:59:10Z</time>
      </trkpt>
      <trkpt lat="43.58615" lon="3.78264">
        <ele>50</ele>
        <time>2021-02-28T14:59:11Z</time>
      </trkpt>
      <trkpt lat="43.58617" lon="3.78265">
        <ele>51</ele>
        <time>2021-02-28T14:59:12Z</time>
      </trkpt>
      <trkpt lat="43.58619" lon="3.78268">
        <ele>51</ele>
        <time>2021-02-28T14:59:13Z</time>
      </trkpt>
      <trkpt lat="43.58624" lon="3.78274">
        <ele>51</ele>
        <time>2021-02-28T14:59:15Z</time>
      </trkpt>
      <trkpt lat="43.58626" lon="3.78277">
        <ele>51</ele>
        <time>2021-02-28T14:59:16Z</time>
      </trkpt>
      <trkpt lat="43.58628" lon="3.7828">
        <ele>51</ele>
        <time>2021-02-28T14:59:17Z</time>
      </trkpt>
      <trkpt lat="43.58631" lon="3.78283">
        <ele>51</ele>
        <time>2021-02-28T14:59:18Z</time>
      </trkpt>
      <trkpt lat="43.58633" lon="3.78286">
        <ele>51</ele>
        <time>2021-02-28T14:59:19Z</time>
      </trkpt>
      <trkpt lat="43.58636" lon="3.78287">
        <ele>51</ele>
        <time>2021-02-28T14:59:20Z</time>
      </trkpt>
      <trkpt lat="43.58639" lon="3.78288">
        <ele>51</ele>
        <time>2021-02-28T14:59:21Z</time>
      </trkpt>
      <trkpt lat="43.58642" lon="3.78288">
        <ele>52</ele>
        <time>2021-02-28T14:59:22Z</time>
      </trkpt>
      <trkpt lat="43.58645" lon="3.78287">
        <ele>52</ele>
        <time>2021-02-28T14:59:23Z</time>
      </trkpt>
      <trkpt lat="43.58647" lon="3.78284">
        <ele>52</ele>
        <time>2021-02-28T14:59:24Z</time>
      </trkpt>
      <trkpt lat="43.58649" lon="3.78281">
        <ele>52</ele>
        <time>2021-02-28T14:59:25Z</time>
      </trkpt>
      <trkpt lat="43.5865" lon="3.78278">
        <ele>52</ele>
        <time>2021-02-28T14:59:26Z</time>
      </trkpt>
      <trkpt lat="43.58652" lon="3.78274">
        <ele>52</ele>
        <time>2021-02-28T14:59:27Z</time>
      </trkpt>
      <trkpt lat="43.58653" lon="3.78271">
        <ele>52</ele>
        <time>2021-02-28T14:59:28Z</time>
      </trkpt>
      <trkpt lat="43.58655" lon="3.78268">
        <ele>52</ele>
        <time>2021-02-28T14:59:29Z</time>
      </trkpt>
      <trkpt lat="43.58656" lon="3.78264">
        <ele>52</ele>
        <time>2021-02-28T14:59:30Z</time>
      </trkpt>
      <trkpt lat="43.58658" lon="3.78262">
        <ele>52</ele>
        <time>2021-02-28T14:59:31Z</time>
      </trkpt>
      <trkpt lat="43.58662" lon="3.78256">
        <ele>52</ele>
        <time>2021-02-28T14:59:33Z</time>
      </trkpt>
      <trkpt lat="43.58663" lon="3.78254">
        <ele>52</ele>
        <time>2021-02-28T14:59:34Z</time>
      </trkpt>
      <trkpt lat="43.58664" lon="3.78251">
        <ele>52</ele>
        <time>2021-02-28T14:59:35Z</time>
      </trkpt>
      <trkpt lat="43.58667" lon="3.78246">
        <ele>52</ele>
        <time>2021-02-28T14:59:37Z</time>
      </trkpt>
      <trkpt lat="43.58667" lon="3.78243">
        <ele>52</ele>
        <time>2021-02-28T14:59:38Z</time>
      </trkpt>
      <trkpt lat="43.58668" lon="3.78241">
        <ele>52</ele>
        <time>2021-02-28T14:59:39Z</time>
      </trkpt>
      <trkpt lat="43.5867" lon="3.78236">
        <ele>52</ele>
        <time>2021-02-28T14:59:41Z</time>
      </trkpt>
      <trkpt lat="43.58671" lon="3.7823">
        <ele>52</ele>
        <time>2021-02-28T14:59:43Z</time>
      </trkpt>
      <trkpt lat="43.58672" lon="3.78227">
        <ele>52</ele>
        <time>2021-02-28T14:59:44Z</time>
      </trkpt>
      <trkpt lat="43.58673" lon="3.78224">
        <ele>52</ele>
        <time>2021-02-28T14:59:45Z</time>
      </trkpt>
      <trkpt lat="43.58674" lon="3.78221">
        <ele>52</ele>
        <time>2021-02-28T14:59:46Z</time>
      </trkpt>
      <trkpt lat="43.58676" lon="3.78219">
        <ele>52</ele>
        <time>2021-02-28T14:59:47Z</time>
      </trkpt>
      <trkpt lat="43.58679" lon="3.78218">
        <ele>52</ele>
        <time>2021-02-28T14:59:48Z</time>
      </trkpt>
      <trkpt lat="43.58683" lon="3.78218">
        <ele>52</ele>
        <time>2021-02-28T14:59:50Z</time>
      </trkpt>
      <trkpt lat="43.58686" lon="3.78219">
        <ele>52</ele>
        <time>2021-02-28T14:59:51Z</time>
      </trkpt>
      <trkpt lat="43.58688" lon="3.78219">
        <ele>57</ele>
        <time>2021-02-28T14:59:52Z</time>
      </trkpt>
      <trkpt lat="43.58691" lon="3.78219">
        <ele>57</ele>
        <time>2021-02-28T14:59:53Z</time>
      </trkpt>
      <trkpt lat="43.58693" lon="3.78219">
        <ele>57</ele>
        <time>2021-02-28T14:59:54Z</time>
      </trkpt>
      <trkpt lat="43.58695" lon="3.78219">
        <ele>57</ele>
        <time>2021-02-28T14:59:55Z</time>
      </trkpt>
      <trkpt lat="43.58698" lon="3.78218">
        <ele>57</ele>
        <time>2021-02-28T14:59:56Z</time>
      </trkpt>
      <trkpt lat="43.58701" lon="3.78217">
        <ele>57</ele>
        <time>2021-02-28T14:59:57Z</time>
      </trkpt>
      <trkpt lat="43.58704" lon="3.78216">
        <ele>57</ele>
        <time>2021-02-28T14:59:59Z</time>
      </trkpt>
      <trkpt lat="43.58706" lon="3.78216">
        <ele>57</ele>
        <time>2021-02-28T15:00:00Z</time>
      </trkpt>
      <trkpt lat="43.58709" lon="3.78215">
        <ele>57</ele>
        <time>2021-02-28T15:00:01Z</time>
      </trkpt>
      <trkpt lat="43.58711" lon="3.78214">
        <ele>58</ele>
        <time>2021-02-28T15:00:02Z</time>
      </trkpt>
      <trkpt lat="43.58713" lon="3.78214">
        <ele>58</ele>
        <time>2021-02-28T15:00:03Z</time>
      </trkpt>
      <trkpt lat="43.58716" lon="3.78214">
        <ele>58</ele>
        <time>2021-02-28T15:00:04Z</time>
      </trkpt>
      <trkpt lat="43.58719" lon="3.78214">
        <ele>58</ele>
        <time>2021-02-28T15:00:05Z</time>
      </trkpt>
      <trkpt lat="43.58721" lon="3.78214">
        <ele>58</ele>
        <time>2021-02-28T15:00:06Z</time>
      </trkpt>
      <trkpt lat="43.58726" lon="3.78213">
        <ele>58</ele>
        <time>2021-02-28T15:00:08Z</time>
      </trkpt>
      <trkpt lat="43.5873" lon="3.78211">
        <ele>58</ele>
        <time>2021-02-28T15:00:09Z</time>
      </trkpt>
      <trkpt lat="43.58733" lon="3.78209">
        <ele>58</ele>
        <time>2021-02-28T15:00:10Z</time>
      </trkpt>
      <trkpt lat="43.58739" lon="3.78205">
        <ele>59</ele>
        <time>2021-02-28T15:00:12Z</time>
      </trkpt>
      <trkpt lat="43.58743" lon="3.78204">
        <ele>59</ele>
        <time>2021-02-28T15:00:13Z</time>
      </trkpt>
      <trkpt lat="43.58746" lon="3.78203">
        <ele>59</ele>
        <time>2021-02-28T15:00:14Z</time>
      </trkpt>
      <trkpt lat="43.5875" lon="3.78203">
        <ele>59</ele>
        <time>2021-02-28T15:00:15Z</time>
      </trkpt>
      <trkpt lat="43.58754" lon="3.78202">
        <ele>59</ele>
        <time>2021-02-28T15:00:16Z</time>
      </trkpt>
      <trkpt lat="43.58758" lon="3.78202">
        <ele>59</ele>
        <time>2021-02-28T15:00:17Z</time>
      </trkpt>
      <trkpt lat="43.58762" lon="3.78201">
        <ele>59</ele>
        <time>2021-02-28T15:00:18Z</time>
      </trkpt>
      <trkpt lat="43.58766" lon="3.782">
        <ele>59</ele>
        <time>2021-02-28T15:00:19Z</time>
      </trkpt>
      <trkpt lat="43.5877" lon="3.78201">
        <ele>59</ele>
        <time>2021-02-28T15:00:20Z</time>
      </trkpt>
      <trkpt lat="43.58774" lon="3.78202">
        <ele>59</ele>
        <time>2021-02-28T15:00:21Z</time>
      </trkpt>
      <trkpt lat="43.58777" lon="3.78204">
        <ele>60</ele>
        <time>2021-02-28T15:00:22Z</time>
      </trkpt>
      <trkpt lat="43.5878" lon="3.78206">
        <ele>60</ele>
        <time>2021-02-28T15:00:23Z</time>
      </trkpt>
      <trkpt lat="43.58785" lon="3.78207">
        <ele>60</ele>
        <time>2021-02-28T15:00:25Z</time>
      </trkpt>
      <trkpt lat="43.58788" lon="3.78207">
        <ele>60</ele>
        <time>2021-02-28T15:00:26Z</time>
      </trkpt>
      <trkpt lat="43.5879" lon="3.78207">
        <ele>60</ele>
        <time>2021-02-28T15:00:27Z</time>
      </trkpt>
      <trkpt lat="43.58792" lon="3.78206">
        <ele>60</ele>
        <time>2021-02-28T15:00:28Z</time>
      </trkpt>
      <trkpt lat="43.58794" lon="3.78204">
        <ele>60</ele>
        <time>2021-02-28T15:00:29Z</time>
      </trkpt>
      <trkpt lat="43.58795" lon="3.78202">
        <ele>60</ele>
        <time>2021-02-28T15:00:30Z</time>
      </trkpt>
      <trkpt lat="43.58797" lon="3.78201">
        <ele>60</ele>
        <time>2021-02-28T15:00:31Z</time>
      </trkpt>
      <trkpt lat="43.58799" lon="3.78199">
        <ele>61</ele>
        <time>2021-02-28T15:00:32Z</time>
      </trkpt>
      <trkpt lat="43.58802" lon="3.78198">
        <ele>61</ele>
        <time>2021-02-28T15:00:33Z</time>
      </trkpt>
      <trkpt lat="43.58807" lon="3.78196">
        <ele>61</ele>
        <time>2021-02-28T15:00:35Z</time>
      </trkpt>
      <trkpt lat="43.5881" lon="3.78194">
        <ele>61</ele>
        <time>2021-02-28T15:00:36Z</time>
      </trkpt>
      <trkpt lat="43.58812" lon="3.78193">
        <ele>61</ele>
        <time>2021-02-28T15:00:37Z</time>
      </trkpt>
      <trkpt lat="43.58815" lon="3.78191">
        <ele>61</ele>
        <time>2021-02-28T15:00:38Z</time>
      </trkpt>
      <trkpt lat="43.58819" lon="3.7819">
        <ele>61</ele>
        <time>2021-02-28T15:00:39Z</time>
      </trkpt>
      <trkpt lat="43.58822" lon="3.78188">
        <ele>61</ele>
        <time>2021-02-28T15:00:40Z</time>
      </trkpt>
      <trkpt lat="43.58825" lon="3.78187">
        <ele>61</ele>
        <time>2021-02-28T15:00:41Z</time>
      </trkpt>
      <trkpt lat="43.58828" lon="3.78186">
        <ele>61</ele>
        <time>2021-02-28T15:00:42Z</time>
      </trkpt>
      <trkpt lat="43.58832" lon="3.78185">
        <ele>61</ele>
        <time>2021-02-28T15:00:43Z</time>
      </trkpt>
      <trkpt lat="43.58835" lon="3.78185">
        <ele>61</ele>
        <time>2021-02-28T15:00:44Z</time>
      </trkpt>
      <trkpt lat="43.58838" lon="3.78185">
        <ele>61</ele>
        <time>2021-02-28T15:00:45Z</time>
      </trkpt>
      <trkpt lat="43.58841" lon="3.78186">
        <ele>61</ele>
        <time>2021-02-28T15:00:46Z</time>
      </trkpt>
      <trkpt lat="43.58844" lon="3.78187">
        <ele>61</ele>
        <time>2021-02-28T15:00:47Z</time>
      </trkpt>
      <trkpt lat="43.58846" lon="3.78187">
        <ele>61</ele>
        <time>2021-02-28T15:00:48Z</time>
      </trkpt>
      <trkpt lat="43.58849" lon="3.78187">
        <ele>61</ele>
        <time>2021-02-28T15:00:49Z</time>
      </trkpt>
      <trkpt lat="43.58858" lon="3.78188">
        <ele>62</ele>
        <time>2021-02-28T15:00:52Z</time>
      </trkpt>
      <trkpt lat="43.58864" lon="3.7819">
        <ele>62</ele>
        <time>2021-02-28T15:00:54Z</time>
      </trkpt>
      <trkpt lat="43.58867" lon="3.78191">
        <ele>62</ele>
        <time>2021-02-28T15:00:55Z</time>
      </trkpt>
      <trkpt lat="43.5887" lon="3.78191">
        <ele>62</ele>
        <time>2021-02-28T15:00:56Z</time>
      </trkpt>
      <trkpt lat="43.58873" lon="3.78192">
        <ele>62</ele>
        <time>2021-02-28T15:00:57Z</time>
      </trkpt>
      <trkpt lat="43.58875" lon="3.78192">
        <ele>62</ele>
        <time>2021-02-28T15:00:58Z</time>
      </trkpt>
      <trkpt lat="43.5888" lon="3.78189">
        <ele>62</ele>
        <time>2021-02-28T15:01:00Z</time>
      </trkpt>
      <trkpt lat="43.58882" lon="3.78188">
        <ele>62</ele>
        <time>2021-02-28T15:01:01Z</time>
      </trkpt>
      <trkpt lat="43.58885" lon="3.78186">
        <ele>63</ele>
        <time>2021-02-28T15:01:02Z</time>
      </trkpt>
      <trkpt lat="43.58888" lon="3.78184">
        <ele>63</ele>
        <time>2021-02-28T15:01:03Z</time>
      </trkpt>
      <trkpt lat="43.58891" lon="3.78182">
        <ele>63</ele>
        <time>2021-02-28T15:01:04Z</time>
      </trkpt>
      <trkpt lat="43.58894" lon="3.78181">
        <ele>63</ele>
        <time>2021-02-28T15:01:05Z</time>
      </trkpt>
      <trkpt lat="43.58897" lon="3.78182">
        <ele>63</ele>
        <time>2021-02-28T15:01:06Z</time>
      </trkpt>
      <trkpt lat="43.589" lon="3.78183">
        <ele>63</ele>
        <time>2021-02-28T15:01:07Z</time>
      </trkpt>
      <trkpt lat="43.58903" lon="3.78185">
        <ele>63</ele>
        <time>2021-02-28T15:01:08Z</time>
      </trkpt>
      <trkpt lat="43.58908" lon="3.78188">
        <ele>63</ele>
        <time>2021-02-28T15:01:10Z</time>
      </trkpt>
      <trkpt lat="43.58911" lon="3.78188">
        <ele>63</ele>
        <time>2021-02-28T15:01:11Z</time>
      </trkpt>
      <trkpt lat="43.58914" lon="3.78188">
        <ele>65</ele>
        <time>2021-02-28T15:01:12Z</time>
      </trkpt>
      <trkpt lat="43.58916" lon="3.78188">
        <ele>65</ele>
        <time>2021-02-28T15:01:13Z</time>
      </trkpt>
      <trkpt lat="43.58918" lon="3.78187">
        <ele>65</ele>
        <time>2021-02-28T15:01:14Z</time>
      </trkpt>
      <trkpt lat="43.5892" lon="3.78185">
        <ele>65</ele>
        <time>2021-02-28T15:01:15Z</time>
      </trkpt>
      <trkpt lat="43.58923" lon="3.78184">
        <ele>65</ele>
        <time>2021-02-28T15:01:16Z</time>
      </trkpt>
      <trkpt lat="43.58926" lon="3.78182">
        <ele>65</ele>
        <time>2021-02-28T15:01:17Z</time>
      </trkpt>
      <trkpt lat="43.58928" lon="3.78181">
        <ele>65</ele>
        <time>2021-02-28T15:01:18Z</time>
      </trkpt>
      <trkpt lat="43.58931" lon="3.7818">
        <ele>65</ele>
        <time>2021-02-28T15:01:19Z</time>
      </trkpt>
      <trkpt lat="43.58934" lon="3.7818">
        <ele>65</ele>
        <time>2021-02-28T15:01:20Z</time>
      </trkpt>
      <trkpt lat="43.58937" lon="3.7818">
        <ele>65</ele>
        <time>2021-02-28T15:01:21Z</time>
      </trkpt>
      <trkpt lat="43.5894" lon="3.7818">
        <ele>65</ele>
        <time>2021-02-28T15:01:22Z</time>
      </trkpt>
      <trkpt lat="43.58943" lon="3.78178">
        <ele>65</ele>
        <time>2021-02-28T15:01:23Z</time>
      </trkpt>
      <trkpt lat="43.58946" lon="3.78177">
        <ele>65</ele>
        <time>2021-02-28T15:01:24Z</time>
      </trkpt>
      <trkpt lat="43.58951" lon="3.78176">
        <ele>65</ele>
        <time>2021-02-28T15:01:26Z</time>
      </trkpt>
      <trkpt lat="43.58953" lon="3.78175">
        <ele>65</ele>
        <time>2021-02-28T15:01:27Z</time>
      </trkpt>
      <trkpt lat="43.58955" lon="3.78174">
        <ele>65</ele>
        <time>2021-02-28T15:01:28Z</time>
      </trkpt>
      <trkpt lat="43.58958" lon="3.78173">
        <ele>65</ele>
        <time>2021-02-28T15:01:29Z</time>
      </trkpt>
      <trkpt lat="43.5896" lon="3.78174">
        <ele>65</ele>
        <time>2021-02-28T15:01:30Z</time>
      </trkpt>
      <trkpt lat="43.58965" lon="3.78177">
        <ele>67</ele>
        <time>2021-02-28T15:01:32Z</time>
      </trkpt>
      <trkpt lat="43.58967" lon="3.7818">
        <ele>67</ele>
        <time>2021-02-28T15:01:33Z</time>
      </trkpt>
      <trkpt lat="43.58969" lon="3.78183">
        <ele>67</ele>
        <time>2021-02-28T15:01:34Z</time>
      </trkpt>
      <trkpt lat="43.5897" lon="3.78185">
        <ele>67</ele>
        <time>2021-02-28T15:01:35Z</time>
      </trkpt>
      <trkpt lat="43.58972" lon="3.78188">
        <ele>67</ele>
        <time>2021-02-28T15:01:36Z</time>
      </trkpt>
      <trkpt lat="43.58975" lon="3.7819">
        <ele>67</ele>
        <time>2021-02-28T15:01:37Z</time>
      </trkpt>
      <trkpt lat="43.58977" lon="3.78192">
        <ele>67</ele>
        <time>2021-02-28T15:01:38Z</time>
      </trkpt>
      <trkpt lat="43.58979" lon="3.78193">
        <ele>67</ele>
        <time>2021-02-28T15:01:39Z</time>
      </trkpt>
      <trkpt lat="43.58981" lon="3.78195">
        <ele>67</ele>
        <time>2021-02-28T15:01:40Z</time>
      </trkpt>
      <trkpt lat="43.58983" lon="3.78197">
        <ele>67</ele>
        <time>2021-02-28T15:01:41Z</time>
      </trkpt>
      <trkpt lat="43.58985" lon="3.782">
        <ele>69</ele>
        <time>2021-02-28T15:01:42Z</time>
      </trkpt>
      <trkpt lat="43.58987" lon="3.78202">
        <ele>69</ele>
        <time>2021-02-28T15:01:43Z</time>
      </trkpt>
      <trkpt lat="43.58988" lon="3.78204">
        <ele>69</ele>
        <time>2021-02-28T15:01:44Z</time>
      </trkpt>
      <trkpt lat="43.58989" lon="3.78206">
        <ele>69</ele>
        <time>2021-02-28T15:01:45Z</time>
      </trkpt>
      <trkpt lat="43.5899" lon="3.78209">
        <ele>69</ele>
        <time>2021-02-28T15:01:46Z</time>
      </trkpt>
      <trkpt lat="43.58994" lon="3.78215">
        <ele>69</ele>
        <time>2021-02-28T15:01:48Z</time>
      </trkpt>
      <trkpt lat="43.58994" lon="3.78218">
        <ele>69</ele>
        <time>2021-02-28T15:01:49Z</time>
      </trkpt>
      <trkpt lat="43.58995" lon="3.78222">
        <ele>69</ele>
        <time>2021-02-28T15:01:50Z</time>
      </trkpt>
      <trkpt lat="43.58996" lon="3.78226">
        <ele>69</ele>
        <time>2021-02-28T15:01:51Z</time>
      </trkpt>
      <trkpt lat="43.58998" lon="3.78229">
        <ele>69</ele>
        <time>2021-02-28T15:01:52Z</time>
      </trkpt>
      <trkpt lat="43.59" lon="3.78232">
        <ele>69</ele>
        <time>2021-02-28T15:01:53Z</time>
      </trkpt>
      <trkpt lat="43.59002" lon="3.78236">
        <ele>69</ele>
        <time>2021-02-28T15:01:54Z</time>
      </trkpt>
      <trkpt lat="43.59003" lon="3.78239">
        <ele>69</ele>
        <time>2021-02-28T15:01:55Z</time>
      </trkpt>
      <trkpt lat="43.59005" lon="3.78238">
        <ele>69</ele>
        <time>2021-02-28T15:01:58Z</time>
      </trkpt>
      <trkpt lat="43.59007" lon="3.78236">
        <ele>69</ele>
        <time>2021-02-28T15:02:00Z</time>
      </trkpt>
      <trkpt lat="43.59007" lon="3.78233">
        <ele>69</ele>
        <time>2021-02-28T15:02:02Z</time>
      </trkpt>
      <trkpt lat="43.59006" lon="3.78232">
        <ele>70</ele>
        <time>2021-02-28T15:02:11Z</time>
      </trkpt>
      <trkpt lat="43.59002" lon="3.78246">
        <ele>70</ele>
        <time>2021-02-28T15:03:01Z</time>
      </trkpt>
      <trkpt lat="43.59002" lon="3.78249">
        <ele>70</ele>
        <time>2021-02-28T15:03:02Z</time>
      </trkpt>
      <trkpt lat="43.59005" lon="3.78253">
        <ele>70</ele>
        <time>2021-02-28T15:03:03Z</time>
      </trkpt>
      <trkpt lat="43.59008" lon="3.78252">
        <ele>70</ele>
        <time>2021-02-28T15:03:05Z</time>
      </trkpt>
      <trkpt lat="43.5901" lon="3.78248">
        <ele>70</ele>
        <time>2021-02-28T15:03:06Z</time>
      </trkpt>
      <trkpt lat="43.59011" lon="3.78244">
        <ele>70</ele>
        <time>2021-02-28T15:03:07Z</time>
      </trkpt>
      <trkpt lat="43.59013" lon="3.7824">
        <ele>70</ele>
        <time>2021-02-28T15:03:08Z</time>
      </trkpt>
      <trkpt lat="43.59013" lon="3.78237">
        <ele>70</ele>
        <time>2021-02-28T15:03:09Z</time>
      </trkpt>
      <trkpt lat="43.59013" lon="3.78234">
        <ele>70</ele>
        <time>2021-02-28T15:03:10Z</time>
      </trkpt>
      <trkpt lat="43.59013" lon="3.78231">
        <ele>70</ele>
        <time>2021-02-28T15:03:11Z</time>
      </trkpt>
      <trkpt lat="43.59015" lon="3.78229">
        <ele>70</ele>
        <time>2021-02-28T15:03:13Z</time>
      </trkpt>
      <trkpt lat="43.59019" lon="3.7823">
        <ele>70</ele>
        <time>2021-02-28T15:03:15Z</time>
      </trkpt>
      <trkpt lat="43.59023" lon="3.78231">
        <ele>70</ele>
        <time>2021-02-28T15:03:16Z</time>
      </trkpt>
      <trkpt lat="43.59025" lon="3.78231">
        <ele>70</ele>
        <time>2021-02-28T15:03:17Z</time>
      </trkpt>
      <trkpt lat="43.59028" lon="3.78231">
        <ele>70</ele>
        <time>2021-02-28T15:03:19Z</time>
      </trkpt>
      <trkpt lat="43.59027" lon="3.78231">
        <ele>69</ele>
        <time>2021-02-28T15:03:25Z</time>
      </trkpt>
      <trkpt lat="43.59035" lon="3.78232">
        <ele>68</ele>
        <time>2021-02-28T15:03:34Z</time>
      </trkpt>
      <trkpt lat="43.59038" lon="3.78233">
        <ele>68</ele>
        <time>2021-02-28T15:03:35Z</time>
      </trkpt>
      <trkpt lat="43.5904" lon="3.78236">
        <ele>68</ele>
        <time>2021-02-28T15:03:36Z</time>
      </trkpt>
      <trkpt lat="43.59042" lon="3.78238">
        <ele>68</ele>
        <time>2021-02-28T15:03:37Z</time>
      </trkpt>
      <trkpt lat="43.59044" lon="3.78241">
        <ele>68</ele>
        <time>2021-02-28T15:03:38Z</time>
      </trkpt>
      <trkpt lat="43.59046" lon="3.78244">
        <ele>68</ele>
        <time>2021-02-28T15:03:39Z</time>
      </trkpt>
      <trkpt lat="43.59049" lon="3.78252">
        <ele>68</ele>
        <time>2021-02-28T15:03:41Z</time>
      </trkpt>
      <trkpt lat="43.59051" lon="3.78256">
        <ele>68</ele>
        <time>2021-02-28T15:03:42Z</time>
      </trkpt>
      <trkpt lat="43.59053" lon="3.78259">
        <ele>68</ele>
        <time>2021-02-28T15:03:43Z</time>
      </trkpt>
      <trkpt lat="43.59055" lon="3.78262">
        <ele>68</ele>
        <time>2021-02-28T15:03:44Z</time>
      </trkpt>
      <trkpt lat="43.5906" lon="3.78269">
        <ele>68</ele>
        <time>2021-02-28T15:03:46Z</time>
      </trkpt>
      <trkpt lat="43.59062" lon="3.78273">
        <ele>68</ele>
        <time>2021-02-28T15:03:47Z</time>
      </trkpt>
      <trkpt lat="43.59065" lon="3.78277">
        <ele>68</ele>
        <time>2021-02-28T15:03:48Z</time>
      </trkpt>
      <trkpt lat="43.59069" lon="3.78285">
        <ele>68</ele>
        <time>2021-02-28T15:03:50Z</time>
      </trkpt>
      <trkpt lat="43.59072" lon="3.78289">
        <ele>68</ele>
        <time>2021-02-28T15:03:51Z</time>
      </trkpt>
      <trkpt lat="43.59074" lon="3.78293">
        <ele>68</ele>
        <time>2021-02-28T15:03:52Z</time>
      </trkpt>
      <trkpt lat="43.59075" lon="3.78297">
        <ele>68</ele>
        <time>2021-02-28T15:03:53Z</time>
      </trkpt>
      <trkpt lat="43.59077" lon="3.783">
        <ele>67</ele>
        <time>2021-02-28T15:03:54Z</time>
      </trkpt>
      <trkpt lat="43.59079" lon="3.78304">
        <ele>67</ele>
        <time>2021-02-28T15:03:55Z</time>
      </trkpt>
      <trkpt lat="43.5908" lon="3.78308">
        <ele>67</ele>
        <time>2021-02-28T15:03:56Z</time>
      </trkpt>
      <trkpt lat="43.59082" lon="3.78312">
        <ele>67</ele>
        <time>2021-02-28T15:03:57Z</time>
      </trkpt>
      <trkpt lat="43.59083" lon="3.78317">
        <ele>67</ele>
        <time>2021-02-28T15:03:58Z</time>
      </trkpt>
      <trkpt lat="43.59085" lon="3.78321">
        <ele>67</ele>
        <time>2021-02-28T15:03:59Z</time>
      </trkpt>
      <trkpt lat="43.59087" lon="3.78326">
        <ele>67</ele>
        <time>2021-02-28T15:04:00Z</time>
      </trkpt>
      <trkpt lat="43.59089" lon="3.78331">
        <ele>67</ele>
        <time>2021-02-28T15:04:01Z</time>
      </trkpt>
      <trkpt lat="43.59091" lon="3.78336">
        <ele>67</ele>
        <time>2021-02-28T15:04:02Z</time>
      </trkpt>
      <trkpt lat="43.59092" lon="3.78341">
        <ele>67</ele>
        <time>2021-02-28T15:04:03Z</time>
      </trkpt>
      <trkpt lat="43.59093" lon="3.78347">
        <ele>67</ele>
        <time>2021-02-28T15:04:04Z</time>
      </trkpt>
      <trkpt lat="43.59094" lon="3.78352">
        <ele>67</ele>
        <time>2021-02-28T15:04:05Z</time>
      </trkpt>
      <trkpt lat="43.59094" lon="3.78358">
        <ele>67</ele>
        <time>2021-02-28T15:04:06Z</time>
      </trkpt>
      <trkpt lat="43.59094" lon="3.78362">
        <ele>67</ele>
        <time>2021-02-28T15:04:07Z</time>
      </trkpt>
      <trkpt lat="43.59094" lon="3.78365">
        <ele>67</ele>
        <time>2021-02-28T15:04:08Z</time>
      </trkpt>
      <trkpt lat="43.59094" lon="3.78368">
        <ele>67</ele>
        <time>2021-02-28T15:04:10Z</time>
      </trkpt>
      <trkpt lat="43.59094" lon="3.78371">
        <ele>67</ele>
        <time>2021-02-28T15:04:13Z</time>
      </trkpt>
      <trkpt lat="43.59097" lon="3.7839">
        <ele>68</ele>
        <time>2021-02-28T15:04:59Z</time>
      </trkpt>
      <trkpt lat="43.59097" lon="3.78407">
        <ele>68</ele>
        <time>2021-02-28T15:05:00Z</time>
      </trkpt>
      <trkpt lat="43.59098" lon="3.78416">
        <ele>68</ele>
        <time>2021-02-28T15:05:01Z</time>
      </trkpt>
      <trkpt lat="43.59098" lon="3.78425">
        <ele>68</ele>
        <time>2021-02-28T15:05:02Z</time>
      </trkpt>
      <trkpt lat="43.59099" lon="3.78433">
        <ele>68</ele>
        <time>2021-02-28T15:05:03Z</time>
      </trkpt>
      <trkpt lat="43.59099" lon="3.78442">
        <ele>68</ele>
        <time>2021-02-28T15:05:04Z</time>
      </trkpt>
      <trkpt lat="43.59099" lon="3.78449">
        <ele>68</ele>
        <time>2021-02-28T15:05:05Z</time>
      </trkpt>
      <trkpt lat="43.591" lon="3.78458">
        <ele>68</ele>
        <time>2021-02-28T15:05:06Z</time>
      </trkpt>
      <trkpt lat="43.59101" lon="3.78474">
        <ele>66</ele>
        <time>2021-02-28T15:05:08Z</time>
      </trkpt>
      <trkpt lat="43.59103" lon="3.7848">
        <ele>66</ele>
        <time>2021-02-28T15:05:09Z</time>
      </trkpt>
      <trkpt lat="43.59105" lon="3.78494">
        <ele>66</ele>
        <time>2021-02-28T15:05:11Z</time>
      </trkpt>
      <trkpt lat="43.59105" lon="3.78502">
        <ele>66</ele>
        <time>2021-02-28T15:05:12Z</time>
      </trkpt>
      <trkpt lat="43.59105" lon="3.78509">
        <ele>66</ele>
        <time>2021-02-28T15:05:13Z</time>
      </trkpt>
      <trkpt lat="43.59105" lon="3.78517">
        <ele>66</ele>
        <time>2021-02-28T15:05:14Z</time>
      </trkpt>
      <trkpt lat="43.59105" lon="3.78524">
        <ele>66</ele>
        <time>2021-02-28T15:05:15Z</time>
      </trkpt>
      <trkpt lat="43.59105" lon="3.78531">
        <ele>66</ele>
        <time>2021-02-28T15:05:16Z</time>
      </trkpt>
      <trkpt lat="43.59105" lon="3.78538">
        <ele>66</ele>
        <time>2021-02-28T15:05:17Z</time>
      </trkpt>
      <trkpt lat="43.59106" lon="3.78555">
        <ele>64</ele>
        <time>2021-02-28T15:05:19Z</time>
      </trkpt>
      <trkpt lat="43.59104" lon="3.78572">
        <ele>64</ele>
        <time>2021-02-28T15:05:21Z</time>
      </trkpt>
      <trkpt lat="43.59103" lon="3.78581">
        <ele>64</ele>
        <time>2021-02-28T15:05:22Z</time>
      </trkpt>
      <trkpt lat="43.59102" lon="3.7859">
        <ele>64</ele>
        <time>2021-02-28T15:05:23Z</time>
      </trkpt>
      <trkpt lat="43.591" lon="3.78598">
        <ele>64</ele>
        <time>2021-02-28T15:05:24Z</time>
      </trkpt>
      <trkpt lat="43.59098" lon="3.78607">
        <ele>64</ele>
        <time>2021-02-28T15:05:25Z</time>
      </trkpt>
      <trkpt lat="43.59093" lon="3.78626">
        <ele>64</ele>
        <time>2021-02-28T15:05:27Z</time>
      </trkpt>
      <trkpt lat="43.59089" lon="3.78646">
        <ele>64</ele>
        <time>2021-02-28T15:05:29Z</time>
      </trkpt>
      <trkpt lat="43.59087" lon="3.78655">
        <ele>64</ele>
        <time>2021-02-28T15:05:30Z</time>
      </trkpt>
      <trkpt lat="43.59085" lon="3.78663">
        <ele>64</ele>
        <time>2021-02-28T15:05:31Z</time>
      </trkpt>
      <trkpt lat="43.59083" lon="3.7867">
        <ele>64</ele>
        <time>2021-02-28T15:05:32Z</time>
      </trkpt>
      <trkpt lat="43.5908" lon="3.78677">
        <ele>64</ele>
        <time>2021-02-28T15:05:33Z</time>
      </trkpt>
      <trkpt lat="43.59078" lon="3.78684">
        <ele>64</ele>
        <time>2021-02-28T15:05:35Z</time>
      </trkpt>
      <trkpt lat="43.59075" lon="3.78691">
        <ele>64</ele>
        <time>2021-02-28T15:05:36Z</time>
      </trkpt>
      <trkpt lat="43.59071" lon="3.78704">
        <ele>64</ele>
        <time>2021-02-28T15:05:37Z</time>
      </trkpt>
      <trkpt lat="43.59069" lon="3.7871">
        <ele>58</ele>
        <time>2021-02-28T15:05:38Z</time>
      </trkpt>
      <trkpt lat="43.59067" lon="3.78716">
        <ele>58</ele>
        <time>2021-02-28T15:05:39Z</time>
      </trkpt>
      <trkpt lat="43.59066" lon="3.78723">
        <ele>58</ele>
        <time>2021-02-28T15:05:40Z</time>
      </trkpt>
      <trkpt lat="43.59065" lon="3.78729">
        <ele>58</ele>
        <time>2021-02-28T15:05:41Z</time>
      </trkpt>
      <trkpt lat="43.59066" lon="3.78736">
        <ele>58</ele>
        <time>2021-02-28T15:05:42Z</time>
      </trkpt>
      <trkpt lat="43.59069" lon="3.78743">
        <ele>58</ele>
        <time>2021-02-28T15:05:43Z</time>
      </trkpt>
      <trkpt lat="43.59072" lon="3.7875">
        <ele>58</ele>
        <time>2021-02-28T15:05:44Z</time>
      </trkpt>
      <trkpt lat="43.59076" lon="3.78757">
        <ele>58</ele>
        <time>2021-02-28T15:05:45Z</time>
      </trkpt>
      <trkpt lat="43.59079" lon="3.78763">
        <ele>58</ele>
        <time>2021-02-28T15:05:46Z</time>
      </trkpt>
      <trkpt lat="43.59083" lon="3.7877">
        <ele>58</ele>
        <time>2021-02-28T15:05:47Z</time>
      </trkpt>
      <trkpt lat="43.59086" lon="3.78778">
        <ele>55</ele>
        <time>2021-02-28T15:05:48Z</time>
      </trkpt>
      <trkpt lat="43.59088" lon="3.78786">
        <ele>55</ele>
        <time>2021-02-28T15:05:49Z</time>
      </trkpt>
      <trkpt lat="43.5909" lon="3.78802">
        <ele>55</ele>
        <time>2021-02-28T15:05:51Z</time>
      </trkpt>
      <trkpt lat="43.59093" lon="3.7881">
        <ele>55</ele>
        <time>2021-02-28T15:05:52Z</time>
      </trkpt>
      <trkpt lat="43.59095" lon="3.78818">
        <ele>55</ele>
        <time>2021-02-28T15:05:53Z</time>
      </trkpt>
      <trkpt lat="43.59098" lon="3.78827">
        <ele>55</ele>
        <time>2021-02-28T15:05:54Z</time>
      </trkpt>
      <trkpt lat="43.59101" lon="3.78835">
        <ele>55</ele>
        <time>2021-02-28T15:05:55Z</time>
      </trkpt>
      <trkpt lat="43.59104" lon="3.78844">
        <ele>55</ele>
        <time>2021-02-28T15:05:56Z</time>
      </trkpt>
      <trkpt lat="43.59107" lon="3.78853">
        <ele>55</ele>
        <time>2021-02-28T15:05:57Z</time>
      </trkpt>
      <trkpt lat="43.59109" lon="3.78861">
        <ele>49</ele>
        <time>2021-02-28T15:05:58Z</time>
      </trkpt>
      <trkpt lat="43.59111" lon="3.78867">
        <ele>49</ele>
        <time>2021-02-28T15:05:59Z</time>
      </trkpt>
      <trkpt lat="43.59114" lon="3.78871">
        <ele>49</ele>
        <time>2021-02-28T15:06:00Z</time>
      </trkpt>
      <trkpt lat="43.59116" lon="3.78872">
        <ele>49</ele>
        <time>2021-02-28T15:06:01Z</time>
      </trkpt>
      <trkpt lat="43.5912" lon="3.78873">
        <ele>49</ele>
        <time>2021-02-28T15:06:02Z</time>
      </trkpt>
      <trkpt lat="43.59122" lon="3.78876">
        <ele>49</ele>
        <time>2021-02-28T15:06:03Z</time>
      </trkpt>
      <trkpt lat="43.59123" lon="3.7888">
        <ele>49</ele>
        <time>2021-02-28T15:06:04Z</time>
      </trkpt>
      <trkpt lat="43.59123" lon="3.78886">
        <ele>49</ele>
        <time>2021-02-28T15:06:05Z</time>
      </trkpt>
      <trkpt lat="43.59123" lon="3.78892">
        <ele>49</ele>
        <time>2021-02-28T15:06:06Z</time>
      </trkpt>
      <trkpt lat="43.59123" lon="3.78898">
        <ele>49</ele>
        <time>2021-02-28T15:06:07Z</time>
      </trkpt>
      <trkpt lat="43.59124" lon="3.78904">
        <ele>46</ele>
        <time>2021-02-28T15:06:08Z</time>
      </trkpt>
      <trkpt lat="43.59126" lon="3.7891">
        <ele>46</ele>
        <time>2021-02-28T15:06:09Z</time>
      </trkpt>
      <trkpt lat="43.59126" lon="3.78916">
        <ele>46</ele>
        <time>2021-02-28T15:06:10Z</time>
      </trkpt>
      <trkpt lat="43.59127" lon="3.78921">
        <ele>46</ele>
        <time>2021-02-28T15:06:11Z</time>
      </trkpt>
      <trkpt lat="43.59128" lon="3.78925">
        <ele>46</ele>
        <time>2021-02-28T15:06:12Z</time>
      </trkpt>
      <trkpt lat="43.5913" lon="3.7893">
        <ele>46</ele>
        <time>2021-02-28T15:06:13Z</time>
      </trkpt>
      <trkpt lat="43.59131" lon="3.78935">
        <ele>46</ele>
        <time>2021-02-28T15:06:14Z</time>
      </trkpt>
      <trkpt lat="43.59133" lon="3.78939">
        <ele>46</ele>
        <time>2021-02-28T15:06:15Z</time>
      </trkpt>
      <trkpt lat="43.59141" lon="3.78949">
        <ele>46</ele>
        <time>2021-02-28T15:06:17Z</time>
      </trkpt>
      <trkpt lat="43.59145" lon="3.78955">
        <ele>44</ele>
        <time>2021-02-28T15:06:18Z</time>
      </trkpt>
      <trkpt lat="43.59149" lon="3.78961">
        <ele>44</ele>
        <time>2021-02-28T15:06:19Z</time>
      </trkpt>
      <trkpt lat="43.59157" lon="3.78973">
        <ele>44</ele>
        <time>2021-02-28T15:06:21Z</time>
      </trkpt>
      <trkpt lat="43.59162" lon="3.78978">
        <ele>44</ele>
        <time>2021-02-28T15:06:22Z</time>
      </trkpt>
      <trkpt lat="43.59165" lon="3.78984">
        <ele>44</ele>
        <time>2021-02-28T15:06:23Z</time>
      </trkpt>
      <trkpt lat="43.59168" lon="3.78989">
        <ele>44</ele>
        <time>2021-02-28T15:06:24Z</time>
      </trkpt>
      <trkpt lat="43.59171" lon="3.78994">
        <ele>44</ele>
        <time>2021-02-28T15:06:25Z</time>
      </trkpt>
      <trkpt lat="43.59177" lon="3.79004">
        <ele>44</ele>
        <time>2021-02-28T15:06:27Z</time>
      </trkpt>
      <trkpt lat="43.59179" lon="3.79009">
        <ele>44</ele>
        <time>2021-02-28T15:06:28Z</time>
      </trkpt>
      <trkpt lat="43.59184" lon="3.79017">
        <ele>44</ele>
        <time>2021-02-28T15:06:30Z</time>
      </trkpt>
      <trkpt lat="43.59185" lon="3.79022">
        <ele>44</ele>
        <time>2021-02-28T15:06:31Z</time>
      </trkpt>
      <trkpt lat="43.59186" lon="3.79027">
        <ele>44</ele>
        <time>2021-02-28T15:06:32Z</time>
      </trkpt>
      <trkpt lat="43.59184" lon="3.79032">
        <ele>44</ele>
        <time>2021-02-28T15:06:33Z</time>
      </trkpt>
      <trkpt lat="43.59183" lon="3.79037">
        <ele>44</ele>
        <time>2021-02-28T15:06:34Z</time>
      </trkpt>
      <trkpt lat="43.59181" lon="3.79043">
        <ele>44</ele>
        <time>2021-02-28T15:06:35Z</time>
      </trkpt>
      <trkpt lat="43.59179" lon="3.79049">
        <ele>44</ele>
        <time>2021-02-28T15:06:36Z</time>
      </trkpt>
      <trkpt lat="43.59178" lon="3.79054">
        <ele>44</ele>
        <time>2021-02-28T15:06:37Z</time>
      </trkpt>
      <trkpt lat="43.59175" lon="3.79066">
        <ele>44</ele>
        <time>2021-02-28T15:06:39Z</time>
      </trkpt>
      <trkpt lat="43.59173" lon="3.79072">
        <ele>44</ele>
        <time>2021-02-28T15:06:40Z</time>
      </trkpt>
      <trkpt lat="43.59172" lon="3.79078">
        <ele>44</ele>
        <time>2021-02-28T15:06:41Z</time>
      </trkpt>
      <trkpt lat="43.5917" lon="3.7909">
        <ele>44</ele>
        <time>2021-02-28T15:06:43Z</time>
      </trkpt>
      <trkpt lat="43.59169" lon="3.79095">
        <ele>44</ele>
        <time>2021-02-28T15:06:44Z</time>
      </trkpt>
      <trkpt lat="43.59168" lon="3.79101">
        <ele>44</ele>
        <time>2021-02-28T15:06:45Z</time>
      </trkpt>
      <trkpt lat="43.59167" lon="3.79107">
        <ele>44</ele>
        <time>2021-02-28T15:06:46Z</time>
      </trkpt>
      <trkpt lat="43.59166" lon="3.79113">
        <ele>44</ele>
        <time>2021-02-28T15:06:47Z</time>
      </trkpt>
      <trkpt lat="43.59166" lon="3.79119">
        <ele>45</ele>
        <time>2021-02-28T15:06:48Z</time>
      </trkpt>
      <trkpt lat="43.59165" lon="3.79125">
        <ele>45</ele>
        <time>2021-02-28T15:06:49Z</time>
      </trkpt>
      <trkpt lat="43.59164" lon="3.79131">
        <ele>45</ele>
        <time>2021-02-28T15:06:50Z</time>
      </trkpt>
      <trkpt lat="43.59163" lon="3.79137">
        <ele>45</ele>
        <time>2021-02-28T15:06:51Z</time>
      </trkpt>
      <trkpt lat="43.59163" lon="3.79144">
        <ele>45</ele>
        <time>2021-02-28T15:06:52Z</time>
      </trkpt>
      <trkpt lat="43.59162" lon="3.7915">
        <ele>45</ele>
        <time>2021-02-28T15:06:53Z</time>
      </trkpt>
      <trkpt lat="43.59162" lon="3.79157">
        <ele>45</ele>
        <time>2021-02-28T15:06:54Z</time>
      </trkpt>
      <trkpt lat="43.59162" lon="3.79165">
        <ele>45</ele>
        <time>2021-02-28T15:06:55Z</time>
      </trkpt>
      <trkpt lat="43.59163" lon="3.79173">
        <ele>45</ele>
        <time>2021-02-28T15:06:57Z</time>
      </trkpt>
      <trkpt lat="43.59163" lon="3.79181">
        <ele>43</ele>
        <time>2021-02-28T15:06:58Z</time>
      </trkpt>
      <trkpt lat="43.59164" lon="3.79191">
        <ele>43</ele>
        <time>2021-02-28T15:06:59Z</time>
      </trkpt>
      <trkpt lat="43.59162" lon="3.79212">
        <ele>43</ele>
        <time>2021-02-28T15:07:00Z</time>
      </trkpt>
      <trkpt lat="43.59161" lon="3.79222">
        <ele>43</ele>
        <time>2021-02-28T15:07:01Z</time>
      </trkpt>
      <trkpt lat="43.59158" lon="3.79232">
        <ele>43</ele>
        <time>2021-02-28T15:07:02Z</time>
      </trkpt>
      <trkpt lat="43.59155" lon="3.79241">
        <ele>43</ele>
        <time>2021-02-28T15:07:03Z</time>
      </trkpt>
      <trkpt lat="43.59152" lon="3.7925">
        <ele>43</ele>
        <time>2021-02-28T15:07:04Z</time>
      </trkpt>
      <trkpt lat="43.59149" lon="3.79258">
        <ele>43</ele>
        <time>2021-02-28T15:07:05Z</time>
      </trkpt>
      <trkpt lat="43.59145" lon="3.79267">
        <ele>43</ele>
        <time>2021-02-28T15:07:06Z</time>
      </trkpt>
      <trkpt lat="43.59142" lon="3.79276">
        <ele>43</ele>
        <time>2021-02-28T15:07:07Z</time>
      </trkpt>
      <trkpt lat="43.59138" lon="3.79284">
        <ele>39</ele>
        <time>2021-02-28T15:07:08Z</time>
      </trkpt>
      <trkpt lat="43.59135" lon="3.79292">
        <ele>39</ele>
        <time>2021-02-28T15:07:09Z</time>
      </trkpt>
      <trkpt lat="43.59132" lon="3.79301">
        <ele>39</ele>
        <time>2021-02-28T15:07:10Z</time>
      </trkpt>
      <trkpt lat="43.59129" lon="3.79309">
        <ele>39</ele>
        <time>2021-02-28T15:07:11Z</time>
      </trkpt>
      <trkpt lat="43.59121" lon="3.79322">
        <ele>39</ele>
        <time>2021-02-28T15:07:13Z</time>
      </trkpt>
      <trkpt lat="43.59117" lon="3.79327">
        <ele>39</ele>
        <time>2021-02-28T15:07:14Z</time>
      </trkpt>
      <trkpt lat="43.59113" lon="3.79331">
        <ele>39</ele>
        <time>2021-02-28T15:07:15Z</time>
      </trkpt>
      <trkpt lat="43.59111" lon="3.79335">
        <ele>39</ele>
        <time>2021-02-28T15:07:16Z</time>
      </trkpt>
      <trkpt lat="43.5911" lon="3.79339">
        <ele>39</ele>
        <time>2021-02-28T15:07:17Z</time>
      </trkpt>
      <trkpt lat="43.5911" lon="3.79343">
        <ele>38</ele>
        <time>2021-02-28T15:07:18Z</time>
      </trkpt>
      <trkpt lat="43.5911" lon="3.79347">
        <ele>38</ele>
        <time>2021-02-28T15:07:19Z</time>
      </trkpt>
      <trkpt lat="43.5911" lon="3.79352">
        <ele>38</ele>
        <time>2021-02-28T15:07:20Z</time>
      </trkpt>
      <trkpt lat="43.59109" lon="3.79358">
        <ele>38</ele>
        <time>2021-02-28T15:07:21Z</time>
      </trkpt>
      <trkpt lat="43.5911" lon="3.79365">
        <ele>38</ele>
        <time>2021-02-28T15:07:22Z</time>
      </trkpt>
      <trkpt lat="43.5911" lon="3.79372">
        <ele>38</ele>
        <time>2021-02-28T15:07:23Z</time>
      </trkpt>
      <trkpt lat="43.5911" lon="3.79379">
        <ele>38</ele>
        <time>2021-02-28T15:07:24Z</time>
      </trkpt>
      <trkpt lat="43.59109" lon="3.79387">
        <ele>38</ele>
        <time>2021-02-28T15:07:25Z</time>
      </trkpt>
      <trkpt lat="43.59107" lon="3.79393">
        <ele>38</ele>
        <time>2021-02-28T15:07:26Z</time>
      </trkpt>
      <trkpt lat="43.59106" lon="3.79399">
        <ele>38</ele>
        <time>2021-02-28T15:07:27Z</time>
      </trkpt>
      <trkpt lat="43.59106" lon="3.79405">
        <ele>37</ele>
        <time>2021-02-28T15:07:28Z</time>
      </trkpt>
      <trkpt lat="43.59104" lon="3.79413">
        <ele>37</ele>
        <time>2021-02-28T15:07:30Z</time>
      </trkpt>
      <trkpt lat="43.59102" lon="3.79421">
        <ele>37</ele>
        <time>2021-02-28T15:07:32Z</time>
      </trkpt>
      <trkpt lat="43.59101" lon="3.79425">
        <ele>37</ele>
        <time>2021-02-28T15:07:33Z</time>
      </trkpt>
      <trkpt lat="43.591" lon="3.79429">
        <ele>37</ele>
        <time>2021-02-28T15:07:34Z</time>
      </trkpt>
      <trkpt lat="43.59099" lon="3.79433">
        <ele>37</ele>
        <time>2021-02-28T15:07:35Z</time>
      </trkpt>
      <trkpt lat="43.59098" lon="3.79437">
        <ele>37</ele>
        <time>2021-02-28T15:07:36Z</time>
      </trkpt>
      <trkpt lat="43.59096" lon="3.79442">
        <ele>37</ele>
        <time>2021-02-28T15:07:37Z</time>
      </trkpt>
      <trkpt lat="43.59095" lon="3.79446">
        <ele>37</ele>
        <time>2021-02-28T15:07:38Z</time>
      </trkpt>
      <trkpt lat="43.59094" lon="3.79451">
        <ele>37</ele>
        <time>2021-02-28T15:07:39Z</time>
      </trkpt>
      <trkpt lat="43.59092" lon="3.79456">
        <ele>37</ele>
        <time>2021-02-28T15:07:40Z</time>
      </trkpt>
      <trkpt lat="43.59091" lon="3.7946">
        <ele>37</ele>
        <time>2021-02-28T15:07:41Z</time>
      </trkpt>
      <trkpt lat="43.59089" lon="3.79465">
        <ele>37</ele>
        <time>2021-02-28T15:07:42Z</time>
      </trkpt>
      <trkpt lat="43.59088" lon="3.7947">
        <ele>37</ele>
        <time>2021-02-28T15:07:43Z</time>
      </trkpt>
      <trkpt lat="43.59086" lon="3.79475">
        <ele>37</ele>
        <time>2021-02-28T15:07:44Z</time>
      </trkpt>
      <trkpt lat="43.59084" lon="3.79479">
        <ele>37</ele>
        <time>2021-02-28T15:07:45Z</time>
      </trkpt>
      <trkpt lat="43.59081" lon="3.79489">
        <ele>37</ele>
        <time>2021-02-28T15:07:47Z</time>
      </trkpt>
      <trkpt lat="43.5908" lon="3.79493">
        <ele>37</ele>
        <time>2021-02-28T15:07:48Z</time>
      </trkpt>
      <trkpt lat="43.59078" lon="3.79498">
        <ele>37</ele>
        <time>2021-02-28T15:07:49Z</time>
      </trkpt>
      <trkpt lat="43.59077" lon="3.79502">
        <ele>37</ele>
        <time>2021-02-28T15:07:50Z</time>
      </trkpt>
      <trkpt lat="43.59076" lon="3.79507">
        <ele>37</ele>
        <time>2021-02-28T15:07:51Z</time>
      </trkpt>
      <trkpt lat="43.59074" lon="3.79511">
        <ele>37</ele>
        <time>2021-02-28T15:07:52Z</time>
      </trkpt>
      <trkpt lat="43.59072" lon="3.79515">
        <ele>37</ele>
        <time>2021-02-28T15:07:53Z</time>
      </trkpt>
      <trkpt lat="43.5907" lon="3.79519">
        <ele>37</ele>
        <time>2021-02-28T15:07:54Z</time>
      </trkpt>
      <trkpt lat="43.59068" lon="3.79523">
        <ele>37</ele>
        <time>2021-02-28T15:07:55Z</time>
      </trkpt>
      <trkpt lat="43.59066" lon="3.79528">
        <ele>37</ele>
        <time>2021-02-28T15:07:56Z</time>
      </trkpt>
      <trkpt lat="43.59064" lon="3.79532">
        <ele>37</ele>
        <time>2021-02-28T15:07:57Z</time>
      </trkpt>
      <trkpt lat="43.59062" lon="3.79537">
        <ele>37</ele>
        <time>2021-02-28T15:07:58Z</time>
      </trkpt>
      <trkpt lat="43.5906" lon="3.79541">
        <ele>37</ele>
        <time>2021-02-28T15:07:59Z</time>
      </trkpt>
      <trkpt lat="43.59058" lon="3.79546">
        <ele>37</ele>
        <time>2021-02-28T15:08:00Z</time>
      </trkpt>
      <trkpt lat="43.59057" lon="3.7955">
        <ele>37</ele>
        <time>2021-02-28T15:08:01Z</time>
      </trkpt>
      <trkpt lat="43.59055" lon="3.79554">
        <ele>37</ele>
        <time>2021-02-28T15:08:02Z</time>
      </trkpt>
      <trkpt lat="43.59053" lon="3.79559">
        <ele>37</ele>
        <time>2021-02-28T15:08:03Z</time>
      </trkpt>
      <trkpt lat="43.59051" lon="3.79563">
        <ele>37</ele>
        <time>2021-02-28T15:08:04Z</time>
      </trkpt>
      <trkpt lat="43.59049" lon="3.79567">
        <ele>37</ele>
        <time>2021-02-28T15:08:05Z</time>
      </trkpt>
      <trkpt lat="43.59047" lon="3.79571">
        <ele>37</ele>
        <time>2021-02-28T15:08:06Z</time>
      </trkpt>
      <trkpt lat="43.59044" lon="3.79575">
        <ele>37</ele>
        <time>2021-02-28T15:08:07Z</time>
      </trkpt>
      <trkpt lat="43.59042" lon="3.79579">
        <ele>37</ele>
        <time>2021-02-28T15:08:08Z</time>
      </trkpt>
      <trkpt lat="43.59039" lon="3.79583">
        <ele>37</ele>
        <time>2021-02-28T15:08:09Z</time>
      </trkpt>
      <trkpt lat="43.59037" lon="3.79587">
        <ele>37</ele>
        <time>2021-02-28T15:08:10Z</time>
      </trkpt>
      <trkpt lat="43.59034" lon="3.7959">
        <ele>37</ele>
        <time>2021-02-28T15:08:11Z</time>
      </trkpt>
      <trkpt lat="43.59031" lon="3.79593">
        <ele>37</ele>
        <time>2021-02-28T15:08:12Z</time>
      </trkpt>
      <trkpt lat="43.59028" lon="3.79596">
        <ele>37</ele>
        <time>2021-02-28T15:08:13Z</time>
      </trkpt>
      <trkpt lat="43.59025" lon="3.79599">
        <ele>37</ele>
        <time>2021-02-28T15:08:14Z</time>
      </trkpt>
      <trkpt lat="43.59022" lon="3.79602">
        <ele>37</ele>
        <time>2021-02-28T15:08:15Z</time>
      </trkpt>
      <trkpt lat="43.59016" lon="3.79608">
        <ele>37</ele>
        <time>2021-02-28T15:08:17Z</time>
      </trkpt>
      <trkpt lat="43.59013" lon="3.79611">
        <ele>38</ele>
        <time>2021-02-28T15:08:18Z</time>
      </trkpt>
      <trkpt lat="43.5901" lon="3.79614">
        <ele>38</ele>
        <time>2021-02-28T15:08:19Z</time>
      </trkpt>
      <trkpt lat="43.59007" lon="3.79618">
        <ele>38</ele>
        <time>2021-02-28T15:08:20Z</time>
      </trkpt>
      <trkpt lat="43.59004" lon="3.79621">
        <ele>38</ele>
        <time>2021-02-28T15:08:21Z</time>
      </trkpt>
      <trkpt lat="43.59001" lon="3.79624">
        <ele>38</ele>
        <time>2021-02-28T15:08:22Z</time>
      </trkpt>
      <trkpt lat="43.58998" lon="3.79628">
        <ele>38</ele>
        <time>2021-02-28T15:08:23Z</time>
      </trkpt>
      <trkpt lat="43.58995" lon="3.79631">
        <ele>38</ele>
        <time>2021-02-28T15:08:24Z</time>
      </trkpt>
      <trkpt lat="43.58991" lon="3.79634">
        <ele>38</ele>
        <time>2021-02-28T15:08:25Z</time>
      </trkpt>
      <trkpt lat="43.58988" lon="3.79637">
        <ele>38</ele>
        <time>2021-02-28T15:08:26Z</time>
      </trkpt>
      <trkpt lat="43.58985" lon="3.79641">
        <ele>38</ele>
        <time>2021-02-28T15:08:27Z</time>
      </trkpt>
      <trkpt lat="43.58982" lon="3.79645">
        <ele>38</ele>
        <time>2021-02-28T15:08:28Z</time>
      </trkpt>
      <trkpt lat="43.5898" lon="3.79648">
        <ele>38</ele>
        <time>2021-02-28T15:08:29Z</time>
      </trkpt>
      <trkpt lat="43.58978" lon="3.79652">
        <ele>38</ele>
        <time>2021-02-28T15:08:30Z</time>
      </trkpt>
      <trkpt lat="43.58976" lon="3.79655">
        <ele>38</ele>
        <time>2021-02-28T15:08:31Z</time>
      </trkpt>
      <trkpt lat="43.58975" lon="3.79659">
        <ele>38</ele>
        <time>2021-02-28T15:08:32Z</time>
      </trkpt>
      <trkpt lat="43.58975" lon="3.79663">
        <ele>38</ele>
        <time>2021-02-28T15:08:33Z</time>
      </trkpt>
      <trkpt lat="43.58975" lon="3.79667">
        <ele>38</ele>
        <time>2021-02-28T15:08:34Z</time>
      </trkpt>
      <trkpt lat="43.58976" lon="3.79671">
        <ele>38</ele>
        <time>2021-02-28T15:08:35Z</time>
      </trkpt>
      <trkpt lat="43.58976" lon="3.79675">
        <ele>38</ele>
        <time>2021-02-28T15:08:36Z</time>
      </trkpt>
      <trkpt lat="43.58978" lon="3.79679">
        <ele>38</ele>
        <time>2021-02-28T15:08:37Z</time>
      </trkpt>
      <trkpt lat="43.58979" lon="3.79683">
        <ele>39</ele>
        <time>2021-02-28T15:08:38Z</time>
      </trkpt>
      <trkpt lat="43.58981" lon="3.79686">
        <ele>39</ele>
        <time>2021-02-28T15:08:39Z</time>
      </trkpt>
      <trkpt lat="43.58983" lon="3.79689">
        <ele>39</ele>
        <time>2021-02-28T15:08:40Z</time>
      </trkpt>
      <trkpt lat="43.58984" lon="3.79693">
        <ele>39</ele>
        <time>2021-02-28T15:08:41Z</time>
      </trkpt>
      <trkpt lat="43.58986" lon="3.79696">
        <ele>39</ele>
        <time>2021-02-28T15:08:42Z</time>
      </trkpt>
      <trkpt lat="43.58987" lon="3.79699">
        <ele>39</ele>
        <time>2021-02-28T15:08:43Z</time>
      </trkpt>
      <trkpt lat="43.58989" lon="3.79702">
        <ele>39</ele>
        <time>2021-02-28T15:08:44Z</time>
      </trkpt>
      <trkpt lat="43.58991" lon="3.79706">
        <ele>39</ele>
        <time>2021-02-28T15:08:45Z</time>
      </trkpt>
      <trkpt lat="43.58991" lon="3.7971">
        <ele>39</ele>
        <time>2021-02-28T15:08:46Z</time>
      </trkpt>
      <trkpt lat="43.5899" lon="3.79714">
        <ele>39</ele>
        <time>2021-02-28T15:08:47Z</time>
      </trkpt>
      <trkpt lat="43.58987" lon="3.79717">
        <ele>40</ele>
        <time>2021-02-28T15:08:48Z</time>
      </trkpt>
      <trkpt lat="43.58984" lon="3.79719">
        <ele>40</ele>
        <time>2021-02-28T15:08:49Z</time>
      </trkpt>
      <trkpt lat="43.58979" lon="3.79723">
        <ele>40</ele>
        <time>2021-02-28T15:08:51Z</time>
      </trkpt>
      <trkpt lat="43.58975" lon="3.79725">
        <ele>40</ele>
        <time>2021-02-28T15:08:52Z</time>
      </trkpt>
      <trkpt lat="43.58972" lon="3.79727">
        <ele>40</ele>
        <time>2021-02-28T15:08:53Z</time>
      </trkpt>
      <trkpt lat="43.58966" lon="3.7973">
        <ele>40</ele>
        <time>2021-02-28T15:08:55Z</time>
      </trkpt>
      <trkpt lat="43.58963" lon="3.79731">
        <ele>40</ele>
        <time>2021-02-28T15:08:56Z</time>
      </trkpt>
      <trkpt lat="43.58958" lon="3.79734">
        <ele>39</ele>
        <time>2021-02-28T15:08:58Z</time>
      </trkpt>
      <trkpt lat="43.58956" lon="3.79736">
        <ele>39</ele>
        <time>2021-02-28T15:09:00Z</time>
      </trkpt>
      <trkpt lat="43.58953" lon="3.79738">
        <ele>39</ele>
        <time>2021-02-28T15:09:01Z</time>
      </trkpt>
      <trkpt lat="43.5895" lon="3.7974">
        <ele>39</ele>
        <time>2021-02-28T15:09:02Z</time>
      </trkpt>
      <trkpt lat="43.58945" lon="3.79744">
        <ele>39</ele>
        <time>2021-02-28T15:09:03Z</time>
      </trkpt>
      <trkpt lat="43.58942" lon="3.79747">
        <ele>39</ele>
        <time>2021-02-28T15:09:04Z</time>
      </trkpt>
      <trkpt lat="43.5894" lon="3.79749">
        <ele>39</ele>
        <time>2021-02-28T15:09:05Z</time>
      </trkpt>
      <trkpt lat="43.58938" lon="3.79752">
        <ele>39</ele>
        <time>2021-02-28T15:09:06Z</time>
      </trkpt>
      <trkpt lat="43.58935" lon="3.79755">
        <ele>39</ele>
        <time>2021-02-28T15:09:07Z</time>
      </trkpt>
      <trkpt lat="43.58933" lon="3.79757">
        <ele>39</ele>
        <time>2021-02-28T15:09:08Z</time>
      </trkpt>
      <trkpt lat="43.5893" lon="3.79761">
        <ele>39</ele>
        <time>2021-02-28T15:09:09Z</time>
      </trkpt>
      <trkpt lat="43.58928" lon="3.79763">
        <ele>39</ele>
        <time>2021-02-28T15:09:10Z</time>
      </trkpt>
      <trkpt lat="43.58925" lon="3.79766">
        <ele>39</ele>
        <time>2021-02-28T15:09:11Z</time>
      </trkpt>
      <trkpt lat="43.58923" lon="3.79769">
        <ele>39</ele>
        <time>2021-02-28T15:09:12Z</time>
      </trkpt>
      <trkpt lat="43.5892" lon="3.79772">
        <ele>39</ele>
        <time>2021-02-28T15:09:13Z</time>
      </trkpt>
      <trkpt lat="43.58918" lon="3.79776">
        <ele>39</ele>
        <time>2021-02-28T15:09:14Z</time>
      </trkpt>
      <trkpt lat="43.58912" lon="3.79783">
        <ele>39</ele>
        <time>2021-02-28T15:09:16Z</time>
      </trkpt>
      <trkpt lat="43.5891" lon="3.79787">
        <ele>39</ele>
        <time>2021-02-28T15:09:17Z</time>
      </trkpt>
      <trkpt lat="43.58907" lon="3.7979">
        <ele>38</ele>
        <time>2021-02-28T15:09:18Z</time>
      </trkpt>
      <trkpt lat="43.58904" lon="3.79794">
        <ele>38</ele>
        <time>2021-02-28T15:09:19Z</time>
      </trkpt>
      <trkpt lat="43.58901" lon="3.79797">
        <ele>38</ele>
        <time>2021-02-28T15:09:20Z</time>
      </trkpt>
      <trkpt lat="43.58898" lon="3.79801">
        <ele>38</ele>
        <time>2021-02-28T15:09:21Z</time>
      </trkpt>
      <trkpt lat="43.58896" lon="3.79805">
        <ele>38</ele>
        <time>2021-02-28T15:09:22Z</time>
      </trkpt>
      <trkpt lat="43.58893" lon="3.79809">
        <ele>38</ele>
        <time>2021-02-28T15:09:23Z</time>
      </trkpt>
      <trkpt lat="43.58891" lon="3.79813">
        <ele>38</ele>
        <time>2021-02-28T15:09:24Z</time>
      </trkpt>
      <trkpt lat="43.58889" lon="3.79816">
        <ele>38</ele>
        <time>2021-02-28T15:09:25Z</time>
      </trkpt>
      <trkpt lat="43.58889" lon="3.79819">
        <ele>38</ele>
        <time>2021-02-28T15:09:26Z</time>
      </trkpt>
      <trkpt lat="43.58889" lon="3.79822">
        <ele>38</ele>
        <time>2021-02-28T15:09:27Z</time>
      </trkpt>
      <trkpt lat="43.58891" lon="3.79826">
        <ele>38</ele>
        <time>2021-02-28T15:09:28Z</time>
      </trkpt>
      <trkpt lat="43.58893" lon="3.7983">
        <ele>38</ele>
        <time>2021-02-28T15:09:29Z</time>
      </trkpt>
      <trkpt lat="43.58895" lon="3.79834">
        <ele>38</ele>
        <time>2021-02-28T15:09:30Z</time>
      </trkpt>
      <trkpt lat="43.58898" lon="3.79838">
        <ele>38</ele>
        <time>2021-02-28T15:09:31Z</time>
      </trkpt>
      <trkpt lat="43.589" lon="3.79842">
        <ele>38</ele>
        <time>2021-02-28T15:09:32Z</time>
      </trkpt>
      <trkpt lat="43.58902" lon="3.79846">
        <ele>38</ele>
        <time>2021-02-28T15:09:33Z</time>
      </trkpt>
      <trkpt lat="43.58904" lon="3.79849">
        <ele>38</ele>
        <time>2021-02-28T15:09:34Z</time>
      </trkpt>
      <trkpt lat="43.58906" lon="3.79853">
        <ele>38</ele>
        <time>2021-02-28T15:09:35Z</time>
      </trkpt>
      <trkpt lat="43.58908" lon="3.79856">
        <ele>38</ele>
        <time>2021-02-28T15:09:36Z</time>
      </trkpt>
      <trkpt lat="43.58909" lon="3.7986">
        <ele>38</ele>
        <time>2021-02-28T15:09:37Z</time>
      </trkpt>
      <trkpt lat="43.58911" lon="3.79863">
        <ele>39</ele>
        <time>2021-02-28T15:09:38Z</time>
      </trkpt>
      <trkpt lat="43.58913" lon="3.79867">
        <ele>39</ele>
        <time>2021-02-28T15:09:39Z</time>
      </trkpt>
      <trkpt lat="43.58915" lon="3.79871">
        <ele>39</ele>
        <time>2021-02-28T15:09:40Z</time>
      </trkpt>
      <trkpt lat="43.58916" lon="3.79874">
        <ele>39</ele>
        <time>2021-02-28T15:09:41Z</time>
      </trkpt>
      <trkpt lat="43.58918" lon="3.79878">
        <ele>39</ele>
        <time>2021-02-28T15:09:42Z</time>
      </trkpt>
      <trkpt lat="43.5892" lon="3.79882">
        <ele>39</ele>
        <time>2021-02-28T15:09:43Z</time>
      </trkpt>
      <trkpt lat="43.58922" lon="3.79885">
        <ele>39</ele>
        <time>2021-02-28T15:09:44Z</time>
      </trkpt>
      <trkpt lat="43.58924" lon="3.79889">
        <ele>39</ele>
        <time>2021-02-28T15:09:45Z</time>
      </trkpt>
      <trkpt lat="43.58926" lon="3.79893">
        <ele>39</ele>
        <time>2021-02-28T15:09:46Z</time>
      </trkpt>
      <trkpt lat="43.58928" lon="3.79897">
        <ele>39</ele>
        <time>2021-02-28T15:09:47Z</time>
      </trkpt>
      <trkpt lat="43.5893" lon="3.79902">
        <ele>41</ele>
        <time>2021-02-28T15:09:48Z</time>
      </trkpt>
      <trkpt lat="43.58932" lon="3.79906">
        <ele>41</ele>
        <time>2021-02-28T15:09:49Z</time>
      </trkpt>
      <trkpt lat="43.58934" lon="3.7991">
        <ele>41</ele>
        <time>2021-02-28T15:09:50Z</time>
      </trkpt>
      <trkpt lat="43.58936" lon="3.79914">
        <ele>41</ele>
        <time>2021-02-28T15:09:51Z</time>
      </trkpt>
      <trkpt lat="43.5894" lon="3.79922">
        <ele>41</ele>
        <time>2021-02-28T15:09:53Z</time>
      </trkpt>
      <trkpt lat="43.58944" lon="3.7993">
        <ele>41</ele>
        <time>2021-02-28T15:09:55Z</time>
      </trkpt>
      <trkpt lat="43.58946" lon="3.79934">
        <ele>41</ele>
        <time>2021-02-28T15:09:56Z</time>
      </trkpt>
      <trkpt lat="43.58948" lon="3.79938">
        <ele>41</ele>
        <time>2021-02-28T15:09:57Z</time>
      </trkpt>
      <trkpt lat="43.5895" lon="3.79942">
        <ele>42</ele>
        <time>2021-02-28T15:09:58Z</time>
      </trkpt>
      <trkpt lat="43.58952" lon="3.79946">
        <ele>42</ele>
        <time>2021-02-28T15:09:59Z</time>
      </trkpt>
      <trkpt lat="43.58953" lon="3.7995">
        <ele>42</ele>
        <time>2021-02-28T15:10:00Z</time>
      </trkpt>
      <trkpt lat="43.58957" lon="3.79957">
        <ele>42</ele>
        <time>2021-02-28T15:10:02Z</time>
      </trkpt>
      <trkpt lat="43.58959" lon="3.79961">
        <ele>42</ele>
        <time>2021-02-28T15:10:03Z</time>
      </trkpt>
      <trkpt lat="43.5896" lon="3.79964">
        <ele>42</ele>
        <time>2021-02-28T15:10:04Z</time>
      </trkpt>
      <trkpt lat="43.58962" lon="3.79968">
        <ele>42</ele>
        <time>2021-02-28T15:10:05Z</time>
      </trkpt>
      <trkpt lat="43.58964" lon="3.79971">
        <ele>42</ele>
        <time>2021-02-28T15:10:06Z</time>
      </trkpt>
      <trkpt lat="43.58968" lon="3.79978">
        <ele>43</ele>
        <time>2021-02-28T15:10:08Z</time>
      </trkpt>
      <trkpt lat="43.5897" lon="3.79982">
        <ele>43</ele>
        <time>2021-02-28T15:10:09Z</time>
      </trkpt>
      <trkpt lat="43.58972" lon="3.79986">
        <ele>43</ele>
        <time>2021-02-28T15:10:10Z</time>
      </trkpt>
      <trkpt lat="43.58973" lon="3.7999">
        <ele>43</ele>
        <time>2021-02-28T15:10:11Z</time>
      </trkpt>
      <trkpt lat="43.58977" lon="3.79997">
        <ele>43</ele>
        <time>2021-02-28T15:10:13Z</time>
      </trkpt>
      <trkpt lat="43.5898" lon="3.80001">
        <ele>43</ele>
        <time>2021-02-28T15:10:14Z</time>
      </trkpt>
      <trkpt lat="43.58982" lon="3.80005">
        <ele>43</ele>
        <time>2021-02-28T15:10:15Z</time>
      </trkpt>
      <trkpt lat="43.58984" lon="3.80009">
        <ele>43</ele>
        <time>2021-02-28T15:10:16Z</time>
      </trkpt>
      <trkpt lat="43.58986" lon="3.80013">
        <ele>43</ele>
        <time>2021-02-28T15:10:17Z</time>
      </trkpt>
      <trkpt lat="43.58987" lon="3.80018">
        <ele>43</ele>
        <time>2021-02-28T15:10:18Z</time>
      </trkpt>
      <trkpt lat="43.58989" lon="3.80022">
        <ele>43</ele>
        <time>2021-02-28T15:10:19Z</time>
      </trkpt>
      <trkpt lat="43.58993" lon="3.80029">
        <ele>43</ele>
        <time>2021-02-28T15:10:21Z</time>
      </trkpt>
      <trkpt lat="43.58995" lon="3.80033">
        <ele>43</ele>
        <time>2021-02-28T15:10:22Z</time>
      </trkpt>
      <trkpt lat="43.58997" lon="3.80037">
        <ele>43</ele>
        <time>2021-02-28T15:10:23Z</time>
      </trkpt>
      <trkpt lat="43.58999" lon="3.80041">
        <ele>43</ele>
        <time>2021-02-28T15:10:24Z</time>
      </trkpt>
      <trkpt lat="43.59001" lon="3.80045">
        <ele>43</ele>
        <time>2021-02-28T15:10:25Z</time>
      </trkpt>
      <trkpt lat="43.59002" lon="3.80048">
        <ele>43</ele>
        <time>2021-02-28T15:10:26Z</time>
      </trkpt>
      <trkpt lat="43.59004" lon="3.80052">
        <ele>43</ele>
        <time>2021-02-28T15:10:27Z</time>
      </trkpt>
      <trkpt lat="43.59006" lon="3.80056">
        <ele>43</ele>
        <time>2021-02-28T15:10:28Z</time>
      </trkpt>
      <trkpt lat="43.59008" lon="3.8006">
        <ele>43</ele>
        <time>2021-02-28T15:10:29Z</time>
      </trkpt>
      <trkpt lat="43.5901" lon="3.80064">
        <ele>43</ele>
        <time>2021-02-28T15:10:30Z</time>
      </trkpt>
      <trkpt lat="43.59012" lon="3.80067">
        <ele>43</ele>
        <time>2021-02-28T15:10:31Z</time>
      </trkpt>
      <trkpt lat="43.59014" lon="3.80071">
        <ele>43</ele>
        <time>2021-02-28T15:10:32Z</time>
      </trkpt>
      <trkpt lat="43.59017" lon="3.80075">
        <ele>43</ele>
        <time>2021-02-28T15:10:33Z</time>
      </trkpt>
      <trkpt lat="43.59019" lon="3.80078">
        <ele>43</ele>
        <time>2021-02-28T15:10:34Z</time>
      </trkpt>
      <trkpt lat="43.59022" lon="3.80082">
        <ele>43</ele>
        <time>2021-02-28T15:10:35Z</time>
      </trkpt>
      <trkpt lat="43.59024" lon="3.80085">
        <ele>43</ele>
        <time>2021-02-28T15:10:36Z</time>
      </trkpt>
      <trkpt lat="43.59029" lon="3.80085">
        <ele>43</ele>
        <time>2021-02-28T15:10:38Z</time>
      </trkpt>
      <trkpt lat="43.59033" lon="3.80082">
        <ele>43</ele>
        <time>2021-02-28T15:10:39Z</time>
      </trkpt>
      <trkpt lat="43.59036" lon="3.80079">
        <ele>43</ele>
        <time>2021-02-28T15:10:40Z</time>
      </trkpt>
      <trkpt lat="43.59042" lon="3.80073">
        <ele>43</ele>
        <time>2021-02-28T15:10:42Z</time>
      </trkpt>
      <trkpt lat="43.59045" lon="3.8007">
        <ele>43</ele>
        <time>2021-02-28T15:10:43Z</time>
      </trkpt>
      <trkpt lat="43.59048" lon="3.80068">
        <ele>43</ele>
        <time>2021-02-28T15:10:44Z</time>
      </trkpt>
      <trkpt lat="43.59051" lon="3.80066">
        <ele>43</ele>
        <time>2021-02-28T15:10:45Z</time>
      </trkpt>
      <trkpt lat="43.59055" lon="3.80065">
        <ele>43</ele>
        <time>2021-02-28T15:10:46Z</time>
      </trkpt>
      <trkpt lat="43.59059" lon="3.80067">
        <ele>43</ele>
        <time>2021-02-28T15:10:47Z</time>
      </trkpt>
      <trkpt lat="43.59062" lon="3.8007">
        <ele>42</ele>
        <time>2021-02-28T15:10:48Z</time>
      </trkpt>
      <trkpt lat="43.59065" lon="3.80073">
        <ele>42</ele>
        <time>2021-02-28T15:10:49Z</time>
      </trkpt>
      <trkpt lat="43.59069" lon="3.80083">
        <ele>42</ele>
        <time>2021-02-28T15:10:51Z</time>
      </trkpt>
      <trkpt lat="43.59071" lon="3.80087">
        <ele>42</ele>
        <time>2021-02-28T15:10:52Z</time>
      </trkpt>
      <trkpt lat="43.59072" lon="3.80092">
        <ele>42</ele>
        <time>2021-02-28T15:10:53Z</time>
      </trkpt>
      <trkpt lat="43.59075" lon="3.80097">
        <ele>42</ele>
        <time>2021-02-28T15:10:54Z</time>
      </trkpt>
      <trkpt lat="43.59077" lon="3.80102">
        <ele>42</ele>
        <time>2021-02-28T15:10:55Z</time>
      </trkpt>
      <trkpt lat="43.59079" lon="3.80106">
        <ele>42</ele>
        <time>2021-02-28T15:10:56Z</time>
      </trkpt>
      <trkpt lat="43.59082" lon="3.80108">
        <ele>42</ele>
        <time>2021-02-28T15:10:57Z</time>
      </trkpt>
      <trkpt lat="43.59086" lon="3.80109">
        <ele>42</ele>
        <time>2021-02-28T15:10:58Z</time>
      </trkpt>
      <trkpt lat="43.5909" lon="3.80107">
        <ele>42</ele>
        <time>2021-02-28T15:10:59Z</time>
      </trkpt>
      <trkpt lat="43.59094" lon="3.80105">
        <ele>42</ele>
        <time>2021-02-28T15:11:00Z</time>
      </trkpt>
      <trkpt lat="43.59098" lon="3.80101">
        <ele>42</ele>
        <time>2021-02-28T15:11:01Z</time>
      </trkpt>
      <trkpt lat="43.59102" lon="3.80098">
        <ele>42</ele>
        <time>2021-02-28T15:11:02Z</time>
      </trkpt>
      <trkpt lat="43.5911" lon="3.80092">
        <ele>42</ele>
        <time>2021-02-28T15:11:04Z</time>
      </trkpt>
      <trkpt lat="43.59113" lon="3.80089">
        <ele>42</ele>
        <time>2021-02-28T15:11:05Z</time>
      </trkpt>
      <trkpt lat="43.59117" lon="3.80086">
        <ele>42</ele>
        <time>2021-02-28T15:11:06Z</time>
      </trkpt>
      <trkpt lat="43.59121" lon="3.80083">
        <ele>42</ele>
        <time>2021-02-28T15:11:07Z</time>
      </trkpt>
      <trkpt lat="43.59125" lon="3.8008">
        <ele>43</ele>
        <time>2021-02-28T15:11:08Z</time>
      </trkpt>
      <trkpt lat="43.59128" lon="3.80077">
        <ele>43</ele>
        <time>2021-02-28T15:11:09Z</time>
      </trkpt>
      <trkpt lat="43.59132" lon="3.80074">
        <ele>43</ele>
        <time>2021-02-28T15:11:10Z</time>
      </trkpt>
      <trkpt lat="43.59135" lon="3.80071">
        <ele>43</ele>
        <time>2021-02-28T15:11:11Z</time>
      </trkpt>
      <trkpt lat="43.59139" lon="3.80068">
        <ele>43</ele>
        <time>2021-02-28T15:11:12Z</time>
      </trkpt>
      <trkpt lat="43.59142" lon="3.80065">
        <ele>43</ele>
        <time>2021-02-28T15:11:13Z</time>
      </trkpt>
      <trkpt lat="43.59146" lon="3.80062">
        <ele>43</ele>
        <time>2021-02-28T15:11:14Z</time>
      </trkpt>
      <trkpt lat="43.59149" lon="3.80059">
        <ele>43</ele>
        <time>2021-02-28T15:11:15Z</time>
      </trkpt>
      <trkpt lat="43.59153" lon="3.80057">
        <ele>43</ele>
        <time>2021-02-28T15:11:16Z</time>
      </trkpt>
      <trkpt lat="43.59156" lon="3.80054">
        <ele>43</ele>
        <time>2021-02-28T15:11:17Z</time>
      </trkpt>
      <trkpt lat="43.5916" lon="3.80051">
        <ele>44</ele>
        <time>2021-02-28T15:11:18Z</time>
      </trkpt>
      <trkpt lat="43.59163" lon="3.80048">
        <ele>44</ele>
        <time>2021-02-28T15:11:19Z</time>
      </trkpt>
      <trkpt lat="43.59167" lon="3.80045">
        <ele>44</ele>
        <time>2021-02-28T15:11:20Z</time>
      </trkpt>
      <trkpt lat="43.59171" lon="3.80043">
        <ele>44</ele>
        <time>2021-02-28T15:11:21Z</time>
      </trkpt>
      <trkpt lat="43.59174" lon="3.8004">
        <ele>44</ele>
        <time>2021-02-28T15:11:22Z</time>
      </trkpt>
      <trkpt lat="43.59177" lon="3.80037">
        <ele>44</ele>
        <time>2021-02-28T15:11:23Z</time>
      </trkpt>
      <trkpt lat="43.59181" lon="3.80035">
        <ele>44</ele>
        <time>2021-02-28T15:11:24Z</time>
      </trkpt>
      <trkpt lat="43.59184" lon="3.80033">
        <ele>44</ele>
        <time>2021-02-28T15:11:25Z</time>
      </trkpt>
      <trkpt lat="43.59187" lon="3.8003">
        <ele>44</ele>
        <time>2021-02-28T15:11:26Z</time>
      </trkpt>
      <trkpt lat="43.5919" lon="3.80028">
        <ele>44</ele>
        <time>2021-02-28T15:11:27Z</time>
      </trkpt>
      <trkpt lat="43.59194" lon="3.80027">
        <ele>46</ele>
        <time>2021-02-28T15:11:28Z</time>
      </trkpt>
      <trkpt lat="43.59202" lon="3.80028">
        <ele>46</ele>
        <time>2021-02-28T15:11:30Z</time>
      </trkpt>
      <trkpt lat="43.59205" lon="3.80029">
        <ele>46</ele>
        <time>2021-02-28T15:11:31Z</time>
      </trkpt>
      <trkpt lat="43.59208" lon="3.80032">
        <ele>46</ele>
        <time>2021-02-28T15:11:32Z</time>
      </trkpt>
      <trkpt lat="43.5921" lon="3.80035">
        <ele>46</ele>
        <time>2021-02-28T15:11:33Z</time>
      </trkpt>
      <trkpt lat="43.59213" lon="3.80039">
        <ele>46</ele>
        <time>2021-02-28T15:11:34Z</time>
      </trkpt>
      <trkpt lat="43.59215" lon="3.80043">
        <ele>46</ele>
        <time>2021-02-28T15:11:35Z</time>
      </trkpt>
      <trkpt lat="43.59217" lon="3.80047">
        <ele>46</ele>
        <time>2021-02-28T15:11:36Z</time>
      </trkpt>
      <trkpt lat="43.59219" lon="3.80051">
        <ele>46</ele>
        <time>2021-02-28T15:11:37Z</time>
      </trkpt>
      <trkpt lat="43.59224" lon="3.80059">
        <ele>46</ele>
        <time>2021-02-28T15:11:39Z</time>
      </trkpt>
      <trkpt lat="43.59226" lon="3.80063">
        <ele>46</ele>
        <time>2021-02-28T15:11:40Z</time>
      </trkpt>
      <trkpt lat="43.59228" lon="3.80067">
        <ele>46</ele>
        <time>2021-02-28T15:11:41Z</time>
      </trkpt>
      <trkpt lat="43.59232" lon="3.80074">
        <ele>46</ele>
        <time>2021-02-28T15:11:43Z</time>
      </trkpt>
      <trkpt lat="43.59234" lon="3.80078">
        <ele>46</ele>
        <time>2021-02-28T15:11:44Z</time>
      </trkpt>
      <trkpt lat="43.59236" lon="3.80082">
        <ele>46</ele>
        <time>2021-02-28T15:11:45Z</time>
      </trkpt>
      <trkpt lat="43.59238" lon="3.80086">
        <ele>46</ele>
        <time>2021-02-28T15:11:46Z</time>
      </trkpt>
      <trkpt lat="43.5924" lon="3.8009">
        <ele>46</ele>
        <time>2021-02-28T15:11:47Z</time>
      </trkpt>
      <trkpt lat="43.59241" lon="3.80094">
        <ele>47</ele>
        <time>2021-02-28T15:11:48Z</time>
      </trkpt>
      <trkpt lat="43.59243" lon="3.80098">
        <ele>47</ele>
        <time>2021-02-28T15:11:49Z</time>
      </trkpt>
      <trkpt lat="43.59246" lon="3.80101">
        <ele>47</ele>
        <time>2021-02-28T15:11:50Z</time>
      </trkpt>
      <trkpt lat="43.59248" lon="3.80104">
        <ele>47</ele>
        <time>2021-02-28T15:11:51Z</time>
      </trkpt>
      <trkpt lat="43.59251" lon="3.80105">
        <ele>47</ele>
        <time>2021-02-28T15:11:52Z</time>
      </trkpt>
      <trkpt lat="43.59255" lon="3.80104">
        <ele>47</ele>
        <time>2021-02-28T15:11:53Z</time>
      </trkpt>
      <trkpt lat="43.59258" lon="3.80103">
        <ele>47</ele>
        <time>2021-02-28T15:11:54Z</time>
      </trkpt>
      <trkpt lat="43.59265" lon="3.80098">
        <ele>47</ele>
        <time>2021-02-28T15:11:56Z</time>
      </trkpt>
      <trkpt lat="43.59268" lon="3.80096">
        <ele>47</ele>
        <time>2021-02-28T15:11:57Z</time>
      </trkpt>
      <trkpt lat="43.59271" lon="3.80093">
        <ele>48</ele>
        <time>2021-02-28T15:11:58Z</time>
      </trkpt>
      <trkpt lat="43.59275" lon="3.8009">
        <ele>48</ele>
        <time>2021-02-28T15:11:59Z</time>
      </trkpt>
      <trkpt lat="43.59278" lon="3.80087">
        <ele>48</ele>
        <time>2021-02-28T15:12:00Z</time>
      </trkpt>
      <trkpt lat="43.59281" lon="3.80083">
        <ele>48</ele>
        <time>2021-02-28T15:12:01Z</time>
      </trkpt>
      <trkpt lat="43.59285" lon="3.8008">
        <ele>48</ele>
        <time>2021-02-28T15:12:02Z</time>
      </trkpt>
      <trkpt lat="43.59288" lon="3.80076">
        <ele>48</ele>
        <time>2021-02-28T15:12:03Z</time>
      </trkpt>
      <trkpt lat="43.59291" lon="3.80073">
        <ele>48</ele>
        <time>2021-02-28T15:12:04Z</time>
      </trkpt>
      <trkpt lat="43.59294" lon="3.8007">
        <ele>48</ele>
        <time>2021-02-28T15:12:05Z</time>
      </trkpt>
      <trkpt lat="43.59298" lon="3.80067">
        <ele>48</ele>
        <time>2021-02-28T15:12:06Z</time>
      </trkpt>
      <trkpt lat="43.59301" lon="3.80065">
        <ele>48</ele>
        <time>2021-02-28T15:12:07Z</time>
      </trkpt>
      <trkpt lat="43.59309" lon="3.80065">
        <ele>48</ele>
        <time>2021-02-28T15:12:09Z</time>
      </trkpt>
      <trkpt lat="43.59313" lon="3.80067">
        <ele>48</ele>
        <time>2021-02-28T15:12:10Z</time>
      </trkpt>
      <trkpt lat="43.59317" lon="3.8007">
        <ele>48</ele>
        <time>2021-02-28T15:12:11Z</time>
      </trkpt>
      <trkpt lat="43.59324" lon="3.80076">
        <ele>48</ele>
        <time>2021-02-28T15:12:13Z</time>
      </trkpt>
      <trkpt lat="43.59327" lon="3.80079">
        <ele>48</ele>
        <time>2021-02-28T15:12:14Z</time>
      </trkpt>
      <trkpt lat="43.59331" lon="3.80081">
        <ele>48</ele>
        <time>2021-02-28T15:12:15Z</time>
      </trkpt>
      <trkpt lat="43.59334" lon="3.80083">
        <ele>48</ele>
        <time>2021-02-28T15:12:16Z</time>
      </trkpt>
      <trkpt lat="43.59338" lon="3.80085">
        <ele>48</ele>
        <time>2021-02-28T15:12:17Z</time>
      </trkpt>
      <trkpt lat="43.59341" lon="3.80085">
        <ele>49</ele>
        <time>2021-02-28T15:12:18Z</time>
      </trkpt>
      <trkpt lat="43.59344" lon="3.80086">
        <ele>49</ele>
        <time>2021-02-28T15:12:19Z</time>
      </trkpt>
      <trkpt lat="43.59347" lon="3.80088">
        <ele>49</ele>
        <time>2021-02-28T15:12:20Z</time>
      </trkpt>
      <trkpt lat="43.5935" lon="3.80089">
        <ele>49</ele>
        <time>2021-02-28T15:12:21Z</time>
      </trkpt>
      <trkpt lat="43.59354" lon="3.80092">
        <ele>49</ele>
        <time>2021-02-28T15:12:22Z</time>
      </trkpt>
      <trkpt lat="43.59357" lon="3.80094">
        <ele>49</ele>
        <time>2021-02-28T15:12:23Z</time>
      </trkpt>
      <trkpt lat="43.5936" lon="3.80096">
        <ele>49</ele>
        <time>2021-02-28T15:12:24Z</time>
      </trkpt>
      <trkpt lat="43.59363" lon="3.80098">
        <ele>49</ele>
        <time>2021-02-28T15:12:25Z</time>
      </trkpt>
      <trkpt lat="43.59367" lon="3.80099">
        <ele>49</ele>
        <time>2021-02-28T15:12:26Z</time>
      </trkpt>
      <trkpt lat="43.5937" lon="3.801">
        <ele>49</ele>
        <time>2021-02-28T15:12:27Z</time>
      </trkpt>
      <trkpt lat="43.59374" lon="3.80102">
        <ele>50</ele>
        <time>2021-02-28T15:12:28Z</time>
      </trkpt>
      <trkpt lat="43.5938" lon="3.80104">
        <ele>50</ele>
        <time>2021-02-28T15:12:30Z</time>
      </trkpt>
      <trkpt lat="43.59383" lon="3.80106">
        <ele>50</ele>
        <time>2021-02-28T15:12:31Z</time>
      </trkpt>
      <trkpt lat="43.59387" lon="3.80107">
        <ele>50</ele>
        <time>2021-02-28T15:12:32Z</time>
      </trkpt>
      <trkpt lat="43.5939" lon="3.80109">
        <ele>50</ele>
        <time>2021-02-28T15:12:33Z</time>
      </trkpt>
      <trkpt lat="43.59393" lon="3.8011">
        <ele>50</ele>
        <time>2021-02-28T15:12:34Z</time>
      </trkpt>
      <trkpt lat="43.59397" lon="3.80112">
        <ele>50</ele>
        <time>2021-02-28T15:12:35Z</time>
      </trkpt>
      <trkpt lat="43.594" lon="3.80114">
        <ele>50</ele>
        <time>2021-02-28T15:12:36Z</time>
      </trkpt>
      <trkpt lat="43.59403" lon="3.80115">
        <ele>50</ele>
        <time>2021-02-28T15:12:37Z</time>
      </trkpt>
      <trkpt lat="43.59406" lon="3.80116">
        <ele>52</ele>
        <time>2021-02-28T15:12:38Z</time>
      </trkpt>
      <trkpt lat="43.5941" lon="3.80118">
        <ele>52</ele>
        <time>2021-02-28T15:12:39Z</time>
      </trkpt>
      <trkpt lat="43.59413" lon="3.80119">
        <ele>52</ele>
        <time>2021-02-28T15:12:40Z</time>
      </trkpt>
      <trkpt lat="43.59416" lon="3.80121">
        <ele>52</ele>
        <time>2021-02-28T15:12:41Z</time>
      </trkpt>
      <trkpt lat="43.5942" lon="3.80122">
        <ele>52</ele>
        <time>2021-02-28T15:12:42Z</time>
      </trkpt>
      <trkpt lat="43.59423" lon="3.80124">
        <ele>52</ele>
        <time>2021-02-28T15:12:43Z</time>
      </trkpt>
      <trkpt lat="43.59426" lon="3.80126">
        <ele>52</ele>
        <time>2021-02-28T15:12:44Z</time>
      </trkpt>
      <trkpt lat="43.5943" lon="3.80127">
        <ele>52</ele>
        <time>2021-02-28T15:12:45Z</time>
      </trkpt>
      <trkpt lat="43.59433" lon="3.80129">
        <ele>52</ele>
        <time>2021-02-28T15:12:46Z</time>
      </trkpt>
      <trkpt lat="43.59437" lon="3.8013">
        <ele>52</ele>
        <time>2021-02-28T15:12:47Z</time>
      </trkpt>
      <trkpt lat="43.5944" lon="3.80132">
        <ele>53</ele>
        <time>2021-02-28T15:12:48Z</time>
      </trkpt>
      <trkpt lat="43.59444" lon="3.80133">
        <ele>53</ele>
        <time>2021-02-28T15:12:49Z</time>
      </trkpt>
      <trkpt lat="43.59451" lon="3.80136">
        <ele>53</ele>
        <time>2021-02-28T15:12:51Z</time>
      </trkpt>
      <trkpt lat="43.59455" lon="3.80137">
        <ele>53</ele>
        <time>2021-02-28T15:12:52Z</time>
      </trkpt>
      <trkpt lat="43.59459" lon="3.80138">
        <ele>53</ele>
        <time>2021-02-28T15:12:53Z</time>
      </trkpt>
      <trkpt lat="43.59462" lon="3.80138">
        <ele>53</ele>
        <time>2021-02-28T15:12:55Z</time>
      </trkpt>
      <trkpt lat="43.5947" lon="3.80138">
        <ele>53</ele>
        <time>2021-02-28T15:12:56Z</time>
      </trkpt>
      <trkpt lat="43.59474" lon="3.80138">
        <ele>53</ele>
        <time>2021-02-28T15:12:57Z</time>
      </trkpt>
      <trkpt lat="43.59477" lon="3.80138">
        <ele>55</ele>
        <time>2021-02-28T15:12:58Z</time>
      </trkpt>
      <trkpt lat="43.59485" lon="3.80138">
        <ele>55</ele>
        <time>2021-02-28T15:13:00Z</time>
      </trkpt>
      <trkpt lat="43.59488" lon="3.80139">
        <ele>55</ele>
        <time>2021-02-28T15:13:01Z</time>
      </trkpt>
      <trkpt lat="43.59492" lon="3.8014">
        <ele>55</ele>
        <time>2021-02-28T15:13:02Z</time>
      </trkpt>
      <trkpt lat="43.59494" lon="3.80142">
        <ele>55</ele>
        <time>2021-02-28T15:13:03Z</time>
      </trkpt>
      <trkpt lat="43.59496" lon="3.80146">
        <ele>55</ele>
        <time>2021-02-28T15:13:05Z</time>
      </trkpt>
      <trkpt lat="43.59498" lon="3.80151">
        <ele>55</ele>
        <time>2021-02-28T15:13:06Z</time>
      </trkpt>
      <trkpt lat="43.595" lon="3.80155">
        <ele>55</ele>
        <time>2021-02-28T15:13:07Z</time>
      </trkpt>
      <trkpt lat="43.59503" lon="3.80165">
        <ele>55</ele>
        <time>2021-02-28T15:13:08Z</time>
      </trkpt>
      <trkpt lat="43.59504" lon="3.8017">
        <ele>55</ele>
        <time>2021-02-28T15:13:09Z</time>
      </trkpt>
      <trkpt lat="43.59506" lon="3.80175">
        <ele>55</ele>
        <time>2021-02-28T15:13:10Z</time>
      </trkpt>
      <trkpt lat="43.59507" lon="3.8018">
        <ele>55</ele>
        <time>2021-02-28T15:13:11Z</time>
      </trkpt>
      <trkpt lat="43.59508" lon="3.80186">
        <ele>55</ele>
        <time>2021-02-28T15:13:12Z</time>
      </trkpt>
      <trkpt lat="43.5951" lon="3.80191">
        <ele>55</ele>
        <time>2021-02-28T15:13:13Z</time>
      </trkpt>
      <trkpt lat="43.59511" lon="3.80196">
        <ele>55</ele>
        <time>2021-02-28T15:13:14Z</time>
      </trkpt>
      <trkpt lat="43.59512" lon="3.80202">
        <ele>55</ele>
        <time>2021-02-28T15:13:15Z</time>
      </trkpt>
      <trkpt lat="43.59513" lon="3.80207">
        <ele>55</ele>
        <time>2021-02-28T15:13:16Z</time>
      </trkpt>
      <trkpt lat="43.59515" lon="3.80212">
        <ele>55</ele>
        <time>2021-02-28T15:13:17Z</time>
      </trkpt>
      <trkpt lat="43.59517" lon="3.80217">
        <ele>56</ele>
        <time>2021-02-28T15:13:18Z</time>
      </trkpt>
      <trkpt lat="43.5952" lon="3.80221">
        <ele>56</ele>
        <time>2021-02-28T15:13:19Z</time>
      </trkpt>
      <trkpt lat="43.59525" lon="3.80229">
        <ele>56</ele>
        <time>2021-02-28T15:13:21Z</time>
      </trkpt>
      <trkpt lat="43.59527" lon="3.80232">
        <ele>56</ele>
        <time>2021-02-28T15:13:22Z</time>
      </trkpt>
      <trkpt lat="43.5953" lon="3.80236">
        <ele>56</ele>
        <time>2021-02-28T15:13:23Z</time>
      </trkpt>
      <trkpt lat="43.59533" lon="3.80243">
        <ele>56</ele>
        <time>2021-02-28T15:13:25Z</time>
      </trkpt>
      <trkpt lat="43.59535" lon="3.80246">
        <ele>56</ele>
        <time>2021-02-28T15:13:26Z</time>
      </trkpt>
      <trkpt lat="43.59537" lon="3.8025">
        <ele>56</ele>
        <time>2021-02-28T15:13:27Z</time>
      </trkpt>
      <trkpt lat="43.59538" lon="3.80253">
        <ele>56</ele>
        <time>2021-02-28T15:13:28Z</time>
      </trkpt>
      <trkpt lat="43.5954" lon="3.80256">
        <ele>56</ele>
        <time>2021-02-28T15:13:29Z</time>
      </trkpt>
      <trkpt lat="43.59541" lon="3.80258">
        <ele>56</ele>
        <time>2021-02-28T15:13:30Z</time>
      </trkpt>
      <trkpt lat="43.59543" lon="3.80261">
        <ele>56</ele>
        <time>2021-02-28T15:13:31Z</time>
      </trkpt>
      <trkpt lat="43.59544" lon="3.80264">
        <ele>56</ele>
        <time>2021-02-28T15:13:32Z</time>
      </trkpt>
      <trkpt lat="43.59546" lon="3.80266">
        <ele>56</ele>
        <time>2021-02-28T15:13:33Z</time>
      </trkpt>
      <trkpt lat="43.59547" lon="3.80269">
        <ele>56</ele>
        <time>2021-02-28T15:13:34Z</time>
      </trkpt>
      <trkpt lat="43.59549" lon="3.80271">
        <ele>56</ele>
        <time>2021-02-28T15:13:35Z</time>
      </trkpt>
      <trkpt lat="43.5955" lon="3.80273">
        <ele>56</ele>
        <time>2021-02-28T15:13:36Z</time>
      </trkpt>
      <trkpt lat="43.59552" lon="3.80275">
        <ele>56</ele>
        <time>2021-02-28T15:13:37Z</time>
      </trkpt>
      <trkpt lat="43.59554" lon="3.80277">
        <ele>55</ele>
        <time>2021-02-28T15:13:38Z</time>
      </trkpt>
      <trkpt lat="43.59555" lon="3.8028">
        <ele>55</ele>
        <time>2021-02-28T15:13:39Z</time>
      </trkpt>
      <trkpt lat="43.59556" lon="3.80282">
        <ele>55</ele>
        <time>2021-02-28T15:13:40Z</time>
      </trkpt>
      <trkpt lat="43.59558" lon="3.80284">
        <ele>55</ele>
        <time>2021-02-28T15:13:41Z</time>
      </trkpt>
      <trkpt lat="43.59559" lon="3.80285">
        <ele>55</ele>
        <time>2021-02-28T15:13:42Z</time>
      </trkpt>
      <trkpt lat="43.59561" lon="3.80287">
        <ele>55</ele>
        <time>2021-02-28T15:13:43Z</time>
      </trkpt>
      <trkpt lat="43.59562" lon="3.80289">
        <ele>55</ele>
        <time>2021-02-28T15:13:44Z</time>
      </trkpt>
      <trkpt lat="43.59564" lon="3.80293">
        <ele>55</ele>
        <time>2021-02-28T15:13:46Z</time>
      </trkpt>
      <trkpt lat="43.59565" lon="3.80296">
        <ele>55</ele>
        <time>2021-02-28T15:13:47Z</time>
      </trkpt>
      <trkpt lat="43.59566" lon="3.80298">
        <ele>55</ele>
        <time>2021-02-28T15:13:48Z</time>
      </trkpt>
      <trkpt lat="43.59568" lon="3.80302">
        <ele>55</ele>
        <time>2021-02-28T15:13:50Z</time>
      </trkpt>
      <trkpt lat="43.5957" lon="3.80305">
        <ele>55</ele>
        <time>2021-02-28T15:13:51Z</time>
      </trkpt>
      <trkpt lat="43.59571" lon="3.80308">
        <ele>55</ele>
        <time>2021-02-28T15:13:52Z</time>
      </trkpt>
      <trkpt lat="43.59573" lon="3.80311">
        <ele>55</ele>
        <time>2021-02-28T15:13:53Z</time>
      </trkpt>
      <trkpt lat="43.59578" lon="3.80318">
        <ele>55</ele>
        <time>2021-02-28T15:13:55Z</time>
      </trkpt>
      <trkpt lat="43.59581" lon="3.80321">
        <ele>55</ele>
        <time>2021-02-28T15:13:56Z</time>
      </trkpt>
      <trkpt lat="43.59584" lon="3.80324">
        <ele>55</ele>
        <time>2021-02-28T15:13:57Z</time>
      </trkpt>
      <trkpt lat="43.59586" lon="3.80328">
        <ele>54</ele>
        <time>2021-02-28T15:13:58Z</time>
      </trkpt>
      <trkpt lat="43.59589" lon="3.80332">
        <ele>54</ele>
        <time>2021-02-28T15:13:59Z</time>
      </trkpt>
      <trkpt lat="43.59592" lon="3.80336">
        <ele>54</ele>
        <time>2021-02-28T15:14:00Z</time>
      </trkpt>
      <trkpt lat="43.59595" lon="3.8034">
        <ele>54</ele>
        <time>2021-02-28T15:14:01Z</time>
      </trkpt>
      <trkpt lat="43.59598" lon="3.80344">
        <ele>54</ele>
        <time>2021-02-28T15:14:02Z</time>
      </trkpt>
      <trkpt lat="43.596" lon="3.80348">
        <ele>54</ele>
        <time>2021-02-28T15:14:03Z</time>
      </trkpt>
      <trkpt lat="43.59603" lon="3.80351">
        <ele>54</ele>
        <time>2021-02-28T15:14:04Z</time>
      </trkpt>
      <trkpt lat="43.59606" lon="3.80355">
        <ele>54</ele>
        <time>2021-02-28T15:14:05Z</time>
      </trkpt>
      <trkpt lat="43.59608" lon="3.80359">
        <ele>54</ele>
        <time>2021-02-28T15:14:06Z</time>
      </trkpt>
      <trkpt lat="43.59611" lon="3.80363">
        <ele>54</ele>
        <time>2021-02-28T15:14:07Z</time>
      </trkpt>
      <trkpt lat="43.59614" lon="3.80367">
        <ele>54</ele>
        <time>2021-02-28T15:14:08Z</time>
      </trkpt>
      <trkpt lat="43.59616" lon="3.80371">
        <ele>54</ele>
        <time>2021-02-28T15:14:09Z</time>
      </trkpt>
      <trkpt lat="43.59619" lon="3.80375">
        <ele>54</ele>
        <time>2021-02-28T15:14:10Z</time>
      </trkpt>
      <trkpt lat="43.59625" lon="3.80384">
        <ele>54</ele>
        <time>2021-02-28T15:14:12Z</time>
      </trkpt>
      <trkpt lat="43.59627" lon="3.80388">
        <ele>54</ele>
        <time>2021-02-28T15:14:13Z</time>
      </trkpt>
      <trkpt lat="43.5963" lon="3.80392">
        <ele>54</ele>
        <time>2021-02-28T15:14:14Z</time>
      </trkpt>
      <trkpt lat="43.59634" lon="3.804">
        <ele>54</ele>
        <time>2021-02-28T15:14:16Z</time>
      </trkpt>
      <trkpt lat="43.59636" lon="3.80404">
        <ele>54</ele>
        <time>2021-02-28T15:14:17Z</time>
      </trkpt>
      <trkpt lat="43.59637" lon="3.80408">
        <ele>54</ele>
        <time>2021-02-28T15:14:18Z</time>
      </trkpt>
      <trkpt lat="43.59639" lon="3.80418">
        <ele>54</ele>
        <time>2021-02-28T15:14:20Z</time>
      </trkpt>
      <trkpt lat="43.59639" lon="3.80423">
        <ele>54</ele>
        <time>2021-02-28T15:14:21Z</time>
      </trkpt>
      <trkpt lat="43.5964" lon="3.80429">
        <ele>54</ele>
        <time>2021-02-28T15:14:22Z</time>
      </trkpt>
      <trkpt lat="43.5964" lon="3.80434">
        <ele>54</ele>
        <time>2021-02-28T15:14:23Z</time>
      </trkpt>
      <trkpt lat="43.59641" lon="3.80438">
        <ele>54</ele>
        <time>2021-02-28T15:14:24Z</time>
      </trkpt>
      <trkpt lat="43.59641" lon="3.80443">
        <ele>54</ele>
        <time>2021-02-28T15:14:25Z</time>
      </trkpt>
      <trkpt lat="43.59642" lon="3.80447">
        <ele>54</ele>
        <time>2021-02-28T15:14:26Z</time>
      </trkpt>
      <trkpt lat="43.59643" lon="3.80451">
        <ele>54</ele>
        <time>2021-02-28T15:14:27Z</time>
      </trkpt>
      <trkpt lat="43.59645" lon="3.8046">
        <ele>54</ele>
        <time>2021-02-28T15:14:29Z</time>
      </trkpt>
      <trkpt lat="43.59647" lon="3.80464">
        <ele>54</ele>
        <time>2021-02-28T15:14:30Z</time>
      </trkpt>
      <trkpt lat="43.59648" lon="3.80469">
        <ele>54</ele>
        <time>2021-02-28T15:14:31Z</time>
      </trkpt>
      <trkpt lat="43.5965" lon="3.80473">
        <ele>54</ele>
        <time>2021-02-28T15:14:32Z</time>
      </trkpt>
      <trkpt lat="43.59652" lon="3.80478">
        <ele>54</ele>
        <time>2021-02-28T15:14:33Z</time>
      </trkpt>
      <trkpt lat="43.59653" lon="3.80482">
        <ele>54</ele>
        <time>2021-02-28T15:14:34Z</time>
      </trkpt>
      <trkpt lat="43.59655" lon="3.80486">
        <ele>54</ele>
        <time>2021-02-28T15:14:35Z</time>
      </trkpt>
      <trkpt lat="43.59656" lon="3.8049">
        <ele>54</ele>
        <time>2021-02-28T15:14:36Z</time>
      </trkpt>
      <trkpt lat="43.59658" lon="3.80494">
        <ele>54</ele>
        <time>2021-02-28T15:14:37Z</time>
      </trkpt>
      <trkpt lat="43.59659" lon="3.80498">
        <ele>54</ele>
        <time>2021-02-28T15:14:38Z</time>
      </trkpt>
      <trkpt lat="43.5966" lon="3.80502">
        <ele>54</ele>
        <time>2021-02-28T15:14:39Z</time>
      </trkpt>
      <trkpt lat="43.59662" lon="3.80506">
        <ele>54</ele>
        <time>2021-02-28T15:14:40Z</time>
      </trkpt>
      <trkpt lat="43.59665" lon="3.80513">
        <ele>54</ele>
        <time>2021-02-28T15:14:42Z</time>
      </trkpt>
      <trkpt lat="43.59667" lon="3.80517">
        <ele>54</ele>
        <time>2021-02-28T15:14:43Z</time>
      </trkpt>
      <trkpt lat="43.59668" lon="3.80521">
        <ele>54</ele>
        <time>2021-02-28T15:14:44Z</time>
      </trkpt>
      <trkpt lat="43.5967" lon="3.80525">
        <ele>54</ele>
        <time>2021-02-28T15:14:45Z</time>
      </trkpt>
      <trkpt lat="43.59671" lon="3.80529">
        <ele>54</ele>
        <time>2021-02-28T15:14:46Z</time>
      </trkpt>
      <trkpt lat="43.59673" lon="3.80533">
        <ele>54</ele>
        <time>2021-02-28T15:14:47Z</time>
      </trkpt>
      <trkpt lat="43.59674" lon="3.80537">
        <ele>54</ele>
        <time>2021-02-28T15:14:48Z</time>
      </trkpt>
      <trkpt lat="43.59676" lon="3.80541">
        <ele>54</ele>
        <time>2021-02-28T15:14:49Z</time>
      </trkpt>
      <trkpt lat="43.59677" lon="3.80545">
        <ele>54</ele>
        <time>2021-02-28T15:14:50Z</time>
      </trkpt>
      <trkpt lat="43.59678" lon="3.80549">
        <ele>54</ele>
        <time>2021-02-28T15:14:51Z</time>
      </trkpt>
      <trkpt lat="43.59679" lon="3.80554">
        <ele>54</ele>
        <time>2021-02-28T15:14:52Z</time>
      </trkpt>
      <trkpt lat="43.5968" lon="3.80558">
        <ele>54</ele>
        <time>2021-02-28T15:14:53Z</time>
      </trkpt>
      <trkpt lat="43.59681" lon="3.80563">
        <ele>54</ele>
        <time>2021-02-28T15:14:54Z</time>
      </trkpt>
      <trkpt lat="43.59681" lon="3.80569">
        <ele>54</ele>
        <time>2021-02-28T15:14:55Z</time>
      </trkpt>
      <trkpt lat="43.59682" lon="3.80574">
        <ele>54</ele>
        <time>2021-02-28T15:14:56Z</time>
      </trkpt>
      <trkpt lat="43.59682" lon="3.80579">
        <ele>54</ele>
        <time>2021-02-28T15:14:57Z</time>
      </trkpt>
      <trkpt lat="43.59682" lon="3.80584">
        <ele>54</ele>
        <time>2021-02-28T15:14:58Z</time>
      </trkpt>
      <trkpt lat="43.59682" lon="3.80593">
        <ele>54</ele>
        <time>2021-02-28T15:15:00Z</time>
      </trkpt>
      <trkpt lat="43.59683" lon="3.80597">
        <ele>54</ele>
        <time>2021-02-28T15:15:01Z</time>
      </trkpt>
      <trkpt lat="43.59683" lon="3.80602">
        <ele>54</ele>
        <time>2021-02-28T15:15:02Z</time>
      </trkpt>
      <trkpt lat="43.59683" lon="3.8061">
        <ele>54</ele>
        <time>2021-02-28T15:15:04Z</time>
      </trkpt>
      <trkpt lat="43.59684" lon="3.80614">
        <ele>54</ele>
        <time>2021-02-28T15:15:05Z</time>
      </trkpt>
      <trkpt lat="43.59684" lon="3.80618">
        <ele>54</ele>
        <time>2021-02-28T15:15:06Z</time>
      </trkpt>
      <trkpt lat="43.59685" lon="3.80621">
        <ele>54</ele>
        <time>2021-02-28T15:15:07Z</time>
      </trkpt>
      <trkpt lat="43.59686" lon="3.80625">
        <ele>53</ele>
        <time>2021-02-28T15:15:08Z</time>
      </trkpt>
      <trkpt lat="43.59687" lon="3.80628">
        <ele>53</ele>
        <time>2021-02-28T15:15:09Z</time>
      </trkpt>
      <trkpt lat="43.59687" lon="3.80632">
        <ele>53</ele>
        <time>2021-02-28T15:15:10Z</time>
      </trkpt>
      <trkpt lat="43.59686" lon="3.80635">
        <ele>53</ele>
        <time>2021-02-28T15:15:11Z</time>
      </trkpt>
      <trkpt lat="43.59686" lon="3.80639">
        <ele>53</ele>
        <time>2021-02-28T15:15:14Z</time>
      </trkpt>
      <trkpt lat="43.59686" lon="3.80641">
        <ele>53</ele>
        <time>2021-02-28T15:15:15Z</time>
      </trkpt>
      <trkpt lat="43.59686" lon="3.80645">
        <ele>53</ele>
        <time>2021-02-28T15:15:16Z</time>
      </trkpt>
      <trkpt lat="43.59687" lon="3.80648">
        <ele>53</ele>
        <time>2021-02-28T15:15:17Z</time>
      </trkpt>
      <trkpt lat="43.59687" lon="3.80652">
        <ele>53</ele>
        <time>2021-02-28T15:15:18Z</time>
      </trkpt>
      <trkpt lat="43.59688" lon="3.80657">
        <ele>53</ele>
        <time>2021-02-28T15:15:19Z</time>
      </trkpt>
      <trkpt lat="43.5969" lon="3.80661">
        <ele>53</ele>
        <time>2021-02-28T15:15:20Z</time>
      </trkpt>
      <trkpt lat="43.59691" lon="3.80666">
        <ele>53</ele>
        <time>2021-02-28T15:15:21Z</time>
      </trkpt>
      <trkpt lat="43.59692" lon="3.8067">
        <ele>53</ele>
        <time>2021-02-28T15:15:22Z</time>
      </trkpt>
      <trkpt lat="43.59692" lon="3.80678">
        <ele>53</ele>
        <time>2021-02-28T15:15:24Z</time>
      </trkpt>
      <trkpt lat="43.59693" lon="3.80685">
        <ele>53</ele>
        <time>2021-02-28T15:15:26Z</time>
      </trkpt>
      <trkpt lat="43.59693" lon="3.8069">
        <ele>53</ele>
        <time>2021-02-28T15:15:27Z</time>
      </trkpt>
      <trkpt lat="43.59693" lon="3.80694">
        <ele>53</ele>
        <time>2021-02-28T15:15:28Z</time>
      </trkpt>
      <trkpt lat="43.59693" lon="3.80698">
        <ele>53</ele>
        <time>2021-02-28T15:15:29Z</time>
      </trkpt>
      <trkpt lat="43.59693" lon="3.80702">
        <ele>53</ele>
        <time>2021-02-28T15:15:30Z</time>
      </trkpt>
      <trkpt lat="43.59694" lon="3.80706">
        <ele>53</ele>
        <time>2021-02-28T15:15:31Z</time>
      </trkpt>
      <trkpt lat="43.59694" lon="3.8071">
        <ele>53</ele>
        <time>2021-02-28T15:15:32Z</time>
      </trkpt>
      <trkpt lat="43.59695" lon="3.80714">
        <ele>53</ele>
        <time>2021-02-28T15:15:33Z</time>
      </trkpt>
      <trkpt lat="43.59696" lon="3.80718">
        <ele>53</ele>
        <time>2021-02-28T15:15:34Z</time>
      </trkpt>
      <trkpt lat="43.59696" lon="3.80721">
        <ele>53</ele>
        <time>2021-02-28T15:15:35Z</time>
      </trkpt>
      <trkpt lat="43.59698" lon="3.80729">
        <ele>53</ele>
        <time>2021-02-28T15:15:37Z</time>
      </trkpt>
      <trkpt lat="43.59698" lon="3.8074">
        <ele>53</ele>
        <time>2021-02-28T15:15:39Z</time>
      </trkpt>
      <trkpt lat="43.59699" lon="3.80745">
        <ele>53</ele>
        <time>2021-02-28T15:15:40Z</time>
      </trkpt>
      <trkpt lat="43.597" lon="3.8075">
        <ele>53</ele>
        <time>2021-02-28T15:15:41Z</time>
      </trkpt>
      <trkpt lat="43.59703" lon="3.80759">
        <ele>53</ele>
        <time>2021-02-28T15:15:43Z</time>
      </trkpt>
      <trkpt lat="43.59704" lon="3.80764">
        <ele>53</ele>
        <time>2021-02-28T15:15:44Z</time>
      </trkpt>
      <trkpt lat="43.59706" lon="3.80774">
        <ele>53</ele>
        <time>2021-02-28T15:15:46Z</time>
      </trkpt>
      <trkpt lat="43.59707" lon="3.80779">
        <ele>53</ele>
        <time>2021-02-28T15:15:47Z</time>
      </trkpt>
      <trkpt lat="43.59708" lon="3.80784">
        <ele>54</ele>
        <time>2021-02-28T15:15:48Z</time>
      </trkpt>
      <trkpt lat="43.5971" lon="3.80789">
        <ele>54</ele>
        <time>2021-02-28T15:15:49Z</time>
      </trkpt>
      <trkpt lat="43.59711" lon="3.80794">
        <ele>54</ele>
        <time>2021-02-28T15:15:50Z</time>
      </trkpt>
      <trkpt lat="43.59714" lon="3.80804">
        <ele>54</ele>
        <time>2021-02-28T15:15:52Z</time>
      </trkpt>
      <trkpt lat="43.59716" lon="3.80809">
        <ele>54</ele>
        <time>2021-02-28T15:15:53Z</time>
      </trkpt>
      <trkpt lat="43.59717" lon="3.80814">
        <ele>54</ele>
        <time>2021-02-28T15:15:54Z</time>
      </trkpt>
      <trkpt lat="43.59718" lon="3.80818">
        <ele>54</ele>
        <time>2021-02-28T15:15:55Z</time>
      </trkpt>
      <trkpt lat="43.59719" lon="3.80823">
        <ele>54</ele>
        <time>2021-02-28T15:15:56Z</time>
      </trkpt>
      <trkpt lat="43.5972" lon="3.80828">
        <ele>54</ele>
        <time>2021-02-28T15:15:57Z</time>
      </trkpt>
      <trkpt lat="43.59722" lon="3.80833">
        <ele>54</ele>
        <time>2021-02-28T15:15:58Z</time>
      </trkpt>
      <trkpt lat="43.59724" lon="3.80839">
        <ele>54</ele>
        <time>2021-02-28T15:15:59Z</time>
      </trkpt>
      <trkpt lat="43.59725" lon="3.80844">
        <ele>54</ele>
        <time>2021-02-28T15:16:00Z</time>
      </trkpt>
      <trkpt lat="43.59726" lon="3.8085">
        <ele>54</ele>
        <time>2021-02-28T15:16:01Z</time>
      </trkpt>
      <trkpt lat="43.59727" lon="3.80856">
        <ele>54</ele>
        <time>2021-02-28T15:16:02Z</time>
      </trkpt>
      <trkpt lat="43.59728" lon="3.80861">
        <ele>54</ele>
        <time>2021-02-28T15:16:03Z</time>
      </trkpt>
      <trkpt lat="43.59729" lon="3.80867">
        <ele>54</ele>
        <time>2021-02-28T15:16:04Z</time>
      </trkpt>
      <trkpt lat="43.59729" lon="3.80873">
        <ele>54</ele>
        <time>2021-02-28T15:16:05Z</time>
      </trkpt>
      <trkpt lat="43.5973" lon="3.80878">
        <ele>54</ele>
        <time>2021-02-28T15:16:06Z</time>
      </trkpt>
      <trkpt lat="43.59731" lon="3.80884">
        <ele>54</ele>
        <time>2021-02-28T15:16:07Z</time>
      </trkpt>
      <trkpt lat="43.59734" lon="3.80895">
        <ele>54</ele>
        <time>2021-02-28T15:16:09Z</time>
      </trkpt>
      <trkpt lat="43.59736" lon="3.80906">
        <ele>54</ele>
        <time>2021-02-28T15:16:11Z</time>
      </trkpt>
      <trkpt lat="43.59737" lon="3.80911">
        <ele>54</ele>
        <time>2021-02-28T15:16:12Z</time>
      </trkpt>
      <trkpt lat="43.59739" lon="3.80916">
        <ele>54</ele>
        <time>2021-02-28T15:16:13Z</time>
      </trkpt>
      <trkpt lat="43.5974" lon="3.80921">
        <ele>54</ele>
        <time>2021-02-28T15:16:14Z</time>
      </trkpt>
      <trkpt lat="43.59741" lon="3.80926">
        <ele>54</ele>
        <time>2021-02-28T15:16:15Z</time>
      </trkpt>
      <trkpt lat="43.59742" lon="3.80931">
        <ele>54</ele>
        <time>2021-02-28T15:16:16Z</time>
      </trkpt>
      <trkpt lat="43.59743" lon="3.80936">
        <ele>54</ele>
        <time>2021-02-28T15:16:17Z</time>
      </trkpt>
      <trkpt lat="43.59744" lon="3.8094">
        <ele>53</ele>
        <time>2021-02-28T15:16:18Z</time>
      </trkpt>
      <trkpt lat="43.59746" lon="3.80945">
        <ele>53</ele>
        <time>2021-02-28T15:16:19Z</time>
      </trkpt>
      <trkpt lat="43.59748" lon="3.8095">
        <ele>53</ele>
        <time>2021-02-28T15:16:20Z</time>
      </trkpt>
      <trkpt lat="43.5975" lon="3.80954">
        <ele>53</ele>
        <time>2021-02-28T15:16:21Z</time>
      </trkpt>
      <trkpt lat="43.59752" lon="3.80959">
        <ele>53</ele>
        <time>2021-02-28T15:16:22Z</time>
      </trkpt>
      <trkpt lat="43.59757" lon="3.80968">
        <ele>53</ele>
        <time>2021-02-28T15:16:24Z</time>
      </trkpt>
      <trkpt lat="43.59761" lon="3.80977">
        <ele>53</ele>
        <time>2021-02-28T15:16:26Z</time>
      </trkpt>
      <trkpt lat="43.59763" lon="3.80981">
        <ele>53</ele>
        <time>2021-02-28T15:16:27Z</time>
      </trkpt>
      <trkpt lat="43.59766" lon="3.80986">
        <ele>52</ele>
        <time>2021-02-28T15:16:28Z</time>
      </trkpt>
      <trkpt lat="43.5977" lon="3.80996">
        <ele>52</ele>
        <time>2021-02-28T15:16:30Z</time>
      </trkpt>
      <trkpt lat="43.59773" lon="3.81002">
        <ele>52</ele>
        <time>2021-02-28T15:16:31Z</time>
      </trkpt>
      <trkpt lat="43.59775" lon="3.81007">
        <ele>52</ele>
        <time>2021-02-28T15:16:32Z</time>
      </trkpt>
      <trkpt lat="43.59778" lon="3.81013">
        <ele>52</ele>
        <time>2021-02-28T15:16:33Z</time>
      </trkpt>
      <trkpt lat="43.59781" lon="3.81019">
        <ele>52</ele>
        <time>2021-02-28T15:16:34Z</time>
      </trkpt>
      <trkpt lat="43.59784" lon="3.81025">
        <ele>52</ele>
        <time>2021-02-28T15:16:35Z</time>
      </trkpt>
      <trkpt lat="43.59787" lon="3.81031">
        <ele>52</ele>
        <time>2021-02-28T15:16:36Z</time>
      </trkpt>
      <trkpt lat="43.5979" lon="3.81037">
        <ele>52</ele>
        <time>2021-02-28T15:16:37Z</time>
      </trkpt>
      <trkpt lat="43.59793" lon="3.81043">
        <ele>50</ele>
        <time>2021-02-28T15:16:38Z</time>
      </trkpt>
      <trkpt lat="43.59795" lon="3.8105">
        <ele>50</ele>
        <time>2021-02-28T15:16:39Z</time>
      </trkpt>
      <trkpt lat="43.59798" lon="3.81056">
        <ele>50</ele>
        <time>2021-02-28T15:16:40Z</time>
      </trkpt>
      <trkpt lat="43.59801" lon="3.81062">
        <ele>50</ele>
        <time>2021-02-28T15:16:41Z</time>
      </trkpt>
      <trkpt lat="43.59804" lon="3.81068">
        <ele>50</ele>
        <time>2021-02-28T15:16:42Z</time>
      </trkpt>
      <trkpt lat="43.59807" lon="3.81074">
        <ele>50</ele>
        <time>2021-02-28T15:16:43Z</time>
      </trkpt>
      <trkpt lat="43.5981" lon="3.8108">
        <ele>50</ele>
        <time>2021-02-28T15:16:44Z</time>
      </trkpt>
      <trkpt lat="43.59813" lon="3.81086">
        <ele>50</ele>
        <time>2021-02-28T15:16:45Z</time>
      </trkpt>
      <trkpt lat="43.59818" lon="3.81099">
        <ele>50</ele>
        <time>2021-02-28T15:16:47Z</time>
      </trkpt>
      <trkpt lat="43.5982" lon="3.81105">
        <ele>48</ele>
        <time>2021-02-28T15:16:48Z</time>
      </trkpt>
      <trkpt lat="43.59823" lon="3.8111">
        <ele>48</ele>
        <time>2021-02-28T15:16:49Z</time>
      </trkpt>
      <trkpt lat="43.59825" lon="3.81115">
        <ele>48</ele>
        <time>2021-02-28T15:16:50Z</time>
      </trkpt>
      <trkpt lat="43.59827" lon="3.81121">
        <ele>48</ele>
        <time>2021-02-28T15:16:51Z</time>
      </trkpt>
      <trkpt lat="43.59829" lon="3.81126">
        <ele>48</ele>
        <time>2021-02-28T15:16:52Z</time>
      </trkpt>
      <trkpt lat="43.5983" lon="3.81131">
        <ele>48</ele>
        <time>2021-02-28T15:16:53Z</time>
      </trkpt>
      <trkpt lat="43.59832" lon="3.81136">
        <ele>48</ele>
        <time>2021-02-28T15:16:54Z</time>
      </trkpt>
      <trkpt lat="43.59838" lon="3.81145">
        <ele>48</ele>
        <time>2021-02-28T15:16:56Z</time>
      </trkpt>
      <trkpt lat="43.59841" lon="3.81151">
        <ele>48</ele>
        <time>2021-02-28T15:16:57Z</time>
      </trkpt>
      <trkpt lat="43.59844" lon="3.81157">
        <ele>46</ele>
        <time>2021-02-28T15:16:58Z</time>
      </trkpt>
      <trkpt lat="43.59847" lon="3.81162">
        <ele>46</ele>
        <time>2021-02-28T15:16:59Z</time>
      </trkpt>
      <trkpt lat="43.5985" lon="3.81168">
        <ele>46</ele>
        <time>2021-02-28T15:17:00Z</time>
      </trkpt>
      <trkpt lat="43.59854" lon="3.81174">
        <ele>46</ele>
        <time>2021-02-28T15:17:01Z</time>
      </trkpt>
      <trkpt lat="43.59857" lon="3.8118">
        <ele>46</ele>
        <time>2021-02-28T15:17:02Z</time>
      </trkpt>
      <trkpt lat="43.59861" lon="3.81185">
        <ele>46</ele>
        <time>2021-02-28T15:17:03Z</time>
      </trkpt>
      <trkpt lat="43.59866" lon="3.8119">
        <ele>46</ele>
        <time>2021-02-28T15:17:04Z</time>
      </trkpt>
      <trkpt lat="43.59874" lon="3.81199">
        <ele>46</ele>
        <time>2021-02-28T15:17:06Z</time>
      </trkpt>
      <trkpt lat="43.59883" lon="3.81208">
        <ele>43</ele>
        <time>2021-02-28T15:17:08Z</time>
      </trkpt>
      <trkpt lat="43.59887" lon="3.81213">
        <ele>43</ele>
        <time>2021-02-28T15:17:09Z</time>
      </trkpt>
      <trkpt lat="43.59892" lon="3.81217">
        <ele>43</ele>
        <time>2021-02-28T15:17:10Z</time>
      </trkpt>
      <trkpt lat="43.59903" lon="3.81225">
        <ele>43</ele>
        <time>2021-02-28T15:17:12Z</time>
      </trkpt>
      <trkpt lat="43.59908" lon="3.81229">
        <ele>43</ele>
        <time>2021-02-28T15:17:13Z</time>
      </trkpt>
      <trkpt lat="43.59913" lon="3.81234">
        <ele>43</ele>
        <time>2021-02-28T15:17:14Z</time>
      </trkpt>
      <trkpt lat="43.59918" lon="3.81238">
        <ele>43</ele>
        <time>2021-02-28T15:17:15Z</time>
      </trkpt>
      <trkpt lat="43.59924" lon="3.81242">
        <ele>43</ele>
        <time>2021-02-28T15:17:16Z</time>
      </trkpt>
      <trkpt lat="43.59929" lon="3.81246">
        <ele>43</ele>
        <time>2021-02-28T15:17:17Z</time>
      </trkpt>
      <trkpt lat="43.59935" lon="3.81251">
        <ele>40</ele>
        <time>2021-02-28T15:17:18Z</time>
      </trkpt>
      <trkpt lat="43.5994" lon="3.81256">
        <ele>40</ele>
        <time>2021-02-28T15:17:19Z</time>
      </trkpt>
      <trkpt lat="43.59946" lon="3.81261">
        <ele>40</ele>
        <time>2021-02-28T15:17:20Z</time>
      </trkpt>
      <trkpt lat="43.59952" lon="3.81267">
        <ele>40</ele>
        <time>2021-02-28T15:17:21Z</time>
      </trkpt>
      <trkpt lat="43.59958" lon="3.81273">
        <ele>40</ele>
        <time>2021-02-28T15:17:22Z</time>
      </trkpt>
      <trkpt lat="43.59964" lon="3.81279">
        <ele>40</ele>
        <time>2021-02-28T15:17:23Z</time>
      </trkpt>
      <trkpt lat="43.59975" lon="3.81294">
        <ele>40</ele>
        <time>2021-02-28T15:17:25Z</time>
      </trkpt>
      <trkpt lat="43.59981" lon="3.81301">
        <ele>40</ele>
        <time>2021-02-28T15:17:26Z</time>
      </trkpt>
      <trkpt lat="43.59987" lon="3.81308">
        <ele>40</ele>
        <time>2021-02-28T15:17:27Z</time>
      </trkpt>
      <trkpt lat="43.59992" lon="3.81316">
        <ele>38</ele>
        <time>2021-02-28T15:17:28Z</time>
      </trkpt>
      <trkpt lat="43.59998" lon="3.81323">
        <ele>38</ele>
        <time>2021-02-28T15:17:29Z</time>
      </trkpt>
      <trkpt lat="43.60002" lon="3.81331">
        <ele>38</ele>
        <time>2021-02-28T15:17:30Z</time>
      </trkpt>
      <trkpt lat="43.60007" lon="3.81338">
        <ele>38</ele>
        <time>2021-02-28T15:17:31Z</time>
      </trkpt>
      <trkpt lat="43.60012" lon="3.81345">
        <ele>38</ele>
        <time>2021-02-28T15:17:32Z</time>
      </trkpt>
      <trkpt lat="43.60016" lon="3.81352">
        <ele>38</ele>
        <time>2021-02-28T15:17:33Z</time>
      </trkpt>
      <trkpt lat="43.6002" lon="3.81358">
        <ele>38</ele>
        <time>2021-02-28T15:17:34Z</time>
      </trkpt>
      <trkpt lat="43.60023" lon="3.81364">
        <ele>38</ele>
        <time>2021-02-28T15:17:35Z</time>
      </trkpt>
      <trkpt lat="43.60026" lon="3.81369">
        <ele>38</ele>
        <time>2021-02-28T15:17:36Z</time>
      </trkpt>
      <trkpt lat="43.60029" lon="3.81371">
        <ele>38</ele>
        <time>2021-02-28T15:17:37Z</time>
      </trkpt>
      <trkpt lat="43.60032" lon="3.81371">
        <ele>35</ele>
        <time>2021-02-28T15:17:38Z</time>
      </trkpt>
      <trkpt lat="43.60035" lon="3.81373">
        <ele>35</ele>
        <time>2021-02-28T15:17:39Z</time>
      </trkpt>
      <trkpt lat="43.60035" lon="3.81376">
        <ele>35</ele>
        <time>2021-02-28T15:17:40Z</time>
      </trkpt>
      <trkpt lat="43.60035" lon="3.81379">
        <ele>35</ele>
        <time>2021-02-28T15:17:41Z</time>
      </trkpt>
      <trkpt lat="43.60034" lon="3.81382">
        <ele>35</ele>
        <time>2021-02-28T15:17:42Z</time>
      </trkpt>
      <trkpt lat="43.60034" lon="3.81386">
        <ele>35</ele>
        <time>2021-02-28T15:17:43Z</time>
      </trkpt>
      <trkpt lat="43.60034" lon="3.81391">
        <ele>35</ele>
        <time>2021-02-28T15:17:44Z</time>
      </trkpt>
      <trkpt lat="43.60033" lon="3.81397">
        <ele>35</ele>
        <time>2021-02-28T15:17:45Z</time>
      </trkpt>
      <trkpt lat="43.60032" lon="3.81402">
        <ele>35</ele>
        <time>2021-02-28T15:17:46Z</time>
      </trkpt>
      <trkpt lat="43.60031" lon="3.81408">
        <ele>35</ele>
        <time>2021-02-28T15:17:47Z</time>
      </trkpt>
      <trkpt lat="43.6003" lon="3.81414">
        <ele>33</ele>
        <time>2021-02-28T15:17:48Z</time>
      </trkpt>
      <trkpt lat="43.60028" lon="3.8142">
        <ele>33</ele>
        <time>2021-02-28T15:17:49Z</time>
      </trkpt>
      <trkpt lat="43.60026" lon="3.81426">
        <ele>33</ele>
        <time>2021-02-28T15:17:50Z</time>
      </trkpt>
      <trkpt lat="43.60024" lon="3.81432">
        <ele>33</ele>
        <time>2021-02-28T15:17:51Z</time>
      </trkpt>
      <trkpt lat="43.60022" lon="3.81437">
        <ele>33</ele>
        <time>2021-02-28T15:17:52Z</time>
      </trkpt>
      <trkpt lat="43.60021" lon="3.81443">
        <ele>33</ele>
        <time>2021-02-28T15:17:53Z</time>
      </trkpt>
      <trkpt lat="43.6002" lon="3.81449">
        <ele>33</ele>
        <time>2021-02-28T15:17:54Z</time>
      </trkpt>
      <trkpt lat="43.60018" lon="3.81455">
        <ele>33</ele>
        <time>2021-02-28T15:17:55Z</time>
      </trkpt>
      <trkpt lat="43.60016" lon="3.81461">
        <ele>33</ele>
        <time>2021-02-28T15:17:56Z</time>
      </trkpt>
      <trkpt lat="43.60013" lon="3.81466">
        <ele>33</ele>
        <time>2021-02-28T15:17:57Z</time>
      </trkpt>
      <trkpt lat="43.60011" lon="3.81471">
        <ele>31</ele>
        <time>2021-02-28T15:17:58Z</time>
      </trkpt>
      <trkpt lat="43.60009" lon="3.81477">
        <ele>31</ele>
        <time>2021-02-28T15:17:59Z</time>
      </trkpt>
      <trkpt lat="43.60007" lon="3.81482">
        <ele>31</ele>
        <time>2021-02-28T15:18:00Z</time>
      </trkpt>
      <trkpt lat="43.60007" lon="3.81487">
        <ele>31</ele>
        <time>2021-02-28T15:18:01Z</time>
      </trkpt>
      <trkpt lat="43.60007" lon="3.81491">
        <ele>31</ele>
        <time>2021-02-28T15:18:02Z</time>
      </trkpt>
      <trkpt lat="43.60009" lon="3.81495">
        <ele>31</ele>
        <time>2021-02-28T15:18:03Z</time>
      </trkpt>
      <trkpt lat="43.60012" lon="3.81498">
        <ele>31</ele>
        <time>2021-02-28T15:18:04Z</time>
      </trkpt>
      <trkpt lat="43.60015" lon="3.81501">
        <ele>31</ele>
        <time>2021-02-28T15:18:05Z</time>
      </trkpt>
      <trkpt lat="43.60018" lon="3.81503">
        <ele>31</ele>
        <time>2021-02-28T15:18:06Z</time>
      </trkpt>
      <trkpt lat="43.60022" lon="3.81505">
        <ele>31</ele>
        <time>2021-02-28T15:18:07Z</time>
      </trkpt>
      <trkpt lat="43.60026" lon="3.81505">
        <ele>30</ele>
        <time>2021-02-28T15:18:08Z</time>
      </trkpt>
      <trkpt lat="43.6003" lon="3.81505">
        <ele>30</ele>
        <time>2021-02-28T15:18:09Z</time>
      </trkpt>
      <trkpt lat="43.60035" lon="3.81505">
        <ele>30</ele>
        <time>2021-02-28T15:18:10Z</time>
      </trkpt>
      <trkpt lat="43.60039" lon="3.81504">
        <ele>30</ele>
        <time>2021-02-28T15:18:12Z</time>
      </trkpt>
      <trkpt lat="43.60049" lon="3.81503">
        <ele>30</ele>
        <time>2021-02-28T15:18:13Z</time>
      </trkpt>
      <trkpt lat="43.60053" lon="3.81502">
        <ele>30</ele>
        <time>2021-02-28T15:18:14Z</time>
      </trkpt>
      <trkpt lat="43.60058" lon="3.81501">
        <ele>30</ele>
        <time>2021-02-28T15:18:15Z</time>
      </trkpt>
      <trkpt lat="43.60062" lon="3.81501">
        <ele>30</ele>
        <time>2021-02-28T15:18:16Z</time>
      </trkpt>
      <trkpt lat="43.60067" lon="3.815">
        <ele>30</ele>
        <time>2021-02-28T15:18:17Z</time>
      </trkpt>
      <trkpt lat="43.60071" lon="3.815">
        <ele>31</ele>
        <time>2021-02-28T15:18:18Z</time>
      </trkpt>
      <trkpt lat="43.60075" lon="3.815">
        <ele>31</ele>
        <time>2021-02-28T15:18:19Z</time>
      </trkpt>
      <trkpt lat="43.6008" lon="3.815">
        <ele>31</ele>
        <time>2021-02-28T15:18:20Z</time>
      </trkpt>
      <trkpt lat="43.60084" lon="3.815">
        <ele>31</ele>
        <time>2021-02-28T15:18:21Z</time>
      </trkpt>
      <trkpt lat="43.60088" lon="3.815">
        <ele>31</ele>
        <time>2021-02-28T15:18:23Z</time>
      </trkpt>
      <trkpt lat="43.60097" lon="3.81501">
        <ele>31</ele>
        <time>2021-02-28T15:18:24Z</time>
      </trkpt>
      <trkpt lat="43.60101" lon="3.81501">
        <ele>31</ele>
        <time>2021-02-28T15:18:25Z</time>
      </trkpt>
      <trkpt lat="43.60105" lon="3.81502">
        <ele>31</ele>
        <time>2021-02-28T15:18:26Z</time>
      </trkpt>
      <trkpt lat="43.60109" lon="3.81502">
        <ele>31</ele>
        <time>2021-02-28T15:18:27Z</time>
      </trkpt>
      <trkpt lat="43.60114" lon="3.81503">
        <ele>30</ele>
        <time>2021-02-28T15:18:28Z</time>
      </trkpt>
      <trkpt lat="43.60118" lon="3.81504">
        <ele>30</ele>
        <time>2021-02-28T15:18:29Z</time>
      </trkpt>
      <trkpt lat="43.60122" lon="3.81504">
        <ele>30</ele>
        <time>2021-02-28T15:18:30Z</time>
      </trkpt>
      <trkpt lat="43.60126" lon="3.81504">
        <ele>30</ele>
        <time>2021-02-28T15:18:31Z</time>
      </trkpt>
      <trkpt lat="43.6013" lon="3.81505">
        <ele>30</ele>
        <time>2021-02-28T15:18:32Z</time>
      </trkpt>
      <trkpt lat="43.60134" lon="3.81505">
        <ele>30</ele>
        <time>2021-02-28T15:18:33Z</time>
      </trkpt>
      <trkpt lat="43.60138" lon="3.81504">
        <ele>30</ele>
        <time>2021-02-28T15:18:34Z</time>
      </trkpt>
      <trkpt lat="43.60143" lon="3.81503">
        <ele>30</ele>
        <time>2021-02-28T15:18:35Z</time>
      </trkpt>
      <trkpt lat="43.60147" lon="3.81503">
        <ele>30</ele>
        <time>2021-02-28T15:18:36Z</time>
      </trkpt>
      <trkpt lat="43.60151" lon="3.81502">
        <ele>30</ele>
        <time>2021-02-28T15:18:37Z</time>
      </trkpt>
      <trkpt lat="43.60156" lon="3.81501">
        <ele>31</ele>
        <time>2021-02-28T15:18:38Z</time>
      </trkpt>
      <trkpt lat="43.6016" lon="3.81501">
        <ele>31</ele>
        <time>2021-02-28T15:18:39Z</time>
      </trkpt>
      <trkpt lat="43.60164" lon="3.815">
        <ele>31</ele>
        <time>2021-02-28T15:18:40Z</time>
      </trkpt>
      <trkpt lat="43.60168" lon="3.81499">
        <ele>31</ele>
        <time>2021-02-28T15:18:41Z</time>
      </trkpt>
      <trkpt lat="43.60172" lon="3.81499">
        <ele>31</ele>
        <time>2021-02-28T15:18:42Z</time>
      </trkpt>
      <trkpt lat="43.60176" lon="3.81498">
        <ele>31</ele>
        <time>2021-02-28T15:18:43Z</time>
      </trkpt>
      <trkpt lat="43.6018" lon="3.81498">
        <ele>31</ele>
        <time>2021-02-28T15:18:44Z</time>
      </trkpt>
      <trkpt lat="43.60184" lon="3.81497">
        <ele>31</ele>
        <time>2021-02-28T15:18:45Z</time>
      </trkpt>
      <trkpt lat="43.60188" lon="3.81496">
        <ele>31</ele>
        <time>2021-02-28T15:18:46Z</time>
      </trkpt>
      <trkpt lat="43.60192" lon="3.81495">
        <ele>31</ele>
        <time>2021-02-28T15:18:47Z</time>
      </trkpt>
      <trkpt lat="43.60199" lon="3.81492">
        <ele>31</ele>
        <time>2021-02-28T15:18:49Z</time>
      </trkpt>
      <trkpt lat="43.60201" lon="3.8149">
        <ele>31</ele>
        <time>2021-02-28T15:18:50Z</time>
      </trkpt>
      <trkpt lat="43.60204" lon="3.81487">
        <ele>31</ele>
        <time>2021-02-28T15:18:51Z</time>
      </trkpt>
      <trkpt lat="43.60207" lon="3.81484">
        <ele>31</ele>
        <time>2021-02-28T15:18:52Z</time>
      </trkpt>
      <trkpt lat="43.6021" lon="3.81483">
        <ele>31</ele>
        <time>2021-02-28T15:18:53Z</time>
      </trkpt>
      <trkpt lat="43.60213" lon="3.81482">
        <ele>31</ele>
        <time>2021-02-28T15:18:54Z</time>
      </trkpt>
      <trkpt lat="43.60217" lon="3.81482">
        <ele>31</ele>
        <time>2021-02-28T15:18:55Z</time>
      </trkpt>
      <trkpt lat="43.6022" lon="3.81483">
        <ele>31</ele>
        <time>2021-02-28T15:18:56Z</time>
      </trkpt>
      <trkpt lat="43.60224" lon="3.81484">
        <ele>31</ele>
        <time>2021-02-28T15:18:57Z</time>
      </trkpt>
      <trkpt lat="43.60228" lon="3.81485">
        <ele>32</ele>
        <time>2021-02-28T15:18:58Z</time>
      </trkpt>
      <trkpt lat="43.60231" lon="3.81488">
        <ele>32</ele>
        <time>2021-02-28T15:18:59Z</time>
      </trkpt>
      <trkpt lat="43.60234" lon="3.8149">
        <ele>32</ele>
        <time>2021-02-28T15:19:00Z</time>
      </trkpt>
      <trkpt lat="43.60237" lon="3.81493">
        <ele>32</ele>
        <time>2021-02-28T15:19:01Z</time>
      </trkpt>
      <trkpt lat="43.60244" lon="3.81497">
        <ele>32</ele>
        <time>2021-02-28T15:19:03Z</time>
      </trkpt>
      <trkpt lat="43.60247" lon="3.81498">
        <ele>32</ele>
        <time>2021-02-28T15:19:04Z</time>
      </trkpt>
      <trkpt lat="43.60254" lon="3.81502">
        <ele>32</ele>
        <time>2021-02-28T15:19:06Z</time>
      </trkpt>
      <trkpt lat="43.60257" lon="3.81504">
        <ele>32</ele>
        <time>2021-02-28T15:19:07Z</time>
      </trkpt>
      <trkpt lat="43.6026" lon="3.81506">
        <ele>32</ele>
        <time>2021-02-28T15:19:08Z</time>
      </trkpt>
      <trkpt lat="43.60264" lon="3.81509">
        <ele>32</ele>
        <time>2021-02-28T15:19:09Z</time>
      </trkpt>
      <trkpt lat="43.60268" lon="3.81511">
        <ele>32</ele>
        <time>2021-02-28T15:19:10Z</time>
      </trkpt>
      <trkpt lat="43.60271" lon="3.81513">
        <ele>32</ele>
        <time>2021-02-28T15:19:11Z</time>
      </trkpt>
      <trkpt lat="43.6028" lon="3.81516">
        <ele>32</ele>
        <time>2021-02-28T15:19:13Z</time>
      </trkpt>
      <trkpt lat="43.60284" lon="3.81518">
        <ele>32</ele>
        <time>2021-02-28T15:19:14Z</time>
      </trkpt>
      <trkpt lat="43.60292" lon="3.81521">
        <ele>32</ele>
        <time>2021-02-28T15:19:16Z</time>
      </trkpt>
      <trkpt lat="43.60294" lon="3.81525">
        <ele>32</ele>
        <time>2021-02-28T15:19:17Z</time>
      </trkpt>
      <trkpt lat="43.60293" lon="3.8153">
        <ele>31</ele>
        <time>2021-02-28T15:19:18Z</time>
      </trkpt>
      <trkpt lat="43.60291" lon="3.81533">
        <ele>31</ele>
        <time>2021-02-28T15:19:20Z</time>
      </trkpt>
      <trkpt lat="43.60288" lon="3.81535">
        <ele>31</ele>
        <time>2021-02-28T15:19:21Z</time>
      </trkpt>
      <trkpt lat="43.60284" lon="3.81538">
        <ele>31</ele>
        <time>2021-02-28T15:19:22Z</time>
      </trkpt>
      <trkpt lat="43.60277" lon="3.81545">
        <ele>31</ele>
        <time>2021-02-28T15:19:23Z</time>
      </trkpt>
      <trkpt lat="43.60275" lon="3.81551">
        <ele>31</ele>
        <time>2021-02-28T15:19:24Z</time>
      </trkpt>
      <trkpt lat="43.60273" lon="3.81556">
        <ele>31</ele>
        <time>2021-02-28T15:19:25Z</time>
      </trkpt>
      <trkpt lat="43.60272" lon="3.81563">
        <ele>31</ele>
        <time>2021-02-28T15:19:26Z</time>
      </trkpt>
      <trkpt lat="43.6027" lon="3.81569">
        <ele>31</ele>
        <time>2021-02-28T15:19:27Z</time>
      </trkpt>
      <trkpt lat="43.60269" lon="3.81575">
        <ele>30</ele>
        <time>2021-02-28T15:19:28Z</time>
      </trkpt>
      <trkpt lat="43.60268" lon="3.8158">
        <ele>30</ele>
        <time>2021-02-28T15:19:29Z</time>
      </trkpt>
      <trkpt lat="43.60266" lon="3.81585">
        <ele>30</ele>
        <time>2021-02-28T15:19:30Z</time>
      </trkpt>
      <trkpt lat="43.60265" lon="3.8159">
        <ele>30</ele>
        <time>2021-02-28T15:19:31Z</time>
      </trkpt>
      <trkpt lat="43.60264" lon="3.81594">
        <ele>30</ele>
        <time>2021-02-28T15:19:32Z</time>
      </trkpt>
      <trkpt lat="43.60264" lon="3.81599">
        <ele>30</ele>
        <time>2021-02-28T15:19:33Z</time>
      </trkpt>
      <trkpt lat="43.60263" lon="3.81604">
        <ele>30</ele>
        <time>2021-02-28T15:19:34Z</time>
      </trkpt>
      <trkpt lat="43.60264" lon="3.81611">
        <ele>30</ele>
        <time>2021-02-28T15:19:36Z</time>
      </trkpt>
      <trkpt lat="43.60265" lon="3.81613">
        <ele>30</ele>
        <time>2021-02-28T15:19:37Z</time>
      </trkpt>
      <trkpt lat="43.60267" lon="3.81616">
        <ele>31</ele>
        <time>2021-02-28T15:19:38Z</time>
      </trkpt>
      <trkpt lat="43.60269" lon="3.81619">
        <ele>31</ele>
        <time>2021-02-28T15:19:39Z</time>
      </trkpt>
      <trkpt lat="43.60273" lon="3.81621">
        <ele>31</ele>
        <time>2021-02-28T15:19:40Z</time>
      </trkpt>
      <trkpt lat="43.60276" lon="3.81623">
        <ele>31</ele>
        <time>2021-02-28T15:19:41Z</time>
      </trkpt>
      <trkpt lat="43.60279" lon="3.81625">
        <ele>31</ele>
        <time>2021-02-28T15:19:42Z</time>
      </trkpt>
      <trkpt lat="43.60282" lon="3.81626">
        <ele>31</ele>
        <time>2021-02-28T15:19:43Z</time>
      </trkpt>
      <trkpt lat="43.60285" lon="3.81626">
        <ele>31</ele>
        <time>2021-02-28T15:19:44Z</time>
      </trkpt>
      <trkpt lat="43.6029" lon="3.81628">
        <ele>31</ele>
        <time>2021-02-28T15:19:46Z</time>
      </trkpt>
      <trkpt lat="43.60303" lon="3.81636">
        <ele>31</ele>
        <time>2021-02-28T15:19:49Z</time>
      </trkpt>
      <trkpt lat="43.60307" lon="3.81639">
        <ele>31</ele>
        <time>2021-02-28T15:19:50Z</time>
      </trkpt>
      <trkpt lat="43.60311" lon="3.81644">
        <ele>31</ele>
        <time>2021-02-28T15:19:51Z</time>
      </trkpt>
      <trkpt lat="43.60314" lon="3.81648">
        <ele>31</ele>
        <time>2021-02-28T15:19:52Z</time>
      </trkpt>
      <trkpt lat="43.60316" lon="3.81653">
        <ele>31</ele>
        <time>2021-02-28T15:19:53Z</time>
      </trkpt>
      <trkpt lat="43.60318" lon="3.81657">
        <ele>31</ele>
        <time>2021-02-28T15:19:54Z</time>
      </trkpt>
      <trkpt lat="43.60319" lon="3.81675">
        <ele>31</ele>
        <time>2021-02-28T15:19:57Z</time>
      </trkpt>
      <trkpt lat="43.6032" lon="3.81681">
        <ele>32</ele>
        <time>2021-02-28T15:19:58Z</time>
      </trkpt>
      <trkpt lat="43.6032" lon="3.81687">
        <ele>32</ele>
        <time>2021-02-28T15:19:59Z</time>
      </trkpt>
      <trkpt lat="43.6032" lon="3.81699">
        <ele>32</ele>
        <time>2021-02-28T15:20:01Z</time>
      </trkpt>
      <trkpt lat="43.60319" lon="3.81704">
        <ele>32</ele>
        <time>2021-02-28T15:20:02Z</time>
      </trkpt>
      <trkpt lat="43.6032" lon="3.8171">
        <ele>32</ele>
        <time>2021-02-28T15:20:03Z</time>
      </trkpt>
      <trkpt lat="43.60321" lon="3.81715">
        <ele>32</ele>
        <time>2021-02-28T15:20:04Z</time>
      </trkpt>
      <trkpt lat="43.6032" lon="3.81727">
        <ele>32</ele>
        <time>2021-02-28T15:20:06Z</time>
      </trkpt>
      <trkpt lat="43.6032" lon="3.81732">
        <ele>32</ele>
        <time>2021-02-28T15:20:07Z</time>
      </trkpt>
      <trkpt lat="43.6032" lon="3.81738">
        <ele>31</ele>
        <time>2021-02-28T15:20:08Z</time>
      </trkpt>
      <trkpt lat="43.60322" lon="3.81748">
        <ele>31</ele>
        <time>2021-02-28T15:20:10Z</time>
      </trkpt>
      <trkpt lat="43.60323" lon="3.81753">
        <ele>31</ele>
        <time>2021-02-28T15:20:11Z</time>
      </trkpt>
      <trkpt lat="43.60325" lon="3.81758">
        <ele>31</ele>
        <time>2021-02-28T15:20:12Z</time>
      </trkpt>
      <trkpt lat="43.60327" lon="3.81762">
        <ele>31</ele>
        <time>2021-02-28T15:20:13Z</time>
      </trkpt>
      <trkpt lat="43.6033" lon="3.81765">
        <ele>31</ele>
        <time>2021-02-28T15:20:14Z</time>
      </trkpt>
      <trkpt lat="43.60332" lon="3.81768">
        <ele>31</ele>
        <time>2021-02-28T15:20:15Z</time>
      </trkpt>
      <trkpt lat="43.60335" lon="3.81772">
        <ele>31</ele>
        <time>2021-02-28T15:20:16Z</time>
      </trkpt>
      <trkpt lat="43.6034" lon="3.8178">
        <ele>31</ele>
        <time>2021-02-28T15:20:18Z</time>
      </trkpt>
      <trkpt lat="43.60346" lon="3.81786">
        <ele>31</ele>
        <time>2021-02-28T15:20:20Z</time>
      </trkpt>
      <trkpt lat="43.60349" lon="3.81789">
        <ele>31</ele>
        <time>2021-02-28T15:20:21Z</time>
      </trkpt>
      <trkpt lat="43.60352" lon="3.81793">
        <ele>31</ele>
        <time>2021-02-28T15:20:23Z</time>
      </trkpt>
      <trkpt lat="43.60355" lon="3.81796">
        <ele>31</ele>
        <time>2021-02-28T15:20:24Z</time>
      </trkpt>
      <trkpt lat="43.60358" lon="3.81799">
        <ele>31</ele>
        <time>2021-02-28T15:20:25Z</time>
      </trkpt>
      <trkpt lat="43.60365" lon="3.81806">
        <ele>31</ele>
        <time>2021-02-28T15:20:26Z</time>
      </trkpt>
      <trkpt lat="43.60368" lon="3.8181">
        <ele>31</ele>
        <time>2021-02-28T15:20:27Z</time>
      </trkpt>
      <trkpt lat="43.60371" lon="3.81813">
        <ele>31</ele>
        <time>2021-02-28T15:20:28Z</time>
      </trkpt>
      <trkpt lat="43.60374" lon="3.81816">
        <ele>31</ele>
        <time>2021-02-28T15:20:29Z</time>
      </trkpt>
      <trkpt lat="43.60378" lon="3.81818">
        <ele>31</ele>
        <time>2021-02-28T15:20:30Z</time>
      </trkpt>
      <trkpt lat="43.60381" lon="3.8182">
        <ele>31</ele>
        <time>2021-02-28T15:20:31Z</time>
      </trkpt>
      <trkpt lat="43.60385" lon="3.81821">
        <ele>31</ele>
        <time>2021-02-28T15:20:32Z</time>
      </trkpt>
      <trkpt lat="43.60389" lon="3.81823">
        <ele>31</ele>
        <time>2021-02-28T15:20:33Z</time>
      </trkpt>
      <trkpt lat="43.60393" lon="3.81824">
        <ele>31</ele>
        <time>2021-02-28T15:20:34Z</time>
      </trkpt>
      <trkpt lat="43.60397" lon="3.81825">
        <ele>31</ele>
        <time>2021-02-28T15:20:35Z</time>
      </trkpt>
      <trkpt lat="43.60402" lon="3.81826">
        <ele>31</ele>
        <time>2021-02-28T15:20:36Z</time>
      </trkpt>
      <trkpt lat="43.60406" lon="3.81827">
        <ele>31</ele>
        <time>2021-02-28T15:20:37Z</time>
      </trkpt>
      <trkpt lat="43.6041" lon="3.81828">
        <ele>30</ele>
        <time>2021-02-28T15:20:38Z</time>
      </trkpt>
      <trkpt lat="43.60415" lon="3.81829">
        <ele>30</ele>
        <time>2021-02-28T15:20:39Z</time>
      </trkpt>
      <trkpt lat="43.60419" lon="3.8183">
        <ele>30</ele>
        <time>2021-02-28T15:20:40Z</time>
      </trkpt>
      <trkpt lat="43.60423" lon="3.81831">
        <ele>30</ele>
        <time>2021-02-28T15:20:41Z</time>
      </trkpt>
      <trkpt lat="43.60431" lon="3.81833">
        <ele>30</ele>
        <time>2021-02-28T15:20:43Z</time>
      </trkpt>
      <trkpt lat="43.60435" lon="3.81834">
        <ele>30</ele>
        <time>2021-02-28T15:20:44Z</time>
      </trkpt>
      <trkpt lat="43.60439" lon="3.81835">
        <ele>30</ele>
        <time>2021-02-28T15:20:45Z</time>
      </trkpt>
      <trkpt lat="43.60447" lon="3.81839">
        <ele>30</ele>
        <time>2021-02-28T15:20:47Z</time>
      </trkpt>
      <trkpt lat="43.60451" lon="3.81841">
        <ele>31</ele>
        <time>2021-02-28T15:20:48Z</time>
      </trkpt>
      <trkpt lat="43.60458" lon="3.81843">
        <ele>31</ele>
        <time>2021-02-28T15:20:50Z</time>
      </trkpt>
      <trkpt lat="43.60462" lon="3.81845">
        <ele>31</ele>
        <time>2021-02-28T15:20:51Z</time>
      </trkpt>
      <trkpt lat="43.60466" lon="3.81846">
        <ele>31</ele>
        <time>2021-02-28T15:20:52Z</time>
      </trkpt>
      <trkpt lat="43.6047" lon="3.81848">
        <ele>31</ele>
        <time>2021-02-28T15:20:53Z</time>
      </trkpt>
      <trkpt lat="43.60475" lon="3.81849">
        <ele>31</ele>
        <time>2021-02-28T15:20:54Z</time>
      </trkpt>
      <trkpt lat="43.60479" lon="3.8185">
        <ele>31</ele>
        <time>2021-02-28T15:20:55Z</time>
      </trkpt>
      <trkpt lat="43.60483" lon="3.81851">
        <ele>31</ele>
        <time>2021-02-28T15:20:56Z</time>
      </trkpt>
      <trkpt lat="43.60487" lon="3.81853">
        <ele>31</ele>
        <time>2021-02-28T15:20:57Z</time>
      </trkpt>
      <trkpt lat="43.60492" lon="3.81854">
        <ele>31</ele>
        <time>2021-02-28T15:20:58Z</time>
      </trkpt>
      <trkpt lat="43.60496" lon="3.81856">
        <ele>31</ele>
        <time>2021-02-28T15:20:59Z</time>
      </trkpt>
      <trkpt lat="43.60499" lon="3.81857">
        <ele>31</ele>
        <time>2021-02-28T15:21:00Z</time>
      </trkpt>
      <trkpt lat="43.60503" lon="3.8186">
        <ele>31</ele>
        <time>2021-02-28T15:21:01Z</time>
      </trkpt>
      <trkpt lat="43.60507" lon="3.81863">
        <ele>31</ele>
        <time>2021-02-28T15:21:02Z</time>
      </trkpt>
      <trkpt lat="43.6051" lon="3.81865">
        <ele>31</ele>
        <time>2021-02-28T15:21:03Z</time>
      </trkpt>
      <trkpt lat="43.60514" lon="3.81869">
        <ele>31</ele>
        <time>2021-02-28T15:21:04Z</time>
      </trkpt>
      <trkpt lat="43.60517" lon="3.81873">
        <ele>31</ele>
        <time>2021-02-28T15:21:05Z</time>
      </trkpt>
      <trkpt lat="43.6052" lon="3.81876">
        <ele>31</ele>
        <time>2021-02-28T15:21:06Z</time>
      </trkpt>
      <trkpt lat="43.60523" lon="3.8188">
        <ele>31</ele>
        <time>2021-02-28T15:21:08Z</time>
      </trkpt>
      <trkpt lat="43.60529" lon="3.81885">
        <ele>31</ele>
        <time>2021-02-28T15:21:09Z</time>
      </trkpt>
      <trkpt lat="43.60532" lon="3.81888">
        <ele>31</ele>
        <time>2021-02-28T15:21:10Z</time>
      </trkpt>
      <trkpt lat="43.60536" lon="3.81891">
        <ele>31</ele>
        <time>2021-02-28T15:21:11Z</time>
      </trkpt>
      <trkpt lat="43.60539" lon="3.81895">
        <ele>31</ele>
        <time>2021-02-28T15:21:12Z</time>
      </trkpt>
      <trkpt lat="43.60543" lon="3.81899">
        <ele>31</ele>
        <time>2021-02-28T15:21:13Z</time>
      </trkpt>
      <trkpt lat="43.60546" lon="3.81903">
        <ele>31</ele>
        <time>2021-02-28T15:21:14Z</time>
      </trkpt>
      <trkpt lat="43.6055" lon="3.81907">
        <ele>31</ele>
        <time>2021-02-28T15:21:15Z</time>
      </trkpt>
      <trkpt lat="43.60553" lon="3.81911">
        <ele>31</ele>
        <time>2021-02-28T15:21:16Z</time>
      </trkpt>
      <trkpt lat="43.60556" lon="3.81915">
        <ele>31</ele>
        <time>2021-02-28T15:21:17Z</time>
      </trkpt>
      <trkpt lat="43.60559" lon="3.81919">
        <ele>31</ele>
        <time>2021-02-28T15:21:18Z</time>
      </trkpt>
      <trkpt lat="43.60562" lon="3.81922">
        <ele>31</ele>
        <time>2021-02-28T15:21:19Z</time>
      </trkpt>
      <trkpt lat="43.60566" lon="3.81925">
        <ele>31</ele>
        <time>2021-02-28T15:21:20Z</time>
      </trkpt>
      <trkpt lat="43.60569" lon="3.81928">
        <ele>31</ele>
        <time>2021-02-28T15:21:21Z</time>
      </trkpt>
      <trkpt lat="43.60573" lon="3.8193">
        <ele>31</ele>
        <time>2021-02-28T15:21:22Z</time>
      </trkpt>
      <trkpt lat="43.60577" lon="3.81932">
        <ele>31</ele>
        <time>2021-02-28T15:21:23Z</time>
      </trkpt>
      <trkpt lat="43.6058" lon="3.81932">
        <ele>31</ele>
        <time>2021-02-28T15:21:24Z</time>
      </trkpt>
      <trkpt lat="43.60584" lon="3.81932">
        <ele>31</ele>
        <time>2021-02-28T15:21:25Z</time>
      </trkpt>
      <trkpt lat="43.60588" lon="3.8193">
        <ele>31</ele>
        <time>2021-02-28T15:21:26Z</time>
      </trkpt>
      <trkpt lat="43.60592" lon="3.81927">
        <ele>31</ele>
        <time>2021-02-28T15:21:27Z</time>
      </trkpt>
      <trkpt lat="43.60597" lon="3.81919">
        <ele>31</ele>
        <time>2021-02-28T15:21:29Z</time>
      </trkpt>
      <trkpt lat="43.606" lon="3.81914">
        <ele>31</ele>
        <time>2021-02-28T15:21:30Z</time>
      </trkpt>
      <trkpt lat="43.60602" lon="3.81909">
        <ele>31</ele>
        <time>2021-02-28T15:21:31Z</time>
      </trkpt>
      <trkpt lat="43.60607" lon="3.81899">
        <ele>31</ele>
        <time>2021-02-28T15:21:33Z</time>
      </trkpt>
      <trkpt lat="43.60609" lon="3.81894">
        <ele>31</ele>
        <time>2021-02-28T15:21:34Z</time>
      </trkpt>
      <trkpt lat="43.60612" lon="3.8189">
        <ele>31</ele>
        <time>2021-02-28T15:21:35Z</time>
      </trkpt>
      <trkpt lat="43.60614" lon="3.81886">
        <ele>31</ele>
        <time>2021-02-28T15:21:36Z</time>
      </trkpt>
      <trkpt lat="43.60616" lon="3.81881">
        <ele>31</ele>
        <time>2021-02-28T15:21:37Z</time>
      </trkpt>
      <trkpt lat="43.60618" lon="3.81877">
        <ele>31</ele>
        <time>2021-02-28T15:21:38Z</time>
      </trkpt>
      <trkpt lat="43.6062" lon="3.81873">
        <ele>31</ele>
        <time>2021-02-28T15:21:39Z</time>
      </trkpt>
      <trkpt lat="43.60621" lon="3.81868">
        <ele>31</ele>
        <time>2021-02-28T15:21:40Z</time>
      </trkpt>
      <trkpt lat="43.60623" lon="3.81864">
        <ele>31</ele>
        <time>2021-02-28T15:21:41Z</time>
      </trkpt>
      <trkpt lat="43.60624" lon="3.8186">
        <ele>31</ele>
        <time>2021-02-28T15:21:42Z</time>
      </trkpt>
      <trkpt lat="43.60626" lon="3.81856">
        <ele>31</ele>
        <time>2021-02-28T15:21:43Z</time>
      </trkpt>
      <trkpt lat="43.60629" lon="3.81853">
        <ele>31</ele>
        <time>2021-02-28T15:21:44Z</time>
      </trkpt>
      <trkpt lat="43.60633" lon="3.81851">
        <ele>31</ele>
        <time>2021-02-28T15:21:45Z</time>
      </trkpt>
      <trkpt lat="43.60638" lon="3.81849">
        <ele>31</ele>
        <time>2021-02-28T15:21:47Z</time>
      </trkpt>
      <trkpt lat="43.6064" lon="3.81848">
        <ele>32</ele>
        <time>2021-02-28T15:21:48Z</time>
      </trkpt>
      <trkpt lat="43.60642" lon="3.81848">
        <ele>32</ele>
        <time>2021-02-28T15:21:49Z</time>
      </trkpt>
      <trkpt lat="43.60645" lon="3.81847">
        <ele>32</ele>
        <time>2021-02-28T15:21:50Z</time>
      </trkpt>
      <trkpt lat="43.60647" lon="3.81845">
        <ele>32</ele>
        <time>2021-02-28T15:21:51Z</time>
      </trkpt>
      <trkpt lat="43.60648" lon="3.81843">
        <ele>32</ele>
        <time>2021-02-28T15:21:52Z</time>
      </trkpt>
      <trkpt lat="43.60672" lon="3.81808">
        <ele>32</ele>
        <time>2021-02-28T15:22:05Z</time>
      </trkpt>
      <trkpt lat="43.60678" lon="3.81798">
        <ele>32</ele>
        <time>2021-02-28T15:22:07Z</time>
      </trkpt>
      <trkpt lat="43.60686" lon="3.8179">
        <ele>32</ele>
        <time>2021-02-28T15:22:09Z</time>
      </trkpt>
      <trkpt lat="43.60695" lon="3.81796">
        <ele>32</ele>
        <time>2021-02-28T15:22:13Z</time>
      </trkpt>
      <trkpt lat="43.60696" lon="3.81798">
        <ele>32</ele>
        <time>2021-02-28T15:22:14Z</time>
      </trkpt>
      <trkpt lat="43.60697" lon="3.81801">
        <ele>32</ele>
        <time>2021-02-28T15:22:15Z</time>
      </trkpt>
      <trkpt lat="43.60701" lon="3.81806">
        <ele>32</ele>
        <time>2021-02-28T15:22:17Z</time>
      </trkpt>
      <trkpt lat="43.60702" lon="3.8181">
        <ele>36</ele>
        <time>2021-02-28T15:22:18Z</time>
      </trkpt>
      <trkpt lat="43.60704" lon="3.81813">
        <ele>36</ele>
        <time>2021-02-28T15:22:19Z</time>
      </trkpt>
      <trkpt lat="43.60708" lon="3.81819">
        <ele>36</ele>
        <time>2021-02-28T15:22:21Z</time>
      </trkpt>
      <trkpt lat="43.6071" lon="3.81822">
        <ele>36</ele>
        <time>2021-02-28T15:22:22Z</time>
      </trkpt>
      <trkpt lat="43.60712" lon="3.81826">
        <ele>36</ele>
        <time>2021-02-28T15:22:23Z</time>
      </trkpt>
      <trkpt lat="43.60713" lon="3.81829">
        <ele>36</ele>
        <time>2021-02-28T15:22:24Z</time>
      </trkpt>
      <trkpt lat="43.60715" lon="3.81832">
        <ele>36</ele>
        <time>2021-02-28T15:22:25Z</time>
      </trkpt>
      <trkpt lat="43.60717" lon="3.81836">
        <ele>36</ele>
        <time>2021-02-28T15:22:26Z</time>
      </trkpt>
      <trkpt lat="43.60719" lon="3.81839">
        <ele>36</ele>
        <time>2021-02-28T15:22:27Z</time>
      </trkpt>
      <trkpt lat="43.60722" lon="3.81843">
        <ele>33</ele>
        <time>2021-02-28T15:22:28Z</time>
      </trkpt>
      <trkpt lat="43.60727" lon="3.8185">
        <ele>33</ele>
        <time>2021-02-28T15:22:30Z</time>
      </trkpt>
      <trkpt lat="43.60729" lon="3.81854">
        <ele>33</ele>
        <time>2021-02-28T15:22:31Z</time>
      </trkpt>
      <trkpt lat="43.6073" lon="3.81858">
        <ele>33</ele>
        <time>2021-02-28T15:22:32Z</time>
      </trkpt>
      <trkpt lat="43.60732" lon="3.81863">
        <ele>33</ele>
        <time>2021-02-28T15:22:33Z</time>
      </trkpt>
      <trkpt lat="43.60735" lon="3.81866">
        <ele>33</ele>
        <time>2021-02-28T15:22:34Z</time>
      </trkpt>
      <trkpt lat="43.60737" lon="3.8187">
        <ele>33</ele>
        <time>2021-02-28T15:22:35Z</time>
      </trkpt>
      <trkpt lat="43.60742" lon="3.81878">
        <ele>33</ele>
        <time>2021-02-28T15:22:37Z</time>
      </trkpt>
      <trkpt lat="43.60744" lon="3.81882">
        <ele>32</ele>
        <time>2021-02-28T15:22:38Z</time>
      </trkpt>
      <trkpt lat="43.60747" lon="3.81886">
        <ele>32</ele>
        <time>2021-02-28T15:22:39Z</time>
      </trkpt>
      <trkpt lat="43.60749" lon="3.8189">
        <ele>32</ele>
        <time>2021-02-28T15:22:40Z</time>
      </trkpt>
      <trkpt lat="43.60752" lon="3.81894">
        <ele>32</ele>
        <time>2021-02-28T15:22:41Z</time>
      </trkpt>
      <trkpt lat="43.60755" lon="3.81897">
        <ele>32</ele>
        <time>2021-02-28T15:22:42Z</time>
      </trkpt>
      <trkpt lat="43.60758" lon="3.819">
        <ele>32</ele>
        <time>2021-02-28T15:22:43Z</time>
      </trkpt>
      <trkpt lat="43.60761" lon="3.81903">
        <ele>32</ele>
        <time>2021-02-28T15:22:44Z</time>
      </trkpt>
      <trkpt lat="43.60764" lon="3.81906">
        <ele>32</ele>
        <time>2021-02-28T15:22:45Z</time>
      </trkpt>
      <trkpt lat="43.60767" lon="3.81909">
        <ele>32</ele>
        <time>2021-02-28T15:22:46Z</time>
      </trkpt>
      <trkpt lat="43.6077" lon="3.81912">
        <ele>32</ele>
        <time>2021-02-28T15:22:47Z</time>
      </trkpt>
      <trkpt lat="43.60772" lon="3.81914">
        <ele>32</ele>
        <time>2021-02-28T15:22:48Z</time>
      </trkpt>
      <trkpt lat="43.60775" lon="3.81917">
        <ele>32</ele>
        <time>2021-02-28T15:22:49Z</time>
      </trkpt>
      <trkpt lat="43.60778" lon="3.81919">
        <ele>32</ele>
        <time>2021-02-28T15:22:50Z</time>
      </trkpt>
      <trkpt lat="43.60784" lon="3.81923">
        <ele>32</ele>
        <time>2021-02-28T15:22:52Z</time>
      </trkpt>
      <trkpt lat="43.60789" lon="3.81926">
        <ele>32</ele>
        <time>2021-02-28T15:22:54Z</time>
      </trkpt>
      <trkpt lat="43.60792" lon="3.81928">
        <ele>32</ele>
        <time>2021-02-28T15:22:55Z</time>
      </trkpt>
      <trkpt lat="43.60797" lon="3.81932">
        <ele>32</ele>
        <time>2021-02-28T15:22:57Z</time>
      </trkpt>
      <trkpt lat="43.60799" lon="3.81933">
        <ele>33</ele>
        <time>2021-02-28T15:22:58Z</time>
      </trkpt>
      <trkpt lat="43.60802" lon="3.81934">
        <ele>33</ele>
        <time>2021-02-28T15:22:59Z</time>
      </trkpt>
      <trkpt lat="43.60804" lon="3.81935">
        <ele>33</ele>
        <time>2021-02-28T15:23:00Z</time>
      </trkpt>
      <trkpt lat="43.60805" lon="3.81938">
        <ele>33</ele>
        <time>2021-02-28T15:23:01Z</time>
      </trkpt>
      <trkpt lat="43.60806" lon="3.81942">
        <ele>33</ele>
        <time>2021-02-28T15:23:02Z</time>
      </trkpt>
      <trkpt lat="43.60806" lon="3.81945">
        <ele>33</ele>
        <time>2021-02-28T15:23:03Z</time>
      </trkpt>
      <trkpt lat="43.60805" lon="3.81948">
        <ele>33</ele>
        <time>2021-02-28T15:23:04Z</time>
      </trkpt>
      <trkpt lat="43.60805" lon="3.81951">
        <ele>33</ele>
        <time>2021-02-28T15:23:05Z</time>
      </trkpt>
      <trkpt lat="43.60806" lon="3.81953">
        <ele>33</ele>
        <time>2021-02-28T15:23:07Z</time>
      </trkpt>
      <trkpt lat="43.60808" lon="3.81953">
        <ele>33</ele>
        <time>2021-02-28T15:23:09Z</time>
      </trkpt>
      <trkpt lat="43.6081" lon="3.81952">
        <ele>33</ele>
        <time>2021-02-28T15:23:10Z</time>
      </trkpt>
      <trkpt lat="43.60812" lon="3.81953">
        <ele>33</ele>
        <time>2021-02-28T15:23:11Z</time>
      </trkpt>
      <trkpt lat="43.60814" lon="3.81953">
        <ele>33</ele>
        <time>2021-02-28T15:23:13Z</time>
      </trkpt>
      <trkpt lat="43.60816" lon="3.81957">
        <ele>33</ele>
        <time>2021-02-28T15:23:14Z</time>
      </trkpt>
      <trkpt lat="43.60817" lon="3.81959">
        <ele>33</ele>
        <time>2021-02-28T15:23:15Z</time>
      </trkpt>
      <trkpt lat="43.60822" lon="3.81964">
        <ele>33</ele>
        <time>2021-02-28T15:23:17Z</time>
      </trkpt>
      <trkpt lat="43.60824" lon="3.81965">
        <ele>33</ele>
        <time>2021-02-28T15:23:18Z</time>
      </trkpt>
      <trkpt lat="43.60826" lon="3.81966">
        <ele>33</ele>
        <time>2021-02-28T15:23:19Z</time>
      </trkpt>
      <trkpt lat="43.60828" lon="3.81967">
        <ele>33</ele>
        <time>2021-02-28T15:23:20Z</time>
      </trkpt>
      <trkpt lat="43.60831" lon="3.81968">
        <ele>33</ele>
        <time>2021-02-28T15:23:21Z</time>
      </trkpt>
      <trkpt lat="43.60833" lon="3.81967">
        <ele>33</ele>
        <time>2021-02-28T15:23:22Z</time>
      </trkpt>
      <trkpt lat="43.60839" lon="3.81966">
        <ele>33</ele>
        <time>2021-02-28T15:23:24Z</time>
      </trkpt>
      <trkpt lat="43.60842" lon="3.81964">
        <ele>33</ele>
        <time>2021-02-28T15:23:25Z</time>
      </trkpt>
      <trkpt lat="43.60845" lon="3.81964">
        <ele>33</ele>
        <time>2021-02-28T15:23:26Z</time>
      </trkpt>
      <trkpt lat="43.60847" lon="3.81964">
        <ele>33</ele>
        <time>2021-02-28T15:23:27Z</time>
      </trkpt>
      <trkpt lat="43.60849" lon="3.81966">
        <ele>33</ele>
        <time>2021-02-28T15:23:28Z</time>
      </trkpt>
      <trkpt lat="43.60852" lon="3.81968">
        <ele>33</ele>
        <time>2021-02-28T15:23:30Z</time>
      </trkpt>
      <trkpt lat="43.60856" lon="3.81966">
        <ele>33</ele>
        <time>2021-02-28T15:23:32Z</time>
      </trkpt>
      <trkpt lat="43.60858" lon="3.81966">
        <ele>33</ele>
        <time>2021-02-28T15:23:33Z</time>
      </trkpt>
      <trkpt lat="43.60861" lon="3.81965">
        <ele>33</ele>
        <time>2021-02-28T15:23:34Z</time>
      </trkpt>
      <trkpt lat="43.60863" lon="3.81965">
        <ele>33</ele>
        <time>2021-02-28T15:23:35Z</time>
      </trkpt>
      <trkpt lat="43.60865" lon="3.81963">
        <ele>33</ele>
        <time>2021-02-28T15:23:36Z</time>
      </trkpt>
      <trkpt lat="43.60869" lon="3.81963">
        <ele>33</ele>
        <time>2021-02-28T15:23:39Z</time>
      </trkpt>
      <trkpt lat="43.60876" lon="3.8196">
        <ele>33</ele>
        <time>2021-02-28T15:23:43Z</time>
      </trkpt>
      <trkpt lat="43.60877" lon="3.81958">
        <ele>33</ele>
        <time>2021-02-28T15:23:44Z</time>
      </trkpt>
      <trkpt lat="43.6088" lon="3.81956">
        <ele>33</ele>
        <time>2021-02-28T15:23:46Z</time>
      </trkpt>
      <trkpt lat="43.60884" lon="3.81957">
        <ele>34</ele>
        <time>2021-02-28T15:23:48Z</time>
      </trkpt>
      <trkpt lat="43.60886" lon="3.81956">
        <ele>34</ele>
        <time>2021-02-28T15:23:49Z</time>
      </trkpt>
      <trkpt lat="43.60892" lon="3.81954">
        <ele>34</ele>
        <time>2021-02-28T15:23:51Z</time>
      </trkpt>
      <trkpt lat="43.60895" lon="3.81952">
        <ele>34</ele>
        <time>2021-02-28T15:23:52Z</time>
      </trkpt>
      <trkpt lat="43.60898" lon="3.81951">
        <ele>34</ele>
        <time>2021-02-28T15:23:53Z</time>
      </trkpt>
      <trkpt lat="43.60901" lon="3.81949">
        <ele>34</ele>
        <time>2021-02-28T15:23:54Z</time>
      </trkpt>
      <trkpt lat="43.60904" lon="3.81948">
        <ele>34</ele>
        <time>2021-02-28T15:23:55Z</time>
      </trkpt>
      <trkpt lat="43.60906" lon="3.81947">
        <ele>34</ele>
        <time>2021-02-28T15:23:56Z</time>
      </trkpt>
      <trkpt lat="43.6091" lon="3.81946">
        <ele>34</ele>
        <time>2021-02-28T15:23:57Z</time>
      </trkpt>
      <trkpt lat="43.60913" lon="3.81945">
        <ele>34</ele>
        <time>2021-02-28T15:23:58Z</time>
      </trkpt>
      <trkpt lat="43.60917" lon="3.81945">
        <ele>34</ele>
        <time>2021-02-28T15:24:00Z</time>
      </trkpt>
      <trkpt lat="43.60928" lon="3.81943">
        <ele>34</ele>
        <time>2021-02-28T15:24:02Z</time>
      </trkpt>
      <trkpt lat="43.60932" lon="3.81943">
        <ele>34</ele>
        <time>2021-02-28T15:24:04Z</time>
      </trkpt>
      <trkpt lat="43.60934" lon="3.81941">
        <ele>34</ele>
        <time>2021-02-28T15:24:05Z</time>
      </trkpt>
      <trkpt lat="43.60936" lon="3.81939">
        <ele>34</ele>
        <time>2021-02-28T15:24:06Z</time>
      </trkpt>
      <trkpt lat="43.60938" lon="3.81938">
        <ele>34</ele>
        <time>2021-02-28T15:24:07Z</time>
      </trkpt>
      <trkpt lat="43.60943" lon="3.81937">
        <ele>34</ele>
        <time>2021-02-28T15:24:08Z</time>
      </trkpt>
      <trkpt lat="43.60946" lon="3.81937">
        <ele>34</ele>
        <time>2021-02-28T15:24:09Z</time>
      </trkpt>
      <trkpt lat="43.6095" lon="3.81937">
        <ele>34</ele>
        <time>2021-02-28T15:24:10Z</time>
      </trkpt>
      <trkpt lat="43.60954" lon="3.81936">
        <ele>34</ele>
        <time>2021-02-28T15:24:11Z</time>
      </trkpt>
      <trkpt lat="43.60965" lon="3.81933">
        <ele>34</ele>
        <time>2021-02-28T15:24:15Z</time>
      </trkpt>
      <trkpt lat="43.60973" lon="3.8193">
        <ele>35</ele>
        <time>2021-02-28T15:24:18Z</time>
      </trkpt>
      <trkpt lat="43.60976" lon="3.8193">
        <ele>35</ele>
        <time>2021-02-28T15:24:19Z</time>
      </trkpt>
      <trkpt lat="43.60978" lon="3.81929">
        <ele>35</ele>
        <time>2021-02-28T15:24:20Z</time>
      </trkpt>
      <trkpt lat="43.6098" lon="3.81928">
        <ele>35</ele>
        <time>2021-02-28T15:24:21Z</time>
      </trkpt>
      <trkpt lat="43.6099" lon="3.81925">
        <ele>35</ele>
        <time>2021-02-28T15:24:24Z</time>
      </trkpt>
      <trkpt lat="43.60998" lon="3.81917">
        <ele>35</ele>
        <time>2021-02-28T15:24:27Z</time>
      </trkpt>
      <trkpt lat="43.61002" lon="3.81915">
        <ele>35</ele>
        <time>2021-02-28T15:24:29Z</time>
      </trkpt>
      <trkpt lat="43.61009" lon="3.81913">
        <ele>35</ele>
        <time>2021-02-28T15:24:31Z</time>
      </trkpt>
      <trkpt lat="43.61011" lon="3.81911">
        <ele>35</ele>
        <time>2021-02-28T15:24:32Z</time>
      </trkpt>
      <trkpt lat="43.61015" lon="3.8191">
        <ele>35</ele>
        <time>2021-02-28T15:24:33Z</time>
      </trkpt>
      <trkpt lat="43.61018" lon="3.81909">
        <ele>35</ele>
        <time>2021-02-28T15:24:34Z</time>
      </trkpt>
      <trkpt lat="43.61021" lon="3.81907">
        <ele>35</ele>
        <time>2021-02-28T15:24:35Z</time>
      </trkpt>
      <trkpt lat="43.61024" lon="3.81905">
        <ele>35</ele>
        <time>2021-02-28T15:24:36Z</time>
      </trkpt>
      <trkpt lat="43.61026" lon="3.81904">
        <ele>35</ele>
        <time>2021-02-28T15:24:37Z</time>
      </trkpt>
      <trkpt lat="43.61029" lon="3.81901">
        <ele>36</ele>
        <time>2021-02-28T15:24:38Z</time>
      </trkpt>
      <trkpt lat="43.61032" lon="3.81899">
        <ele>36</ele>
        <time>2021-02-28T15:24:39Z</time>
      </trkpt>
      <trkpt lat="43.61035" lon="3.81897">
        <ele>36</ele>
        <time>2021-02-28T15:24:40Z</time>
      </trkpt>
      <trkpt lat="43.61038" lon="3.81896">
        <ele>36</ele>
        <time>2021-02-28T15:24:41Z</time>
      </trkpt>
      <trkpt lat="43.61046" lon="3.81892">
        <ele>36</ele>
        <time>2021-02-28T15:24:43Z</time>
      </trkpt>
      <trkpt lat="43.6105" lon="3.81891">
        <ele>36</ele>
        <time>2021-02-28T15:24:44Z</time>
      </trkpt>
      <trkpt lat="43.61058" lon="3.81888">
        <ele>36</ele>
        <time>2021-02-28T15:24:46Z</time>
      </trkpt>
      <trkpt lat="43.61062" lon="3.81886">
        <ele>36</ele>
        <time>2021-02-28T15:24:47Z</time>
      </trkpt>
      <trkpt lat="43.61065" lon="3.81885">
        <ele>35</ele>
        <time>2021-02-28T15:24:48Z</time>
      </trkpt>
      <trkpt lat="43.61072" lon="3.81881">
        <ele>35</ele>
        <time>2021-02-28T15:24:50Z</time>
      </trkpt>
      <trkpt lat="43.61075" lon="3.8188">
        <ele>35</ele>
        <time>2021-02-28T15:24:51Z</time>
      </trkpt>
      <trkpt lat="43.61077" lon="3.81878">
        <ele>35</ele>
        <time>2021-02-28T15:24:52Z</time>
      </trkpt>
      <trkpt lat="43.6108" lon="3.81877">
        <ele>35</ele>
        <time>2021-02-28T15:24:53Z</time>
      </trkpt>
      <trkpt lat="43.61084" lon="3.81877">
        <ele>35</ele>
        <time>2021-02-28T15:24:55Z</time>
      </trkpt>
      <trkpt lat="43.6109" lon="3.81875">
        <ele>35</ele>
        <time>2021-02-28T15:24:56Z</time>
      </trkpt>
      <trkpt lat="43.61093" lon="3.81875">
        <ele>35</ele>
        <time>2021-02-28T15:24:57Z</time>
      </trkpt>
      <trkpt lat="43.61097" lon="3.81874">
        <ele>35</ele>
        <time>2021-02-28T15:24:58Z</time>
      </trkpt>
      <trkpt lat="43.611" lon="3.81873">
        <ele>35</ele>
        <time>2021-02-28T15:24:59Z</time>
      </trkpt>
      <trkpt lat="43.61104" lon="3.81872">
        <ele>35</ele>
        <time>2021-02-28T15:25:00Z</time>
      </trkpt>
      <trkpt lat="43.61107" lon="3.81871">
        <ele>35</ele>
        <time>2021-02-28T15:25:01Z</time>
      </trkpt>
      <trkpt lat="43.61109" lon="3.81871">
        <ele>35</ele>
        <time>2021-02-28T15:25:02Z</time>
      </trkpt>
      <trkpt lat="43.61112" lon="3.8187">
        <ele>35</ele>
        <time>2021-02-28T15:25:03Z</time>
      </trkpt>
      <trkpt lat="43.61115" lon="3.81868">
        <ele>35</ele>
        <time>2021-02-28T15:25:04Z</time>
      </trkpt>
      <trkpt lat="43.61118" lon="3.81867">
        <ele>35</ele>
        <time>2021-02-28T15:25:05Z</time>
      </trkpt>
      <trkpt lat="43.61124" lon="3.81863">
        <ele>35</ele>
        <time>2021-02-28T15:25:07Z</time>
      </trkpt>
      <trkpt lat="43.61127" lon="3.81861">
        <ele>36</ele>
        <time>2021-02-28T15:25:08Z</time>
      </trkpt>
      <trkpt lat="43.61131" lon="3.81858">
        <ele>36</ele>
        <time>2021-02-28T15:25:09Z</time>
      </trkpt>
      <trkpt lat="43.61138" lon="3.81853">
        <ele>36</ele>
        <time>2021-02-28T15:25:11Z</time>
      </trkpt>
      <trkpt lat="43.61146" lon="3.81848">
        <ele>36</ele>
        <time>2021-02-28T15:25:13Z</time>
      </trkpt>
      <trkpt lat="43.61149" lon="3.81845">
        <ele>36</ele>
        <time>2021-02-28T15:25:14Z</time>
      </trkpt>
      <trkpt lat="43.61153" lon="3.81843">
        <ele>36</ele>
        <time>2021-02-28T15:25:15Z</time>
      </trkpt>
      <trkpt lat="43.61156" lon="3.8184">
        <ele>36</ele>
        <time>2021-02-28T15:25:16Z</time>
      </trkpt>
      <trkpt lat="43.61159" lon="3.81838">
        <ele>36</ele>
        <time>2021-02-28T15:25:17Z</time>
      </trkpt>
      <trkpt lat="43.61163" lon="3.81836">
        <ele>37</ele>
        <time>2021-02-28T15:25:18Z</time>
      </trkpt>
      <trkpt lat="43.61167" lon="3.81833">
        <ele>37</ele>
        <time>2021-02-28T15:25:19Z</time>
      </trkpt>
      <trkpt lat="43.6117" lon="3.8183">
        <ele>37</ele>
        <time>2021-02-28T15:25:20Z</time>
      </trkpt>
      <trkpt lat="43.61174" lon="3.81828">
        <ele>37</ele>
        <time>2021-02-28T15:25:21Z</time>
      </trkpt>
      <trkpt lat="43.61177" lon="3.81825">
        <ele>37</ele>
        <time>2021-02-28T15:25:22Z</time>
      </trkpt>
      <trkpt lat="43.6118" lon="3.81822">
        <ele>37</ele>
        <time>2021-02-28T15:25:23Z</time>
      </trkpt>
      <trkpt lat="43.61184" lon="3.81819">
        <ele>37</ele>
        <time>2021-02-28T15:25:24Z</time>
      </trkpt>
      <trkpt lat="43.61187" lon="3.81816">
        <ele>37</ele>
        <time>2021-02-28T15:25:25Z</time>
      </trkpt>
      <trkpt lat="43.6119" lon="3.81813">
        <ele>37</ele>
        <time>2021-02-28T15:25:26Z</time>
      </trkpt>
      <trkpt lat="43.61193" lon="3.81811">
        <ele>37</ele>
        <time>2021-02-28T15:25:27Z</time>
      </trkpt>
      <trkpt lat="43.61196" lon="3.81808">
        <ele>36</ele>
        <time>2021-02-28T15:25:28Z</time>
      </trkpt>
      <trkpt lat="43.61199" lon="3.81808">
        <ele>36</ele>
        <time>2021-02-28T15:25:29Z</time>
      </trkpt>
      <trkpt lat="43.61202" lon="3.81806">
        <ele>36</ele>
        <time>2021-02-28T15:25:31Z</time>
      </trkpt>
      <trkpt lat="43.61204" lon="3.81804">
        <ele>36</ele>
        <time>2021-02-28T15:25:32Z</time>
      </trkpt>
      <trkpt lat="43.61206" lon="3.81801">
        <ele>36</ele>
        <time>2021-02-28T15:25:33Z</time>
      </trkpt>
      <trkpt lat="43.61209" lon="3.81799">
        <ele>36</ele>
        <time>2021-02-28T15:25:34Z</time>
      </trkpt>
      <trkpt lat="43.61213" lon="3.81794">
        <ele>36</ele>
        <time>2021-02-28T15:25:36Z</time>
      </trkpt>
      <trkpt lat="43.61216" lon="3.81791">
        <ele>36</ele>
        <time>2021-02-28T15:25:37Z</time>
      </trkpt>
      <trkpt lat="43.61218" lon="3.81788">
        <ele>36</ele>
        <time>2021-02-28T15:25:38Z</time>
      </trkpt>
      <trkpt lat="43.6122" lon="3.81786">
        <ele>36</ele>
        <time>2021-02-28T15:25:39Z</time>
      </trkpt>
      <trkpt lat="43.61223" lon="3.81784">
        <ele>36</ele>
        <time>2021-02-28T15:25:40Z</time>
      </trkpt>
      <trkpt lat="43.61227" lon="3.81782">
        <ele>36</ele>
        <time>2021-02-28T15:25:41Z</time>
      </trkpt>
      <trkpt lat="43.61231" lon="3.8178">
        <ele>36</ele>
        <time>2021-02-28T15:25:42Z</time>
      </trkpt>
      <trkpt lat="43.61235" lon="3.81778">
        <ele>36</ele>
        <time>2021-02-28T15:25:43Z</time>
      </trkpt>
      <trkpt lat="43.61238" lon="3.81776">
        <ele>36</ele>
        <time>2021-02-28T15:25:44Z</time>
      </trkpt>
      <trkpt lat="43.61242" lon="3.81774">
        <ele>36</ele>
        <time>2021-02-28T15:25:45Z</time>
      </trkpt>
      <trkpt lat="43.61245" lon="3.81771">
        <ele>36</ele>
        <time>2021-02-28T15:25:46Z</time>
      </trkpt>
      <trkpt lat="43.61247" lon="3.8177">
        <ele>36</ele>
        <time>2021-02-28T15:25:47Z</time>
      </trkpt>
      <trkpt lat="43.61249" lon="3.81768">
        <ele>37</ele>
        <time>2021-02-28T15:25:48Z</time>
      </trkpt>
      <trkpt lat="43.61252" lon="3.81766">
        <ele>37</ele>
        <time>2021-02-28T15:25:49Z</time>
      </trkpt>
      <trkpt lat="43.61254" lon="3.81764">
        <ele>37</ele>
        <time>2021-02-28T15:25:50Z</time>
      </trkpt>
      <trkpt lat="43.61257" lon="3.81762">
        <ele>37</ele>
        <time>2021-02-28T15:25:51Z</time>
      </trkpt>
      <trkpt lat="43.61261" lon="3.8176">
        <ele>37</ele>
        <time>2021-02-28T15:25:52Z</time>
      </trkpt>
      <trkpt lat="43.61264" lon="3.81759">
        <ele>37</ele>
        <time>2021-02-28T15:25:53Z</time>
      </trkpt>
      <trkpt lat="43.61268" lon="3.81758">
        <ele>37</ele>
        <time>2021-02-28T15:25:54Z</time>
      </trkpt>
      <trkpt lat="43.61272" lon="3.81757">
        <ele>37</ele>
        <time>2021-02-28T15:25:55Z</time>
      </trkpt>
      <trkpt lat="43.61277" lon="3.81757">
        <ele>37</ele>
        <time>2021-02-28T15:25:56Z</time>
      </trkpt>
      <trkpt lat="43.61281" lon="3.81757">
        <ele>37</ele>
        <time>2021-02-28T15:25:57Z</time>
      </trkpt>
      <trkpt lat="43.61286" lon="3.81757">
        <ele>36</ele>
        <time>2021-02-28T15:25:58Z</time>
      </trkpt>
      <trkpt lat="43.61289" lon="3.81756">
        <ele>36</ele>
        <time>2021-02-28T15:25:59Z</time>
      </trkpt>
      <trkpt lat="43.61293" lon="3.81756">
        <ele>36</ele>
        <time>2021-02-28T15:26:00Z</time>
      </trkpt>
      <trkpt lat="43.61298" lon="3.81755">
        <ele>36</ele>
        <time>2021-02-28T15:26:01Z</time>
      </trkpt>
      <trkpt lat="43.61302" lon="3.81755">
        <ele>36</ele>
        <time>2021-02-28T15:26:02Z</time>
      </trkpt>
      <trkpt lat="43.61307" lon="3.81754">
        <ele>36</ele>
        <time>2021-02-28T15:26:03Z</time>
      </trkpt>
      <trkpt lat="43.61315" lon="3.81754">
        <ele>36</ele>
        <time>2021-02-28T15:26:05Z</time>
      </trkpt>
      <trkpt lat="43.61319" lon="3.81754">
        <ele>36</ele>
        <time>2021-02-28T15:26:06Z</time>
      </trkpt>
      <trkpt lat="43.61324" lon="3.81754">
        <ele>36</ele>
        <time>2021-02-28T15:26:07Z</time>
      </trkpt>
      <trkpt lat="43.61328" lon="3.81754">
        <ele>37</ele>
        <time>2021-02-28T15:26:08Z</time>
      </trkpt>
      <trkpt lat="43.61331" lon="3.81753">
        <ele>37</ele>
        <time>2021-02-28T15:26:09Z</time>
      </trkpt>
      <trkpt lat="43.61335" lon="3.81753">
        <ele>37</ele>
        <time>2021-02-28T15:26:10Z</time>
      </trkpt>
      <trkpt lat="43.61339" lon="3.81752">
        <ele>37</ele>
        <time>2021-02-28T15:26:11Z</time>
      </trkpt>
      <trkpt lat="43.61343" lon="3.81752">
        <ele>37</ele>
        <time>2021-02-28T15:26:12Z</time>
      </trkpt>
      <trkpt lat="43.61347" lon="3.81752">
        <ele>37</ele>
        <time>2021-02-28T15:26:13Z</time>
      </trkpt>
      <trkpt lat="43.61351" lon="3.81751">
        <ele>37</ele>
        <time>2021-02-28T15:26:14Z</time>
      </trkpt>
      <trkpt lat="43.61355" lon="3.8175">
        <ele>37</ele>
        <time>2021-02-28T15:26:15Z</time>
      </trkpt>
      <trkpt lat="43.61358" lon="3.81749">
        <ele>37</ele>
        <time>2021-02-28T15:26:16Z</time>
      </trkpt>
      <trkpt lat="43.61362" lon="3.81747">
        <ele>37</ele>
        <time>2021-02-28T15:26:17Z</time>
      </trkpt>
      <trkpt lat="43.61366" lon="3.81746">
        <ele>37</ele>
        <time>2021-02-28T15:26:18Z</time>
      </trkpt>
      <trkpt lat="43.6137" lon="3.81745">
        <ele>37</ele>
        <time>2021-02-28T15:26:19Z</time>
      </trkpt>
      <trkpt lat="43.61374" lon="3.81744">
        <ele>37</ele>
        <time>2021-02-28T15:26:20Z</time>
      </trkpt>
      <trkpt lat="43.61378" lon="3.81742">
        <ele>37</ele>
        <time>2021-02-28T15:26:21Z</time>
      </trkpt>
      <trkpt lat="43.61381" lon="3.81741">
        <ele>37</ele>
        <time>2021-02-28T15:26:22Z</time>
      </trkpt>
      <trkpt lat="43.61384" lon="3.81739">
        <ele>37</ele>
        <time>2021-02-28T15:26:23Z</time>
      </trkpt>
      <trkpt lat="43.61387" lon="3.81738">
        <ele>37</ele>
        <time>2021-02-28T15:26:24Z</time>
      </trkpt>
      <trkpt lat="43.6139" lon="3.81736">
        <ele>37</ele>
        <time>2021-02-28T15:26:25Z</time>
      </trkpt>
      <trkpt lat="43.61393" lon="3.81733">
        <ele>37</ele>
        <time>2021-02-28T15:26:26Z</time>
      </trkpt>
      <trkpt lat="43.61395" lon="3.81731">
        <ele>37</ele>
        <time>2021-02-28T15:26:27Z</time>
      </trkpt>
      <trkpt lat="43.61398" lon="3.81728">
        <ele>38</ele>
        <time>2021-02-28T15:26:28Z</time>
      </trkpt>
      <trkpt lat="43.614" lon="3.81725">
        <ele>38</ele>
        <time>2021-02-28T15:26:29Z</time>
      </trkpt>
      <trkpt lat="43.61403" lon="3.81722">
        <ele>38</ele>
        <time>2021-02-28T15:26:30Z</time>
      </trkpt>
      <trkpt lat="43.61405" lon="3.81719">
        <ele>38</ele>
        <time>2021-02-28T15:26:31Z</time>
      </trkpt>
      <trkpt lat="43.61407" lon="3.81715">
        <ele>38</ele>
        <time>2021-02-28T15:26:32Z</time>
      </trkpt>
      <trkpt lat="43.61411" lon="3.81708">
        <ele>38</ele>
        <time>2021-02-28T15:26:34Z</time>
      </trkpt>
      <trkpt lat="43.61412" lon="3.81704">
        <ele>38</ele>
        <time>2021-02-28T15:26:35Z</time>
      </trkpt>
      <trkpt lat="43.61415" lon="3.81702">
        <ele>38</ele>
        <time>2021-02-28T15:26:36Z</time>
      </trkpt>
      <trkpt lat="43.61421" lon="3.81701">
        <ele>38</ele>
        <time>2021-02-28T15:26:38Z</time>
      </trkpt>
      <trkpt lat="43.61423" lon="3.81701">
        <ele>38</ele>
        <time>2021-02-28T15:26:39Z</time>
      </trkpt>
      <trkpt lat="43.61426" lon="3.81701">
        <ele>38</ele>
        <time>2021-02-28T15:26:40Z</time>
      </trkpt>
      <trkpt lat="43.61429" lon="3.81697">
        <ele>38</ele>
        <time>2021-02-28T15:26:42Z</time>
      </trkpt>
      <trkpt lat="43.61432" lon="3.81694">
        <ele>38</ele>
        <time>2021-02-28T15:26:43Z</time>
      </trkpt>
      <trkpt lat="43.61434" lon="3.81692">
        <ele>38</ele>
        <time>2021-02-28T15:26:44Z</time>
      </trkpt>
      <trkpt lat="43.61436" lon="3.81689">
        <ele>38</ele>
        <time>2021-02-28T15:26:45Z</time>
      </trkpt>
      <trkpt lat="43.6144" lon="3.81686">
        <ele>38</ele>
        <time>2021-02-28T15:26:46Z</time>
      </trkpt>
      <trkpt lat="43.61444" lon="3.81684">
        <ele>38</ele>
        <time>2021-02-28T15:26:47Z</time>
      </trkpt>
      <trkpt lat="43.61447" lon="3.81681">
        <ele>39</ele>
        <time>2021-02-28T15:26:48Z</time>
      </trkpt>
      <trkpt lat="43.61449" lon="3.81677">
        <ele>39</ele>
        <time>2021-02-28T15:26:49Z</time>
      </trkpt>
      <trkpt lat="43.61451" lon="3.81673">
        <ele>39</ele>
        <time>2021-02-28T15:26:50Z</time>
      </trkpt>
      <trkpt lat="43.61453" lon="3.81668">
        <ele>39</ele>
        <time>2021-02-28T15:26:51Z</time>
      </trkpt>
      <trkpt lat="43.61453" lon="3.81664">
        <ele>39</ele>
        <time>2021-02-28T15:26:52Z</time>
      </trkpt>
      <trkpt lat="43.61454" lon="3.8166">
        <ele>39</ele>
        <time>2021-02-28T15:26:53Z</time>
      </trkpt>
      <trkpt lat="43.61454" lon="3.81656">
        <ele>39</ele>
        <time>2021-02-28T15:26:54Z</time>
      </trkpt>
      <trkpt lat="43.61454" lon="3.81652">
        <ele>39</ele>
        <time>2021-02-28T15:26:55Z</time>
      </trkpt>
      <trkpt lat="43.61454" lon="3.81648">
        <ele>39</ele>
        <time>2021-02-28T15:26:56Z</time>
      </trkpt>
      <trkpt lat="43.61454" lon="3.81643">
        <ele>39</ele>
        <time>2021-02-28T15:26:57Z</time>
      </trkpt>
      <trkpt lat="43.61454" lon="3.81639">
        <ele>40</ele>
        <time>2021-02-28T15:26:58Z</time>
      </trkpt>
      <trkpt lat="43.61455" lon="3.81635">
        <ele>40</ele>
        <time>2021-02-28T15:26:59Z</time>
      </trkpt>
      <trkpt lat="43.61456" lon="3.81631">
        <ele>40</ele>
        <time>2021-02-28T15:27:00Z</time>
      </trkpt>
      <trkpt lat="43.61457" lon="3.81627">
        <ele>40</ele>
        <time>2021-02-28T15:27:01Z</time>
      </trkpt>
      <trkpt lat="43.61457" lon="3.8162">
        <ele>40</ele>
        <time>2021-02-28T15:27:03Z</time>
      </trkpt>
      <trkpt lat="43.61457" lon="3.81616">
        <ele>40</ele>
        <time>2021-02-28T15:27:04Z</time>
      </trkpt>
      <trkpt lat="43.61457" lon="3.81612">
        <ele>40</ele>
        <time>2021-02-28T15:27:05Z</time>
      </trkpt>
      <trkpt lat="43.61458" lon="3.81605">
        <ele>40</ele>
        <time>2021-02-28T15:27:07Z</time>
      </trkpt>
      <trkpt lat="43.61458" lon="3.81601">
        <ele>40</ele>
        <time>2021-02-28T15:27:08Z</time>
      </trkpt>
      <trkpt lat="43.61459" lon="3.81598">
        <ele>40</ele>
        <time>2021-02-28T15:27:09Z</time>
      </trkpt>
      <trkpt lat="43.6146" lon="3.81594">
        <ele>40</ele>
        <time>2021-02-28T15:27:10Z</time>
      </trkpt>
      <trkpt lat="43.6146" lon="3.81591">
        <ele>40</ele>
        <time>2021-02-28T15:27:11Z</time>
      </trkpt>
      <trkpt lat="43.61461" lon="3.81587">
        <ele>40</ele>
        <time>2021-02-28T15:27:12Z</time>
      </trkpt>
      <trkpt lat="43.61461" lon="3.81584">
        <ele>40</ele>
        <time>2021-02-28T15:27:13Z</time>
      </trkpt>
      <trkpt lat="43.61462" lon="3.81581">
        <ele>40</ele>
        <time>2021-02-28T15:27:14Z</time>
      </trkpt>
      <trkpt lat="43.61462" lon="3.81578">
        <ele>40</ele>
        <time>2021-02-28T15:27:15Z</time>
      </trkpt>
      <trkpt lat="43.61463" lon="3.81575">
        <ele>40</ele>
        <time>2021-02-28T15:27:16Z</time>
      </trkpt>
      <trkpt lat="43.61463" lon="3.81571">
        <ele>40</ele>
        <time>2021-02-28T15:27:17Z</time>
      </trkpt>
      <trkpt lat="43.61464" lon="3.81568">
        <ele>41</ele>
        <time>2021-02-28T15:27:18Z</time>
      </trkpt>
      <trkpt lat="43.61464" lon="3.81562">
        <ele>41</ele>
        <time>2021-02-28T15:27:20Z</time>
      </trkpt>
      <trkpt lat="43.61465" lon="3.81559">
        <ele>41</ele>
        <time>2021-02-28T15:27:21Z</time>
      </trkpt>
      <trkpt lat="43.61466" lon="3.81557">
        <ele>41</ele>
        <time>2021-02-28T15:27:22Z</time>
      </trkpt>
      <trkpt lat="43.6147" lon="3.81558">
        <ele>41</ele>
        <time>2021-02-28T15:27:24Z</time>
      </trkpt>
      <trkpt lat="43.61472" lon="3.81561">
        <ele>41</ele>
        <time>2021-02-28T15:27:25Z</time>
      </trkpt>
      <trkpt lat="43.61473" lon="3.81565">
        <ele>41</ele>
        <time>2021-02-28T15:27:26Z</time>
      </trkpt>
      <trkpt lat="43.61473" lon="3.81568">
        <ele>41</ele>
        <time>2021-02-28T15:27:28Z</time>
      </trkpt>
      <trkpt lat="43.61475" lon="3.81577">
        <ele>42</ele>
        <time>2021-02-28T15:27:29Z</time>
      </trkpt>
      <trkpt lat="43.61477" lon="3.81581">
        <ele>42</ele>
        <time>2021-02-28T15:27:30Z</time>
      </trkpt>
      <trkpt lat="43.61478" lon="3.81586">
        <ele>42</ele>
        <time>2021-02-28T15:27:31Z</time>
      </trkpt>
      <trkpt lat="43.61479" lon="3.8159">
        <ele>42</ele>
        <time>2021-02-28T15:27:32Z</time>
      </trkpt>
      <trkpt lat="43.6148" lon="3.81595">
        <ele>42</ele>
        <time>2021-02-28T15:27:33Z</time>
      </trkpt>
      <trkpt lat="43.61481" lon="3.816">
        <ele>42</ele>
        <time>2021-02-28T15:27:34Z</time>
      </trkpt>
      <trkpt lat="43.61482" lon="3.81605">
        <ele>42</ele>
        <time>2021-02-28T15:27:35Z</time>
      </trkpt>
      <trkpt lat="43.61483" lon="3.8161">
        <ele>42</ele>
        <time>2021-02-28T15:27:36Z</time>
      </trkpt>
      <trkpt lat="43.61484" lon="3.81615">
        <ele>42</ele>
        <time>2021-02-28T15:27:37Z</time>
      </trkpt>
      <trkpt lat="43.61485" lon="3.81619">
        <ele>40</ele>
        <time>2021-02-28T15:27:38Z</time>
      </trkpt>
      <trkpt lat="43.61486" lon="3.81624">
        <ele>40</ele>
        <time>2021-02-28T15:27:39Z</time>
      </trkpt>
      <trkpt lat="43.61488" lon="3.81628">
        <ele>40</ele>
        <time>2021-02-28T15:27:40Z</time>
      </trkpt>
      <trkpt lat="43.6149" lon="3.81633">
        <ele>40</ele>
        <time>2021-02-28T15:27:41Z</time>
      </trkpt>
      <trkpt lat="43.61492" lon="3.81638">
        <ele>40</ele>
        <time>2021-02-28T15:27:42Z</time>
      </trkpt>
      <trkpt lat="43.61493" lon="3.81643">
        <ele>40</ele>
        <time>2021-02-28T15:27:43Z</time>
      </trkpt>
      <trkpt lat="43.61496" lon="3.81653">
        <ele>40</ele>
        <time>2021-02-28T15:27:45Z</time>
      </trkpt>
      <trkpt lat="43.61497" lon="3.81657">
        <ele>40</ele>
        <time>2021-02-28T15:27:46Z</time>
      </trkpt>
      <trkpt lat="43.61499" lon="3.81667">
        <ele>40</ele>
        <time>2021-02-28T15:27:48Z</time>
      </trkpt>
      <trkpt lat="43.615" lon="3.81671">
        <ele>40</ele>
        <time>2021-02-28T15:27:49Z</time>
      </trkpt>
      <trkpt lat="43.61501" lon="3.81676">
        <ele>40</ele>
        <time>2021-02-28T15:27:50Z</time>
      </trkpt>
      <trkpt lat="43.61503" lon="3.8168">
        <ele>40</ele>
        <time>2021-02-28T15:27:51Z</time>
      </trkpt>
      <trkpt lat="43.61505" lon="3.81684">
        <ele>40</ele>
        <time>2021-02-28T15:27:52Z</time>
      </trkpt>
      <trkpt lat="43.61506" lon="3.81689">
        <ele>40</ele>
        <time>2021-02-28T15:27:53Z</time>
      </trkpt>
      <trkpt lat="43.61507" lon="3.81693">
        <ele>40</ele>
        <time>2021-02-28T15:27:54Z</time>
      </trkpt>
      <trkpt lat="43.61509" lon="3.81698">
        <ele>40</ele>
        <time>2021-02-28T15:27:55Z</time>
      </trkpt>
      <trkpt lat="43.6151" lon="3.81702">
        <ele>40</ele>
        <time>2021-02-28T15:27:56Z</time>
      </trkpt>
      <trkpt lat="43.61511" lon="3.81707">
        <ele>40</ele>
        <time>2021-02-28T15:27:57Z</time>
      </trkpt>
      <trkpt lat="43.61513" lon="3.81712">
        <ele>41</ele>
        <time>2021-02-28T15:27:58Z</time>
      </trkpt>
      <trkpt lat="43.61514" lon="3.81716">
        <ele>41</ele>
        <time>2021-02-28T15:27:59Z</time>
      </trkpt>
      <trkpt lat="43.61515" lon="3.81721">
        <ele>41</ele>
        <time>2021-02-28T15:28:00Z</time>
      </trkpt>
      <trkpt lat="43.61517" lon="3.81725">
        <ele>41</ele>
        <time>2021-02-28T15:28:01Z</time>
      </trkpt>
      <trkpt lat="43.61518" lon="3.8173">
        <ele>41</ele>
        <time>2021-02-28T15:28:02Z</time>
      </trkpt>
      <trkpt lat="43.61519" lon="3.81734">
        <ele>41</ele>
        <time>2021-02-28T15:28:03Z</time>
      </trkpt>
      <trkpt lat="43.61521" lon="3.81739">
        <ele>41</ele>
        <time>2021-02-28T15:28:04Z</time>
      </trkpt>
      <trkpt lat="43.61523" lon="3.81748">
        <ele>41</ele>
        <time>2021-02-28T15:28:06Z</time>
      </trkpt>
      <trkpt lat="43.61524" lon="3.81753">
        <ele>41</ele>
        <time>2021-02-28T15:28:07Z</time>
      </trkpt>
      <trkpt lat="43.61525" lon="3.81757">
        <ele>41</ele>
        <time>2021-02-28T15:28:08Z</time>
      </trkpt>
      <trkpt lat="43.61527" lon="3.81762">
        <ele>41</ele>
        <time>2021-02-28T15:28:10Z</time>
      </trkpt>
      <trkpt lat="43.61529" lon="3.8177">
        <ele>41</ele>
        <time>2021-02-28T15:28:11Z</time>
      </trkpt>
      <trkpt lat="43.61529" lon="3.81774">
        <ele>41</ele>
        <time>2021-02-28T15:28:12Z</time>
      </trkpt>
      <trkpt lat="43.6153" lon="3.81777">
        <ele>41</ele>
        <time>2021-02-28T15:28:13Z</time>
      </trkpt>
      <trkpt lat="43.61531" lon="3.8178">
        <ele>41</ele>
        <time>2021-02-28T15:28:15Z</time>
      </trkpt>
      <trkpt lat="43.61532" lon="3.81783">
        <ele>41</ele>
        <time>2021-02-28T15:28:16Z</time>
      </trkpt>
      <trkpt lat="43.61532" lon="3.81786">
        <ele>41</ele>
        <time>2021-02-28T15:28:17Z</time>
      </trkpt>
      <trkpt lat="43.61534" lon="3.81792">
        <ele>41</ele>
        <time>2021-02-28T15:28:18Z</time>
      </trkpt>
      <trkpt lat="43.61535" lon="3.81795">
        <ele>41</ele>
        <time>2021-02-28T15:28:19Z</time>
      </trkpt>
      <trkpt lat="43.61536" lon="3.81799">
        <ele>41</ele>
        <time>2021-02-28T15:28:20Z</time>
      </trkpt>
      <trkpt lat="43.61538" lon="3.81803">
        <ele>41</ele>
        <time>2021-02-28T15:28:21Z</time>
      </trkpt>
      <trkpt lat="43.61539" lon="3.81807">
        <ele>41</ele>
        <time>2021-02-28T15:28:22Z</time>
      </trkpt>
      <trkpt lat="43.6154" lon="3.81811">
        <ele>41</ele>
        <time>2021-02-28T15:28:23Z</time>
      </trkpt>
      <trkpt lat="43.61541" lon="3.81815">
        <ele>41</ele>
        <time>2021-02-28T15:28:24Z</time>
      </trkpt>
      <trkpt lat="43.61542" lon="3.81819">
        <ele>41</ele>
        <time>2021-02-28T15:28:25Z</time>
      </trkpt>
      <trkpt lat="43.61543" lon="3.81823">
        <ele>41</ele>
        <time>2021-02-28T15:28:26Z</time>
      </trkpt>
      <trkpt lat="43.61544" lon="3.81827">
        <ele>41</ele>
        <time>2021-02-28T15:28:27Z</time>
      </trkpt>
      <trkpt lat="43.61545" lon="3.81831">
        <ele>41</ele>
        <time>2021-02-28T15:28:28Z</time>
      </trkpt>
      <trkpt lat="43.61546" lon="3.81834">
        <ele>41</ele>
        <time>2021-02-28T15:28:29Z</time>
      </trkpt>
      <trkpt lat="43.61548" lon="3.81839">
        <ele>41</ele>
        <time>2021-02-28T15:28:31Z</time>
      </trkpt>
      <trkpt lat="43.61549" lon="3.81842">
        <ele>41</ele>
        <time>2021-02-28T15:28:32Z</time>
      </trkpt>
      <trkpt lat="43.61549" lon="3.81846">
        <ele>41</ele>
        <time>2021-02-28T15:28:35Z</time>
      </trkpt>
      <trkpt lat="43.61548" lon="3.81844">
        <ele>40</ele>
        <time>2021-02-28T15:28:44Z</time>
      </trkpt>
      <trkpt lat="43.61557" lon="3.8184">
        <ele>41</ele>
        <time>2021-02-28T15:30:37Z</time>
      </trkpt>
      <trkpt lat="43.6156" lon="3.81839">
        <ele>41</ele>
        <time>2021-02-28T15:30:38Z</time>
      </trkpt>
      <trkpt lat="43.61564" lon="3.81838">
        <ele>41</ele>
        <time>2021-02-28T15:30:39Z</time>
      </trkpt>
      <trkpt lat="43.61567" lon="3.81838">
        <ele>41</ele>
        <time>2021-02-28T15:30:40Z</time>
      </trkpt>
      <trkpt lat="43.61569" lon="3.81838">
        <ele>41</ele>
        <time>2021-02-28T15:30:42Z</time>
      </trkpt>
      <trkpt lat="43.61575" lon="3.81835">
        <ele>41</ele>
        <time>2021-02-28T15:30:43Z</time>
      </trkpt>
      <trkpt lat="43.61578" lon="3.81833">
        <ele>41</ele>
        <time>2021-02-28T15:30:44Z</time>
      </trkpt>
      <trkpt lat="43.61581" lon="3.81831">
        <ele>41</ele>
        <time>2021-02-28T15:30:45Z</time>
      </trkpt>
      <trkpt lat="43.61584" lon="3.81829">
        <ele>41</ele>
        <time>2021-02-28T15:30:47Z</time>
      </trkpt>
      <trkpt lat="43.61591" lon="3.81826">
        <ele>41</ele>
        <time>2021-02-28T15:30:48Z</time>
      </trkpt>
      <trkpt lat="43.61598" lon="3.81824">
        <ele>41</ele>
        <time>2021-02-28T15:30:50Z</time>
      </trkpt>
      <trkpt lat="43.61601" lon="3.81821">
        <ele>41</ele>
        <time>2021-02-28T15:30:52Z</time>
      </trkpt>
      <trkpt lat="43.61604" lon="3.81819">
        <ele>41</ele>
        <time>2021-02-28T15:30:53Z</time>
      </trkpt>
      <trkpt lat="43.61608" lon="3.81817">
        <ele>41</ele>
        <time>2021-02-28T15:30:54Z</time>
      </trkpt>
      <trkpt lat="43.61615" lon="3.81814">
        <ele>41</ele>
        <time>2021-02-28T15:30:55Z</time>
      </trkpt>
      <trkpt lat="43.61618" lon="3.81812">
        <ele>41</ele>
        <time>2021-02-28T15:30:56Z</time>
      </trkpt>
      <trkpt lat="43.61622" lon="3.81811">
        <ele>39</ele>
        <time>2021-02-28T15:30:57Z</time>
      </trkpt>
      <trkpt lat="43.61626" lon="3.81809">
        <ele>39</ele>
        <time>2021-02-28T15:30:58Z</time>
      </trkpt>
      <trkpt lat="43.61629" lon="3.81808">
        <ele>39</ele>
        <time>2021-02-28T15:30:59Z</time>
      </trkpt>
      <trkpt lat="43.61633" lon="3.81806">
        <ele>39</ele>
        <time>2021-02-28T15:31:00Z</time>
      </trkpt>
      <trkpt lat="43.61636" lon="3.81804">
        <ele>39</ele>
        <time>2021-02-28T15:31:01Z</time>
      </trkpt>
      <trkpt lat="43.6164" lon="3.81802">
        <ele>39</ele>
        <time>2021-02-28T15:31:02Z</time>
      </trkpt>
      <trkpt lat="43.61643" lon="3.818">
        <ele>39</ele>
        <time>2021-02-28T15:31:03Z</time>
      </trkpt>
      <trkpt lat="43.61647" lon="3.81798">
        <ele>39</ele>
        <time>2021-02-28T15:31:04Z</time>
      </trkpt>
      <trkpt lat="43.61651" lon="3.81796">
        <ele>39</ele>
        <time>2021-02-28T15:31:05Z</time>
      </trkpt>
      <trkpt lat="43.61655" lon="3.81795">
        <ele>39</ele>
        <time>2021-02-28T15:31:06Z</time>
      </trkpt>
      <trkpt lat="43.61662" lon="3.81791">
        <ele>39</ele>
        <time>2021-02-28T15:31:08Z</time>
      </trkpt>
      <trkpt lat="43.61666" lon="3.81788">
        <ele>39</ele>
        <time>2021-02-28T15:31:09Z</time>
      </trkpt>
      <trkpt lat="43.61669" lon="3.81786">
        <ele>39</ele>
        <time>2021-02-28T15:31:10Z</time>
      </trkpt>
      <trkpt lat="43.61677" lon="3.81783">
        <ele>39</ele>
        <time>2021-02-28T15:31:12Z</time>
      </trkpt>
      <trkpt lat="43.6168" lon="3.81782">
        <ele>39</ele>
        <time>2021-02-28T15:31:13Z</time>
      </trkpt>
      <trkpt lat="43.61684" lon="3.81781">
        <ele>39</ele>
        <time>2021-02-28T15:31:14Z</time>
      </trkpt>
      <trkpt lat="43.61687" lon="3.81779">
        <ele>39</ele>
        <time>2021-02-28T15:31:15Z</time>
      </trkpt>
      <trkpt lat="43.6169" lon="3.81778">
        <ele>37</ele>
        <time>2021-02-28T15:31:17Z</time>
      </trkpt>
      <trkpt lat="43.61693" lon="3.81776">
        <ele>37</ele>
        <time>2021-02-28T15:31:18Z</time>
      </trkpt>
      <trkpt lat="43.61697" lon="3.81775">
        <ele>37</ele>
        <time>2021-02-28T15:31:19Z</time>
      </trkpt>
      <trkpt lat="43.61703" lon="3.81771">
        <ele>37</ele>
        <time>2021-02-28T15:31:20Z</time>
      </trkpt>
      <trkpt lat="43.61706" lon="3.81769">
        <ele>37</ele>
        <time>2021-02-28T15:31:21Z</time>
      </trkpt>
      <trkpt lat="43.61709" lon="3.81768">
        <ele>37</ele>
        <time>2021-02-28T15:31:22Z</time>
      </trkpt>
      <trkpt lat="43.61713" lon="3.81767">
        <ele>37</ele>
        <time>2021-02-28T15:31:23Z</time>
      </trkpt>
      <trkpt lat="43.61716" lon="3.81767">
        <ele>37</ele>
        <time>2021-02-28T15:31:24Z</time>
      </trkpt>
      <trkpt lat="43.61718" lon="3.81767">
        <ele>37</ele>
        <time>2021-02-28T15:31:25Z</time>
      </trkpt>
      <trkpt lat="43.61721" lon="3.81768">
        <ele>37</ele>
        <time>2021-02-28T15:31:26Z</time>
      </trkpt>
      <trkpt lat="43.61723" lon="3.81768">
        <ele>39</ele>
        <time>2021-02-28T15:31:27Z</time>
      </trkpt>
      <trkpt lat="43.61726" lon="3.81768">
        <ele>39</ele>
        <time>2021-02-28T15:31:28Z</time>
      </trkpt>
      <trkpt lat="43.61728" lon="3.81769">
        <ele>39</ele>
        <time>2021-02-28T15:31:29Z</time>
      </trkpt>
      <trkpt lat="43.61731" lon="3.81771">
        <ele>39</ele>
        <time>2021-02-28T15:31:30Z</time>
      </trkpt>
      <trkpt lat="43.61733" lon="3.81774">
        <ele>39</ele>
        <time>2021-02-28T15:31:31Z</time>
      </trkpt>
      <trkpt lat="43.61735" lon="3.81778">
        <ele>39</ele>
        <time>2021-02-28T15:31:32Z</time>
      </trkpt>
      <trkpt lat="43.61736" lon="3.81783">
        <ele>39</ele>
        <time>2021-02-28T15:31:33Z</time>
      </trkpt>
      <trkpt lat="43.61737" lon="3.81787">
        <ele>39</ele>
        <time>2021-02-28T15:31:34Z</time>
      </trkpt>
      <trkpt lat="43.61738" lon="3.81792">
        <ele>39</ele>
        <time>2021-02-28T15:31:35Z</time>
      </trkpt>
      <trkpt lat="43.61739" lon="3.81796">
        <ele>39</ele>
        <time>2021-02-28T15:31:36Z</time>
      </trkpt>
      <trkpt lat="43.6174" lon="3.818">
        <ele>39</ele>
        <time>2021-02-28T15:31:37Z</time>
      </trkpt>
      <trkpt lat="43.61741" lon="3.81805">
        <ele>39</ele>
        <time>2021-02-28T15:31:38Z</time>
      </trkpt>
      <trkpt lat="43.61742" lon="3.81809">
        <ele>39</ele>
        <time>2021-02-28T15:31:39Z</time>
      </trkpt>
      <trkpt lat="43.61745" lon="3.81818">
        <ele>39</ele>
        <time>2021-02-28T15:31:41Z</time>
      </trkpt>
      <trkpt lat="43.61746" lon="3.81822">
        <ele>39</ele>
        <time>2021-02-28T15:31:42Z</time>
      </trkpt>
      <trkpt lat="43.61746" lon="3.81827">
        <ele>39</ele>
        <time>2021-02-28T15:31:43Z</time>
      </trkpt>
      <trkpt lat="43.61748" lon="3.81836">
        <ele>39</ele>
        <time>2021-02-28T15:31:45Z</time>
      </trkpt>
      <trkpt lat="43.61749" lon="3.8184">
        <ele>39</ele>
        <time>2021-02-28T15:31:46Z</time>
      </trkpt>
      <trkpt lat="43.6175" lon="3.81844">
        <ele>39</ele>
        <time>2021-02-28T15:31:47Z</time>
      </trkpt>
      <trkpt lat="43.61752" lon="3.81847">
        <ele>39</ele>
        <time>2021-02-28T15:31:48Z</time>
      </trkpt>
      <trkpt lat="43.61755" lon="3.81848">
        <ele>39</ele>
        <time>2021-02-28T15:31:50Z</time>
      </trkpt>
      <trkpt lat="43.61758" lon="3.81848">
        <ele>39</ele>
        <time>2021-02-28T15:31:51Z</time>
      </trkpt>
      <trkpt lat="43.61761" lon="3.81847">
        <ele>39</ele>
        <time>2021-02-28T15:31:52Z</time>
      </trkpt>
      <trkpt lat="43.6177" lon="3.81844">
        <ele>39</ele>
        <time>2021-02-28T15:31:53Z</time>
      </trkpt>
      <trkpt lat="43.61775" lon="3.81843">
        <ele>39</ele>
        <time>2021-02-28T15:31:54Z</time>
      </trkpt>
      <trkpt lat="43.61779" lon="3.81841">
        <ele>39</ele>
        <time>2021-02-28T15:31:55Z</time>
      </trkpt>
      <trkpt lat="43.61783" lon="3.81839">
        <ele>39</ele>
        <time>2021-02-28T15:31:56Z</time>
      </trkpt>
      <trkpt lat="43.61787" lon="3.81838">
        <ele>40</ele>
        <time>2021-02-28T15:31:57Z</time>
      </trkpt>
      <trkpt lat="43.6179" lon="3.81835">
        <ele>40</ele>
        <time>2021-02-28T15:31:58Z</time>
      </trkpt>
      <trkpt lat="43.61794" lon="3.81833">
        <ele>40</ele>
        <time>2021-02-28T15:31:59Z</time>
      </trkpt>
      <trkpt lat="43.61797" lon="3.8183">
        <ele>40</ele>
        <time>2021-02-28T15:32:00Z</time>
      </trkpt>
      <trkpt lat="43.61803" lon="3.81823">
        <ele>40</ele>
        <time>2021-02-28T15:32:02Z</time>
      </trkpt>
      <trkpt lat="43.61806" lon="3.8182">
        <ele>40</ele>
        <time>2021-02-28T15:32:03Z</time>
      </trkpt>
      <trkpt lat="43.6181" lon="3.81816">
        <ele>40</ele>
        <time>2021-02-28T15:32:04Z</time>
      </trkpt>
      <trkpt lat="43.61816" lon="3.81809">
        <ele>40</ele>
        <time>2021-02-28T15:32:06Z</time>
      </trkpt>
      <trkpt lat="43.6182" lon="3.81806">
        <ele>40</ele>
        <time>2021-02-28T15:32:07Z</time>
      </trkpt>
      <trkpt lat="43.61823" lon="3.81803">
        <ele>40</ele>
        <time>2021-02-28T15:32:08Z</time>
      </trkpt>
      <trkpt lat="43.61826" lon="3.81799">
        <ele>40</ele>
        <time>2021-02-28T15:32:09Z</time>
      </trkpt>
      <trkpt lat="43.61829" lon="3.81796">
        <ele>40</ele>
        <time>2021-02-28T15:32:11Z</time>
      </trkpt>
      <trkpt lat="43.61835" lon="3.81789">
        <ele>40</ele>
        <time>2021-02-28T15:32:12Z</time>
      </trkpt>
      <trkpt lat="43.61837" lon="3.81785">
        <ele>40</ele>
        <time>2021-02-28T15:32:13Z</time>
      </trkpt>
      <trkpt lat="43.6184" lon="3.81782">
        <ele>40</ele>
        <time>2021-02-28T15:32:14Z</time>
      </trkpt>
      <trkpt lat="43.61842" lon="3.81778">
        <ele>40</ele>
        <time>2021-02-28T15:32:15Z</time>
      </trkpt>
      <trkpt lat="43.61845" lon="3.81775">
        <ele>40</ele>
        <time>2021-02-28T15:32:16Z</time>
      </trkpt>
      <trkpt lat="43.61848" lon="3.81772">
        <ele>40</ele>
        <time>2021-02-28T15:32:17Z</time>
      </trkpt>
      <trkpt lat="43.61851" lon="3.81769">
        <ele>40</ele>
        <time>2021-02-28T15:32:19Z</time>
      </trkpt>
      <trkpt lat="43.61857" lon="3.81765">
        <ele>40</ele>
        <time>2021-02-28T15:32:20Z</time>
      </trkpt>
      <trkpt lat="43.6186" lon="3.81762">
        <ele>40</ele>
        <time>2021-02-28T15:32:21Z</time>
      </trkpt>
      <trkpt lat="43.61865" lon="3.81757">
        <ele>40</ele>
        <time>2021-02-28T15:32:23Z</time>
      </trkpt>
      <trkpt lat="43.61868" lon="3.81755">
        <ele>40</ele>
        <time>2021-02-28T15:32:24Z</time>
      </trkpt>
      <trkpt lat="43.61871" lon="3.81753">
        <ele>40</ele>
        <time>2021-02-28T15:32:25Z</time>
      </trkpt>
      <trkpt lat="43.61876" lon="3.81751">
        <ele>41</ele>
        <time>2021-02-28T15:32:27Z</time>
      </trkpt>
      <trkpt lat="43.61878" lon="3.81751">
        <ele>41</ele>
        <time>2021-02-28T15:32:28Z</time>
      </trkpt>
      <trkpt lat="43.6188" lon="3.81751">
        <ele>41</ele>
        <time>2021-02-28T15:32:30Z</time>
      </trkpt>
      <trkpt lat="43.61882" lon="3.8175">
        <ele>41</ele>
        <time>2021-02-28T15:32:32Z</time>
      </trkpt>
      <trkpt lat="43.61884" lon="3.81748">
        <ele>41</ele>
        <time>2021-02-28T15:32:33Z</time>
      </trkpt>
      <trkpt lat="43.61887" lon="3.81745">
        <ele>41</ele>
        <time>2021-02-28T15:32:34Z</time>
      </trkpt>
      <trkpt lat="43.6189" lon="3.81743">
        <ele>41</ele>
        <time>2021-02-28T15:32:35Z</time>
      </trkpt>
      <trkpt lat="43.61893" lon="3.81741">
        <ele>41</ele>
        <time>2021-02-28T15:32:36Z</time>
      </trkpt>
      <trkpt lat="43.61896" lon="3.8174">
        <ele>41</ele>
        <time>2021-02-28T15:32:37Z</time>
      </trkpt>
      <trkpt lat="43.61899" lon="3.81738">
        <ele>41</ele>
        <time>2021-02-28T15:32:38Z</time>
      </trkpt>
      <trkpt lat="43.61902" lon="3.81737">
        <ele>41</ele>
        <time>2021-02-28T15:32:39Z</time>
      </trkpt>
      <trkpt lat="43.61905" lon="3.81735">
        <ele>41</ele>
        <time>2021-02-28T15:32:40Z</time>
      </trkpt>
      <trkpt lat="43.61908" lon="3.81733">
        <ele>41</ele>
        <time>2021-02-28T15:32:41Z</time>
      </trkpt>
      <trkpt lat="43.61911" lon="3.8173">
        <ele>41</ele>
        <time>2021-02-28T15:32:42Z</time>
      </trkpt>
      <trkpt lat="43.61914" lon="3.81728">
        <ele>41</ele>
        <time>2021-02-28T15:32:43Z</time>
      </trkpt>
      <trkpt lat="43.61918" lon="3.81726">
        <ele>41</ele>
        <time>2021-02-28T15:32:44Z</time>
      </trkpt>
      <trkpt lat="43.61921" lon="3.81724">
        <ele>41</ele>
        <time>2021-02-28T15:32:45Z</time>
      </trkpt>
      <trkpt lat="43.61924" lon="3.81722">
        <ele>41</ele>
        <time>2021-02-28T15:32:46Z</time>
      </trkpt>
      <trkpt lat="43.61931" lon="3.81718">
        <ele>41</ele>
        <time>2021-02-28T15:32:48Z</time>
      </trkpt>
      <trkpt lat="43.61934" lon="3.81716">
        <ele>41</ele>
        <time>2021-02-28T15:32:49Z</time>
      </trkpt>
      <trkpt lat="43.61937" lon="3.81714">
        <ele>41</ele>
        <time>2021-02-28T15:32:50Z</time>
      </trkpt>
      <trkpt lat="43.61941" lon="3.81712">
        <ele>41</ele>
        <time>2021-02-28T15:32:51Z</time>
      </trkpt>
      <trkpt lat="43.61944" lon="3.8171">
        <ele>41</ele>
        <time>2021-02-28T15:32:52Z</time>
      </trkpt>
      <trkpt lat="43.61947" lon="3.81709">
        <ele>41</ele>
        <time>2021-02-28T15:32:53Z</time>
      </trkpt>
      <trkpt lat="43.61951" lon="3.8171">
        <ele>41</ele>
        <time>2021-02-28T15:32:54Z</time>
      </trkpt>
      <trkpt lat="43.61954" lon="3.81711">
        <ele>41</ele>
        <time>2021-02-28T15:32:55Z</time>
      </trkpt>
      <trkpt lat="43.61957" lon="3.81713">
        <ele>41</ele>
        <time>2021-02-28T15:32:56Z</time>
      </trkpt>
      <trkpt lat="43.6196" lon="3.81714">
        <ele>43</ele>
        <time>2021-02-28T15:32:57Z</time>
      </trkpt>
      <trkpt lat="43.61964" lon="3.81715">
        <ele>43</ele>
        <time>2021-02-28T15:32:58Z</time>
      </trkpt>
      <trkpt lat="43.61968" lon="3.81714">
        <ele>43</ele>
        <time>2021-02-28T15:32:59Z</time>
      </trkpt>
      <trkpt lat="43.61971" lon="3.81714">
        <ele>43</ele>
        <time>2021-02-28T15:33:00Z</time>
      </trkpt>
      <trkpt lat="43.61976" lon="3.81713">
        <ele>43</ele>
        <time>2021-02-28T15:33:01Z</time>
      </trkpt>
      <trkpt lat="43.6198" lon="3.81713">
        <ele>43</ele>
        <time>2021-02-28T15:33:02Z</time>
      </trkpt>
      <trkpt lat="43.61984" lon="3.81714">
        <ele>43</ele>
        <time>2021-02-28T15:33:03Z</time>
      </trkpt>
      <trkpt lat="43.61988" lon="3.81714">
        <ele>43</ele>
        <time>2021-02-28T15:33:04Z</time>
      </trkpt>
      <trkpt lat="43.61992" lon="3.81715">
        <ele>43</ele>
        <time>2021-02-28T15:33:05Z</time>
      </trkpt>
      <trkpt lat="43.61996" lon="3.81717">
        <ele>43</ele>
        <time>2021-02-28T15:33:06Z</time>
      </trkpt>
      <trkpt lat="43.62" lon="3.81718">
        <ele>43</ele>
        <time>2021-02-28T15:33:07Z</time>
      </trkpt>
      <trkpt lat="43.62008" lon="3.81721">
        <ele>43</ele>
        <time>2021-02-28T15:33:09Z</time>
      </trkpt>
      <trkpt lat="43.62012" lon="3.81723">
        <ele>43</ele>
        <time>2021-02-28T15:33:10Z</time>
      </trkpt>
      <trkpt lat="43.62015" lon="3.81725">
        <ele>43</ele>
        <time>2021-02-28T15:33:11Z</time>
      </trkpt>
      <trkpt lat="43.62019" lon="3.81726">
        <ele>43</ele>
        <time>2021-02-28T15:33:12Z</time>
      </trkpt>
      <trkpt lat="43.62023" lon="3.81728">
        <ele>43</ele>
        <time>2021-02-28T15:33:13Z</time>
      </trkpt>
      <trkpt lat="43.62027" lon="3.8173">
        <ele>43</ele>
        <time>2021-02-28T15:33:14Z</time>
      </trkpt>
      <trkpt lat="43.62031" lon="3.81732">
        <ele>43</ele>
        <time>2021-02-28T15:33:15Z</time>
      </trkpt>
      <trkpt lat="43.62034" lon="3.81733">
        <ele>43</ele>
        <time>2021-02-28T15:33:16Z</time>
      </trkpt>
      <trkpt lat="43.62038" lon="3.81735">
        <ele>43</ele>
        <time>2021-02-28T15:33:17Z</time>
      </trkpt>
      <trkpt lat="43.62042" lon="3.81736">
        <ele>43</ele>
        <time>2021-02-28T15:33:18Z</time>
      </trkpt>
      <trkpt lat="43.62046" lon="3.81737">
        <ele>43</ele>
        <time>2021-02-28T15:33:19Z</time>
      </trkpt>
      <trkpt lat="43.62051" lon="3.81738">
        <ele>43</ele>
        <time>2021-02-28T15:33:20Z</time>
      </trkpt>
      <trkpt lat="43.62055" lon="3.81738">
        <ele>43</ele>
        <time>2021-02-28T15:33:21Z</time>
      </trkpt>
      <trkpt lat="43.62059" lon="3.81738">
        <ele>43</ele>
        <time>2021-02-28T15:33:22Z</time>
      </trkpt>
      <trkpt lat="43.62063" lon="3.81738">
        <ele>43</ele>
        <time>2021-02-28T15:33:23Z</time>
      </trkpt>
      <trkpt lat="43.62067" lon="3.81738">
        <ele>43</ele>
        <time>2021-02-28T15:33:24Z</time>
      </trkpt>
      <trkpt lat="43.62076" lon="3.81739">
        <ele>43</ele>
        <time>2021-02-28T15:33:26Z</time>
      </trkpt>
      <trkpt lat="43.6208" lon="3.81739">
        <ele>43</ele>
        <time>2021-02-28T15:33:27Z</time>
      </trkpt>
      <trkpt lat="43.62084" lon="3.81739">
        <ele>43</ele>
        <time>2021-02-28T15:33:28Z</time>
      </trkpt>
      <trkpt lat="43.62088" lon="3.81739">
        <ele>43</ele>
        <time>2021-02-28T15:33:30Z</time>
      </trkpt>
      <trkpt lat="43.62093" lon="3.81739">
        <ele>43</ele>
        <time>2021-02-28T15:33:31Z</time>
      </trkpt>
      <trkpt lat="43.62097" lon="3.8174">
        <ele>43</ele>
        <time>2021-02-28T15:33:32Z</time>
      </trkpt>
      <trkpt lat="43.62101" lon="3.81739">
        <ele>43</ele>
        <time>2021-02-28T15:33:33Z</time>
      </trkpt>
      <trkpt lat="43.6211" lon="3.81738">
        <ele>43</ele>
        <time>2021-02-28T15:33:34Z</time>
      </trkpt>
      <trkpt lat="43.62114" lon="3.81738">
        <ele>43</ele>
        <time>2021-02-28T15:33:35Z</time>
      </trkpt>
      <trkpt lat="43.62119" lon="3.81738">
        <ele>43</ele>
        <time>2021-02-28T15:33:36Z</time>
      </trkpt>
      <trkpt lat="43.62124" lon="3.81739">
        <ele>43</ele>
        <time>2021-02-28T15:33:37Z</time>
      </trkpt>
      <trkpt lat="43.62129" lon="3.81739">
        <ele>43</ele>
        <time>2021-02-28T15:33:38Z</time>
      </trkpt>
      <trkpt lat="43.62139" lon="3.81741">
        <ele>43</ele>
        <time>2021-02-28T15:33:41Z</time>
      </trkpt>
      <trkpt lat="43.62148" lon="3.81746">
        <ele>43</ele>
        <time>2021-02-28T15:33:44Z</time>
      </trkpt>
      <trkpt lat="43.62153" lon="3.81747">
        <ele>40</ele>
        <time>2021-02-28T15:33:47Z</time>
      </trkpt>
      <trkpt lat="43.62155" lon="3.81746">
        <ele>40</ele>
        <time>2021-02-28T15:33:49Z</time>
      </trkpt>
      <trkpt lat="43.62161" lon="3.81746">
        <ele>40</ele>
        <time>2021-02-28T15:33:51Z</time>
      </trkpt>
      <trkpt lat="43.62164" lon="3.81746">
        <ele>40</ele>
        <time>2021-02-28T15:33:52Z</time>
      </trkpt>
      <trkpt lat="43.62167" lon="3.81746">
        <ele>40</ele>
        <time>2021-02-28T15:33:53Z</time>
      </trkpt>
      <trkpt lat="43.6217" lon="3.81746">
        <ele>40</ele>
        <time>2021-02-28T15:33:54Z</time>
      </trkpt>
      <trkpt lat="43.62172" lon="3.81745">
        <ele>40</ele>
        <time>2021-02-28T15:33:56Z</time>
      </trkpt>
      <trkpt lat="43.62174" lon="3.81745">
        <ele>40</ele>
        <time>2021-02-28T15:33:58Z</time>
      </trkpt>
      <trkpt lat="43.62182" lon="3.81745">
        <ele>40</ele>
        <time>2021-02-28T15:33:59Z</time>
      </trkpt>
      <trkpt lat="43.62185" lon="3.81745">
        <ele>40</ele>
        <time>2021-02-28T15:34:00Z</time>
      </trkpt>
      <trkpt lat="43.62189" lon="3.81745">
        <ele>40</ele>
        <time>2021-02-28T15:34:01Z</time>
      </trkpt>
      <trkpt lat="43.62192" lon="3.81746">
        <ele>40</ele>
        <time>2021-02-28T15:34:02Z</time>
      </trkpt>
      <trkpt lat="43.62196" lon="3.81746">
        <ele>40</ele>
        <time>2021-02-28T15:34:03Z</time>
      </trkpt>
      <trkpt lat="43.62201" lon="3.81745">
        <ele>40</ele>
        <time>2021-02-28T15:34:04Z</time>
      </trkpt>
      <trkpt lat="43.62205" lon="3.81745">
        <ele>40</ele>
        <time>2021-02-28T15:34:05Z</time>
      </trkpt>
      <trkpt lat="43.62208" lon="3.81744">
        <ele>40</ele>
        <time>2021-02-28T15:34:06Z</time>
      </trkpt>
      <trkpt lat="43.62215" lon="3.81744">
        <ele>45</ele>
        <time>2021-02-28T15:34:08Z</time>
      </trkpt>
      <trkpt lat="43.62218" lon="3.81744">
        <ele>45</ele>
        <time>2021-02-28T15:34:09Z</time>
      </trkpt>
      <trkpt lat="43.62221" lon="3.81744">
        <ele>45</ele>
        <time>2021-02-28T15:34:10Z</time>
      </trkpt>
      <trkpt lat="43.62224" lon="3.81743">
        <ele>45</ele>
        <time>2021-02-28T15:34:11Z</time>
      </trkpt>
      <trkpt lat="43.62227" lon="3.81743">
        <ele>45</ele>
        <time>2021-02-28T15:34:12Z</time>
      </trkpt>
      <trkpt lat="43.62231" lon="3.81743">
        <ele>45</ele>
        <time>2021-02-28T15:34:13Z</time>
      </trkpt>
      <trkpt lat="43.62236" lon="3.81743">
        <ele>45</ele>
        <time>2021-02-28T15:34:14Z</time>
      </trkpt>
      <trkpt lat="43.62241" lon="3.81744">
        <ele>45</ele>
        <time>2021-02-28T15:34:15Z</time>
      </trkpt>
      <trkpt lat="43.62245" lon="3.81744">
        <ele>45</ele>
        <time>2021-02-28T15:34:16Z</time>
      </trkpt>
      <trkpt lat="43.6225" lon="3.81744">
        <ele>47</ele>
        <time>2021-02-28T15:34:17Z</time>
      </trkpt>
      <trkpt lat="43.62255" lon="3.81744">
        <ele>47</ele>
        <time>2021-02-28T15:34:18Z</time>
      </trkpt>
      <trkpt lat="43.6226" lon="3.81744">
        <ele>47</ele>
        <time>2021-02-28T15:34:19Z</time>
      </trkpt>
      <trkpt lat="43.62266" lon="3.81745">
        <ele>47</ele>
        <time>2021-02-28T15:34:20Z</time>
      </trkpt>
      <trkpt lat="43.62271" lon="3.81746">
        <ele>47</ele>
        <time>2021-02-28T15:34:21Z</time>
      </trkpt>
      <trkpt lat="43.62276" lon="3.81746">
        <ele>47</ele>
        <time>2021-02-28T15:34:22Z</time>
      </trkpt>
      <trkpt lat="43.62284" lon="3.81746">
        <ele>47</ele>
        <time>2021-02-28T15:34:24Z</time>
      </trkpt>
      <trkpt lat="43.62287" lon="3.81748">
        <ele>47</ele>
        <time>2021-02-28T15:34:25Z</time>
      </trkpt>
      <trkpt lat="43.62296" lon="3.81743">
        <ele>47</ele>
        <time>2021-02-28T15:34:36Z</time>
      </trkpt>
      <trkpt lat="43.62309" lon="3.81746">
        <ele>47</ele>
        <time>2021-02-28T15:34:38Z</time>
      </trkpt>
      <trkpt lat="43.62316" lon="3.81748">
        <ele>47</ele>
        <time>2021-02-28T15:34:39Z</time>
      </trkpt>
      <trkpt lat="43.62325" lon="3.8175">
        <ele>47</ele>
        <time>2021-02-28T15:34:40Z</time>
      </trkpt>
      <trkpt lat="43.62332" lon="3.81751">
        <ele>47</ele>
        <time>2021-02-28T15:34:41Z</time>
      </trkpt>
      <trkpt lat="43.62341" lon="3.81752">
        <ele>47</ele>
        <time>2021-02-28T15:34:42Z</time>
      </trkpt>
      <trkpt lat="43.62349" lon="3.81753">
        <ele>47</ele>
        <time>2021-02-28T15:34:43Z</time>
      </trkpt>
      <trkpt lat="43.62356" lon="3.81754">
        <ele>47</ele>
        <time>2021-02-28T15:34:44Z</time>
      </trkpt>
      <trkpt lat="43.62373" lon="3.81755">
        <ele>47</ele>
        <time>2021-02-28T15:34:46Z</time>
      </trkpt>
      <trkpt lat="43.62378" lon="3.81755">
        <ele>53</ele>
        <time>2021-02-28T15:34:47Z</time>
      </trkpt>
      <trkpt lat="43.62384" lon="3.81755">
        <ele>53</ele>
        <time>2021-02-28T15:34:48Z</time>
      </trkpt>
      <trkpt lat="43.62389" lon="3.81755">
        <ele>53</ele>
        <time>2021-02-28T15:34:49Z</time>
      </trkpt>
      <trkpt lat="43.62393" lon="3.81754">
        <ele>53</ele>
        <time>2021-02-28T15:34:50Z</time>
      </trkpt>
      <trkpt lat="43.62397" lon="3.81754">
        <ele>53</ele>
        <time>2021-02-28T15:34:51Z</time>
      </trkpt>
      <trkpt lat="43.62405" lon="3.81752">
        <ele>53</ele>
        <time>2021-02-28T15:34:53Z</time>
      </trkpt>
      <trkpt lat="43.62409" lon="3.81751">
        <ele>53</ele>
        <time>2021-02-28T15:34:54Z</time>
      </trkpt>
      <trkpt lat="43.62414" lon="3.81751">
        <ele>53</ele>
        <time>2021-02-28T15:34:55Z</time>
      </trkpt>
      <trkpt lat="43.62419" lon="3.81751">
        <ele>53</ele>
        <time>2021-02-28T15:34:56Z</time>
      </trkpt>
      <trkpt lat="43.62424" lon="3.81751">
        <ele>56</ele>
        <time>2021-02-28T15:34:57Z</time>
      </trkpt>
      <trkpt lat="43.62428" lon="3.81751">
        <ele>56</ele>
        <time>2021-02-28T15:34:59Z</time>
      </trkpt>
      <trkpt lat="43.62433" lon="3.8175">
        <ele>56</ele>
        <time>2021-02-28T15:35:00Z</time>
      </trkpt>
      <trkpt lat="43.62439" lon="3.81751">
        <ele>56</ele>
        <time>2021-02-28T15:35:01Z</time>
      </trkpt>
      <trkpt lat="43.62444" lon="3.81752">
        <ele>56</ele>
        <time>2021-02-28T15:35:02Z</time>
      </trkpt>
      <trkpt lat="43.62452" lon="3.81756">
        <ele>56</ele>
        <time>2021-02-28T15:35:03Z</time>
      </trkpt>
      <trkpt lat="43.62464" lon="3.81758">
        <ele>56</ele>
        <time>2021-02-28T15:35:05Z</time>
      </trkpt>
      <trkpt lat="43.62469" lon="3.81758">
        <ele>56</ele>
        <time>2021-02-28T15:35:06Z</time>
      </trkpt>
      <trkpt lat="43.62473" lon="3.81757">
        <ele>54</ele>
        <time>2021-02-28T15:35:07Z</time>
      </trkpt>
      <trkpt lat="43.62477" lon="3.81756">
        <ele>54</ele>
        <time>2021-02-28T15:35:08Z</time>
      </trkpt>
      <trkpt lat="43.62481" lon="3.81754">
        <ele>54</ele>
        <time>2021-02-28T15:35:09Z</time>
      </trkpt>
      <trkpt lat="43.62484" lon="3.81754">
        <ele>54</ele>
        <time>2021-02-28T15:35:10Z</time>
      </trkpt>
      <trkpt lat="43.62488" lon="3.81753">
        <ele>54</ele>
        <time>2021-02-28T15:35:11Z</time>
      </trkpt>
      <trkpt lat="43.62492" lon="3.81753">
        <ele>54</ele>
        <time>2021-02-28T15:35:12Z</time>
      </trkpt>
      <trkpt lat="43.62496" lon="3.81753">
        <ele>54</ele>
        <time>2021-02-28T15:35:13Z</time>
      </trkpt>
      <trkpt lat="43.62501" lon="3.81753">
        <ele>54</ele>
        <time>2021-02-28T15:35:14Z</time>
      </trkpt>
      <trkpt lat="43.62505" lon="3.81752">
        <ele>54</ele>
        <time>2021-02-28T15:35:15Z</time>
      </trkpt>
      <trkpt lat="43.62509" lon="3.81752">
        <ele>54</ele>
        <time>2021-02-28T15:35:16Z</time>
      </trkpt>
      <trkpt lat="43.62513" lon="3.81751">
        <ele>54</ele>
        <time>2021-02-28T15:35:17Z</time>
      </trkpt>
      <trkpt lat="43.62517" lon="3.81751">
        <ele>54</ele>
        <time>2021-02-28T15:35:18Z</time>
      </trkpt>
      <trkpt lat="43.62521" lon="3.81751">
        <ele>54</ele>
        <time>2021-02-28T15:35:19Z</time>
      </trkpt>
      <trkpt lat="43.62525" lon="3.81752">
        <ele>54</ele>
        <time>2021-02-28T15:35:20Z</time>
      </trkpt>
      <trkpt lat="43.62529" lon="3.81752">
        <ele>54</ele>
        <time>2021-02-28T15:35:21Z</time>
      </trkpt>
      <trkpt lat="43.62534" lon="3.81752">
        <ele>54</ele>
        <time>2021-02-28T15:35:22Z</time>
      </trkpt>
      <trkpt lat="43.62538" lon="3.81752">
        <ele>54</ele>
        <time>2021-02-28T15:35:23Z</time>
      </trkpt>
      <trkpt lat="43.62543" lon="3.81752">
        <ele>54</ele>
        <time>2021-02-28T15:35:24Z</time>
      </trkpt>
      <trkpt lat="43.62547" lon="3.81752">
        <ele>54</ele>
        <time>2021-02-28T15:35:25Z</time>
      </trkpt>
      <trkpt lat="43.62551" lon="3.81752">
        <ele>54</ele>
        <time>2021-02-28T15:35:26Z</time>
      </trkpt>
      <trkpt lat="43.62554" lon="3.81752">
        <ele>55</ele>
        <time>2021-02-28T15:35:27Z</time>
      </trkpt>
      <trkpt lat="43.62557" lon="3.81753">
        <ele>55</ele>
        <time>2021-02-28T15:35:28Z</time>
      </trkpt>
      <trkpt lat="43.62561" lon="3.81753">
        <ele>55</ele>
        <time>2021-02-28T15:35:29Z</time>
      </trkpt>
      <trkpt lat="43.62564" lon="3.81753">
        <ele>55</ele>
        <time>2021-02-28T15:35:30Z</time>
      </trkpt>
      <trkpt lat="43.62567" lon="3.81754">
        <ele>55</ele>
        <time>2021-02-28T15:35:32Z</time>
      </trkpt>
      <trkpt lat="43.62574" lon="3.81759">
        <ele>55</ele>
        <time>2021-02-28T15:35:34Z</time>
      </trkpt>
      <trkpt lat="43.62577" lon="3.8176">
        <ele>55</ele>
        <time>2021-02-28T15:35:35Z</time>
      </trkpt>
      <trkpt lat="43.62582" lon="3.81761">
        <ele>55</ele>
        <time>2021-02-28T15:35:36Z</time>
      </trkpt>
      <trkpt lat="43.62588" lon="3.81761">
        <ele>56</ele>
        <time>2021-02-28T15:35:37Z</time>
      </trkpt>
      <trkpt lat="43.62593" lon="3.8176">
        <ele>56</ele>
        <time>2021-02-28T15:35:38Z</time>
      </trkpt>
      <trkpt lat="43.62597" lon="3.81759">
        <ele>56</ele>
        <time>2021-02-28T15:35:39Z</time>
      </trkpt>
      <trkpt lat="43.62604" lon="3.8176">
        <ele>56</ele>
        <time>2021-02-28T15:35:41Z</time>
      </trkpt>
      <trkpt lat="43.62606" lon="3.8176">
        <ele>56</ele>
        <time>2021-02-28T15:35:42Z</time>
      </trkpt>
      <trkpt lat="43.62616" lon="3.81763">
        <ele>56</ele>
        <time>2021-02-28T15:35:45Z</time>
      </trkpt>
      <trkpt lat="43.6263" lon="3.81763">
        <ele>56</ele>
        <time>2021-02-28T15:35:48Z</time>
      </trkpt>
      <trkpt lat="43.62638" lon="3.81761">
        <ele>56</ele>
        <time>2021-02-28T15:35:50Z</time>
      </trkpt>
      <trkpt lat="43.62643" lon="3.81761">
        <ele>56</ele>
        <time>2021-02-28T15:35:51Z</time>
      </trkpt>
      <trkpt lat="43.62647" lon="3.8176">
        <ele>56</ele>
        <time>2021-02-28T15:35:52Z</time>
      </trkpt>
      <trkpt lat="43.62652" lon="3.8176">
        <ele>56</ele>
        <time>2021-02-28T15:35:53Z</time>
      </trkpt>
      <trkpt lat="43.62655" lon="3.81761">
        <ele>56</ele>
        <time>2021-02-28T15:35:54Z</time>
      </trkpt>
      <trkpt lat="43.62659" lon="3.81762">
        <ele>56</ele>
        <time>2021-02-28T15:35:55Z</time>
      </trkpt>
      <trkpt lat="43.62663" lon="3.81763">
        <ele>56</ele>
        <time>2021-02-28T15:35:56Z</time>
      </trkpt>
      <trkpt lat="43.62668" lon="3.81762">
        <ele>61</ele>
        <time>2021-02-28T15:35:57Z</time>
      </trkpt>
      <trkpt lat="43.62672" lon="3.81761">
        <ele>61</ele>
        <time>2021-02-28T15:35:58Z</time>
      </trkpt>
      <trkpt lat="43.62677" lon="3.81762">
        <ele>61</ele>
        <time>2021-02-28T15:35:59Z</time>
      </trkpt>
      <trkpt lat="43.62683" lon="3.81763">
        <ele>61</ele>
        <time>2021-02-28T15:36:00Z</time>
      </trkpt>
      <trkpt lat="43.62693" lon="3.81765">
        <ele>61</ele>
        <time>2021-02-28T15:36:02Z</time>
      </trkpt>
      <trkpt lat="43.62695" lon="3.81769">
        <ele>61</ele>
        <time>2021-02-28T15:36:03Z</time>
      </trkpt>
      <trkpt lat="43.62699" lon="3.81777">
        <ele>61</ele>
        <time>2021-02-28T15:36:05Z</time>
      </trkpt>
      <trkpt lat="43.627" lon="3.81778">
        <ele>58</ele>
        <time>2021-02-28T15:36:07Z</time>
      </trkpt>
      <trkpt lat="43.62702" lon="3.81777">
        <ele>58</ele>
        <time>2021-02-28T15:36:08Z</time>
      </trkpt>
      <trkpt lat="43.62705" lon="3.81774">
        <ele>58</ele>
        <time>2021-02-28T15:36:09Z</time>
      </trkpt>
      <trkpt lat="43.62707" lon="3.81771">
        <ele>58</ele>
        <time>2021-02-28T15:36:10Z</time>
      </trkpt>
      <trkpt lat="43.62711" lon="3.81768">
        <ele>58</ele>
        <time>2021-02-28T15:36:11Z</time>
      </trkpt>
      <trkpt lat="43.62715" lon="3.81766">
        <ele>58</ele>
        <time>2021-02-28T15:36:12Z</time>
      </trkpt>
      <trkpt lat="43.62719" lon="3.81766">
        <ele>58</ele>
        <time>2021-02-28T15:36:13Z</time>
      </trkpt>
      <trkpt lat="43.62723" lon="3.81765">
        <ele>58</ele>
        <time>2021-02-28T15:36:14Z</time>
      </trkpt>
      <trkpt lat="43.62726" lon="3.81765">
        <ele>58</ele>
        <time>2021-02-28T15:36:15Z</time>
      </trkpt>
      <trkpt lat="43.62729" lon="3.81766">
        <ele>58</ele>
        <time>2021-02-28T15:36:16Z</time>
      </trkpt>
      <trkpt lat="43.62732" lon="3.81766">
        <ele>57</ele>
        <time>2021-02-28T15:36:17Z</time>
      </trkpt>
      <trkpt lat="43.62735" lon="3.81764">
        <ele>57</ele>
        <time>2021-02-28T15:36:18Z</time>
      </trkpt>
      <trkpt lat="43.62739" lon="3.81762">
        <ele>57</ele>
        <time>2021-02-28T15:36:19Z</time>
      </trkpt>
      <trkpt lat="43.62745" lon="3.81763">
        <ele>57</ele>
        <time>2021-02-28T15:36:20Z</time>
      </trkpt>
      <trkpt lat="43.62756" lon="3.81765">
        <ele>57</ele>
        <time>2021-02-28T15:36:22Z</time>
      </trkpt>
      <trkpt lat="43.6276" lon="3.81766">
        <ele>57</ele>
        <time>2021-02-28T15:36:23Z</time>
      </trkpt>
      <trkpt lat="43.62764" lon="3.81765">
        <ele>57</ele>
        <time>2021-02-28T15:36:24Z</time>
      </trkpt>
      <trkpt lat="43.6277" lon="3.81765">
        <ele>57</ele>
        <time>2021-02-28T15:36:25Z</time>
      </trkpt>
      <trkpt lat="43.62781" lon="3.81764">
        <ele>58</ele>
        <time>2021-02-28T15:36:27Z</time>
      </trkpt>
      <trkpt lat="43.62787" lon="3.81764">
        <ele>58</ele>
        <time>2021-02-28T15:36:28Z</time>
      </trkpt>
      <trkpt lat="43.62792" lon="3.81765">
        <ele>58</ele>
        <time>2021-02-28T15:36:29Z</time>
      </trkpt>
      <trkpt lat="43.62796" lon="3.81765">
        <ele>58</ele>
        <time>2021-02-28T15:36:30Z</time>
      </trkpt>
      <trkpt lat="43.62801" lon="3.81765">
        <ele>58</ele>
        <time>2021-02-28T15:36:31Z</time>
      </trkpt>
      <trkpt lat="43.62805" lon="3.81766">
        <ele>58</ele>
        <time>2021-02-28T15:36:32Z</time>
      </trkpt>
      <trkpt lat="43.62809" lon="3.81766">
        <ele>58</ele>
        <time>2021-02-28T15:36:33Z</time>
      </trkpt>
      <trkpt lat="43.62813" lon="3.81766">
        <ele>58</ele>
        <time>2021-02-28T15:36:34Z</time>
      </trkpt>
      <trkpt lat="43.62817" lon="3.81766">
        <ele>58</ele>
        <time>2021-02-28T15:36:35Z</time>
      </trkpt>
      <trkpt lat="43.62821" lon="3.81766">
        <ele>58</ele>
        <time>2021-02-28T15:36:36Z</time>
      </trkpt>
      <trkpt lat="43.62826" lon="3.81766">
        <ele>56</ele>
        <time>2021-02-28T15:36:37Z</time>
      </trkpt>
      <trkpt lat="43.62834" lon="3.81767">
        <ele>56</ele>
        <time>2021-02-28T15:36:39Z</time>
      </trkpt>
      <trkpt lat="43.62839" lon="3.81767">
        <ele>56</ele>
        <time>2021-02-28T15:36:40Z</time>
      </trkpt>
      <trkpt lat="43.62846" lon="3.81767">
        <ele>56</ele>
        <time>2021-02-28T15:36:42Z</time>
      </trkpt>
      <trkpt lat="43.62853" lon="3.81768">
        <ele>56</ele>
        <time>2021-02-28T15:36:44Z</time>
      </trkpt>
      <trkpt lat="43.62856" lon="3.81769">
        <ele>56</ele>
        <time>2021-02-28T15:36:45Z</time>
      </trkpt>
      <trkpt lat="43.6286" lon="3.8177">
        <ele>56</ele>
        <time>2021-02-28T15:36:46Z</time>
      </trkpt>
      <trkpt lat="43.62864" lon="3.8177">
        <ele>56</ele>
        <time>2021-02-28T15:36:47Z</time>
      </trkpt>
      <trkpt lat="43.62867" lon="3.8177">
        <ele>56</ele>
        <time>2021-02-28T15:36:48Z</time>
      </trkpt>
      <trkpt lat="43.62871" lon="3.8177">
        <ele>56</ele>
        <time>2021-02-28T15:36:49Z</time>
      </trkpt>
      <trkpt lat="43.62878" lon="3.81771">
        <ele>56</ele>
        <time>2021-02-28T15:36:51Z</time>
      </trkpt>
      <trkpt lat="43.62883" lon="3.81771">
        <ele>56</ele>
        <time>2021-02-28T15:36:53Z</time>
      </trkpt>
      <trkpt lat="43.62886" lon="3.81771">
        <ele>56</ele>
        <time>2021-02-28T15:36:54Z</time>
      </trkpt>
      <trkpt lat="43.62889" lon="3.81771">
        <ele>56</ele>
        <time>2021-02-28T15:36:55Z</time>
      </trkpt>
      <trkpt lat="43.62893" lon="3.81771">
        <ele>56</ele>
        <time>2021-02-28T15:36:57Z</time>
      </trkpt>
      <trkpt lat="43.62898" lon="3.81772">
        <ele>56</ele>
        <time>2021-02-28T15:36:59Z</time>
      </trkpt>
      <trkpt lat="43.62901" lon="3.81772">
        <ele>56</ele>
        <time>2021-02-28T15:37:00Z</time>
      </trkpt>
      <trkpt lat="43.62904" lon="3.81772">
        <ele>56</ele>
        <time>2021-02-28T15:37:01Z</time>
      </trkpt>
      <trkpt lat="43.62907" lon="3.81773">
        <ele>56</ele>
        <time>2021-02-28T15:37:02Z</time>
      </trkpt>
      <trkpt lat="43.62915" lon="3.81776">
        <ele>56</ele>
        <time>2021-02-28T15:37:04Z</time>
      </trkpt>
      <trkpt lat="43.6292" lon="3.8178">
        <ele>56</ele>
        <time>2021-02-28T15:37:06Z</time>
      </trkpt>
      <trkpt lat="43.62922" lon="3.81783">
        <ele>57</ele>
        <time>2021-02-28T15:37:07Z</time>
      </trkpt>
      <trkpt lat="43.62924" lon="3.81785">
        <ele>57</ele>
        <time>2021-02-28T15:37:08Z</time>
      </trkpt>
      <trkpt lat="43.6293" lon="3.8179">
        <ele>57</ele>
        <time>2021-02-28T15:37:10Z</time>
      </trkpt>
      <trkpt lat="43.62932" lon="3.81793">
        <ele>57</ele>
        <time>2021-02-28T15:37:11Z</time>
      </trkpt>
      <trkpt lat="43.62935" lon="3.81795">
        <ele>57</ele>
        <time>2021-02-28T15:37:12Z</time>
      </trkpt>
      <trkpt lat="43.62938" lon="3.81796">
        <ele>57</ele>
        <time>2021-02-28T15:37:13Z</time>
      </trkpt>
      <trkpt lat="43.62941" lon="3.81798">
        <ele>57</ele>
        <time>2021-02-28T15:37:14Z</time>
      </trkpt>
      <trkpt lat="43.62944" lon="3.818">
        <ele>57</ele>
        <time>2021-02-28T15:37:15Z</time>
      </trkpt>
      <trkpt lat="43.62946" lon="3.81803">
        <ele>57</ele>
        <time>2021-02-28T15:37:16Z</time>
      </trkpt>
      <trkpt lat="43.6295" lon="3.81807">
        <ele>57</ele>
        <time>2021-02-28T15:37:18Z</time>
      </trkpt>
      <trkpt lat="43.62953" lon="3.81809">
        <ele>57</ele>
        <time>2021-02-28T15:37:19Z</time>
      </trkpt>
      <trkpt lat="43.62956" lon="3.8181">
        <ele>57</ele>
        <time>2021-02-28T15:37:20Z</time>
      </trkpt>
      <trkpt lat="43.62959" lon="3.81812">
        <ele>57</ele>
        <time>2021-02-28T15:37:21Z</time>
      </trkpt>
      <trkpt lat="43.62963" lon="3.81814">
        <ele>57</ele>
        <time>2021-02-28T15:37:22Z</time>
      </trkpt>
      <trkpt lat="43.62965" lon="3.81817">
        <ele>57</ele>
        <time>2021-02-28T15:37:23Z</time>
      </trkpt>
      <trkpt lat="43.62967" lon="3.8182">
        <ele>57</ele>
        <time>2021-02-28T15:37:24Z</time>
      </trkpt>
      <trkpt lat="43.6297" lon="3.81822">
        <ele>57</ele>
        <time>2021-02-28T15:37:25Z</time>
      </trkpt>
      <trkpt lat="43.62972" lon="3.81823">
        <ele>57</ele>
        <time>2021-02-28T15:37:26Z</time>
      </trkpt>
      <trkpt lat="43.62975" lon="3.81824">
        <ele>58</ele>
        <time>2021-02-28T15:37:27Z</time>
      </trkpt>
      <trkpt lat="43.62977" lon="3.81826">
        <ele>58</ele>
        <time>2021-02-28T15:37:29Z</time>
      </trkpt>
      <trkpt lat="43.62984" lon="3.8183">
        <ele>58</ele>
        <time>2021-02-28T15:37:32Z</time>
      </trkpt>
      <trkpt lat="43.62986" lon="3.81832">
        <ele>58</ele>
        <time>2021-02-28T15:37:33Z</time>
      </trkpt>
      <trkpt lat="43.62988" lon="3.81835">
        <ele>58</ele>
        <time>2021-02-28T15:37:34Z</time>
      </trkpt>
      <trkpt lat="43.6299" lon="3.81838">
        <ele>58</ele>
        <time>2021-02-28T15:37:35Z</time>
      </trkpt>
      <trkpt lat="43.62992" lon="3.81842">
        <ele>58</ele>
        <time>2021-02-28T15:37:36Z</time>
      </trkpt>
      <trkpt lat="43.62994" lon="3.81845">
        <ele>60</ele>
        <time>2021-02-28T15:37:37Z</time>
      </trkpt>
      <trkpt lat="43.62995" lon="3.81848">
        <ele>60</ele>
        <time>2021-02-28T15:37:38Z</time>
      </trkpt>
      <trkpt lat="43.63005" lon="3.81858">
        <ele>60</ele>
        <time>2021-02-28T15:37:41Z</time>
      </trkpt>
      <trkpt lat="43.63012" lon="3.81867">
        <ele>60</ele>
        <time>2021-02-28T15:37:43Z</time>
      </trkpt>
      <trkpt lat="43.63017" lon="3.81872">
        <ele>60</ele>
        <time>2021-02-28T15:37:44Z</time>
      </trkpt>
      <trkpt lat="43.63021" lon="3.81875">
        <ele>60</ele>
        <time>2021-02-28T15:37:45Z</time>
      </trkpt>
      <trkpt lat="43.63025" lon="3.81879">
        <ele>60</ele>
        <time>2021-02-28T15:37:46Z</time>
      </trkpt>
      <trkpt lat="43.6303" lon="3.81882">
        <ele>58</ele>
        <time>2021-02-28T15:37:47Z</time>
      </trkpt>
      <trkpt lat="43.63034" lon="3.81886">
        <ele>58</ele>
        <time>2021-02-28T15:37:48Z</time>
      </trkpt>
      <trkpt lat="43.63037" lon="3.81891">
        <ele>58</ele>
        <time>2021-02-28T15:37:49Z</time>
      </trkpt>
      <trkpt lat="43.63041" lon="3.81895">
        <ele>58</ele>
        <time>2021-02-28T15:37:50Z</time>
      </trkpt>
      <trkpt lat="43.63043" lon="3.81899">
        <ele>58</ele>
        <time>2021-02-28T15:37:51Z</time>
      </trkpt>
      <trkpt lat="43.63045" lon="3.81907">
        <ele>58</ele>
        <time>2021-02-28T15:37:53Z</time>
      </trkpt>
      <trkpt lat="43.63046" lon="3.8191">
        <ele>58</ele>
        <time>2021-02-28T15:37:54Z</time>
      </trkpt>
      <trkpt lat="43.63047" lon="3.81914">
        <ele>58</ele>
        <time>2021-02-28T15:37:55Z</time>
      </trkpt>
      <trkpt lat="43.63047" lon="3.81918">
        <ele>58</ele>
        <time>2021-02-28T15:37:56Z</time>
      </trkpt>
      <trkpt lat="43.63047" lon="3.81922">
        <ele>57</ele>
        <time>2021-02-28T15:37:57Z</time>
      </trkpt>
      <trkpt lat="43.63047" lon="3.81926">
        <ele>57</ele>
        <time>2021-02-28T15:37:58Z</time>
      </trkpt>
      <trkpt lat="43.63046" lon="3.8193">
        <ele>57</ele>
        <time>2021-02-28T15:37:59Z</time>
      </trkpt>
      <trkpt lat="43.63045" lon="3.81935">
        <ele>57</ele>
        <time>2021-02-28T15:38:00Z</time>
      </trkpt>
      <trkpt lat="43.63044" lon="3.81939">
        <ele>57</ele>
        <time>2021-02-28T15:38:01Z</time>
      </trkpt>
      <trkpt lat="43.63044" lon="3.81945">
        <ele>57</ele>
        <time>2021-02-28T15:38:02Z</time>
      </trkpt>
      <trkpt lat="43.63045" lon="3.8195">
        <ele>57</ele>
        <time>2021-02-28T15:38:03Z</time>
      </trkpt>
      <trkpt lat="43.63045" lon="3.81955">
        <ele>57</ele>
        <time>2021-02-28T15:38:04Z</time>
      </trkpt>
      <trkpt lat="43.63045" lon="3.8196">
        <ele>57</ele>
        <time>2021-02-28T15:38:05Z</time>
      </trkpt>
      <trkpt lat="43.63044" lon="3.81965">
        <ele>57</ele>
        <time>2021-02-28T15:38:06Z</time>
      </trkpt>
      <trkpt lat="43.63044" lon="3.8197">
        <ele>56</ele>
        <time>2021-02-28T15:38:07Z</time>
      </trkpt>
      <trkpt lat="43.63045" lon="3.81975">
        <ele>56</ele>
        <time>2021-02-28T15:38:08Z</time>
      </trkpt>
      <trkpt lat="43.63045" lon="3.81984">
        <ele>56</ele>
        <time>2021-02-28T15:38:10Z</time>
      </trkpt>
      <trkpt lat="43.63045" lon="3.81989">
        <ele>56</ele>
        <time>2021-02-28T15:38:11Z</time>
      </trkpt>
      <trkpt lat="43.63047" lon="3.81995">
        <ele>56</ele>
        <time>2021-02-28T15:38:12Z</time>
      </trkpt>
      <trkpt lat="43.6305" lon="3.82001">
        <ele>56</ele>
        <time>2021-02-28T15:38:14Z</time>
      </trkpt>
      <trkpt lat="43.63052" lon="3.82012">
        <ele>56</ele>
        <time>2021-02-28T15:38:15Z</time>
      </trkpt>
      <trkpt lat="43.63052" lon="3.82017">
        <ele>56</ele>
        <time>2021-02-28T15:38:16Z</time>
      </trkpt>
      <trkpt lat="43.63053" lon="3.82022">
        <ele>57</ele>
        <time>2021-02-28T15:38:17Z</time>
      </trkpt>
      <trkpt lat="43.63052" lon="3.82031">
        <ele>57</ele>
        <time>2021-02-28T15:38:19Z</time>
      </trkpt>
      <trkpt lat="43.63052" lon="3.82036">
        <ele>57</ele>
        <time>2021-02-28T15:38:20Z</time>
      </trkpt>
      <trkpt lat="43.63052" lon="3.82041">
        <ele>57</ele>
        <time>2021-02-28T15:38:21Z</time>
      </trkpt>
      <trkpt lat="43.63052" lon="3.82046">
        <ele>57</ele>
        <time>2021-02-28T15:38:22Z</time>
      </trkpt>
      <trkpt lat="43.63052" lon="3.82051">
        <ele>57</ele>
        <time>2021-02-28T15:38:23Z</time>
      </trkpt>
      <trkpt lat="43.63053" lon="3.82057">
        <ele>57</ele>
        <time>2021-02-28T15:38:24Z</time>
      </trkpt>
      <trkpt lat="43.63053" lon="3.82061">
        <ele>57</ele>
        <time>2021-02-28T15:38:25Z</time>
      </trkpt>
      <trkpt lat="43.63054" lon="3.82066">
        <ele>57</ele>
        <time>2021-02-28T15:38:26Z</time>
      </trkpt>
      <trkpt lat="43.63053" lon="3.8207">
        <ele>57</ele>
        <time>2021-02-28T15:38:27Z</time>
      </trkpt>
      <trkpt lat="43.63053" lon="3.82074">
        <ele>57</ele>
        <time>2021-02-28T15:38:28Z</time>
      </trkpt>
      <trkpt lat="43.63054" lon="3.82077">
        <ele>57</ele>
        <time>2021-02-28T15:38:29Z</time>
      </trkpt>
      <trkpt lat="43.63056" lon="3.82078">
        <ele>57</ele>
        <time>2021-02-28T15:38:30Z</time>
      </trkpt>
      <trkpt lat="43.63058" lon="3.82078">
        <ele>57</ele>
        <time>2021-02-28T15:38:31Z</time>
      </trkpt>
      <trkpt lat="43.63061" lon="3.82076">
        <ele>57</ele>
        <time>2021-02-28T15:38:32Z</time>
      </trkpt>
      <trkpt lat="43.63066" lon="3.82076">
        <ele>57</ele>
        <time>2021-02-28T15:38:33Z</time>
      </trkpt>
      <trkpt lat="43.6307" lon="3.82076">
        <ele>57</ele>
        <time>2021-02-28T15:38:34Z</time>
      </trkpt>
      <trkpt lat="43.63074" lon="3.82076">
        <ele>57</ele>
        <time>2021-02-28T15:38:35Z</time>
      </trkpt>
      <trkpt lat="43.63077" lon="3.82078">
        <ele>57</ele>
        <time>2021-02-28T15:38:36Z</time>
      </trkpt>
      <trkpt lat="43.63079" lon="3.82082">
        <ele>58</ele>
        <time>2021-02-28T15:38:37Z</time>
      </trkpt>
      <trkpt lat="43.6308" lon="3.82087">
        <ele>58</ele>
        <time>2021-02-28T15:38:38Z</time>
      </trkpt>
      <trkpt lat="43.6308" lon="3.82091">
        <ele>58</ele>
        <time>2021-02-28T15:38:39Z</time>
      </trkpt>
      <trkpt lat="43.63081" lon="3.82101">
        <ele>58</ele>
        <time>2021-02-28T15:38:41Z</time>
      </trkpt>
      <trkpt lat="43.63082" lon="3.82106">
        <ele>58</ele>
        <time>2021-02-28T15:38:42Z</time>
      </trkpt>
      <trkpt lat="43.63083" lon="3.82111">
        <ele>58</ele>
        <time>2021-02-28T15:38:43Z</time>
      </trkpt>
      <trkpt lat="43.63085" lon="3.82115">
        <ele>58</ele>
        <time>2021-02-28T15:38:44Z</time>
      </trkpt>
      <trkpt lat="43.63087" lon="3.82119">
        <ele>58</ele>
        <time>2021-02-28T15:38:45Z</time>
      </trkpt>
      <trkpt lat="43.63089" lon="3.82122">
        <ele>58</ele>
        <time>2021-02-28T15:38:46Z</time>
      </trkpt>
      <trkpt lat="43.63093" lon="3.82123">
        <ele>57</ele>
        <time>2021-02-28T15:38:47Z</time>
      </trkpt>
      <trkpt lat="43.63096" lon="3.82124">
        <ele>57</ele>
        <time>2021-02-28T15:38:48Z</time>
      </trkpt>
      <trkpt lat="43.631" lon="3.82123">
        <ele>57</ele>
        <time>2021-02-28T15:38:49Z</time>
      </trkpt>
      <trkpt lat="43.63103" lon="3.82124">
        <ele>57</ele>
        <time>2021-02-28T15:38:50Z</time>
      </trkpt>
      <trkpt lat="43.63107" lon="3.82125">
        <ele>57</ele>
        <time>2021-02-28T15:38:51Z</time>
      </trkpt>
      <trkpt lat="43.6311" lon="3.82126">
        <ele>57</ele>
        <time>2021-02-28T15:38:52Z</time>
      </trkpt>
      <trkpt lat="43.63115" lon="3.82126">
        <ele>57</ele>
        <time>2021-02-28T15:38:54Z</time>
      </trkpt>
      <trkpt lat="43.63118" lon="3.82126">
        <ele>57</ele>
        <time>2021-02-28T15:38:55Z</time>
      </trkpt>
      <trkpt lat="43.6312" lon="3.82126">
        <ele>57</ele>
        <time>2021-02-28T15:38:56Z</time>
      </trkpt>
      <trkpt lat="43.63123" lon="3.82127">
        <ele>57</ele>
        <time>2021-02-28T15:38:57Z</time>
      </trkpt>
      <trkpt lat="43.63125" lon="3.82128">
        <ele>57</ele>
        <time>2021-02-28T15:38:58Z</time>
      </trkpt>
      <trkpt lat="43.63137" lon="3.82129">
        <ele>57</ele>
        <time>2021-02-28T15:39:01Z</time>
      </trkpt>
      <trkpt lat="43.63144" lon="3.8214">
        <ele>57</ele>
        <time>2021-02-28T15:39:04Z</time>
      </trkpt>
      <trkpt lat="43.63146" lon="3.82144">
        <ele>57</ele>
        <time>2021-02-28T15:39:05Z</time>
      </trkpt>
      <trkpt lat="43.63148" lon="3.82149">
        <ele>57</ele>
        <time>2021-02-28T15:39:06Z</time>
      </trkpt>
      <trkpt lat="43.6315" lon="3.82154">
        <ele>57</ele>
        <time>2021-02-28T15:39:07Z</time>
      </trkpt>
      <trkpt lat="43.63152" lon="3.82158">
        <ele>57</ele>
        <time>2021-02-28T15:39:08Z</time>
      </trkpt>
      <trkpt lat="43.63154" lon="3.82163">
        <ele>57</ele>
        <time>2021-02-28T15:39:09Z</time>
      </trkpt>
      <trkpt lat="43.63156" lon="3.82168">
        <ele>57</ele>
        <time>2021-02-28T15:39:11Z</time>
      </trkpt>
      <trkpt lat="43.6316" lon="3.82176">
        <ele>57</ele>
        <time>2021-02-28T15:39:12Z</time>
      </trkpt>
      <trkpt lat="43.63162" lon="3.8218">
        <ele>57</ele>
        <time>2021-02-28T15:39:13Z</time>
      </trkpt>
      <trkpt lat="43.63164" lon="3.82185">
        <ele>57</ele>
        <time>2021-02-28T15:39:14Z</time>
      </trkpt>
      <trkpt lat="43.63166" lon="3.82188">
        <ele>57</ele>
        <time>2021-02-28T15:39:15Z</time>
      </trkpt>
      <trkpt lat="43.63167" lon="3.82193">
        <ele>57</ele>
        <time>2021-02-28T15:39:16Z</time>
      </trkpt>
      <trkpt lat="43.63169" lon="3.82197">
        <ele>58</ele>
        <time>2021-02-28T15:39:17Z</time>
      </trkpt>
      <trkpt lat="43.6317" lon="3.822">
        <ele>58</ele>
        <time>2021-02-28T15:39:18Z</time>
      </trkpt>
      <trkpt lat="43.63172" lon="3.82204">
        <ele>58</ele>
        <time>2021-02-28T15:39:19Z</time>
      </trkpt>
      <trkpt lat="43.63175" lon="3.82207">
        <ele>58</ele>
        <time>2021-02-28T15:39:20Z</time>
      </trkpt>
      <trkpt lat="43.63178" lon="3.8221">
        <ele>58</ele>
        <time>2021-02-28T15:39:21Z</time>
      </trkpt>
      <trkpt lat="43.63181" lon="3.82213">
        <ele>58</ele>
        <time>2021-02-28T15:39:22Z</time>
      </trkpt>
      <trkpt lat="43.63184" lon="3.82215">
        <ele>58</ele>
        <time>2021-02-28T15:39:23Z</time>
      </trkpt>
      <trkpt lat="43.63187" lon="3.82217">
        <ele>58</ele>
        <time>2021-02-28T15:39:24Z</time>
      </trkpt>
      <trkpt lat="43.63191" lon="3.82217">
        <ele>58</ele>
        <time>2021-02-28T15:39:25Z</time>
      </trkpt>
      <trkpt lat="43.63196" lon="3.82217">
        <ele>58</ele>
        <time>2021-02-28T15:39:26Z</time>
      </trkpt>
      <trkpt lat="43.63203" lon="3.82218">
        <ele>58</ele>
        <time>2021-02-28T15:39:28Z</time>
      </trkpt>
      <trkpt lat="43.63205" lon="3.82219">
        <ele>58</ele>
        <time>2021-02-28T15:39:29Z</time>
      </trkpt>
      <trkpt lat="43.63209" lon="3.8222">
        <ele>58</ele>
        <time>2021-02-28T15:39:30Z</time>
      </trkpt>
      <trkpt lat="43.63212" lon="3.82221">
        <ele>58</ele>
        <time>2021-02-28T15:39:31Z</time>
      </trkpt>
      <trkpt lat="43.63216" lon="3.82221">
        <ele>58</ele>
        <time>2021-02-28T15:39:32Z</time>
      </trkpt>
      <trkpt lat="43.6322" lon="3.82221">
        <ele>58</ele>
        <time>2021-02-28T15:39:33Z</time>
      </trkpt>
      <trkpt lat="43.63224" lon="3.82221">
        <ele>58</ele>
        <time>2021-02-28T15:39:34Z</time>
      </trkpt>
      <trkpt lat="43.63231" lon="3.82221">
        <ele>58</ele>
        <time>2021-02-28T15:39:36Z</time>
      </trkpt>
      <trkpt lat="43.63233" lon="3.82221">
        <ele>60</ele>
        <time>2021-02-28T15:39:37Z</time>
      </trkpt>
      <trkpt lat="43.63236" lon="3.82221">
        <ele>60</ele>
        <time>2021-02-28T15:39:38Z</time>
      </trkpt>
      <trkpt lat="43.63237" lon="3.82222">
        <ele>60</ele>
        <time>2021-02-28T15:39:39Z</time>
      </trkpt>
      <trkpt lat="43.63238" lon="3.82224">
        <ele>60</ele>
        <time>2021-02-28T15:39:40Z</time>
      </trkpt>
      <trkpt lat="43.63239" lon="3.82227">
        <ele>60</ele>
        <time>2021-02-28T15:39:41Z</time>
      </trkpt>
      <trkpt lat="43.63239" lon="3.82232">
        <ele>60</ele>
        <time>2021-02-28T15:39:42Z</time>
      </trkpt>
      <trkpt lat="43.63241" lon="3.82235">
        <ele>60</ele>
        <time>2021-02-28T15:39:43Z</time>
      </trkpt>
      <trkpt lat="43.63243" lon="3.82238">
        <ele>60</ele>
        <time>2021-02-28T15:39:44Z</time>
      </trkpt>
      <trkpt lat="43.63246" lon="3.8224">
        <ele>60</ele>
        <time>2021-02-28T15:39:45Z</time>
      </trkpt>
      <trkpt lat="43.63248" lon="3.8224">
        <ele>60</ele>
        <time>2021-02-28T15:39:46Z</time>
      </trkpt>
      <trkpt lat="43.63251" lon="3.8224">
        <ele>60</ele>
        <time>2021-02-28T15:39:47Z</time>
      </trkpt>
      <trkpt lat="43.63257" lon="3.82241">
        <ele>60</ele>
        <time>2021-02-28T15:39:49Z</time>
      </trkpt>
      <trkpt lat="43.6326" lon="3.82241">
        <ele>60</ele>
        <time>2021-02-28T15:39:50Z</time>
      </trkpt>
      <trkpt lat="43.63264" lon="3.82243">
        <ele>60</ele>
        <time>2021-02-28T15:39:51Z</time>
      </trkpt>
      <trkpt lat="43.63269" lon="3.8225">
        <ele>60</ele>
        <time>2021-02-28T15:39:53Z</time>
      </trkpt>
      <trkpt lat="43.6327" lon="3.82255">
        <ele>60</ele>
        <time>2021-02-28T15:39:54Z</time>
      </trkpt>
      <trkpt lat="43.63271" lon="3.82259">
        <ele>60</ele>
        <time>2021-02-28T15:39:55Z</time>
      </trkpt>
      <trkpt lat="43.63274" lon="3.82263">
        <ele>61</ele>
        <time>2021-02-28T15:39:57Z</time>
      </trkpt>
      <trkpt lat="43.63277" lon="3.82263">
        <ele>61</ele>
        <time>2021-02-28T15:39:58Z</time>
      </trkpt>
      <trkpt lat="43.6328" lon="3.82263">
        <ele>61</ele>
        <time>2021-02-28T15:39:59Z</time>
      </trkpt>
      <trkpt lat="43.63283" lon="3.82263">
        <ele>61</ele>
        <time>2021-02-28T15:40:00Z</time>
      </trkpt>
      <trkpt lat="43.63285" lon="3.82263">
        <ele>61</ele>
        <time>2021-02-28T15:40:01Z</time>
      </trkpt>
      <trkpt lat="43.63288" lon="3.82264">
        <ele>61</ele>
        <time>2021-02-28T15:40:02Z</time>
      </trkpt>
      <trkpt lat="43.6329" lon="3.82263">
        <ele>61</ele>
        <time>2021-02-28T15:40:03Z</time>
      </trkpt>
      <trkpt lat="43.63293" lon="3.82264">
        <ele>61</ele>
        <time>2021-02-28T15:40:04Z</time>
      </trkpt>
      <trkpt lat="43.63296" lon="3.82264">
        <ele>61</ele>
        <time>2021-02-28T15:40:05Z</time>
      </trkpt>
      <trkpt lat="43.63299" lon="3.82264">
        <ele>61</ele>
        <time>2021-02-28T15:40:06Z</time>
      </trkpt>
      <trkpt lat="43.63302" lon="3.82264">
        <ele>62</ele>
        <time>2021-02-28T15:40:07Z</time>
      </trkpt>
      <trkpt lat="43.63305" lon="3.82264">
        <ele>62</ele>
        <time>2021-02-28T15:40:08Z</time>
      </trkpt>
      <trkpt lat="43.6331" lon="3.82264">
        <ele>62</ele>
        <time>2021-02-28T15:40:10Z</time>
      </trkpt>
      <trkpt lat="43.63313" lon="3.82264">
        <ele>62</ele>
        <time>2021-02-28T15:40:11Z</time>
      </trkpt>
      <trkpt lat="43.63315" lon="3.82264">
        <ele>62</ele>
        <time>2021-02-28T15:40:12Z</time>
      </trkpt>
      <trkpt lat="43.63321" lon="3.82265">
        <ele>62</ele>
        <time>2021-02-28T15:40:14Z</time>
      </trkpt>
      <trkpt lat="43.63323" lon="3.82265">
        <ele>62</ele>
        <time>2021-02-28T15:40:15Z</time>
      </trkpt>
      <trkpt lat="43.63325" lon="3.82265">
        <ele>62</ele>
        <time>2021-02-28T15:40:16Z</time>
      </trkpt>
      <trkpt lat="43.63328" lon="3.82265">
        <ele>64</ele>
        <time>2021-02-28T15:40:17Z</time>
      </trkpt>
      <trkpt lat="43.6333" lon="3.82266">
        <ele>64</ele>
        <time>2021-02-28T15:40:18Z</time>
      </trkpt>
      <trkpt lat="43.63332" lon="3.82268">
        <ele>64</ele>
        <time>2021-02-28T15:40:20Z</time>
      </trkpt>
      <trkpt lat="43.63334" lon="3.8227">
        <ele>64</ele>
        <time>2021-02-28T15:40:22Z</time>
      </trkpt>
      <trkpt lat="43.63337" lon="3.82271">
        <ele>64</ele>
        <time>2021-02-28T15:40:23Z</time>
      </trkpt>
      <trkpt lat="43.6334" lon="3.82271">
        <ele>64</ele>
        <time>2021-02-28T15:40:24Z</time>
      </trkpt>
      <trkpt lat="43.63342" lon="3.82272">
        <ele>64</ele>
        <time>2021-02-28T15:40:25Z</time>
      </trkpt>
      <trkpt lat="43.63345" lon="3.82272">
        <ele>64</ele>
        <time>2021-02-28T15:40:26Z</time>
      </trkpt>
      <trkpt lat="43.63348" lon="3.82272">
        <ele>66</ele>
        <time>2021-02-28T15:40:27Z</time>
      </trkpt>
      <trkpt lat="43.63351" lon="3.82272">
        <ele>66</ele>
        <time>2021-02-28T15:40:28Z</time>
      </trkpt>
      <trkpt lat="43.63354" lon="3.82272">
        <ele>66</ele>
        <time>2021-02-28T15:40:29Z</time>
      </trkpt>
      <trkpt lat="43.63356" lon="3.82272">
        <ele>66</ele>
        <time>2021-02-28T15:40:30Z</time>
      </trkpt>
      <trkpt lat="43.63359" lon="3.82273">
        <ele>66</ele>
        <time>2021-02-28T15:40:31Z</time>
      </trkpt>
      <trkpt lat="43.63361" lon="3.82272">
        <ele>66</ele>
        <time>2021-02-28T15:40:32Z</time>
      </trkpt>
      <trkpt lat="43.63364" lon="3.82272">
        <ele>66</ele>
        <time>2021-02-28T15:40:33Z</time>
      </trkpt>
      <trkpt lat="43.63367" lon="3.82272">
        <ele>66</ele>
        <time>2021-02-28T15:40:34Z</time>
      </trkpt>
      <trkpt lat="43.63369" lon="3.82272">
        <ele>66</ele>
        <time>2021-02-28T15:40:35Z</time>
      </trkpt>
      <trkpt lat="43.63372" lon="3.82272">
        <ele>66</ele>
        <time>2021-02-28T15:40:36Z</time>
      </trkpt>
      <trkpt lat="43.63374" lon="3.82271">
        <ele>68</ele>
        <time>2021-02-28T15:40:37Z</time>
      </trkpt>
      <trkpt lat="43.63377" lon="3.82271">
        <ele>68</ele>
        <time>2021-02-28T15:40:38Z</time>
      </trkpt>
      <trkpt lat="43.63379" lon="3.82271">
        <ele>68</ele>
        <time>2021-02-28T15:40:39Z</time>
      </trkpt>
      <trkpt lat="43.63382" lon="3.82271">
        <ele>68</ele>
        <time>2021-02-28T15:40:40Z</time>
      </trkpt>
      <trkpt lat="43.63384" lon="3.82271">
        <ele>68</ele>
        <time>2021-02-28T15:40:41Z</time>
      </trkpt>
      <trkpt lat="43.63386" lon="3.8227">
        <ele>68</ele>
        <time>2021-02-28T15:40:42Z</time>
      </trkpt>
      <trkpt lat="43.63389" lon="3.8227">
        <ele>68</ele>
        <time>2021-02-28T15:40:43Z</time>
      </trkpt>
      <trkpt lat="43.63391" lon="3.8227">
        <ele>68</ele>
        <time>2021-02-28T15:40:44Z</time>
      </trkpt>
      <trkpt lat="43.63394" lon="3.8227">
        <ele>68</ele>
        <time>2021-02-28T15:40:45Z</time>
      </trkpt>
      <trkpt lat="43.63396" lon="3.8227">
        <ele>68</ele>
        <time>2021-02-28T15:40:46Z</time>
      </trkpt>
      <trkpt lat="43.63398" lon="3.8227">
        <ele>71</ele>
        <time>2021-02-28T15:40:47Z</time>
      </trkpt>
      <trkpt lat="43.63401" lon="3.8227">
        <ele>71</ele>
        <time>2021-02-28T15:40:48Z</time>
      </trkpt>
      <trkpt lat="43.63403" lon="3.82269">
        <ele>71</ele>
        <time>2021-02-28T15:40:49Z</time>
      </trkpt>
      <trkpt lat="43.63405" lon="3.82269">
        <ele>71</ele>
        <time>2021-02-28T15:40:50Z</time>
      </trkpt>
      <trkpt lat="43.6341" lon="3.82269">
        <ele>71</ele>
        <time>2021-02-28T15:40:52Z</time>
      </trkpt>
      <trkpt lat="43.63413" lon="3.82269">
        <ele>71</ele>
        <time>2021-02-28T15:40:53Z</time>
      </trkpt>
      <trkpt lat="43.63415" lon="3.82269">
        <ele>71</ele>
        <time>2021-02-28T15:40:54Z</time>
      </trkpt>
      <trkpt lat="43.6342" lon="3.82268">
        <ele>71</ele>
        <time>2021-02-28T15:40:56Z</time>
      </trkpt>
      <trkpt lat="43.63422" lon="3.82268">
        <ele>74</ele>
        <time>2021-02-28T15:40:57Z</time>
      </trkpt>
      <trkpt lat="43.63425" lon="3.82268">
        <ele>74</ele>
        <time>2021-02-28T15:40:58Z</time>
      </trkpt>
      <trkpt lat="43.63427" lon="3.82268">
        <ele>74</ele>
        <time>2021-02-28T15:41:00Z</time>
      </trkpt>
      <trkpt lat="43.6343" lon="3.82268">
        <ele>74</ele>
        <time>2021-02-28T15:41:01Z</time>
      </trkpt>
      <trkpt lat="43.63432" lon="3.82268">
        <ele>74</ele>
        <time>2021-02-28T15:41:02Z</time>
      </trkpt>
      <trkpt lat="43.63434" lon="3.82269">
        <ele>74</ele>
        <time>2021-02-28T15:41:03Z</time>
      </trkpt>
      <trkpt lat="43.63439" lon="3.82269">
        <ele>74</ele>
        <time>2021-02-28T15:41:04Z</time>
      </trkpt>
      <trkpt lat="43.63442" lon="3.8227">
        <ele>74</ele>
        <time>2021-02-28T15:41:05Z</time>
      </trkpt>
      <trkpt lat="43.63444" lon="3.82272">
        <ele>74</ele>
        <time>2021-02-28T15:41:06Z</time>
      </trkpt>
      <trkpt lat="43.63446" lon="3.82273">
        <ele>75</ele>
        <time>2021-02-28T15:41:07Z</time>
      </trkpt>
      <trkpt lat="43.6345" lon="3.82276">
        <ele>75</ele>
        <time>2021-02-28T15:41:09Z</time>
      </trkpt>
      <trkpt lat="43.63451" lon="3.82277">
        <ele>75</ele>
        <time>2021-02-28T15:41:10Z</time>
      </trkpt>
      <trkpt lat="43.63454" lon="3.82277">
        <ele>75</ele>
        <time>2021-02-28T15:41:11Z</time>
      </trkpt>
      <trkpt lat="43.63458" lon="3.82277">
        <ele>75</ele>
        <time>2021-02-28T15:41:13Z</time>
      </trkpt>
      <trkpt lat="43.6346" lon="3.82276">
        <ele>75</ele>
        <time>2021-02-28T15:41:14Z</time>
      </trkpt>
      <trkpt lat="43.63463" lon="3.82276">
        <ele>75</ele>
        <time>2021-02-28T15:41:15Z</time>
      </trkpt>
      <trkpt lat="43.63465" lon="3.82276">
        <ele>77</ele>
        <time>2021-02-28T15:41:17Z</time>
      </trkpt>
      <trkpt lat="43.63471" lon="3.82276">
        <ele>77</ele>
        <time>2021-02-28T15:41:18Z</time>
      </trkpt>
      <trkpt lat="43.63473" lon="3.82276">
        <ele>77</ele>
        <time>2021-02-28T15:41:19Z</time>
      </trkpt>
      <trkpt lat="43.63475" lon="3.82276">
        <ele>77</ele>
        <time>2021-02-28T15:41:20Z</time>
      </trkpt>
      <trkpt lat="43.63477" lon="3.82276">
        <ele>77</ele>
        <time>2021-02-28T15:41:21Z</time>
      </trkpt>
      <trkpt lat="43.63479" lon="3.82276">
        <ele>77</ele>
        <time>2021-02-28T15:41:22Z</time>
      </trkpt>
      <trkpt lat="43.63481" lon="3.82276">
        <ele>77</ele>
        <time>2021-02-28T15:41:23Z</time>
      </trkpt>
      <trkpt lat="43.63484" lon="3.82276">
        <ele>77</ele>
        <time>2021-02-28T15:41:24Z</time>
      </trkpt>
      <trkpt lat="43.63487" lon="3.82276">
        <ele>77</ele>
        <time>2021-02-28T15:41:25Z</time>
      </trkpt>
      <trkpt lat="43.63489" lon="3.82276">
        <ele>77</ele>
        <time>2021-02-28T15:41:26Z</time>
      </trkpt>
      <trkpt lat="43.63492" lon="3.82276">
        <ele>78</ele>
        <time>2021-02-28T15:41:27Z</time>
      </trkpt>
      <trkpt lat="43.63494" lon="3.82276">
        <ele>78</ele>
        <time>2021-02-28T15:41:28Z</time>
      </trkpt>
      <trkpt lat="43.63497" lon="3.82276">
        <ele>78</ele>
        <time>2021-02-28T15:41:29Z</time>
      </trkpt>
      <trkpt lat="43.63499" lon="3.82276">
        <ele>78</ele>
        <time>2021-02-28T15:41:30Z</time>
      </trkpt>
      <trkpt lat="43.63502" lon="3.82275">
        <ele>78</ele>
        <time>2021-02-28T15:41:31Z</time>
      </trkpt>
      <trkpt lat="43.63505" lon="3.82275">
        <ele>78</ele>
        <time>2021-02-28T15:41:32Z</time>
      </trkpt>
      <trkpt lat="43.6351" lon="3.82275">
        <ele>78</ele>
        <time>2021-02-28T15:41:34Z</time>
      </trkpt>
      <trkpt lat="43.63512" lon="3.82275">
        <ele>78</ele>
        <time>2021-02-28T15:41:35Z</time>
      </trkpt>
      <trkpt lat="43.63515" lon="3.82275">
        <ele>78</ele>
        <time>2021-02-28T15:41:36Z</time>
      </trkpt>
      <trkpt lat="43.6352" lon="3.82275">
        <ele>78</ele>
        <time>2021-02-28T15:41:38Z</time>
      </trkpt>
      <trkpt lat="43.63523" lon="3.82275">
        <ele>78</ele>
        <time>2021-02-28T15:41:39Z</time>
      </trkpt>
      <trkpt lat="43.63526" lon="3.82275">
        <ele>78</ele>
        <time>2021-02-28T15:41:40Z</time>
      </trkpt>
      <trkpt lat="43.63529" lon="3.82275">
        <ele>78</ele>
        <time>2021-02-28T15:41:41Z</time>
      </trkpt>
      <trkpt lat="43.63531" lon="3.82275">
        <ele>78</ele>
        <time>2021-02-28T15:41:42Z</time>
      </trkpt>
      <trkpt lat="43.63535" lon="3.82274">
        <ele>78</ele>
        <time>2021-02-28T15:41:44Z</time>
      </trkpt>
      <trkpt lat="43.63537" lon="3.82274">
        <ele>78</ele>
        <time>2021-02-28T15:41:45Z</time>
      </trkpt>
      <trkpt lat="43.63539" lon="3.82274">
        <ele>78</ele>
        <time>2021-02-28T15:41:46Z</time>
      </trkpt>
      <trkpt lat="43.63542" lon="3.82274">
        <ele>80</ele>
        <time>2021-02-28T15:41:47Z</time>
      </trkpt>
      <trkpt lat="43.63544" lon="3.82274">
        <ele>80</ele>
        <time>2021-02-28T15:41:48Z</time>
      </trkpt>
      <trkpt lat="43.63546" lon="3.82274">
        <ele>80</ele>
        <time>2021-02-28T15:41:49Z</time>
      </trkpt>
      <trkpt lat="43.63551" lon="3.82274">
        <ele>80</ele>
        <time>2021-02-28T15:41:51Z</time>
      </trkpt>
      <trkpt lat="43.63553" lon="3.82273">
        <ele>80</ele>
        <time>2021-02-28T15:41:52Z</time>
      </trkpt>
      <trkpt lat="43.63556" lon="3.82273">
        <ele>80</ele>
        <time>2021-02-28T15:41:53Z</time>
      </trkpt>
      <trkpt lat="43.63559" lon="3.82273">
        <ele>80</ele>
        <time>2021-02-28T15:41:54Z</time>
      </trkpt>
      <trkpt lat="43.63562" lon="3.82273">
        <ele>80</ele>
        <time>2021-02-28T15:41:55Z</time>
      </trkpt>
      <trkpt lat="43.63564" lon="3.82273">
        <ele>80</ele>
        <time>2021-02-28T15:41:56Z</time>
      </trkpt>
      <trkpt lat="43.63567" lon="3.82273">
        <ele>81</ele>
        <time>2021-02-28T15:41:57Z</time>
      </trkpt>
      <trkpt lat="43.63569" lon="3.82273">
        <ele>81</ele>
        <time>2021-02-28T15:41:58Z</time>
      </trkpt>
      <trkpt lat="43.63572" lon="3.82272">
        <ele>81</ele>
        <time>2021-02-28T15:41:59Z</time>
      </trkpt>
      <trkpt lat="43.63575" lon="3.82272">
        <ele>81</ele>
        <time>2021-02-28T15:42:00Z</time>
      </trkpt>
      <trkpt lat="43.63578" lon="3.82272">
        <ele>81</ele>
        <time>2021-02-28T15:42:01Z</time>
      </trkpt>
      <trkpt lat="43.6358" lon="3.82272">
        <ele>81</ele>
        <time>2021-02-28T15:42:02Z</time>
      </trkpt>
      <trkpt lat="43.63583" lon="3.82272">
        <ele>81</ele>
        <time>2021-02-28T15:42:03Z</time>
      </trkpt>
      <trkpt lat="43.63585" lon="3.82272">
        <ele>81</ele>
        <time>2021-02-28T15:42:04Z</time>
      </trkpt>
      <trkpt lat="43.63588" lon="3.82272">
        <ele>81</ele>
        <time>2021-02-28T15:42:05Z</time>
      </trkpt>
      <trkpt lat="43.63591" lon="3.82272">
        <ele>81</ele>
        <time>2021-02-28T15:42:06Z</time>
      </trkpt>
      <trkpt lat="43.63594" lon="3.82273">
        <ele>83</ele>
        <time>2021-02-28T15:42:07Z</time>
      </trkpt>
      <trkpt lat="43.63598" lon="3.82273">
        <ele>83</ele>
        <time>2021-02-28T15:42:09Z</time>
      </trkpt>
      <trkpt lat="43.636" lon="3.82274">
        <ele>83</ele>
        <time>2021-02-28T15:42:10Z</time>
      </trkpt>
      <trkpt lat="43.63606" lon="3.82274">
        <ele>83</ele>
        <time>2021-02-28T15:42:12Z</time>
      </trkpt>
      <trkpt lat="43.63608" lon="3.82274">
        <ele>83</ele>
        <time>2021-02-28T15:42:13Z</time>
      </trkpt>
      <trkpt lat="43.63611" lon="3.82274">
        <ele>83</ele>
        <time>2021-02-28T15:42:14Z</time>
      </trkpt>
      <trkpt lat="43.63617" lon="3.82274">
        <ele>83</ele>
        <time>2021-02-28T15:42:16Z</time>
      </trkpt>
      <trkpt lat="43.6362" lon="3.82274">
        <ele>85</ele>
        <time>2021-02-28T15:42:17Z</time>
      </trkpt>
      <trkpt lat="43.63623" lon="3.82273">
        <ele>85</ele>
        <time>2021-02-28T15:42:18Z</time>
      </trkpt>
      <trkpt lat="43.63625" lon="3.82273">
        <ele>85</ele>
        <time>2021-02-28T15:42:19Z</time>
      </trkpt>
      <trkpt lat="43.63628" lon="3.82272">
        <ele>85</ele>
        <time>2021-02-28T15:42:20Z</time>
      </trkpt>
      <trkpt lat="43.63631" lon="3.82272">
        <ele>85</ele>
        <time>2021-02-28T15:42:21Z</time>
      </trkpt>
      <trkpt lat="43.63633" lon="3.82272">
        <ele>85</ele>
        <time>2021-02-28T15:42:22Z</time>
      </trkpt>
      <trkpt lat="43.63635" lon="3.82272">
        <ele>85</ele>
        <time>2021-02-28T15:42:23Z</time>
      </trkpt>
      <trkpt lat="43.63638" lon="3.82271">
        <ele>85</ele>
        <time>2021-02-28T15:42:24Z</time>
      </trkpt>
      <trkpt lat="43.6364" lon="3.82271">
        <ele>85</ele>
        <time>2021-02-28T15:42:25Z</time>
      </trkpt>
      <trkpt lat="43.63642" lon="3.82271">
        <ele>85</ele>
        <time>2021-02-28T15:42:26Z</time>
      </trkpt>
      <trkpt lat="43.63644" lon="3.82271">
        <ele>87</ele>
        <time>2021-02-28T15:42:27Z</time>
      </trkpt>
      <trkpt lat="43.63646" lon="3.82271">
        <ele>87</ele>
        <time>2021-02-28T15:42:28Z</time>
      </trkpt>
      <trkpt lat="43.63649" lon="3.82271">
        <ele>87</ele>
        <time>2021-02-28T15:42:29Z</time>
      </trkpt>
      <trkpt lat="43.63651" lon="3.82271">
        <ele>87</ele>
        <time>2021-02-28T15:42:30Z</time>
      </trkpt>
      <trkpt lat="43.63654" lon="3.82271">
        <ele>87</ele>
        <time>2021-02-28T15:42:31Z</time>
      </trkpt>
      <trkpt lat="43.63659" lon="3.82271">
        <ele>87</ele>
        <time>2021-02-28T15:42:33Z</time>
      </trkpt>
      <trkpt lat="43.63661" lon="3.82271">
        <ele>87</ele>
        <time>2021-02-28T15:42:34Z</time>
      </trkpt>
      <trkpt lat="43.63663" lon="3.82271">
        <ele>87</ele>
        <time>2021-02-28T15:42:35Z</time>
      </trkpt>
      <trkpt lat="43.63666" lon="3.8227">
        <ele>88</ele>
        <time>2021-02-28T15:42:37Z</time>
      </trkpt>
      <trkpt lat="43.63671" lon="3.82269">
        <ele>88</ele>
        <time>2021-02-28T15:42:38Z</time>
      </trkpt>
      <trkpt lat="43.63673" lon="3.82268">
        <ele>88</ele>
        <time>2021-02-28T15:42:39Z</time>
      </trkpt>
      <trkpt lat="43.63676" lon="3.82268">
        <ele>88</ele>
        <time>2021-02-28T15:42:40Z</time>
      </trkpt>
      <trkpt lat="43.63678" lon="3.82268">
        <ele>88</ele>
        <time>2021-02-28T15:42:41Z</time>
      </trkpt>
      <trkpt lat="43.6368" lon="3.82268">
        <ele>88</ele>
        <time>2021-02-28T15:42:42Z</time>
      </trkpt>
      <trkpt lat="43.63683" lon="3.82269">
        <ele>88</ele>
        <time>2021-02-28T15:42:43Z</time>
      </trkpt>
      <trkpt lat="43.63685" lon="3.82269">
        <ele>88</ele>
        <time>2021-02-28T15:42:44Z</time>
      </trkpt>
      <trkpt lat="43.63688" lon="3.8227">
        <ele>88</ele>
        <time>2021-02-28T15:42:45Z</time>
      </trkpt>
      <trkpt lat="43.6369" lon="3.82271">
        <ele>88</ele>
        <time>2021-02-28T15:42:46Z</time>
      </trkpt>
      <trkpt lat="43.63693" lon="3.82272">
        <ele>89</ele>
        <time>2021-02-28T15:42:47Z</time>
      </trkpt>
      <trkpt lat="43.63698" lon="3.82275">
        <ele>89</ele>
        <time>2021-02-28T15:42:49Z</time>
      </trkpt>
      <trkpt lat="43.63703" lon="3.82278">
        <ele>89</ele>
        <time>2021-02-28T15:42:51Z</time>
      </trkpt>
      <trkpt lat="43.63705" lon="3.8228">
        <ele>89</ele>
        <time>2021-02-28T15:42:52Z</time>
      </trkpt>
      <trkpt lat="43.63707" lon="3.82281">
        <ele>89</ele>
        <time>2021-02-28T15:42:53Z</time>
      </trkpt>
      <trkpt lat="43.63709" lon="3.82283">
        <ele>89</ele>
        <time>2021-02-28T15:42:54Z</time>
      </trkpt>
      <trkpt lat="43.63711" lon="3.82285">
        <ele>89</ele>
        <time>2021-02-28T15:42:55Z</time>
      </trkpt>
      <trkpt lat="43.63712" lon="3.82287">
        <ele>89</ele>
        <time>2021-02-28T15:42:56Z</time>
      </trkpt>
      <trkpt lat="43.63713" lon="3.82289">
        <ele>90</ele>
        <time>2021-02-28T15:42:57Z</time>
      </trkpt>
      <trkpt lat="43.63715" lon="3.82291">
        <ele>90</ele>
        <time>2021-02-28T15:42:58Z</time>
      </trkpt>
      <trkpt lat="43.63716" lon="3.82294">
        <ele>90</ele>
        <time>2021-02-28T15:42:59Z</time>
      </trkpt>
      <trkpt lat="43.63718" lon="3.82297">
        <ele>90</ele>
        <time>2021-02-28T15:43:00Z</time>
      </trkpt>
      <trkpt lat="43.63721" lon="3.82302">
        <ele>90</ele>
        <time>2021-02-28T15:43:02Z</time>
      </trkpt>
      <trkpt lat="43.63725" lon="3.82307">
        <ele>90</ele>
        <time>2021-02-28T15:43:04Z</time>
      </trkpt>
      <trkpt lat="43.63726" lon="3.8231">
        <ele>90</ele>
        <time>2021-02-28T15:43:05Z</time>
      </trkpt>
      <trkpt lat="43.63727" lon="3.82313">
        <ele>90</ele>
        <time>2021-02-28T15:43:06Z</time>
      </trkpt>
      <trkpt lat="43.63729" lon="3.82318">
        <ele>90</ele>
        <time>2021-02-28T15:43:08Z</time>
      </trkpt>
      <trkpt lat="43.6373" lon="3.82321">
        <ele>90</ele>
        <time>2021-02-28T15:43:09Z</time>
      </trkpt>
      <trkpt lat="43.63731" lon="3.82323">
        <ele>90</ele>
        <time>2021-02-28T15:43:10Z</time>
      </trkpt>
      <trkpt lat="43.63733" lon="3.82326">
        <ele>90</ele>
        <time>2021-02-28T15:43:11Z</time>
      </trkpt>
      <trkpt lat="43.63734" lon="3.82329">
        <ele>90</ele>
        <time>2021-02-28T15:43:13Z</time>
      </trkpt>
      <trkpt lat="43.63735" lon="3.82332">
        <ele>90</ele>
        <time>2021-02-28T15:43:14Z</time>
      </trkpt>
      <trkpt lat="43.63736" lon="3.82335">
        <ele>90</ele>
        <time>2021-02-28T15:43:15Z</time>
      </trkpt>
      <trkpt lat="43.63736" lon="3.82337">
        <ele>90</ele>
        <time>2021-02-28T15:43:16Z</time>
      </trkpt>
      <trkpt lat="43.63738" lon="3.82343">
        <ele>93</ele>
        <time>2021-02-28T15:43:17Z</time>
      </trkpt>
      <trkpt lat="43.6374" lon="3.82349">
        <ele>93</ele>
        <time>2021-02-28T15:43:19Z</time>
      </trkpt>
      <trkpt lat="43.63742" lon="3.82354">
        <ele>93</ele>
        <time>2021-02-28T15:43:21Z</time>
      </trkpt>
      <trkpt lat="43.63742" lon="3.82357">
        <ele>93</ele>
        <time>2021-02-28T15:43:22Z</time>
      </trkpt>
      <trkpt lat="43.63743" lon="3.8236">
        <ele>93</ele>
        <time>2021-02-28T15:43:23Z</time>
      </trkpt>
      <trkpt lat="43.63745" lon="3.82366">
        <ele>93</ele>
        <time>2021-02-28T15:43:25Z</time>
      </trkpt>
      <trkpt lat="43.63747" lon="3.8237">
        <ele>93</ele>
        <time>2021-02-28T15:43:26Z</time>
      </trkpt>
      <trkpt lat="43.63748" lon="3.82373">
        <ele>94</ele>
        <time>2021-02-28T15:43:27Z</time>
      </trkpt>
      <trkpt lat="43.63749" lon="3.82376">
        <ele>94</ele>
        <time>2021-02-28T15:43:28Z</time>
      </trkpt>
      <trkpt lat="43.63751" lon="3.82379">
        <ele>94</ele>
        <time>2021-02-28T15:43:29Z</time>
      </trkpt>
      <trkpt lat="43.63752" lon="3.82382">
        <ele>94</ele>
        <time>2021-02-28T15:43:30Z</time>
      </trkpt>
      <trkpt lat="43.63754" lon="3.82385">
        <ele>94</ele>
        <time>2021-02-28T15:43:31Z</time>
      </trkpt>
      <trkpt lat="43.63754" lon="3.82388">
        <ele>94</ele>
        <time>2021-02-28T15:43:32Z</time>
      </trkpt>
      <trkpt lat="43.63755" lon="3.82391">
        <ele>94</ele>
        <time>2021-02-28T15:43:33Z</time>
      </trkpt>
      <trkpt lat="43.63756" lon="3.82395">
        <ele>94</ele>
        <time>2021-02-28T15:43:34Z</time>
      </trkpt>
      <trkpt lat="43.63757" lon="3.82398">
        <ele>94</ele>
        <time>2021-02-28T15:43:35Z</time>
      </trkpt>
      <trkpt lat="43.63759" lon="3.82401">
        <ele>94</ele>
        <time>2021-02-28T15:43:36Z</time>
      </trkpt>
      <trkpt lat="43.6376" lon="3.82404">
        <ele>95</ele>
        <time>2021-02-28T15:43:37Z</time>
      </trkpt>
      <trkpt lat="43.63761" lon="3.82407">
        <ele>95</ele>
        <time>2021-02-28T15:43:38Z</time>
      </trkpt>
      <trkpt lat="43.63762" lon="3.8241">
        <ele>95</ele>
        <time>2021-02-28T15:43:39Z</time>
      </trkpt>
      <trkpt lat="43.63764" lon="3.82413">
        <ele>95</ele>
        <time>2021-02-28T15:43:40Z</time>
      </trkpt>
      <trkpt lat="43.63766" lon="3.82417">
        <ele>95</ele>
        <time>2021-02-28T15:43:41Z</time>
      </trkpt>
      <trkpt lat="43.63767" lon="3.8242">
        <ele>95</ele>
        <time>2021-02-28T15:43:42Z</time>
      </trkpt>
      <trkpt lat="43.63768" lon="3.82423">
        <ele>95</ele>
        <time>2021-02-28T15:43:43Z</time>
      </trkpt>
      <trkpt lat="43.6377" lon="3.82427">
        <ele>95</ele>
        <time>2021-02-28T15:43:44Z</time>
      </trkpt>
      <trkpt lat="43.63771" lon="3.8243">
        <ele>95</ele>
        <time>2021-02-28T15:43:45Z</time>
      </trkpt>
      <trkpt lat="43.63773" lon="3.82433">
        <ele>95</ele>
        <time>2021-02-28T15:43:46Z</time>
      </trkpt>
      <trkpt lat="43.63774" lon="3.82436">
        <ele>97</ele>
        <time>2021-02-28T15:43:47Z</time>
      </trkpt>
      <trkpt lat="43.63775" lon="3.82439">
        <ele>97</ele>
        <time>2021-02-28T15:43:48Z</time>
      </trkpt>
      <trkpt lat="43.63777" lon="3.82445">
        <ele>97</ele>
        <time>2021-02-28T15:43:50Z</time>
      </trkpt>
      <trkpt lat="43.63779" lon="3.82448">
        <ele>97</ele>
        <time>2021-02-28T15:43:51Z</time>
      </trkpt>
      <trkpt lat="43.63781" lon="3.82451">
        <ele>97</ele>
        <time>2021-02-28T15:43:52Z</time>
      </trkpt>
      <trkpt lat="43.63784" lon="3.82458">
        <ele>97</ele>
        <time>2021-02-28T15:43:54Z</time>
      </trkpt>
      <trkpt lat="43.6379" lon="3.82468">
        <ele>99</ele>
        <time>2021-02-28T15:43:57Z</time>
      </trkpt>
      <trkpt lat="43.63795" lon="3.82476">
        <ele>99</ele>
        <time>2021-02-28T15:43:59Z</time>
      </trkpt>
      <trkpt lat="43.63797" lon="3.82479">
        <ele>99</ele>
        <time>2021-02-28T15:44:00Z</time>
      </trkpt>
      <trkpt lat="43.63798" lon="3.82483">
        <ele>99</ele>
        <time>2021-02-28T15:44:01Z</time>
      </trkpt>
      <trkpt lat="43.638" lon="3.82486">
        <ele>99</ele>
        <time>2021-02-28T15:44:02Z</time>
      </trkpt>
      <trkpt lat="43.63802" lon="3.82489">
        <ele>99</ele>
        <time>2021-02-28T15:44:03Z</time>
      </trkpt>
      <trkpt lat="43.63803" lon="3.82493">
        <ele>99</ele>
        <time>2021-02-28T15:44:04Z</time>
      </trkpt>
      <trkpt lat="43.63804" lon="3.82497">
        <ele>99</ele>
        <time>2021-02-28T15:44:05Z</time>
      </trkpt>
      <trkpt lat="43.63805" lon="3.825">
        <ele>99</ele>
        <time>2021-02-28T15:44:06Z</time>
      </trkpt>
      <trkpt lat="43.63806" lon="3.82503">
        <ele>99</ele>
        <time>2021-02-28T15:44:07Z</time>
      </trkpt>
      <trkpt lat="43.63807" lon="3.82506">
        <ele>99</ele>
        <time>2021-02-28T15:44:08Z</time>
      </trkpt>
      <trkpt lat="43.63806" lon="3.82509">
        <ele>99</ele>
        <time>2021-02-28T15:44:13Z</time>
      </trkpt>
      <trkpt lat="43.63808" lon="3.82514">
        <ele>99</ele>
        <time>2021-02-28T15:44:15Z</time>
      </trkpt>
      <trkpt lat="43.63808" lon="3.82517">
        <ele>99</ele>
        <time>2021-02-28T15:44:16Z</time>
      </trkpt>
      <trkpt lat="43.63809" lon="3.82521">
        <ele>98</ele>
        <time>2021-02-28T15:44:17Z</time>
      </trkpt>
      <trkpt lat="43.6381" lon="3.82524">
        <ele>98</ele>
        <time>2021-02-28T15:44:19Z</time>
      </trkpt>
      <trkpt lat="43.63811" lon="3.82528">
        <ele>98</ele>
        <time>2021-02-28T15:44:20Z</time>
      </trkpt>
      <trkpt lat="43.63812" lon="3.82532">
        <ele>98</ele>
        <time>2021-02-28T15:44:21Z</time>
      </trkpt>
      <trkpt lat="43.63815" lon="3.82539">
        <ele>98</ele>
        <time>2021-02-28T15:44:22Z</time>
      </trkpt>
      <trkpt lat="43.63816" lon="3.82543">
        <ele>98</ele>
        <time>2021-02-28T15:44:23Z</time>
      </trkpt>
      <trkpt lat="43.63818" lon="3.82546">
        <ele>98</ele>
        <time>2021-02-28T15:44:24Z</time>
      </trkpt>
      <trkpt lat="43.63819" lon="3.82551">
        <ele>98</ele>
        <time>2021-02-28T15:44:25Z</time>
      </trkpt>
      <trkpt lat="43.6382" lon="3.82555">
        <ele>98</ele>
        <time>2021-02-28T15:44:26Z</time>
      </trkpt>
      <trkpt lat="43.63822" lon="3.82559">
        <ele>96</ele>
        <time>2021-02-28T15:44:27Z</time>
      </trkpt>
      <trkpt lat="43.63823" lon="3.82564">
        <ele>96</ele>
        <time>2021-02-28T15:44:28Z</time>
      </trkpt>
      <trkpt lat="43.63825" lon="3.82568">
        <ele>96</ele>
        <time>2021-02-28T15:44:29Z</time>
      </trkpt>
      <trkpt lat="43.63826" lon="3.82573">
        <ele>96</ele>
        <time>2021-02-28T15:44:30Z</time>
      </trkpt>
      <trkpt lat="43.6383" lon="3.82584">
        <ele>96</ele>
        <time>2021-02-28T15:44:32Z</time>
      </trkpt>
      <trkpt lat="43.63832" lon="3.8259">
        <ele>96</ele>
        <time>2021-02-28T15:44:33Z</time>
      </trkpt>
      <trkpt lat="43.63836" lon="3.82603">
        <ele>96</ele>
        <time>2021-02-28T15:44:35Z</time>
      </trkpt>
      <trkpt lat="43.63839" lon="3.82609">
        <ele>96</ele>
        <time>2021-02-28T15:44:36Z</time>
      </trkpt>
      <trkpt lat="43.63841" lon="3.82616">
        <ele>94</ele>
        <time>2021-02-28T15:44:37Z</time>
      </trkpt>
      <trkpt lat="43.63844" lon="3.82623">
        <ele>94</ele>
        <time>2021-02-28T15:44:38Z</time>
      </trkpt>
      <trkpt lat="43.63846" lon="3.82631">
        <ele>94</ele>
        <time>2021-02-28T15:44:39Z</time>
      </trkpt>
      <trkpt lat="43.63849" lon="3.82638">
        <ele>94</ele>
        <time>2021-02-28T15:44:40Z</time>
      </trkpt>
      <trkpt lat="43.63852" lon="3.82647">
        <ele>94</ele>
        <time>2021-02-28T15:44:41Z</time>
      </trkpt>
      <trkpt lat="43.63855" lon="3.82655">
        <ele>94</ele>
        <time>2021-02-28T15:44:42Z</time>
      </trkpt>
      <trkpt lat="43.63859" lon="3.82665">
        <ele>94</ele>
        <time>2021-02-28T15:44:43Z</time>
      </trkpt>
      <trkpt lat="43.63862" lon="3.82674">
        <ele>94</ele>
        <time>2021-02-28T15:44:44Z</time>
      </trkpt>
      <trkpt lat="43.63865" lon="3.82683">
        <ele>94</ele>
        <time>2021-02-28T15:44:45Z</time>
      </trkpt>
      <trkpt lat="43.63869" lon="3.82693">
        <ele>94</ele>
        <time>2021-02-28T15:44:46Z</time>
      </trkpt>
      <trkpt lat="43.63872" lon="3.82703">
        <ele>90</ele>
        <time>2021-02-28T15:44:47Z</time>
      </trkpt>
      <trkpt lat="43.63876" lon="3.82713">
        <ele>90</ele>
        <time>2021-02-28T15:44:48Z</time>
      </trkpt>
      <trkpt lat="43.63879" lon="3.82723">
        <ele>90</ele>
        <time>2021-02-28T15:44:49Z</time>
      </trkpt>
      <trkpt lat="43.63883" lon="3.82733">
        <ele>90</ele>
        <time>2021-02-28T15:44:50Z</time>
      </trkpt>
      <trkpt lat="43.63886" lon="3.82743">
        <ele>90</ele>
        <time>2021-02-28T15:44:51Z</time>
      </trkpt>
      <trkpt lat="43.6389" lon="3.82753">
        <ele>90</ele>
        <time>2021-02-28T15:44:52Z</time>
      </trkpt>
      <trkpt lat="43.63894" lon="3.82763">
        <ele>90</ele>
        <time>2021-02-28T15:44:53Z</time>
      </trkpt>
      <trkpt lat="43.63898" lon="3.82771">
        <ele>90</ele>
        <time>2021-02-28T15:44:54Z</time>
      </trkpt>
      <trkpt lat="43.63906" lon="3.82788">
        <ele>90</ele>
        <time>2021-02-28T15:44:56Z</time>
      </trkpt>
      <trkpt lat="43.63911" lon="3.82795">
        <ele>85</ele>
        <time>2021-02-28T15:44:57Z</time>
      </trkpt>
      <trkpt lat="43.63915" lon="3.82803">
        <ele>85</ele>
        <time>2021-02-28T15:44:58Z</time>
      </trkpt>
      <trkpt lat="43.63922" lon="3.82819">
        <ele>85</ele>
        <time>2021-02-28T15:45:00Z</time>
      </trkpt>
      <trkpt lat="43.63924" lon="3.82826">
        <ele>85</ele>
        <time>2021-02-28T15:45:01Z</time>
      </trkpt>
      <trkpt lat="43.63927" lon="3.8283">
        <ele>85</ele>
        <time>2021-02-28T15:45:02Z</time>
      </trkpt>
      <trkpt lat="43.63931" lon="3.8283">
        <ele>85</ele>
        <time>2021-02-28T15:45:03Z</time>
      </trkpt>
      <trkpt lat="43.63934" lon="3.82828">
        <ele>85</ele>
        <time>2021-02-28T15:45:04Z</time>
      </trkpt>
      <trkpt lat="43.63941" lon="3.82827">
        <ele>85</ele>
        <time>2021-02-28T15:45:06Z</time>
      </trkpt>
      <trkpt lat="43.63945" lon="3.8283">
        <ele>83</ele>
        <time>2021-02-28T15:45:07Z</time>
      </trkpt>
      <trkpt lat="43.63949" lon="3.82834">
        <ele>83</ele>
        <time>2021-02-28T15:45:08Z</time>
      </trkpt>
      <trkpt lat="43.63951" lon="3.82839">
        <ele>83</ele>
        <time>2021-02-28T15:45:09Z</time>
      </trkpt>
      <trkpt lat="43.63954" lon="3.82842">
        <ele>83</ele>
        <time>2021-02-28T15:45:10Z</time>
      </trkpt>
      <trkpt lat="43.63957" lon="3.82844">
        <ele>83</ele>
        <time>2021-02-28T15:45:11Z</time>
      </trkpt>
      <trkpt lat="43.63959" lon="3.82846">
        <ele>83</ele>
        <time>2021-02-28T15:45:12Z</time>
      </trkpt>
      <trkpt lat="43.6396" lon="3.82848">
        <ele>83</ele>
        <time>2021-02-28T15:45:13Z</time>
      </trkpt>
      <trkpt lat="43.63961" lon="3.8285">
        <ele>83</ele>
        <time>2021-02-28T15:45:14Z</time>
      </trkpt>
      <trkpt lat="43.63963" lon="3.82851">
        <ele>83</ele>
        <time>2021-02-28T15:45:20Z</time>
      </trkpt>
      <trkpt lat="43.63966" lon="3.82846">
        <ele>83</ele>
        <time>2021-02-28T15:45:23Z</time>
      </trkpt>
      <trkpt lat="43.63968" lon="3.82844">
        <ele>83</ele>
        <time>2021-02-28T15:45:24Z</time>
      </trkpt>
      <trkpt lat="43.63971" lon="3.82842">
        <ele>83</ele>
        <time>2021-02-28T15:45:27Z</time>
      </trkpt>
      <trkpt lat="43.63973" lon="3.82839">
        <ele>83</ele>
        <time>2021-02-28T15:45:28Z</time>
      </trkpt>
      <trkpt lat="43.63975" lon="3.82836">
        <ele>83</ele>
        <time>2021-02-28T15:45:31Z</time>
      </trkpt>
      <trkpt lat="43.63978" lon="3.82834">
        <ele>83</ele>
        <time>2021-02-28T15:45:32Z</time>
      </trkpt>
      <trkpt lat="43.6398" lon="3.82834">
        <ele>83</ele>
        <time>2021-02-28T15:45:34Z</time>
      </trkpt>
      <trkpt lat="43.63983" lon="3.82835">
        <ele>83</ele>
        <time>2021-02-28T15:45:36Z</time>
      </trkpt>
      <trkpt lat="43.63987" lon="3.82836">
        <ele>83</ele>
        <time>2021-02-28T15:45:38Z</time>
      </trkpt>
      <trkpt lat="43.63989" lon="3.82839">
        <ele>83</ele>
        <time>2021-02-28T15:45:40Z</time>
      </trkpt>
      <trkpt lat="43.63991" lon="3.82841">
        <ele>83</ele>
        <time>2021-02-28T15:45:42Z</time>
      </trkpt>
      <trkpt lat="43.63993" lon="3.82845">
        <ele>83</ele>
        <time>2021-02-28T15:45:44Z</time>
      </trkpt>
      <trkpt lat="43.63994" lon="3.82847">
        <ele>83</ele>
        <time>2021-02-28T15:45:48Z</time>
      </trkpt>
      <trkpt lat="43.63987" lon="3.82861">
        <ele>85</ele>
        <time>2021-02-28T15:46:02Z</time>
      </trkpt>
      <trkpt lat="43.63978" lon="3.82866">
        <ele>85</ele>
        <time>2021-02-28T15:46:06Z</time>
      </trkpt>
      <trkpt lat="43.63977" lon="3.82868">
        <ele>85</ele>
        <time>2021-02-28T15:46:07Z</time>
      </trkpt>
      <trkpt lat="43.63976" lon="3.82871">
        <ele>85</ele>
        <time>2021-02-28T15:46:08Z</time>
      </trkpt>
      <trkpt lat="43.63976" lon="3.82875">
        <ele>85</ele>
        <time>2021-02-28T15:46:10Z</time>
      </trkpt>
      <trkpt lat="43.63978" lon="3.82882">
        <ele>85</ele>
        <time>2021-02-28T15:46:13Z</time>
      </trkpt>
      <trkpt lat="43.6398" lon="3.82885">
        <ele>85</ele>
        <time>2021-02-28T15:46:15Z</time>
      </trkpt>
      <trkpt lat="43.63981" lon="3.82889">
        <ele>85</ele>
        <time>2021-02-28T15:46:17Z</time>
      </trkpt>
      <trkpt lat="43.63982" lon="3.82892">
        <ele>85</ele>
        <time>2021-02-28T15:46:18Z</time>
      </trkpt>
      <trkpt lat="43.63982" lon="3.82895">
        <ele>85</ele>
        <time>2021-02-28T15:46:19Z</time>
      </trkpt>
      <trkpt lat="43.63984" lon="3.82897">
        <ele>85</ele>
        <time>2021-02-28T15:46:20Z</time>
      </trkpt>
      <trkpt lat="43.63985" lon="3.82899">
        <ele>85</ele>
        <time>2021-02-28T15:46:21Z</time>
      </trkpt>
      <trkpt lat="43.63986" lon="3.82901">
        <ele>85</ele>
        <time>2021-02-28T15:46:22Z</time>
      </trkpt>
      <trkpt lat="43.63987" lon="3.82905">
        <ele>85</ele>
        <time>2021-02-28T15:46:24Z</time>
      </trkpt>
      <trkpt lat="43.63987" lon="3.82909">
        <ele>85</ele>
        <time>2021-02-28T15:46:26Z</time>
      </trkpt>
      <trkpt lat="43.63985" lon="3.82911">
        <ele>85</ele>
        <time>2021-02-28T15:46:28Z</time>
      </trkpt>
      <trkpt lat="43.63982" lon="3.82908">
        <ele>85</ele>
        <time>2021-02-28T15:46:30Z</time>
      </trkpt>
      <trkpt lat="43.63981" lon="3.82905">
        <ele>85</ele>
        <time>2021-02-28T15:46:31Z</time>
      </trkpt>
      <trkpt lat="43.63978" lon="3.82902">
        <ele>83</ele>
        <time>2021-02-28T15:46:32Z</time>
      </trkpt>
      <trkpt lat="43.63976" lon="3.82898">
        <ele>83</ele>
        <time>2021-02-28T15:46:33Z</time>
      </trkpt>
      <trkpt lat="43.63974" lon="3.82895">
        <ele>83</ele>
        <time>2021-02-28T15:46:34Z</time>
      </trkpt>
      <trkpt lat="43.63971" lon="3.82892">
        <ele>83</ele>
        <time>2021-02-28T15:46:35Z</time>
      </trkpt>
      <trkpt lat="43.63968" lon="3.82888">
        <ele>83</ele>
        <time>2021-02-28T15:46:36Z</time>
      </trkpt>
      <trkpt lat="43.63966" lon="3.82885">
        <ele>83</ele>
        <time>2021-02-28T15:46:37Z</time>
      </trkpt>
      <trkpt lat="43.63963" lon="3.82881">
        <ele>83</ele>
        <time>2021-02-28T15:46:38Z</time>
      </trkpt>
      <trkpt lat="43.63961" lon="3.82877">
        <ele>83</ele>
        <time>2021-02-28T15:46:39Z</time>
      </trkpt>
      <trkpt lat="43.63956" lon="3.8287">
        <ele>82</ele>
        <time>2021-02-28T15:46:41Z</time>
      </trkpt>
      <trkpt lat="43.63953" lon="3.82867">
        <ele>82</ele>
        <time>2021-02-28T15:46:42Z</time>
      </trkpt>
      <trkpt lat="43.6395" lon="3.82866">
        <ele>82</ele>
        <time>2021-02-28T15:46:43Z</time>
      </trkpt>
      <trkpt lat="43.63945" lon="3.82869">
        <ele>82</ele>
        <time>2021-02-28T15:46:45Z</time>
      </trkpt>
      <trkpt lat="43.63942" lon="3.82871">
        <ele>82</ele>
        <time>2021-02-28T15:46:46Z</time>
      </trkpt>
      <trkpt lat="43.63938" lon="3.82872">
        <ele>82</ele>
        <time>2021-02-28T15:46:47Z</time>
      </trkpt>
      <trkpt lat="43.63935" lon="3.82873">
        <ele>82</ele>
        <time>2021-02-28T15:46:48Z</time>
      </trkpt>
      <trkpt lat="43.63931" lon="3.82874">
        <ele>82</ele>
        <time>2021-02-28T15:46:49Z</time>
      </trkpt>
      <trkpt lat="43.63927" lon="3.82877">
        <ele>82</ele>
        <time>2021-02-28T15:46:50Z</time>
      </trkpt>
      <trkpt lat="43.63924" lon="3.8288">
        <ele>81</ele>
        <time>2021-02-28T15:46:51Z</time>
      </trkpt>
      <trkpt lat="43.63921" lon="3.82883">
        <ele>81</ele>
        <time>2021-02-28T15:46:52Z</time>
      </trkpt>
      <trkpt lat="43.63918" lon="3.82887">
        <ele>81</ele>
        <time>2021-02-28T15:46:53Z</time>
      </trkpt>
      <trkpt lat="43.63916" lon="3.82892">
        <ele>81</ele>
        <time>2021-02-28T15:46:54Z</time>
      </trkpt>
      <trkpt lat="43.63913" lon="3.82896">
        <ele>81</ele>
        <time>2021-02-28T15:46:55Z</time>
      </trkpt>
      <trkpt lat="43.6391" lon="3.82901">
        <ele>81</ele>
        <time>2021-02-28T15:46:56Z</time>
      </trkpt>
      <trkpt lat="43.63902" lon="3.82907">
        <ele>81</ele>
        <time>2021-02-28T15:46:58Z</time>
      </trkpt>
      <trkpt lat="43.63898" lon="3.82909">
        <ele>81</ele>
        <time>2021-02-28T15:46:59Z</time>
      </trkpt>
      <trkpt lat="43.63895" lon="3.82912">
        <ele>81</ele>
        <time>2021-02-28T15:47:00Z</time>
      </trkpt>
      <trkpt lat="43.63892" lon="3.82916">
        <ele>80</ele>
        <time>2021-02-28T15:47:01Z</time>
      </trkpt>
      <trkpt lat="43.63889" lon="3.82921">
        <ele>80</ele>
        <time>2021-02-28T15:47:02Z</time>
      </trkpt>
      <trkpt lat="43.63885" lon="3.82926">
        <ele>80</ele>
        <time>2021-02-28T15:47:03Z</time>
      </trkpt>
      <trkpt lat="43.63882" lon="3.8293">
        <ele>80</ele>
        <time>2021-02-28T15:47:04Z</time>
      </trkpt>
      <trkpt lat="43.63879" lon="3.82935">
        <ele>80</ele>
        <time>2021-02-28T15:47:05Z</time>
      </trkpt>
      <trkpt lat="43.63873" lon="3.82943">
        <ele>80</ele>
        <time>2021-02-28T15:47:07Z</time>
      </trkpt>
      <trkpt lat="43.63871" lon="3.82947">
        <ele>80</ele>
        <time>2021-02-28T15:47:08Z</time>
      </trkpt>
      <trkpt lat="43.63868" lon="3.8295">
        <ele>80</ele>
        <time>2021-02-28T15:47:09Z</time>
      </trkpt>
      <trkpt lat="43.63863" lon="3.82956">
        <ele>80</ele>
        <time>2021-02-28T15:47:11Z</time>
      </trkpt>
      <trkpt lat="43.63861" lon="3.82959">
        <ele>80</ele>
        <time>2021-02-28T15:47:12Z</time>
      </trkpt>
      <trkpt lat="43.63858" lon="3.82962">
        <ele>80</ele>
        <time>2021-02-28T15:47:13Z</time>
      </trkpt>
      <trkpt lat="43.63856" lon="3.82965">
        <ele>80</ele>
        <time>2021-02-28T15:47:14Z</time>
      </trkpt>
      <trkpt lat="43.63854" lon="3.82969">
        <ele>80</ele>
        <time>2021-02-28T15:47:16Z</time>
      </trkpt>
      <trkpt lat="43.63851" lon="3.82972">
        <ele>80</ele>
        <time>2021-02-28T15:47:17Z</time>
      </trkpt>
      <trkpt lat="43.63846" lon="3.82978">
        <ele>80</ele>
        <time>2021-02-28T15:47:18Z</time>
      </trkpt>
      <trkpt lat="43.63843" lon="3.82981">
        <ele>80</ele>
        <time>2021-02-28T15:47:19Z</time>
      </trkpt>
      <trkpt lat="43.6384" lon="3.82984">
        <ele>80</ele>
        <time>2021-02-28T15:47:20Z</time>
      </trkpt>
      <trkpt lat="43.63838" lon="3.82987">
        <ele>81</ele>
        <time>2021-02-28T15:47:21Z</time>
      </trkpt>
      <trkpt lat="43.63835" lon="3.8299">
        <ele>81</ele>
        <time>2021-02-28T15:47:22Z</time>
      </trkpt>
      <trkpt lat="43.6383" lon="3.82996">
        <ele>81</ele>
        <time>2021-02-28T15:47:24Z</time>
      </trkpt>
      <trkpt lat="43.63828" lon="3.82999">
        <ele>81</ele>
        <time>2021-02-28T15:47:25Z</time>
      </trkpt>
      <trkpt lat="43.63825" lon="3.83002">
        <ele>81</ele>
        <time>2021-02-28T15:47:26Z</time>
      </trkpt>
      <trkpt lat="43.6382" lon="3.83008">
        <ele>81</ele>
        <time>2021-02-28T15:47:28Z</time>
      </trkpt>
      <trkpt lat="43.63818" lon="3.8301">
        <ele>81</ele>
        <time>2021-02-28T15:47:29Z</time>
      </trkpt>
      <trkpt lat="43.63815" lon="3.83013">
        <ele>81</ele>
        <time>2021-02-28T15:47:30Z</time>
      </trkpt>
      <trkpt lat="43.63813" lon="3.83016">
        <ele>81</ele>
        <time>2021-02-28T15:47:31Z</time>
      </trkpt>
      <trkpt lat="43.6381" lon="3.83019">
        <ele>81</ele>
        <time>2021-02-28T15:47:33Z</time>
      </trkpt>
      <trkpt lat="43.63808" lon="3.83021">
        <ele>81</ele>
        <time>2021-02-28T15:47:34Z</time>
      </trkpt>
      <trkpt lat="43.63805" lon="3.83024">
        <ele>81</ele>
        <time>2021-02-28T15:47:35Z</time>
      </trkpt>
      <trkpt lat="43.638" lon="3.8303">
        <ele>81</ele>
        <time>2021-02-28T15:47:36Z</time>
      </trkpt>
      <trkpt lat="43.63797" lon="3.83033">
        <ele>81</ele>
        <time>2021-02-28T15:47:37Z</time>
      </trkpt>
      <trkpt lat="43.63794" lon="3.83035">
        <ele>81</ele>
        <time>2021-02-28T15:47:38Z</time>
      </trkpt>
      <trkpt lat="43.63792" lon="3.83038">
        <ele>81</ele>
        <time>2021-02-28T15:47:39Z</time>
      </trkpt>
      <trkpt lat="43.63786" lon="3.83043">
        <ele>81</ele>
        <time>2021-02-28T15:47:41Z</time>
      </trkpt>
      <trkpt lat="43.63784" lon="3.83046">
        <ele>81</ele>
        <time>2021-02-28T15:47:42Z</time>
      </trkpt>
      <trkpt lat="43.63781" lon="3.83049">
        <ele>81</ele>
        <time>2021-02-28T15:47:43Z</time>
      </trkpt>
      <trkpt lat="43.63775" lon="3.83055">
        <ele>81</ele>
        <time>2021-02-28T15:47:45Z</time>
      </trkpt>
      <trkpt lat="43.63773" lon="3.83058">
        <ele>81</ele>
        <time>2021-02-28T15:47:46Z</time>
      </trkpt>
      <trkpt lat="43.6377" lon="3.8306">
        <ele>81</ele>
        <time>2021-02-28T15:47:47Z</time>
      </trkpt>
      <trkpt lat="43.63767" lon="3.83063">
        <ele>81</ele>
        <time>2021-02-28T15:47:48Z</time>
      </trkpt>
      <trkpt lat="43.63764" lon="3.83066">
        <ele>81</ele>
        <time>2021-02-28T15:47:49Z</time>
      </trkpt>
      <trkpt lat="43.63761" lon="3.83068">
        <ele>81</ele>
        <time>2021-02-28T15:47:50Z</time>
      </trkpt>
      <trkpt lat="43.63758" lon="3.83071">
        <ele>80</ele>
        <time>2021-02-28T15:47:51Z</time>
      </trkpt>
      <trkpt lat="43.63755" lon="3.83074">
        <ele>80</ele>
        <time>2021-02-28T15:47:52Z</time>
      </trkpt>
      <trkpt lat="43.63752" lon="3.83077">
        <ele>80</ele>
        <time>2021-02-28T15:47:53Z</time>
      </trkpt>
      <trkpt lat="43.63749" lon="3.83079">
        <ele>80</ele>
        <time>2021-02-28T15:47:54Z</time>
      </trkpt>
      <trkpt lat="43.63743" lon="3.83084">
        <ele>80</ele>
        <time>2021-02-28T15:47:56Z</time>
      </trkpt>
      <trkpt lat="43.6374" lon="3.83086">
        <ele>80</ele>
        <time>2021-02-28T15:47:57Z</time>
      </trkpt>
      <trkpt lat="43.63737" lon="3.83089">
        <ele>80</ele>
        <time>2021-02-28T15:47:58Z</time>
      </trkpt>
      <trkpt lat="43.63735" lon="3.83091">
        <ele>80</ele>
        <time>2021-02-28T15:47:59Z</time>
      </trkpt>
      <trkpt lat="43.63731" lon="3.83094">
        <ele>80</ele>
        <time>2021-02-28T15:48:00Z</time>
      </trkpt>
      <trkpt lat="43.63728" lon="3.83096">
        <ele>80</ele>
        <time>2021-02-28T15:48:01Z</time>
      </trkpt>
      <trkpt lat="43.63724" lon="3.83098">
        <ele>80</ele>
        <time>2021-02-28T15:48:02Z</time>
      </trkpt>
      <trkpt lat="43.63721" lon="3.83101">
        <ele>80</ele>
        <time>2021-02-28T15:48:03Z</time>
      </trkpt>
      <trkpt lat="43.63713" lon="3.83105">
        <ele>80</ele>
        <time>2021-02-28T15:48:05Z</time>
      </trkpt>
      <trkpt lat="43.63705" lon="3.83108">
        <ele>80</ele>
        <time>2021-02-28T15:48:07Z</time>
      </trkpt>
      <trkpt lat="43.63701" lon="3.8311">
        <ele>80</ele>
        <time>2021-02-28T15:48:08Z</time>
      </trkpt>
      <trkpt lat="43.63698" lon="3.83111">
        <ele>80</ele>
        <time>2021-02-28T15:48:09Z</time>
      </trkpt>
      <trkpt lat="43.63694" lon="3.83113">
        <ele>80</ele>
        <time>2021-02-28T15:48:10Z</time>
      </trkpt>
      <trkpt lat="43.6369" lon="3.83114">
        <ele>79</ele>
        <time>2021-02-28T15:48:11Z</time>
      </trkpt>
      <trkpt lat="43.63687" lon="3.83116">
        <ele>79</ele>
        <time>2021-02-28T15:48:12Z</time>
      </trkpt>
      <trkpt lat="43.63683" lon="3.83118">
        <ele>79</ele>
        <time>2021-02-28T15:48:13Z</time>
      </trkpt>
      <trkpt lat="43.6368" lon="3.83119">
        <ele>79</ele>
        <time>2021-02-28T15:48:14Z</time>
      </trkpt>
      <trkpt lat="43.63676" lon="3.83121">
        <ele>79</ele>
        <time>2021-02-28T15:48:15Z</time>
      </trkpt>
      <trkpt lat="43.63672" lon="3.83122">
        <ele>79</ele>
        <time>2021-02-28T15:48:16Z</time>
      </trkpt>
      <trkpt lat="43.63669" lon="3.83124">
        <ele>79</ele>
        <time>2021-02-28T15:48:17Z</time>
      </trkpt>
      <trkpt lat="43.63665" lon="3.83126">
        <ele>79</ele>
        <time>2021-02-28T15:48:18Z</time>
      </trkpt>
      <trkpt lat="43.63657" lon="3.83129">
        <ele>79</ele>
        <time>2021-02-28T15:48:20Z</time>
      </trkpt>
      <trkpt lat="43.63654" lon="3.83131">
        <ele>77</ele>
        <time>2021-02-28T15:48:21Z</time>
      </trkpt>
      <trkpt lat="43.6365" lon="3.83133">
        <ele>77</ele>
        <time>2021-02-28T15:48:22Z</time>
      </trkpt>
      <trkpt lat="43.63641" lon="3.83138">
        <ele>77</ele>
        <time>2021-02-28T15:48:24Z</time>
      </trkpt>
      <trkpt lat="43.63637" lon="3.8314">
        <ele>77</ele>
        <time>2021-02-28T15:48:25Z</time>
      </trkpt>
      <trkpt lat="43.63633" lon="3.83142">
        <ele>77</ele>
        <time>2021-02-28T15:48:26Z</time>
      </trkpt>
      <trkpt lat="43.63629" lon="3.83145">
        <ele>77</ele>
        <time>2021-02-28T15:48:27Z</time>
      </trkpt>
      <trkpt lat="43.63625" lon="3.83147">
        <ele>77</ele>
        <time>2021-02-28T15:48:28Z</time>
      </trkpt>
      <trkpt lat="43.63622" lon="3.8315">
        <ele>77</ele>
        <time>2021-02-28T15:48:29Z</time>
      </trkpt>
      <trkpt lat="43.63614" lon="3.83155">
        <ele>76</ele>
        <time>2021-02-28T15:48:31Z</time>
      </trkpt>
      <trkpt lat="43.63606" lon="3.8316">
        <ele>76</ele>
        <time>2021-02-28T15:48:33Z</time>
      </trkpt>
      <trkpt lat="43.63603" lon="3.83163">
        <ele>76</ele>
        <time>2021-02-28T15:48:34Z</time>
      </trkpt>
      <trkpt lat="43.63599" lon="3.83166">
        <ele>76</ele>
        <time>2021-02-28T15:48:35Z</time>
      </trkpt>
      <trkpt lat="43.63595" lon="3.83169">
        <ele>76</ele>
        <time>2021-02-28T15:48:36Z</time>
      </trkpt>
      <trkpt lat="43.63591" lon="3.83172">
        <ele>76</ele>
        <time>2021-02-28T15:48:37Z</time>
      </trkpt>
      <trkpt lat="43.63587" lon="3.83175">
        <ele>76</ele>
        <time>2021-02-28T15:48:38Z</time>
      </trkpt>
      <trkpt lat="43.63583" lon="3.83178">
        <ele>76</ele>
        <time>2021-02-28T15:48:39Z</time>
      </trkpt>
      <trkpt lat="43.6358" lon="3.83182">
        <ele>76</ele>
        <time>2021-02-28T15:48:40Z</time>
      </trkpt>
      <trkpt lat="43.63576" lon="3.83185">
        <ele>76</ele>
        <time>2021-02-28T15:48:41Z</time>
      </trkpt>
      <trkpt lat="43.63572" lon="3.83189">
        <ele>76</ele>
        <time>2021-02-28T15:48:42Z</time>
      </trkpt>
      <trkpt lat="43.63568" lon="3.83193">
        <ele>76</ele>
        <time>2021-02-28T15:48:43Z</time>
      </trkpt>
      <trkpt lat="43.63564" lon="3.83197">
        <ele>76</ele>
        <time>2021-02-28T15:48:44Z</time>
      </trkpt>
      <trkpt lat="43.63556" lon="3.83205">
        <ele>76</ele>
        <time>2021-02-28T15:48:46Z</time>
      </trkpt>
      <trkpt lat="43.63552" lon="3.83209">
        <ele>76</ele>
        <time>2021-02-28T15:48:47Z</time>
      </trkpt>
      <trkpt lat="43.63549" lon="3.83213">
        <ele>76</ele>
        <time>2021-02-28T15:48:48Z</time>
      </trkpt>
      <trkpt lat="43.63545" lon="3.83217">
        <ele>76</ele>
        <time>2021-02-28T15:48:49Z</time>
      </trkpt>
      <trkpt lat="43.63541" lon="3.83221">
        <ele>76</ele>
        <time>2021-02-28T15:48:50Z</time>
      </trkpt>
      <trkpt lat="43.63537" lon="3.83225">
        <ele>76</ele>
        <time>2021-02-28T15:48:51Z</time>
      </trkpt>
      <trkpt lat="43.63533" lon="3.83229">
        <ele>76</ele>
        <time>2021-02-28T15:48:52Z</time>
      </trkpt>
      <trkpt lat="43.63529" lon="3.83233">
        <ele>76</ele>
        <time>2021-02-28T15:48:53Z</time>
      </trkpt>
      <trkpt lat="43.63522" lon="3.83241">
        <ele>76</ele>
        <time>2021-02-28T15:48:55Z</time>
      </trkpt>
      <trkpt lat="43.63518" lon="3.83245">
        <ele>76</ele>
        <time>2021-02-28T15:48:56Z</time>
      </trkpt>
      <trkpt lat="43.63514" lon="3.83249">
        <ele>76</ele>
        <time>2021-02-28T15:48:57Z</time>
      </trkpt>
      <trkpt lat="43.63506" lon="3.83258">
        <ele>76</ele>
        <time>2021-02-28T15:48:59Z</time>
      </trkpt>
      <trkpt lat="43.63502" lon="3.83262">
        <ele>76</ele>
        <time>2021-02-28T15:49:00Z</time>
      </trkpt>
      <trkpt lat="43.63499" lon="3.83266">
        <ele>76</ele>
        <time>2021-02-28T15:49:01Z</time>
      </trkpt>
      <trkpt lat="43.63491" lon="3.83275">
        <ele>76</ele>
        <time>2021-02-28T15:49:03Z</time>
      </trkpt>
      <trkpt lat="43.63487" lon="3.83279">
        <ele>76</ele>
        <time>2021-02-28T15:49:04Z</time>
      </trkpt>
      <trkpt lat="43.63483" lon="3.83284">
        <ele>76</ele>
        <time>2021-02-28T15:49:05Z</time>
      </trkpt>
      <trkpt lat="43.63479" lon="3.83288">
        <ele>76</ele>
        <time>2021-02-28T15:49:06Z</time>
      </trkpt>
      <trkpt lat="43.63474" lon="3.83292">
        <ele>76</ele>
        <time>2021-02-28T15:49:08Z</time>
      </trkpt>
      <trkpt lat="43.6347" lon="3.83296">
        <ele>76</ele>
        <time>2021-02-28T15:49:09Z</time>
      </trkpt>
      <trkpt lat="43.63466" lon="3.833">
        <ele>76</ele>
        <time>2021-02-28T15:49:10Z</time>
      </trkpt>
      <trkpt lat="43.63459" lon="3.83308">
        <ele>75</ele>
        <time>2021-02-28T15:49:11Z</time>
      </trkpt>
      <trkpt lat="43.63456" lon="3.83312">
        <ele>75</ele>
        <time>2021-02-28T15:49:12Z</time>
      </trkpt>
      <trkpt lat="43.63453" lon="3.83316">
        <ele>75</ele>
        <time>2021-02-28T15:49:13Z</time>
      </trkpt>
      <trkpt lat="43.6345" lon="3.83321">
        <ele>75</ele>
        <time>2021-02-28T15:49:14Z</time>
      </trkpt>
      <trkpt lat="43.63447" lon="3.83326">
        <ele>75</ele>
        <time>2021-02-28T15:49:15Z</time>
      </trkpt>
      <trkpt lat="43.63445" lon="3.83331">
        <ele>75</ele>
        <time>2021-02-28T15:49:16Z</time>
      </trkpt>
      <trkpt lat="43.63443" lon="3.83336">
        <ele>75</ele>
        <time>2021-02-28T15:49:17Z</time>
      </trkpt>
      <trkpt lat="43.6344" lon="3.83341">
        <ele>75</ele>
        <time>2021-02-28T15:49:18Z</time>
      </trkpt>
      <trkpt lat="43.63435" lon="3.83352">
        <ele>75</ele>
        <time>2021-02-28T15:49:20Z</time>
      </trkpt>
      <trkpt lat="43.63433" lon="3.83357">
        <ele>74</ele>
        <time>2021-02-28T15:49:21Z</time>
      </trkpt>
      <trkpt lat="43.6343" lon="3.8336">
        <ele>74</ele>
        <time>2021-02-28T15:49:22Z</time>
      </trkpt>
      <trkpt lat="43.63429" lon="3.83362">
        <ele>74</ele>
        <time>2021-02-28T15:49:24Z</time>
      </trkpt>
      <trkpt lat="43.63428" lon="3.83364">
        <ele>74</ele>
        <time>2021-02-28T15:49:30Z</time>
      </trkpt>
      <trkpt lat="43.63425" lon="3.83371">
        <ele>74</ele>
        <time>2021-02-28T15:49:31Z</time>
      </trkpt>
      <trkpt lat="43.63423" lon="3.83376">
        <ele>74</ele>
        <time>2021-02-28T15:49:32Z</time>
      </trkpt>
      <trkpt lat="43.6342" lon="3.8338">
        <ele>74</ele>
        <time>2021-02-28T15:49:33Z</time>
      </trkpt>
      <trkpt lat="43.63417" lon="3.83385">
        <ele>74</ele>
        <time>2021-02-28T15:49:34Z</time>
      </trkpt>
      <trkpt lat="43.63413" lon="3.83389">
        <ele>74</ele>
        <time>2021-02-28T15:49:35Z</time>
      </trkpt>
      <trkpt lat="43.63411" lon="3.83394">
        <ele>74</ele>
        <time>2021-02-28T15:49:36Z</time>
      </trkpt>
      <trkpt lat="43.63408" lon="3.834">
        <ele>74</ele>
        <time>2021-02-28T15:49:37Z</time>
      </trkpt>
      <trkpt lat="43.63405" lon="3.83406">
        <ele>74</ele>
        <time>2021-02-28T15:49:38Z</time>
      </trkpt>
      <trkpt lat="43.63402" lon="3.83411">
        <ele>74</ele>
        <time>2021-02-28T15:49:39Z</time>
      </trkpt>
      <trkpt lat="43.634" lon="3.83417">
        <ele>74</ele>
        <time>2021-02-28T15:49:40Z</time>
      </trkpt>
      <trkpt lat="43.63397" lon="3.83424">
        <ele>73</ele>
        <time>2021-02-28T15:49:41Z</time>
      </trkpt>
      <trkpt lat="43.63395" lon="3.83431">
        <ele>73</ele>
        <time>2021-02-28T15:49:42Z</time>
      </trkpt>
      <trkpt lat="43.63393" lon="3.83438">
        <ele>73</ele>
        <time>2021-02-28T15:49:43Z</time>
      </trkpt>
      <trkpt lat="43.6339" lon="3.83444">
        <ele>73</ele>
        <time>2021-02-28T15:49:44Z</time>
      </trkpt>
      <trkpt lat="43.63388" lon="3.83451">
        <ele>73</ele>
        <time>2021-02-28T15:49:45Z</time>
      </trkpt>
      <trkpt lat="43.63386" lon="3.83458">
        <ele>73</ele>
        <time>2021-02-28T15:49:46Z</time>
      </trkpt>
      <trkpt lat="43.63382" lon="3.83466">
        <ele>73</ele>
        <time>2021-02-28T15:49:47Z</time>
      </trkpt>
      <trkpt lat="43.63379" lon="3.83472">
        <ele>73</ele>
        <time>2021-02-28T15:49:48Z</time>
      </trkpt>
      <trkpt lat="43.63375" lon="3.83478">
        <ele>73</ele>
        <time>2021-02-28T15:49:49Z</time>
      </trkpt>
      <trkpt lat="43.63372" lon="3.83485">
        <ele>73</ele>
        <time>2021-02-28T15:49:50Z</time>
      </trkpt>
      <trkpt lat="43.63369" lon="3.83492">
        <ele>71</ele>
        <time>2021-02-28T15:49:51Z</time>
      </trkpt>
      <trkpt lat="43.63366" lon="3.83499">
        <ele>71</ele>
        <time>2021-02-28T15:49:52Z</time>
      </trkpt>
      <trkpt lat="43.63363" lon="3.83506">
        <ele>71</ele>
        <time>2021-02-28T15:49:54Z</time>
      </trkpt>
      <trkpt lat="43.63358" lon="3.83519">
        <ele>71</ele>
        <time>2021-02-28T15:49:55Z</time>
      </trkpt>
      <trkpt lat="43.63355" lon="3.83526">
        <ele>71</ele>
        <time>2021-02-28T15:49:56Z</time>
      </trkpt>
      <trkpt lat="43.63351" lon="3.83531">
        <ele>71</ele>
        <time>2021-02-28T15:49:57Z</time>
      </trkpt>
      <trkpt lat="43.63347" lon="3.83534">
        <ele>71</ele>
        <time>2021-02-28T15:49:59Z</time>
      </trkpt>
      <trkpt lat="43.63342" lon="3.83534">
        <ele>71</ele>
        <time>2021-02-28T15:50:00Z</time>
      </trkpt>
      <trkpt lat="43.63338" lon="3.83533">
        <ele>70</ele>
        <time>2021-02-28T15:50:01Z</time>
      </trkpt>
      <trkpt lat="43.63331" lon="3.83531">
        <ele>70</ele>
        <time>2021-02-28T15:50:02Z</time>
      </trkpt>
      <trkpt lat="43.63326" lon="3.83529">
        <ele>70</ele>
        <time>2021-02-28T15:50:03Z</time>
      </trkpt>
      <trkpt lat="43.63321" lon="3.83527">
        <ele>70</ele>
        <time>2021-02-28T15:50:04Z</time>
      </trkpt>
      <trkpt lat="43.63317" lon="3.83525">
        <ele>70</ele>
        <time>2021-02-28T15:50:05Z</time>
      </trkpt>
      <trkpt lat="43.63312" lon="3.83524">
        <ele>70</ele>
        <time>2021-02-28T15:50:06Z</time>
      </trkpt>
      <trkpt lat="43.63308" lon="3.83524">
        <ele>70</ele>
        <time>2021-02-28T15:50:07Z</time>
      </trkpt>
      <trkpt lat="43.63305" lon="3.83527">
        <ele>70</ele>
        <time>2021-02-28T15:50:08Z</time>
      </trkpt>
      <trkpt lat="43.63302" lon="3.83533">
        <ele>70</ele>
        <time>2021-02-28T15:50:09Z</time>
      </trkpt>
      <trkpt lat="43.633" lon="3.83549">
        <ele>69</ele>
        <time>2021-02-28T15:50:11Z</time>
      </trkpt>
      <trkpt lat="43.63298" lon="3.83557">
        <ele>69</ele>
        <time>2021-02-28T15:50:12Z</time>
      </trkpt>
      <trkpt lat="43.63295" lon="3.83564">
        <ele>69</ele>
        <time>2021-02-28T15:50:13Z</time>
      </trkpt>
      <trkpt lat="43.63289" lon="3.83575">
        <ele>69</ele>
        <time>2021-02-28T15:50:15Z</time>
      </trkpt>
      <trkpt lat="43.63282" lon="3.83583">
        <ele>69</ele>
        <time>2021-02-28T15:50:17Z</time>
      </trkpt>
      <trkpt lat="43.63278" lon="3.83591">
        <ele>69</ele>
        <time>2021-02-28T15:50:18Z</time>
      </trkpt>
      <trkpt lat="43.63273" lon="3.83604">
        <ele>69</ele>
        <time>2021-02-28T15:50:20Z</time>
      </trkpt>
      <trkpt lat="43.63265" lon="3.83617">
        <ele>69</ele>
        <time>2021-02-28T15:50:22Z</time>
      </trkpt>
      <trkpt lat="43.63258" lon="3.83628">
        <ele>69</ele>
        <time>2021-02-28T15:50:24Z</time>
      </trkpt>
      <trkpt lat="43.63252" lon="3.8364">
        <ele>69</ele>
        <time>2021-02-28T15:50:26Z</time>
      </trkpt>
      <trkpt lat="43.63248" lon="3.83652">
        <ele>69</ele>
        <time>2021-02-28T15:50:28Z</time>
      </trkpt>
      <trkpt lat="43.63246" lon="3.83659">
        <ele>69</ele>
        <time>2021-02-28T15:50:29Z</time>
      </trkpt>
      <trkpt lat="43.63243" lon="3.83666">
        <ele>69</ele>
        <time>2021-02-28T15:50:30Z</time>
      </trkpt>
      <trkpt lat="43.63241" lon="3.83672">
        <ele>66</ele>
        <time>2021-02-28T15:50:31Z</time>
      </trkpt>
      <trkpt lat="43.63239" lon="3.83678">
        <ele>66</ele>
        <time>2021-02-28T15:50:33Z</time>
      </trkpt>
      <trkpt lat="43.63234" lon="3.8369">
        <ele>66</ele>
        <time>2021-02-28T15:50:34Z</time>
      </trkpt>
      <trkpt lat="43.63232" lon="3.83696">
        <ele>66</ele>
        <time>2021-02-28T15:50:35Z</time>
      </trkpt>
      <trkpt lat="43.63228" lon="3.83706">
        <ele>66</ele>
        <time>2021-02-28T15:50:37Z</time>
      </trkpt>
      <trkpt lat="43.63226" lon="3.8371">
        <ele>66</ele>
        <time>2021-02-28T15:50:38Z</time>
      </trkpt>
      <trkpt lat="43.63224" lon="3.83714">
        <ele>66</ele>
        <time>2021-02-28T15:50:39Z</time>
      </trkpt>
      <trkpt lat="43.63222" lon="3.83718">
        <ele>66</ele>
        <time>2021-02-28T15:50:40Z</time>
      </trkpt>
      <trkpt lat="43.6322" lon="3.83722">
        <ele>66</ele>
        <time>2021-02-28T15:50:41Z</time>
      </trkpt>
      <trkpt lat="43.63219" lon="3.83726">
        <ele>66</ele>
        <time>2021-02-28T15:50:42Z</time>
      </trkpt>
      <trkpt lat="43.63213" lon="3.83735">
        <ele>66</ele>
        <time>2021-02-28T15:50:45Z</time>
      </trkpt>
      <trkpt lat="43.63205" lon="3.83747">
        <ele>66</ele>
        <time>2021-02-28T15:50:48Z</time>
      </trkpt>
      <trkpt lat="43.632" lon="3.83755">
        <ele>66</ele>
        <time>2021-02-28T15:50:50Z</time>
      </trkpt>
      <trkpt lat="43.63196" lon="3.8376">
        <ele>65</ele>
        <time>2021-02-28T15:50:51Z</time>
      </trkpt>
      <trkpt lat="43.63193" lon="3.83764">
        <ele>65</ele>
        <time>2021-02-28T15:50:52Z</time>
      </trkpt>
      <trkpt lat="43.6319" lon="3.83769">
        <ele>65</ele>
        <time>2021-02-28T15:50:53Z</time>
      </trkpt>
      <trkpt lat="43.63187" lon="3.83773">
        <ele>65</ele>
        <time>2021-02-28T15:50:54Z</time>
      </trkpt>
      <trkpt lat="43.63184" lon="3.83777">
        <ele>65</ele>
        <time>2021-02-28T15:50:55Z</time>
      </trkpt>
      <trkpt lat="43.63181" lon="3.83782">
        <ele>65</ele>
        <time>2021-02-28T15:50:56Z</time>
      </trkpt>
      <trkpt lat="43.63178" lon="3.83786">
        <ele>65</ele>
        <time>2021-02-28T15:50:58Z</time>
      </trkpt>
      <trkpt lat="43.63172" lon="3.83793">
        <ele>65</ele>
        <time>2021-02-28T15:50:59Z</time>
      </trkpt>
      <trkpt lat="43.63165" lon="3.83803">
        <ele>64</ele>
        <time>2021-02-28T15:51:01Z</time>
      </trkpt>
      <trkpt lat="43.6316" lon="3.8381">
        <ele>64</ele>
        <time>2021-02-28T15:51:03Z</time>
      </trkpt>
      <trkpt lat="43.63153" lon="3.83823">
        <ele>64</ele>
        <time>2021-02-28T15:51:05Z</time>
      </trkpt>
      <trkpt lat="43.63148" lon="3.83836">
        <ele>64</ele>
        <time>2021-02-28T15:51:06Z</time>
      </trkpt>
      <trkpt lat="43.63143" lon="3.83848">
        <ele>64</ele>
        <time>2021-02-28T15:51:09Z</time>
      </trkpt>
      <trkpt lat="43.63138" lon="3.83862">
        <ele>64</ele>
        <time>2021-02-28T15:51:10Z</time>
      </trkpt>
      <trkpt lat="43.63134" lon="3.83875">
        <ele>64</ele>
        <time>2021-02-28T15:51:12Z</time>
      </trkpt>
      <trkpt lat="43.63129" lon="3.83892">
        <ele>64</ele>
        <time>2021-02-28T15:51:15Z</time>
      </trkpt>
      <trkpt lat="43.63125" lon="3.83905">
        <ele>64</ele>
        <time>2021-02-28T15:51:18Z</time>
      </trkpt>
      <trkpt lat="43.6312" lon="3.83922">
        <ele>64</ele>
        <time>2021-02-28T15:51:20Z</time>
      </trkpt>
      <trkpt lat="43.63115" lon="3.83938">
        <ele>64</ele>
        <time>2021-02-28T15:51:24Z</time>
      </trkpt>
      <trkpt lat="43.63111" lon="3.83952">
        <ele>64</ele>
        <time>2021-02-28T15:51:26Z</time>
      </trkpt>
      <trkpt lat="43.63107" lon="3.83967">
        <ele>64</ele>
        <time>2021-02-28T15:51:29Z</time>
      </trkpt>
      <trkpt lat="43.63102" lon="3.83981">
        <ele>64</ele>
        <time>2021-02-28T15:51:33Z</time>
      </trkpt>
      <trkpt lat="43.63096" lon="3.83994">
        <ele>64</ele>
        <time>2021-02-28T15:51:35Z</time>
      </trkpt>
      <trkpt lat="43.63092" lon="3.84008">
        <ele>64</ele>
        <time>2021-02-28T15:51:38Z</time>
      </trkpt>
      <trkpt lat="43.63087" lon="3.84022">
        <ele>62</ele>
        <time>2021-02-28T15:51:41Z</time>
      </trkpt>
      <trkpt lat="43.63083" lon="3.84037">
        <ele>62</ele>
        <time>2021-02-28T15:51:45Z</time>
      </trkpt>
      <trkpt lat="43.63081" lon="3.84052">
        <ele>62</ele>
        <time>2021-02-28T15:51:48Z</time>
      </trkpt>
      <trkpt lat="43.63079" lon="3.84061">
        <ele>62</ele>
        <time>2021-02-28T15:51:50Z</time>
      </trkpt>
      <trkpt lat="43.63078" lon="3.84066">
        <ele>62</ele>
        <time>2021-02-28T15:51:51Z</time>
      </trkpt>
      <trkpt lat="43.63077" lon="3.8407">
        <ele>62</ele>
        <time>2021-02-28T15:51:52Z</time>
      </trkpt>
      <trkpt lat="43.63075" lon="3.84074">
        <ele>62</ele>
        <time>2021-02-28T15:51:53Z</time>
      </trkpt>
      <trkpt lat="43.63074" lon="3.84082">
        <ele>62</ele>
        <time>2021-02-28T15:51:55Z</time>
      </trkpt>
      <trkpt lat="43.63073" lon="3.84087">
        <ele>62</ele>
        <time>2021-02-28T15:51:56Z</time>
      </trkpt>
      <trkpt lat="43.63073" lon="3.84092">
        <ele>62</ele>
        <time>2021-02-28T15:51:57Z</time>
      </trkpt>
      <trkpt lat="43.63074" lon="3.84097">
        <ele>62</ele>
        <time>2021-02-28T15:51:59Z</time>
      </trkpt>
      <trkpt lat="43.63075" lon="3.84109">
        <ele>62</ele>
        <time>2021-02-28T15:52:00Z</time>
      </trkpt>
      <trkpt lat="43.63074" lon="3.84116">
        <ele>62</ele>
        <time>2021-02-28T15:52:01Z</time>
      </trkpt>
      <trkpt lat="43.63072" lon="3.84122">
        <ele>62</ele>
        <time>2021-02-28T15:52:02Z</time>
      </trkpt>
      <trkpt lat="43.63066" lon="3.84132">
        <ele>62</ele>
        <time>2021-02-28T15:52:04Z</time>
      </trkpt>
      <trkpt lat="43.63063" lon="3.84136">
        <ele>62</ele>
        <time>2021-02-28T15:52:05Z</time>
      </trkpt>
      <trkpt lat="43.6306" lon="3.8414">
        <ele>62</ele>
        <time>2021-02-28T15:52:06Z</time>
      </trkpt>
      <trkpt lat="43.63057" lon="3.84145">
        <ele>62</ele>
        <time>2021-02-28T15:52:07Z</time>
      </trkpt>
      <trkpt lat="43.63054" lon="3.8415">
        <ele>62</ele>
        <time>2021-02-28T15:52:08Z</time>
      </trkpt>
      <trkpt lat="43.63052" lon="3.84155">
        <ele>62</ele>
        <time>2021-02-28T15:52:09Z</time>
      </trkpt>
      <trkpt lat="43.6305" lon="3.8416">
        <ele>62</ele>
        <time>2021-02-28T15:52:10Z</time>
      </trkpt>
      <trkpt lat="43.63048" lon="3.84165">
        <ele>60</ele>
        <time>2021-02-28T15:52:11Z</time>
      </trkpt>
      <trkpt lat="43.63047" lon="3.8417">
        <ele>60</ele>
        <time>2021-02-28T15:52:12Z</time>
      </trkpt>
      <trkpt lat="43.63045" lon="3.84176">
        <ele>60</ele>
        <time>2021-02-28T15:52:13Z</time>
      </trkpt>
      <trkpt lat="43.63042" lon="3.8418">
        <ele>60</ele>
        <time>2021-02-28T15:52:14Z</time>
      </trkpt>
      <trkpt lat="43.6304" lon="3.84185">
        <ele>60</ele>
        <time>2021-02-28T15:52:15Z</time>
      </trkpt>
      <trkpt lat="43.63038" lon="3.84191">
        <ele>60</ele>
        <time>2021-02-28T15:52:16Z</time>
      </trkpt>
      <trkpt lat="43.63037" lon="3.84197">
        <ele>60</ele>
        <time>2021-02-28T15:52:17Z</time>
      </trkpt>
      <trkpt lat="43.63037" lon="3.84204">
        <ele>60</ele>
        <time>2021-02-28T15:52:18Z</time>
      </trkpt>
      <trkpt lat="43.63036" lon="3.8421">
        <ele>60</ele>
        <time>2021-02-28T15:52:19Z</time>
      </trkpt>
      <trkpt lat="43.63036" lon="3.84217">
        <ele>60</ele>
        <time>2021-02-28T15:52:20Z</time>
      </trkpt>
      <trkpt lat="43.63035" lon="3.84229">
        <ele>60</ele>
        <time>2021-02-28T15:52:22Z</time>
      </trkpt>
      <trkpt lat="43.63035" lon="3.84234">
        <ele>60</ele>
        <time>2021-02-28T15:52:23Z</time>
      </trkpt>
      <trkpt lat="43.63036" lon="3.8424">
        <ele>60</ele>
        <time>2021-02-28T15:52:24Z</time>
      </trkpt>
      <trkpt lat="43.63037" lon="3.84246">
        <ele>60</ele>
        <time>2021-02-28T15:52:25Z</time>
      </trkpt>
      <trkpt lat="43.63038" lon="3.84252">
        <ele>60</ele>
        <time>2021-02-28T15:52:26Z</time>
      </trkpt>
      <trkpt lat="43.63039" lon="3.84258">
        <ele>60</ele>
        <time>2021-02-28T15:52:27Z</time>
      </trkpt>
      <trkpt lat="43.63039" lon="3.84264">
        <ele>60</ele>
        <time>2021-02-28T15:52:28Z</time>
      </trkpt>
      <trkpt lat="43.63039" lon="3.84268">
        <ele>60</ele>
        <time>2021-02-28T15:52:29Z</time>
      </trkpt>
      <trkpt lat="43.63037" lon="3.8427">
        <ele>60</ele>
        <time>2021-02-28T15:52:30Z</time>
      </trkpt>
      <trkpt lat="43.63036" lon="3.84272">
        <ele>58</ele>
        <time>2021-02-28T15:52:31Z</time>
      </trkpt>
      <trkpt lat="43.63034" lon="3.84276">
        <ele>58</ele>
        <time>2021-02-28T15:52:32Z</time>
      </trkpt>
      <trkpt lat="43.63032" lon="3.8428">
        <ele>58</ele>
        <time>2021-02-28T15:52:33Z</time>
      </trkpt>
      <trkpt lat="43.6303" lon="3.84285">
        <ele>58</ele>
        <time>2021-02-28T15:52:34Z</time>
      </trkpt>
      <trkpt lat="43.63027" lon="3.84291">
        <ele>58</ele>
        <time>2021-02-28T15:52:35Z</time>
      </trkpt>
      <trkpt lat="43.63021" lon="3.84301">
        <ele>58</ele>
        <time>2021-02-28T15:52:37Z</time>
      </trkpt>
      <trkpt lat="43.63017" lon="3.84306">
        <ele>58</ele>
        <time>2021-02-28T15:52:38Z</time>
      </trkpt>
      <trkpt lat="43.63013" lon="3.84311">
        <ele>58</ele>
        <time>2021-02-28T15:52:39Z</time>
      </trkpt>
      <trkpt lat="43.63009" lon="3.84316">
        <ele>58</ele>
        <time>2021-02-28T15:52:40Z</time>
      </trkpt>
      <trkpt lat="43.63006" lon="3.84321">
        <ele>57</ele>
        <time>2021-02-28T15:52:41Z</time>
      </trkpt>
      <trkpt lat="43.63003" lon="3.84328">
        <ele>57</ele>
        <time>2021-02-28T15:52:42Z</time>
      </trkpt>
      <trkpt lat="43.62999" lon="3.84333">
        <ele>57</ele>
        <time>2021-02-28T15:52:43Z</time>
      </trkpt>
      <trkpt lat="43.62995" lon="3.84339">
        <ele>57</ele>
        <time>2021-02-28T15:52:44Z</time>
      </trkpt>
      <trkpt lat="43.62991" lon="3.84343">
        <ele>57</ele>
        <time>2021-02-28T15:52:45Z</time>
      </trkpt>
      <trkpt lat="43.62987" lon="3.84348">
        <ele>57</ele>
        <time>2021-02-28T15:52:46Z</time>
      </trkpt>
      <trkpt lat="43.62983" lon="3.84353">
        <ele>57</ele>
        <time>2021-02-28T15:52:47Z</time>
      </trkpt>
      <trkpt lat="43.62979" lon="3.84358">
        <ele>57</ele>
        <time>2021-02-28T15:52:48Z</time>
      </trkpt>
      <trkpt lat="43.62976" lon="3.84364">
        <ele>57</ele>
        <time>2021-02-28T15:52:49Z</time>
      </trkpt>
      <trkpt lat="43.62972" lon="3.84369">
        <ele>57</ele>
        <time>2021-02-28T15:52:50Z</time>
      </trkpt>
      <trkpt lat="43.62969" lon="3.84374">
        <ele>56</ele>
        <time>2021-02-28T15:52:51Z</time>
      </trkpt>
      <trkpt lat="43.62965" lon="3.84379">
        <ele>56</ele>
        <time>2021-02-28T15:52:52Z</time>
      </trkpt>
      <trkpt lat="43.62961" lon="3.84385">
        <ele>56</ele>
        <time>2021-02-28T15:52:53Z</time>
      </trkpt>
      <trkpt lat="43.62958" lon="3.8439">
        <ele>56</ele>
        <time>2021-02-28T15:52:54Z</time>
      </trkpt>
      <trkpt lat="43.62955" lon="3.84396">
        <ele>56</ele>
        <time>2021-02-28T15:52:55Z</time>
      </trkpt>
      <trkpt lat="43.62952" lon="3.84402">
        <ele>56</ele>
        <time>2021-02-28T15:52:56Z</time>
      </trkpt>
      <trkpt lat="43.62949" lon="3.84409">
        <ele>56</ele>
        <time>2021-02-28T15:52:57Z</time>
      </trkpt>
      <trkpt lat="43.62945" lon="3.84416">
        <ele>56</ele>
        <time>2021-02-28T15:52:58Z</time>
      </trkpt>
      <trkpt lat="43.62942" lon="3.84422">
        <ele>56</ele>
        <time>2021-02-28T15:52:59Z</time>
      </trkpt>
      <trkpt lat="43.62934" lon="3.84435">
        <ele>54</ele>
        <time>2021-02-28T15:53:01Z</time>
      </trkpt>
      <trkpt lat="43.62927" lon="3.84448">
        <ele>54</ele>
        <time>2021-02-28T15:53:03Z</time>
      </trkpt>
      <trkpt lat="43.62923" lon="3.84455">
        <ele>54</ele>
        <time>2021-02-28T15:53:04Z</time>
      </trkpt>
      <trkpt lat="43.6292" lon="3.84462">
        <ele>54</ele>
        <time>2021-02-28T15:53:05Z</time>
      </trkpt>
      <trkpt lat="43.62917" lon="3.84468">
        <ele>54</ele>
        <time>2021-02-28T15:53:06Z</time>
      </trkpt>
      <trkpt lat="43.62913" lon="3.84474">
        <ele>54</ele>
        <time>2021-02-28T15:53:07Z</time>
      </trkpt>
      <trkpt lat="43.6291" lon="3.8448">
        <ele>54</ele>
        <time>2021-02-28T15:53:08Z</time>
      </trkpt>
      <trkpt lat="43.62906" lon="3.84486">
        <ele>54</ele>
        <time>2021-02-28T15:53:09Z</time>
      </trkpt>
      <trkpt lat="43.62903" lon="3.84492">
        <ele>54</ele>
        <time>2021-02-28T15:53:10Z</time>
      </trkpt>
      <trkpt lat="43.62897" lon="3.84504">
        <ele>54</ele>
        <time>2021-02-28T15:53:12Z</time>
      </trkpt>
      <trkpt lat="43.62894" lon="3.8451">
        <ele>54</ele>
        <time>2021-02-28T15:53:13Z</time>
      </trkpt>
      <trkpt lat="43.62891" lon="3.84515">
        <ele>54</ele>
        <time>2021-02-28T15:53:14Z</time>
      </trkpt>
      <trkpt lat="43.62888" lon="3.84521">
        <ele>54</ele>
        <time>2021-02-28T15:53:15Z</time>
      </trkpt>
      <trkpt lat="43.62885" lon="3.84526">
        <ele>54</ele>
        <time>2021-02-28T15:53:16Z</time>
      </trkpt>
      <trkpt lat="43.62881" lon="3.84532">
        <ele>54</ele>
        <time>2021-02-28T15:53:17Z</time>
      </trkpt>
      <trkpt lat="43.62878" lon="3.84537">
        <ele>54</ele>
        <time>2021-02-28T15:53:18Z</time>
      </trkpt>
      <trkpt lat="43.62875" lon="3.84542">
        <ele>54</ele>
        <time>2021-02-28T15:53:19Z</time>
      </trkpt>
      <trkpt lat="43.62871" lon="3.84548">
        <ele>54</ele>
        <time>2021-02-28T15:53:20Z</time>
      </trkpt>
      <trkpt lat="43.62868" lon="3.84553">
        <ele>50</ele>
        <time>2021-02-28T15:53:21Z</time>
      </trkpt>
      <trkpt lat="43.62863" lon="3.84558">
        <ele>50</ele>
        <time>2021-02-28T15:53:22Z</time>
      </trkpt>
      <trkpt lat="43.62859" lon="3.84563">
        <ele>50</ele>
        <time>2021-02-28T15:53:23Z</time>
      </trkpt>
      <trkpt lat="43.62854" lon="3.84567">
        <ele>50</ele>
        <time>2021-02-28T15:53:24Z</time>
      </trkpt>
      <trkpt lat="43.6285" lon="3.84572">
        <ele>50</ele>
        <time>2021-02-28T15:53:25Z</time>
      </trkpt>
      <trkpt lat="43.62846" lon="3.84577">
        <ele>50</ele>
        <time>2021-02-28T15:53:26Z</time>
      </trkpt>
      <trkpt lat="43.62841" lon="3.84582">
        <ele>50</ele>
        <time>2021-02-28T15:53:27Z</time>
      </trkpt>
      <trkpt lat="43.62831" lon="3.8459">
        <ele>50</ele>
        <time>2021-02-28T15:53:29Z</time>
      </trkpt>
      <trkpt lat="43.62827" lon="3.84595">
        <ele>50</ele>
        <time>2021-02-28T15:53:30Z</time>
      </trkpt>
      <trkpt lat="43.62823" lon="3.84599">
        <ele>51</ele>
        <time>2021-02-28T15:53:31Z</time>
      </trkpt>
      <trkpt lat="43.62818" lon="3.84603">
        <ele>51</ele>
        <time>2021-02-28T15:53:32Z</time>
      </trkpt>
      <trkpt lat="43.62813" lon="3.84607">
        <ele>51</ele>
        <time>2021-02-28T15:53:33Z</time>
      </trkpt>
      <trkpt lat="43.62808" lon="3.84611">
        <ele>51</ele>
        <time>2021-02-28T15:53:34Z</time>
      </trkpt>
      <trkpt lat="43.62803" lon="3.84614">
        <ele>51</ele>
        <time>2021-02-28T15:53:35Z</time>
      </trkpt>
      <trkpt lat="43.62798" lon="3.84617">
        <ele>51</ele>
        <time>2021-02-28T15:53:36Z</time>
      </trkpt>
      <trkpt lat="43.62794" lon="3.8462">
        <ele>51</ele>
        <time>2021-02-28T15:53:38Z</time>
      </trkpt>
      <trkpt lat="43.62784" lon="3.84625">
        <ele>51</ele>
        <time>2021-02-28T15:53:39Z</time>
      </trkpt>
      <trkpt lat="43.6278" lon="3.84629">
        <ele>51</ele>
        <time>2021-02-28T15:53:40Z</time>
      </trkpt>
      <trkpt lat="43.62775" lon="3.84632">
        <ele>51</ele>
        <time>2021-02-28T15:53:41Z</time>
      </trkpt>
      <trkpt lat="43.62771" lon="3.84636">
        <ele>51</ele>
        <time>2021-02-28T15:53:42Z</time>
      </trkpt>
      <trkpt lat="43.62767" lon="3.84641">
        <ele>51</ele>
        <time>2021-02-28T15:53:43Z</time>
      </trkpt>
      <trkpt lat="43.62763" lon="3.84645">
        <ele>51</ele>
        <time>2021-02-28T15:53:44Z</time>
      </trkpt>
      <trkpt lat="43.62759" lon="3.8465">
        <ele>51</ele>
        <time>2021-02-28T15:53:45Z</time>
      </trkpt>
      <trkpt lat="43.62752" lon="3.8466">
        <ele>51</ele>
        <time>2021-02-28T15:53:47Z</time>
      </trkpt>
      <trkpt lat="43.62748" lon="3.84666">
        <ele>51</ele>
        <time>2021-02-28T15:53:48Z</time>
      </trkpt>
      <trkpt lat="43.62745" lon="3.84671">
        <ele>51</ele>
        <time>2021-02-28T15:53:50Z</time>
      </trkpt>
      <trkpt lat="43.62738" lon="3.84682">
        <ele>52</ele>
        <time>2021-02-28T15:53:51Z</time>
      </trkpt>
      <trkpt lat="43.62735" lon="3.84688">
        <ele>52</ele>
        <time>2021-02-28T15:53:52Z</time>
      </trkpt>
      <trkpt lat="43.62732" lon="3.84694">
        <ele>52</ele>
        <time>2021-02-28T15:53:53Z</time>
      </trkpt>
      <trkpt lat="43.62729" lon="3.847">
        <ele>52</ele>
        <time>2021-02-28T15:53:54Z</time>
      </trkpt>
      <trkpt lat="43.62726" lon="3.84706">
        <ele>52</ele>
        <time>2021-02-28T15:53:55Z</time>
      </trkpt>
      <trkpt lat="43.62723" lon="3.84713">
        <ele>52</ele>
        <time>2021-02-28T15:53:56Z</time>
      </trkpt>
      <trkpt lat="43.6272" lon="3.84719">
        <ele>52</ele>
        <time>2021-02-28T15:53:58Z</time>
      </trkpt>
      <trkpt lat="43.62717" lon="3.84725">
        <ele>52</ele>
        <time>2021-02-28T15:53:59Z</time>
      </trkpt>
      <trkpt lat="43.62711" lon="3.84738">
        <ele>52</ele>
        <time>2021-02-28T15:54:00Z</time>
      </trkpt>
      <trkpt lat="43.62708" lon="3.84744">
        <ele>50</ele>
        <time>2021-02-28T15:54:01Z</time>
      </trkpt>
      <trkpt lat="43.62703" lon="3.84757">
        <ele>50</ele>
        <time>2021-02-28T15:54:03Z</time>
      </trkpt>
      <trkpt lat="43.627" lon="3.84763">
        <ele>50</ele>
        <time>2021-02-28T15:54:04Z</time>
      </trkpt>
      <trkpt lat="43.62697" lon="3.8477">
        <ele>50</ele>
        <time>2021-02-28T15:54:05Z</time>
      </trkpt>
      <trkpt lat="43.62692" lon="3.84782">
        <ele>50</ele>
        <time>2021-02-28T15:54:07Z</time>
      </trkpt>
      <trkpt lat="43.62687" lon="3.84795">
        <ele>50</ele>
        <time>2021-02-28T15:54:09Z</time>
      </trkpt>
      <trkpt lat="43.62685" lon="3.84801">
        <ele>50</ele>
        <time>2021-02-28T15:54:10Z</time>
      </trkpt>
      <trkpt lat="43.62683" lon="3.84807">
        <ele>48</ele>
        <time>2021-02-28T15:54:11Z</time>
      </trkpt>
      <trkpt lat="43.62677" lon="3.84819">
        <ele>48</ele>
        <time>2021-02-28T15:54:13Z</time>
      </trkpt>
      <trkpt lat="43.62674" lon="3.84825">
        <ele>48</ele>
        <time>2021-02-28T15:54:14Z</time>
      </trkpt>
      <trkpt lat="43.62671" lon="3.84831">
        <ele>48</ele>
        <time>2021-02-28T15:54:15Z</time>
      </trkpt>
      <trkpt lat="43.62668" lon="3.84837">
        <ele>48</ele>
        <time>2021-02-28T15:54:16Z</time>
      </trkpt>
      <trkpt lat="43.62662" lon="3.84847">
        <ele>48</ele>
        <time>2021-02-28T15:54:18Z</time>
      </trkpt>
      <trkpt lat="43.62658" lon="3.84853">
        <ele>48</ele>
        <time>2021-02-28T15:54:19Z</time>
      </trkpt>
      <trkpt lat="43.62655" lon="3.84858">
        <ele>48</ele>
        <time>2021-02-28T15:54:20Z</time>
      </trkpt>
      <trkpt lat="43.62648" lon="3.84869">
        <ele>48</ele>
        <time>2021-02-28T15:54:22Z</time>
      </trkpt>
      <trkpt lat="43.62644" lon="3.84874">
        <ele>48</ele>
        <time>2021-02-28T15:54:23Z</time>
      </trkpt>
      <trkpt lat="43.6264" lon="3.84879">
        <ele>48</ele>
        <time>2021-02-28T15:54:24Z</time>
      </trkpt>
      <trkpt lat="43.62636" lon="3.84884">
        <ele>48</ele>
        <time>2021-02-28T15:54:25Z</time>
      </trkpt>
      <trkpt lat="43.62632" lon="3.8489">
        <ele>48</ele>
        <time>2021-02-28T15:54:26Z</time>
      </trkpt>
      <trkpt lat="43.62629" lon="3.84895">
        <ele>48</ele>
        <time>2021-02-28T15:54:27Z</time>
      </trkpt>
      <trkpt lat="43.62625" lon="3.849">
        <ele>48</ele>
        <time>2021-02-28T15:54:28Z</time>
      </trkpt>
      <trkpt lat="43.62621" lon="3.84905">
        <ele>48</ele>
        <time>2021-02-28T15:54:29Z</time>
      </trkpt>
      <trkpt lat="43.62618" lon="3.8491">
        <ele>48</ele>
        <time>2021-02-28T15:54:30Z</time>
      </trkpt>
      <trkpt lat="43.62614" lon="3.84915">
        <ele>49</ele>
        <time>2021-02-28T15:54:31Z</time>
      </trkpt>
      <trkpt lat="43.62611" lon="3.8492">
        <ele>49</ele>
        <time>2021-02-28T15:54:32Z</time>
      </trkpt>
      <trkpt lat="43.62607" lon="3.84925">
        <ele>49</ele>
        <time>2021-02-28T15:54:33Z</time>
      </trkpt>
      <trkpt lat="43.62604" lon="3.84929">
        <ele>49</ele>
        <time>2021-02-28T15:54:34Z</time>
      </trkpt>
      <trkpt lat="43.626" lon="3.84934">
        <ele>49</ele>
        <time>2021-02-28T15:54:35Z</time>
      </trkpt>
      <trkpt lat="43.62594" lon="3.84944">
        <ele>49</ele>
        <time>2021-02-28T15:54:37Z</time>
      </trkpt>
      <trkpt lat="43.62591" lon="3.84948">
        <ele>49</ele>
        <time>2021-02-28T15:54:38Z</time>
      </trkpt>
      <trkpt lat="43.62588" lon="3.84952">
        <ele>49</ele>
        <time>2021-02-28T15:54:40Z</time>
      </trkpt>
      <trkpt lat="43.62585" lon="3.84957">
        <ele>47</ele>
        <time>2021-02-28T15:54:41Z</time>
      </trkpt>
      <trkpt lat="43.62581" lon="3.84962">
        <ele>47</ele>
        <time>2021-02-28T15:54:42Z</time>
      </trkpt>
      <trkpt lat="43.62574" lon="3.84971">
        <ele>47</ele>
        <time>2021-02-28T15:54:43Z</time>
      </trkpt>
      <trkpt lat="43.6257" lon="3.84975">
        <ele>47</ele>
        <time>2021-02-28T15:54:44Z</time>
      </trkpt>
      <trkpt lat="43.62567" lon="3.8498">
        <ele>47</ele>
        <time>2021-02-28T15:54:45Z</time>
      </trkpt>
      <trkpt lat="43.62563" lon="3.84984">
        <ele>47</ele>
        <time>2021-02-28T15:54:46Z</time>
      </trkpt>
      <trkpt lat="43.62559" lon="3.84989">
        <ele>47</ele>
        <time>2021-02-28T15:54:47Z</time>
      </trkpt>
      <trkpt lat="43.62555" lon="3.84993">
        <ele>47</ele>
        <time>2021-02-28T15:54:48Z</time>
      </trkpt>
      <trkpt lat="43.62551" lon="3.84997">
        <ele>47</ele>
        <time>2021-02-28T15:54:49Z</time>
      </trkpt>
      <trkpt lat="43.62547" lon="3.85001">
        <ele>47</ele>
        <time>2021-02-28T15:54:50Z</time>
      </trkpt>
      <trkpt lat="43.62544" lon="3.85005">
        <ele>47</ele>
        <time>2021-02-28T15:54:51Z</time>
      </trkpt>
      <trkpt lat="43.62541" lon="3.85008">
        <ele>47</ele>
        <time>2021-02-28T15:54:52Z</time>
      </trkpt>
      <trkpt lat="43.62536" lon="3.85008">
        <ele>47</ele>
        <time>2021-02-28T15:54:53Z</time>
      </trkpt>
      <trkpt lat="43.62532" lon="3.85008">
        <ele>47</ele>
        <time>2021-02-28T15:54:54Z</time>
      </trkpt>
      <trkpt lat="43.62528" lon="3.85006">
        <ele>47</ele>
        <time>2021-02-28T15:54:55Z</time>
      </trkpt>
      <trkpt lat="43.62523" lon="3.85003">
        <ele>47</ele>
        <time>2021-02-28T15:54:56Z</time>
      </trkpt>
      <trkpt lat="43.62519" lon="3.84999">
        <ele>47</ele>
        <time>2021-02-28T15:54:57Z</time>
      </trkpt>
      <trkpt lat="43.62517" lon="3.84994">
        <ele>47</ele>
        <time>2021-02-28T15:54:58Z</time>
      </trkpt>
      <trkpt lat="43.62512" lon="3.84984">
        <ele>47</ele>
        <time>2021-02-28T15:55:00Z</time>
      </trkpt>
      <trkpt lat="43.62509" lon="3.8498">
        <ele>47</ele>
        <time>2021-02-28T15:55:01Z</time>
      </trkpt>
      <trkpt lat="43.62507" lon="3.84976">
        <ele>47</ele>
        <time>2021-02-28T15:55:02Z</time>
      </trkpt>
      <trkpt lat="43.62502" lon="3.84969">
        <ele>47</ele>
        <time>2021-02-28T15:55:04Z</time>
      </trkpt>
      <trkpt lat="43.62499" lon="3.84966">
        <ele>47</ele>
        <time>2021-02-28T15:55:05Z</time>
      </trkpt>
      <trkpt lat="43.62497" lon="3.84963">
        <ele>47</ele>
        <time>2021-02-28T15:55:06Z</time>
      </trkpt>
      <trkpt lat="43.62495" lon="3.8496">
        <ele>47</ele>
        <time>2021-02-28T15:55:07Z</time>
      </trkpt>
      <trkpt lat="43.62492" lon="3.84956">
        <ele>47</ele>
        <time>2021-02-28T15:55:08Z</time>
      </trkpt>
      <trkpt lat="43.6249" lon="3.84953">
        <ele>47</ele>
        <time>2021-02-28T15:55:09Z</time>
      </trkpt>
      <trkpt lat="43.62488" lon="3.8495">
        <ele>47</ele>
        <time>2021-02-28T15:55:10Z</time>
      </trkpt>
      <trkpt lat="43.62486" lon="3.84947">
        <ele>48</ele>
        <time>2021-02-28T15:55:11Z</time>
      </trkpt>
      <trkpt lat="43.62484" lon="3.84943">
        <ele>48</ele>
        <time>2021-02-28T15:55:12Z</time>
      </trkpt>
      <trkpt lat="43.62481" lon="3.8494">
        <ele>48</ele>
        <time>2021-02-28T15:55:13Z</time>
      </trkpt>
      <trkpt lat="43.62478" lon="3.84937">
        <ele>48</ele>
        <time>2021-02-28T15:55:14Z</time>
      </trkpt>
      <trkpt lat="43.62476" lon="3.84934">
        <ele>48</ele>
        <time>2021-02-28T15:55:15Z</time>
      </trkpt>
      <trkpt lat="43.62472" lon="3.84928">
        <ele>48</ele>
        <time>2021-02-28T15:55:17Z</time>
      </trkpt>
      <trkpt lat="43.6247" lon="3.84925">
        <ele>48</ele>
        <time>2021-02-28T15:55:18Z</time>
      </trkpt>
      <trkpt lat="43.62468" lon="3.84923">
        <ele>48</ele>
        <time>2021-02-28T15:55:19Z</time>
      </trkpt>
      <trkpt lat="43.62463" lon="3.84917">
        <ele>50</ele>
        <time>2021-02-28T15:55:21Z</time>
      </trkpt>
      <trkpt lat="43.62461" lon="3.84914">
        <ele>50</ele>
        <time>2021-02-28T15:55:22Z</time>
      </trkpt>
      <trkpt lat="43.62459" lon="3.84911">
        <ele>50</ele>
        <time>2021-02-28T15:55:23Z</time>
      </trkpt>
      <trkpt lat="43.62457" lon="3.84909">
        <ele>50</ele>
        <time>2021-02-28T15:55:24Z</time>
      </trkpt>
      <trkpt lat="43.62455" lon="3.84906">
        <ele>50</ele>
        <time>2021-02-28T15:55:25Z</time>
      </trkpt>
      <trkpt lat="43.62453" lon="3.84904">
        <ele>50</ele>
        <time>2021-02-28T15:55:26Z</time>
      </trkpt>
      <trkpt lat="43.6245" lon="3.84903">
        <ele>50</ele>
        <time>2021-02-28T15:55:27Z</time>
      </trkpt>
      <trkpt lat="43.62448" lon="3.84902">
        <ele>50</ele>
        <time>2021-02-28T15:55:28Z</time>
      </trkpt>
      <trkpt lat="43.62445" lon="3.84903">
        <ele>50</ele>
        <time>2021-02-28T15:55:29Z</time>
      </trkpt>
      <trkpt lat="43.62443" lon="3.84905">
        <ele>50</ele>
        <time>2021-02-28T15:55:30Z</time>
      </trkpt>
      <trkpt lat="43.62441" lon="3.84908">
        <ele>50</ele>
        <time>2021-02-28T15:55:31Z</time>
      </trkpt>
      <trkpt lat="43.6244" lon="3.84911">
        <ele>50</ele>
        <time>2021-02-28T15:55:32Z</time>
      </trkpt>
      <trkpt lat="43.62436" lon="3.84917">
        <ele>50</ele>
        <time>2021-02-28T15:55:34Z</time>
      </trkpt>
      <trkpt lat="43.62435" lon="3.8492">
        <ele>50</ele>
        <time>2021-02-28T15:55:35Z</time>
      </trkpt>
      <trkpt lat="43.62433" lon="3.84924">
        <ele>50</ele>
        <time>2021-02-28T15:55:36Z</time>
      </trkpt>
      <trkpt lat="43.62429" lon="3.8493">
        <ele>50</ele>
        <time>2021-02-28T15:55:38Z</time>
      </trkpt>
      <trkpt lat="43.62427" lon="3.84933">
        <ele>50</ele>
        <time>2021-02-28T15:55:39Z</time>
      </trkpt>
      <trkpt lat="43.62425" lon="3.84936">
        <ele>50</ele>
        <time>2021-02-28T15:55:40Z</time>
      </trkpt>
      <trkpt lat="43.62423" lon="3.84938">
        <ele>51</ele>
        <time>2021-02-28T15:55:41Z</time>
      </trkpt>
      <trkpt lat="43.6242" lon="3.8494">
        <ele>51</ele>
        <time>2021-02-28T15:55:43Z</time>
      </trkpt>
      <trkpt lat="43.62418" lon="3.84941">
        <ele>51</ele>
        <time>2021-02-28T15:55:44Z</time>
      </trkpt>
      <trkpt lat="43.62412" lon="3.84942">
        <ele>51</ele>
        <time>2021-02-28T15:55:45Z</time>
      </trkpt>
      <trkpt lat="43.6241" lon="3.84941">
        <ele>51</ele>
        <time>2021-02-28T15:55:46Z</time>
      </trkpt>
      <trkpt lat="43.62407" lon="3.84939">
        <ele>51</ele>
        <time>2021-02-28T15:55:47Z</time>
      </trkpt>
      <trkpt lat="43.62405" lon="3.84938">
        <ele>51</ele>
        <time>2021-02-28T15:55:48Z</time>
      </trkpt>
      <trkpt lat="43.62403" lon="3.84937">
        <ele>51</ele>
        <time>2021-02-28T15:55:50Z</time>
      </trkpt>
      <trkpt lat="43.62401" lon="3.84934">
        <ele>52</ele>
        <time>2021-02-28T15:55:51Z</time>
      </trkpt>
      <trkpt lat="43.624" lon="3.84932">
        <ele>52</ele>
        <time>2021-02-28T15:55:52Z</time>
      </trkpt>
      <trkpt lat="43.62398" lon="3.84931">
        <ele>52</ele>
        <time>2021-02-28T15:55:53Z</time>
      </trkpt>
      <trkpt lat="43.62396" lon="3.8493">
        <ele>52</ele>
        <time>2021-02-28T15:55:54Z</time>
      </trkpt>
      <trkpt lat="43.62394" lon="3.84929">
        <ele>52</ele>
        <time>2021-02-28T15:55:55Z</time>
      </trkpt>
      <trkpt lat="43.62392" lon="3.84929">
        <ele>52</ele>
        <time>2021-02-28T15:55:56Z</time>
      </trkpt>
      <trkpt lat="43.6239" lon="3.84929">
        <ele>52</ele>
        <time>2021-02-28T15:55:57Z</time>
      </trkpt>
      <trkpt lat="43.62388" lon="3.84928">
        <ele>52</ele>
        <time>2021-02-28T15:55:58Z</time>
      </trkpt>
      <trkpt lat="43.62386" lon="3.84929">
        <ele>52</ele>
        <time>2021-02-28T15:55:59Z</time>
      </trkpt>
      <trkpt lat="43.62384" lon="3.84928">
        <ele>52</ele>
        <time>2021-02-28T15:56:00Z</time>
      </trkpt>
      <trkpt lat="43.62382" lon="3.84928">
        <ele>53</ele>
        <time>2021-02-28T15:56:01Z</time>
      </trkpt>
      <trkpt lat="43.62378" lon="3.8493">
        <ele>53</ele>
        <time>2021-02-28T15:56:03Z</time>
      </trkpt>
      <trkpt lat="43.62376" lon="3.84933">
        <ele>53</ele>
        <time>2021-02-28T15:56:05Z</time>
      </trkpt>
      <trkpt lat="43.62373" lon="3.84936">
        <ele>53</ele>
        <time>2021-02-28T15:56:07Z</time>
      </trkpt>
      <trkpt lat="43.62372" lon="3.84939">
        <ele>53</ele>
        <time>2021-02-28T15:56:08Z</time>
      </trkpt>
      <trkpt lat="43.62371" lon="3.84941">
        <ele>53</ele>
        <time>2021-02-28T15:56:09Z</time>
      </trkpt>
      <trkpt lat="43.6237" lon="3.84946">
        <ele>55</ele>
        <time>2021-02-28T15:56:11Z</time>
      </trkpt>
      <trkpt lat="43.62369" lon="3.84949">
        <ele>55</ele>
        <time>2021-02-28T15:56:12Z</time>
      </trkpt>
      <trkpt lat="43.62368" lon="3.84952">
        <ele>55</ele>
        <time>2021-02-28T15:56:13Z</time>
      </trkpt>
      <trkpt lat="43.62367" lon="3.84954">
        <ele>55</ele>
        <time>2021-02-28T15:56:14Z</time>
      </trkpt>
      <trkpt lat="43.62362" lon="3.84955">
        <ele>55</ele>
        <time>2021-02-28T15:56:16Z</time>
      </trkpt>
      <trkpt lat="43.6236" lon="3.84953">
        <ele>55</ele>
        <time>2021-02-28T15:56:17Z</time>
      </trkpt>
      <trkpt lat="43.62358" lon="3.84952">
        <ele>55</ele>
        <time>2021-02-28T15:56:18Z</time>
      </trkpt>
      <trkpt lat="43.62356" lon="3.84951">
        <ele>55</ele>
        <time>2021-02-28T15:56:19Z</time>
      </trkpt>
      <trkpt lat="43.62354" lon="3.8495">
        <ele>55</ele>
        <time>2021-02-28T15:56:20Z</time>
      </trkpt>
      <trkpt lat="43.62352" lon="3.84949">
        <ele>56</ele>
        <time>2021-02-28T15:56:21Z</time>
      </trkpt>
      <trkpt lat="43.6235" lon="3.84949">
        <ele>56</ele>
        <time>2021-02-28T15:56:22Z</time>
      </trkpt>
      <trkpt lat="43.62348" lon="3.84949">
        <ele>56</ele>
        <time>2021-02-28T15:56:23Z</time>
      </trkpt>
      <trkpt lat="43.62346" lon="3.8495">
        <ele>56</ele>
        <time>2021-02-28T15:56:24Z</time>
      </trkpt>
      <trkpt lat="43.62344" lon="3.8495">
        <ele>56</ele>
        <time>2021-02-28T15:56:25Z</time>
      </trkpt>
      <trkpt lat="43.6234" lon="3.84952">
        <ele>56</ele>
        <time>2021-02-28T15:56:27Z</time>
      </trkpt>
      <trkpt lat="43.62337" lon="3.84954">
        <ele>56</ele>
        <time>2021-02-28T15:56:29Z</time>
      </trkpt>
      <trkpt lat="43.62334" lon="3.84956">
        <ele>57</ele>
        <time>2021-02-28T15:56:31Z</time>
      </trkpt>
      <trkpt lat="43.62332" lon="3.8496">
        <ele>57</ele>
        <time>2021-02-28T15:56:33Z</time>
      </trkpt>
      <trkpt lat="43.62331" lon="3.84962">
        <ele>57</ele>
        <time>2021-02-28T15:56:34Z</time>
      </trkpt>
      <trkpt lat="43.62329" lon="3.84964">
        <ele>57</ele>
        <time>2021-02-28T15:56:35Z</time>
      </trkpt>
      <trkpt lat="43.62327" lon="3.84966">
        <ele>57</ele>
        <time>2021-02-28T15:56:36Z</time>
      </trkpt>
      <trkpt lat="43.62323" lon="3.8497">
        <ele>57</ele>
        <time>2021-02-28T15:56:38Z</time>
      </trkpt>
      <trkpt lat="43.6232" lon="3.84971">
        <ele>57</ele>
        <time>2021-02-28T15:56:39Z</time>
      </trkpt>
      <trkpt lat="43.62318" lon="3.84972">
        <ele>57</ele>
        <time>2021-02-28T15:56:40Z</time>
      </trkpt>
      <trkpt lat="43.62315" lon="3.84972">
        <ele>59</ele>
        <time>2021-02-28T15:56:41Z</time>
      </trkpt>
      <trkpt lat="43.62312" lon="3.84973">
        <ele>59</ele>
        <time>2021-02-28T15:56:42Z</time>
      </trkpt>
      <trkpt lat="43.6231" lon="3.84972">
        <ele>59</ele>
        <time>2021-02-28T15:56:43Z</time>
      </trkpt>
      <trkpt lat="43.62305" lon="3.84972">
        <ele>59</ele>
        <time>2021-02-28T15:56:45Z</time>
      </trkpt>
      <trkpt lat="43.62302" lon="3.84972">
        <ele>59</ele>
        <time>2021-02-28T15:56:47Z</time>
      </trkpt>
      <trkpt lat="43.623" lon="3.84973">
        <ele>59</ele>
        <time>2021-02-28T15:56:48Z</time>
      </trkpt>
      <trkpt lat="43.62298" lon="3.84973">
        <ele>59</ele>
        <time>2021-02-28T15:56:49Z</time>
      </trkpt>
      <trkpt lat="43.62293" lon="3.84974">
        <ele>61</ele>
        <time>2021-02-28T15:56:51Z</time>
      </trkpt>
      <trkpt lat="43.62291" lon="3.84975">
        <ele>61</ele>
        <time>2021-02-28T15:56:52Z</time>
      </trkpt>
      <trkpt lat="43.62285" lon="3.84979">
        <ele>61</ele>
        <time>2021-02-28T15:56:55Z</time>
      </trkpt>
      <trkpt lat="43.62282" lon="3.84979">
        <ele>61</ele>
        <time>2021-02-28T15:56:56Z</time>
      </trkpt>
      <trkpt lat="43.6228" lon="3.84978">
        <ele>61</ele>
        <time>2021-02-28T15:56:57Z</time>
      </trkpt>
      <trkpt lat="43.62279" lon="3.84974">
        <ele>61</ele>
        <time>2021-02-28T15:56:58Z</time>
      </trkpt>
      <trkpt lat="43.62278" lon="3.84971">
        <ele>61</ele>
        <time>2021-02-28T15:56:59Z</time>
      </trkpt>
      <trkpt lat="43.62278" lon="3.84968">
        <ele>61</ele>
        <time>2021-02-28T15:57:00Z</time>
      </trkpt>
      <trkpt lat="43.62277" lon="3.84965">
        <ele>61</ele>
        <time>2021-02-28T15:57:02Z</time>
      </trkpt>
      <trkpt lat="43.62275" lon="3.84958">
        <ele>61</ele>
        <time>2021-02-28T15:57:04Z</time>
      </trkpt>
      <trkpt lat="43.62275" lon="3.84956">
        <ele>61</ele>
        <time>2021-02-28T15:57:05Z</time>
      </trkpt>
      <trkpt lat="43.62274" lon="3.84953">
        <ele>61</ele>
        <time>2021-02-28T15:57:06Z</time>
      </trkpt>
      <trkpt lat="43.62274" lon="3.8495">
        <ele>61</ele>
        <time>2021-02-28T15:57:07Z</time>
      </trkpt>
      <trkpt lat="43.62273" lon="3.84948">
        <ele>61</ele>
        <time>2021-02-28T15:57:08Z</time>
      </trkpt>
      <trkpt lat="43.62273" lon="3.84945">
        <ele>61</ele>
        <time>2021-02-28T15:57:09Z</time>
      </trkpt>
      <trkpt lat="43.62272" lon="3.84942">
        <ele>61</ele>
        <time>2021-02-28T15:57:10Z</time>
      </trkpt>
      <trkpt lat="43.62272" lon="3.84938">
        <ele>61</ele>
        <time>2021-02-28T15:57:12Z</time>
      </trkpt>
      <trkpt lat="43.62271" lon="3.84935">
        <ele>61</ele>
        <time>2021-02-28T15:57:13Z</time>
      </trkpt>
      <trkpt lat="43.62271" lon="3.84933">
        <ele>61</ele>
        <time>2021-02-28T15:57:14Z</time>
      </trkpt>
      <trkpt lat="43.6227" lon="3.8493">
        <ele>61</ele>
        <time>2021-02-28T15:57:15Z</time>
      </trkpt>
      <trkpt lat="43.6227" lon="3.84926">
        <ele>61</ele>
        <time>2021-02-28T15:57:17Z</time>
      </trkpt>
      <trkpt lat="43.6227" lon="3.84921">
        <ele>61</ele>
        <time>2021-02-28T15:57:19Z</time>
      </trkpt>
      <trkpt lat="43.6227" lon="3.84917">
        <ele>61</ele>
        <time>2021-02-28T15:57:21Z</time>
      </trkpt>
      <trkpt lat="43.62269" lon="3.84913">
        <ele>61</ele>
        <time>2021-02-28T15:57:23Z</time>
      </trkpt>
      <trkpt lat="43.62259" lon="3.84905">
        <ele>62</ele>
        <time>2021-02-28T15:58:08Z</time>
      </trkpt>
      <trkpt lat="43.62256" lon="3.84904">
        <ele>62</ele>
        <time>2021-02-28T15:58:09Z</time>
      </trkpt>
      <trkpt lat="43.62254" lon="3.84904">
        <ele>62</ele>
        <time>2021-02-28T15:58:10Z</time>
      </trkpt>
      <trkpt lat="43.62253" lon="3.84901">
        <ele>62</ele>
        <time>2021-02-28T15:58:11Z</time>
      </trkpt>
      <trkpt lat="43.62258" lon="3.84907">
        <ele>61</ele>
        <time>2021-02-28T15:59:06Z</time>
      </trkpt>
      <trkpt lat="43.62255" lon="3.84906">
        <ele>60</ele>
        <time>2021-02-28T15:59:40Z</time>
      </trkpt>
      <trkpt lat="43.62255" lon="3.84906">
        <ele>60</ele>
        <time>2021-02-28T15:59:45Z</time>
      </trkpt>
      <trkpt lat="43.62259" lon="3.84903">
        <ele>59</ele>
        <time>2021-02-28T16:00:34Z</time>
      </trkpt>
      <trkpt lat="43.62259" lon="3.84904">
        <ele>59</ele>
        <time>2021-02-28T16:01:15Z</time>
      </trkpt>
      <trkpt lat="43.62262" lon="3.84904">
        <ele>61</ele>
        <time>2021-02-28T16:01:38Z</time>
      </trkpt>
      <trkpt lat="43.62262" lon="3.84906">
        <ele>61</ele>
        <time>2021-02-28T16:01:42Z</time>
      </trkpt>
      <trkpt lat="43.62262" lon="3.84899">
        <ele>60</ele>
        <time>2021-02-28T16:01:54Z</time>
      </trkpt>
      <trkpt lat="43.62262" lon="3.84897">
        <ele>60</ele>
        <time>2021-02-28T16:01:59Z</time>
      </trkpt>
      <trkpt lat="43.62262" lon="3.84894">
        <ele>60</ele>
        <time>2021-02-28T16:02:02Z</time>
      </trkpt>
      <trkpt lat="43.62257" lon="3.84893">
        <ele>64</ele>
        <time>2021-02-28T16:02:28Z</time>
      </trkpt>
      <trkpt lat="43.62257" lon="3.84893">
        <ele>64</ele>
        <time>2021-02-28T16:02:31Z</time>
      </trkpt>
      <trkpt lat="43.62258" lon="3.84893">
        <ele>65</ele>
        <time>2021-02-28T16:05:16Z</time>
      </trkpt>
      <trkpt lat="43.62258" lon="3.84901">
        <ele>65</ele>
        <time>2021-02-28T16:05:27Z</time>
      </trkpt>
      <trkpt lat="43.62262" lon="3.84898">
        <ele>65</ele>
        <time>2021-02-28T16:05:49Z</time>
      </trkpt>
      <trkpt lat="43.62261" lon="3.84899">
        <ele>63</ele>
        <time>2021-02-28T16:05:58Z</time>
      </trkpt>
      <trkpt lat="43.62261" lon="3.84901">
        <ele>64</ele>
        <time>2021-02-28T16:07:57Z</time>
      </trkpt>
      <trkpt lat="43.62262" lon="3.84901">
        <ele>64</ele>
        <time>2021-02-28T16:08:01Z</time>
      </trkpt>
      <trkpt lat="43.62259" lon="3.84903">
        <ele>63</ele>
        <time>2021-02-28T16:09:07Z</time>
      </trkpt>
      <trkpt lat="43.62258" lon="3.84903">
        <ele>63</ele>
        <time>2021-02-28T16:09:08Z</time>
      </trkpt>
      <trkpt lat="43.62264" lon="3.84907">
        <ele>62</ele>
        <time>2021-02-28T16:10:51Z</time>
      </trkpt>
      <trkpt lat="43.6226" lon="3.84903">
        <ele>63</ele>
        <time>2021-02-28T16:12:30Z</time>
      </trkpt>
      <trkpt lat="43.62261" lon="3.849">
        <ele>63</ele>
        <time>2021-02-28T16:12:36Z</time>
      </trkpt>
      <trkpt lat="43.62258" lon="3.84894">
        <ele>64</ele>
        <time>2021-02-28T16:13:29Z</time>
      </trkpt>
      <trkpt lat="43.62257" lon="3.84893">
        <ele>65</ele>
        <time>2021-02-28T16:13:35Z</time>
      </trkpt>
      <trkpt lat="43.62257" lon="3.84902">
        <ele>70</ele>
        <time>2021-02-28T16:16:08Z</time>
      </trkpt>
      <trkpt lat="43.62256" lon="3.849">
        <ele>70</ele>
        <time>2021-02-28T16:16:11Z</time>
      </trkpt>
      <trkpt lat="43.62258" lon="3.84905">
        <ele>73</ele>
        <time>2021-02-28T16:17:27Z</time>
      </trkpt>
      <trkpt lat="43.62259" lon="3.84905">
        <ele>73</ele>
        <time>2021-02-28T16:17:31Z</time>
      </trkpt>
      <trkpt lat="43.62262" lon="3.84909">
        <ele>70</ele>
        <time>2021-02-28T16:18:11Z</time>
      </trkpt>
      <trkpt lat="43.62262" lon="3.84909">
        <ele>70</ele>
        <time>2021-02-28T16:18:15Z</time>
      </trkpt>
      <trkpt lat="43.6227" lon="3.84912">
        <ele>68</ele>
        <time>2021-02-28T16:18:50Z</time>
      </trkpt>
      <trkpt lat="43.62271" lon="3.84914">
        <ele>68</ele>
        <time>2021-02-28T16:18:51Z</time>
      </trkpt>
      <trkpt lat="43.62271" lon="3.84922">
        <ele>68</ele>
        <time>2021-02-28T16:18:52Z</time>
      </trkpt>
      <trkpt lat="43.62271" lon="3.84927">
        <ele>68</ele>
        <time>2021-02-28T16:18:53Z</time>
      </trkpt>
      <trkpt lat="43.62272" lon="3.84933">
        <ele>68</ele>
        <time>2021-02-28T16:18:55Z</time>
      </trkpt>
      <trkpt lat="43.62275" lon="3.84945">
        <ele>68</ele>
        <time>2021-02-28T16:18:56Z</time>
      </trkpt>
      <trkpt lat="43.62277" lon="3.84953">
        <ele>68</ele>
        <time>2021-02-28T16:18:57Z</time>
      </trkpt>
      <trkpt lat="43.6228" lon="3.8496">
        <ele>68</ele>
        <time>2021-02-28T16:18:58Z</time>
      </trkpt>
      <trkpt lat="43.62283" lon="3.84969">
        <ele>66</ele>
        <time>2021-02-28T16:18:59Z</time>
      </trkpt>
      <trkpt lat="43.62285" lon="3.84978">
        <ele>66</ele>
        <time>2021-02-28T16:19:01Z</time>
      </trkpt>
      <trkpt lat="43.62286" lon="3.84986">
        <ele>66</ele>
        <time>2021-02-28T16:19:02Z</time>
      </trkpt>
      <trkpt lat="43.62287" lon="3.84994">
        <ele>66</ele>
        <time>2021-02-28T16:19:03Z</time>
      </trkpt>
      <trkpt lat="43.62284" lon="3.85011">
        <ele>66</ele>
        <time>2021-02-28T16:19:05Z</time>
      </trkpt>
      <trkpt lat="43.62282" lon="3.85014">
        <ele>66</ele>
        <time>2021-02-28T16:19:07Z</time>
      </trkpt>
      <trkpt lat="43.62281" lon="3.85017">
        <ele>66</ele>
        <time>2021-02-28T16:19:08Z</time>
      </trkpt>
      <trkpt lat="43.6228" lon="3.85025">
        <ele>64</ele>
        <time>2021-02-28T16:19:09Z</time>
      </trkpt>
      <trkpt lat="43.62281" lon="3.8503">
        <ele>64</ele>
        <time>2021-02-28T16:19:10Z</time>
      </trkpt>
      <trkpt lat="43.62283" lon="3.85035">
        <ele>64</ele>
        <time>2021-02-28T16:19:11Z</time>
      </trkpt>
      <trkpt lat="43.62286" lon="3.85038">
        <ele>64</ele>
        <time>2021-02-28T16:19:12Z</time>
      </trkpt>
      <trkpt lat="43.6229" lon="3.8504">
        <ele>64</ele>
        <time>2021-02-28T16:19:13Z</time>
      </trkpt>
      <trkpt lat="43.62294" lon="3.85043">
        <ele>64</ele>
        <time>2021-02-28T16:19:14Z</time>
      </trkpt>
      <trkpt lat="43.62299" lon="3.85046">
        <ele>64</ele>
        <time>2021-02-28T16:19:15Z</time>
      </trkpt>
      <trkpt lat="43.62303" lon="3.85049">
        <ele>64</ele>
        <time>2021-02-28T16:19:16Z</time>
      </trkpt>
      <trkpt lat="43.62307" lon="3.85051">
        <ele>64</ele>
        <time>2021-02-28T16:19:17Z</time>
      </trkpt>
      <trkpt lat="43.62312" lon="3.85054">
        <ele>64</ele>
        <time>2021-02-28T16:19:18Z</time>
      </trkpt>
      <trkpt lat="43.62321" lon="3.8506">
        <ele>64</ele>
        <time>2021-02-28T16:19:20Z</time>
      </trkpt>
      <trkpt lat="43.62326" lon="3.85063">
        <ele>64</ele>
        <time>2021-02-28T16:19:22Z</time>
      </trkpt>
      <trkpt lat="43.6233" lon="3.85067">
        <ele>64</ele>
        <time>2021-02-28T16:19:23Z</time>
      </trkpt>
      <trkpt lat="43.62334" lon="3.85071">
        <ele>64</ele>
        <time>2021-02-28T16:19:24Z</time>
      </trkpt>
      <trkpt lat="43.62339" lon="3.85074">
        <ele>64</ele>
        <time>2021-02-28T16:19:25Z</time>
      </trkpt>
      <trkpt lat="43.62347" lon="3.85082">
        <ele>64</ele>
        <time>2021-02-28T16:19:26Z</time>
      </trkpt>
      <trkpt lat="43.62351" lon="3.85086">
        <ele>64</ele>
        <time>2021-02-28T16:19:27Z</time>
      </trkpt>
      <trkpt lat="43.62355" lon="3.8509">
        <ele>63</ele>
        <time>2021-02-28T16:19:29Z</time>
      </trkpt>
      <trkpt lat="43.62358" lon="3.85094">
        <ele>63</ele>
        <time>2021-02-28T16:19:30Z</time>
      </trkpt>
      <trkpt lat="43.62362" lon="3.85098">
        <ele>63</ele>
        <time>2021-02-28T16:19:31Z</time>
      </trkpt>
      <trkpt lat="43.62365" lon="3.85103">
        <ele>63</ele>
        <time>2021-02-28T16:19:32Z</time>
      </trkpt>
      <trkpt lat="43.62367" lon="3.85109">
        <ele>63</ele>
        <time>2021-02-28T16:19:33Z</time>
      </trkpt>
      <trkpt lat="43.62367" lon="3.85115">
        <ele>63</ele>
        <time>2021-02-28T16:19:34Z</time>
      </trkpt>
      <trkpt lat="43.62366" lon="3.85121">
        <ele>63</ele>
        <time>2021-02-28T16:19:35Z</time>
      </trkpt>
      <trkpt lat="43.62365" lon="3.85127">
        <ele>63</ele>
        <time>2021-02-28T16:19:36Z</time>
      </trkpt>
      <trkpt lat="43.62362" lon="3.85133">
        <ele>63</ele>
        <time>2021-02-28T16:19:37Z</time>
      </trkpt>
      <trkpt lat="43.62355" lon="3.85142">
        <ele>63</ele>
        <time>2021-02-28T16:19:38Z</time>
      </trkpt>
      <trkpt lat="43.62352" lon="3.85146">
        <ele>63</ele>
        <time>2021-02-28T16:19:40Z</time>
      </trkpt>
      <trkpt lat="43.62348" lon="3.8515">
        <ele>63</ele>
        <time>2021-02-28T16:19:41Z</time>
      </trkpt>
      <trkpt lat="43.62344" lon="3.85154">
        <ele>63</ele>
        <time>2021-02-28T16:19:42Z</time>
      </trkpt>
      <trkpt lat="43.62341" lon="3.85158">
        <ele>63</ele>
        <time>2021-02-28T16:19:43Z</time>
      </trkpt>
      <trkpt lat="43.62337" lon="3.85162">
        <ele>63</ele>
        <time>2021-02-28T16:19:44Z</time>
      </trkpt>
      <trkpt lat="43.62334" lon="3.85166">
        <ele>63</ele>
        <time>2021-02-28T16:19:45Z</time>
      </trkpt>
      <trkpt lat="43.62331" lon="3.85171">
        <ele>63</ele>
        <time>2021-02-28T16:19:46Z</time>
      </trkpt>
      <trkpt lat="43.62327" lon="3.85176">
        <ele>63</ele>
        <time>2021-02-28T16:19:47Z</time>
      </trkpt>
      <trkpt lat="43.62324" lon="3.8518">
        <ele>63</ele>
        <time>2021-02-28T16:19:48Z</time>
      </trkpt>
      <trkpt lat="43.62317" lon="3.8519">
        <ele>61</ele>
        <time>2021-02-28T16:19:49Z</time>
      </trkpt>
      <trkpt lat="43.62314" lon="3.85194">
        <ele>61</ele>
        <time>2021-02-28T16:19:51Z</time>
      </trkpt>
      <trkpt lat="43.62311" lon="3.85199">
        <ele>61</ele>
        <time>2021-02-28T16:19:52Z</time>
      </trkpt>
      <trkpt lat="43.62308" lon="3.85203">
        <ele>61</ele>
        <time>2021-02-28T16:19:53Z</time>
      </trkpt>
      <trkpt lat="43.62305" lon="3.85208">
        <ele>61</ele>
        <time>2021-02-28T16:19:54Z</time>
      </trkpt>
      <trkpt lat="43.62299" lon="3.85217">
        <ele>61</ele>
        <time>2021-02-28T16:19:55Z</time>
      </trkpt>
      <trkpt lat="43.62295" lon="3.85221">
        <ele>61</ele>
        <time>2021-02-28T16:19:57Z</time>
      </trkpt>
      <trkpt lat="43.62293" lon="3.85227">
        <ele>61</ele>
        <time>2021-02-28T16:19:58Z</time>
      </trkpt>
      <trkpt lat="43.62291" lon="3.85233">
        <ele>60</ele>
        <time>2021-02-28T16:19:59Z</time>
      </trkpt>
      <trkpt lat="43.62286" lon="3.85246">
        <ele>60</ele>
        <time>2021-02-28T16:20:00Z</time>
      </trkpt>
      <trkpt lat="43.62284" lon="3.85253">
        <ele>60</ele>
        <time>2021-02-28T16:20:02Z</time>
      </trkpt>
      <trkpt lat="43.62281" lon="3.8526">
        <ele>60</ele>
        <time>2021-02-28T16:20:03Z</time>
      </trkpt>
      <trkpt lat="43.62279" lon="3.85268">
        <ele>60</ele>
        <time>2021-02-28T16:20:04Z</time>
      </trkpt>
      <trkpt lat="43.62277" lon="3.85276">
        <ele>60</ele>
        <time>2021-02-28T16:20:05Z</time>
      </trkpt>
      <trkpt lat="43.62276" lon="3.85285">
        <ele>60</ele>
        <time>2021-02-28T16:20:06Z</time>
      </trkpt>
      <trkpt lat="43.62275" lon="3.85294">
        <ele>60</ele>
        <time>2021-02-28T16:20:07Z</time>
      </trkpt>
      <trkpt lat="43.62274" lon="3.85304">
        <ele>60</ele>
        <time>2021-02-28T16:20:08Z</time>
      </trkpt>
      <trkpt lat="43.62274" lon="3.85314">
        <ele>57</ele>
        <time>2021-02-28T16:20:09Z</time>
      </trkpt>
      <trkpt lat="43.62273" lon="3.85324">
        <ele>57</ele>
        <time>2021-02-28T16:20:10Z</time>
      </trkpt>
      <trkpt lat="43.62272" lon="3.85335">
        <ele>57</ele>
        <time>2021-02-28T16:20:11Z</time>
      </trkpt>
      <trkpt lat="43.62272" lon="3.85346">
        <ele>57</ele>
        <time>2021-02-28T16:20:12Z</time>
      </trkpt>
      <trkpt lat="43.62271" lon="3.85358">
        <ele>57</ele>
        <time>2021-02-28T16:20:13Z</time>
      </trkpt>
      <trkpt lat="43.6227" lon="3.85369">
        <ele>57</ele>
        <time>2021-02-28T16:20:14Z</time>
      </trkpt>
      <trkpt lat="43.62268" lon="3.85381">
        <ele>57</ele>
        <time>2021-02-28T16:20:15Z</time>
      </trkpt>
      <trkpt lat="43.62265" lon="3.85392">
        <ele>57</ele>
        <time>2021-02-28T16:20:16Z</time>
      </trkpt>
      <trkpt lat="43.62264" lon="3.85402">
        <ele>57</ele>
        <time>2021-02-28T16:20:17Z</time>
      </trkpt>
      <trkpt lat="43.62263" lon="3.85413">
        <ele>57</ele>
        <time>2021-02-28T16:20:18Z</time>
      </trkpt>
      <trkpt lat="43.62263" lon="3.85424">
        <ele>53</ele>
        <time>2021-02-28T16:20:19Z</time>
      </trkpt>
      <trkpt lat="43.62266" lon="3.85444">
        <ele>53</ele>
        <time>2021-02-28T16:20:20Z</time>
      </trkpt>
      <trkpt lat="43.62265" lon="3.85453">
        <ele>53</ele>
        <time>2021-02-28T16:20:22Z</time>
      </trkpt>
      <trkpt lat="43.62261" lon="3.85462">
        <ele>53</ele>
        <time>2021-02-28T16:20:23Z</time>
      </trkpt>
      <trkpt lat="43.62256" lon="3.85468">
        <ele>53</ele>
        <time>2021-02-28T16:20:24Z</time>
      </trkpt>
      <trkpt lat="43.62245" lon="3.85478">
        <ele>53</ele>
        <time>2021-02-28T16:20:25Z</time>
      </trkpt>
      <trkpt lat="43.6224" lon="3.85482">
        <ele>53</ele>
        <time>2021-02-28T16:20:26Z</time>
      </trkpt>
      <trkpt lat="43.62232" lon="3.85494">
        <ele>53</ele>
        <time>2021-02-28T16:20:28Z</time>
      </trkpt>
      <trkpt lat="43.62228" lon="3.855">
        <ele>50</ele>
        <time>2021-02-28T16:20:29Z</time>
      </trkpt>
      <trkpt lat="43.62224" lon="3.85506">
        <ele>50</ele>
        <time>2021-02-28T16:20:30Z</time>
      </trkpt>
      <trkpt lat="43.6222" lon="3.85512">
        <ele>50</ele>
        <time>2021-02-28T16:20:31Z</time>
      </trkpt>
      <trkpt lat="43.62216" lon="3.85518">
        <ele>50</ele>
        <time>2021-02-28T16:20:32Z</time>
      </trkpt>
      <trkpt lat="43.62212" lon="3.85523">
        <ele>50</ele>
        <time>2021-02-28T16:20:33Z</time>
      </trkpt>
      <trkpt lat="43.62208" lon="3.85529">
        <ele>50</ele>
        <time>2021-02-28T16:20:34Z</time>
      </trkpt>
      <trkpt lat="43.62204" lon="3.85535">
        <ele>50</ele>
        <time>2021-02-28T16:20:35Z</time>
      </trkpt>
      <trkpt lat="43.622" lon="3.85541">
        <ele>50</ele>
        <time>2021-02-28T16:20:36Z</time>
      </trkpt>
      <trkpt lat="43.62196" lon="3.85547">
        <ele>50</ele>
        <time>2021-02-28T16:20:37Z</time>
      </trkpt>
      <trkpt lat="43.62192" lon="3.85554">
        <ele>50</ele>
        <time>2021-02-28T16:20:38Z</time>
      </trkpt>
      <trkpt lat="43.62188" lon="3.8556">
        <ele>48</ele>
        <time>2021-02-28T16:20:39Z</time>
      </trkpt>
      <trkpt lat="43.62183" lon="3.85566">
        <ele>48</ele>
        <time>2021-02-28T16:20:40Z</time>
      </trkpt>
      <trkpt lat="43.6218" lon="3.85572">
        <ele>48</ele>
        <time>2021-02-28T16:20:41Z</time>
      </trkpt>
      <trkpt lat="43.62176" lon="3.85578">
        <ele>48</ele>
        <time>2021-02-28T16:20:42Z</time>
      </trkpt>
      <trkpt lat="43.62171" lon="3.85584">
        <ele>48</ele>
        <time>2021-02-28T16:20:43Z</time>
      </trkpt>
      <trkpt lat="43.62167" lon="3.8559">
        <ele>48</ele>
        <time>2021-02-28T16:20:44Z</time>
      </trkpt>
      <trkpt lat="43.62164" lon="3.85596">
        <ele>48</ele>
        <time>2021-02-28T16:20:45Z</time>
      </trkpt>
      <trkpt lat="43.62156" lon="3.85608">
        <ele>48</ele>
        <time>2021-02-28T16:20:47Z</time>
      </trkpt>
      <trkpt lat="43.62152" lon="3.85615">
        <ele>48</ele>
        <time>2021-02-28T16:20:48Z</time>
      </trkpt>
      <trkpt lat="43.62148" lon="3.85621">
        <ele>46</ele>
        <time>2021-02-28T16:20:49Z</time>
      </trkpt>
      <trkpt lat="43.62144" lon="3.85627">
        <ele>46</ele>
        <time>2021-02-28T16:20:50Z</time>
      </trkpt>
      <trkpt lat="43.6214" lon="3.85633">
        <ele>46</ele>
        <time>2021-02-28T16:20:51Z</time>
      </trkpt>
      <trkpt lat="43.62136" lon="3.85639">
        <ele>46</ele>
        <time>2021-02-28T16:20:52Z</time>
      </trkpt>
      <trkpt lat="43.62132" lon="3.85645">
        <ele>46</ele>
        <time>2021-02-28T16:20:53Z</time>
      </trkpt>
      <trkpt lat="43.62127" lon="3.85651">
        <ele>46</ele>
        <time>2021-02-28T16:20:54Z</time>
      </trkpt>
      <trkpt lat="43.62119" lon="3.85662">
        <ele>46</ele>
        <time>2021-02-28T16:20:56Z</time>
      </trkpt>
      <trkpt lat="43.62115" lon="3.85668">
        <ele>46</ele>
        <time>2021-02-28T16:20:57Z</time>
      </trkpt>
      <trkpt lat="43.62112" lon="3.85675">
        <ele>46</ele>
        <time>2021-02-28T16:20:58Z</time>
      </trkpt>
      <trkpt lat="43.62109" lon="3.85683">
        <ele>46</ele>
        <time>2021-02-28T16:20:59Z</time>
      </trkpt>
      <trkpt lat="43.62106" lon="3.8569">
        <ele>46</ele>
        <time>2021-02-28T16:21:01Z</time>
      </trkpt>
      <trkpt lat="43.62103" lon="3.85697">
        <ele>46</ele>
        <time>2021-02-28T16:21:02Z</time>
      </trkpt>
      <trkpt lat="43.621" lon="3.85704">
        <ele>46</ele>
        <time>2021-02-28T16:21:03Z</time>
      </trkpt>
      <trkpt lat="43.62097" lon="3.85711">
        <ele>46</ele>
        <time>2021-02-28T16:21:04Z</time>
      </trkpt>
      <trkpt lat="43.62095" lon="3.85718">
        <ele>46</ele>
        <time>2021-02-28T16:21:05Z</time>
      </trkpt>
      <trkpt lat="43.62091" lon="3.85724">
        <ele>46</ele>
        <time>2021-02-28T16:21:06Z</time>
      </trkpt>
      <trkpt lat="43.62088" lon="3.85729">
        <ele>46</ele>
        <time>2021-02-28T16:21:07Z</time>
      </trkpt>
      <trkpt lat="43.62081" lon="3.85739">
        <ele>46</ele>
        <time>2021-02-28T16:21:08Z</time>
      </trkpt>
      <trkpt lat="43.62077" lon="3.85741">
        <ele>46</ele>
        <time>2021-02-28T16:21:10Z</time>
      </trkpt>
      <trkpt lat="43.62074" lon="3.85743">
        <ele>46</ele>
        <time>2021-02-28T16:21:11Z</time>
      </trkpt>
      <trkpt lat="43.62074" lon="3.8575">
        <ele>46</ele>
        <time>2021-02-28T16:21:12Z</time>
      </trkpt>
      <trkpt lat="43.62074" lon="3.85752">
        <ele>46</ele>
        <time>2021-02-28T16:21:13Z</time>
      </trkpt>
      <trkpt lat="43.62075" lon="3.85755">
        <ele>46</ele>
        <time>2021-02-28T16:21:15Z</time>
      </trkpt>
      <trkpt lat="43.62074" lon="3.85756">
        <ele>43</ele>
        <time>2021-02-28T16:21:23Z</time>
      </trkpt>
      <trkpt lat="43.62068" lon="3.85763">
        <ele>42</ele>
        <time>2021-02-28T16:21:39Z</time>
      </trkpt>
      <trkpt lat="43.62066" lon="3.85766">
        <ele>42</ele>
        <time>2021-02-28T16:21:40Z</time>
      </trkpt>
      <trkpt lat="43.62064" lon="3.85769">
        <ele>42</ele>
        <time>2021-02-28T16:21:41Z</time>
      </trkpt>
      <trkpt lat="43.62061" lon="3.85774">
        <ele>42</ele>
        <time>2021-02-28T16:21:42Z</time>
      </trkpt>
      <trkpt lat="43.62059" lon="3.85779">
        <ele>42</ele>
        <time>2021-02-28T16:21:43Z</time>
      </trkpt>
      <trkpt lat="43.62057" lon="3.85784">
        <ele>42</ele>
        <time>2021-02-28T16:21:44Z</time>
      </trkpt>
      <trkpt lat="43.62055" lon="3.85789">
        <ele>42</ele>
        <time>2021-02-28T16:21:45Z</time>
      </trkpt>
      <trkpt lat="43.62053" lon="3.85794">
        <ele>42</ele>
        <time>2021-02-28T16:21:46Z</time>
      </trkpt>
      <trkpt lat="43.62051" lon="3.85799">
        <ele>42</ele>
        <time>2021-02-28T16:21:47Z</time>
      </trkpt>
      <trkpt lat="43.62047" lon="3.85809">
        <ele>42</ele>
        <time>2021-02-28T16:21:48Z</time>
      </trkpt>
      <trkpt lat="43.62045" lon="3.85814">
        <ele>41</ele>
        <time>2021-02-28T16:21:49Z</time>
      </trkpt>
      <trkpt lat="43.62043" lon="3.8582">
        <ele>41</ele>
        <time>2021-02-28T16:21:50Z</time>
      </trkpt>
      <trkpt lat="43.62042" lon="3.85825">
        <ele>41</ele>
        <time>2021-02-28T16:21:51Z</time>
      </trkpt>
      <trkpt lat="43.6204" lon="3.8583">
        <ele>41</ele>
        <time>2021-02-28T16:21:52Z</time>
      </trkpt>
      <trkpt lat="43.62038" lon="3.85835">
        <ele>41</ele>
        <time>2021-02-28T16:21:54Z</time>
      </trkpt>
      <trkpt lat="43.62035" lon="3.8584">
        <ele>41</ele>
        <time>2021-02-28T16:21:55Z</time>
      </trkpt>
      <trkpt lat="43.62032" lon="3.85844">
        <ele>41</ele>
        <time>2021-02-28T16:21:56Z</time>
      </trkpt>
      <trkpt lat="43.6203" lon="3.85848">
        <ele>41</ele>
        <time>2021-02-28T16:21:57Z</time>
      </trkpt>
      <trkpt lat="43.62027" lon="3.85853">
        <ele>41</ele>
        <time>2021-02-28T16:21:58Z</time>
      </trkpt>
      <trkpt lat="43.6202" lon="3.85859">
        <ele>39</ele>
        <time>2021-02-28T16:21:59Z</time>
      </trkpt>
      <trkpt lat="43.62016" lon="3.85862">
        <ele>39</ele>
        <time>2021-02-28T16:22:00Z</time>
      </trkpt>
      <trkpt lat="43.62013" lon="3.85865">
        <ele>39</ele>
        <time>2021-02-28T16:22:01Z</time>
      </trkpt>
      <trkpt lat="43.62008" lon="3.85867">
        <ele>39</ele>
        <time>2021-02-28T16:22:02Z</time>
      </trkpt>
      <trkpt lat="43.62004" lon="3.85869">
        <ele>39</ele>
        <time>2021-02-28T16:22:03Z</time>
      </trkpt>
      <trkpt lat="43.62" lon="3.8587">
        <ele>39</ele>
        <time>2021-02-28T16:22:04Z</time>
      </trkpt>
      <trkpt lat="43.61997" lon="3.85871">
        <ele>39</ele>
        <time>2021-02-28T16:22:05Z</time>
      </trkpt>
      <trkpt lat="43.61993" lon="3.85872">
        <ele>39</ele>
        <time>2021-02-28T16:22:06Z</time>
      </trkpt>
      <trkpt lat="43.61991" lon="3.85874">
        <ele>39</ele>
        <time>2021-02-28T16:22:07Z</time>
      </trkpt>
      <trkpt lat="43.61989" lon="3.85875">
        <ele>39</ele>
        <time>2021-02-28T16:22:10Z</time>
      </trkpt>
      <trkpt lat="43.61988" lon="3.85877">
        <ele>39</ele>
        <time>2021-02-28T16:22:12Z</time>
      </trkpt>
      <trkpt lat="43.61988" lon="3.8588">
        <ele>39</ele>
        <time>2021-02-28T16:22:15Z</time>
      </trkpt>
      <trkpt lat="43.61988" lon="3.85886">
        <ele>39</ele>
        <time>2021-02-28T16:22:17Z</time>
      </trkpt>
      <trkpt lat="43.61988" lon="3.85889">
        <ele>39</ele>
        <time>2021-02-28T16:22:18Z</time>
      </trkpt>
      <trkpt lat="43.61989" lon="3.85894">
        <ele>39</ele>
        <time>2021-02-28T16:22:19Z</time>
      </trkpt>
      <trkpt lat="43.61991" lon="3.85902">
        <ele>39</ele>
        <time>2021-02-28T16:22:20Z</time>
      </trkpt>
      <trkpt lat="43.61993" lon="3.85904">
        <ele>39</ele>
        <time>2021-02-28T16:22:21Z</time>
      </trkpt>
      <trkpt lat="43.61996" lon="3.85908">
        <ele>39</ele>
        <time>2021-02-28T16:22:22Z</time>
      </trkpt>
      <trkpt lat="43.61998" lon="3.85912">
        <ele>39</ele>
        <time>2021-02-28T16:22:23Z</time>
      </trkpt>
      <trkpt lat="43.62" lon="3.85917">
        <ele>39</ele>
        <time>2021-02-28T16:22:25Z</time>
      </trkpt>
      <trkpt lat="43.62001" lon="3.85922">
        <ele>39</ele>
        <time>2021-02-28T16:22:26Z</time>
      </trkpt>
      <trkpt lat="43.62001" lon="3.85928">
        <ele>39</ele>
        <time>2021-02-28T16:22:27Z</time>
      </trkpt>
      <trkpt lat="43.62002" lon="3.85938">
        <ele>39</ele>
        <time>2021-02-28T16:22:28Z</time>
      </trkpt>
      <trkpt lat="43.62001" lon="3.85943">
        <ele>38</ele>
        <time>2021-02-28T16:22:29Z</time>
      </trkpt>
      <trkpt lat="43.62" lon="3.85949">
        <ele>38</ele>
        <time>2021-02-28T16:22:30Z</time>
      </trkpt>
      <trkpt lat="43.61998" lon="3.85953">
        <ele>38</ele>
        <time>2021-02-28T16:22:31Z</time>
      </trkpt>
      <trkpt lat="43.61994" lon="3.85963">
        <ele>38</ele>
        <time>2021-02-28T16:22:33Z</time>
      </trkpt>
      <trkpt lat="43.61992" lon="3.85968">
        <ele>38</ele>
        <time>2021-02-28T16:22:34Z</time>
      </trkpt>
      <trkpt lat="43.61989" lon="3.85973">
        <ele>38</ele>
        <time>2021-02-28T16:22:35Z</time>
      </trkpt>
      <trkpt lat="43.61987" lon="3.85977">
        <ele>38</ele>
        <time>2021-02-28T16:22:36Z</time>
      </trkpt>
      <trkpt lat="43.61985" lon="3.85981">
        <ele>38</ele>
        <time>2021-02-28T16:22:38Z</time>
      </trkpt>
      <trkpt lat="43.61983" lon="3.85986">
        <ele>39</ele>
        <time>2021-02-28T16:22:39Z</time>
      </trkpt>
      <trkpt lat="43.61981" lon="3.85991">
        <ele>39</ele>
        <time>2021-02-28T16:22:40Z</time>
      </trkpt>
      <trkpt lat="43.61979" lon="3.85995">
        <ele>39</ele>
        <time>2021-02-28T16:22:41Z</time>
      </trkpt>
      <trkpt lat="43.61977" lon="3.85999">
        <ele>39</ele>
        <time>2021-02-28T16:22:42Z</time>
      </trkpt>
      <trkpt lat="43.61975" lon="3.86004">
        <ele>39</ele>
        <time>2021-02-28T16:22:43Z</time>
      </trkpt>
      <trkpt lat="43.61973" lon="3.86009">
        <ele>39</ele>
        <time>2021-02-28T16:22:44Z</time>
      </trkpt>
      <trkpt lat="43.61971" lon="3.86013">
        <ele>39</ele>
        <time>2021-02-28T16:22:45Z</time>
      </trkpt>
      <trkpt lat="43.61969" lon="3.86018">
        <ele>39</ele>
        <time>2021-02-28T16:22:46Z</time>
      </trkpt>
      <trkpt lat="43.61967" lon="3.86023">
        <ele>39</ele>
        <time>2021-02-28T16:22:47Z</time>
      </trkpt>
      <trkpt lat="43.61965" lon="3.86027">
        <ele>39</ele>
        <time>2021-02-28T16:22:48Z</time>
      </trkpt>
      <trkpt lat="43.61961" lon="3.86037">
        <ele>40</ele>
        <time>2021-02-28T16:22:49Z</time>
      </trkpt>
      <trkpt lat="43.6196" lon="3.86041">
        <ele>40</ele>
        <time>2021-02-28T16:22:50Z</time>
      </trkpt>
      <trkpt lat="43.61958" lon="3.86046">
        <ele>40</ele>
        <time>2021-02-28T16:22:51Z</time>
      </trkpt>
      <trkpt lat="43.61956" lon="3.8605">
        <ele>40</ele>
        <time>2021-02-28T16:22:52Z</time>
      </trkpt>
      <trkpt lat="43.61954" lon="3.86055">
        <ele>40</ele>
        <time>2021-02-28T16:22:53Z</time>
      </trkpt>
      <trkpt lat="43.61952" lon="3.86059">
        <ele>40</ele>
        <time>2021-02-28T16:22:55Z</time>
      </trkpt>
      <trkpt lat="43.6195" lon="3.86064">
        <ele>40</ele>
        <time>2021-02-28T16:22:56Z</time>
      </trkpt>
      <trkpt lat="43.61949" lon="3.86068">
        <ele>40</ele>
        <time>2021-02-28T16:22:57Z</time>
      </trkpt>
      <trkpt lat="43.61947" lon="3.86072">
        <ele>40</ele>
        <time>2021-02-28T16:22:58Z</time>
      </trkpt>
      <trkpt lat="43.61945" lon="3.86077">
        <ele>42</ele>
        <time>2021-02-28T16:22:59Z</time>
      </trkpt>
      <trkpt lat="43.61943" lon="3.86082">
        <ele>42</ele>
        <time>2021-02-28T16:23:00Z</time>
      </trkpt>
      <trkpt lat="43.61941" lon="3.86086">
        <ele>42</ele>
        <time>2021-02-28T16:23:01Z</time>
      </trkpt>
      <trkpt lat="43.61938" lon="3.86095">
        <ele>42</ele>
        <time>2021-02-28T16:23:02Z</time>
      </trkpt>
      <trkpt lat="43.61936" lon="3.861">
        <ele>42</ele>
        <time>2021-02-28T16:23:03Z</time>
      </trkpt>
      <trkpt lat="43.61934" lon="3.86104">
        <ele>42</ele>
        <time>2021-02-28T16:23:04Z</time>
      </trkpt>
      <trkpt lat="43.61932" lon="3.86113">
        <ele>42</ele>
        <time>2021-02-28T16:23:06Z</time>
      </trkpt>
      <trkpt lat="43.6193" lon="3.86117">
        <ele>42</ele>
        <time>2021-02-28T16:23:07Z</time>
      </trkpt>
      <trkpt lat="43.61928" lon="3.86122">
        <ele>42</ele>
        <time>2021-02-28T16:23:08Z</time>
      </trkpt>
      <trkpt lat="43.61925" lon="3.86131">
        <ele>42</ele>
        <time>2021-02-28T16:23:10Z</time>
      </trkpt>
      <trkpt lat="43.61924" lon="3.86135">
        <ele>42</ele>
        <time>2021-02-28T16:23:11Z</time>
      </trkpt>
      <trkpt lat="43.61922" lon="3.8614">
        <ele>42</ele>
        <time>2021-02-28T16:23:12Z</time>
      </trkpt>
      <trkpt lat="43.61919" lon="3.86148">
        <ele>42</ele>
        <time>2021-02-28T16:23:14Z</time>
      </trkpt>
      <trkpt lat="43.61917" lon="3.86153">
        <ele>42</ele>
        <time>2021-02-28T16:23:15Z</time>
      </trkpt>
      <trkpt lat="43.61915" lon="3.86157">
        <ele>42</ele>
        <time>2021-02-28T16:23:16Z</time>
      </trkpt>
      <trkpt lat="43.61914" lon="3.86162">
        <ele>42</ele>
        <time>2021-02-28T16:23:17Z</time>
      </trkpt>
      <trkpt lat="43.61912" lon="3.86166">
        <ele>42</ele>
        <time>2021-02-28T16:23:18Z</time>
      </trkpt>
      <trkpt lat="43.61911" lon="3.86171">
        <ele>42</ele>
        <time>2021-02-28T16:23:20Z</time>
      </trkpt>
      <trkpt lat="43.61909" lon="3.86175">
        <ele>42</ele>
        <time>2021-02-28T16:23:21Z</time>
      </trkpt>
      <trkpt lat="43.61908" lon="3.8618">
        <ele>42</ele>
        <time>2021-02-28T16:23:22Z</time>
      </trkpt>
      <trkpt lat="43.61906" lon="3.86184">
        <ele>42</ele>
        <time>2021-02-28T16:23:23Z</time>
      </trkpt>
      <trkpt lat="43.61905" lon="3.86189">
        <ele>42</ele>
        <time>2021-02-28T16:23:24Z</time>
      </trkpt>
      <trkpt lat="43.61903" lon="3.86193">
        <ele>42</ele>
        <time>2021-02-28T16:23:25Z</time>
      </trkpt>
      <trkpt lat="43.61902" lon="3.86197">
        <ele>42</ele>
        <time>2021-02-28T16:23:26Z</time>
      </trkpt>
      <trkpt lat="43.619" lon="3.86201">
        <ele>42</ele>
        <time>2021-02-28T16:23:27Z</time>
      </trkpt>
      <trkpt lat="43.61898" lon="3.86205">
        <ele>42</ele>
        <time>2021-02-28T16:23:28Z</time>
      </trkpt>
      <trkpt lat="43.61894" lon="3.86213">
        <ele>45</ele>
        <time>2021-02-28T16:23:29Z</time>
      </trkpt>
      <trkpt lat="43.61892" lon="3.86217">
        <ele>45</ele>
        <time>2021-02-28T16:23:30Z</time>
      </trkpt>
      <trkpt lat="43.6189" lon="3.86221">
        <ele>45</ele>
        <time>2021-02-28T16:23:32Z</time>
      </trkpt>
      <trkpt lat="43.61888" lon="3.86225">
        <ele>45</ele>
        <time>2021-02-28T16:23:33Z</time>
      </trkpt>
      <trkpt lat="43.61886" lon="3.86229">
        <ele>45</ele>
        <time>2021-02-28T16:23:34Z</time>
      </trkpt>
      <trkpt lat="43.61878" lon="3.86239">
        <ele>45</ele>
        <time>2021-02-28T16:23:37Z</time>
      </trkpt>
      <trkpt lat="43.61875" lon="3.86243">
        <ele>45</ele>
        <time>2021-02-28T16:23:38Z</time>
      </trkpt>
      <trkpt lat="43.61873" lon="3.86247">
        <ele>48</ele>
        <time>2021-02-28T16:23:39Z</time>
      </trkpt>
      <trkpt lat="43.61871" lon="3.86251">
        <ele>48</ele>
        <time>2021-02-28T16:23:40Z</time>
      </trkpt>
      <trkpt lat="43.61869" lon="3.86255">
        <ele>48</ele>
        <time>2021-02-28T16:23:41Z</time>
      </trkpt>
      <trkpt lat="43.61866" lon="3.8626">
        <ele>48</ele>
        <time>2021-02-28T16:23:42Z</time>
      </trkpt>
      <trkpt lat="43.61864" lon="3.86264">
        <ele>48</ele>
        <time>2021-02-28T16:23:43Z</time>
      </trkpt>
      <trkpt lat="43.61862" lon="3.86268">
        <ele>48</ele>
        <time>2021-02-28T16:23:44Z</time>
      </trkpt>
      <trkpt lat="43.61859" lon="3.86272">
        <ele>48</ele>
        <time>2021-02-28T16:23:45Z</time>
      </trkpt>
      <trkpt lat="43.61857" lon="3.86276">
        <ele>48</ele>
        <time>2021-02-28T16:23:46Z</time>
      </trkpt>
      <trkpt lat="43.61855" lon="3.8628">
        <ele>48</ele>
        <time>2021-02-28T16:23:47Z</time>
      </trkpt>
      <trkpt lat="43.61852" lon="3.86284">
        <ele>48</ele>
        <time>2021-02-28T16:23:48Z</time>
      </trkpt>
      <trkpt lat="43.6185" lon="3.86288">
        <ele>50</ele>
        <time>2021-02-28T16:23:49Z</time>
      </trkpt>
      <trkpt lat="43.61844" lon="3.86296">
        <ele>50</ele>
        <time>2021-02-28T16:23:50Z</time>
      </trkpt>
      <trkpt lat="43.61841" lon="3.863">
        <ele>50</ele>
        <time>2021-02-28T16:23:51Z</time>
      </trkpt>
      <trkpt lat="43.61838" lon="3.86304">
        <ele>50</ele>
        <time>2021-02-28T16:23:53Z</time>
      </trkpt>
      <trkpt lat="43.61832" lon="3.86312">
        <ele>50</ele>
        <time>2021-02-28T16:23:54Z</time>
      </trkpt>
      <trkpt lat="43.61829" lon="3.86317">
        <ele>50</ele>
        <time>2021-02-28T16:23:56Z</time>
      </trkpt>
      <trkpt lat="43.61828" lon="3.86322">
        <ele>50</ele>
        <time>2021-02-28T16:23:57Z</time>
      </trkpt>
      <trkpt lat="43.61827" lon="3.86328">
        <ele>50</ele>
        <time>2021-02-28T16:23:58Z</time>
      </trkpt>
      <trkpt lat="43.61827" lon="3.86334">
        <ele>50</ele>
        <time>2021-02-28T16:23:59Z</time>
      </trkpt>
      <trkpt lat="43.61828" lon="3.86347">
        <ele>50</ele>
        <time>2021-02-28T16:24:00Z</time>
      </trkpt>
      <trkpt lat="43.61829" lon="3.86354">
        <ele>50</ele>
        <time>2021-02-28T16:24:01Z</time>
      </trkpt>
      <trkpt lat="43.61829" lon="3.86362">
        <ele>50</ele>
        <time>2021-02-28T16:24:02Z</time>
      </trkpt>
      <trkpt lat="43.61831" lon="3.86377">
        <ele>50</ele>
        <time>2021-02-28T16:24:04Z</time>
      </trkpt>
      <trkpt lat="43.61832" lon="3.86385">
        <ele>50</ele>
        <time>2021-02-28T16:24:05Z</time>
      </trkpt>
      <trkpt lat="43.61832" lon="3.86393">
        <ele>50</ele>
        <time>2021-02-28T16:24:06Z</time>
      </trkpt>
      <trkpt lat="43.61833" lon="3.864">
        <ele>50</ele>
        <time>2021-02-28T16:24:07Z</time>
      </trkpt>
      <trkpt lat="43.61834" lon="3.86408">
        <ele>50</ele>
        <time>2021-02-28T16:24:08Z</time>
      </trkpt>
      <trkpt lat="43.61834" lon="3.86416">
        <ele>46</ele>
        <time>2021-02-28T16:24:09Z</time>
      </trkpt>
      <trkpt lat="43.61835" lon="3.86424">
        <ele>46</ele>
        <time>2021-02-28T16:24:10Z</time>
      </trkpt>
      <trkpt lat="43.61835" lon="3.86431">
        <ele>46</ele>
        <time>2021-02-28T16:24:11Z</time>
      </trkpt>
      <trkpt lat="43.61836" lon="3.86439">
        <ele>46</ele>
        <time>2021-02-28T16:24:12Z</time>
      </trkpt>
      <trkpt lat="43.61836" lon="3.86447">
        <ele>46</ele>
        <time>2021-02-28T16:24:13Z</time>
      </trkpt>
      <trkpt lat="43.61837" lon="3.86455">
        <ele>46</ele>
        <time>2021-02-28T16:24:14Z</time>
      </trkpt>
      <trkpt lat="43.61837" lon="3.86463">
        <ele>46</ele>
        <time>2021-02-28T16:24:15Z</time>
      </trkpt>
      <trkpt lat="43.61838" lon="3.86479">
        <ele>46</ele>
        <time>2021-02-28T16:24:17Z</time>
      </trkpt>
      <trkpt lat="43.61837" lon="3.86488">
        <ele>46</ele>
        <time>2021-02-28T16:24:18Z</time>
      </trkpt>
      <trkpt lat="43.61836" lon="3.86496">
        <ele>44</ele>
        <time>2021-02-28T16:24:19Z</time>
      </trkpt>
      <trkpt lat="43.61832" lon="3.86513">
        <ele>44</ele>
        <time>2021-02-28T16:24:21Z</time>
      </trkpt>
      <trkpt lat="43.6183" lon="3.8652">
        <ele>44</ele>
        <time>2021-02-28T16:24:22Z</time>
      </trkpt>
      <trkpt lat="43.61825" lon="3.86534">
        <ele>44</ele>
        <time>2021-02-28T16:24:24Z</time>
      </trkpt>
      <trkpt lat="43.61823" lon="3.86541">
        <ele>44</ele>
        <time>2021-02-28T16:24:25Z</time>
      </trkpt>
      <trkpt lat="43.6182" lon="3.86548">
        <ele>44</ele>
        <time>2021-02-28T16:24:26Z</time>
      </trkpt>
      <trkpt lat="43.61818" lon="3.86555">
        <ele>44</ele>
        <time>2021-02-28T16:24:27Z</time>
      </trkpt>
      <trkpt lat="43.61817" lon="3.86561">
        <ele>44</ele>
        <time>2021-02-28T16:24:28Z</time>
      </trkpt>
      <trkpt lat="43.61815" lon="3.86567">
        <ele>43</ele>
        <time>2021-02-28T16:24:29Z</time>
      </trkpt>
      <trkpt lat="43.61813" lon="3.86573">
        <ele>43</ele>
        <time>2021-02-28T16:24:30Z</time>
      </trkpt>
      <trkpt lat="43.61811" lon="3.86578">
        <ele>43</ele>
        <time>2021-02-28T16:24:31Z</time>
      </trkpt>
      <trkpt lat="43.61808" lon="3.86584">
        <ele>43</ele>
        <time>2021-02-28T16:24:32Z</time>
      </trkpt>
      <trkpt lat="43.61806" lon="3.86589">
        <ele>43</ele>
        <time>2021-02-28T16:24:33Z</time>
      </trkpt>
      <trkpt lat="43.61803" lon="3.86594">
        <ele>43</ele>
        <time>2021-02-28T16:24:34Z</time>
      </trkpt>
      <trkpt lat="43.61801" lon="3.86599">
        <ele>43</ele>
        <time>2021-02-28T16:24:35Z</time>
      </trkpt>
      <trkpt lat="43.61799" lon="3.86604">
        <ele>43</ele>
        <time>2021-02-28T16:24:36Z</time>
      </trkpt>
      <trkpt lat="43.61796" lon="3.86609">
        <ele>43</ele>
        <time>2021-02-28T16:24:37Z</time>
      </trkpt>
      <trkpt lat="43.61793" lon="3.86614">
        <ele>43</ele>
        <time>2021-02-28T16:24:38Z</time>
      </trkpt>
      <trkpt lat="43.6179" lon="3.86619">
        <ele>42</ele>
        <time>2021-02-28T16:24:39Z</time>
      </trkpt>
      <trkpt lat="43.61787" lon="3.86623">
        <ele>42</ele>
        <time>2021-02-28T16:24:40Z</time>
      </trkpt>
      <trkpt lat="43.61785" lon="3.86628">
        <ele>42</ele>
        <time>2021-02-28T16:24:41Z</time>
      </trkpt>
      <trkpt lat="43.61782" lon="3.86634">
        <ele>42</ele>
        <time>2021-02-28T16:24:42Z</time>
      </trkpt>
      <trkpt lat="43.6178" lon="3.86639">
        <ele>42</ele>
        <time>2021-02-28T16:24:43Z</time>
      </trkpt>
      <trkpt lat="43.61775" lon="3.86648">
        <ele>42</ele>
        <time>2021-02-28T16:24:45Z</time>
      </trkpt>
      <trkpt lat="43.61773" lon="3.86653">
        <ele>42</ele>
        <time>2021-02-28T16:24:46Z</time>
      </trkpt>
      <trkpt lat="43.61771" lon="3.86657">
        <ele>42</ele>
        <time>2021-02-28T16:24:48Z</time>
      </trkpt>
      <trkpt lat="43.61769" lon="3.8666">
        <ele>41</ele>
        <time>2021-02-28T16:24:49Z</time>
      </trkpt>
      <trkpt lat="43.61768" lon="3.86663">
        <ele>41</ele>
        <time>2021-02-28T16:24:50Z</time>
      </trkpt>
      <trkpt lat="43.61767" lon="3.86665">
        <ele>41</ele>
        <time>2021-02-28T16:24:51Z</time>
      </trkpt>
      <trkpt lat="43.61762" lon="3.86671">
        <ele>41</ele>
        <time>2021-02-28T16:24:53Z</time>
      </trkpt>
      <trkpt lat="43.6176" lon="3.86675">
        <ele>41</ele>
        <time>2021-02-28T16:24:54Z</time>
      </trkpt>
      <trkpt lat="43.6176" lon="3.8668">
        <ele>41</ele>
        <time>2021-02-28T16:24:55Z</time>
      </trkpt>
      <trkpt lat="43.61759" lon="3.86686">
        <ele>41</ele>
        <time>2021-02-28T16:24:57Z</time>
      </trkpt>
      <trkpt lat="43.61757" lon="3.86692">
        <ele>41</ele>
        <time>2021-02-28T16:24:58Z</time>
      </trkpt>
      <trkpt lat="43.61755" lon="3.86705">
        <ele>40</ele>
        <time>2021-02-28T16:24:59Z</time>
      </trkpt>
      <trkpt lat="43.61753" lon="3.86712">
        <ele>40</ele>
        <time>2021-02-28T16:25:00Z</time>
      </trkpt>
      <trkpt lat="43.61752" lon="3.86718">
        <ele>40</ele>
        <time>2021-02-28T16:25:01Z</time>
      </trkpt>
      <trkpt lat="43.61751" lon="3.86725">
        <ele>40</ele>
        <time>2021-02-28T16:25:02Z</time>
      </trkpt>
      <trkpt lat="43.61749" lon="3.86731">
        <ele>40</ele>
        <time>2021-02-28T16:25:03Z</time>
      </trkpt>
      <trkpt lat="43.61746" lon="3.86744">
        <ele>40</ele>
        <time>2021-02-28T16:25:05Z</time>
      </trkpt>
      <trkpt lat="43.61744" lon="3.8675">
        <ele>40</ele>
        <time>2021-02-28T16:25:06Z</time>
      </trkpt>
      <trkpt lat="43.61742" lon="3.86756">
        <ele>40</ele>
        <time>2021-02-28T16:25:07Z</time>
      </trkpt>
      <trkpt lat="43.61739" lon="3.86761">
        <ele>40</ele>
        <time>2021-02-28T16:25:09Z</time>
      </trkpt>
      <trkpt lat="43.61736" lon="3.86767">
        <ele>38</ele>
        <time>2021-02-28T16:25:10Z</time>
      </trkpt>
      <trkpt lat="43.61733" lon="3.86772">
        <ele>38</ele>
        <time>2021-02-28T16:25:11Z</time>
      </trkpt>
      <trkpt lat="43.6173" lon="3.86776">
        <ele>38</ele>
        <time>2021-02-28T16:25:12Z</time>
      </trkpt>
      <trkpt lat="43.61726" lon="3.8678">
        <ele>38</ele>
        <time>2021-02-28T16:25:13Z</time>
      </trkpt>
      <trkpt lat="43.61722" lon="3.86783">
        <ele>38</ele>
        <time>2021-02-28T16:25:14Z</time>
      </trkpt>
      <trkpt lat="43.61705" lon="3.86791">
        <ele>38</ele>
        <time>2021-02-28T16:25:17Z</time>
      </trkpt>
      <trkpt lat="43.61701" lon="3.86794">
        <ele>38</ele>
        <time>2021-02-28T16:25:19Z</time>
      </trkpt>
      <trkpt lat="43.61696" lon="3.86796">
        <ele>38</ele>
        <time>2021-02-28T16:25:20Z</time>
      </trkpt>
      <trkpt lat="43.61693" lon="3.868">
        <ele>38</ele>
        <time>2021-02-28T16:25:21Z</time>
      </trkpt>
      <trkpt lat="43.61685" lon="3.86809">
        <ele>38</ele>
        <time>2021-02-28T16:25:22Z</time>
      </trkpt>
      <trkpt lat="43.61681" lon="3.86813">
        <ele>38</ele>
        <time>2021-02-28T16:25:23Z</time>
      </trkpt>
      <trkpt lat="43.61677" lon="3.86817">
        <ele>38</ele>
        <time>2021-02-28T16:25:24Z</time>
      </trkpt>
      <trkpt lat="43.61669" lon="3.86824">
        <ele>38</ele>
        <time>2021-02-28T16:25:26Z</time>
      </trkpt>
      <trkpt lat="43.61664" lon="3.86827">
        <ele>38</ele>
        <time>2021-02-28T16:25:27Z</time>
      </trkpt>
      <trkpt lat="43.6166" lon="3.86831">
        <ele>38</ele>
        <time>2021-02-28T16:25:28Z</time>
      </trkpt>
      <trkpt lat="43.61656" lon="3.86835">
        <ele>39</ele>
        <time>2021-02-28T16:25:29Z</time>
      </trkpt>
      <trkpt lat="43.61652" lon="3.86839">
        <ele>39</ele>
        <time>2021-02-28T16:25:30Z</time>
      </trkpt>
      <trkpt lat="43.61648" lon="3.86843">
        <ele>39</ele>
        <time>2021-02-28T16:25:31Z</time>
      </trkpt>
      <trkpt lat="43.61644" lon="3.86846">
        <ele>39</ele>
        <time>2021-02-28T16:25:32Z</time>
      </trkpt>
      <trkpt lat="43.61639" lon="3.86849">
        <ele>39</ele>
        <time>2021-02-28T16:25:33Z</time>
      </trkpt>
      <trkpt lat="43.61631" lon="3.86858">
        <ele>39</ele>
        <time>2021-02-28T16:25:35Z</time>
      </trkpt>
      <trkpt lat="43.61627" lon="3.86863">
        <ele>39</ele>
        <time>2021-02-28T16:25:36Z</time>
      </trkpt>
      <trkpt lat="43.61623" lon="3.86868">
        <ele>39</ele>
        <time>2021-02-28T16:25:37Z</time>
      </trkpt>
      <trkpt lat="43.61615" lon="3.86876">
        <ele>41</ele>
        <time>2021-02-28T16:25:39Z</time>
      </trkpt>
      <trkpt lat="43.61611" lon="3.8688">
        <ele>41</ele>
        <time>2021-02-28T16:25:40Z</time>
      </trkpt>
      <trkpt lat="43.61607" lon="3.86883">
        <ele>41</ele>
        <time>2021-02-28T16:25:41Z</time>
      </trkpt>
      <trkpt lat="43.61598" lon="3.86891">
        <ele>41</ele>
        <time>2021-02-28T16:25:43Z</time>
      </trkpt>
      <trkpt lat="43.61594" lon="3.86895">
        <ele>41</ele>
        <time>2021-02-28T16:25:44Z</time>
      </trkpt>
      <trkpt lat="43.6159" lon="3.86899">
        <ele>41</ele>
        <time>2021-02-28T16:25:45Z</time>
      </trkpt>
      <trkpt lat="43.61582" lon="3.86906">
        <ele>41</ele>
        <time>2021-02-28T16:25:47Z</time>
      </trkpt>
      <trkpt lat="43.61578" lon="3.8691">
        <ele>41</ele>
        <time>2021-02-28T16:25:48Z</time>
      </trkpt>
      <trkpt lat="43.61574" lon="3.86914">
        <ele>43</ele>
        <time>2021-02-28T16:25:49Z</time>
      </trkpt>
      <trkpt lat="43.6157" lon="3.86918">
        <ele>43</ele>
        <time>2021-02-28T16:25:50Z</time>
      </trkpt>
      <trkpt lat="43.61566" lon="3.86922">
        <ele>43</ele>
        <time>2021-02-28T16:25:51Z</time>
      </trkpt>
      <trkpt lat="43.61562" lon="3.86926">
        <ele>43</ele>
        <time>2021-02-28T16:25:52Z</time>
      </trkpt>
      <trkpt lat="43.61558" lon="3.86929">
        <ele>43</ele>
        <time>2021-02-28T16:25:53Z</time>
      </trkpt>
      <trkpt lat="43.61554" lon="3.86933">
        <ele>43</ele>
        <time>2021-02-28T16:25:54Z</time>
      </trkpt>
      <trkpt lat="43.6155" lon="3.86937">
        <ele>43</ele>
        <time>2021-02-28T16:25:55Z</time>
      </trkpt>
      <trkpt lat="43.61546" lon="3.86941">
        <ele>43</ele>
        <time>2021-02-28T16:25:56Z</time>
      </trkpt>
      <trkpt lat="43.61539" lon="3.86949">
        <ele>43</ele>
        <time>2021-02-28T16:25:58Z</time>
      </trkpt>
      <trkpt lat="43.61535" lon="3.86953">
        <ele>43</ele>
        <time>2021-02-28T16:26:00Z</time>
      </trkpt>
      <trkpt lat="43.61524" lon="3.86964">
        <ele>43</ele>
        <time>2021-02-28T16:26:02Z</time>
      </trkpt>
      <trkpt lat="43.61519" lon="3.86967">
        <ele>43</ele>
        <time>2021-02-28T16:26:03Z</time>
      </trkpt>
      <trkpt lat="43.61515" lon="3.8697">
        <ele>43</ele>
        <time>2021-02-28T16:26:05Z</time>
      </trkpt>
      <trkpt lat="43.61506" lon="3.86977">
        <ele>43</ele>
        <time>2021-02-28T16:26:06Z</time>
      </trkpt>
      <trkpt lat="43.61502" lon="3.86981">
        <ele>43</ele>
        <time>2021-02-28T16:26:07Z</time>
      </trkpt>
      <trkpt lat="43.61498" lon="3.86985">
        <ele>43</ele>
        <time>2021-02-28T16:26:08Z</time>
      </trkpt>
      <trkpt lat="43.61494" lon="3.86988">
        <ele>45</ele>
        <time>2021-02-28T16:26:09Z</time>
      </trkpt>
      <trkpt lat="43.6149" lon="3.86992">
        <ele>45</ele>
        <time>2021-02-28T16:26:10Z</time>
      </trkpt>
      <trkpt lat="43.61485" lon="3.86995">
        <ele>45</ele>
        <time>2021-02-28T16:26:11Z</time>
      </trkpt>
      <trkpt lat="43.61481" lon="3.86998">
        <ele>45</ele>
        <time>2021-02-28T16:26:12Z</time>
      </trkpt>
      <trkpt lat="43.61476" lon="3.87">
        <ele>45</ele>
        <time>2021-02-28T16:26:13Z</time>
      </trkpt>
      <trkpt lat="43.61467" lon="3.87005">
        <ele>45</ele>
        <time>2021-02-28T16:26:15Z</time>
      </trkpt>
      <trkpt lat="43.61463" lon="3.87007">
        <ele>45</ele>
        <time>2021-02-28T16:26:16Z</time>
      </trkpt>
      <trkpt lat="43.61459" lon="3.8701">
        <ele>45</ele>
        <time>2021-02-28T16:26:17Z</time>
      </trkpt>
      <trkpt lat="43.61451" lon="3.87015">
        <ele>44</ele>
        <time>2021-02-28T16:26:19Z</time>
      </trkpt>
      <trkpt lat="43.61446" lon="3.87018">
        <ele>44</ele>
        <time>2021-02-28T16:26:20Z</time>
      </trkpt>
      <trkpt lat="43.61442" lon="3.87021">
        <ele>44</ele>
        <time>2021-02-28T16:26:21Z</time>
      </trkpt>
      <trkpt lat="43.61438" lon="3.87024">
        <ele>44</ele>
        <time>2021-02-28T16:26:22Z</time>
      </trkpt>
      <trkpt lat="43.61433" lon="3.87027">
        <ele>44</ele>
        <time>2021-02-28T16:26:23Z</time>
      </trkpt>
      <trkpt lat="43.61425" lon="3.87031">
        <ele>44</ele>
        <time>2021-02-28T16:26:25Z</time>
      </trkpt>
      <trkpt lat="43.61421" lon="3.87034">
        <ele>44</ele>
        <time>2021-02-28T16:26:26Z</time>
      </trkpt>
      <trkpt lat="43.61417" lon="3.87037">
        <ele>44</ele>
        <time>2021-02-28T16:26:27Z</time>
      </trkpt>
      <trkpt lat="43.61408" lon="3.87041">
        <ele>45</ele>
        <time>2021-02-28T16:26:29Z</time>
      </trkpt>
      <trkpt lat="43.61404" lon="3.87044">
        <ele>45</ele>
        <time>2021-02-28T16:26:30Z</time>
      </trkpt>
      <trkpt lat="43.614" lon="3.87046">
        <ele>45</ele>
        <time>2021-02-28T16:26:31Z</time>
      </trkpt>
      <trkpt lat="43.61396" lon="3.87048">
        <ele>45</ele>
        <time>2021-02-28T16:26:32Z</time>
      </trkpt>
      <trkpt lat="43.61385" lon="3.87052">
        <ele>45</ele>
        <time>2021-02-28T16:26:34Z</time>
      </trkpt>
      <trkpt lat="43.61381" lon="3.87054">
        <ele>45</ele>
        <time>2021-02-28T16:26:35Z</time>
      </trkpt>
      <trkpt lat="43.61377" lon="3.87056">
        <ele>45</ele>
        <time>2021-02-28T16:26:36Z</time>
      </trkpt>
      <trkpt lat="43.61373" lon="3.87057">
        <ele>45</ele>
        <time>2021-02-28T16:26:37Z</time>
      </trkpt>
      <trkpt lat="43.61369" lon="3.87059">
        <ele>45</ele>
        <time>2021-02-28T16:26:38Z</time>
      </trkpt>
      <trkpt lat="43.61365" lon="3.87061">
        <ele>45</ele>
        <time>2021-02-28T16:26:39Z</time>
      </trkpt>
      <trkpt lat="43.61362" lon="3.87063">
        <ele>45</ele>
        <time>2021-02-28T16:26:40Z</time>
      </trkpt>
      <trkpt lat="43.61358" lon="3.87066">
        <ele>45</ele>
        <time>2021-02-28T16:26:41Z</time>
      </trkpt>
      <trkpt lat="43.61355" lon="3.87068">
        <ele>45</ele>
        <time>2021-02-28T16:26:42Z</time>
      </trkpt>
      <trkpt lat="43.61352" lon="3.87071">
        <ele>45</ele>
        <time>2021-02-28T16:26:43Z</time>
      </trkpt>
      <trkpt lat="43.61349" lon="3.87074">
        <ele>45</ele>
        <time>2021-02-28T16:26:45Z</time>
      </trkpt>
      <trkpt lat="43.61347" lon="3.87078">
        <ele>45</ele>
        <time>2021-02-28T16:26:46Z</time>
      </trkpt>
      <trkpt lat="43.61342" lon="3.87083">
        <ele>45</ele>
        <time>2021-02-28T16:26:48Z</time>
      </trkpt>
      <trkpt lat="43.6134" lon="3.87086">
        <ele>44</ele>
        <time>2021-02-28T16:26:49Z</time>
      </trkpt>
      <trkpt lat="43.61336" lon="3.87092">
        <ele>44</ele>
        <time>2021-02-28T16:26:50Z</time>
      </trkpt>
      <trkpt lat="43.61334" lon="3.87095">
        <ele>44</ele>
        <time>2021-02-28T16:26:51Z</time>
      </trkpt>
      <trkpt lat="43.61331" lon="3.87097">
        <ele>44</ele>
        <time>2021-02-28T16:26:52Z</time>
      </trkpt>
      <trkpt lat="43.61329" lon="3.87099">
        <ele>44</ele>
        <time>2021-02-28T16:26:53Z</time>
      </trkpt>
      <trkpt lat="43.61327" lon="3.87101">
        <ele>44</ele>
        <time>2021-02-28T16:26:55Z</time>
      </trkpt>
      <trkpt lat="43.61325" lon="3.87104">
        <ele>44</ele>
        <time>2021-02-28T16:26:56Z</time>
      </trkpt>
      <trkpt lat="43.61323" lon="3.87106">
        <ele>44</ele>
        <time>2021-02-28T16:26:57Z</time>
      </trkpt>
      <trkpt lat="43.6132" lon="3.87111">
        <ele>44</ele>
        <time>2021-02-28T16:26:58Z</time>
      </trkpt>
      <trkpt lat="43.61318" lon="3.87113">
        <ele>45</ele>
        <time>2021-02-28T16:26:59Z</time>
      </trkpt>
      <trkpt lat="43.61316" lon="3.87116">
        <ele>45</ele>
        <time>2021-02-28T16:27:00Z</time>
      </trkpt>
      <trkpt lat="43.61314" lon="3.87118">
        <ele>45</ele>
        <time>2021-02-28T16:27:01Z</time>
      </trkpt>
      <trkpt lat="43.61313" lon="3.8712">
        <ele>45</ele>
        <time>2021-02-28T16:27:02Z</time>
      </trkpt>
      <trkpt lat="43.61311" lon="3.87123">
        <ele>45</ele>
        <time>2021-02-28T16:27:03Z</time>
      </trkpt>
      <trkpt lat="43.61309" lon="3.87126">
        <ele>45</ele>
        <time>2021-02-28T16:27:04Z</time>
      </trkpt>
      <trkpt lat="43.61308" lon="3.87128">
        <ele>45</ele>
        <time>2021-02-28T16:27:05Z</time>
      </trkpt>
      <trkpt lat="43.61304" lon="3.87133">
        <ele>45</ele>
        <time>2021-02-28T16:27:07Z</time>
      </trkpt>
      <trkpt lat="43.61302" lon="3.87136">
        <ele>45</ele>
        <time>2021-02-28T16:27:08Z</time>
      </trkpt>
      <trkpt lat="43.613" lon="3.87138">
        <ele>46</ele>
        <time>2021-02-28T16:27:09Z</time>
      </trkpt>
      <trkpt lat="43.61296" lon="3.87143">
        <ele>46</ele>
        <time>2021-02-28T16:27:11Z</time>
      </trkpt>
      <trkpt lat="43.61294" lon="3.87145">
        <ele>46</ele>
        <time>2021-02-28T16:27:12Z</time>
      </trkpt>
      <trkpt lat="43.61292" lon="3.87147">
        <ele>46</ele>
        <time>2021-02-28T16:27:13Z</time>
      </trkpt>
      <trkpt lat="43.61289" lon="3.87151">
        <ele>46</ele>
        <time>2021-02-28T16:27:15Z</time>
      </trkpt>
      <trkpt lat="43.61287" lon="3.87153">
        <ele>46</ele>
        <time>2021-02-28T16:27:16Z</time>
      </trkpt>
      <trkpt lat="43.61285" lon="3.87155">
        <ele>46</ele>
        <time>2021-02-28T16:27:17Z</time>
      </trkpt>
      <trkpt lat="43.61283" lon="3.87158">
        <ele>46</ele>
        <time>2021-02-28T16:27:18Z</time>
      </trkpt>
      <trkpt lat="43.61281" lon="3.8716">
        <ele>47</ele>
        <time>2021-02-28T16:27:19Z</time>
      </trkpt>
      <trkpt lat="43.6128" lon="3.87162">
        <ele>47</ele>
        <time>2021-02-28T16:27:20Z</time>
      </trkpt>
      <trkpt lat="43.61278" lon="3.87165">
        <ele>47</ele>
        <time>2021-02-28T16:27:21Z</time>
      </trkpt>
      <trkpt lat="43.61277" lon="3.87167">
        <ele>47</ele>
        <time>2021-02-28T16:27:22Z</time>
      </trkpt>
      <trkpt lat="43.61275" lon="3.87169">
        <ele>47</ele>
        <time>2021-02-28T16:27:23Z</time>
      </trkpt>
      <trkpt lat="43.61273" lon="3.87171">
        <ele>47</ele>
        <time>2021-02-28T16:27:24Z</time>
      </trkpt>
      <trkpt lat="43.61271" lon="3.87173">
        <ele>47</ele>
        <time>2021-02-28T16:27:25Z</time>
      </trkpt>
      <trkpt lat="43.61269" lon="3.87176">
        <ele>47</ele>
        <time>2021-02-28T16:27:26Z</time>
      </trkpt>
      <trkpt lat="43.61265" lon="3.8718">
        <ele>47</ele>
        <time>2021-02-28T16:27:28Z</time>
      </trkpt>
      <trkpt lat="43.61263" lon="3.87182">
        <ele>49</ele>
        <time>2021-02-28T16:27:29Z</time>
      </trkpt>
      <trkpt lat="43.61262" lon="3.87184">
        <ele>49</ele>
        <time>2021-02-28T16:27:30Z</time>
      </trkpt>
      <trkpt lat="43.61259" lon="3.8719">
        <ele>49</ele>
        <time>2021-02-28T16:27:32Z</time>
      </trkpt>
      <trkpt lat="43.61258" lon="3.87192">
        <ele>49</ele>
        <time>2021-02-28T16:27:33Z</time>
      </trkpt>
      <trkpt lat="43.61257" lon="3.87195">
        <ele>49</ele>
        <time>2021-02-28T16:27:34Z</time>
      </trkpt>
      <trkpt lat="43.61255" lon="3.87201">
        <ele>49</ele>
        <time>2021-02-28T16:27:36Z</time>
      </trkpt>
      <trkpt lat="43.61254" lon="3.87204">
        <ele>49</ele>
        <time>2021-02-28T16:27:37Z</time>
      </trkpt>
      <trkpt lat="43.61253" lon="3.87207">
        <ele>49</ele>
        <time>2021-02-28T16:27:38Z</time>
      </trkpt>
      <trkpt lat="43.61252" lon="3.8721">
        <ele>50</ele>
        <time>2021-02-28T16:27:39Z</time>
      </trkpt>
      <trkpt lat="43.6125" lon="3.87216">
        <ele>50</ele>
        <time>2021-02-28T16:27:41Z</time>
      </trkpt>
      <trkpt lat="43.6125" lon="3.87219">
        <ele>50</ele>
        <time>2021-02-28T16:27:42Z</time>
      </trkpt>
      <trkpt lat="43.61251" lon="3.87223">
        <ele>50</ele>
        <time>2021-02-28T16:27:43Z</time>
      </trkpt>
      <trkpt lat="43.61251" lon="3.87227">
        <ele>50</ele>
        <time>2021-02-28T16:27:44Z</time>
      </trkpt>
      <trkpt lat="43.61252" lon="3.87231">
        <ele>50</ele>
        <time>2021-02-28T16:27:45Z</time>
      </trkpt>
      <trkpt lat="43.61252" lon="3.87234">
        <ele>50</ele>
        <time>2021-02-28T16:27:46Z</time>
      </trkpt>
      <trkpt lat="43.61253" lon="3.87238">
        <ele>50</ele>
        <time>2021-02-28T16:27:47Z</time>
      </trkpt>
      <trkpt lat="43.61255" lon="3.87244">
        <ele>50</ele>
        <time>2021-02-28T16:27:49Z</time>
      </trkpt>
      <trkpt lat="43.61256" lon="3.87247">
        <ele>50</ele>
        <time>2021-02-28T16:27:50Z</time>
      </trkpt>
      <trkpt lat="43.61257" lon="3.8725">
        <ele>50</ele>
        <time>2021-02-28T16:27:51Z</time>
      </trkpt>
      <trkpt lat="43.61257" lon="3.87259">
        <ele>50</ele>
        <time>2021-02-28T16:27:53Z</time>
      </trkpt>
      <trkpt lat="43.61258" lon="3.87263">
        <ele>50</ele>
        <time>2021-02-28T16:27:54Z</time>
      </trkpt>
      <trkpt lat="43.61258" lon="3.87267">
        <ele>50</ele>
        <time>2021-02-28T16:27:55Z</time>
      </trkpt>
      <trkpt lat="43.61255" lon="3.87272">
        <ele>50</ele>
        <time>2021-02-28T16:27:57Z</time>
      </trkpt>
      <trkpt lat="43.61254" lon="3.87275">
        <ele>52</ele>
        <time>2021-02-28T16:27:59Z</time>
      </trkpt>
      <trkpt lat="43.61253" lon="3.87279">
        <ele>52</ele>
        <time>2021-02-28T16:28:01Z</time>
      </trkpt>
      <trkpt lat="43.61251" lon="3.87281">
        <ele>52</ele>
        <time>2021-02-28T16:28:04Z</time>
      </trkpt>
      <trkpt lat="43.61249" lon="3.87283">
        <ele>52</ele>
        <time>2021-02-28T16:28:05Z</time>
      </trkpt>
      <trkpt lat="43.61247" lon="3.87286">
        <ele>52</ele>
        <time>2021-02-28T16:28:08Z</time>
      </trkpt>
      <trkpt lat="43.61245" lon="3.87288">
        <ele>51</ele>
        <time>2021-02-28T16:28:09Z</time>
      </trkpt>
      <trkpt lat="43.61243" lon="3.8729">
        <ele>51</ele>
        <time>2021-02-28T16:28:11Z</time>
      </trkpt>
      <trkpt lat="43.61241" lon="3.87293">
        <ele>51</ele>
        <time>2021-02-28T16:28:12Z</time>
      </trkpt>
      <trkpt lat="43.61239" lon="3.87296">
        <ele>51</ele>
        <time>2021-02-28T16:28:15Z</time>
      </trkpt>
      <trkpt lat="43.61237" lon="3.87298">
        <ele>51</ele>
        <time>2021-02-28T16:28:16Z</time>
      </trkpt>
      <trkpt lat="43.61235" lon="3.87302">
        <ele>51</ele>
        <time>2021-02-28T16:28:18Z</time>
      </trkpt>
      <trkpt lat="43.61233" lon="3.87306">
        <ele>51</ele>
        <time>2021-02-28T16:28:19Z</time>
      </trkpt>
      <trkpt lat="43.61231" lon="3.8731">
        <ele>51</ele>
        <time>2021-02-28T16:28:21Z</time>
      </trkpt>
      <trkpt lat="43.6123" lon="3.87312">
        <ele>51</ele>
        <time>2021-02-28T16:28:22Z</time>
      </trkpt>
      <trkpt lat="43.61229" lon="3.87314">
        <ele>51</ele>
        <time>2021-02-28T16:28:23Z</time>
      </trkpt>
      <trkpt lat="43.61227" lon="3.87315">
        <ele>51</ele>
        <time>2021-02-28T16:28:24Z</time>
      </trkpt>
      <trkpt lat="43.61226" lon="3.87317">
        <ele>51</ele>
        <time>2021-02-28T16:28:25Z</time>
      </trkpt>
      <trkpt lat="43.61224" lon="3.87319">
        <ele>51</ele>
        <time>2021-02-28T16:28:26Z</time>
      </trkpt>
      <trkpt lat="43.61222" lon="3.87322">
        <ele>51</ele>
        <time>2021-02-28T16:28:28Z</time>
      </trkpt>
      <trkpt lat="43.6122" lon="3.87326">
        <ele>51</ele>
        <time>2021-02-28T16:28:31Z</time>
      </trkpt>
      <trkpt lat="43.61219" lon="3.8733">
        <ele>51</ele>
        <time>2021-02-28T16:28:32Z</time>
      </trkpt>
      <trkpt lat="43.61214" lon="3.8734">
        <ele>51</ele>
        <time>2021-02-28T16:28:38Z</time>
      </trkpt>
      <trkpt lat="43.61206" lon="3.87347">
        <ele>51</ele>
        <time>2021-02-28T16:28:43Z</time>
      </trkpt>
      <trkpt lat="43.61203" lon="3.87352">
        <ele>51</ele>
        <time>2021-02-28T16:28:45Z</time>
      </trkpt>
      <trkpt lat="43.61201" lon="3.87356">
        <ele>51</ele>
        <time>2021-02-28T16:28:47Z</time>
      </trkpt>
      <trkpt lat="43.612" lon="3.87358">
        <ele>51</ele>
        <time>2021-02-28T16:28:49Z</time>
      </trkpt>
      <trkpt lat="43.61198" lon="3.8736">
        <ele>51</ele>
        <time>2021-02-28T16:28:50Z</time>
      </trkpt>
      <trkpt lat="43.61196" lon="3.87364">
        <ele>51</ele>
        <time>2021-02-28T16:28:52Z</time>
      </trkpt>
      <trkpt lat="43.61194" lon="3.87365">
        <ele>51</ele>
        <time>2021-02-28T16:28:53Z</time>
      </trkpt>
      <trkpt lat="43.61187" lon="3.87372">
        <ele>51</ele>
        <time>2021-02-28T16:28:58Z</time>
      </trkpt>
      <trkpt lat="43.61179" lon="3.87381">
        <ele>51</ele>
        <time>2021-02-28T16:29:02Z</time>
      </trkpt>
      <trkpt lat="43.61175" lon="3.87396">
        <ele>51</ele>
        <time>2021-02-28T16:29:05Z</time>
      </trkpt>
      <trkpt lat="43.61172" lon="3.87408">
        <ele>51</ele>
        <time>2021-02-28T16:29:09Z</time>
      </trkpt>
      <trkpt lat="43.61169" lon="3.87422">
        <ele>51</ele>
        <time>2021-02-28T16:29:12Z</time>
      </trkpt>
      <trkpt lat="43.61176" lon="3.87431">
        <ele>51</ele>
        <time>2021-02-28T16:29:15Z</time>
      </trkpt>
      <trkpt lat="43.61185" lon="3.8744">
        <ele>51</ele>
        <time>2021-02-28T16:29:17Z</time>
      </trkpt>
      <trkpt lat="43.61187" lon="3.87447">
        <ele>51</ele>
        <time>2021-02-28T16:29:20Z</time>
      </trkpt>
      <trkpt lat="43.61187" lon="3.8745">
        <ele>51</ele>
        <time>2021-02-28T16:29:21Z</time>
      </trkpt>
      <trkpt lat="43.61189" lon="3.87452">
        <ele>51</ele>
        <time>2021-02-28T16:29:22Z</time>
      </trkpt>
      <trkpt lat="43.6119" lon="3.87454">
        <ele>51</ele>
        <time>2021-02-28T16:29:23Z</time>
      </trkpt>
      <trkpt lat="43.61194" lon="3.87458">
        <ele>51</ele>
        <time>2021-02-28T16:29:24Z</time>
      </trkpt>
      <trkpt lat="43.61197" lon="3.87461">
        <ele>51</ele>
        <time>2021-02-28T16:29:25Z</time>
      </trkpt>
      <trkpt lat="43.61199" lon="3.87463">
        <ele>51</ele>
        <time>2021-02-28T16:29:26Z</time>
      </trkpt>
      <trkpt lat="43.61201" lon="3.87465">
        <ele>51</ele>
        <time>2021-02-28T16:29:27Z</time>
      </trkpt>
      <trkpt lat="43.61204" lon="3.87467">
        <ele>55</ele>
        <time>2021-02-28T16:29:29Z</time>
      </trkpt>
      <trkpt lat="43.61206" lon="3.8747">
        <ele>55</ele>
        <time>2021-02-28T16:29:30Z</time>
      </trkpt>
      <trkpt lat="43.61209" lon="3.87472">
        <ele>55</ele>
        <time>2021-02-28T16:29:31Z</time>
      </trkpt>
      <trkpt lat="43.61211" lon="3.87475">
        <ele>55</ele>
        <time>2021-02-28T16:29:32Z</time>
      </trkpt>
      <trkpt lat="43.61213" lon="3.87477">
        <ele>55</ele>
        <time>2021-02-28T16:29:33Z</time>
      </trkpt>
      <trkpt lat="43.61215" lon="3.8748">
        <ele>55</ele>
        <time>2021-02-28T16:29:34Z</time>
      </trkpt>
      <trkpt lat="43.61216" lon="3.87483">
        <ele>55</ele>
        <time>2021-02-28T16:29:35Z</time>
      </trkpt>
      <trkpt lat="43.61216" lon="3.87486">
        <ele>55</ele>
        <time>2021-02-28T16:29:36Z</time>
      </trkpt>
      <trkpt lat="43.61213" lon="3.87493">
        <ele>55</ele>
        <time>2021-02-28T16:29:37Z</time>
      </trkpt>
      <trkpt lat="43.61211" lon="3.87496">
        <ele>55</ele>
        <time>2021-02-28T16:29:38Z</time>
      </trkpt>
      <trkpt lat="43.61208" lon="3.87503">
        <ele>55</ele>
        <time>2021-02-28T16:29:40Z</time>
      </trkpt>
      <trkpt lat="43.61206" lon="3.87506">
        <ele>55</ele>
        <time>2021-02-28T16:29:42Z</time>
      </trkpt>
      <trkpt lat="43.61205" lon="3.87511">
        <ele>55</ele>
        <time>2021-02-28T16:29:43Z</time>
      </trkpt>
      <trkpt lat="43.61199" lon="3.87526">
        <ele>55</ele>
        <time>2021-02-28T16:29:46Z</time>
      </trkpt>
      <trkpt lat="43.61197" lon="3.8754">
        <ele>55</ele>
        <time>2021-02-28T16:29:48Z</time>
      </trkpt>
      <trkpt lat="43.61198" lon="3.87553">
        <ele>55</ele>
        <time>2021-02-28T16:29:52Z</time>
      </trkpt>
      <trkpt lat="43.61196" lon="3.87566">
        <ele>55</ele>
        <time>2021-02-28T16:29:56Z</time>
      </trkpt>
      <trkpt lat="43.61196" lon="3.8758">
        <ele>56</ele>
        <time>2021-02-28T16:29:59Z</time>
      </trkpt>
      <trkpt lat="43.61192" lon="3.87596">
        <ele>56</ele>
        <time>2021-02-28T16:30:02Z</time>
      </trkpt>
      <trkpt lat="43.61191" lon="3.87601">
        <ele>56</ele>
        <time>2021-02-28T16:30:03Z</time>
      </trkpt>
      <trkpt lat="43.61191" lon="3.87608">
        <ele>56</ele>
        <time>2021-02-28T16:30:04Z</time>
      </trkpt>
      <trkpt lat="43.61188" lon="3.87624">
        <ele>56</ele>
        <time>2021-02-28T16:30:07Z</time>
      </trkpt>
      <trkpt lat="43.61185" lon="3.87636">
        <ele>56</ele>
        <time>2021-02-28T16:30:11Z</time>
      </trkpt>
      <trkpt lat="43.6118" lon="3.87648">
        <ele>56</ele>
        <time>2021-02-28T16:30:14Z</time>
      </trkpt>
      <trkpt lat="43.61175" lon="3.87661">
        <ele>55</ele>
        <time>2021-02-28T16:30:19Z</time>
      </trkpt>
      <trkpt lat="43.61172" lon="3.87669">
        <ele>55</ele>
        <time>2021-02-28T16:30:21Z</time>
      </trkpt>
      <trkpt lat="43.6117" lon="3.87674">
        <ele>55</ele>
        <time>2021-02-28T16:30:23Z</time>
      </trkpt>
      <trkpt lat="43.6117" lon="3.87678">
        <ele>55</ele>
        <time>2021-02-28T16:30:24Z</time>
      </trkpt>
      <trkpt lat="43.6117" lon="3.87682">
        <ele>55</ele>
        <time>2021-02-28T16:30:25Z</time>
      </trkpt>
      <trkpt lat="43.61169" lon="3.87684">
        <ele>55</ele>
        <time>2021-02-28T16:30:26Z</time>
      </trkpt>
      <trkpt lat="43.61168" lon="3.87687">
        <ele>55</ele>
        <time>2021-02-28T16:30:27Z</time>
      </trkpt>
      <trkpt lat="43.61167" lon="3.8769">
        <ele>55</ele>
        <time>2021-02-28T16:30:28Z</time>
      </trkpt>
      <trkpt lat="43.61165" lon="3.87692">
        <ele>55</ele>
        <time>2021-02-28T16:30:29Z</time>
      </trkpt>
      <trkpt lat="43.61164" lon="3.87697">
        <ele>55</ele>
        <time>2021-02-28T16:30:31Z</time>
      </trkpt>
      <trkpt lat="43.61163" lon="3.87701">
        <ele>55</ele>
        <time>2021-02-28T16:30:32Z</time>
      </trkpt>
      <trkpt lat="43.61161" lon="3.87713">
        <ele>55</ele>
        <time>2021-02-28T16:30:36Z</time>
      </trkpt>
      <trkpt lat="43.61161" lon="3.87729">
        <ele>55</ele>
        <time>2021-02-28T16:30:40Z</time>
      </trkpt>
      <trkpt lat="43.61162" lon="3.87732">
        <ele>55</ele>
        <time>2021-02-28T16:30:41Z</time>
      </trkpt>
      <trkpt lat="43.61162" lon="3.87735">
        <ele>55</ele>
        <time>2021-02-28T16:30:42Z</time>
      </trkpt>
      <trkpt lat="43.61162" lon="3.87739">
        <ele>55</ele>
        <time>2021-02-28T16:30:44Z</time>
      </trkpt>
      <trkpt lat="43.61161" lon="3.87743">
        <ele>55</ele>
        <time>2021-02-28T16:30:46Z</time>
      </trkpt>
      <trkpt lat="43.6116" lon="3.87746">
        <ele>55</ele>
        <time>2021-02-28T16:30:48Z</time>
      </trkpt>
      <trkpt lat="43.61159" lon="3.8775">
        <ele>55</ele>
        <time>2021-02-28T16:30:51Z</time>
      </trkpt>
      <trkpt lat="43.61157" lon="3.8775">
        <ele>55</ele>
        <time>2021-02-28T16:30:56Z</time>
      </trkpt>
      <trkpt lat="43.61153" lon="3.87755">
        <ele>55</ele>
        <time>2021-02-28T16:31:08Z</time>
      </trkpt>
      <trkpt lat="43.61152" lon="3.87758">
        <ele>55</ele>
        <time>2021-02-28T16:31:13Z</time>
      </trkpt>
      <trkpt lat="43.61151" lon="3.87758">
        <ele>52</ele>
        <time>2021-02-28T16:31:16Z</time>
      </trkpt>
      <trkpt lat="43.61159" lon="3.87747">
        <ele>50</ele>
        <time>2021-02-28T16:31:24Z</time>
      </trkpt>
      <trkpt lat="43.6116" lon="3.87745">
        <ele>50</ele>
        <time>2021-02-28T16:31:26Z</time>
      </trkpt>
      <trkpt lat="43.61159" lon="3.87746">
        <ele>48</ele>
        <time>2021-02-28T16:31:32Z</time>
      </trkpt>
      <trkpt lat="43.61154" lon="3.87751">
        <ele>51</ele>
        <time>2021-02-28T16:31:55Z</time>
      </trkpt>
      <trkpt lat="43.61153" lon="3.8775">
        <ele>51</ele>
        <time>2021-02-28T16:31:56Z</time>
      </trkpt>
      <trkpt lat="43.61149" lon="3.87751">
        <ele>51</ele>
        <time>2021-02-28T16:32:02Z</time>
      </trkpt>
      <trkpt lat="43.61149" lon="3.87747">
        <ele>47</ele>
        <time>2021-02-28T16:32:12Z</time>
      </trkpt>
      <trkpt lat="43.61149" lon="3.87748">
        <ele>47</ele>
        <time>2021-02-28T16:32:13Z</time>
      </trkpt>
      <trkpt lat="43.61145" lon="3.87754">
        <ele>47</ele>
        <time>2021-02-28T16:32:14Z</time>
      </trkpt>
      <trkpt lat="43.61142" lon="3.87759">
        <ele>47</ele>
        <time>2021-02-28T16:32:17Z</time>
      </trkpt>
      <trkpt lat="43.61135" lon="3.87764">
        <ele>47</ele>
        <time>2021-02-28T16:32:24Z</time>
      </trkpt>
      <trkpt lat="43.61133" lon="3.87764">
        <ele>47</ele>
        <time>2021-02-28T16:32:26Z</time>
      </trkpt>
      <trkpt lat="43.61137" lon="3.87752">
        <ele>47</ele>
        <time>2021-02-28T16:32:31Z</time>
      </trkpt>
      <trkpt lat="43.61145" lon="3.87745">
        <ele>47</ele>
        <time>2021-02-28T16:32:38Z</time>
      </trkpt>
      <trkpt lat="43.6115" lon="3.87735">
        <ele>47</ele>
        <time>2021-02-28T16:32:46Z</time>
      </trkpt>
      <trkpt lat="43.61149" lon="3.87735">
        <ele>56</ele>
        <time>2021-02-28T16:32:54Z</time>
      </trkpt>
      <trkpt lat="43.61155" lon="3.87733">
        <ele>53</ele>
        <time>2021-02-28T16:33:10Z</time>
      </trkpt>
      <trkpt lat="43.61152" lon="3.87737">
        <ele>53</ele>
        <time>2021-02-28T16:33:18Z</time>
      </trkpt>
    </trkseg>
  </trk>
</gpx>